<?xml version="1.0" encoding="UTF-8" standalone="no" ?>
<gpx xmlns="http://www.topografix.com/GPX/1/1" xmlns:xsi="http://www.w3.org/2001/XMLSchema-instance" xsi:schemaLocation="http://www.topografix.com/GPX/1/1 http://www.topografix.com/GPX/1/1/gpx.xsd" version="1.1" creator="VisuGPX - https://www.visugpx.com">
  <metadata>
    <name>25-07-23</name>
    <desc><![CDATA[TDF-USMétro]]></desc>
  </metadata>
  <trk>
    <name><![CDATA[25-07-23_1]]></name>
    <trkseg>
      <trkpt lat="43.0992" lon="-0.62254">
        <ele>315</ele>
        <time>2025-07-23T04:31:58Z</time>
      </trkpt>
      <trkpt lat="43.09923" lon="-0.62254">
        <ele>332.8</ele>
        <time>2025-07-23T04:31:59Z</time>
      </trkpt>
      <trkpt lat="43.09931" lon="-0.62252">
        <ele>334.6</ele>
        <time>2025-07-23T04:32:01Z</time>
      </trkpt>
      <trkpt lat="43.09942" lon="-0.62248">
        <ele>335</ele>
        <time>2025-07-23T04:32:04Z</time>
      </trkpt>
      <trkpt lat="43.09971" lon="-0.62232">
        <ele>334.8</ele>
        <time>2025-07-23T04:32:11Z</time>
      </trkpt>
      <trkpt lat="43.0999" lon="-0.62215">
        <ele>334.2</ele>
        <time>2025-07-23T04:32:15Z</time>
      </trkpt>
      <trkpt lat="43.09995" lon="-0.62209">
        <ele>334</ele>
        <time>2025-07-23T04:32:16Z</time>
      </trkpt>
      <trkpt lat="43.10015" lon="-0.62186">
        <ele>333.6</ele>
        <time>2025-07-23T04:32:20Z</time>
      </trkpt>
      <trkpt lat="43.10032" lon="-0.62165">
        <ele>333</ele>
        <time>2025-07-23T04:32:23Z</time>
      </trkpt>
      <trkpt lat="43.10044" lon="-0.62153">
        <ele>332.2</ele>
        <time>2025-07-23T04:32:25Z</time>
      </trkpt>
      <trkpt lat="43.10056" lon="-0.6214">
        <ele>331.8</ele>
        <time>2025-07-23T04:32:27Z</time>
      </trkpt>
      <trkpt lat="43.1007" lon="-0.62129">
        <ele>331.2</ele>
        <time>2025-07-23T04:32:29Z</time>
      </trkpt>
      <trkpt lat="43.10093" lon="-0.62113">
        <ele>330.2</ele>
        <time>2025-07-23T04:32:32Z</time>
      </trkpt>
      <trkpt lat="43.10109" lon="-0.62103">
        <ele>329.2</ele>
        <time>2025-07-23T04:32:34Z</time>
      </trkpt>
      <trkpt lat="43.10117" lon="-0.62099">
        <ele>329</ele>
        <time>2025-07-23T04:32:35Z</time>
      </trkpt>
      <trkpt lat="43.10146" lon="-0.62089">
        <ele>328</ele>
        <time>2025-07-23T04:32:38Z</time>
      </trkpt>
      <trkpt lat="43.10156" lon="-0.62087">
        <ele>327.2</ele>
        <time>2025-07-23T04:32:39Z</time>
      </trkpt>
      <trkpt lat="43.10167" lon="-0.62085">
        <ele>326.8</ele>
        <time>2025-07-23T04:32:40Z</time>
      </trkpt>
      <trkpt lat="43.10189" lon="-0.62083">
        <ele>325.4</ele>
        <time>2025-07-23T04:32:42Z</time>
      </trkpt>
      <trkpt lat="43.10212" lon="-0.62084">
        <ele>324.4</ele>
        <time>2025-07-23T04:32:44Z</time>
      </trkpt>
      <trkpt lat="43.10223" lon="-0.62084">
        <ele>323.2</ele>
        <time>2025-07-23T04:32:45Z</time>
      </trkpt>
      <trkpt lat="43.10247" lon="-0.62087">
        <ele>321.8</ele>
        <time>2025-07-23T04:32:47Z</time>
      </trkpt>
      <trkpt lat="43.1026" lon="-0.62089">
        <ele>321</ele>
        <time>2025-07-23T04:32:48Z</time>
      </trkpt>
      <trkpt lat="43.10272" lon="-0.62092">
        <ele>319.8</ele>
        <time>2025-07-23T04:32:49Z</time>
      </trkpt>
      <trkpt lat="43.10296" lon="-0.62101">
        <ele>317.8</ele>
        <time>2025-07-23T04:32:51Z</time>
      </trkpt>
      <trkpt lat="43.10308" lon="-0.62107">
        <ele>316.2</ele>
        <time>2025-07-23T04:32:52Z</time>
      </trkpt>
      <trkpt lat="43.10321" lon="-0.62113">
        <ele>315.4</ele>
        <time>2025-07-23T04:32:53Z</time>
      </trkpt>
      <trkpt lat="43.10333" lon="-0.6212">
        <ele>314</ele>
        <time>2025-07-23T04:32:54Z</time>
      </trkpt>
      <trkpt lat="43.10357" lon="-0.62136">
        <ele>311.8</ele>
        <time>2025-07-23T04:32:56Z</time>
      </trkpt>
      <trkpt lat="43.10369" lon="-0.62145">
        <ele>310.6</ele>
        <time>2025-07-23T04:32:57Z</time>
      </trkpt>
      <trkpt lat="43.1038" lon="-0.62155">
        <ele>310</ele>
        <time>2025-07-23T04:32:58Z</time>
      </trkpt>
      <trkpt lat="43.10392" lon="-0.62164">
        <ele>308.4</ele>
        <time>2025-07-23T04:32:59Z</time>
      </trkpt>
      <trkpt lat="43.10413" lon="-0.62184">
        <ele>306.6</ele>
        <time>2025-07-23T04:33:01Z</time>
      </trkpt>
      <trkpt lat="43.10434" lon="-0.62204">
        <ele>304.6</ele>
        <time>2025-07-23T04:33:03Z</time>
      </trkpt>
      <trkpt lat="43.10444" lon="-0.62214">
        <ele>303.4</ele>
        <time>2025-07-23T04:33:04Z</time>
      </trkpt>
      <trkpt lat="43.10463" lon="-0.62233">
        <ele>302.2</ele>
        <time>2025-07-23T04:33:06Z</time>
      </trkpt>
      <trkpt lat="43.10481" lon="-0.62251">
        <ele>301</ele>
        <time>2025-07-23T04:33:08Z</time>
      </trkpt>
      <trkpt lat="43.10498" lon="-0.62267">
        <ele>299.8</ele>
        <time>2025-07-23T04:33:10Z</time>
      </trkpt>
      <trkpt lat="43.10537" lon="-0.62304">
        <ele>298.8</ele>
        <time>2025-07-23T04:33:15Z</time>
      </trkpt>
      <trkpt lat="43.10543" lon="-0.62312">
        <ele>298.8</ele>
        <time>2025-07-23T04:33:16Z</time>
      </trkpt>
      <trkpt lat="43.10572" lon="-0.62347">
        <ele>298.8</ele>
        <time>2025-07-23T04:33:21Z</time>
      </trkpt>
      <trkpt lat="43.10604" lon="-0.62395">
        <ele>298.8</ele>
        <time>2025-07-23T04:33:28Z</time>
      </trkpt>
      <trkpt lat="43.1064" lon="-0.62447">
        <ele>298.8</ele>
        <time>2025-07-23T04:33:36Z</time>
      </trkpt>
      <trkpt lat="43.10674" lon="-0.62474">
        <ele>299</ele>
        <time>2025-07-23T04:33:42Z</time>
      </trkpt>
      <trkpt lat="43.10707" lon="-0.62487">
        <ele>298.8</ele>
        <time>2025-07-23T04:33:47Z</time>
      </trkpt>
      <trkpt lat="43.10754" lon="-0.6249">
        <ele>298.6</ele>
        <time>2025-07-23T04:33:54Z</time>
      </trkpt>
      <trkpt lat="43.10803" lon="-0.62489">
        <ele>298</ele>
        <time>2025-07-23T04:34:01Z</time>
      </trkpt>
      <trkpt lat="43.10844" lon="-0.62489">
        <ele>297.6</ele>
        <time>2025-07-23T04:34:07Z</time>
      </trkpt>
      <trkpt lat="43.10888" lon="-0.62489">
        <ele>297.6</ele>
        <time>2025-07-23T04:34:14Z</time>
      </trkpt>
      <trkpt lat="43.10943" lon="-0.62491">
        <ele>297.8</ele>
        <time>2025-07-23T04:34:23Z</time>
      </trkpt>
      <trkpt lat="43.10949" lon="-0.62491">
        <ele>297.8</ele>
        <time>2025-07-23T04:34:24Z</time>
      </trkpt>
      <trkpt lat="43.1098" lon="-0.6249">
        <ele>297.8</ele>
        <time>2025-07-23T04:34:29Z</time>
      </trkpt>
      <trkpt lat="43.10985" lon="-0.6249">
        <ele>297.8</ele>
        <time>2025-07-23T04:34:30Z</time>
      </trkpt>
      <trkpt lat="43.10996" lon="-0.62491">
        <ele>297.8</ele>
        <time>2025-07-23T04:34:32Z</time>
      </trkpt>
      <trkpt lat="43.11" lon="-0.62495">
        <ele>297.6</ele>
        <time>2025-07-23T04:34:33Z</time>
      </trkpt>
      <trkpt lat="43.11003" lon="-0.625">
        <ele>297.6</ele>
        <time>2025-07-23T04:34:34Z</time>
      </trkpt>
      <trkpt lat="43.11004" lon="-0.62507">
        <ele>297.6</ele>
        <time>2025-07-23T04:34:35Z</time>
      </trkpt>
      <trkpt lat="43.11003" lon="-0.62513">
        <ele>297.6</ele>
        <time>2025-07-23T04:34:36Z</time>
      </trkpt>
      <trkpt lat="43.11" lon="-0.62524">
        <ele>297.4</ele>
        <time>2025-07-23T04:34:38Z</time>
      </trkpt>
      <trkpt lat="43.10992" lon="-0.62551">
        <ele>298</ele>
        <time>2025-07-23T04:34:44Z</time>
      </trkpt>
      <trkpt lat="43.10988" lon="-0.62578">
        <ele>299</ele>
        <time>2025-07-23T04:34:51Z</time>
      </trkpt>
      <trkpt lat="43.10987" lon="-0.62595">
        <ele>299.8</ele>
        <time>2025-07-23T04:34:55Z</time>
      </trkpt>
      <trkpt lat="43.10986" lon="-0.62607">
        <ele>300.2</ele>
        <time>2025-07-23T04:34:58Z</time>
      </trkpt>
      <trkpt lat="43.10985" lon="-0.62626">
        <ele>300.8</ele>
        <time>2025-07-23T04:35:03Z</time>
      </trkpt>
      <trkpt lat="43.10984" lon="-0.62653">
        <ele>301.6</ele>
        <time>2025-07-23T04:35:09Z</time>
      </trkpt>
      <trkpt lat="43.10984" lon="-0.62669">
        <ele>302</ele>
        <time>2025-07-23T04:35:12Z</time>
      </trkpt>
      <trkpt lat="43.10984" lon="-0.62687">
        <ele>302</ele>
        <time>2025-07-23T04:35:15Z</time>
      </trkpt>
      <trkpt lat="43.1099" lon="-0.62728">
        <ele>302.4</ele>
        <time>2025-07-23T04:35:22Z</time>
      </trkpt>
      <trkpt lat="43.10991" lon="-0.62734">
        <ele>302.4</ele>
        <time>2025-07-23T04:35:23Z</time>
      </trkpt>
      <trkpt lat="43.10995" lon="-0.62746">
        <ele>302.4</ele>
        <time>2025-07-23T04:35:25Z</time>
      </trkpt>
      <trkpt lat="43.11004" lon="-0.62762">
        <ele>302.4</ele>
        <time>2025-07-23T04:35:28Z</time>
      </trkpt>
      <trkpt lat="43.11031" lon="-0.62794">
        <ele>302.2</ele>
        <time>2025-07-23T04:35:35Z</time>
      </trkpt>
      <trkpt lat="43.11035" lon="-0.62799">
        <ele>302.2</ele>
        <time>2025-07-23T04:35:36Z</time>
      </trkpt>
      <trkpt lat="43.11052" lon="-0.62822">
        <ele>301.8</ele>
        <time>2025-07-23T04:35:40Z</time>
      </trkpt>
      <trkpt lat="43.1108" lon="-0.62862">
        <ele>301</ele>
        <time>2025-07-23T04:35:46Z</time>
      </trkpt>
      <trkpt lat="43.11092" lon="-0.62881">
        <ele>299.8</ele>
        <time>2025-07-23T04:35:49Z</time>
      </trkpt>
      <trkpt lat="43.11103" lon="-0.629">
        <ele>299.2</ele>
        <time>2025-07-23T04:35:52Z</time>
      </trkpt>
      <trkpt lat="43.11109" lon="-0.62914">
        <ele>299</ele>
        <time>2025-07-23T04:35:54Z</time>
      </trkpt>
      <trkpt lat="43.11119" lon="-0.62941">
        <ele>298.8</ele>
        <time>2025-07-23T04:35:58Z</time>
      </trkpt>
      <trkpt lat="43.11121" lon="-0.62947">
        <ele>298.8</ele>
        <time>2025-07-23T04:35:59Z</time>
      </trkpt>
      <trkpt lat="43.11123" lon="-0.62953">
        <ele>298.8</ele>
        <time>2025-07-23T04:36:00Z</time>
      </trkpt>
      <trkpt lat="43.11129" lon="-0.62971">
        <ele>299</ele>
        <time>2025-07-23T04:36:03Z</time>
      </trkpt>
      <trkpt lat="43.11134" lon="-0.62996">
        <ele>299.2</ele>
        <time>2025-07-23T04:36:07Z</time>
      </trkpt>
      <trkpt lat="43.11135" lon="-0.63002">
        <ele>299.2</ele>
        <time>2025-07-23T04:36:08Z</time>
      </trkpt>
      <trkpt lat="43.11137" lon="-0.63014">
        <ele>299.4</ele>
        <time>2025-07-23T04:36:10Z</time>
      </trkpt>
      <trkpt lat="43.11138" lon="-0.6303">
        <ele>299.8</ele>
        <time>2025-07-23T04:36:13Z</time>
      </trkpt>
      <trkpt lat="43.11139" lon="-0.63037">
        <ele>300</ele>
        <time>2025-07-23T04:36:14Z</time>
      </trkpt>
      <trkpt lat="43.11139" lon="-0.63079">
        <ele>300.8</ele>
        <time>2025-07-23T04:36:21Z</time>
      </trkpt>
      <trkpt lat="43.11138" lon="-0.63102">
        <ele>301.2</ele>
        <time>2025-07-23T04:36:25Z</time>
      </trkpt>
      <trkpt lat="43.11131" lon="-0.63121">
        <ele>301.2</ele>
        <time>2025-07-23T04:36:28Z</time>
      </trkpt>
      <trkpt lat="43.11126" lon="-0.63133">
        <ele>301.2</ele>
        <time>2025-07-23T04:36:30Z</time>
      </trkpt>
      <trkpt lat="43.11119" lon="-0.63146">
        <ele>301</ele>
        <time>2025-07-23T04:36:32Z</time>
      </trkpt>
      <trkpt lat="43.11115" lon="-0.63151">
        <ele>301</ele>
        <time>2025-07-23T04:36:33Z</time>
      </trkpt>
      <trkpt lat="43.11111" lon="-0.63157">
        <ele>301</ele>
        <time>2025-07-23T04:36:34Z</time>
      </trkpt>
      <trkpt lat="43.11102" lon="-0.63166">
        <ele>300.8</ele>
        <time>2025-07-23T04:36:36Z</time>
      </trkpt>
      <trkpt lat="43.11097" lon="-0.6317">
        <ele>300.6</ele>
        <time>2025-07-23T04:36:37Z</time>
      </trkpt>
      <trkpt lat="43.11062" lon="-0.63192">
        <ele>300.4</ele>
        <time>2025-07-23T04:36:44Z</time>
      </trkpt>
      <trkpt lat="43.11016" lon="-0.63216">
        <ele>300.6</ele>
        <time>2025-07-23T04:36:53Z</time>
      </trkpt>
      <trkpt lat="43.10989" lon="-0.63239">
        <ele>301</ele>
        <time>2025-07-23T04:37:00Z</time>
      </trkpt>
      <trkpt lat="43.10975" lon="-0.63263">
        <ele>302</ele>
        <time>2025-07-23T04:37:06Z</time>
      </trkpt>
      <trkpt lat="43.10968" lon="-0.63289">
        <ele>303</ele>
        <time>2025-07-23T04:37:12Z</time>
      </trkpt>
      <trkpt lat="43.10968" lon="-0.63294">
        <ele>303.2</ele>
        <time>2025-07-23T04:37:13Z</time>
      </trkpt>
      <trkpt lat="43.10969" lon="-0.63316">
        <ele>304</ele>
        <time>2025-07-23T04:37:18Z</time>
      </trkpt>
      <trkpt lat="43.1097" lon="-0.63325">
        <ele>304.2</ele>
        <time>2025-07-23T04:37:20Z</time>
      </trkpt>
      <trkpt lat="43.10972" lon="-0.63338">
        <ele>304.6</ele>
        <time>2025-07-23T04:37:23Z</time>
      </trkpt>
      <trkpt lat="43.10974" lon="-0.63361">
        <ele>305.2</ele>
        <time>2025-07-23T04:37:28Z</time>
      </trkpt>
      <trkpt lat="43.10974" lon="-0.63366">
        <ele>305.4</ele>
        <time>2025-07-23T04:37:29Z</time>
      </trkpt>
      <trkpt lat="43.10973" lon="-0.63399">
        <ele>306.2</ele>
        <time>2025-07-23T04:37:36Z</time>
      </trkpt>
      <trkpt lat="43.10971" lon="-0.63422">
        <ele>306.4</ele>
        <time>2025-07-23T04:37:40Z</time>
      </trkpt>
      <trkpt lat="43.10969" lon="-0.63452">
        <ele>306.4</ele>
        <time>2025-07-23T04:37:45Z</time>
      </trkpt>
      <trkpt lat="43.10965" lon="-0.63503">
        <ele>306.2</ele>
        <time>2025-07-23T04:37:53Z</time>
      </trkpt>
      <trkpt lat="43.10951" lon="-0.63563">
        <ele>306.2</ele>
        <time>2025-07-23T04:38:02Z</time>
      </trkpt>
      <trkpt lat="43.10933" lon="-0.63603">
        <ele>306.6</ele>
        <time>2025-07-23T04:38:09Z</time>
      </trkpt>
      <trkpt lat="43.10909" lon="-0.63641">
        <ele>306.6</ele>
        <time>2025-07-23T04:38:15Z</time>
      </trkpt>
      <trkpt lat="43.10887" lon="-0.63669">
        <ele>305.4</ele>
        <time>2025-07-23T04:38:19Z</time>
      </trkpt>
      <trkpt lat="43.1087" lon="-0.6369">
        <ele>304.2</ele>
        <time>2025-07-23T04:38:22Z</time>
      </trkpt>
      <trkpt lat="43.10849" lon="-0.63726">
        <ele>303</ele>
        <time>2025-07-23T04:38:27Z</time>
      </trkpt>
      <trkpt lat="43.10845" lon="-0.63733">
        <ele>303</ele>
        <time>2025-07-23T04:38:28Z</time>
      </trkpt>
      <trkpt lat="43.10822" lon="-0.63779">
        <ele>302.8</ele>
        <time>2025-07-23T04:38:35Z</time>
      </trkpt>
      <trkpt lat="43.10802" lon="-0.6383">
        <ele>303.4</ele>
        <time>2025-07-23T04:38:43Z</time>
      </trkpt>
      <trkpt lat="43.10782" lon="-0.63893">
        <ele>304</ele>
        <time>2025-07-23T04:38:53Z</time>
      </trkpt>
      <trkpt lat="43.10769" lon="-0.63937">
        <ele>304.2</ele>
        <time>2025-07-23T04:39:00Z</time>
      </trkpt>
      <trkpt lat="43.10766" lon="-0.63955">
        <ele>304.4</ele>
        <time>2025-07-23T04:39:03Z</time>
      </trkpt>
      <trkpt lat="43.10763" lon="-0.63982">
        <ele>304.8</ele>
        <time>2025-07-23T04:39:08Z</time>
      </trkpt>
      <trkpt lat="43.10762" lon="-0.63993">
        <ele>305.2</ele>
        <time>2025-07-23T04:39:10Z</time>
      </trkpt>
      <trkpt lat="43.10759" lon="-0.64015">
        <ele>306</ele>
        <time>2025-07-23T04:39:15Z</time>
      </trkpt>
      <trkpt lat="43.10758" lon="-0.64024">
        <ele>306.4</ele>
        <time>2025-07-23T04:39:17Z</time>
      </trkpt>
      <trkpt lat="43.10756" lon="-0.64039">
        <ele>307</ele>
        <time>2025-07-23T04:39:20Z</time>
      </trkpt>
      <trkpt lat="43.10747" lon="-0.64063">
        <ele>307.6</ele>
        <time>2025-07-23T04:39:25Z</time>
      </trkpt>
      <trkpt lat="43.10745" lon="-0.64068">
        <ele>307.6</ele>
        <time>2025-07-23T04:39:26Z</time>
      </trkpt>
      <trkpt lat="43.10735" lon="-0.64105">
        <ele>308.2</ele>
        <time>2025-07-23T04:39:33Z</time>
      </trkpt>
      <trkpt lat="43.1073" lon="-0.64127">
        <ele>308.4</ele>
        <time>2025-07-23T04:39:38Z</time>
      </trkpt>
      <trkpt lat="43.10723" lon="-0.64153">
        <ele>309.6</ele>
        <time>2025-07-23T04:39:44Z</time>
      </trkpt>
      <trkpt lat="43.10722" lon="-0.64157">
        <ele>309.6</ele>
        <time>2025-07-23T04:39:45Z</time>
      </trkpt>
      <trkpt lat="43.10713" lon="-0.64183">
        <ele>310.6</ele>
        <time>2025-07-23T04:39:51Z</time>
      </trkpt>
      <trkpt lat="43.10712" lon="-0.64186">
        <ele>310.6</ele>
        <time>2025-07-23T04:39:52Z</time>
      </trkpt>
      <trkpt lat="43.10703" lon="-0.64202">
        <ele>311.2</ele>
        <time>2025-07-23T04:39:56Z</time>
      </trkpt>
      <trkpt lat="43.10688" lon="-0.64234">
        <ele>311.8</ele>
        <time>2025-07-23T04:40:03Z</time>
      </trkpt>
      <trkpt lat="43.10685" lon="-0.64244">
        <ele>312</ele>
        <time>2025-07-23T04:40:05Z</time>
      </trkpt>
      <trkpt lat="43.10667" lon="-0.64296">
        <ele>312.2</ele>
        <time>2025-07-23T04:40:14Z</time>
      </trkpt>
      <trkpt lat="43.10657" lon="-0.64341">
        <ele>312</ele>
        <time>2025-07-23T04:40:21Z</time>
      </trkpt>
      <trkpt lat="43.10646" lon="-0.64385">
        <ele>311.6</ele>
        <time>2025-07-23T04:40:27Z</time>
      </trkpt>
      <trkpt lat="43.10634" lon="-0.6443">
        <ele>311</ele>
        <time>2025-07-23T04:40:32Z</time>
      </trkpt>
      <trkpt lat="43.10631" lon="-0.64454">
        <ele>310.2</ele>
        <time>2025-07-23T04:40:34Z</time>
      </trkpt>
      <trkpt lat="43.10631" lon="-0.64475">
        <ele>309.4</ele>
        <time>2025-07-23T04:40:36Z</time>
      </trkpt>
      <trkpt lat="43.10632" lon="-0.64486">
        <ele>309</ele>
        <time>2025-07-23T04:40:37Z</time>
      </trkpt>
      <trkpt lat="43.10636" lon="-0.64524">
        <ele>308.2</ele>
        <time>2025-07-23T04:40:41Z</time>
      </trkpt>
      <trkpt lat="43.10638" lon="-0.64542">
        <ele>308</ele>
        <time>2025-07-23T04:40:43Z</time>
      </trkpt>
      <trkpt lat="43.10639" lon="-0.64572">
        <ele>308.2</ele>
        <time>2025-07-23T04:40:47Z</time>
      </trkpt>
      <trkpt lat="43.10635" lon="-0.64616">
        <ele>308.6</ele>
        <time>2025-07-23T04:40:53Z</time>
      </trkpt>
      <trkpt lat="43.10634" lon="-0.64623">
        <ele>308.8</ele>
        <time>2025-07-23T04:40:54Z</time>
      </trkpt>
      <trkpt lat="43.1063" lon="-0.64645">
        <ele>309.2</ele>
        <time>2025-07-23T04:40:57Z</time>
      </trkpt>
      <trkpt lat="43.1062" lon="-0.64679">
        <ele>309.6</ele>
        <time>2025-07-23T04:41:02Z</time>
      </trkpt>
      <trkpt lat="43.10608" lon="-0.6472">
        <ele>310.2</ele>
        <time>2025-07-23T04:41:09Z</time>
      </trkpt>
      <trkpt lat="43.10599" lon="-0.64751">
        <ele>311.2</ele>
        <time>2025-07-23T04:41:15Z</time>
      </trkpt>
      <trkpt lat="43.10598" lon="-0.64759">
        <ele>311.2</ele>
        <time>2025-07-23T04:41:16Z</time>
      </trkpt>
      <trkpt lat="43.10597" lon="-0.648">
        <ele>312</ele>
        <time>2025-07-23T04:41:22Z</time>
      </trkpt>
      <trkpt lat="43.10592" lon="-0.64852">
        <ele>311.8</ele>
        <time>2025-07-23T04:41:29Z</time>
      </trkpt>
      <trkpt lat="43.10583" lon="-0.64921">
        <ele>312</ele>
        <time>2025-07-23T04:41:38Z</time>
      </trkpt>
      <trkpt lat="43.10581" lon="-0.6499">
        <ele>312.2</ele>
        <time>2025-07-23T04:41:47Z</time>
      </trkpt>
      <trkpt lat="43.1058" lon="-0.65004">
        <ele>312.4</ele>
        <time>2025-07-23T04:41:49Z</time>
      </trkpt>
      <trkpt lat="43.10578" lon="-0.65025">
        <ele>312.6</ele>
        <time>2025-07-23T04:41:52Z</time>
      </trkpt>
      <trkpt lat="43.10568" lon="-0.65098">
        <ele>312.8</ele>
        <time>2025-07-23T04:42:02Z</time>
      </trkpt>
      <trkpt lat="43.10563" lon="-0.65158">
        <ele>313</ele>
        <time>2025-07-23T04:42:10Z</time>
      </trkpt>
      <trkpt lat="43.10564" lon="-0.65202">
        <ele>313.2</ele>
        <time>2025-07-23T04:42:16Z</time>
      </trkpt>
      <trkpt lat="43.10569" lon="-0.65254">
        <ele>313.4</ele>
        <time>2025-07-23T04:42:23Z</time>
      </trkpt>
      <trkpt lat="43.10568" lon="-0.6527">
        <ele>313.4</ele>
        <time>2025-07-23T04:42:25Z</time>
      </trkpt>
      <trkpt lat="43.10564" lon="-0.65285">
        <ele>313.6</ele>
        <time>2025-07-23T04:42:27Z</time>
      </trkpt>
      <trkpt lat="43.10562" lon="-0.65292">
        <ele>313.6</ele>
        <time>2025-07-23T04:42:28Z</time>
      </trkpt>
      <trkpt lat="43.10555" lon="-0.65305">
        <ele>313.6</ele>
        <time>2025-07-23T04:42:30Z</time>
      </trkpt>
      <trkpt lat="43.10547" lon="-0.65316">
        <ele>313.8</ele>
        <time>2025-07-23T04:42:32Z</time>
      </trkpt>
      <trkpt lat="43.1052" lon="-0.65347">
        <ele>314.6</ele>
        <time>2025-07-23T04:42:39Z</time>
      </trkpt>
      <trkpt lat="43.10508" lon="-0.65361">
        <ele>314.8</ele>
        <time>2025-07-23T04:42:42Z</time>
      </trkpt>
      <trkpt lat="43.10464" lon="-0.65409">
        <ele>315.6</ele>
        <time>2025-07-23T04:42:53Z</time>
      </trkpt>
      <trkpt lat="43.10461" lon="-0.65414">
        <ele>315.6</ele>
        <time>2025-07-23T04:42:54Z</time>
      </trkpt>
      <trkpt lat="43.1045" lon="-0.65427">
        <ele>316</ele>
        <time>2025-07-23T04:42:57Z</time>
      </trkpt>
      <trkpt lat="43.10428" lon="-0.65465">
        <ele>316.4</ele>
        <time>2025-07-23T04:43:04Z</time>
      </trkpt>
      <trkpt lat="43.1042" lon="-0.65482">
        <ele>317</ele>
        <time>2025-07-23T04:43:07Z</time>
      </trkpt>
      <trkpt lat="43.10413" lon="-0.65499">
        <ele>317.2</ele>
        <time>2025-07-23T04:43:10Z</time>
      </trkpt>
      <trkpt lat="43.10407" lon="-0.65515">
        <ele>317.4</ele>
        <time>2025-07-23T04:43:13Z</time>
      </trkpt>
      <trkpt lat="43.10399" lon="-0.65535">
        <ele>318</ele>
        <time>2025-07-23T04:43:17Z</time>
      </trkpt>
      <trkpt lat="43.1039" lon="-0.6556">
        <ele>318.6</ele>
        <time>2025-07-23T04:43:22Z</time>
      </trkpt>
      <trkpt lat="43.10384" lon="-0.65574">
        <ele>319</ele>
        <time>2025-07-23T04:43:25Z</time>
      </trkpt>
      <trkpt lat="43.10371" lon="-0.65609">
        <ele>320.4</ele>
        <time>2025-07-23T04:43:32Z</time>
      </trkpt>
      <trkpt lat="43.10355" lon="-0.65659">
        <ele>321.4</ele>
        <time>2025-07-23T04:43:42Z</time>
      </trkpt>
      <trkpt lat="43.10343" lon="-0.6571">
        <ele>322.6</ele>
        <time>2025-07-23T04:43:51Z</time>
      </trkpt>
      <trkpt lat="43.1034" lon="-0.65721">
        <ele>322.8</ele>
        <time>2025-07-23T04:43:53Z</time>
      </trkpt>
      <trkpt lat="43.10326" lon="-0.65784">
        <ele>323.4</ele>
        <time>2025-07-23T04:44:03Z</time>
      </trkpt>
      <trkpt lat="43.1032" lon="-0.65815">
        <ele>323.8</ele>
        <time>2025-07-23T04:44:08Z</time>
      </trkpt>
      <trkpt lat="43.10315" lon="-0.6584">
        <ele>324</ele>
        <time>2025-07-23T04:44:12Z</time>
      </trkpt>
      <trkpt lat="43.103" lon="-0.65893">
        <ele>325</ele>
        <time>2025-07-23T04:44:21Z</time>
      </trkpt>
      <trkpt lat="43.10294" lon="-0.65903">
        <ele>325.2</ele>
        <time>2025-07-23T04:44:23Z</time>
      </trkpt>
      <trkpt lat="43.10282" lon="-0.65914">
        <ele>325.4</ele>
        <time>2025-07-23T04:44:26Z</time>
      </trkpt>
      <trkpt lat="43.10261" lon="-0.65935">
        <ele>326.2</ele>
        <time>2025-07-23T04:44:32Z</time>
      </trkpt>
      <trkpt lat="43.10259" lon="-0.65938">
        <ele>326.2</ele>
        <time>2025-07-23T04:44:33Z</time>
      </trkpt>
      <trkpt lat="43.10246" lon="-0.6595">
        <ele>327.2</ele>
        <time>2025-07-23T04:44:38Z</time>
      </trkpt>
      <trkpt lat="43.10241" lon="-0.65954">
        <ele>327.6</ele>
        <time>2025-07-23T04:44:40Z</time>
      </trkpt>
      <trkpt lat="43.10233" lon="-0.65961">
        <ele>328.4</ele>
        <time>2025-07-23T04:44:44Z</time>
      </trkpt>
      <trkpt lat="43.10226" lon="-0.65967">
        <ele>329.2</ele>
        <time>2025-07-23T04:44:47Z</time>
      </trkpt>
      <trkpt lat="43.10218" lon="-0.65973">
        <ele>329.6</ele>
        <time>2025-07-23T04:44:50Z</time>
      </trkpt>
      <trkpt lat="43.1021" lon="-0.65976">
        <ele>330.6</ele>
        <time>2025-07-23T04:44:53Z</time>
      </trkpt>
      <trkpt lat="43.10207" lon="-0.65975">
        <ele>330.6</ele>
        <time>2025-07-23T04:44:54Z</time>
      </trkpt>
      <trkpt lat="43.10192" lon="-0.65974">
        <ele>331.8</ele>
        <time>2025-07-23T04:44:59Z</time>
      </trkpt>
      <trkpt lat="43.10189" lon="-0.65975">
        <ele>332.2</ele>
        <time>2025-07-23T04:45:00Z</time>
      </trkpt>
      <trkpt lat="43.10175" lon="-0.65975">
        <ele>333</ele>
        <time>2025-07-23T04:45:05Z</time>
      </trkpt>
      <trkpt lat="43.10172" lon="-0.65975">
        <ele>333.2</ele>
        <time>2025-07-23T04:45:06Z</time>
      </trkpt>
      <trkpt lat="43.10154" lon="-0.65979">
        <ele>334</ele>
        <time>2025-07-23T04:45:12Z</time>
      </trkpt>
      <trkpt lat="43.10151" lon="-0.65979">
        <ele>334.4</ele>
        <time>2025-07-23T04:45:13Z</time>
      </trkpt>
      <trkpt lat="43.10146" lon="-0.6598">
        <ele>334.6</ele>
        <time>2025-07-23T04:45:15Z</time>
      </trkpt>
      <trkpt lat="43.1014" lon="-0.65981">
        <ele>335</ele>
        <time>2025-07-23T04:45:17Z</time>
      </trkpt>
      <trkpt lat="43.10127" lon="-0.65985">
        <ele>336</ele>
        <time>2025-07-23T04:45:21Z</time>
      </trkpt>
      <trkpt lat="43.10119" lon="-0.6599">
        <ele>336.6</ele>
        <time>2025-07-23T04:45:24Z</time>
      </trkpt>
      <trkpt lat="43.10105" lon="-0.66">
        <ele>337.4</ele>
        <time>2025-07-23T04:45:29Z</time>
      </trkpt>
      <trkpt lat="43.10102" lon="-0.66002">
        <ele>337.8</ele>
        <time>2025-07-23T04:45:30Z</time>
      </trkpt>
      <trkpt lat="43.10092" lon="-0.66018">
        <ele>338.8</ele>
        <time>2025-07-23T04:45:35Z</time>
      </trkpt>
      <trkpt lat="43.10091" lon="-0.66022">
        <ele>339</ele>
        <time>2025-07-23T04:45:36Z</time>
      </trkpt>
      <trkpt lat="43.10088" lon="-0.66038">
        <ele>339.8</ele>
        <time>2025-07-23T04:45:40Z</time>
      </trkpt>
      <trkpt lat="43.10089" lon="-0.66043">
        <ele>340.2</ele>
        <time>2025-07-23T04:45:41Z</time>
      </trkpt>
      <trkpt lat="43.10093" lon="-0.66058">
        <ele>341</ele>
        <time>2025-07-23T04:45:45Z</time>
      </trkpt>
      <trkpt lat="43.10098" lon="-0.66072">
        <ele>341.8</ele>
        <time>2025-07-23T04:45:49Z</time>
      </trkpt>
      <trkpt lat="43.10102" lon="-0.66082">
        <ele>342.2</ele>
        <time>2025-07-23T04:45:52Z</time>
      </trkpt>
      <trkpt lat="43.10106" lon="-0.66092">
        <ele>342.8</ele>
        <time>2025-07-23T04:45:56Z</time>
      </trkpt>
      <trkpt lat="43.10106" lon="-0.66092">
        <ele>343.2</ele>
        <time>2025-07-23T04:45:59Z</time>
      </trkpt>
      <trkpt lat="43.10107" lon="-0.66102">
        <ele>344.4</ele>
        <time>2025-07-23T04:48:22Z</time>
      </trkpt>
      <trkpt lat="43.10107" lon="-0.66113">
        <ele>344.6</ele>
        <time>2025-07-23T04:48:26Z</time>
      </trkpt>
      <trkpt lat="43.10108" lon="-0.66116">
        <ele>344.6</ele>
        <time>2025-07-23T04:48:27Z</time>
      </trkpt>
      <trkpt lat="43.10113" lon="-0.66138">
        <ele>345</ele>
        <time>2025-07-23T04:48:33Z</time>
      </trkpt>
      <trkpt lat="43.10115" lon="-0.66164">
        <ele>345.6</ele>
        <time>2025-07-23T04:48:40Z</time>
      </trkpt>
      <trkpt lat="43.10112" lon="-0.66208">
        <ele>346.6</ele>
        <time>2025-07-23T04:48:50Z</time>
      </trkpt>
      <trkpt lat="43.10111" lon="-0.66216">
        <ele>346.8</ele>
        <time>2025-07-23T04:48:52Z</time>
      </trkpt>
      <trkpt lat="43.10106" lon="-0.66229">
        <ele>347.2</ele>
        <time>2025-07-23T04:48:55Z</time>
      </trkpt>
      <trkpt lat="43.10084" lon="-0.66258">
        <ele>347.8</ele>
        <time>2025-07-23T04:49:03Z</time>
      </trkpt>
      <trkpt lat="43.1008" lon="-0.66266">
        <ele>348</ele>
        <time>2025-07-23T04:49:05Z</time>
      </trkpt>
      <trkpt lat="43.10069" lon="-0.66289">
        <ele>348.4</ele>
        <time>2025-07-23T04:49:10Z</time>
      </trkpt>
      <trkpt lat="43.1005" lon="-0.66326">
        <ele>348.6</ele>
        <time>2025-07-23T04:49:18Z</time>
      </trkpt>
      <trkpt lat="43.10031" lon="-0.66369">
        <ele>349.2</ele>
        <time>2025-07-23T04:49:27Z</time>
      </trkpt>
      <trkpt lat="43.10029" lon="-0.66374">
        <ele>349.2</ele>
        <time>2025-07-23T04:49:28Z</time>
      </trkpt>
      <trkpt lat="43.10002" lon="-0.66427">
        <ele>349.8</ele>
        <time>2025-07-23T04:49:39Z</time>
      </trkpt>
      <trkpt lat="43.0999" lon="-0.66451">
        <ele>350.4</ele>
        <time>2025-07-23T04:49:44Z</time>
      </trkpt>
      <trkpt lat="43.09983" lon="-0.66466">
        <ele>350.6</ele>
        <time>2025-07-23T04:49:47Z</time>
      </trkpt>
      <trkpt lat="43.0997" lon="-0.66491">
        <ele>350.8</ele>
        <time>2025-07-23T04:49:52Z</time>
      </trkpt>
      <trkpt lat="43.09959" lon="-0.66511">
        <ele>351.4</ele>
        <time>2025-07-23T04:49:56Z</time>
      </trkpt>
      <trkpt lat="43.09953" lon="-0.66521">
        <ele>351.6</ele>
        <time>2025-07-23T04:49:58Z</time>
      </trkpt>
      <trkpt lat="43.09925" lon="-0.66561">
        <ele>352.2</ele>
        <time>2025-07-23T04:50:06Z</time>
      </trkpt>
      <trkpt lat="43.09894" lon="-0.66607">
        <ele>352.6</ele>
        <time>2025-07-23T04:50:15Z</time>
      </trkpt>
      <trkpt lat="43.09856" lon="-0.66662">
        <ele>353.6</ele>
        <time>2025-07-23T04:50:26Z</time>
      </trkpt>
      <trkpt lat="43.09848" lon="-0.66673">
        <ele>353.6</ele>
        <time>2025-07-23T04:50:28Z</time>
      </trkpt>
      <trkpt lat="43.09817" lon="-0.66718">
        <ele>354</ele>
        <time>2025-07-23T04:50:36Z</time>
      </trkpt>
      <trkpt lat="43.09805" lon="-0.66735">
        <ele>354</ele>
        <time>2025-07-23T04:50:39Z</time>
      </trkpt>
      <trkpt lat="43.0977" lon="-0.66793">
        <ele>354.8</ele>
        <time>2025-07-23T04:50:49Z</time>
      </trkpt>
      <trkpt lat="43.09766" lon="-0.66799">
        <ele>354.8</ele>
        <time>2025-07-23T04:50:50Z</time>
      </trkpt>
      <trkpt lat="43.09747" lon="-0.66834">
        <ele>355.2</ele>
        <time>2025-07-23T04:50:56Z</time>
      </trkpt>
      <trkpt lat="43.09728" lon="-0.66872">
        <ele>355.8</ele>
        <time>2025-07-23T04:51:02Z</time>
      </trkpt>
      <trkpt lat="43.09713" lon="-0.66911">
        <ele>356.4</ele>
        <time>2025-07-23T04:51:08Z</time>
      </trkpt>
      <trkpt lat="43.09703" lon="-0.66937">
        <ele>356.8</ele>
        <time>2025-07-23T04:51:12Z</time>
      </trkpt>
      <trkpt lat="43.09686" lon="-0.66984">
        <ele>357.4</ele>
        <time>2025-07-23T04:51:19Z</time>
      </trkpt>
      <trkpt lat="43.09679" lon="-0.67004">
        <ele>357.8</ele>
        <time>2025-07-23T04:51:22Z</time>
      </trkpt>
      <trkpt lat="43.09677" lon="-0.67011">
        <ele>357.8</ele>
        <time>2025-07-23T04:51:23Z</time>
      </trkpt>
      <trkpt lat="43.09673" lon="-0.67033">
        <ele>358</ele>
        <time>2025-07-23T04:51:26Z</time>
      </trkpt>
      <trkpt lat="43.09674" lon="-0.67055">
        <ele>358.2</ele>
        <time>2025-07-23T04:51:29Z</time>
      </trkpt>
      <trkpt lat="43.09678" lon="-0.67111">
        <ele>358.2</ele>
        <time>2025-07-23T04:51:36Z</time>
      </trkpt>
      <trkpt lat="43.09678" lon="-0.67121">
        <ele>358.4</ele>
        <time>2025-07-23T04:51:37Z</time>
      </trkpt>
      <trkpt lat="43.09671" lon="-0.67153">
        <ele>357.8</ele>
        <time>2025-07-23T04:51:40Z</time>
      </trkpt>
      <trkpt lat="43.09663" lon="-0.67169">
        <ele>357.2</ele>
        <time>2025-07-23T04:51:42Z</time>
      </trkpt>
      <trkpt lat="43.09648" lon="-0.67186">
        <ele>356.6</ele>
        <time>2025-07-23T04:51:44Z</time>
      </trkpt>
      <trkpt lat="43.09627" lon="-0.67203">
        <ele>355.4</ele>
        <time>2025-07-23T04:51:47Z</time>
      </trkpt>
      <trkpt lat="43.09602" lon="-0.67227">
        <ele>354.4</ele>
        <time>2025-07-23T04:51:50Z</time>
      </trkpt>
      <trkpt lat="43.09596" lon="-0.67237">
        <ele>353.6</ele>
        <time>2025-07-23T04:51:51Z</time>
      </trkpt>
      <trkpt lat="43.09592" lon="-0.67245">
        <ele>353.2</ele>
        <time>2025-07-23T04:51:52Z</time>
      </trkpt>
      <trkpt lat="43.09588" lon="-0.67257">
        <ele>352.8</ele>
        <time>2025-07-23T04:51:53Z</time>
      </trkpt>
      <trkpt lat="43.09584" lon="-0.6727">
        <ele>352.4</ele>
        <time>2025-07-23T04:51:54Z</time>
      </trkpt>
      <trkpt lat="43.09579" lon="-0.67305">
        <ele>351.4</ele>
        <time>2025-07-23T04:51:57Z</time>
      </trkpt>
      <trkpt lat="43.09579" lon="-0.67314">
        <ele>351.2</ele>
        <time>2025-07-23T04:51:58Z</time>
      </trkpt>
      <trkpt lat="43.09577" lon="-0.67361">
        <ele>351</ele>
        <time>2025-07-23T04:52:02Z</time>
      </trkpt>
      <trkpt lat="43.09574" lon="-0.67433">
        <ele>350.8</ele>
        <time>2025-07-23T04:52:09Z</time>
      </trkpt>
      <trkpt lat="43.09572" lon="-0.6749">
        <ele>350.8</ele>
        <time>2025-07-23T04:52:15Z</time>
      </trkpt>
      <trkpt lat="43.0957" lon="-0.67568">
        <ele>351</ele>
        <time>2025-07-23T04:52:23Z</time>
      </trkpt>
      <trkpt lat="43.09569" lon="-0.67587">
        <ele>351.2</ele>
        <time>2025-07-23T04:52:25Z</time>
      </trkpt>
      <trkpt lat="43.09566" lon="-0.67664">
        <ele>351.4</ele>
        <time>2025-07-23T04:52:34Z</time>
      </trkpt>
      <trkpt lat="43.09566" lon="-0.6767">
        <ele>351.4</ele>
        <time>2025-07-23T04:52:35Z</time>
      </trkpt>
      <trkpt lat="43.09564" lon="-0.67706">
        <ele>352.2</ele>
        <time>2025-07-23T04:52:40Z</time>
      </trkpt>
      <trkpt lat="43.09564" lon="-0.67718">
        <ele>352.6</ele>
        <time>2025-07-23T04:52:42Z</time>
      </trkpt>
      <trkpt lat="43.09563" lon="-0.67739">
        <ele>353.6</ele>
        <time>2025-07-23T04:52:46Z</time>
      </trkpt>
      <trkpt lat="43.09561" lon="-0.67762">
        <ele>355</ele>
        <time>2025-07-23T04:52:50Z</time>
      </trkpt>
      <trkpt lat="43.09561" lon="-0.67783">
        <ele>355.6</ele>
        <time>2025-07-23T04:52:54Z</time>
      </trkpt>
      <trkpt lat="43.0956" lon="-0.67799">
        <ele>356</ele>
        <time>2025-07-23T04:52:57Z</time>
      </trkpt>
      <trkpt lat="43.09559" lon="-0.67836">
        <ele>357</ele>
        <time>2025-07-23T04:53:04Z</time>
      </trkpt>
      <trkpt lat="43.09557" lon="-0.67866">
        <ele>358.2</ele>
        <time>2025-07-23T04:53:10Z</time>
      </trkpt>
      <trkpt lat="43.09557" lon="-0.67881">
        <ele>358.6</ele>
        <time>2025-07-23T04:53:13Z</time>
      </trkpt>
      <trkpt lat="43.09557" lon="-0.67891">
        <ele>359.2</ele>
        <time>2025-07-23T04:53:15Z</time>
      </trkpt>
      <trkpt lat="43.09556" lon="-0.67918">
        <ele>360.2</ele>
        <time>2025-07-23T04:53:20Z</time>
      </trkpt>
      <trkpt lat="43.09556" lon="-0.67923">
        <ele>360.4</ele>
        <time>2025-07-23T04:53:21Z</time>
      </trkpt>
      <trkpt lat="43.09555" lon="-0.67956">
        <ele>361.2</ele>
        <time>2025-07-23T04:53:27Z</time>
      </trkpt>
      <trkpt lat="43.09554" lon="-0.67974">
        <ele>361.4</ele>
        <time>2025-07-23T04:53:30Z</time>
      </trkpt>
      <trkpt lat="43.09554" lon="-0.6798">
        <ele>361.6</ele>
        <time>2025-07-23T04:53:31Z</time>
      </trkpt>
      <trkpt lat="43.09553" lon="-0.6801">
        <ele>361.8</ele>
        <time>2025-07-23T04:53:36Z</time>
      </trkpt>
      <trkpt lat="43.09552" lon="-0.68033">
        <ele>362.6</ele>
        <time>2025-07-23T04:53:40Z</time>
      </trkpt>
      <trkpt lat="43.09549" lon="-0.68079">
        <ele>363.2</ele>
        <time>2025-07-23T04:53:47Z</time>
      </trkpt>
      <trkpt lat="43.09549" lon="-0.68109">
        <ele>363.6</ele>
        <time>2025-07-23T04:53:52Z</time>
      </trkpt>
      <trkpt lat="43.09549" lon="-0.6812">
        <ele>363.8</ele>
        <time>2025-07-23T04:53:54Z</time>
      </trkpt>
      <trkpt lat="43.09548" lon="-0.68126">
        <ele>363.8</ele>
        <time>2025-07-23T04:53:55Z</time>
      </trkpt>
      <trkpt lat="43.09547" lon="-0.68144">
        <ele>364.4</ele>
        <time>2025-07-23T04:53:58Z</time>
      </trkpt>
      <trkpt lat="43.09546" lon="-0.68156">
        <ele>364.6</ele>
        <time>2025-07-23T04:54:00Z</time>
      </trkpt>
      <trkpt lat="43.09546" lon="-0.6816">
        <ele>364.8</ele>
        <time>2025-07-23T04:54:01Z</time>
      </trkpt>
      <trkpt lat="43.09545" lon="-0.68168">
        <ele>365</ele>
        <time>2025-07-23T04:54:02Z</time>
      </trkpt>
      <trkpt lat="43.09541" lon="-0.68202">
        <ele>365.4</ele>
        <time>2025-07-23T04:54:07Z</time>
      </trkpt>
      <trkpt lat="43.09538" lon="-0.6825">
        <ele>365.8</ele>
        <time>2025-07-23T04:54:14Z</time>
      </trkpt>
      <trkpt lat="43.09538" lon="-0.68257">
        <ele>365.8</ele>
        <time>2025-07-23T04:54:15Z</time>
      </trkpt>
      <trkpt lat="43.09534" lon="-0.68292">
        <ele>366.2</ele>
        <time>2025-07-23T04:54:20Z</time>
      </trkpt>
      <trkpt lat="43.09531" lon="-0.68306">
        <ele>366.2</ele>
        <time>2025-07-23T04:54:22Z</time>
      </trkpt>
      <trkpt lat="43.09518" lon="-0.68344">
        <ele>365.6</ele>
        <time>2025-07-23T04:54:26Z</time>
      </trkpt>
      <trkpt lat="43.0951" lon="-0.68366">
        <ele>364.8</ele>
        <time>2025-07-23T04:54:28Z</time>
      </trkpt>
      <trkpt lat="43.09499" lon="-0.68387">
        <ele>364.2</ele>
        <time>2025-07-23T04:54:30Z</time>
      </trkpt>
      <trkpt lat="43.09488" lon="-0.68407">
        <ele>363</ele>
        <time>2025-07-23T04:54:32Z</time>
      </trkpt>
      <trkpt lat="43.09482" lon="-0.68417">
        <ele>362.6</ele>
        <time>2025-07-23T04:54:33Z</time>
      </trkpt>
      <trkpt lat="43.09468" lon="-0.68432">
        <ele>361.8</ele>
        <time>2025-07-23T04:54:35Z</time>
      </trkpt>
      <trkpt lat="43.09453" lon="-0.68443">
        <ele>361</ele>
        <time>2025-07-23T04:54:37Z</time>
      </trkpt>
      <trkpt lat="43.09446" lon="-0.68446">
        <ele>361</ele>
        <time>2025-07-23T04:54:38Z</time>
      </trkpt>
      <trkpt lat="43.09415" lon="-0.68456">
        <ele>361</ele>
        <time>2025-07-23T04:54:43Z</time>
      </trkpt>
      <trkpt lat="43.09405" lon="-0.68462">
        <ele>361.8</ele>
        <time>2025-07-23T04:54:45Z</time>
      </trkpt>
      <trkpt lat="43.09397" lon="-0.68472">
        <ele>362.4</ele>
        <time>2025-07-23T04:54:47Z</time>
      </trkpt>
      <trkpt lat="43.09393" lon="-0.68484">
        <ele>363</ele>
        <time>2025-07-23T04:54:49Z</time>
      </trkpt>
      <trkpt lat="43.09391" lon="-0.68495">
        <ele>363.6</ele>
        <time>2025-07-23T04:54:51Z</time>
      </trkpt>
      <trkpt lat="43.09387" lon="-0.68517">
        <ele>364.2</ele>
        <time>2025-07-23T04:54:54Z</time>
      </trkpt>
      <trkpt lat="43.09382" lon="-0.68558">
        <ele>365.2</ele>
        <time>2025-07-23T04:55:00Z</time>
      </trkpt>
      <trkpt lat="43.09378" lon="-0.68585">
        <ele>365.6</ele>
        <time>2025-07-23T04:55:04Z</time>
      </trkpt>
      <trkpt lat="43.09373" lon="-0.68596">
        <ele>365.8</ele>
        <time>2025-07-23T04:55:06Z</time>
      </trkpt>
      <trkpt lat="43.09367" lon="-0.68609">
        <ele>366</ele>
        <time>2025-07-23T04:55:08Z</time>
      </trkpt>
      <trkpt lat="43.09356" lon="-0.68625">
        <ele>366.2</ele>
        <time>2025-07-23T04:55:11Z</time>
      </trkpt>
      <trkpt lat="43.0935" lon="-0.68636">
        <ele>366.4</ele>
        <time>2025-07-23T04:55:13Z</time>
      </trkpt>
      <trkpt lat="43.09316" lon="-0.68699">
        <ele>366.4</ele>
        <time>2025-07-23T04:55:23Z</time>
      </trkpt>
      <trkpt lat="43.09313" lon="-0.68707">
        <ele>366.2</ele>
        <time>2025-07-23T04:55:24Z</time>
      </trkpt>
      <trkpt lat="43.09301" lon="-0.68742">
        <ele>365.6</ele>
        <time>2025-07-23T04:55:28Z</time>
      </trkpt>
      <trkpt lat="43.09299" lon="-0.68751">
        <ele>365.6</ele>
        <time>2025-07-23T04:55:29Z</time>
      </trkpt>
      <trkpt lat="43.09295" lon="-0.68792">
        <ele>365.4</ele>
        <time>2025-07-23T04:55:34Z</time>
      </trkpt>
      <trkpt lat="43.09294" lon="-0.6884">
        <ele>366.6</ele>
        <time>2025-07-23T04:55:41Z</time>
      </trkpt>
      <trkpt lat="43.09294" lon="-0.68859">
        <ele>367.4</ele>
        <time>2025-07-23T04:55:44Z</time>
      </trkpt>
      <trkpt lat="43.09292" lon="-0.68878">
        <ele>368.6</ele>
        <time>2025-07-23T04:55:47Z</time>
      </trkpt>
      <trkpt lat="43.09292" lon="-0.68884">
        <ele>368.8</ele>
        <time>2025-07-23T04:55:48Z</time>
      </trkpt>
      <trkpt lat="43.09291" lon="-0.6889">
        <ele>369.2</ele>
        <time>2025-07-23T04:55:49Z</time>
      </trkpt>
      <trkpt lat="43.09289" lon="-0.68903">
        <ele>369.6</ele>
        <time>2025-07-23T04:55:51Z</time>
      </trkpt>
      <trkpt lat="43.09288" lon="-0.68916">
        <ele>369.8</ele>
        <time>2025-07-23T04:55:53Z</time>
      </trkpt>
      <trkpt lat="43.09285" lon="-0.68928">
        <ele>370.2</ele>
        <time>2025-07-23T04:55:55Z</time>
      </trkpt>
      <trkpt lat="43.09277" lon="-0.68954">
        <ele>370.4</ele>
        <time>2025-07-23T04:55:59Z</time>
      </trkpt>
      <trkpt lat="43.09275" lon="-0.6896">
        <ele>370.6</ele>
        <time>2025-07-23T04:56:00Z</time>
      </trkpt>
      <trkpt lat="43.09272" lon="-0.68966">
        <ele>370.6</ele>
        <time>2025-07-23T04:56:01Z</time>
      </trkpt>
      <trkpt lat="43.09259" lon="-0.68986">
        <ele>370.8</ele>
        <time>2025-07-23T04:56:05Z</time>
      </trkpt>
      <trkpt lat="43.09251" lon="-0.69004">
        <ele>371.2</ele>
        <time>2025-07-23T04:56:08Z</time>
      </trkpt>
      <trkpt lat="43.09245" lon="-0.69025">
        <ele>371.4</ele>
        <time>2025-07-23T04:56:11Z</time>
      </trkpt>
      <trkpt lat="43.0924" lon="-0.69046">
        <ele>371.6</ele>
        <time>2025-07-23T04:56:14Z</time>
      </trkpt>
      <trkpt lat="43.09226" lon="-0.69088">
        <ele>371.8</ele>
        <time>2025-07-23T04:56:20Z</time>
      </trkpt>
      <trkpt lat="43.0921" lon="-0.69146">
        <ele>372.2</ele>
        <time>2025-07-23T04:56:28Z</time>
      </trkpt>
      <trkpt lat="43.09202" lon="-0.69182">
        <ele>372.8</ele>
        <time>2025-07-23T04:56:33Z</time>
      </trkpt>
      <trkpt lat="43.092" lon="-0.69205">
        <ele>373.2</ele>
        <time>2025-07-23T04:56:36Z</time>
      </trkpt>
      <trkpt lat="43.09202" lon="-0.69266">
        <ele>373.6</ele>
        <time>2025-07-23T04:56:44Z</time>
      </trkpt>
      <trkpt lat="43.09206" lon="-0.69287">
        <ele>373.8</ele>
        <time>2025-07-23T04:56:47Z</time>
      </trkpt>
      <trkpt lat="43.09206" lon="-0.69292">
        <ele>374</ele>
        <time>2025-07-23T04:56:48Z</time>
      </trkpt>
      <trkpt lat="43.0921" lon="-0.69313">
        <ele>374.4</ele>
        <time>2025-07-23T04:56:51Z</time>
      </trkpt>
      <trkpt lat="43.09213" lon="-0.69325">
        <ele>374.8</ele>
        <time>2025-07-23T04:56:53Z</time>
      </trkpt>
      <trkpt lat="43.09223" lon="-0.69358">
        <ele>375.8</ele>
        <time>2025-07-23T04:56:59Z</time>
      </trkpt>
      <trkpt lat="43.09225" lon="-0.69364">
        <ele>376</ele>
        <time>2025-07-23T04:57:00Z</time>
      </trkpt>
      <trkpt lat="43.09236" lon="-0.69397">
        <ele>377</ele>
        <time>2025-07-23T04:57:06Z</time>
      </trkpt>
      <trkpt lat="43.09237" lon="-0.69402">
        <ele>377.2</ele>
        <time>2025-07-23T04:57:07Z</time>
      </trkpt>
      <trkpt lat="43.09243" lon="-0.69429">
        <ele>377.8</ele>
        <time>2025-07-23T04:57:12Z</time>
      </trkpt>
      <trkpt lat="43.09244" lon="-0.69449">
        <ele>378.4</ele>
        <time>2025-07-23T04:57:16Z</time>
      </trkpt>
      <trkpt lat="43.09244" lon="-0.69463">
        <ele>379.2</ele>
        <time>2025-07-23T04:57:19Z</time>
      </trkpt>
      <trkpt lat="43.09244" lon="-0.69477">
        <ele>379.6</ele>
        <time>2025-07-23T04:57:22Z</time>
      </trkpt>
      <trkpt lat="43.09246" lon="-0.69486">
        <ele>380.4</ele>
        <time>2025-07-23T04:57:24Z</time>
      </trkpt>
      <trkpt lat="43.09248" lon="-0.69519">
        <ele>381.6</ele>
        <time>2025-07-23T04:57:31Z</time>
      </trkpt>
      <trkpt lat="43.09247" lon="-0.69524">
        <ele>381.8</ele>
        <time>2025-07-23T04:57:32Z</time>
      </trkpt>
      <trkpt lat="43.09246" lon="-0.69541">
        <ele>382.6</ele>
        <time>2025-07-23T04:57:36Z</time>
      </trkpt>
      <trkpt lat="43.09249" lon="-0.6956">
        <ele>383</ele>
        <time>2025-07-23T04:57:40Z</time>
      </trkpt>
      <trkpt lat="43.09254" lon="-0.69571">
        <ele>383.8</ele>
        <time>2025-07-23T04:57:43Z</time>
      </trkpt>
      <trkpt lat="43.0926" lon="-0.69582">
        <ele>384.4</ele>
        <time>2025-07-23T04:57:46Z</time>
      </trkpt>
      <trkpt lat="43.09262" lon="-0.69591">
        <ele>385</ele>
        <time>2025-07-23T04:57:48Z</time>
      </trkpt>
      <trkpt lat="43.09264" lon="-0.69609">
        <ele>386</ele>
        <time>2025-07-23T04:57:52Z</time>
      </trkpt>
      <trkpt lat="43.09262" lon="-0.69629">
        <ele>387.4</ele>
        <time>2025-07-23T04:57:57Z</time>
      </trkpt>
      <trkpt lat="43.09261" lon="-0.69636">
        <ele>387.8</ele>
        <time>2025-07-23T04:57:59Z</time>
      </trkpt>
      <trkpt lat="43.09257" lon="-0.69653">
        <ele>388.2</ele>
        <time>2025-07-23T04:58:03Z</time>
      </trkpt>
      <trkpt lat="43.09256" lon="-0.69657">
        <ele>388.4</ele>
        <time>2025-07-23T04:58:04Z</time>
      </trkpt>
      <trkpt lat="43.0925" lon="-0.69676">
        <ele>389.4</ele>
        <time>2025-07-23T04:58:09Z</time>
      </trkpt>
      <trkpt lat="43.09247" lon="-0.69686">
        <ele>389.6</ele>
        <time>2025-07-23T04:58:11Z</time>
      </trkpt>
      <trkpt lat="43.09242" lon="-0.69703">
        <ele>390.4</ele>
        <time>2025-07-23T04:58:15Z</time>
      </trkpt>
      <trkpt lat="43.09241" lon="-0.69707">
        <ele>390.6</ele>
        <time>2025-07-23T04:58:16Z</time>
      </trkpt>
      <trkpt lat="43.0924" lon="-0.69714">
        <ele>391</ele>
        <time>2025-07-23T04:58:18Z</time>
      </trkpt>
      <trkpt lat="43.0924" lon="-0.69718">
        <ele>391.4</ele>
        <time>2025-07-23T04:58:19Z</time>
      </trkpt>
      <trkpt lat="43.09238" lon="-0.69731">
        <ele>391.6</ele>
        <time>2025-07-23T04:58:22Z</time>
      </trkpt>
      <trkpt lat="43.09235" lon="-0.69747">
        <ele>392.4</ele>
        <time>2025-07-23T04:58:25Z</time>
      </trkpt>
      <trkpt lat="43.09235" lon="-0.69751">
        <ele>392.6</ele>
        <time>2025-07-23T04:58:26Z</time>
      </trkpt>
      <trkpt lat="43.09233" lon="-0.69756">
        <ele>392.8</ele>
        <time>2025-07-23T04:58:27Z</time>
      </trkpt>
      <trkpt lat="43.09228" lon="-0.6977">
        <ele>393.4</ele>
        <time>2025-07-23T04:58:30Z</time>
      </trkpt>
      <trkpt lat="43.09226" lon="-0.69774">
        <ele>394</ele>
        <time>2025-07-23T04:58:31Z</time>
      </trkpt>
      <trkpt lat="43.09217" lon="-0.69782">
        <ele>394.2</ele>
        <time>2025-07-23T04:58:34Z</time>
      </trkpt>
      <trkpt lat="43.09204" lon="-0.69796">
        <ele>394.8</ele>
        <time>2025-07-23T04:58:38Z</time>
      </trkpt>
      <trkpt lat="43.09202" lon="-0.698">
        <ele>395</ele>
        <time>2025-07-23T04:58:39Z</time>
      </trkpt>
      <trkpt lat="43.09201" lon="-0.69804">
        <ele>395.4</ele>
        <time>2025-07-23T04:58:40Z</time>
      </trkpt>
      <trkpt lat="43.09204" lon="-0.69817">
        <ele>395.8</ele>
        <time>2025-07-23T04:58:43Z</time>
      </trkpt>
      <trkpt lat="43.09207" lon="-0.69819">
        <ele>396</ele>
        <time>2025-07-23T04:58:44Z</time>
      </trkpt>
      <trkpt lat="43.09221" lon="-0.69827">
        <ele>397</ele>
        <time>2025-07-23T04:58:49Z</time>
      </trkpt>
      <trkpt lat="43.09223" lon="-0.69828">
        <ele>397.4</ele>
        <time>2025-07-23T04:58:50Z</time>
      </trkpt>
      <trkpt lat="43.09226" lon="-0.69833">
        <ele>398</ele>
        <time>2025-07-23T04:58:52Z</time>
      </trkpt>
      <trkpt lat="43.0923" lon="-0.69845">
        <ele>398.6</ele>
        <time>2025-07-23T04:58:55Z</time>
      </trkpt>
      <trkpt lat="43.09232" lon="-0.69853">
        <ele>399</ele>
        <time>2025-07-23T04:58:57Z</time>
      </trkpt>
      <trkpt lat="43.09232" lon="-0.69867">
        <ele>399.4</ele>
        <time>2025-07-23T04:59:00Z</time>
      </trkpt>
      <trkpt lat="43.09232" lon="-0.69885">
        <ele>400</ele>
        <time>2025-07-23T04:59:04Z</time>
      </trkpt>
      <trkpt lat="43.09232" lon="-0.69889">
        <ele>400.2</ele>
        <time>2025-07-23T04:59:05Z</time>
      </trkpt>
      <trkpt lat="43.0923" lon="-0.69902">
        <ele>400.6</ele>
        <time>2025-07-23T04:59:08Z</time>
      </trkpt>
      <trkpt lat="43.09228" lon="-0.69919">
        <ele>401.2</ele>
        <time>2025-07-23T04:59:13Z</time>
      </trkpt>
      <trkpt lat="43.09226" lon="-0.6993">
        <ele>401.4</ele>
        <time>2025-07-23T04:59:15Z</time>
      </trkpt>
      <trkpt lat="43.09219" lon="-0.69945">
        <ele>402</ele>
        <time>2025-07-23T04:59:17Z</time>
      </trkpt>
      <trkpt lat="43.09214" lon="-0.69961">
        <ele>402.2</ele>
        <time>2025-07-23T04:59:19Z</time>
      </trkpt>
      <trkpt lat="43.09202" lon="-0.69976">
        <ele>402.6</ele>
        <time>2025-07-23T04:59:23Z</time>
      </trkpt>
      <trkpt lat="43.09195" lon="-0.69984">
        <ele>403.4</ele>
        <time>2025-07-23T04:59:26Z</time>
      </trkpt>
      <trkpt lat="43.09188" lon="-0.6999">
        <ele>403.8</ele>
        <time>2025-07-23T04:59:29Z</time>
      </trkpt>
      <trkpt lat="43.09172" lon="-0.70003">
        <ele>404.4</ele>
        <time>2025-07-23T04:59:35Z</time>
      </trkpt>
      <trkpt lat="43.09166" lon="-0.70009">
        <ele>404.8</ele>
        <time>2025-07-23T04:59:37Z</time>
      </trkpt>
      <trkpt lat="43.09162" lon="-0.70015">
        <ele>405.2</ele>
        <time>2025-07-23T04:59:39Z</time>
      </trkpt>
      <trkpt lat="43.0916" lon="-0.70031">
        <ele>405.6</ele>
        <time>2025-07-23T04:59:42Z</time>
      </trkpt>
      <trkpt lat="43.09167" lon="-0.7004">
        <ele>406</ele>
        <time>2025-07-23T04:59:45Z</time>
      </trkpt>
      <trkpt lat="43.09173" lon="-0.70041">
        <ele>406.2</ele>
        <time>2025-07-23T04:59:47Z</time>
      </trkpt>
      <trkpt lat="43.09182" lon="-0.70041">
        <ele>407</ele>
        <time>2025-07-23T04:59:50Z</time>
      </trkpt>
      <trkpt lat="43.09185" lon="-0.70041">
        <ele>407.4</ele>
        <time>2025-07-23T04:59:51Z</time>
      </trkpt>
      <trkpt lat="43.09197" lon="-0.70038">
        <ele>408.2</ele>
        <time>2025-07-23T04:59:55Z</time>
      </trkpt>
      <trkpt lat="43.09205" lon="-0.70037">
        <ele>408.6</ele>
        <time>2025-07-23T04:59:57Z</time>
      </trkpt>
      <trkpt lat="43.0922" lon="-0.70038">
        <ele>409.2</ele>
        <time>2025-07-23T05:00:01Z</time>
      </trkpt>
      <trkpt lat="43.09227" lon="-0.70044">
        <ele>409.6</ele>
        <time>2025-07-23T05:00:03Z</time>
      </trkpt>
      <trkpt lat="43.09232" lon="-0.70051">
        <ele>409.8</ele>
        <time>2025-07-23T05:00:05Z</time>
      </trkpt>
      <trkpt lat="43.09234" lon="-0.70072">
        <ele>410.4</ele>
        <time>2025-07-23T05:00:09Z</time>
      </trkpt>
      <trkpt lat="43.09234" lon="-0.70077">
        <ele>410.6</ele>
        <time>2025-07-23T05:00:10Z</time>
      </trkpt>
      <trkpt lat="43.09229" lon="-0.70094">
        <ele>411.2</ele>
        <time>2025-07-23T05:00:14Z</time>
      </trkpt>
      <trkpt lat="43.09223" lon="-0.70105">
        <ele>411.6</ele>
        <time>2025-07-23T05:00:17Z</time>
      </trkpt>
      <trkpt lat="43.09209" lon="-0.70127">
        <ele>412.2</ele>
        <time>2025-07-23T05:00:23Z</time>
      </trkpt>
      <trkpt lat="43.092" lon="-0.70137">
        <ele>412.8</ele>
        <time>2025-07-23T05:00:26Z</time>
      </trkpt>
      <trkpt lat="43.09189" lon="-0.70149">
        <ele>413.2</ele>
        <time>2025-07-23T05:00:30Z</time>
      </trkpt>
      <trkpt lat="43.09179" lon="-0.7016">
        <ele>413.8</ele>
        <time>2025-07-23T05:00:34Z</time>
      </trkpt>
      <trkpt lat="43.09164" lon="-0.70174">
        <ele>415</ele>
        <time>2025-07-23T05:00:39Z</time>
      </trkpt>
      <trkpt lat="43.09161" lon="-0.70177">
        <ele>415.2</ele>
        <time>2025-07-23T05:00:40Z</time>
      </trkpt>
      <trkpt lat="43.09144" lon="-0.70194">
        <ele>416.2</ele>
        <time>2025-07-23T05:00:46Z</time>
      </trkpt>
      <trkpt lat="43.09139" lon="-0.70201">
        <ele>416.6</ele>
        <time>2025-07-23T05:00:48Z</time>
      </trkpt>
      <trkpt lat="43.09132" lon="-0.70224">
        <ele>417.2</ele>
        <time>2025-07-23T05:00:53Z</time>
      </trkpt>
      <trkpt lat="43.09138" lon="-0.70237">
        <ele>417.8</ele>
        <time>2025-07-23T05:00:56Z</time>
      </trkpt>
      <trkpt lat="43.09152" lon="-0.7024">
        <ele>418.2</ele>
        <time>2025-07-23T05:01:00Z</time>
      </trkpt>
      <trkpt lat="43.09156" lon="-0.7024">
        <ele>418.4</ele>
        <time>2025-07-23T05:01:01Z</time>
      </trkpt>
      <trkpt lat="43.09169" lon="-0.70234">
        <ele>419.4</ele>
        <time>2025-07-23T05:01:06Z</time>
      </trkpt>
      <trkpt lat="43.09181" lon="-0.70231">
        <ele>420.6</ele>
        <time>2025-07-23T05:01:10Z</time>
      </trkpt>
      <trkpt lat="43.09184" lon="-0.7023">
        <ele>420.6</ele>
        <time>2025-07-23T05:01:11Z</time>
      </trkpt>
      <trkpt lat="43.09202" lon="-0.70221">
        <ele>421.8</ele>
        <time>2025-07-23T05:01:17Z</time>
      </trkpt>
      <trkpt lat="43.09217" lon="-0.70215">
        <ele>422.6</ele>
        <time>2025-07-23T05:01:22Z</time>
      </trkpt>
      <trkpt lat="43.09225" lon="-0.70213">
        <ele>423</ele>
        <time>2025-07-23T05:01:24Z</time>
      </trkpt>
      <trkpt lat="43.0924" lon="-0.70216">
        <ele>423.6</ele>
        <time>2025-07-23T05:01:28Z</time>
      </trkpt>
      <trkpt lat="43.09243" lon="-0.70218">
        <ele>424</ele>
        <time>2025-07-23T05:01:29Z</time>
      </trkpt>
      <trkpt lat="43.09254" lon="-0.70234">
        <ele>424.8</ele>
        <time>2025-07-23T05:01:33Z</time>
      </trkpt>
      <trkpt lat="43.09256" lon="-0.70243">
        <ele>425</ele>
        <time>2025-07-23T05:01:35Z</time>
      </trkpt>
      <trkpt lat="43.09258" lon="-0.70256">
        <ele>425.4</ele>
        <time>2025-07-23T05:01:38Z</time>
      </trkpt>
      <trkpt lat="43.09255" lon="-0.70275">
        <ele>426</ele>
        <time>2025-07-23T05:01:42Z</time>
      </trkpt>
      <trkpt lat="43.09252" lon="-0.70289">
        <ele>426.4</ele>
        <time>2025-07-23T05:01:45Z</time>
      </trkpt>
      <trkpt lat="43.09249" lon="-0.70307">
        <ele>427.2</ele>
        <time>2025-07-23T05:01:49Z</time>
      </trkpt>
      <trkpt lat="43.09245" lon="-0.7033">
        <ele>428</ele>
        <time>2025-07-23T05:01:54Z</time>
      </trkpt>
      <trkpt lat="43.09244" lon="-0.7034">
        <ele>428.4</ele>
        <time>2025-07-23T05:01:56Z</time>
      </trkpt>
      <trkpt lat="43.09244" lon="-0.70363">
        <ele>422.6</ele>
        <time>2025-07-23T05:02:01Z</time>
      </trkpt>
      <trkpt lat="43.09243" lon="-0.70387">
        <ele>430.6</ele>
        <time>2025-07-23T05:02:06Z</time>
      </trkpt>
      <trkpt lat="43.09242" lon="-0.70405">
        <ele>431.4</ele>
        <time>2025-07-23T05:02:10Z</time>
      </trkpt>
      <trkpt lat="43.09239" lon="-0.70414">
        <ele>431.8</ele>
        <time>2025-07-23T05:02:12Z</time>
      </trkpt>
      <trkpt lat="43.09234" lon="-0.70425">
        <ele>432.2</ele>
        <time>2025-07-23T05:02:15Z</time>
      </trkpt>
      <trkpt lat="43.09213" lon="-0.70451">
        <ele>432.2</ele>
        <time>2025-07-23T05:02:21Z</time>
      </trkpt>
      <trkpt lat="43.09208" lon="-0.70465">
        <ele>432</ele>
        <time>2025-07-23T05:02:23Z</time>
      </trkpt>
      <trkpt lat="43.09204" lon="-0.7048">
        <ele>431.6</ele>
        <time>2025-07-23T05:02:25Z</time>
      </trkpt>
      <trkpt lat="43.09202" lon="-0.705">
        <ele>431</ele>
        <time>2025-07-23T05:02:27Z</time>
      </trkpt>
      <trkpt lat="43.09202" lon="-0.70517">
        <ele>430.6</ele>
        <time>2025-07-23T05:02:29Z</time>
      </trkpt>
      <trkpt lat="43.09204" lon="-0.70528">
        <ele>430.2</ele>
        <time>2025-07-23T05:02:30Z</time>
      </trkpt>
      <trkpt lat="43.0921" lon="-0.70548">
        <ele>429.6</ele>
        <time>2025-07-23T05:02:32Z</time>
      </trkpt>
      <trkpt lat="43.09215" lon="-0.70566">
        <ele>428.8</ele>
        <time>2025-07-23T05:02:34Z</time>
      </trkpt>
      <trkpt lat="43.09215" lon="-0.70588">
        <ele>428.2</ele>
        <time>2025-07-23T05:02:36Z</time>
      </trkpt>
      <trkpt lat="43.09205" lon="-0.70608">
        <ele>427.8</ele>
        <time>2025-07-23T05:02:38Z</time>
      </trkpt>
      <trkpt lat="43.09199" lon="-0.70616">
        <ele>427.2</ele>
        <time>2025-07-23T05:02:39Z</time>
      </trkpt>
      <trkpt lat="43.0918" lon="-0.70641">
        <ele>425.8</ele>
        <time>2025-07-23T05:02:42Z</time>
      </trkpt>
      <trkpt lat="43.09173" lon="-0.70653">
        <ele>425.6</ele>
        <time>2025-07-23T05:02:43Z</time>
      </trkpt>
      <trkpt lat="43.09164" lon="-0.70672">
        <ele>424.8</ele>
        <time>2025-07-23T05:02:45Z</time>
      </trkpt>
      <trkpt lat="43.0916" lon="-0.70682">
        <ele>423.8</ele>
        <time>2025-07-23T05:02:46Z</time>
      </trkpt>
      <trkpt lat="43.09157" lon="-0.70693">
        <ele>423.4</ele>
        <time>2025-07-23T05:02:47Z</time>
      </trkpt>
      <trkpt lat="43.09158" lon="-0.70703">
        <ele>422.6</ele>
        <time>2025-07-23T05:02:48Z</time>
      </trkpt>
      <trkpt lat="43.0916" lon="-0.70712">
        <ele>422</ele>
        <time>2025-07-23T05:02:49Z</time>
      </trkpt>
      <trkpt lat="43.09166" lon="-0.70719">
        <ele>421.6</ele>
        <time>2025-07-23T05:02:50Z</time>
      </trkpt>
      <trkpt lat="43.09173" lon="-0.70725">
        <ele>421.2</ele>
        <time>2025-07-23T05:02:51Z</time>
      </trkpt>
      <trkpt lat="43.09189" lon="-0.70733">
        <ele>419.8</ele>
        <time>2025-07-23T05:02:53Z</time>
      </trkpt>
      <trkpt lat="43.09214" lon="-0.70746">
        <ele>418.2</ele>
        <time>2025-07-23T05:02:56Z</time>
      </trkpt>
      <trkpt lat="43.09221" lon="-0.70749">
        <ele>418</ele>
        <time>2025-07-23T05:02:57Z</time>
      </trkpt>
      <trkpt lat="43.0924" lon="-0.70758">
        <ele>416.8</ele>
        <time>2025-07-23T05:02:59Z</time>
      </trkpt>
      <trkpt lat="43.09253" lon="-0.70771">
        <ele>416.2</ele>
        <time>2025-07-23T05:03:01Z</time>
      </trkpt>
      <trkpt lat="43.09258" lon="-0.70781">
        <ele>415.8</ele>
        <time>2025-07-23T05:03:02Z</time>
      </trkpt>
      <trkpt lat="43.09261" lon="-0.70794">
        <ele>415.2</ele>
        <time>2025-07-23T05:03:03Z</time>
      </trkpt>
      <trkpt lat="43.09258" lon="-0.70818">
        <ele>414.4</ele>
        <time>2025-07-23T05:03:05Z</time>
      </trkpt>
      <trkpt lat="43.0925" lon="-0.70836">
        <ele>413.8</ele>
        <time>2025-07-23T05:03:07Z</time>
      </trkpt>
      <trkpt lat="43.09242" lon="-0.70846">
        <ele>413.2</ele>
        <time>2025-07-23T05:03:08Z</time>
      </trkpt>
      <trkpt lat="43.09233" lon="-0.70853">
        <ele>412.8</ele>
        <time>2025-07-23T05:03:09Z</time>
      </trkpt>
      <trkpt lat="43.09217" lon="-0.70863">
        <ele>412</ele>
        <time>2025-07-23T05:03:11Z</time>
      </trkpt>
      <trkpt lat="43.09197" lon="-0.7087">
        <ele>411</ele>
        <time>2025-07-23T05:03:13Z</time>
      </trkpt>
      <trkpt lat="43.0918" lon="-0.7088">
        <ele>410</ele>
        <time>2025-07-23T05:03:15Z</time>
      </trkpt>
      <trkpt lat="43.09173" lon="-0.70886">
        <ele>409.8</ele>
        <time>2025-07-23T05:03:16Z</time>
      </trkpt>
      <trkpt lat="43.09168" lon="-0.70896">
        <ele>409.2</ele>
        <time>2025-07-23T05:03:17Z</time>
      </trkpt>
      <trkpt lat="43.09166" lon="-0.70911">
        <ele>408.8</ele>
        <time>2025-07-23T05:03:18Z</time>
      </trkpt>
      <trkpt lat="43.09165" lon="-0.70937">
        <ele>407.6</ele>
        <time>2025-07-23T05:03:20Z</time>
      </trkpt>
      <trkpt lat="43.09165" lon="-0.70947">
        <ele>407.2</ele>
        <time>2025-07-23T05:03:21Z</time>
      </trkpt>
      <trkpt lat="43.09167" lon="-0.70959">
        <ele>406.4</ele>
        <time>2025-07-23T05:03:22Z</time>
      </trkpt>
      <trkpt lat="43.09173" lon="-0.70971">
        <ele>405.4</ele>
        <time>2025-07-23T05:03:23Z</time>
      </trkpt>
      <trkpt lat="43.09181" lon="-0.70979">
        <ele>405</ele>
        <time>2025-07-23T05:03:24Z</time>
      </trkpt>
      <trkpt lat="43.0919" lon="-0.70985">
        <ele>404.4</ele>
        <time>2025-07-23T05:03:25Z</time>
      </trkpt>
      <trkpt lat="43.09198" lon="-0.70989">
        <ele>404</ele>
        <time>2025-07-23T05:03:26Z</time>
      </trkpt>
      <trkpt lat="43.09208" lon="-0.70992">
        <ele>403</ele>
        <time>2025-07-23T05:03:27Z</time>
      </trkpt>
      <trkpt lat="43.09219" lon="-0.70994">
        <ele>402.8</ele>
        <time>2025-07-23T05:03:28Z</time>
      </trkpt>
      <trkpt lat="43.09228" lon="-0.70996">
        <ele>402</ele>
        <time>2025-07-23T05:03:29Z</time>
      </trkpt>
      <trkpt lat="43.09238" lon="-0.71">
        <ele>401.2</ele>
        <time>2025-07-23T05:03:30Z</time>
      </trkpt>
      <trkpt lat="43.09243" lon="-0.71006">
        <ele>400.6</ele>
        <time>2025-07-23T05:03:31Z</time>
      </trkpt>
      <trkpt lat="43.09249" lon="-0.71015">
        <ele>400</ele>
        <time>2025-07-23T05:03:32Z</time>
      </trkpt>
      <trkpt lat="43.09251" lon="-0.71027">
        <ele>399.6</ele>
        <time>2025-07-23T05:03:33Z</time>
      </trkpt>
      <trkpt lat="43.0925" lon="-0.71041">
        <ele>398.8</ele>
        <time>2025-07-23T05:03:34Z</time>
      </trkpt>
      <trkpt lat="43.09247" lon="-0.71052">
        <ele>398.2</ele>
        <time>2025-07-23T05:03:35Z</time>
      </trkpt>
      <trkpt lat="43.09237" lon="-0.71073">
        <ele>397.4</ele>
        <time>2025-07-23T05:03:37Z</time>
      </trkpt>
      <trkpt lat="43.0923" lon="-0.71084">
        <ele>397.2</ele>
        <time>2025-07-23T05:03:38Z</time>
      </trkpt>
      <trkpt lat="43.09222" lon="-0.71096">
        <ele>396</ele>
        <time>2025-07-23T05:03:39Z</time>
      </trkpt>
      <trkpt lat="43.09211" lon="-0.71113">
        <ele>395</ele>
        <time>2025-07-23T05:03:41Z</time>
      </trkpt>
      <trkpt lat="43.09207" lon="-0.71122">
        <ele>394.2</ele>
        <time>2025-07-23T05:03:42Z</time>
      </trkpt>
      <trkpt lat="43.09206" lon="-0.71132">
        <ele>393.6</ele>
        <time>2025-07-23T05:03:43Z</time>
      </trkpt>
      <trkpt lat="43.0921" lon="-0.7114">
        <ele>392.6</ele>
        <time>2025-07-23T05:03:44Z</time>
      </trkpt>
      <trkpt lat="43.09216" lon="-0.71145">
        <ele>392.2</ele>
        <time>2025-07-23T05:03:45Z</time>
      </trkpt>
      <trkpt lat="43.09222" lon="-0.71149">
        <ele>391.4</ele>
        <time>2025-07-23T05:03:46Z</time>
      </trkpt>
      <trkpt lat="43.09237" lon="-0.71154">
        <ele>390.4</ele>
        <time>2025-07-23T05:03:48Z</time>
      </trkpt>
      <trkpt lat="43.09261" lon="-0.71163">
        <ele>389.4</ele>
        <time>2025-07-23T05:03:51Z</time>
      </trkpt>
      <trkpt lat="43.09288" lon="-0.71179">
        <ele>387.2</ele>
        <time>2025-07-23T05:03:54Z</time>
      </trkpt>
      <trkpt lat="43.09305" lon="-0.71192">
        <ele>386</ele>
        <time>2025-07-23T05:03:56Z</time>
      </trkpt>
      <trkpt lat="43.09331" lon="-0.7121">
        <ele>384.6</ele>
        <time>2025-07-23T05:03:59Z</time>
      </trkpt>
      <trkpt lat="43.09341" lon="-0.71214">
        <ele>384.4</ele>
        <time>2025-07-23T05:04:00Z</time>
      </trkpt>
      <trkpt lat="43.09351" lon="-0.71216">
        <ele>383.6</ele>
        <time>2025-07-23T05:04:01Z</time>
      </trkpt>
      <trkpt lat="43.09361" lon="-0.71218">
        <ele>383.2</ele>
        <time>2025-07-23T05:04:02Z</time>
      </trkpt>
      <trkpt lat="43.09381" lon="-0.71219">
        <ele>382</ele>
        <time>2025-07-23T05:04:04Z</time>
      </trkpt>
      <trkpt lat="43.09401" lon="-0.71216">
        <ele>381</ele>
        <time>2025-07-23T05:04:06Z</time>
      </trkpt>
      <trkpt lat="43.09422" lon="-0.71211">
        <ele>380.2</ele>
        <time>2025-07-23T05:04:08Z</time>
      </trkpt>
      <trkpt lat="43.09432" lon="-0.71207">
        <ele>379.8</ele>
        <time>2025-07-23T05:04:09Z</time>
      </trkpt>
      <trkpt lat="43.09442" lon="-0.71202">
        <ele>379</ele>
        <time>2025-07-23T05:04:10Z</time>
      </trkpt>
      <trkpt lat="43.09452" lon="-0.71197">
        <ele>378.6</ele>
        <time>2025-07-23T05:04:11Z</time>
      </trkpt>
      <trkpt lat="43.09471" lon="-0.71181">
        <ele>377.2</ele>
        <time>2025-07-23T05:04:13Z</time>
      </trkpt>
      <trkpt lat="43.09493" lon="-0.71149">
        <ele>375.6</ele>
        <time>2025-07-23T05:04:16Z</time>
      </trkpt>
      <trkpt lat="43.09507" lon="-0.71126">
        <ele>374.2</ele>
        <time>2025-07-23T05:04:18Z</time>
      </trkpt>
      <trkpt lat="43.09515" lon="-0.71116">
        <ele>373.6</ele>
        <time>2025-07-23T05:04:19Z</time>
      </trkpt>
      <trkpt lat="43.09523" lon="-0.71105">
        <ele>372.8</ele>
        <time>2025-07-23T05:04:20Z</time>
      </trkpt>
      <trkpt lat="43.0953" lon="-0.71094">
        <ele>372.4</ele>
        <time>2025-07-23T05:04:21Z</time>
      </trkpt>
      <trkpt lat="43.09535" lon="-0.7108">
        <ele>371.6</ele>
        <time>2025-07-23T05:04:22Z</time>
      </trkpt>
      <trkpt lat="43.09538" lon="-0.71066">
        <ele>370.8</ele>
        <time>2025-07-23T05:04:23Z</time>
      </trkpt>
      <trkpt lat="43.09538" lon="-0.71052">
        <ele>370.4</ele>
        <time>2025-07-23T05:04:24Z</time>
      </trkpt>
      <trkpt lat="43.09536" lon="-0.71036">
        <ele>369.6</ele>
        <time>2025-07-23T05:04:25Z</time>
      </trkpt>
      <trkpt lat="43.09533" lon="-0.71022">
        <ele>369</ele>
        <time>2025-07-23T05:04:26Z</time>
      </trkpt>
      <trkpt lat="43.09525" lon="-0.70995">
        <ele>367.2</ele>
        <time>2025-07-23T05:04:28Z</time>
      </trkpt>
      <trkpt lat="43.09522" lon="-0.70983">
        <ele>366.8</ele>
        <time>2025-07-23T05:04:29Z</time>
      </trkpt>
      <trkpt lat="43.09521" lon="-0.70971">
        <ele>365.6</ele>
        <time>2025-07-23T05:04:30Z</time>
      </trkpt>
      <trkpt lat="43.0952" lon="-0.7096">
        <ele>365.2</ele>
        <time>2025-07-23T05:04:31Z</time>
      </trkpt>
      <trkpt lat="43.0952" lon="-0.70952">
        <ele>364.4</ele>
        <time>2025-07-23T05:04:32Z</time>
      </trkpt>
      <trkpt lat="43.09523" lon="-0.70944">
        <ele>363.2</ele>
        <time>2025-07-23T05:04:33Z</time>
      </trkpt>
      <trkpt lat="43.09528" lon="-0.70939">
        <ele>363</ele>
        <time>2025-07-23T05:04:34Z</time>
      </trkpt>
      <trkpt lat="43.09534" lon="-0.7094">
        <ele>362.6</ele>
        <time>2025-07-23T05:04:35Z</time>
      </trkpt>
      <trkpt lat="43.09539" lon="-0.70943">
        <ele>362.4</ele>
        <time>2025-07-23T05:04:36Z</time>
      </trkpt>
      <trkpt lat="43.09545" lon="-0.70951">
        <ele>362</ele>
        <time>2025-07-23T05:04:37Z</time>
      </trkpt>
      <trkpt lat="43.0955" lon="-0.70959">
        <ele>361.6</ele>
        <time>2025-07-23T05:04:38Z</time>
      </trkpt>
      <trkpt lat="43.09555" lon="-0.70969">
        <ele>360.6</ele>
        <time>2025-07-23T05:04:39Z</time>
      </trkpt>
      <trkpt lat="43.0956" lon="-0.70977">
        <ele>360.4</ele>
        <time>2025-07-23T05:04:40Z</time>
      </trkpt>
      <trkpt lat="43.09563" lon="-0.70985">
        <ele>360</ele>
        <time>2025-07-23T05:04:41Z</time>
      </trkpt>
      <trkpt lat="43.09567" lon="-0.70996">
        <ele>359.8</ele>
        <time>2025-07-23T05:04:42Z</time>
      </trkpt>
      <trkpt lat="43.09576" lon="-0.71034">
        <ele>358.8</ele>
        <time>2025-07-23T05:04:45Z</time>
      </trkpt>
      <trkpt lat="43.09578" lon="-0.71046">
        <ele>358.4</ele>
        <time>2025-07-23T05:04:46Z</time>
      </trkpt>
      <trkpt lat="43.09577" lon="-0.71072">
        <ele>357.2</ele>
        <time>2025-07-23T05:04:48Z</time>
      </trkpt>
      <trkpt lat="43.09573" lon="-0.71114">
        <ele>355.6</ele>
        <time>2025-07-23T05:04:51Z</time>
      </trkpt>
      <trkpt lat="43.0957" lon="-0.71142">
        <ele>354.4</ele>
        <time>2025-07-23T05:04:53Z</time>
      </trkpt>
      <trkpt lat="43.09564" lon="-0.71185">
        <ele>353</ele>
        <time>2025-07-23T05:04:56Z</time>
      </trkpt>
      <trkpt lat="43.09557" lon="-0.71213">
        <ele>352</ele>
        <time>2025-07-23T05:04:58Z</time>
      </trkpt>
      <trkpt lat="43.09548" lon="-0.71237">
        <ele>350.8</ele>
        <time>2025-07-23T05:05:00Z</time>
      </trkpt>
      <trkpt lat="43.09536" lon="-0.71259">
        <ele>349.2</ele>
        <time>2025-07-23T05:05:02Z</time>
      </trkpt>
      <trkpt lat="43.09517" lon="-0.7129">
        <ele>348</ele>
        <time>2025-07-23T05:05:05Z</time>
      </trkpt>
      <trkpt lat="43.09506" lon="-0.71311">
        <ele>347.2</ele>
        <time>2025-07-23T05:05:07Z</time>
      </trkpt>
      <trkpt lat="43.095" lon="-0.71321">
        <ele>346.4</ele>
        <time>2025-07-23T05:05:08Z</time>
      </trkpt>
      <trkpt lat="43.09496" lon="-0.71332">
        <ele>345.6</ele>
        <time>2025-07-23T05:05:09Z</time>
      </trkpt>
      <trkpt lat="43.09492" lon="-0.71354">
        <ele>344.4</ele>
        <time>2025-07-23T05:05:11Z</time>
      </trkpt>
      <trkpt lat="43.09493" lon="-0.71374">
        <ele>343.8</ele>
        <time>2025-07-23T05:05:13Z</time>
      </trkpt>
      <trkpt lat="43.09497" lon="-0.71383">
        <ele>343.2</ele>
        <time>2025-07-23T05:05:14Z</time>
      </trkpt>
      <trkpt lat="43.09501" lon="-0.71391">
        <ele>343.2</ele>
        <time>2025-07-23T05:05:15Z</time>
      </trkpt>
      <trkpt lat="43.09515" lon="-0.71416">
        <ele>342</ele>
        <time>2025-07-23T05:05:18Z</time>
      </trkpt>
      <trkpt lat="43.09521" lon="-0.71435">
        <ele>341.8</ele>
        <time>2025-07-23T05:05:20Z</time>
      </trkpt>
      <trkpt lat="43.09522" lon="-0.71445">
        <ele>341.6</ele>
        <time>2025-07-23T05:05:21Z</time>
      </trkpt>
      <trkpt lat="43.09522" lon="-0.71455">
        <ele>341.4</ele>
        <time>2025-07-23T05:05:22Z</time>
      </trkpt>
      <trkpt lat="43.09521" lon="-0.71474">
        <ele>341</ele>
        <time>2025-07-23T05:05:24Z</time>
      </trkpt>
      <trkpt lat="43.09519" lon="-0.71494">
        <ele>339.6</ele>
        <time>2025-07-23T05:05:26Z</time>
      </trkpt>
      <trkpt lat="43.09514" lon="-0.71532">
        <ele>338.4</ele>
        <time>2025-07-23T05:05:30Z</time>
      </trkpt>
      <trkpt lat="43.09511" lon="-0.71565">
        <ele>337.8</ele>
        <time>2025-07-23T05:05:34Z</time>
      </trkpt>
      <trkpt lat="43.09507" lon="-0.71594">
        <ele>337.6</ele>
        <time>2025-07-23T05:05:38Z</time>
      </trkpt>
      <trkpt lat="43.09506" lon="-0.71602">
        <ele>337.6</ele>
        <time>2025-07-23T05:05:39Z</time>
      </trkpt>
      <trkpt lat="43.09505" lon="-0.71635">
        <ele>338</ele>
        <time>2025-07-23T05:05:45Z</time>
      </trkpt>
      <trkpt lat="43.0951" lon="-0.71647">
        <ele>338.2</ele>
        <time>2025-07-23T05:05:49Z</time>
      </trkpt>
      <trkpt lat="43.09521" lon="-0.71651">
        <ele>338.2</ele>
        <time>2025-07-23T05:05:53Z</time>
      </trkpt>
      <trkpt lat="43.09541" lon="-0.71661">
        <ele>338.2</ele>
        <time>2025-07-23T05:05:59Z</time>
      </trkpt>
      <trkpt lat="43.0955" lon="-0.71681">
        <ele>338</ele>
        <time>2025-07-23T05:06:04Z</time>
      </trkpt>
      <trkpt lat="43.09556" lon="-0.71695">
        <ele>338</ele>
        <time>2025-07-23T05:06:09Z</time>
      </trkpt>
      <trkpt lat="43.09558" lon="-0.71701">
        <ele>338</ele>
        <time>2025-07-23T05:06:14Z</time>
      </trkpt>
      <trkpt lat="43.09558" lon="-0.7171">
        <ele>338</ele>
        <time>2025-07-23T05:06:19Z</time>
      </trkpt>
      <trkpt lat="43.09555" lon="-0.71723">
        <ele>337.8</ele>
        <time>2025-07-23T05:06:24Z</time>
      </trkpt>
      <trkpt lat="43.09554" lon="-0.71727">
        <ele>337.6</ele>
        <time>2025-07-23T05:06:25Z</time>
      </trkpt>
      <trkpt lat="43.09547" lon="-0.71745">
        <ele>337</ele>
        <time>2025-07-23T05:06:29Z</time>
      </trkpt>
      <trkpt lat="43.09543" lon="-0.71762">
        <ele>336.6</ele>
        <time>2025-07-23T05:06:32Z</time>
      </trkpt>
      <trkpt lat="43.09539" lon="-0.71777">
        <ele>335.8</ele>
        <time>2025-07-23T05:06:35Z</time>
      </trkpt>
      <trkpt lat="43.09538" lon="-0.71785">
        <ele>335.8</ele>
        <time>2025-07-23T05:06:37Z</time>
      </trkpt>
      <trkpt lat="43.09538" lon="-0.71787">
        <ele>335.4</ele>
        <time>2025-07-23T05:06:38Z</time>
      </trkpt>
      <trkpt lat="43.09537" lon="-0.71794">
        <ele>335.2</ele>
        <time>2025-07-23T05:06:40Z</time>
      </trkpt>
      <trkpt lat="43.09542" lon="-0.71808">
        <ele>334.8</ele>
        <time>2025-07-23T05:06:45Z</time>
      </trkpt>
      <trkpt lat="43.09552" lon="-0.71834">
        <ele>334.6</ele>
        <time>2025-07-23T05:06:52Z</time>
      </trkpt>
      <trkpt lat="43.09554" lon="-0.71839">
        <ele>334.6</ele>
        <time>2025-07-23T05:06:54Z</time>
      </trkpt>
      <trkpt lat="43.09558" lon="-0.71851">
        <ele>334.6</ele>
        <time>2025-07-23T05:06:58Z</time>
      </trkpt>
      <trkpt lat="43.09568" lon="-0.71873">
        <ele>334.4</ele>
        <time>2025-07-23T05:07:05Z</time>
      </trkpt>
      <trkpt lat="43.09578" lon="-0.71894">
        <ele>334.2</ele>
        <time>2025-07-23T05:07:11Z</time>
      </trkpt>
      <trkpt lat="43.09593" lon="-0.71917">
        <ele>334</ele>
        <time>2025-07-23T05:07:17Z</time>
      </trkpt>
      <trkpt lat="43.09614" lon="-0.71937">
        <ele>333.8</ele>
        <time>2025-07-23T05:07:23Z</time>
      </trkpt>
      <trkpt lat="43.09622" lon="-0.71944">
        <ele>333.6</ele>
        <time>2025-07-23T05:07:25Z</time>
      </trkpt>
      <trkpt lat="43.09647" lon="-0.71965">
        <ele>333.4</ele>
        <time>2025-07-23T05:07:31Z</time>
      </trkpt>
      <trkpt lat="43.09683" lon="-0.71989">
        <ele>333</ele>
        <time>2025-07-23T05:07:39Z</time>
      </trkpt>
      <trkpt lat="43.09687" lon="-0.71993">
        <ele>332.6</ele>
        <time>2025-07-23T05:07:40Z</time>
      </trkpt>
      <trkpt lat="43.09719" lon="-0.72035">
        <ele>332.2</ele>
        <time>2025-07-23T05:07:48Z</time>
      </trkpt>
      <trkpt lat="43.09733" lon="-0.7206">
        <ele>331.8</ele>
        <time>2025-07-23T05:07:52Z</time>
      </trkpt>
      <trkpt lat="43.09738" lon="-0.72075">
        <ele>331.6</ele>
        <time>2025-07-23T05:07:54Z</time>
      </trkpt>
      <trkpt lat="43.0974" lon="-0.72092">
        <ele>331.4</ele>
        <time>2025-07-23T05:07:56Z</time>
      </trkpt>
      <trkpt lat="43.09739" lon="-0.72111">
        <ele>331.4</ele>
        <time>2025-07-23T05:07:58Z</time>
      </trkpt>
      <trkpt lat="43.09739" lon="-0.7212">
        <ele>331</ele>
        <time>2025-07-23T05:07:59Z</time>
      </trkpt>
      <trkpt lat="43.09737" lon="-0.72144">
        <ele>330.6</ele>
        <time>2025-07-23T05:08:02Z</time>
      </trkpt>
      <trkpt lat="43.09739" lon="-0.72161">
        <ele>330.4</ele>
        <time>2025-07-23T05:08:04Z</time>
      </trkpt>
      <trkpt lat="43.09748" lon="-0.72185">
        <ele>329.8</ele>
        <time>2025-07-23T05:08:07Z</time>
      </trkpt>
      <trkpt lat="43.09754" lon="-0.72192">
        <ele>329.8</ele>
        <time>2025-07-23T05:08:08Z</time>
      </trkpt>
      <trkpt lat="43.09758" lon="-0.72194">
        <ele>329.8</ele>
        <time>2025-07-23T05:08:09Z</time>
      </trkpt>
      <trkpt lat="43.09771" lon="-0.72199">
        <ele>329.6</ele>
        <time>2025-07-23T05:08:11Z</time>
      </trkpt>
      <trkpt lat="43.09778" lon="-0.72201">
        <ele>329.4</ele>
        <time>2025-07-23T05:08:12Z</time>
      </trkpt>
      <trkpt lat="43.09817" lon="-0.72216">
        <ele>328.8</ele>
        <time>2025-07-23T05:08:18Z</time>
      </trkpt>
      <trkpt lat="43.09837" lon="-0.72227">
        <ele>328.6</ele>
        <time>2025-07-23T05:08:21Z</time>
      </trkpt>
      <trkpt lat="43.09861" lon="-0.72244">
        <ele>328.4</ele>
        <time>2025-07-23T05:08:25Z</time>
      </trkpt>
      <trkpt lat="43.09897" lon="-0.72272">
        <ele>327.6</ele>
        <time>2025-07-23T05:08:31Z</time>
      </trkpt>
      <trkpt lat="43.09908" lon="-0.72282">
        <ele>327.6</ele>
        <time>2025-07-23T05:08:33Z</time>
      </trkpt>
      <trkpt lat="43.09953" lon="-0.72327">
        <ele>326.8</ele>
        <time>2025-07-23T05:08:41Z</time>
      </trkpt>
      <trkpt lat="43.09971" lon="-0.72347">
        <ele>326.6</ele>
        <time>2025-07-23T05:08:44Z</time>
      </trkpt>
      <trkpt lat="43.09975" lon="-0.72352">
        <ele>326.4</ele>
        <time>2025-07-23T05:08:45Z</time>
      </trkpt>
      <trkpt lat="43.09999" lon="-0.72391">
        <ele>325.6</ele>
        <time>2025-07-23T05:08:50Z</time>
      </trkpt>
      <trkpt lat="43.1001" lon="-0.72406">
        <ele>325.4</ele>
        <time>2025-07-23T05:08:52Z</time>
      </trkpt>
      <trkpt lat="43.10033" lon="-0.72432">
        <ele>325</ele>
        <time>2025-07-23T05:08:56Z</time>
      </trkpt>
      <trkpt lat="43.10049" lon="-0.72451">
        <ele>324.8</ele>
        <time>2025-07-23T05:08:59Z</time>
      </trkpt>
      <trkpt lat="43.10057" lon="-0.72467">
        <ele>324.6</ele>
        <time>2025-07-23T05:09:01Z</time>
      </trkpt>
      <trkpt lat="43.10069" lon="-0.72503">
        <ele>324.4</ele>
        <time>2025-07-23T05:09:05Z</time>
      </trkpt>
      <trkpt lat="43.10073" lon="-0.72514">
        <ele>324.2</ele>
        <time>2025-07-23T05:09:06Z</time>
      </trkpt>
      <trkpt lat="43.10077" lon="-0.72523">
        <ele>324.2</ele>
        <time>2025-07-23T05:09:07Z</time>
      </trkpt>
      <trkpt lat="43.10095" lon="-0.72568">
        <ele>323.2</ele>
        <time>2025-07-23T05:09:12Z</time>
      </trkpt>
      <trkpt lat="43.10114" lon="-0.72611">
        <ele>322.6</ele>
        <time>2025-07-23T05:09:17Z</time>
      </trkpt>
      <trkpt lat="43.10142" lon="-0.72678">
        <ele>322.6</ele>
        <time>2025-07-23T05:09:25Z</time>
      </trkpt>
      <trkpt lat="43.10145" lon="-0.72686">
        <ele>322.2</ele>
        <time>2025-07-23T05:09:26Z</time>
      </trkpt>
      <trkpt lat="43.10152" lon="-0.72703">
        <ele>322.2</ele>
        <time>2025-07-23T05:09:28Z</time>
      </trkpt>
      <trkpt lat="43.10182" lon="-0.72758">
        <ele>321.4</ele>
        <time>2025-07-23T05:09:35Z</time>
      </trkpt>
      <trkpt lat="43.10187" lon="-0.72766">
        <ele>321.2</ele>
        <time>2025-07-23T05:09:36Z</time>
      </trkpt>
      <trkpt lat="43.10216" lon="-0.72813">
        <ele>320.2</ele>
        <time>2025-07-23T05:09:42Z</time>
      </trkpt>
      <trkpt lat="43.1022" lon="-0.72823">
        <ele>320</ele>
        <time>2025-07-23T05:09:43Z</time>
      </trkpt>
      <trkpt lat="43.10238" lon="-0.72878">
        <ele>319.2</ele>
        <time>2025-07-23T05:09:49Z</time>
      </trkpt>
      <trkpt lat="43.10241" lon="-0.7289">
        <ele>319</ele>
        <time>2025-07-23T05:09:50Z</time>
      </trkpt>
      <trkpt lat="43.10262" lon="-0.72956">
        <ele>318</ele>
        <time>2025-07-23T05:09:57Z</time>
      </trkpt>
      <trkpt lat="43.10266" lon="-0.72965">
        <ele>318</ele>
        <time>2025-07-23T05:09:58Z</time>
      </trkpt>
      <trkpt lat="43.1027" lon="-0.72973">
        <ele>317.8</ele>
        <time>2025-07-23T05:09:59Z</time>
      </trkpt>
      <trkpt lat="43.10292" lon="-0.73012">
        <ele>317.4</ele>
        <time>2025-07-23T05:10:04Z</time>
      </trkpt>
      <trkpt lat="43.10316" lon="-0.73056">
        <ele>317.6</ele>
        <time>2025-07-23T05:10:10Z</time>
      </trkpt>
      <trkpt lat="43.10345" lon="-0.73103">
        <ele>317.8</ele>
        <time>2025-07-23T05:10:17Z</time>
      </trkpt>
      <trkpt lat="43.10383" lon="-0.73146">
        <ele>317.6</ele>
        <time>2025-07-23T05:10:24Z</time>
      </trkpt>
      <trkpt lat="43.10405" lon="-0.73168">
        <ele>317.2</ele>
        <time>2025-07-23T05:10:28Z</time>
      </trkpt>
      <trkpt lat="43.10428" lon="-0.73197">
        <ele>317.2</ele>
        <time>2025-07-23T05:10:33Z</time>
      </trkpt>
      <trkpt lat="43.10451" lon="-0.73225">
        <ele>317.8</ele>
        <time>2025-07-23T05:10:39Z</time>
      </trkpt>
      <trkpt lat="43.10467" lon="-0.73241">
        <ele>318.4</ele>
        <time>2025-07-23T05:10:43Z</time>
      </trkpt>
      <trkpt lat="43.10483" lon="-0.73258">
        <ele>318.8</ele>
        <time>2025-07-23T05:10:47Z</time>
      </trkpt>
      <trkpt lat="43.10524" lon="-0.73306">
        <ele>318.8</ele>
        <time>2025-07-23T05:10:56Z</time>
      </trkpt>
      <trkpt lat="43.10562" lon="-0.73357">
        <ele>318.2</ele>
        <time>2025-07-23T05:11:04Z</time>
      </trkpt>
      <trkpt lat="43.10602" lon="-0.73405">
        <ele>317.4</ele>
        <time>2025-07-23T05:11:12Z</time>
      </trkpt>
      <trkpt lat="43.10608" lon="-0.73411">
        <ele>317.4</ele>
        <time>2025-07-23T05:11:13Z</time>
      </trkpt>
      <trkpt lat="43.10648" lon="-0.73448">
        <ele>317.2</ele>
        <time>2025-07-23T05:11:20Z</time>
      </trkpt>
      <trkpt lat="43.1069" lon="-0.73477">
        <ele>316.6</ele>
        <time>2025-07-23T05:11:27Z</time>
      </trkpt>
      <trkpt lat="43.10741" lon="-0.73505">
        <ele>316.4</ele>
        <time>2025-07-23T05:11:35Z</time>
      </trkpt>
      <trkpt lat="43.10764" lon="-0.73515">
        <ele>315.6</ele>
        <time>2025-07-23T05:11:38Z</time>
      </trkpt>
      <trkpt lat="43.10772" lon="-0.73518">
        <ele>315.4</ele>
        <time>2025-07-23T05:11:39Z</time>
      </trkpt>
      <trkpt lat="43.10805" lon="-0.73531">
        <ele>314.2</ele>
        <time>2025-07-23T05:11:43Z</time>
      </trkpt>
      <trkpt lat="43.10823" lon="-0.73537">
        <ele>313.2</ele>
        <time>2025-07-23T05:11:45Z</time>
      </trkpt>
      <trkpt lat="43.10831" lon="-0.7354">
        <ele>312.8</ele>
        <time>2025-07-23T05:11:46Z</time>
      </trkpt>
      <trkpt lat="43.10858" lon="-0.73548">
        <ele>312</ele>
        <time>2025-07-23T05:11:49Z</time>
      </trkpt>
      <trkpt lat="43.10884" lon="-0.73554">
        <ele>311.2</ele>
        <time>2025-07-23T05:11:52Z</time>
      </trkpt>
      <trkpt lat="43.10909" lon="-0.73557">
        <ele>310.8</ele>
        <time>2025-07-23T05:11:55Z</time>
      </trkpt>
      <trkpt lat="43.10941" lon="-0.73559">
        <ele>310.4</ele>
        <time>2025-07-23T05:11:59Z</time>
      </trkpt>
      <trkpt lat="43.10968" lon="-0.73561">
        <ele>310.4</ele>
        <time>2025-07-23T05:12:03Z</time>
      </trkpt>
      <trkpt lat="43.11" lon="-0.73561">
        <ele>311.6</ele>
        <time>2025-07-23T05:12:09Z</time>
      </trkpt>
      <trkpt lat="43.11008" lon="-0.73561">
        <ele>312.2</ele>
        <time>2025-07-23T05:12:11Z</time>
      </trkpt>
      <trkpt lat="43.11016" lon="-0.73561">
        <ele>312.6</ele>
        <time>2025-07-23T05:12:13Z</time>
      </trkpt>
      <trkpt lat="43.11023" lon="-0.73561">
        <ele>313.2</ele>
        <time>2025-07-23T05:12:15Z</time>
      </trkpt>
      <trkpt lat="43.11038" lon="-0.73561">
        <ele>314</ele>
        <time>2025-07-23T05:12:19Z</time>
      </trkpt>
      <trkpt lat="43.11045" lon="-0.73562">
        <ele>314.6</ele>
        <time>2025-07-23T05:12:21Z</time>
      </trkpt>
      <trkpt lat="43.11064" lon="-0.73563">
        <ele>316</ele>
        <time>2025-07-23T05:12:26Z</time>
      </trkpt>
      <trkpt lat="43.11067" lon="-0.73563">
        <ele>316</ele>
        <time>2025-07-23T05:12:27Z</time>
      </trkpt>
      <trkpt lat="43.11087" lon="-0.73564">
        <ele>317</ele>
        <time>2025-07-23T05:12:33Z</time>
      </trkpt>
      <trkpt lat="43.11109" lon="-0.73566">
        <ele>318.4</ele>
        <time>2025-07-23T05:12:40Z</time>
      </trkpt>
      <trkpt lat="43.11111" lon="-0.73566">
        <ele>318.8</ele>
        <time>2025-07-23T05:12:41Z</time>
      </trkpt>
      <trkpt lat="43.11126" lon="-0.73569">
        <ele>319.4</ele>
        <time>2025-07-23T05:12:46Z</time>
      </trkpt>
      <trkpt lat="43.11136" lon="-0.7357">
        <ele>319.8</ele>
        <time>2025-07-23T05:12:49Z</time>
      </trkpt>
      <trkpt lat="43.11144" lon="-0.73571">
        <ele>320.4</ele>
        <time>2025-07-23T05:12:52Z</time>
      </trkpt>
      <trkpt lat="43.11159" lon="-0.73573">
        <ele>321.4</ele>
        <time>2025-07-23T05:12:57Z</time>
      </trkpt>
      <trkpt lat="43.11164" lon="-0.73573">
        <ele>321.6</ele>
        <time>2025-07-23T05:12:59Z</time>
      </trkpt>
      <trkpt lat="43.11182" lon="-0.73578">
        <ele>322.6</ele>
        <time>2025-07-23T05:13:05Z</time>
      </trkpt>
      <trkpt lat="43.11188" lon="-0.73579">
        <ele>322.8</ele>
        <time>2025-07-23T05:13:07Z</time>
      </trkpt>
      <trkpt lat="43.11209" lon="-0.73584">
        <ele>323.6</ele>
        <time>2025-07-23T05:13:13Z</time>
      </trkpt>
      <trkpt lat="43.11212" lon="-0.73586">
        <ele>323.6</ele>
        <time>2025-07-23T05:13:14Z</time>
      </trkpt>
      <trkpt lat="43.11239" lon="-0.73608">
        <ele>324.4</ele>
        <time>2025-07-23T05:13:22Z</time>
      </trkpt>
      <trkpt lat="43.11248" lon="-0.73619">
        <ele>324.6</ele>
        <time>2025-07-23T05:13:25Z</time>
      </trkpt>
      <trkpt lat="43.11259" lon="-0.73632">
        <ele>325</ele>
        <time>2025-07-23T05:13:29Z</time>
      </trkpt>
      <trkpt lat="43.11274" lon="-0.73654">
        <ele>325</ele>
        <time>2025-07-23T05:13:35Z</time>
      </trkpt>
      <trkpt lat="43.11301" lon="-0.73695">
        <ele>325.4</ele>
        <time>2025-07-23T05:13:44Z</time>
      </trkpt>
      <trkpt lat="43.11311" lon="-0.7371">
        <ele>325.6</ele>
        <time>2025-07-23T05:13:47Z</time>
      </trkpt>
      <trkpt lat="43.11324" lon="-0.73729">
        <ele>325.6</ele>
        <time>2025-07-23T05:13:51Z</time>
      </trkpt>
      <trkpt lat="43.11345" lon="-0.73756">
        <ele>325.4</ele>
        <time>2025-07-23T05:13:58Z</time>
      </trkpt>
      <trkpt lat="43.11352" lon="-0.73773">
        <ele>324.8</ele>
        <time>2025-07-23T05:14:03Z</time>
      </trkpt>
      <trkpt lat="43.11351" lon="-0.73779">
        <ele>324.8</ele>
        <time>2025-07-23T05:14:04Z</time>
      </trkpt>
      <trkpt lat="43.11344" lon="-0.73798">
        <ele>324.6</ele>
        <time>2025-07-23T05:14:07Z</time>
      </trkpt>
      <trkpt lat="43.11338" lon="-0.73826">
        <ele>324.2</ele>
        <time>2025-07-23T05:14:11Z</time>
      </trkpt>
      <trkpt lat="43.11337" lon="-0.73834">
        <ele>324</ele>
        <time>2025-07-23T05:14:12Z</time>
      </trkpt>
      <trkpt lat="43.11337" lon="-0.73849">
        <ele>323.6</ele>
        <time>2025-07-23T05:14:14Z</time>
      </trkpt>
      <trkpt lat="43.1134" lon="-0.73886">
        <ele>323.4</ele>
        <time>2025-07-23T05:14:19Z</time>
      </trkpt>
      <trkpt lat="43.11345" lon="-0.73954">
        <ele>324</ele>
        <time>2025-07-23T05:14:29Z</time>
      </trkpt>
      <trkpt lat="43.11351" lon="-0.74028">
        <ele>324.4</ele>
        <time>2025-07-23T05:14:39Z</time>
      </trkpt>
      <trkpt lat="43.11362" lon="-0.74085">
        <ele>324.2</ele>
        <time>2025-07-23T05:14:46Z</time>
      </trkpt>
      <trkpt lat="43.11372" lon="-0.74144">
        <ele>323.6</ele>
        <time>2025-07-23T05:14:53Z</time>
      </trkpt>
      <trkpt lat="43.11369" lon="-0.74191">
        <ele>323.2</ele>
        <time>2025-07-23T05:14:58Z</time>
      </trkpt>
      <trkpt lat="43.11351" lon="-0.74259">
        <ele>323</ele>
        <time>2025-07-23T05:15:05Z</time>
      </trkpt>
      <trkpt lat="43.11329" lon="-0.74331">
        <ele>323.4</ele>
        <time>2025-07-23T05:15:15Z</time>
      </trkpt>
      <trkpt lat="43.11327" lon="-0.74338">
        <ele>323.6</ele>
        <time>2025-07-23T05:15:16Z</time>
      </trkpt>
      <trkpt lat="43.11301" lon="-0.74411">
        <ele>324.2</ele>
        <time>2025-07-23T05:15:26Z</time>
      </trkpt>
      <trkpt lat="43.11295" lon="-0.74429">
        <ele>324</ele>
        <time>2025-07-23T05:15:28Z</time>
      </trkpt>
      <trkpt lat="43.11286" lon="-0.74459">
        <ele>323.4</ele>
        <time>2025-07-23T05:15:31Z</time>
      </trkpt>
      <trkpt lat="43.11278" lon="-0.74494">
        <ele>322.6</ele>
        <time>2025-07-23T05:15:34Z</time>
      </trkpt>
      <trkpt lat="43.1127" lon="-0.74533">
        <ele>321.6</ele>
        <time>2025-07-23T05:15:37Z</time>
      </trkpt>
      <trkpt lat="43.11267" lon="-0.74546">
        <ele>321</ele>
        <time>2025-07-23T05:15:38Z</time>
      </trkpt>
      <trkpt lat="43.11264" lon="-0.7456">
        <ele>320</ele>
        <time>2025-07-23T05:15:40Z</time>
      </trkpt>
      <trkpt lat="43.11257" lon="-0.74586">
        <ele>318.8</ele>
        <time>2025-07-23T05:15:42Z</time>
      </trkpt>
      <trkpt lat="43.11249" lon="-0.74613">
        <ele>318.2</ele>
        <time>2025-07-23T05:15:43Z</time>
      </trkpt>
      <trkpt lat="43.11244" lon="-0.74628">
        <ele>317.6</ele>
        <time>2025-07-23T05:15:44Z</time>
      </trkpt>
      <trkpt lat="43.11237" lon="-0.74659">
        <ele>316.2</ele>
        <time>2025-07-23T05:15:46Z</time>
      </trkpt>
      <trkpt lat="43.11234" lon="-0.74679">
        <ele>315.6</ele>
        <time>2025-07-23T05:15:47Z</time>
      </trkpt>
      <trkpt lat="43.11234" lon="-0.74679">
        <ele>314.8</ele>
        <time>2025-07-23T05:15:48Z</time>
      </trkpt>
      <trkpt lat="43.11232" lon="-0.7471">
        <ele>314.2</ele>
        <time>2025-07-23T05:15:49Z</time>
      </trkpt>
      <trkpt lat="43.11232" lon="-0.74728">
        <ele>313</ele>
        <time>2025-07-23T05:15:50Z</time>
      </trkpt>
      <trkpt lat="43.11232" lon="-0.74745">
        <ele>312.4</ele>
        <time>2025-07-23T05:15:51Z</time>
      </trkpt>
      <trkpt lat="43.11233" lon="-0.74762">
        <ele>311.4</ele>
        <time>2025-07-23T05:15:52Z</time>
      </trkpt>
      <trkpt lat="43.11235" lon="-0.74779">
        <ele>310</ele>
        <time>2025-07-23T05:15:53Z</time>
      </trkpt>
      <trkpt lat="43.11241" lon="-0.74812">
        <ele>308.6</ele>
        <time>2025-07-23T05:15:55Z</time>
      </trkpt>
      <trkpt lat="43.11249" lon="-0.74843">
        <ele>307.2</ele>
        <time>2025-07-23T05:15:57Z</time>
      </trkpt>
      <trkpt lat="43.11252" lon="-0.74858">
        <ele>306</ele>
        <time>2025-07-23T05:15:58Z</time>
      </trkpt>
      <trkpt lat="43.1126" lon="-0.74886">
        <ele>304.8</ele>
        <time>2025-07-23T05:16:00Z</time>
      </trkpt>
      <trkpt lat="43.1126" lon="-0.74886">
        <ele>304.4</ele>
        <time>2025-07-23T05:16:01Z</time>
      </trkpt>
      <trkpt lat="43.11268" lon="-0.74926">
        <ele>303.8</ele>
        <time>2025-07-23T05:16:03Z</time>
      </trkpt>
      <trkpt lat="43.11273" lon="-0.74962">
        <ele>303.6</ele>
        <time>2025-07-23T05:16:06Z</time>
      </trkpt>
      <trkpt lat="43.11278" lon="-0.75018">
        <ele>303.6</ele>
        <time>2025-07-23T05:16:12Z</time>
      </trkpt>
      <trkpt lat="43.11279" lon="-0.75099">
        <ele>303.8</ele>
        <time>2025-07-23T05:16:19Z</time>
      </trkpt>
      <trkpt lat="43.11278" lon="-0.75133">
        <ele>304</ele>
        <time>2025-07-23T05:16:24Z</time>
      </trkpt>
      <trkpt lat="43.11277" lon="-0.75176">
        <ele>304.8</ele>
        <time>2025-07-23T05:16:29Z</time>
      </trkpt>
      <trkpt lat="43.11277" lon="-0.75182">
        <ele>305</ele>
        <time>2025-07-23T05:16:30Z</time>
      </trkpt>
      <trkpt lat="43.11277" lon="-0.75203">
        <ele>306</ele>
        <time>2025-07-23T05:16:34Z</time>
      </trkpt>
      <trkpt lat="43.11277" lon="-0.75221">
        <ele>306.8</ele>
        <time>2025-07-23T05:16:38Z</time>
      </trkpt>
      <trkpt lat="43.11276" lon="-0.75225">
        <ele>307.2</ele>
        <time>2025-07-23T05:16:39Z</time>
      </trkpt>
      <trkpt lat="43.11276" lon="-0.7524">
        <ele>308.2</ele>
        <time>2025-07-23T05:16:44Z</time>
      </trkpt>
      <trkpt lat="43.11276" lon="-0.75247">
        <ele>308.8</ele>
        <time>2025-07-23T05:16:46Z</time>
      </trkpt>
      <trkpt lat="43.11276" lon="-0.75261">
        <ele>309.6</ele>
        <time>2025-07-23T05:16:50Z</time>
      </trkpt>
      <trkpt lat="43.11276" lon="-0.75276">
        <ele>310.8</ele>
        <time>2025-07-23T05:16:55Z</time>
      </trkpt>
      <trkpt lat="43.11275" lon="-0.75297">
        <ele>312</ele>
        <time>2025-07-23T05:17:01Z</time>
      </trkpt>
      <trkpt lat="43.11275" lon="-0.7531">
        <ele>313.2</ele>
        <time>2025-07-23T05:17:05Z</time>
      </trkpt>
      <trkpt lat="43.11276" lon="-0.75326">
        <ele>314.2</ele>
        <time>2025-07-23T05:17:11Z</time>
      </trkpt>
      <trkpt lat="43.11276" lon="-0.75339">
        <ele>315</ele>
        <time>2025-07-23T05:17:14Z</time>
      </trkpt>
      <trkpt lat="43.11276" lon="-0.75345">
        <ele>315.4</ele>
        <time>2025-07-23T05:17:16Z</time>
      </trkpt>
      <trkpt lat="43.11276" lon="-0.75364">
        <ele>316.6</ele>
        <time>2025-07-23T05:17:22Z</time>
      </trkpt>
      <trkpt lat="43.11277" lon="-0.75378">
        <ele>317.6</ele>
        <time>2025-07-23T05:17:27Z</time>
      </trkpt>
      <trkpt lat="43.11277" lon="-0.75378">
        <ele>317.8</ele>
        <time>2025-07-23T05:17:28Z</time>
      </trkpt>
      <trkpt lat="43.11277" lon="-0.75393">
        <ele>318.6</ele>
        <time>2025-07-23T05:17:33Z</time>
      </trkpt>
      <trkpt lat="43.11277" lon="-0.75408">
        <ele>320</ele>
        <time>2025-07-23T05:17:38Z</time>
      </trkpt>
      <trkpt lat="43.11277" lon="-0.75423">
        <ele>320.8</ele>
        <time>2025-07-23T05:17:43Z</time>
      </trkpt>
      <trkpt lat="43.11278" lon="-0.75432">
        <ele>321</ele>
        <time>2025-07-23T05:17:45Z</time>
      </trkpt>
      <trkpt lat="43.11278" lon="-0.7545">
        <ele>322.2</ele>
        <time>2025-07-23T05:17:51Z</time>
      </trkpt>
      <trkpt lat="43.11278" lon="-0.75465">
        <ele>323</ele>
        <time>2025-07-23T05:17:56Z</time>
      </trkpt>
      <trkpt lat="43.11278" lon="-0.7547">
        <ele>323.4</ele>
        <time>2025-07-23T05:17:58Z</time>
      </trkpt>
      <trkpt lat="43.11278" lon="-0.7549">
        <ele>324.6</ele>
        <time>2025-07-23T05:18:05Z</time>
      </trkpt>
      <trkpt lat="43.11277" lon="-0.75515">
        <ele>325.8</ele>
        <time>2025-07-23T05:18:12Z</time>
      </trkpt>
      <trkpt lat="43.11277" lon="-0.75526">
        <ele>326.4</ele>
        <time>2025-07-23T05:18:15Z</time>
      </trkpt>
      <trkpt lat="43.11276" lon="-0.7554">
        <ele>327</ele>
        <time>2025-07-23T05:18:19Z</time>
      </trkpt>
      <trkpt lat="43.11276" lon="-0.75558">
        <ele>328</ele>
        <time>2025-07-23T05:18:24Z</time>
      </trkpt>
      <trkpt lat="43.11275" lon="-0.75565">
        <ele>328.2</ele>
        <time>2025-07-23T05:18:26Z</time>
      </trkpt>
      <trkpt lat="43.11273" lon="-0.75585">
        <ele>329.2</ele>
        <time>2025-07-23T05:18:33Z</time>
      </trkpt>
      <trkpt lat="43.11272" lon="-0.75594">
        <ele>329.4</ele>
        <time>2025-07-23T05:18:34Z</time>
      </trkpt>
      <trkpt lat="43.11266" lon="-0.75625">
        <ele>330.4</ele>
        <time>2025-07-23T05:18:42Z</time>
      </trkpt>
      <trkpt lat="43.11265" lon="-0.75629">
        <ele>330.6</ele>
        <time>2025-07-23T05:18:43Z</time>
      </trkpt>
      <trkpt lat="43.1126" lon="-0.75653">
        <ele>331</ele>
        <time>2025-07-23T05:18:50Z</time>
      </trkpt>
      <trkpt lat="43.1125" lon="-0.75696">
        <ele>331.4</ele>
        <time>2025-07-23T05:18:58Z</time>
      </trkpt>
      <trkpt lat="43.11249" lon="-0.75706">
        <ele>331.6</ele>
        <time>2025-07-23T05:19:00Z</time>
      </trkpt>
      <trkpt lat="43.11241" lon="-0.75743">
        <ele>332.2</ele>
        <time>2025-07-23T05:19:08Z</time>
      </trkpt>
      <trkpt lat="43.11237" lon="-0.75766">
        <ele>332.6</ele>
        <time>2025-07-23T05:19:13Z</time>
      </trkpt>
      <trkpt lat="43.11237" lon="-0.75781">
        <ele>333</ele>
        <time>2025-07-23T05:19:16Z</time>
      </trkpt>
      <trkpt lat="43.11241" lon="-0.75809">
        <ele>333.8</ele>
        <time>2025-07-23T05:19:22Z</time>
      </trkpt>
      <trkpt lat="43.11254" lon="-0.75848">
        <ele>334.6</ele>
        <time>2025-07-23T05:19:31Z</time>
      </trkpt>
      <trkpt lat="43.11256" lon="-0.75852">
        <ele>334.8</ele>
        <time>2025-07-23T05:19:32Z</time>
      </trkpt>
      <trkpt lat="43.11274" lon="-0.75872">
        <ele>335.4</ele>
        <time>2025-07-23T05:19:38Z</time>
      </trkpt>
      <trkpt lat="43.11289" lon="-0.75883">
        <ele>335.4</ele>
        <time>2025-07-23T05:19:43Z</time>
      </trkpt>
      <trkpt lat="43.11291" lon="-0.75884">
        <ele>335.4</ele>
        <time>2025-07-23T05:19:44Z</time>
      </trkpt>
      <trkpt lat="43.11292" lon="-0.75887">
        <ele>335.4</ele>
        <time>2025-07-23T05:19:46Z</time>
      </trkpt>
      <trkpt lat="43.11292" lon="-0.75888">
        <ele>335.4</ele>
        <time>2025-07-23T05:19:47Z</time>
      </trkpt>
      <trkpt lat="43.11292" lon="-0.75888">
        <ele>335.2</ele>
        <time>2025-07-23T05:19:50Z</time>
      </trkpt>
      <trkpt lat="43.11294" lon="-0.75891">
        <ele>335.2</ele>
        <time>2025-07-23T05:21:01Z</time>
      </trkpt>
      <trkpt lat="43.11296" lon="-0.75893">
        <ele>335.2</ele>
        <time>2025-07-23T05:21:02Z</time>
      </trkpt>
      <trkpt lat="43.11308" lon="-0.75906">
        <ele>335.2</ele>
        <time>2025-07-23T05:21:07Z</time>
      </trkpt>
      <trkpt lat="43.11317" lon="-0.75914">
        <ele>335.2</ele>
        <time>2025-07-23T05:21:09Z</time>
      </trkpt>
      <trkpt lat="43.11327" lon="-0.75927">
        <ele>335.2</ele>
        <time>2025-07-23T05:21:12Z</time>
      </trkpt>
      <trkpt lat="43.11333" lon="-0.75938">
        <ele>335</ele>
        <time>2025-07-23T05:21:14Z</time>
      </trkpt>
      <trkpt lat="43.11336" lon="-0.75949">
        <ele>334.6</ele>
        <time>2025-07-23T05:21:16Z</time>
      </trkpt>
      <trkpt lat="43.11337" lon="-0.75955">
        <ele>334.4</ele>
        <time>2025-07-23T05:21:17Z</time>
      </trkpt>
      <trkpt lat="43.11339" lon="-0.75969">
        <ele>334.2</ele>
        <time>2025-07-23T05:21:20Z</time>
      </trkpt>
      <trkpt lat="43.11339" lon="-0.75972">
        <ele>334.2</ele>
        <time>2025-07-23T05:21:21Z</time>
      </trkpt>
      <trkpt lat="43.11338" lon="-0.75982">
        <ele>334</ele>
        <time>2025-07-23T05:21:24Z</time>
      </trkpt>
      <trkpt lat="43.11334" lon="-0.75984">
        <ele>333.8</ele>
        <time>2025-07-23T05:21:26Z</time>
      </trkpt>
      <trkpt lat="43.11331" lon="-0.75976">
        <ele>333.6</ele>
        <time>2025-07-23T05:21:30Z</time>
      </trkpt>
      <trkpt lat="43.1133" lon="-0.75975">
        <ele>333.6</ele>
        <time>2025-07-23T05:21:33Z</time>
      </trkpt>
      <trkpt lat="43.11328" lon="-0.75978">
        <ele>334.6</ele>
        <time>2025-07-23T05:43:08Z</time>
      </trkpt>
      <trkpt lat="43.11335" lon="-0.75991">
        <ele>334.6</ele>
        <time>2025-07-23T05:43:13Z</time>
      </trkpt>
      <trkpt lat="43.11336" lon="-0.76">
        <ele>334.4</ele>
        <time>2025-07-23T05:43:15Z</time>
      </trkpt>
      <trkpt lat="43.11334" lon="-0.76007">
        <ele>334.4</ele>
        <time>2025-07-23T05:43:17Z</time>
      </trkpt>
      <trkpt lat="43.1133" lon="-0.76028">
        <ele>334.4</ele>
        <time>2025-07-23T05:43:24Z</time>
      </trkpt>
      <trkpt lat="43.11326" lon="-0.76059">
        <ele>335.4</ele>
        <time>2025-07-23T05:43:33Z</time>
      </trkpt>
      <trkpt lat="43.11326" lon="-0.76073">
        <ele>335.8</ele>
        <time>2025-07-23T05:43:37Z</time>
      </trkpt>
      <trkpt lat="43.11327" lon="-0.7608">
        <ele>336</ele>
        <time>2025-07-23T05:43:39Z</time>
      </trkpt>
      <trkpt lat="43.11327" lon="-0.76107">
        <ele>336.6</ele>
        <time>2025-07-23T05:43:46Z</time>
      </trkpt>
      <trkpt lat="43.11327" lon="-0.76124">
        <ele>336.8</ele>
        <time>2025-07-23T05:43:50Z</time>
      </trkpt>
      <trkpt lat="43.11326" lon="-0.76135">
        <ele>337</ele>
        <time>2025-07-23T05:43:52Z</time>
      </trkpt>
      <trkpt lat="43.11326" lon="-0.7618">
        <ele>337.4</ele>
        <time>2025-07-23T05:44:01Z</time>
      </trkpt>
      <trkpt lat="43.11328" lon="-0.76223">
        <ele>337.4</ele>
        <time>2025-07-23T05:44:09Z</time>
      </trkpt>
      <trkpt lat="43.11328" lon="-0.76273">
        <ele>337</ele>
        <time>2025-07-23T05:44:16Z</time>
      </trkpt>
      <trkpt lat="43.11323" lon="-0.76311">
        <ele>337.2</ele>
        <time>2025-07-23T05:44:22Z</time>
      </trkpt>
      <trkpt lat="43.11321" lon="-0.76324">
        <ele>337.2</ele>
        <time>2025-07-23T05:44:24Z</time>
      </trkpt>
      <trkpt lat="43.1132" lon="-0.76329">
        <ele>337.2</ele>
        <time>2025-07-23T05:44:25Z</time>
      </trkpt>
      <trkpt lat="43.11315" lon="-0.76382">
        <ele>337.2</ele>
        <time>2025-07-23T05:44:33Z</time>
      </trkpt>
      <trkpt lat="43.11315" lon="-0.76395">
        <ele>337.2</ele>
        <time>2025-07-23T05:44:35Z</time>
      </trkpt>
      <trkpt lat="43.11315" lon="-0.76402">
        <ele>337.2</ele>
        <time>2025-07-23T05:44:36Z</time>
      </trkpt>
      <trkpt lat="43.11311" lon="-0.76416">
        <ele>337.2</ele>
        <time>2025-07-23T05:44:38Z</time>
      </trkpt>
      <trkpt lat="43.11293" lon="-0.76467">
        <ele>336.8</ele>
        <time>2025-07-23T05:44:46Z</time>
      </trkpt>
      <trkpt lat="43.11278" lon="-0.7652">
        <ele>336.8</ele>
        <time>2025-07-23T05:44:54Z</time>
      </trkpt>
      <trkpt lat="43.11262" lon="-0.76578">
        <ele>337</ele>
        <time>2025-07-23T05:45:03Z</time>
      </trkpt>
      <trkpt lat="43.11249" lon="-0.76631">
        <ele>337.4</ele>
        <time>2025-07-23T05:45:11Z</time>
      </trkpt>
      <trkpt lat="43.11231" lon="-0.7669">
        <ele>337.2</ele>
        <time>2025-07-23T05:45:20Z</time>
      </trkpt>
      <trkpt lat="43.11215" lon="-0.76752">
        <ele>337.2</ele>
        <time>2025-07-23T05:45:28Z</time>
      </trkpt>
      <trkpt lat="43.11201" lon="-0.7682">
        <ele>336.4</ele>
        <time>2025-07-23T05:45:36Z</time>
      </trkpt>
      <trkpt lat="43.11187" lon="-0.76895">
        <ele>336</ele>
        <time>2025-07-23T05:45:45Z</time>
      </trkpt>
      <trkpt lat="43.11184" lon="-0.76904">
        <ele>336</ele>
        <time>2025-07-23T05:45:46Z</time>
      </trkpt>
      <trkpt lat="43.11176" lon="-0.76928">
        <ele>335.8</ele>
        <time>2025-07-23T05:45:49Z</time>
      </trkpt>
      <trkpt lat="43.11163" lon="-0.76963">
        <ele>335.8</ele>
        <time>2025-07-23T05:45:53Z</time>
      </trkpt>
      <trkpt lat="43.11139" lon="-0.77005">
        <ele>335.2</ele>
        <time>2025-07-23T05:45:58Z</time>
      </trkpt>
      <trkpt lat="43.11126" lon="-0.77018">
        <ele>334.8</ele>
        <time>2025-07-23T05:46:00Z</time>
      </trkpt>
      <trkpt lat="43.11111" lon="-0.77028">
        <ele>334.4</ele>
        <time>2025-07-23T05:46:02Z</time>
      </trkpt>
      <trkpt lat="43.11086" lon="-0.77038">
        <ele>333.4</ele>
        <time>2025-07-23T05:46:05Z</time>
      </trkpt>
      <trkpt lat="43.11061" lon="-0.77047">
        <ele>332.6</ele>
        <time>2025-07-23T05:46:08Z</time>
      </trkpt>
      <trkpt lat="43.11053" lon="-0.77051">
        <ele>332.4</ele>
        <time>2025-07-23T05:46:09Z</time>
      </trkpt>
      <trkpt lat="43.11039" lon="-0.77063">
        <ele>332</ele>
        <time>2025-07-23T05:46:11Z</time>
      </trkpt>
      <trkpt lat="43.11029" lon="-0.77081">
        <ele>331.4</ele>
        <time>2025-07-23T05:46:13Z</time>
      </trkpt>
      <trkpt lat="43.11027" lon="-0.77091">
        <ele>331</ele>
        <time>2025-07-23T05:46:14Z</time>
      </trkpt>
      <trkpt lat="43.11026" lon="-0.77101">
        <ele>330.6</ele>
        <time>2025-07-23T05:46:15Z</time>
      </trkpt>
      <trkpt lat="43.11026" lon="-0.77122">
        <ele>330.4</ele>
        <time>2025-07-23T05:46:17Z</time>
      </trkpt>
      <trkpt lat="43.11027" lon="-0.77142">
        <ele>330.2</ele>
        <time>2025-07-23T05:46:19Z</time>
      </trkpt>
      <trkpt lat="43.11029" lon="-0.77189">
        <ele>330.2</ele>
        <time>2025-07-23T05:46:24Z</time>
      </trkpt>
      <trkpt lat="43.11032" lon="-0.77266">
        <ele>330.4</ele>
        <time>2025-07-23T05:46:33Z</time>
      </trkpt>
      <trkpt lat="43.11034" lon="-0.77332">
        <ele>331</ele>
        <time>2025-07-23T05:46:41Z</time>
      </trkpt>
      <trkpt lat="43.11037" lon="-0.77395">
        <ele>331.4</ele>
        <time>2025-07-23T05:46:49Z</time>
      </trkpt>
      <trkpt lat="43.11038" lon="-0.77426">
        <ele>331.6</ele>
        <time>2025-07-23T05:46:53Z</time>
      </trkpt>
      <trkpt lat="43.1104" lon="-0.77502">
        <ele>332.2</ele>
        <time>2025-07-23T05:47:03Z</time>
      </trkpt>
      <trkpt lat="43.11041" lon="-0.77509">
        <ele>332.4</ele>
        <time>2025-07-23T05:47:04Z</time>
      </trkpt>
      <trkpt lat="43.11043" lon="-0.77585">
        <ele>332.6</ele>
        <time>2025-07-23T05:47:14Z</time>
      </trkpt>
      <trkpt lat="43.11044" lon="-0.776">
        <ele>332.8</ele>
        <time>2025-07-23T05:47:16Z</time>
      </trkpt>
      <trkpt lat="43.11046" lon="-0.77679">
        <ele>333.2</ele>
        <time>2025-07-23T05:47:26Z</time>
      </trkpt>
      <trkpt lat="43.11046" lon="-0.77695">
        <ele>333.2</ele>
        <time>2025-07-23T05:47:28Z</time>
      </trkpt>
      <trkpt lat="43.11048" lon="-0.77774">
        <ele>333.4</ele>
        <time>2025-07-23T05:47:38Z</time>
      </trkpt>
      <trkpt lat="43.11052" lon="-0.77825">
        <ele>333.6</ele>
        <time>2025-07-23T05:47:45Z</time>
      </trkpt>
      <trkpt lat="43.11053" lon="-0.77831">
        <ele>333.8</ele>
        <time>2025-07-23T05:47:46Z</time>
      </trkpt>
      <trkpt lat="43.11059" lon="-0.77851">
        <ele>334.2</ele>
        <time>2025-07-23T05:47:49Z</time>
      </trkpt>
      <trkpt lat="43.11064" lon="-0.77862">
        <ele>334.4</ele>
        <time>2025-07-23T05:47:51Z</time>
      </trkpt>
      <trkpt lat="43.11066" lon="-0.77869">
        <ele>334.4</ele>
        <time>2025-07-23T05:47:52Z</time>
      </trkpt>
      <trkpt lat="43.11082" lon="-0.77914">
        <ele>335</ele>
        <time>2025-07-23T05:48:00Z</time>
      </trkpt>
      <trkpt lat="43.11084" lon="-0.7792">
        <ele>335.2</ele>
        <time>2025-07-23T05:48:01Z</time>
      </trkpt>
      <trkpt lat="43.11086" lon="-0.77926">
        <ele>335.4</ele>
        <time>2025-07-23T05:48:02Z</time>
      </trkpt>
      <trkpt lat="43.1109" lon="-0.77937">
        <ele>335.8</ele>
        <time>2025-07-23T05:48:04Z</time>
      </trkpt>
      <trkpt lat="43.111" lon="-0.77972">
        <ele>336.6</ele>
        <time>2025-07-23T05:48:10Z</time>
      </trkpt>
      <trkpt lat="43.11102" lon="-0.77977">
        <ele>336.6</ele>
        <time>2025-07-23T05:48:11Z</time>
      </trkpt>
      <trkpt lat="43.11104" lon="-0.77983">
        <ele>337</ele>
        <time>2025-07-23T05:48:12Z</time>
      </trkpt>
      <trkpt lat="43.11113" lon="-0.7801">
        <ele>337.6</ele>
        <time>2025-07-23T05:48:17Z</time>
      </trkpt>
      <trkpt lat="43.11117" lon="-0.78021">
        <ele>338</ele>
        <time>2025-07-23T05:48:19Z</time>
      </trkpt>
      <trkpt lat="43.11121" lon="-0.78032">
        <ele>338.2</ele>
        <time>2025-07-23T05:48:21Z</time>
      </trkpt>
      <trkpt lat="43.11126" lon="-0.78048">
        <ele>338.8</ele>
        <time>2025-07-23T05:48:24Z</time>
      </trkpt>
      <trkpt lat="43.1113" lon="-0.78059">
        <ele>339.2</ele>
        <time>2025-07-23T05:48:26Z</time>
      </trkpt>
      <trkpt lat="43.1114" lon="-0.78095">
        <ele>339.8</ele>
        <time>2025-07-23T05:48:32Z</time>
      </trkpt>
      <trkpt lat="43.11141" lon="-0.78102">
        <ele>340</ele>
        <time>2025-07-23T05:48:33Z</time>
      </trkpt>
      <trkpt lat="43.11152" lon="-0.78145">
        <ele>340.8</ele>
        <time>2025-07-23T05:48:40Z</time>
      </trkpt>
      <trkpt lat="43.11153" lon="-0.78152">
        <ele>341</ele>
        <time>2025-07-23T05:48:41Z</time>
      </trkpt>
      <trkpt lat="43.11161" lon="-0.78201">
        <ele>341.4</ele>
        <time>2025-07-23T05:48:48Z</time>
      </trkpt>
      <trkpt lat="43.11161" lon="-0.78209">
        <ele>341.4</ele>
        <time>2025-07-23T05:48:49Z</time>
      </trkpt>
      <trkpt lat="43.11161" lon="-0.78226">
        <ele>341.4</ele>
        <time>2025-07-23T05:48:51Z</time>
      </trkpt>
      <trkpt lat="43.11161" lon="-0.78234">
        <ele>341.4</ele>
        <time>2025-07-23T05:48:52Z</time>
      </trkpt>
      <trkpt lat="43.11159" lon="-0.7828">
        <ele>341.2</ele>
        <time>2025-07-23T05:48:57Z</time>
      </trkpt>
      <trkpt lat="43.11156" lon="-0.78344">
        <ele>340.2</ele>
        <time>2025-07-23T05:49:03Z</time>
      </trkpt>
      <trkpt lat="43.11156" lon="-0.78365">
        <ele>339.6</ele>
        <time>2025-07-23T05:49:05Z</time>
      </trkpt>
      <trkpt lat="43.11153" lon="-0.78397">
        <ele>339.2</ele>
        <time>2025-07-23T05:49:08Z</time>
      </trkpt>
      <trkpt lat="43.11148" lon="-0.78416">
        <ele>339</ele>
        <time>2025-07-23T05:49:10Z</time>
      </trkpt>
      <trkpt lat="43.11145" lon="-0.78425">
        <ele>339</ele>
        <time>2025-07-23T05:49:11Z</time>
      </trkpt>
      <trkpt lat="43.11132" lon="-0.78448">
        <ele>338.8</ele>
        <time>2025-07-23T05:49:14Z</time>
      </trkpt>
      <trkpt lat="43.11111" lon="-0.7848">
        <ele>339.2</ele>
        <time>2025-07-23T05:49:19Z</time>
      </trkpt>
      <trkpt lat="43.11098" lon="-0.78508">
        <ele>339.8</ele>
        <time>2025-07-23T05:49:24Z</time>
      </trkpt>
      <trkpt lat="43.11093" lon="-0.78525">
        <ele>340.6</ele>
        <time>2025-07-23T05:49:27Z</time>
      </trkpt>
      <trkpt lat="43.11091" lon="-0.78544">
        <ele>341.2</ele>
        <time>2025-07-23T05:49:30Z</time>
      </trkpt>
      <trkpt lat="43.1109" lon="-0.78557">
        <ele>341.6</ele>
        <time>2025-07-23T05:49:32Z</time>
      </trkpt>
      <trkpt lat="43.11088" lon="-0.78588">
        <ele>342.2</ele>
        <time>2025-07-23T05:49:37Z</time>
      </trkpt>
      <trkpt lat="43.11087" lon="-0.786">
        <ele>342.6</ele>
        <time>2025-07-23T05:49:39Z</time>
      </trkpt>
      <trkpt lat="43.11086" lon="-0.78613">
        <ele>342.8</ele>
        <time>2025-07-23T05:49:41Z</time>
      </trkpt>
      <trkpt lat="43.11083" lon="-0.78632">
        <ele>343.4</ele>
        <time>2025-07-23T05:49:44Z</time>
      </trkpt>
      <trkpt lat="43.1108" lon="-0.78645">
        <ele>343.6</ele>
        <time>2025-07-23T05:49:46Z</time>
      </trkpt>
      <trkpt lat="43.11067" lon="-0.78686">
        <ele>344</ele>
        <time>2025-07-23T05:49:52Z</time>
      </trkpt>
      <trkpt lat="43.11059" lon="-0.78713">
        <ele>344</ele>
        <time>2025-07-23T05:49:56Z</time>
      </trkpt>
      <trkpt lat="43.11055" lon="-0.78728">
        <ele>344</ele>
        <time>2025-07-23T05:49:58Z</time>
      </trkpt>
      <trkpt lat="43.11052" lon="-0.78736">
        <ele>344</ele>
        <time>2025-07-23T05:49:59Z</time>
      </trkpt>
      <trkpt lat="43.11042" lon="-0.78766">
        <ele>344</ele>
        <time>2025-07-23T05:50:03Z</time>
      </trkpt>
      <trkpt lat="43.11039" lon="-0.78773">
        <ele>344</ele>
        <time>2025-07-23T05:50:04Z</time>
      </trkpt>
      <trkpt lat="43.11021" lon="-0.78808">
        <ele>343.8</ele>
        <time>2025-07-23T05:50:09Z</time>
      </trkpt>
      <trkpt lat="43.10994" lon="-0.78848">
        <ele>343.8</ele>
        <time>2025-07-23T05:50:16Z</time>
      </trkpt>
      <trkpt lat="43.10973" lon="-0.78874">
        <ele>344</ele>
        <time>2025-07-23T05:50:22Z</time>
      </trkpt>
      <trkpt lat="43.10962" lon="-0.78884">
        <ele>344</ele>
        <time>2025-07-23T05:50:25Z</time>
      </trkpt>
      <trkpt lat="43.10955" lon="-0.78894">
        <ele>344</ele>
        <time>2025-07-23T05:50:27Z</time>
      </trkpt>
      <trkpt lat="43.10932" lon="-0.78915">
        <ele>343.6</ele>
        <time>2025-07-23T05:50:32Z</time>
      </trkpt>
      <trkpt lat="43.10915" lon="-0.78927">
        <ele>343.8</ele>
        <time>2025-07-23T05:50:37Z</time>
      </trkpt>
      <trkpt lat="43.10909" lon="-0.7893">
        <ele>344.2</ele>
        <time>2025-07-23T05:50:39Z</time>
      </trkpt>
      <trkpt lat="43.10894" lon="-0.78937">
        <ele>345.6</ele>
        <time>2025-07-23T05:50:44Z</time>
      </trkpt>
      <trkpt lat="43.1088" lon="-0.78947">
        <ele>346.6</ele>
        <time>2025-07-23T05:50:49Z</time>
      </trkpt>
      <trkpt lat="43.10875" lon="-0.78952">
        <ele>347.4</ele>
        <time>2025-07-23T05:50:51Z</time>
      </trkpt>
      <trkpt lat="43.10871" lon="-0.78957">
        <ele>347.8</ele>
        <time>2025-07-23T05:50:53Z</time>
      </trkpt>
      <trkpt lat="43.10856" lon="-0.78969">
        <ele>348.8</ele>
        <time>2025-07-23T05:50:58Z</time>
      </trkpt>
      <trkpt lat="43.10854" lon="-0.78972">
        <ele>349</ele>
        <time>2025-07-23T05:50:59Z</time>
      </trkpt>
      <trkpt lat="43.1084" lon="-0.78987">
        <ele>349.8</ele>
        <time>2025-07-23T05:51:04Z</time>
      </trkpt>
      <trkpt lat="43.10829" lon="-0.78998">
        <ele>350.6</ele>
        <time>2025-07-23T05:51:08Z</time>
      </trkpt>
      <trkpt lat="43.10823" lon="-0.79003">
        <ele>351</ele>
        <time>2025-07-23T05:51:10Z</time>
      </trkpt>
      <trkpt lat="43.10807" lon="-0.79018">
        <ele>351.8</ele>
        <time>2025-07-23T05:51:16Z</time>
      </trkpt>
      <trkpt lat="43.10801" lon="-0.79023">
        <ele>352</ele>
        <time>2025-07-23T05:51:18Z</time>
      </trkpt>
      <trkpt lat="43.10784" lon="-0.7904">
        <ele>353.4</ele>
        <time>2025-07-23T05:51:24Z</time>
      </trkpt>
      <trkpt lat="43.1078" lon="-0.79045">
        <ele>353.6</ele>
        <time>2025-07-23T05:51:26Z</time>
      </trkpt>
      <trkpt lat="43.1077" lon="-0.79059">
        <ele>354.4</ele>
        <time>2025-07-23T05:51:30Z</time>
      </trkpt>
      <trkpt lat="43.1076" lon="-0.79078">
        <ele>355.2</ele>
        <time>2025-07-23T05:51:35Z</time>
      </trkpt>
      <trkpt lat="43.10756" lon="-0.79086">
        <ele>355.4</ele>
        <time>2025-07-23T05:51:37Z</time>
      </trkpt>
      <trkpt lat="43.10744" lon="-0.79109">
        <ele>356.2</ele>
        <time>2025-07-23T05:51:43Z</time>
      </trkpt>
      <trkpt lat="43.10739" lon="-0.7912">
        <ele>356.6</ele>
        <time>2025-07-23T05:51:46Z</time>
      </trkpt>
      <trkpt lat="43.10729" lon="-0.79137">
        <ele>357.4</ele>
        <time>2025-07-23T05:51:50Z</time>
      </trkpt>
      <trkpt lat="43.10717" lon="-0.79162">
        <ele>358.2</ele>
        <time>2025-07-23T05:51:56Z</time>
      </trkpt>
      <trkpt lat="43.10713" lon="-0.7917">
        <ele>358.6</ele>
        <time>2025-07-23T05:51:58Z</time>
      </trkpt>
      <trkpt lat="43.10699" lon="-0.79192">
        <ele>359.6</ele>
        <time>2025-07-23T05:52:04Z</time>
      </trkpt>
      <trkpt lat="43.10684" lon="-0.79212">
        <ele>360.6</ele>
        <time>2025-07-23T05:52:10Z</time>
      </trkpt>
      <trkpt lat="43.10678" lon="-0.79218">
        <ele>361</ele>
        <time>2025-07-23T05:52:12Z</time>
      </trkpt>
      <trkpt lat="43.10667" lon="-0.79232">
        <ele>361.6</ele>
        <time>2025-07-23T05:52:16Z</time>
      </trkpt>
      <trkpt lat="43.1065" lon="-0.79251">
        <ele>362.8</ele>
        <time>2025-07-23T05:52:22Z</time>
      </trkpt>
      <trkpt lat="43.10624" lon="-0.79283">
        <ele>364</ele>
        <time>2025-07-23T05:52:31Z</time>
      </trkpt>
      <trkpt lat="43.10618" lon="-0.79289">
        <ele>364</ele>
        <time>2025-07-23T05:52:33Z</time>
      </trkpt>
      <trkpt lat="43.10596" lon="-0.79316">
        <ele>365</ele>
        <time>2025-07-23T05:52:41Z</time>
      </trkpt>
      <trkpt lat="43.1059" lon="-0.79323">
        <ele>365.4</ele>
        <time>2025-07-23T05:52:43Z</time>
      </trkpt>
      <trkpt lat="43.10581" lon="-0.79338">
        <ele>366</ele>
        <time>2025-07-23T05:52:47Z</time>
      </trkpt>
      <trkpt lat="43.10575" lon="-0.79351">
        <ele>366.4</ele>
        <time>2025-07-23T05:52:50Z</time>
      </trkpt>
      <trkpt lat="43.10565" lon="-0.79373">
        <ele>367.2</ele>
        <time>2025-07-23T05:52:55Z</time>
      </trkpt>
      <trkpt lat="43.10554" lon="-0.794">
        <ele>368.4</ele>
        <time>2025-07-23T05:53:01Z</time>
      </trkpt>
      <trkpt lat="43.10552" lon="-0.79406">
        <ele>368.4</ele>
        <time>2025-07-23T05:53:02Z</time>
      </trkpt>
      <trkpt lat="43.10532" lon="-0.79459">
        <ele>369.2</ele>
        <time>2025-07-23T05:53:12Z</time>
      </trkpt>
      <trkpt lat="43.1053" lon="-0.79465">
        <ele>369.4</ele>
        <time>2025-07-23T05:53:13Z</time>
      </trkpt>
      <trkpt lat="43.10512" lon="-0.79511">
        <ele>369.8</ele>
        <time>2025-07-23T05:53:21Z</time>
      </trkpt>
      <trkpt lat="43.10498" lon="-0.79542">
        <ele>370.4</ele>
        <time>2025-07-23T05:53:27Z</time>
      </trkpt>
      <trkpt lat="43.10491" lon="-0.79558">
        <ele>370.8</ele>
        <time>2025-07-23T05:53:30Z</time>
      </trkpt>
      <trkpt lat="43.10482" lon="-0.79578">
        <ele>371.2</ele>
        <time>2025-07-23T05:53:34Z</time>
      </trkpt>
      <trkpt lat="43.10478" lon="-0.79588">
        <ele>371.6</ele>
        <time>2025-07-23T05:53:36Z</time>
      </trkpt>
      <trkpt lat="43.10473" lon="-0.79603">
        <ele>372.2</ele>
        <time>2025-07-23T05:53:39Z</time>
      </trkpt>
      <trkpt lat="43.10466" lon="-0.79621">
        <ele>372.8</ele>
        <time>2025-07-23T05:53:43Z</time>
      </trkpt>
      <trkpt lat="43.10459" lon="-0.79641">
        <ele>373.8</ele>
        <time>2025-07-23T05:53:47Z</time>
      </trkpt>
      <trkpt lat="43.1045" lon="-0.79665">
        <ele>375.2</ele>
        <time>2025-07-23T05:53:52Z</time>
      </trkpt>
      <trkpt lat="43.10439" lon="-0.79699">
        <ele>376</ele>
        <time>2025-07-23T05:53:59Z</time>
      </trkpt>
      <trkpt lat="43.10437" lon="-0.79703">
        <ele>376.4</ele>
        <time>2025-07-23T05:54:00Z</time>
      </trkpt>
      <trkpt lat="43.10424" lon="-0.79736">
        <ele>377.4</ele>
        <time>2025-07-23T05:54:07Z</time>
      </trkpt>
      <trkpt lat="43.1042" lon="-0.79745">
        <ele>377.6</ele>
        <time>2025-07-23T05:54:09Z</time>
      </trkpt>
      <trkpt lat="43.10412" lon="-0.79764">
        <ele>378.6</ele>
        <time>2025-07-23T05:54:13Z</time>
      </trkpt>
      <trkpt lat="43.10404" lon="-0.79785">
        <ele>379</ele>
        <time>2025-07-23T05:54:17Z</time>
      </trkpt>
      <trkpt lat="43.10396" lon="-0.79805">
        <ele>379.6</ele>
        <time>2025-07-23T05:54:21Z</time>
      </trkpt>
      <trkpt lat="43.10385" lon="-0.79834">
        <ele>380.4</ele>
        <time>2025-07-23T05:54:27Z</time>
      </trkpt>
      <trkpt lat="43.10382" lon="-0.79843">
        <ele>380.6</ele>
        <time>2025-07-23T05:54:29Z</time>
      </trkpt>
      <trkpt lat="43.1037" lon="-0.79877">
        <ele>381.6</ele>
        <time>2025-07-23T05:54:36Z</time>
      </trkpt>
      <trkpt lat="43.10368" lon="-0.79882">
        <ele>381.6</ele>
        <time>2025-07-23T05:54:37Z</time>
      </trkpt>
      <trkpt lat="43.10353" lon="-0.79918">
        <ele>382.8</ele>
        <time>2025-07-23T05:54:45Z</time>
      </trkpt>
      <trkpt lat="43.10334" lon="-0.79959">
        <ele>383.6</ele>
        <time>2025-07-23T05:54:53Z</time>
      </trkpt>
      <trkpt lat="43.10328" lon="-0.79971">
        <ele>383.6</ele>
        <time>2025-07-23T05:54:55Z</time>
      </trkpt>
      <trkpt lat="43.1031" lon="-0.80012">
        <ele>383.4</ele>
        <time>2025-07-23T05:55:01Z</time>
      </trkpt>
      <trkpt lat="43.10294" lon="-0.80063">
        <ele>382.4</ele>
        <time>2025-07-23T05:55:06Z</time>
      </trkpt>
      <trkpt lat="43.10292" lon="-0.80075">
        <ele>382.2</ele>
        <time>2025-07-23T05:55:07Z</time>
      </trkpt>
      <trkpt lat="43.10291" lon="-0.80087">
        <ele>381.6</ele>
        <time>2025-07-23T05:55:08Z</time>
      </trkpt>
      <trkpt lat="43.1029" lon="-0.80098">
        <ele>381.4</ele>
        <time>2025-07-23T05:55:09Z</time>
      </trkpt>
      <trkpt lat="43.1029" lon="-0.80112">
        <ele>380.8</ele>
        <time>2025-07-23T05:55:10Z</time>
      </trkpt>
      <trkpt lat="43.1029" lon="-0.80129">
        <ele>380.4</ele>
        <time>2025-07-23T05:55:11Z</time>
      </trkpt>
      <trkpt lat="43.10292" lon="-0.80158">
        <ele>378.6</ele>
        <time>2025-07-23T05:55:13Z</time>
      </trkpt>
      <trkpt lat="43.10294" lon="-0.80184">
        <ele>377.2</ele>
        <time>2025-07-23T05:55:15Z</time>
      </trkpt>
      <trkpt lat="43.10297" lon="-0.80215">
        <ele>376</ele>
        <time>2025-07-23T05:55:17Z</time>
      </trkpt>
      <trkpt lat="43.10299" lon="-0.80245">
        <ele>374.6</ele>
        <time>2025-07-23T05:55:19Z</time>
      </trkpt>
      <trkpt lat="43.103" lon="-0.80261">
        <ele>373.6</ele>
        <time>2025-07-23T05:55:20Z</time>
      </trkpt>
      <trkpt lat="43.103" lon="-0.80276">
        <ele>373.2</ele>
        <time>2025-07-23T05:55:21Z</time>
      </trkpt>
      <trkpt lat="43.10298" lon="-0.80292">
        <ele>371.8</ele>
        <time>2025-07-23T05:55:22Z</time>
      </trkpt>
      <trkpt lat="43.10295" lon="-0.8031">
        <ele>371.2</ele>
        <time>2025-07-23T05:55:23Z</time>
      </trkpt>
      <trkpt lat="43.10292" lon="-0.80322">
        <ele>370.2</ele>
        <time>2025-07-23T05:55:24Z</time>
      </trkpt>
      <trkpt lat="43.10288" lon="-0.80352">
        <ele>369</ele>
        <time>2025-07-23T05:55:26Z</time>
      </trkpt>
      <trkpt lat="43.10288" lon="-0.80371">
        <ele>368</ele>
        <time>2025-07-23T05:55:27Z</time>
      </trkpt>
      <trkpt lat="43.1029" lon="-0.80387">
        <ele>367.6</ele>
        <time>2025-07-23T05:55:28Z</time>
      </trkpt>
      <trkpt lat="43.10293" lon="-0.80399">
        <ele>366.6</ele>
        <time>2025-07-23T05:55:29Z</time>
      </trkpt>
      <trkpt lat="43.10299" lon="-0.80413">
        <ele>365.4</ele>
        <time>2025-07-23T05:55:30Z</time>
      </trkpt>
      <trkpt lat="43.10312" lon="-0.80443">
        <ele>363.6</ele>
        <time>2025-07-23T05:55:32Z</time>
      </trkpt>
      <trkpt lat="43.10319" lon="-0.80473">
        <ele>361.6</ele>
        <time>2025-07-23T05:55:34Z</time>
      </trkpt>
      <trkpt lat="43.1032" lon="-0.80507">
        <ele>360</ele>
        <time>2025-07-23T05:55:36Z</time>
      </trkpt>
      <trkpt lat="43.10317" lon="-0.80527">
        <ele>358.6</ele>
        <time>2025-07-23T05:55:37Z</time>
      </trkpt>
      <trkpt lat="43.10309" lon="-0.80561">
        <ele>356.6</ele>
        <time>2025-07-23T05:55:39Z</time>
      </trkpt>
      <trkpt lat="43.10299" lon="-0.8059">
        <ele>354.6</ele>
        <time>2025-07-23T05:55:41Z</time>
      </trkpt>
      <trkpt lat="43.10292" lon="-0.80609">
        <ele>353.4</ele>
        <time>2025-07-23T05:55:42Z</time>
      </trkpt>
      <trkpt lat="43.10279" lon="-0.80637">
        <ele>351.6</ele>
        <time>2025-07-23T05:55:44Z</time>
      </trkpt>
      <trkpt lat="43.10271" lon="-0.80652">
        <ele>350.8</ele>
        <time>2025-07-23T05:55:45Z</time>
      </trkpt>
      <trkpt lat="43.10262" lon="-0.80665">
        <ele>349.2</ele>
        <time>2025-07-23T05:55:46Z</time>
      </trkpt>
      <trkpt lat="43.1025" lon="-0.80679">
        <ele>348.6</ele>
        <time>2025-07-23T05:55:47Z</time>
      </trkpt>
      <trkpt lat="43.1024" lon="-0.8069">
        <ele>347.4</ele>
        <time>2025-07-23T05:55:48Z</time>
      </trkpt>
      <trkpt lat="43.10228" lon="-0.80699">
        <ele>346.2</ele>
        <time>2025-07-23T05:55:49Z</time>
      </trkpt>
      <trkpt lat="43.10205" lon="-0.80718">
        <ele>344</ele>
        <time>2025-07-23T05:55:51Z</time>
      </trkpt>
      <trkpt lat="43.10181" lon="-0.80736">
        <ele>341.8</ele>
        <time>2025-07-23T05:55:53Z</time>
      </trkpt>
      <trkpt lat="43.10169" lon="-0.80745">
        <ele>340.2</ele>
        <time>2025-07-23T05:55:54Z</time>
      </trkpt>
      <trkpt lat="43.10146" lon="-0.80763">
        <ele>338</ele>
        <time>2025-07-23T05:55:56Z</time>
      </trkpt>
      <trkpt lat="43.10122" lon="-0.80781">
        <ele>335.4</ele>
        <time>2025-07-23T05:55:58Z</time>
      </trkpt>
      <trkpt lat="43.10099" lon="-0.80797">
        <ele>333</ele>
        <time>2025-07-23T05:56:00Z</time>
      </trkpt>
      <trkpt lat="43.10088" lon="-0.80807">
        <ele>331.2</ele>
        <time>2025-07-23T05:56:01Z</time>
      </trkpt>
      <trkpt lat="43.10079" lon="-0.80818">
        <ele>330.2</ele>
        <time>2025-07-23T05:56:02Z</time>
      </trkpt>
      <trkpt lat="43.1007" lon="-0.80831">
        <ele>328.4</ele>
        <time>2025-07-23T05:56:03Z</time>
      </trkpt>
      <trkpt lat="43.10058" lon="-0.80859">
        <ele>326.2</ele>
        <time>2025-07-23T05:56:05Z</time>
      </trkpt>
      <trkpt lat="43.10054" lon="-0.80874">
        <ele>324</ele>
        <time>2025-07-23T05:56:06Z</time>
      </trkpt>
      <trkpt lat="43.10052" lon="-0.8089">
        <ele>323.2</ele>
        <time>2025-07-23T05:56:07Z</time>
      </trkpt>
      <trkpt lat="43.10053" lon="-0.80907">
        <ele>321.4</ele>
        <time>2025-07-23T05:56:08Z</time>
      </trkpt>
      <trkpt lat="43.10055" lon="-0.80924">
        <ele>320.6</ele>
        <time>2025-07-23T05:56:09Z</time>
      </trkpt>
      <trkpt lat="43.10059" lon="-0.80941">
        <ele>318.6</ele>
        <time>2025-07-23T05:56:10Z</time>
      </trkpt>
      <trkpt lat="43.10065" lon="-0.80957">
        <ele>317.8</ele>
        <time>2025-07-23T05:56:11Z</time>
      </trkpt>
      <trkpt lat="43.10072" lon="-0.80973">
        <ele>316.2</ele>
        <time>2025-07-23T05:56:12Z</time>
      </trkpt>
      <trkpt lat="43.1008" lon="-0.80988">
        <ele>314.8</ele>
        <time>2025-07-23T05:56:13Z</time>
      </trkpt>
      <trkpt lat="43.10089" lon="-0.81003">
        <ele>313.8</ele>
        <time>2025-07-23T05:56:14Z</time>
      </trkpt>
      <trkpt lat="43.10096" lon="-0.81016">
        <ele>312.2</ele>
        <time>2025-07-23T05:56:15Z</time>
      </trkpt>
      <trkpt lat="43.10113" lon="-0.81051">
        <ele>309.8</ele>
        <time>2025-07-23T05:56:17Z</time>
      </trkpt>
      <trkpt lat="43.10119" lon="-0.81068">
        <ele>308.2</ele>
        <time>2025-07-23T05:56:18Z</time>
      </trkpt>
      <trkpt lat="43.10125" lon="-0.81087">
        <ele>307.2</ele>
        <time>2025-07-23T05:56:19Z</time>
      </trkpt>
      <trkpt lat="43.10131" lon="-0.81104">
        <ele>305.4</ele>
        <time>2025-07-23T05:56:20Z</time>
      </trkpt>
      <trkpt lat="43.10139" lon="-0.81136">
        <ele>302.8</ele>
        <time>2025-07-23T05:56:22Z</time>
      </trkpt>
      <trkpt lat="43.10145" lon="-0.81173">
        <ele>301</ele>
        <time>2025-07-23T05:56:24Z</time>
      </trkpt>
      <trkpt lat="43.10146" lon="-0.81205">
        <ele>299.4</ele>
        <time>2025-07-23T05:56:26Z</time>
      </trkpt>
      <trkpt lat="43.10146" lon="-0.81235">
        <ele>298.2</ele>
        <time>2025-07-23T05:56:28Z</time>
      </trkpt>
      <trkpt lat="43.1014" lon="-0.81288">
        <ele>297.2</ele>
        <time>2025-07-23T05:56:32Z</time>
      </trkpt>
      <trkpt lat="43.1013" lon="-0.81339">
        <ele>297.4</ele>
        <time>2025-07-23T05:56:37Z</time>
      </trkpt>
      <trkpt lat="43.1012" lon="-0.81382">
        <ele>298.6</ele>
        <time>2025-07-23T05:56:42Z</time>
      </trkpt>
      <trkpt lat="43.10116" lon="-0.81404">
        <ele>299.6</ele>
        <time>2025-07-23T05:56:46Z</time>
      </trkpt>
      <trkpt lat="43.10111" lon="-0.81422">
        <ele>299.8</ele>
        <time>2025-07-23T05:56:48Z</time>
      </trkpt>
      <trkpt lat="43.10109" lon="-0.81427">
        <ele>300</ele>
        <time>2025-07-23T05:56:49Z</time>
      </trkpt>
      <trkpt lat="43.10103" lon="-0.8144">
        <ele>300.6</ele>
        <time>2025-07-23T05:56:52Z</time>
      </trkpt>
      <trkpt lat="43.10101" lon="-0.81446">
        <ele>301</ele>
        <time>2025-07-23T05:56:53Z</time>
      </trkpt>
      <trkpt lat="43.10088" lon="-0.81469">
        <ele>301.8</ele>
        <time>2025-07-23T05:56:58Z</time>
      </trkpt>
      <trkpt lat="43.10085" lon="-0.81474">
        <ele>302</ele>
        <time>2025-07-23T05:56:59Z</time>
      </trkpt>
      <trkpt lat="43.10052" lon="-0.81509">
        <ele>302.2</ele>
        <time>2025-07-23T05:57:07Z</time>
      </trkpt>
      <trkpt lat="43.1004" lon="-0.81518">
        <ele>302</ele>
        <time>2025-07-23T05:57:09Z</time>
      </trkpt>
      <trkpt lat="43.10029" lon="-0.81524">
        <ele>301.8</ele>
        <time>2025-07-23T05:57:11Z</time>
      </trkpt>
      <trkpt lat="43.10022" lon="-0.81527">
        <ele>301.8</ele>
        <time>2025-07-23T05:57:12Z</time>
      </trkpt>
      <trkpt lat="43.09997" lon="-0.81536">
        <ele>300.6</ele>
        <time>2025-07-23T05:57:15Z</time>
      </trkpt>
      <trkpt lat="43.09979" lon="-0.81543">
        <ele>299.8</ele>
        <time>2025-07-23T05:57:17Z</time>
      </trkpt>
      <trkpt lat="43.0997" lon="-0.81547">
        <ele>299.2</ele>
        <time>2025-07-23T05:57:18Z</time>
      </trkpt>
      <trkpt lat="43.09959" lon="-0.81553">
        <ele>298.8</ele>
        <time>2025-07-23T05:57:19Z</time>
      </trkpt>
      <trkpt lat="43.09952" lon="-0.81558">
        <ele>297.8</ele>
        <time>2025-07-23T05:57:20Z</time>
      </trkpt>
      <trkpt lat="43.09942" lon="-0.81567">
        <ele>297.2</ele>
        <time>2025-07-23T05:57:21Z</time>
      </trkpt>
      <trkpt lat="43.09936" lon="-0.81574">
        <ele>296.2</ele>
        <time>2025-07-23T05:57:22Z</time>
      </trkpt>
      <trkpt lat="43.09928" lon="-0.81584">
        <ele>295.2</ele>
        <time>2025-07-23T05:57:23Z</time>
      </trkpt>
      <trkpt lat="43.09913" lon="-0.8161">
        <ele>293.2</ele>
        <time>2025-07-23T05:57:25Z</time>
      </trkpt>
      <trkpt lat="43.09897" lon="-0.81634">
        <ele>291.2</ele>
        <time>2025-07-23T05:57:27Z</time>
      </trkpt>
      <trkpt lat="43.09883" lon="-0.81657">
        <ele>289</ele>
        <time>2025-07-23T05:57:29Z</time>
      </trkpt>
      <trkpt lat="43.09866" lon="-0.81685">
        <ele>287.2</ele>
        <time>2025-07-23T05:57:31Z</time>
      </trkpt>
      <trkpt lat="43.09858" lon="-0.81697">
        <ele>285.6</ele>
        <time>2025-07-23T05:57:32Z</time>
      </trkpt>
      <trkpt lat="43.09846" lon="-0.81719">
        <ele>283.6</ele>
        <time>2025-07-23T05:57:34Z</time>
      </trkpt>
      <trkpt lat="43.09835" lon="-0.81745">
        <ele>282.4</ele>
        <time>2025-07-23T05:57:36Z</time>
      </trkpt>
      <trkpt lat="43.09831" lon="-0.81758">
        <ele>281.4</ele>
        <time>2025-07-23T05:57:37Z</time>
      </trkpt>
      <trkpt lat="43.09822" lon="-0.81798">
        <ele>280.6</ele>
        <time>2025-07-23T05:57:40Z</time>
      </trkpt>
      <trkpt lat="43.09819" lon="-0.81811">
        <ele>280</ele>
        <time>2025-07-23T05:57:41Z</time>
      </trkpt>
      <trkpt lat="43.09809" lon="-0.81864">
        <ele>279.6</ele>
        <time>2025-07-23T05:57:46Z</time>
      </trkpt>
      <trkpt lat="43.098" lon="-0.81908">
        <ele>280.6</ele>
        <time>2025-07-23T05:57:51Z</time>
      </trkpt>
      <trkpt lat="43.09798" lon="-0.81928">
        <ele>281.6</ele>
        <time>2025-07-23T05:57:54Z</time>
      </trkpt>
      <trkpt lat="43.09798" lon="-0.81943">
        <ele>282.2</ele>
        <time>2025-07-23T05:57:56Z</time>
      </trkpt>
      <trkpt lat="43.098" lon="-0.81956">
        <ele>282.6</ele>
        <time>2025-07-23T05:57:58Z</time>
      </trkpt>
      <trkpt lat="43.09802" lon="-0.81964">
        <ele>282.8</ele>
        <time>2025-07-23T05:57:59Z</time>
      </trkpt>
      <trkpt lat="43.09808" lon="-0.8198">
        <ele>282.8</ele>
        <time>2025-07-23T05:58:01Z</time>
      </trkpt>
      <trkpt lat="43.09822" lon="-0.82019">
        <ele>282.8</ele>
        <time>2025-07-23T05:58:06Z</time>
      </trkpt>
      <trkpt lat="43.09848" lon="-0.8209">
        <ele>283</ele>
        <time>2025-07-23T05:58:16Z</time>
      </trkpt>
      <trkpt lat="43.09872" lon="-0.82154">
        <ele>283.4</ele>
        <time>2025-07-23T05:58:25Z</time>
      </trkpt>
      <trkpt lat="43.09891" lon="-0.82208">
        <ele>283.2</ele>
        <time>2025-07-23T05:58:31Z</time>
      </trkpt>
      <trkpt lat="43.09915" lon="-0.82273">
        <ele>281</ele>
        <time>2025-07-23T05:58:37Z</time>
      </trkpt>
      <trkpt lat="43.09923" lon="-0.82295">
        <ele>280</ele>
        <time>2025-07-23T05:58:39Z</time>
      </trkpt>
      <trkpt lat="43.09938" lon="-0.82336">
        <ele>279</ele>
        <time>2025-07-23T05:58:43Z</time>
      </trkpt>
      <trkpt lat="43.09945" lon="-0.82356">
        <ele>278.6</ele>
        <time>2025-07-23T05:58:45Z</time>
      </trkpt>
      <trkpt lat="43.09961" lon="-0.82402">
        <ele>278.4</ele>
        <time>2025-07-23T05:58:50Z</time>
      </trkpt>
      <trkpt lat="43.09983" lon="-0.8246">
        <ele>278.8</ele>
        <time>2025-07-23T05:58:57Z</time>
      </trkpt>
      <trkpt lat="43.10015" lon="-0.8253">
        <ele>279.4</ele>
        <time>2025-07-23T05:59:06Z</time>
      </trkpt>
      <trkpt lat="43.1003" lon="-0.82584">
        <ele>279.2</ele>
        <time>2025-07-23T05:59:12Z</time>
      </trkpt>
      <trkpt lat="43.10032" lon="-0.82625">
        <ele>279</ele>
        <time>2025-07-23T05:59:16Z</time>
      </trkpt>
      <trkpt lat="43.10031" lon="-0.82636">
        <ele>278.8</ele>
        <time>2025-07-23T05:59:17Z</time>
      </trkpt>
      <trkpt lat="43.10021" lon="-0.82678">
        <ele>278.4</ele>
        <time>2025-07-23T05:59:21Z</time>
      </trkpt>
      <trkpt lat="43.10017" lon="-0.82688">
        <ele>278</ele>
        <time>2025-07-23T05:59:22Z</time>
      </trkpt>
      <trkpt lat="43.09997" lon="-0.82745">
        <ele>276.8</ele>
        <time>2025-07-23T05:59:27Z</time>
      </trkpt>
      <trkpt lat="43.09994" lon="-0.82757">
        <ele>276.4</ele>
        <time>2025-07-23T05:59:28Z</time>
      </trkpt>
      <trkpt lat="43.09991" lon="-0.8277">
        <ele>275.8</ele>
        <time>2025-07-23T05:59:29Z</time>
      </trkpt>
      <trkpt lat="43.09988" lon="-0.82798">
        <ele>275.2</ele>
        <time>2025-07-23T05:59:31Z</time>
      </trkpt>
      <trkpt lat="43.09989" lon="-0.82813">
        <ele>274.6</ele>
        <time>2025-07-23T05:59:32Z</time>
      </trkpt>
      <trkpt lat="43.09992" lon="-0.82841">
        <ele>273.4</ele>
        <time>2025-07-23T05:59:34Z</time>
      </trkpt>
      <trkpt lat="43.09997" lon="-0.8287">
        <ele>272.2</ele>
        <time>2025-07-23T05:59:36Z</time>
      </trkpt>
      <trkpt lat="43.10005" lon="-0.82911">
        <ele>270.4</ele>
        <time>2025-07-23T05:59:39Z</time>
      </trkpt>
      <trkpt lat="43.10011" lon="-0.82948">
        <ele>269</ele>
        <time>2025-07-23T05:59:42Z</time>
      </trkpt>
      <trkpt lat="43.10021" lon="-0.82997">
        <ele>268</ele>
        <time>2025-07-23T05:59:46Z</time>
      </trkpt>
      <trkpt lat="43.10037" lon="-0.83082">
        <ele>267.2</ele>
        <time>2025-07-23T05:59:53Z</time>
      </trkpt>
      <trkpt lat="43.1005" lon="-0.83155">
        <ele>267</ele>
        <time>2025-07-23T06:00:00Z</time>
      </trkpt>
      <trkpt lat="43.10052" lon="-0.83166">
        <ele>267</ele>
        <time>2025-07-23T06:00:01Z</time>
      </trkpt>
      <trkpt lat="43.10062" lon="-0.83236">
        <ele>267</ele>
        <time>2025-07-23T06:00:08Z</time>
      </trkpt>
      <trkpt lat="43.10072" lon="-0.83309">
        <ele>267.2</ele>
        <time>2025-07-23T06:00:15Z</time>
      </trkpt>
      <trkpt lat="43.10074" lon="-0.83329">
        <ele>267.2</ele>
        <time>2025-07-23T06:00:17Z</time>
      </trkpt>
      <trkpt lat="43.10084" lon="-0.83412">
        <ele>267.4</ele>
        <time>2025-07-23T06:00:25Z</time>
      </trkpt>
      <trkpt lat="43.10087" lon="-0.83443">
        <ele>267.6</ele>
        <time>2025-07-23T06:00:28Z</time>
      </trkpt>
      <trkpt lat="43.10095" lon="-0.83518">
        <ele>267.6</ele>
        <time>2025-07-23T06:00:35Z</time>
      </trkpt>
      <trkpt lat="43.10099" lon="-0.8355">
        <ele>267</ele>
        <time>2025-07-23T06:00:38Z</time>
      </trkpt>
      <trkpt lat="43.101" lon="-0.83561">
        <ele>266.6</ele>
        <time>2025-07-23T06:00:39Z</time>
      </trkpt>
      <trkpt lat="43.10108" lon="-0.83637">
        <ele>265.8</ele>
        <time>2025-07-23T06:00:46Z</time>
      </trkpt>
      <trkpt lat="43.1011" lon="-0.83648">
        <ele>265.4</ele>
        <time>2025-07-23T06:00:47Z</time>
      </trkpt>
      <trkpt lat="43.10111" lon="-0.83659">
        <ele>265.2</ele>
        <time>2025-07-23T06:00:48Z</time>
      </trkpt>
      <trkpt lat="43.10118" lon="-0.83723">
        <ele>264.4</ele>
        <time>2025-07-23T06:00:54Z</time>
      </trkpt>
      <trkpt lat="43.10124" lon="-0.83775">
        <ele>264</ele>
        <time>2025-07-23T06:00:59Z</time>
      </trkpt>
      <trkpt lat="43.10131" lon="-0.83854">
        <ele>263.8</ele>
        <time>2025-07-23T06:01:07Z</time>
      </trkpt>
      <trkpt lat="43.10132" lon="-0.83864">
        <ele>263.8</ele>
        <time>2025-07-23T06:01:08Z</time>
      </trkpt>
      <trkpt lat="43.1013" lon="-0.83931">
        <ele>263.8</ele>
        <time>2025-07-23T06:01:15Z</time>
      </trkpt>
      <trkpt lat="43.10119" lon="-0.84003">
        <ele>263.8</ele>
        <time>2025-07-23T06:01:23Z</time>
      </trkpt>
      <trkpt lat="43.10117" lon="-0.84012">
        <ele>263.8</ele>
        <time>2025-07-23T06:01:24Z</time>
      </trkpt>
      <trkpt lat="43.1011" lon="-0.84077">
        <ele>263.8</ele>
        <time>2025-07-23T06:01:31Z</time>
      </trkpt>
      <trkpt lat="43.10109" lon="-0.84097">
        <ele>263.6</ele>
        <time>2025-07-23T06:01:33Z</time>
      </trkpt>
      <trkpt lat="43.10111" lon="-0.84128">
        <ele>263.4</ele>
        <time>2025-07-23T06:01:36Z</time>
      </trkpt>
      <trkpt lat="43.10113" lon="-0.84139">
        <ele>263.2</ele>
        <time>2025-07-23T06:01:37Z</time>
      </trkpt>
      <trkpt lat="43.10121" lon="-0.84191">
        <ele>262.2</ele>
        <time>2025-07-23T06:01:42Z</time>
      </trkpt>
      <trkpt lat="43.10126" lon="-0.84212">
        <ele>261.8</ele>
        <time>2025-07-23T06:01:44Z</time>
      </trkpt>
      <trkpt lat="43.10132" lon="-0.84243">
        <ele>261.2</ele>
        <time>2025-07-23T06:01:47Z</time>
      </trkpt>
      <trkpt lat="43.10141" lon="-0.84304">
        <ele>260.6</ele>
        <time>2025-07-23T06:01:53Z</time>
      </trkpt>
      <trkpt lat="43.10142" lon="-0.84354">
        <ele>260</ele>
        <time>2025-07-23T06:01:58Z</time>
      </trkpt>
      <trkpt lat="43.10141" lon="-0.84374">
        <ele>259.8</ele>
        <time>2025-07-23T06:02:00Z</time>
      </trkpt>
      <trkpt lat="43.10138" lon="-0.84454">
        <ele>259.4</ele>
        <time>2025-07-23T06:02:08Z</time>
      </trkpt>
      <trkpt lat="43.10138" lon="-0.84473">
        <ele>259.4</ele>
        <time>2025-07-23T06:02:10Z</time>
      </trkpt>
      <trkpt lat="43.10139" lon="-0.84548">
        <ele>259.4</ele>
        <time>2025-07-23T06:02:18Z</time>
      </trkpt>
      <trkpt lat="43.1014" lon="-0.84558">
        <ele>259.4</ele>
        <time>2025-07-23T06:02:19Z</time>
      </trkpt>
      <trkpt lat="43.10146" lon="-0.84614">
        <ele>259.2</ele>
        <time>2025-07-23T06:02:25Z</time>
      </trkpt>
      <trkpt lat="43.10152" lon="-0.84661">
        <ele>259.2</ele>
        <time>2025-07-23T06:02:30Z</time>
      </trkpt>
      <trkpt lat="43.10161" lon="-0.84738">
        <ele>258.8</ele>
        <time>2025-07-23T06:02:38Z</time>
      </trkpt>
      <trkpt lat="43.10164" lon="-0.84758">
        <ele>258.6</ele>
        <time>2025-07-23T06:02:40Z</time>
      </trkpt>
      <trkpt lat="43.10174" lon="-0.84836">
        <ele>258.2</ele>
        <time>2025-07-23T06:02:48Z</time>
      </trkpt>
      <trkpt lat="43.10175" lon="-0.84846">
        <ele>258.2</ele>
        <time>2025-07-23T06:02:49Z</time>
      </trkpt>
      <trkpt lat="43.10185" lon="-0.84924">
        <ele>257.6</ele>
        <time>2025-07-23T06:02:57Z</time>
      </trkpt>
      <trkpt lat="43.10191" lon="-0.84962">
        <ele>257.4</ele>
        <time>2025-07-23T06:03:01Z</time>
      </trkpt>
      <trkpt lat="43.10203" lon="-0.85025">
        <ele>257.2</ele>
        <time>2025-07-23T06:03:08Z</time>
      </trkpt>
      <trkpt lat="43.10224" lon="-0.85078">
        <ele>257.6</ele>
        <time>2025-07-23T06:03:15Z</time>
      </trkpt>
      <trkpt lat="43.10253" lon="-0.8512">
        <ele>258.2</ele>
        <time>2025-07-23T06:03:22Z</time>
      </trkpt>
      <trkpt lat="43.10297" lon="-0.85169">
        <ele>258.6</ele>
        <time>2025-07-23T06:03:31Z</time>
      </trkpt>
      <trkpt lat="43.10307" lon="-0.8518">
        <ele>258.4</ele>
        <time>2025-07-23T06:03:33Z</time>
      </trkpt>
      <trkpt lat="43.1035" lon="-0.85228">
        <ele>258.2</ele>
        <time>2025-07-23T06:03:41Z</time>
      </trkpt>
      <trkpt lat="43.10361" lon="-0.85241">
        <ele>258</ele>
        <time>2025-07-23T06:03:43Z</time>
      </trkpt>
      <trkpt lat="43.10397" lon="-0.85284">
        <ele>257</ele>
        <time>2025-07-23T06:03:49Z</time>
      </trkpt>
      <trkpt lat="43.1041" lon="-0.85299">
        <ele>256.6</ele>
        <time>2025-07-23T06:03:51Z</time>
      </trkpt>
      <trkpt lat="43.10428" lon="-0.85323">
        <ele>255.6</ele>
        <time>2025-07-23T06:03:54Z</time>
      </trkpt>
      <trkpt lat="43.10458" lon="-0.85362">
        <ele>254.6</ele>
        <time>2025-07-23T06:03:59Z</time>
      </trkpt>
      <trkpt lat="43.10463" lon="-0.85371">
        <ele>254.4</ele>
        <time>2025-07-23T06:04:00Z</time>
      </trkpt>
      <trkpt lat="43.10498" lon="-0.85428">
        <ele>253.6</ele>
        <time>2025-07-23T06:04:07Z</time>
      </trkpt>
      <trkpt lat="43.10503" lon="-0.85436">
        <ele>253.6</ele>
        <time>2025-07-23T06:04:08Z</time>
      </trkpt>
      <trkpt lat="43.10538" lon="-0.85494">
        <ele>253</ele>
        <time>2025-07-23T06:04:15Z</time>
      </trkpt>
      <trkpt lat="43.10547" lon="-0.8551">
        <ele>253</ele>
        <time>2025-07-23T06:04:17Z</time>
      </trkpt>
      <trkpt lat="43.10568" lon="-0.85544">
        <ele>252.6</ele>
        <time>2025-07-23T06:04:22Z</time>
      </trkpt>
      <trkpt lat="43.10574" lon="-0.85552">
        <ele>252.6</ele>
        <time>2025-07-23T06:04:24Z</time>
      </trkpt>
      <trkpt lat="43.10576" lon="-0.85555">
        <ele>252.4</ele>
        <time>2025-07-23T06:04:25Z</time>
      </trkpt>
      <trkpt lat="43.10577" lon="-0.85558">
        <ele>252.2</ele>
        <time>2025-07-23T06:04:29Z</time>
      </trkpt>
      <trkpt lat="43.10576" lon="-0.85565">
        <ele>252.8</ele>
        <time>2025-07-23T06:10:18Z</time>
      </trkpt>
      <trkpt lat="43.10579" lon="-0.85572">
        <ele>252.8</ele>
        <time>2025-07-23T06:10:20Z</time>
      </trkpt>
      <trkpt lat="43.10586" lon="-0.85596">
        <ele>253</ele>
        <time>2025-07-23T06:10:26Z</time>
      </trkpt>
      <trkpt lat="43.10599" lon="-0.85626">
        <ele>252.8</ele>
        <time>2025-07-23T06:10:32Z</time>
      </trkpt>
      <trkpt lat="43.10618" lon="-0.85667">
        <ele>252.6</ele>
        <time>2025-07-23T06:10:39Z</time>
      </trkpt>
      <trkpt lat="43.10626" lon="-0.85677">
        <ele>252.6</ele>
        <time>2025-07-23T06:10:41Z</time>
      </trkpt>
      <trkpt lat="43.10635" lon="-0.85686">
        <ele>252.6</ele>
        <time>2025-07-23T06:10:43Z</time>
      </trkpt>
      <trkpt lat="43.10669" lon="-0.85703">
        <ele>252.6</ele>
        <time>2025-07-23T06:10:49Z</time>
      </trkpt>
      <trkpt lat="43.10695" lon="-0.85712">
        <ele>252.2</ele>
        <time>2025-07-23T06:10:53Z</time>
      </trkpt>
      <trkpt lat="43.10702" lon="-0.85715">
        <ele>252.2</ele>
        <time>2025-07-23T06:10:54Z</time>
      </trkpt>
      <trkpt lat="43.10727" lon="-0.85731">
        <ele>251.6</ele>
        <time>2025-07-23T06:10:58Z</time>
      </trkpt>
      <trkpt lat="43.10741" lon="-0.85741">
        <ele>251.2</ele>
        <time>2025-07-23T06:11:00Z</time>
      </trkpt>
      <trkpt lat="43.10772" lon="-0.85777">
        <ele>250.8</ele>
        <time>2025-07-23T06:11:06Z</time>
      </trkpt>
      <trkpt lat="43.10791" lon="-0.85805">
        <ele>250.6</ele>
        <time>2025-07-23T06:11:10Z</time>
      </trkpt>
      <trkpt lat="43.10804" lon="-0.85829">
        <ele>250.2</ele>
        <time>2025-07-23T06:11:13Z</time>
      </trkpt>
      <trkpt lat="43.10825" lon="-0.8586">
        <ele>249.2</ele>
        <time>2025-07-23T06:11:17Z</time>
      </trkpt>
      <trkpt lat="43.10836" lon="-0.85874">
        <ele>249</ele>
        <time>2025-07-23T06:11:19Z</time>
      </trkpt>
      <trkpt lat="43.1086" lon="-0.85898">
        <ele>247.8</ele>
        <time>2025-07-23T06:11:23Z</time>
      </trkpt>
      <trkpt lat="43.10876" lon="-0.85913">
        <ele>247.2</ele>
        <time>2025-07-23T06:11:26Z</time>
      </trkpt>
      <trkpt lat="43.1089" lon="-0.85926">
        <ele>246.8</ele>
        <time>2025-07-23T06:11:29Z</time>
      </trkpt>
      <trkpt lat="43.10901" lon="-0.85936">
        <ele>246.6</ele>
        <time>2025-07-23T06:11:32Z</time>
      </trkpt>
      <trkpt lat="43.10908" lon="-0.85943">
        <ele>246.4</ele>
        <time>2025-07-23T06:11:35Z</time>
      </trkpt>
      <trkpt lat="43.10909" lon="-0.85945">
        <ele>246.4</ele>
        <time>2025-07-23T06:11:36Z</time>
      </trkpt>
      <trkpt lat="43.10917" lon="-0.85956">
        <ele>246.2</ele>
        <time>2025-07-23T06:11:42Z</time>
      </trkpt>
      <trkpt lat="43.10919" lon="-0.85958">
        <ele>246.2</ele>
        <time>2025-07-23T06:11:43Z</time>
      </trkpt>
      <trkpt lat="43.10925" lon="-0.85961">
        <ele>246.2</ele>
        <time>2025-07-23T06:11:45Z</time>
      </trkpt>
      <trkpt lat="43.10946" lon="-0.85971">
        <ele>245.8</ele>
        <time>2025-07-23T06:11:50Z</time>
      </trkpt>
      <trkpt lat="43.10982" lon="-0.85989">
        <ele>245.2</ele>
        <time>2025-07-23T06:11:57Z</time>
      </trkpt>
      <trkpt lat="43.11004" lon="-0.86">
        <ele>244.8</ele>
        <time>2025-07-23T06:12:01Z</time>
      </trkpt>
      <trkpt lat="43.11015" lon="-0.86005">
        <ele>244.6</ele>
        <time>2025-07-23T06:12:03Z</time>
      </trkpt>
      <trkpt lat="43.11021" lon="-0.86006">
        <ele>244.4</ele>
        <time>2025-07-23T06:12:04Z</time>
      </trkpt>
      <trkpt lat="43.11027" lon="-0.86007">
        <ele>244.4</ele>
        <time>2025-07-23T06:12:05Z</time>
      </trkpt>
      <trkpt lat="43.11056" lon="-0.86007">
        <ele>244.2</ele>
        <time>2025-07-23T06:12:10Z</time>
      </trkpt>
      <trkpt lat="43.11104" lon="-0.86003">
        <ele>244.2</ele>
        <time>2025-07-23T06:12:18Z</time>
      </trkpt>
      <trkpt lat="43.11131" lon="-0.86005">
        <ele>244.4</ele>
        <time>2025-07-23T06:12:23Z</time>
      </trkpt>
      <trkpt lat="43.11136" lon="-0.86007">
        <ele>244.4</ele>
        <time>2025-07-23T06:12:24Z</time>
      </trkpt>
      <trkpt lat="43.1114" lon="-0.86008">
        <ele>244.4</ele>
        <time>2025-07-23T06:12:25Z</time>
      </trkpt>
      <trkpt lat="43.11148" lon="-0.86009">
        <ele>244.6</ele>
        <time>2025-07-23T06:12:28Z</time>
      </trkpt>
      <trkpt lat="43.11149" lon="-0.8601">
        <ele>244.8</ele>
        <time>2025-07-23T06:12:29Z</time>
      </trkpt>
      <trkpt lat="43.11153" lon="-0.86014">
        <ele>245</ele>
        <time>2025-07-23T06:12:32Z</time>
      </trkpt>
      <trkpt lat="43.11169" lon="-0.86018">
        <ele>245.2</ele>
        <time>2025-07-23T06:12:36Z</time>
      </trkpt>
      <trkpt lat="43.1119" lon="-0.86024">
        <ele>245</ele>
        <time>2025-07-23T06:12:40Z</time>
      </trkpt>
      <trkpt lat="43.11201" lon="-0.86029">
        <ele>244.2</ele>
        <time>2025-07-23T06:12:42Z</time>
      </trkpt>
      <trkpt lat="43.11212" lon="-0.86034">
        <ele>243.6</ele>
        <time>2025-07-23T06:12:44Z</time>
      </trkpt>
      <trkpt lat="43.11233" lon="-0.86048">
        <ele>242.8</ele>
        <time>2025-07-23T06:12:48Z</time>
      </trkpt>
      <trkpt lat="43.11238" lon="-0.86052">
        <ele>242.4</ele>
        <time>2025-07-23T06:12:49Z</time>
      </trkpt>
      <trkpt lat="43.1125" lon="-0.8606">
        <ele>241.8</ele>
        <time>2025-07-23T06:12:51Z</time>
      </trkpt>
      <trkpt lat="43.1126" lon="-0.86072">
        <ele>241.6</ele>
        <time>2025-07-23T06:12:53Z</time>
      </trkpt>
      <trkpt lat="43.11263" lon="-0.86077">
        <ele>241.4</ele>
        <time>2025-07-23T06:12:54Z</time>
      </trkpt>
      <trkpt lat="43.11267" lon="-0.86083">
        <ele>241.4</ele>
        <time>2025-07-23T06:12:55Z</time>
      </trkpt>
      <trkpt lat="43.11277" lon="-0.8609">
        <ele>240.8</ele>
        <time>2025-07-23T06:12:57Z</time>
      </trkpt>
      <trkpt lat="43.11289" lon="-0.86093">
        <ele>240.4</ele>
        <time>2025-07-23T06:12:59Z</time>
      </trkpt>
      <trkpt lat="43.113" lon="-0.86097">
        <ele>240.2</ele>
        <time>2025-07-23T06:13:01Z</time>
      </trkpt>
      <trkpt lat="43.11306" lon="-0.861">
        <ele>240</ele>
        <time>2025-07-23T06:13:02Z</time>
      </trkpt>
      <trkpt lat="43.11326" lon="-0.86112">
        <ele>240</ele>
        <time>2025-07-23T06:13:06Z</time>
      </trkpt>
      <trkpt lat="43.1133" lon="-0.86114">
        <ele>240</ele>
        <time>2025-07-23T06:13:07Z</time>
      </trkpt>
      <trkpt lat="43.11335" lon="-0.86115">
        <ele>240</ele>
        <time>2025-07-23T06:13:08Z</time>
      </trkpt>
      <trkpt lat="43.11349" lon="-0.86118">
        <ele>240.8</ele>
        <time>2025-07-23T06:13:12Z</time>
      </trkpt>
      <trkpt lat="43.11362" lon="-0.86121">
        <ele>241.4</ele>
        <time>2025-07-23T06:13:16Z</time>
      </trkpt>
      <trkpt lat="43.11369" lon="-0.86124">
        <ele>242.6</ele>
        <time>2025-07-23T06:13:18Z</time>
      </trkpt>
      <trkpt lat="43.11375" lon="-0.86126">
        <ele>243.4</ele>
        <time>2025-07-23T06:13:20Z</time>
      </trkpt>
      <trkpt lat="43.11381" lon="-0.86132">
        <ele>243.8</ele>
        <time>2025-07-23T06:13:22Z</time>
      </trkpt>
      <trkpt lat="43.11384" lon="-0.86134">
        <ele>244</ele>
        <time>2025-07-23T06:13:23Z</time>
      </trkpt>
      <trkpt lat="43.11397" lon="-0.86143">
        <ele>244.8</ele>
        <time>2025-07-23T06:13:27Z</time>
      </trkpt>
      <trkpt lat="43.11411" lon="-0.8615">
        <ele>245</ele>
        <time>2025-07-23T06:13:31Z</time>
      </trkpt>
      <trkpt lat="43.11415" lon="-0.86151">
        <ele>245.4</ele>
        <time>2025-07-23T06:13:32Z</time>
      </trkpt>
      <trkpt lat="43.11427" lon="-0.86155">
        <ele>245.4</ele>
        <time>2025-07-23T06:13:36Z</time>
      </trkpt>
      <trkpt lat="43.11435" lon="-0.86159">
        <ele>245.8</ele>
        <time>2025-07-23T06:13:39Z</time>
      </trkpt>
      <trkpt lat="43.11439" lon="-0.86161">
        <ele>246</ele>
        <time>2025-07-23T06:13:41Z</time>
      </trkpt>
      <trkpt lat="43.11445" lon="-0.86164">
        <ele>247</ele>
        <time>2025-07-23T06:13:47Z</time>
      </trkpt>
      <trkpt lat="43.11454" lon="-0.86166">
        <ele>247.2</ele>
        <time>2025-07-23T06:13:51Z</time>
      </trkpt>
      <trkpt lat="43.1147" lon="-0.86175">
        <ele>247.2</ele>
        <time>2025-07-23T06:13:55Z</time>
      </trkpt>
      <trkpt lat="43.11474" lon="-0.86178">
        <ele>247.2</ele>
        <time>2025-07-23T06:13:56Z</time>
      </trkpt>
      <trkpt lat="43.11511" lon="-0.86204">
        <ele>246.8</ele>
        <time>2025-07-23T06:14:05Z</time>
      </trkpt>
      <trkpt lat="43.11525" lon="-0.86212">
        <ele>246.6</ele>
        <time>2025-07-23T06:14:08Z</time>
      </trkpt>
      <trkpt lat="43.11533" lon="-0.8622">
        <ele>246.6</ele>
        <time>2025-07-23T06:14:10Z</time>
      </trkpt>
      <trkpt lat="43.11565" lon="-0.8626">
        <ele>246.2</ele>
        <time>2025-07-23T06:14:18Z</time>
      </trkpt>
      <trkpt lat="43.11579" lon="-0.86275">
        <ele>246</ele>
        <time>2025-07-23T06:14:21Z</time>
      </trkpt>
      <trkpt lat="43.11587" lon="-0.86284">
        <ele>245.4</ele>
        <time>2025-07-23T06:14:23Z</time>
      </trkpt>
      <trkpt lat="43.11595" lon="-0.86291">
        <ele>245</ele>
        <time>2025-07-23T06:14:25Z</time>
      </trkpt>
      <trkpt lat="43.116" lon="-0.86293">
        <ele>244.4</ele>
        <time>2025-07-23T06:14:26Z</time>
      </trkpt>
      <trkpt lat="43.11604" lon="-0.86295">
        <ele>244</ele>
        <time>2025-07-23T06:14:27Z</time>
      </trkpt>
      <trkpt lat="43.11609" lon="-0.86297">
        <ele>243.8</ele>
        <time>2025-07-23T06:14:28Z</time>
      </trkpt>
      <trkpt lat="43.11622" lon="-0.86302">
        <ele>243.2</ele>
        <time>2025-07-23T06:14:31Z</time>
      </trkpt>
      <trkpt lat="43.11628" lon="-0.86305">
        <ele>243</ele>
        <time>2025-07-23T06:14:32Z</time>
      </trkpt>
      <trkpt lat="43.11633" lon="-0.86305">
        <ele>242.8</ele>
        <time>2025-07-23T06:14:33Z</time>
      </trkpt>
      <trkpt lat="43.11637" lon="-0.86306">
        <ele>242.4</ele>
        <time>2025-07-23T06:14:34Z</time>
      </trkpt>
      <trkpt lat="43.11646" lon="-0.86314">
        <ele>241.8</ele>
        <time>2025-07-23T06:14:36Z</time>
      </trkpt>
      <trkpt lat="43.11649" lon="-0.8632">
        <ele>241.8</ele>
        <time>2025-07-23T06:14:37Z</time>
      </trkpt>
      <trkpt lat="43.11654" lon="-0.86332">
        <ele>241.6</ele>
        <time>2025-07-23T06:14:39Z</time>
      </trkpt>
      <trkpt lat="43.1166" lon="-0.86349">
        <ele>240.6</ele>
        <time>2025-07-23T06:14:42Z</time>
      </trkpt>
      <trkpt lat="43.11665" lon="-0.86362">
        <ele>240</ele>
        <time>2025-07-23T06:14:44Z</time>
      </trkpt>
      <trkpt lat="43.11673" lon="-0.86373">
        <ele>239.6</ele>
        <time>2025-07-23T06:14:46Z</time>
      </trkpt>
      <trkpt lat="43.11677" lon="-0.86376">
        <ele>239.2</ele>
        <time>2025-07-23T06:14:47Z</time>
      </trkpt>
      <trkpt lat="43.11683" lon="-0.8638">
        <ele>238.8</ele>
        <time>2025-07-23T06:14:48Z</time>
      </trkpt>
      <trkpt lat="43.11695" lon="-0.86387">
        <ele>238.4</ele>
        <time>2025-07-23T06:14:50Z</time>
      </trkpt>
      <trkpt lat="43.1171" lon="-0.86396">
        <ele>237.6</ele>
        <time>2025-07-23T06:14:53Z</time>
      </trkpt>
      <trkpt lat="43.11726" lon="-0.86406">
        <ele>237.4</ele>
        <time>2025-07-23T06:14:57Z</time>
      </trkpt>
      <trkpt lat="43.11736" lon="-0.86415">
        <ele>237.2</ele>
        <time>2025-07-23T06:14:58Z</time>
      </trkpt>
      <trkpt lat="43.11746" lon="-0.86423">
        <ele>237.2</ele>
        <time>2025-07-23T06:15:00Z</time>
      </trkpt>
      <trkpt lat="43.11774" lon="-0.86444">
        <ele>237.2</ele>
        <time>2025-07-23T06:15:06Z</time>
      </trkpt>
      <trkpt lat="43.11787" lon="-0.86451">
        <ele>238</ele>
        <time>2025-07-23T06:15:09Z</time>
      </trkpt>
      <trkpt lat="43.11795" lon="-0.86457">
        <ele>238.6</ele>
        <time>2025-07-23T06:15:11Z</time>
      </trkpt>
      <trkpt lat="43.11799" lon="-0.8646">
        <ele>238.8</ele>
        <time>2025-07-23T06:15:12Z</time>
      </trkpt>
      <trkpt lat="43.11822" lon="-0.86474">
        <ele>239.6</ele>
        <time>2025-07-23T06:15:17Z</time>
      </trkpt>
      <trkpt lat="43.11827" lon="-0.86477">
        <ele>240</ele>
        <time>2025-07-23T06:15:18Z</time>
      </trkpt>
      <trkpt lat="43.11837" lon="-0.86485">
        <ele>240.2</ele>
        <time>2025-07-23T06:15:20Z</time>
      </trkpt>
      <trkpt lat="43.11869" lon="-0.86506">
        <ele>240.2</ele>
        <time>2025-07-23T06:15:26Z</time>
      </trkpt>
      <trkpt lat="43.11913" lon="-0.86545">
        <ele>239.2</ele>
        <time>2025-07-23T06:15:35Z</time>
      </trkpt>
      <trkpt lat="43.11945" lon="-0.86576">
        <ele>239.6</ele>
        <time>2025-07-23T06:15:42Z</time>
      </trkpt>
      <trkpt lat="43.11956" lon="-0.8659">
        <ele>240</ele>
        <time>2025-07-23T06:15:45Z</time>
      </trkpt>
      <trkpt lat="43.11964" lon="-0.866">
        <ele>240.2</ele>
        <time>2025-07-23T06:15:47Z</time>
      </trkpt>
      <trkpt lat="43.11981" lon="-0.86633">
        <ele>240.2</ele>
        <time>2025-07-23T06:15:52Z</time>
      </trkpt>
      <trkpt lat="43.11994" lon="-0.86657">
        <ele>239.6</ele>
        <time>2025-07-23T06:15:55Z</time>
      </trkpt>
      <trkpt lat="43.12006" lon="-0.86671">
        <ele>239.2</ele>
        <time>2025-07-23T06:15:57Z</time>
      </trkpt>
      <trkpt lat="43.12012" lon="-0.86678">
        <ele>238.6</ele>
        <time>2025-07-23T06:15:58Z</time>
      </trkpt>
      <trkpt lat="43.12026" lon="-0.86692">
        <ele>237.4</ele>
        <time>2025-07-23T06:16:00Z</time>
      </trkpt>
      <trkpt lat="43.1204" lon="-0.86707">
        <ele>236.4</ele>
        <time>2025-07-23T06:16:02Z</time>
      </trkpt>
      <trkpt lat="43.12047" lon="-0.86714">
        <ele>235.8</ele>
        <time>2025-07-23T06:16:03Z</time>
      </trkpt>
      <trkpt lat="43.12059" lon="-0.86728">
        <ele>235</ele>
        <time>2025-07-23T06:16:05Z</time>
      </trkpt>
      <trkpt lat="43.12081" lon="-0.86754">
        <ele>234.2</ele>
        <time>2025-07-23T06:16:09Z</time>
      </trkpt>
      <trkpt lat="43.12105" lon="-0.86793">
        <ele>234.6</ele>
        <time>2025-07-23T06:16:15Z</time>
      </trkpt>
      <trkpt lat="43.12115" lon="-0.86815">
        <ele>234.8</ele>
        <time>2025-07-23T06:16:18Z</time>
      </trkpt>
      <trkpt lat="43.12137" lon="-0.8686">
        <ele>235</ele>
        <time>2025-07-23T06:16:24Z</time>
      </trkpt>
      <trkpt lat="43.12167" lon="-0.8692">
        <ele>235.2</ele>
        <time>2025-07-23T06:16:32Z</time>
      </trkpt>
      <trkpt lat="43.12197" lon="-0.86978">
        <ele>235.8</ele>
        <time>2025-07-23T06:16:41Z</time>
      </trkpt>
      <trkpt lat="43.12202" lon="-0.8699">
        <ele>236.2</ele>
        <time>2025-07-23T06:16:43Z</time>
      </trkpt>
      <trkpt lat="43.12212" lon="-0.87014">
        <ele>236.8</ele>
        <time>2025-07-23T06:16:47Z</time>
      </trkpt>
      <trkpt lat="43.12214" lon="-0.8702">
        <ele>237</ele>
        <time>2025-07-23T06:16:48Z</time>
      </trkpt>
      <trkpt lat="43.12218" lon="-0.87032">
        <ele>237.4</ele>
        <time>2025-07-23T06:16:50Z</time>
      </trkpt>
      <trkpt lat="43.12226" lon="-0.87062">
        <ele>238.6</ele>
        <time>2025-07-23T06:16:55Z</time>
      </trkpt>
      <trkpt lat="43.12231" lon="-0.87081">
        <ele>239.2</ele>
        <time>2025-07-23T06:16:58Z</time>
      </trkpt>
      <trkpt lat="43.1224" lon="-0.87112">
        <ele>239.6</ele>
        <time>2025-07-23T06:17:03Z</time>
      </trkpt>
      <trkpt lat="43.12247" lon="-0.8714">
        <ele>240</ele>
        <time>2025-07-23T06:17:07Z</time>
      </trkpt>
      <trkpt lat="43.12263" lon="-0.87202">
        <ele>240.2</ele>
        <time>2025-07-23T06:17:16Z</time>
      </trkpt>
      <trkpt lat="43.12283" lon="-0.87275">
        <ele>240.2</ele>
        <time>2025-07-23T06:17:26Z</time>
      </trkpt>
      <trkpt lat="43.12298" lon="-0.87329">
        <ele>240.6</ele>
        <time>2025-07-23T06:17:33Z</time>
      </trkpt>
      <trkpt lat="43.123" lon="-0.87337">
        <ele>240.6</ele>
        <time>2025-07-23T06:17:34Z</time>
      </trkpt>
      <trkpt lat="43.1232" lon="-0.87408">
        <ele>240.4</ele>
        <time>2025-07-23T06:17:43Z</time>
      </trkpt>
      <trkpt lat="43.12345" lon="-0.87477">
        <ele>240.2</ele>
        <time>2025-07-23T06:17:52Z</time>
      </trkpt>
      <trkpt lat="43.12362" lon="-0.87504">
        <ele>240.2</ele>
        <time>2025-07-23T06:17:56Z</time>
      </trkpt>
      <trkpt lat="43.12373" lon="-0.87515">
        <ele>240.2</ele>
        <time>2025-07-23T06:17:58Z</time>
      </trkpt>
      <trkpt lat="43.12396" lon="-0.87535">
        <ele>240.4</ele>
        <time>2025-07-23T06:18:02Z</time>
      </trkpt>
      <trkpt lat="43.12408" lon="-0.87541">
        <ele>240.4</ele>
        <time>2025-07-23T06:18:04Z</time>
      </trkpt>
      <trkpt lat="43.1245" lon="-0.87554">
        <ele>240</ele>
        <time>2025-07-23T06:18:10Z</time>
      </trkpt>
      <trkpt lat="43.12472" lon="-0.87558">
        <ele>239.8</ele>
        <time>2025-07-23T06:18:13Z</time>
      </trkpt>
      <trkpt lat="43.12532" lon="-0.87569">
        <ele>239.2</ele>
        <time>2025-07-23T06:18:21Z</time>
      </trkpt>
      <trkpt lat="43.12592" lon="-0.87577">
        <ele>238.8</ele>
        <time>2025-07-23T06:18:29Z</time>
      </trkpt>
      <trkpt lat="43.12619" lon="-0.8758">
        <ele>238.8</ele>
        <time>2025-07-23T06:18:33Z</time>
      </trkpt>
      <trkpt lat="43.12676" lon="-0.87587">
        <ele>239.2</ele>
        <time>2025-07-23T06:18:41Z</time>
      </trkpt>
      <trkpt lat="43.12734" lon="-0.87593">
        <ele>239.6</ele>
        <time>2025-07-23T06:18:49Z</time>
      </trkpt>
      <trkpt lat="43.12789" lon="-0.87598">
        <ele>239.2</ele>
        <time>2025-07-23T06:18:56Z</time>
      </trkpt>
      <trkpt lat="43.12797" lon="-0.87599">
        <ele>239</ele>
        <time>2025-07-23T06:18:57Z</time>
      </trkpt>
      <trkpt lat="43.12804" lon="-0.87599">
        <ele>238.8</ele>
        <time>2025-07-23T06:18:58Z</time>
      </trkpt>
      <trkpt lat="43.12857" lon="-0.87603">
        <ele>237.8</ele>
        <time>2025-07-23T06:19:05Z</time>
      </trkpt>
      <trkpt lat="43.12874" lon="-0.87606">
        <ele>237.4</ele>
        <time>2025-07-23T06:19:07Z</time>
      </trkpt>
      <trkpt lat="43.12933" lon="-0.87616">
        <ele>237.2</ele>
        <time>2025-07-23T06:19:15Z</time>
      </trkpt>
      <trkpt lat="43.12989" lon="-0.87623">
        <ele>236.8</ele>
        <time>2025-07-23T06:19:22Z</time>
      </trkpt>
      <trkpt lat="43.13003" lon="-0.87625">
        <ele>236.6</ele>
        <time>2025-07-23T06:19:24Z</time>
      </trkpt>
      <trkpt lat="43.13062" lon="-0.87633">
        <ele>236</ele>
        <time>2025-07-23T06:19:32Z</time>
      </trkpt>
      <trkpt lat="43.13071" lon="-0.87636">
        <ele>235.8</ele>
        <time>2025-07-23T06:19:33Z</time>
      </trkpt>
      <trkpt lat="43.13085" lon="-0.87644">
        <ele>235.6</ele>
        <time>2025-07-23T06:19:35Z</time>
      </trkpt>
      <trkpt lat="43.13099" lon="-0.87655">
        <ele>235.6</ele>
        <time>2025-07-23T06:19:37Z</time>
      </trkpt>
      <trkpt lat="43.13105" lon="-0.87661">
        <ele>235.4</ele>
        <time>2025-07-23T06:19:38Z</time>
      </trkpt>
      <trkpt lat="43.13125" lon="-0.87676">
        <ele>235.2</ele>
        <time>2025-07-23T06:19:41Z</time>
      </trkpt>
      <trkpt lat="43.13132" lon="-0.87679">
        <ele>235.2</ele>
        <time>2025-07-23T06:19:42Z</time>
      </trkpt>
      <trkpt lat="43.1314" lon="-0.8768">
        <ele>235</ele>
        <time>2025-07-23T06:19:43Z</time>
      </trkpt>
      <trkpt lat="43.13166" lon="-0.87678">
        <ele>234.4</ele>
        <time>2025-07-23T06:19:46Z</time>
      </trkpt>
      <trkpt lat="43.13218" lon="-0.87674">
        <ele>233.8</ele>
        <time>2025-07-23T06:19:53Z</time>
      </trkpt>
      <trkpt lat="43.13257" lon="-0.87671">
        <ele>233.6</ele>
        <time>2025-07-23T06:19:58Z</time>
      </trkpt>
      <trkpt lat="43.13274" lon="-0.87669">
        <ele>233.4</ele>
        <time>2025-07-23T06:20:00Z</time>
      </trkpt>
      <trkpt lat="43.13329" lon="-0.87661">
        <ele>232.6</ele>
        <time>2025-07-23T06:20:07Z</time>
      </trkpt>
      <trkpt lat="43.13344" lon="-0.87659">
        <ele>232.2</ele>
        <time>2025-07-23T06:20:09Z</time>
      </trkpt>
      <trkpt lat="43.13391" lon="-0.87652">
        <ele>231.6</ele>
        <time>2025-07-23T06:20:15Z</time>
      </trkpt>
      <trkpt lat="43.134" lon="-0.87651">
        <ele>231.4</ele>
        <time>2025-07-23T06:20:16Z</time>
      </trkpt>
      <trkpt lat="43.13415" lon="-0.87644">
        <ele>231.4</ele>
        <time>2025-07-23T06:20:18Z</time>
      </trkpt>
      <trkpt lat="43.13421" lon="-0.8764">
        <ele>231.2</ele>
        <time>2025-07-23T06:20:19Z</time>
      </trkpt>
      <trkpt lat="43.13428" lon="-0.87634">
        <ele>231</ele>
        <time>2025-07-23T06:20:20Z</time>
      </trkpt>
      <trkpt lat="43.13442" lon="-0.87619">
        <ele>230.4</ele>
        <time>2025-07-23T06:20:22Z</time>
      </trkpt>
      <trkpt lat="43.13448" lon="-0.87611">
        <ele>230.2</ele>
        <time>2025-07-23T06:20:23Z</time>
      </trkpt>
      <trkpt lat="43.13485" lon="-0.87564">
        <ele>229.4</ele>
        <time>2025-07-23T06:20:29Z</time>
      </trkpt>
      <trkpt lat="43.13496" lon="-0.87552">
        <ele>229.2</ele>
        <time>2025-07-23T06:20:31Z</time>
      </trkpt>
      <trkpt lat="43.13511" lon="-0.87541">
        <ele>228.8</ele>
        <time>2025-07-23T06:20:33Z</time>
      </trkpt>
      <trkpt lat="43.13517" lon="-0.87538">
        <ele>228.8</ele>
        <time>2025-07-23T06:20:34Z</time>
      </trkpt>
      <trkpt lat="43.13523" lon="-0.87537">
        <ele>228.8</ele>
        <time>2025-07-23T06:20:35Z</time>
      </trkpt>
      <trkpt lat="43.13547" lon="-0.87536">
        <ele>228.8</ele>
        <time>2025-07-23T06:20:38Z</time>
      </trkpt>
      <trkpt lat="43.13605" lon="-0.87544">
        <ele>228.8</ele>
        <time>2025-07-23T06:20:46Z</time>
      </trkpt>
      <trkpt lat="43.13663" lon="-0.87556">
        <ele>228.6</ele>
        <time>2025-07-23T06:20:54Z</time>
      </trkpt>
      <trkpt lat="43.1367" lon="-0.87559">
        <ele>228.6</ele>
        <time>2025-07-23T06:20:55Z</time>
      </trkpt>
      <trkpt lat="43.13727" lon="-0.87586">
        <ele>228.8</ele>
        <time>2025-07-23T06:21:04Z</time>
      </trkpt>
      <trkpt lat="43.13734" lon="-0.8759">
        <ele>228.8</ele>
        <time>2025-07-23T06:21:05Z</time>
      </trkpt>
      <trkpt lat="43.13785" lon="-0.87617">
        <ele>229</ele>
        <time>2025-07-23T06:21:13Z</time>
      </trkpt>
      <trkpt lat="43.13818" lon="-0.87634">
        <ele>229</ele>
        <time>2025-07-23T06:21:18Z</time>
      </trkpt>
      <trkpt lat="43.13845" lon="-0.87649">
        <ele>229</ele>
        <time>2025-07-23T06:21:22Z</time>
      </trkpt>
      <trkpt lat="43.13896" lon="-0.87676">
        <ele>229</ele>
        <time>2025-07-23T06:21:30Z</time>
      </trkpt>
      <trkpt lat="43.13923" lon="-0.8769">
        <ele>228.8</ele>
        <time>2025-07-23T06:21:34Z</time>
      </trkpt>
      <trkpt lat="43.13945" lon="-0.87702">
        <ele>228.6</ele>
        <time>2025-07-23T06:21:37Z</time>
      </trkpt>
      <trkpt lat="43.13991" lon="-0.87728">
        <ele>227.4</ele>
        <time>2025-07-23T06:21:43Z</time>
      </trkpt>
      <trkpt lat="43.14022" lon="-0.87745">
        <ele>226.2</ele>
        <time>2025-07-23T06:21:47Z</time>
      </trkpt>
      <trkpt lat="43.1404" lon="-0.87755">
        <ele>225.2</ele>
        <time>2025-07-23T06:21:49Z</time>
      </trkpt>
      <trkpt lat="43.14047" lon="-0.87758">
        <ele>225</ele>
        <time>2025-07-23T06:21:50Z</time>
      </trkpt>
      <trkpt lat="43.14085" lon="-0.8778">
        <ele>224.2</ele>
        <time>2025-07-23T06:21:55Z</time>
      </trkpt>
      <trkpt lat="43.1409" lon="-0.87784">
        <ele>224.2</ele>
        <time>2025-07-23T06:21:56Z</time>
      </trkpt>
      <trkpt lat="43.14125" lon="-0.87816">
        <ele>224.4</ele>
        <time>2025-07-23T06:22:02Z</time>
      </trkpt>
      <trkpt lat="43.14152" lon="-0.87854">
        <ele>225.2</ele>
        <time>2025-07-23T06:22:08Z</time>
      </trkpt>
      <trkpt lat="43.14184" lon="-0.87917">
        <ele>226</ele>
        <time>2025-07-23T06:22:16Z</time>
      </trkpt>
      <trkpt lat="43.14214" lon="-0.87982">
        <ele>225.6</ele>
        <time>2025-07-23T06:22:24Z</time>
      </trkpt>
      <trkpt lat="43.14219" lon="-0.87992">
        <ele>225.6</ele>
        <time>2025-07-23T06:22:25Z</time>
      </trkpt>
      <trkpt lat="43.14249" lon="-0.88058">
        <ele>225.2</ele>
        <time>2025-07-23T06:22:33Z</time>
      </trkpt>
      <trkpt lat="43.14253" lon="-0.88066">
        <ele>225.2</ele>
        <time>2025-07-23T06:22:34Z</time>
      </trkpt>
      <trkpt lat="43.14284" lon="-0.88135">
        <ele>225.2</ele>
        <time>2025-07-23T06:22:42Z</time>
      </trkpt>
      <trkpt lat="43.14295" lon="-0.88161">
        <ele>225</ele>
        <time>2025-07-23T06:22:45Z</time>
      </trkpt>
      <trkpt lat="43.14327" lon="-0.8823">
        <ele>224.6</ele>
        <time>2025-07-23T06:22:53Z</time>
      </trkpt>
      <trkpt lat="43.1435" lon="-0.88282">
        <ele>224.4</ele>
        <time>2025-07-23T06:22:59Z</time>
      </trkpt>
      <trkpt lat="43.14365" lon="-0.88315">
        <ele>224</ele>
        <time>2025-07-23T06:23:03Z</time>
      </trkpt>
      <trkpt lat="43.14398" lon="-0.88381">
        <ele>223.6</ele>
        <time>2025-07-23T06:23:11Z</time>
      </trkpt>
      <trkpt lat="43.14402" lon="-0.88389">
        <ele>223.6</ele>
        <time>2025-07-23T06:23:12Z</time>
      </trkpt>
      <trkpt lat="43.14417" lon="-0.88423">
        <ele>223.6</ele>
        <time>2025-07-23T06:23:16Z</time>
      </trkpt>
      <trkpt lat="43.14431" lon="-0.88456">
        <ele>223.4</ele>
        <time>2025-07-23T06:23:20Z</time>
      </trkpt>
      <trkpt lat="43.14463" lon="-0.88524">
        <ele>223</ele>
        <time>2025-07-23T06:23:28Z</time>
      </trkpt>
      <trkpt lat="43.14492" lon="-0.88595">
        <ele>222.8</ele>
        <time>2025-07-23T06:23:36Z</time>
      </trkpt>
      <trkpt lat="43.14501" lon="-0.88622">
        <ele>222.6</ele>
        <time>2025-07-23T06:23:39Z</time>
      </trkpt>
      <trkpt lat="43.14516" lon="-0.8867">
        <ele>221.8</ele>
        <time>2025-07-23T06:23:44Z</time>
      </trkpt>
      <trkpt lat="43.14532" lon="-0.88718">
        <ele>221.4</ele>
        <time>2025-07-23T06:23:49Z</time>
      </trkpt>
      <trkpt lat="43.14535" lon="-0.88728">
        <ele>221.4</ele>
        <time>2025-07-23T06:23:50Z</time>
      </trkpt>
      <trkpt lat="43.14559" lon="-0.88804">
        <ele>220.8</ele>
        <time>2025-07-23T06:23:58Z</time>
      </trkpt>
      <trkpt lat="43.14571" lon="-0.8884">
        <ele>220.6</ele>
        <time>2025-07-23T06:24:02Z</time>
      </trkpt>
      <trkpt lat="43.146" lon="-0.88909">
        <ele>220.6</ele>
        <time>2025-07-23T06:24:10Z</time>
      </trkpt>
      <trkpt lat="43.14628" lon="-0.88942">
        <ele>220.4</ele>
        <time>2025-07-23T06:24:15Z</time>
      </trkpt>
      <trkpt lat="43.14635" lon="-0.88947">
        <ele>220.4</ele>
        <time>2025-07-23T06:24:16Z</time>
      </trkpt>
      <trkpt lat="43.14656" lon="-0.88957">
        <ele>220</ele>
        <time>2025-07-23T06:24:19Z</time>
      </trkpt>
      <trkpt lat="43.14694" lon="-0.88961">
        <ele>219.6</ele>
        <time>2025-07-23T06:24:24Z</time>
      </trkpt>
      <trkpt lat="43.14711" lon="-0.8896">
        <ele>219.4</ele>
        <time>2025-07-23T06:24:26Z</time>
      </trkpt>
      <trkpt lat="43.14766" lon="-0.88951">
        <ele>218.6</ele>
        <time>2025-07-23T06:24:33Z</time>
      </trkpt>
      <trkpt lat="43.14788" lon="-0.8895">
        <ele>218.2</ele>
        <time>2025-07-23T06:24:36Z</time>
      </trkpt>
      <trkpt lat="43.14814" lon="-0.88953">
        <ele>217.8</ele>
        <time>2025-07-23T06:24:39Z</time>
      </trkpt>
      <trkpt lat="43.14868" lon="-0.88968">
        <ele>217.2</ele>
        <time>2025-07-23T06:24:46Z</time>
      </trkpt>
      <trkpt lat="43.14923" lon="-0.88983">
        <ele>216.8</ele>
        <time>2025-07-23T06:24:53Z</time>
      </trkpt>
      <trkpt lat="43.14953" lon="-0.88992">
        <ele>216.4</ele>
        <time>2025-07-23T06:24:57Z</time>
      </trkpt>
      <trkpt lat="43.14961" lon="-0.88994">
        <ele>216.4</ele>
        <time>2025-07-23T06:24:58Z</time>
      </trkpt>
      <trkpt lat="43.14998" lon="-0.89005">
        <ele>216</ele>
        <time>2025-07-23T06:25:03Z</time>
      </trkpt>
      <trkpt lat="43.15035" lon="-0.89015">
        <ele>216.2</ele>
        <time>2025-07-23T06:25:08Z</time>
      </trkpt>
      <trkpt lat="43.15043" lon="-0.89016">
        <ele>216.2</ele>
        <time>2025-07-23T06:25:09Z</time>
      </trkpt>
      <trkpt lat="43.15104" lon="-0.89026">
        <ele>215.8</ele>
        <time>2025-07-23T06:25:17Z</time>
      </trkpt>
      <trkpt lat="43.15134" lon="-0.89032">
        <ele>215.8</ele>
        <time>2025-07-23T06:25:21Z</time>
      </trkpt>
      <trkpt lat="43.15172" lon="-0.89039">
        <ele>215.4</ele>
        <time>2025-07-23T06:25:26Z</time>
      </trkpt>
      <trkpt lat="43.15196" lon="-0.89043">
        <ele>215.2</ele>
        <time>2025-07-23T06:25:29Z</time>
      </trkpt>
      <trkpt lat="43.15242" lon="-0.89056">
        <ele>214.8</ele>
        <time>2025-07-23T06:25:35Z</time>
      </trkpt>
      <trkpt lat="43.15249" lon="-0.8906">
        <ele>214.8</ele>
        <time>2025-07-23T06:25:36Z</time>
      </trkpt>
      <trkpt lat="43.15293" lon="-0.89076">
        <ele>214.6</ele>
        <time>2025-07-23T06:25:42Z</time>
      </trkpt>
      <trkpt lat="43.15353" lon="-0.89092">
        <ele>214.6</ele>
        <time>2025-07-23T06:25:50Z</time>
      </trkpt>
      <trkpt lat="43.15361" lon="-0.89095">
        <ele>214.6</ele>
        <time>2025-07-23T06:25:51Z</time>
      </trkpt>
      <trkpt lat="43.15368" lon="-0.89096">
        <ele>214.6</ele>
        <time>2025-07-23T06:25:52Z</time>
      </trkpt>
      <trkpt lat="43.15407" lon="-0.89102">
        <ele>214.2</ele>
        <time>2025-07-23T06:25:57Z</time>
      </trkpt>
      <trkpt lat="43.15461" lon="-0.89113">
        <ele>214</ele>
        <time>2025-07-23T06:26:04Z</time>
      </trkpt>
      <trkpt lat="43.15484" lon="-0.89118">
        <ele>213.6</ele>
        <time>2025-07-23T06:26:07Z</time>
      </trkpt>
      <trkpt lat="43.15531" lon="-0.89128">
        <ele>213.4</ele>
        <time>2025-07-23T06:26:13Z</time>
      </trkpt>
      <trkpt lat="43.15574" lon="-0.89137">
        <ele>213</ele>
        <time>2025-07-23T06:26:18Z</time>
      </trkpt>
      <trkpt lat="43.15601" lon="-0.89143">
        <ele>212.4</ele>
        <time>2025-07-23T06:26:21Z</time>
      </trkpt>
      <trkpt lat="43.15639" lon="-0.89156">
        <ele>211</ele>
        <time>2025-07-23T06:26:25Z</time>
      </trkpt>
      <trkpt lat="43.15689" lon="-0.89175">
        <ele>209.8</ele>
        <time>2025-07-23T06:26:30Z</time>
      </trkpt>
      <trkpt lat="43.15699" lon="-0.89179">
        <ele>209.2</ele>
        <time>2025-07-23T06:26:31Z</time>
      </trkpt>
      <trkpt lat="43.15729" lon="-0.89189">
        <ele>208.4</ele>
        <time>2025-07-23T06:26:34Z</time>
      </trkpt>
      <trkpt lat="43.15757" lon="-0.89198">
        <ele>207.2</ele>
        <time>2025-07-23T06:26:37Z</time>
      </trkpt>
      <trkpt lat="43.15774" lon="-0.89204">
        <ele>206.6</ele>
        <time>2025-07-23T06:26:39Z</time>
      </trkpt>
      <trkpt lat="43.15817" lon="-0.8922">
        <ele>206.2</ele>
        <time>2025-07-23T06:26:44Z</time>
      </trkpt>
      <trkpt lat="43.1584" lon="-0.89229">
        <ele>206.2</ele>
        <time>2025-07-23T06:26:47Z</time>
      </trkpt>
      <trkpt lat="43.15874" lon="-0.89243">
        <ele>206.2</ele>
        <time>2025-07-23T06:26:52Z</time>
      </trkpt>
      <trkpt lat="43.15913" lon="-0.89247">
        <ele>207</ele>
        <time>2025-07-23T06:26:58Z</time>
      </trkpt>
      <trkpt lat="43.15924" lon="-0.89248">
        <ele>207.2</ele>
        <time>2025-07-23T06:27:00Z</time>
      </trkpt>
      <trkpt lat="43.15954" lon="-0.89251">
        <ele>208</ele>
        <time>2025-07-23T06:27:05Z</time>
      </trkpt>
      <trkpt lat="43.15966" lon="-0.89252">
        <ele>208.4</ele>
        <time>2025-07-23T06:27:07Z</time>
      </trkpt>
      <trkpt lat="43.15973" lon="-0.89252">
        <ele>208.4</ele>
        <time>2025-07-23T06:27:08Z</time>
      </trkpt>
      <trkpt lat="43.15983" lon="-0.89249">
        <ele>208.8</ele>
        <time>2025-07-23T06:27:10Z</time>
      </trkpt>
      <trkpt lat="43.15988" lon="-0.89247">
        <ele>208.8</ele>
        <time>2025-07-23T06:27:11Z</time>
      </trkpt>
      <trkpt lat="43.16015" lon="-0.89235">
        <ele>209.4</ele>
        <time>2025-07-23T06:27:16Z</time>
      </trkpt>
      <trkpt lat="43.16034" lon="-0.89227">
        <ele>210.4</ele>
        <time>2025-07-23T06:27:20Z</time>
      </trkpt>
      <trkpt lat="43.16039" lon="-0.89226">
        <ele>210.6</ele>
        <time>2025-07-23T06:27:21Z</time>
      </trkpt>
      <trkpt lat="43.16082" lon="-0.89222">
        <ele>211.4</ele>
        <time>2025-07-23T06:27:29Z</time>
      </trkpt>
      <trkpt lat="43.16088" lon="-0.89222">
        <ele>211.6</ele>
        <time>2025-07-23T06:27:30Z</time>
      </trkpt>
      <trkpt lat="43.16094" lon="-0.89222">
        <ele>211.6</ele>
        <time>2025-07-23T06:27:31Z</time>
      </trkpt>
      <trkpt lat="43.16113" lon="-0.89226">
        <ele>211.6</ele>
        <time>2025-07-23T06:27:34Z</time>
      </trkpt>
      <trkpt lat="43.16156" lon="-0.89236">
        <ele>211.4</ele>
        <time>2025-07-23T06:27:41Z</time>
      </trkpt>
      <trkpt lat="43.16204" lon="-0.89244">
        <ele>211.2</ele>
        <time>2025-07-23T06:27:48Z</time>
      </trkpt>
      <trkpt lat="43.16259" lon="-0.89236">
        <ele>210.8</ele>
        <time>2025-07-23T06:27:56Z</time>
      </trkpt>
      <trkpt lat="43.16314" lon="-0.89231">
        <ele>210.8</ele>
        <time>2025-07-23T06:28:04Z</time>
      </trkpt>
      <trkpt lat="43.16329" lon="-0.89231">
        <ele>210.6</ele>
        <time>2025-07-23T06:28:06Z</time>
      </trkpt>
      <trkpt lat="43.16345" lon="-0.89231">
        <ele>210.6</ele>
        <time>2025-07-23T06:28:08Z</time>
      </trkpt>
      <trkpt lat="43.16393" lon="-0.8923">
        <ele>209.6</ele>
        <time>2025-07-23T06:28:14Z</time>
      </trkpt>
      <trkpt lat="43.16401" lon="-0.8923">
        <ele>209.4</ele>
        <time>2025-07-23T06:28:15Z</time>
      </trkpt>
      <trkpt lat="43.16424" lon="-0.8923">
        <ele>209.2</ele>
        <time>2025-07-23T06:28:18Z</time>
      </trkpt>
      <trkpt lat="43.1644" lon="-0.89235">
        <ele>209</ele>
        <time>2025-07-23T06:28:20Z</time>
      </trkpt>
      <trkpt lat="43.16493" lon="-0.89257">
        <ele>208.4</ele>
        <time>2025-07-23T06:28:27Z</time>
      </trkpt>
      <trkpt lat="43.165" lon="-0.89261">
        <ele>208.4</ele>
        <time>2025-07-23T06:28:28Z</time>
      </trkpt>
      <trkpt lat="43.16509" lon="-0.89266">
        <ele>208.2</ele>
        <time>2025-07-23T06:28:29Z</time>
      </trkpt>
      <trkpt lat="43.16555" lon="-0.89286">
        <ele>207.4</ele>
        <time>2025-07-23T06:28:35Z</time>
      </trkpt>
      <trkpt lat="43.16607" lon="-0.89309">
        <ele>206.8</ele>
        <time>2025-07-23T06:28:42Z</time>
      </trkpt>
      <trkpt lat="43.16621" lon="-0.89314">
        <ele>206.8</ele>
        <time>2025-07-23T06:28:44Z</time>
      </trkpt>
      <trkpt lat="43.16658" lon="-0.89335">
        <ele>207.2</ele>
        <time>2025-07-23T06:28:50Z</time>
      </trkpt>
      <trkpt lat="43.1669" lon="-0.89363">
        <ele>208.2</ele>
        <time>2025-07-23T06:28:56Z</time>
      </trkpt>
      <trkpt lat="43.16734" lon="-0.89412">
        <ele>208.2</ele>
        <time>2025-07-23T06:29:04Z</time>
      </trkpt>
      <trkpt lat="43.16782" lon="-0.89453">
        <ele>207</ele>
        <time>2025-07-23T06:29:11Z</time>
      </trkpt>
      <trkpt lat="43.16789" lon="-0.89459">
        <ele>206.6</ele>
        <time>2025-07-23T06:29:12Z</time>
      </trkpt>
      <trkpt lat="43.16797" lon="-0.89466">
        <ele>206.4</ele>
        <time>2025-07-23T06:29:13Z</time>
      </trkpt>
      <trkpt lat="43.16825" lon="-0.89492">
        <ele>205.2</ele>
        <time>2025-07-23T06:29:17Z</time>
      </trkpt>
      <trkpt lat="43.16848" lon="-0.89513">
        <ele>204.4</ele>
        <time>2025-07-23T06:29:20Z</time>
      </trkpt>
      <trkpt lat="43.16855" lon="-0.8952">
        <ele>204.2</ele>
        <time>2025-07-23T06:29:21Z</time>
      </trkpt>
      <trkpt lat="43.16878" lon="-0.89541">
        <ele>203</ele>
        <time>2025-07-23T06:29:24Z</time>
      </trkpt>
      <trkpt lat="43.16909" lon="-0.8957">
        <ele>202</ele>
        <time>2025-07-23T06:29:28Z</time>
      </trkpt>
      <trkpt lat="43.16934" lon="-0.89589">
        <ele>201</ele>
        <time>2025-07-23T06:29:31Z</time>
      </trkpt>
      <trkpt lat="43.16977" lon="-0.89616">
        <ele>199.8</ele>
        <time>2025-07-23T06:29:36Z</time>
      </trkpt>
      <trkpt lat="43.1702" lon="-0.89625">
        <ele>199</ele>
        <time>2025-07-23T06:29:41Z</time>
      </trkpt>
      <trkpt lat="43.17051" lon="-0.8963">
        <ele>198.8</ele>
        <time>2025-07-23T06:29:45Z</time>
      </trkpt>
      <trkpt lat="43.17074" lon="-0.89633">
        <ele>198.8</ele>
        <time>2025-07-23T06:29:48Z</time>
      </trkpt>
      <trkpt lat="43.17106" lon="-0.89644">
        <ele>199</ele>
        <time>2025-07-23T06:29:53Z</time>
      </trkpt>
      <trkpt lat="43.1712" lon="-0.89655">
        <ele>199.8</ele>
        <time>2025-07-23T06:29:56Z</time>
      </trkpt>
      <trkpt lat="43.1713" lon="-0.89664">
        <ele>200.2</ele>
        <time>2025-07-23T06:29:58Z</time>
      </trkpt>
      <trkpt lat="43.17134" lon="-0.89669">
        <ele>200.4</ele>
        <time>2025-07-23T06:29:59Z</time>
      </trkpt>
      <trkpt lat="43.17145" lon="-0.89683">
        <ele>200.8</ele>
        <time>2025-07-23T06:30:02Z</time>
      </trkpt>
      <trkpt lat="43.1715" lon="-0.89694">
        <ele>201.4</ele>
        <time>2025-07-23T06:30:04Z</time>
      </trkpt>
      <trkpt lat="43.17157" lon="-0.8971">
        <ele>201.8</ele>
        <time>2025-07-23T06:30:07Z</time>
      </trkpt>
      <trkpt lat="43.17165" lon="-0.8973">
        <ele>202.4</ele>
        <time>2025-07-23T06:30:10Z</time>
      </trkpt>
      <trkpt lat="43.17172" lon="-0.89745">
        <ele>203</ele>
        <time>2025-07-23T06:30:13Z</time>
      </trkpt>
      <trkpt lat="43.17176" lon="-0.89751">
        <ele>203.2</ele>
        <time>2025-07-23T06:30:14Z</time>
      </trkpt>
      <trkpt lat="43.17182" lon="-0.8976">
        <ele>203.6</ele>
        <time>2025-07-23T06:30:16Z</time>
      </trkpt>
      <trkpt lat="43.17188" lon="-0.89766">
        <ele>203.8</ele>
        <time>2025-07-23T06:30:18Z</time>
      </trkpt>
      <trkpt lat="43.17197" lon="-0.89771">
        <ele>204</ele>
        <time>2025-07-23T06:30:20Z</time>
      </trkpt>
      <trkpt lat="43.17205" lon="-0.89775">
        <ele>204.2</ele>
        <time>2025-07-23T06:30:22Z</time>
      </trkpt>
      <trkpt lat="43.17209" lon="-0.89776">
        <ele>204.4</ele>
        <time>2025-07-23T06:30:23Z</time>
      </trkpt>
      <trkpt lat="43.17218" lon="-0.89779">
        <ele>204.8</ele>
        <time>2025-07-23T06:30:25Z</time>
      </trkpt>
      <trkpt lat="43.17223" lon="-0.8978">
        <ele>204.8</ele>
        <time>2025-07-23T06:30:26Z</time>
      </trkpt>
      <trkpt lat="43.17242" lon="-0.89785">
        <ele>205.2</ele>
        <time>2025-07-23T06:30:30Z</time>
      </trkpt>
      <trkpt lat="43.17246" lon="-0.89787">
        <ele>205.2</ele>
        <time>2025-07-23T06:30:31Z</time>
      </trkpt>
      <trkpt lat="43.17251" lon="-0.89789">
        <ele>205.2</ele>
        <time>2025-07-23T06:30:32Z</time>
      </trkpt>
      <trkpt lat="43.1726" lon="-0.89795">
        <ele>205.2</ele>
        <time>2025-07-23T06:30:34Z</time>
      </trkpt>
      <trkpt lat="43.17271" lon="-0.89802">
        <ele>205.2</ele>
        <time>2025-07-23T06:30:36Z</time>
      </trkpt>
      <trkpt lat="43.17303" lon="-0.89832">
        <ele>205.2</ele>
        <time>2025-07-23T06:30:42Z</time>
      </trkpt>
      <trkpt lat="43.17342" lon="-0.89863">
        <ele>204</ele>
        <time>2025-07-23T06:30:48Z</time>
      </trkpt>
      <trkpt lat="43.17349" lon="-0.89869">
        <ele>203.8</ele>
        <time>2025-07-23T06:30:49Z</time>
      </trkpt>
      <trkpt lat="43.17385" lon="-0.89899">
        <ele>203</ele>
        <time>2025-07-23T06:30:54Z</time>
      </trkpt>
      <trkpt lat="43.17392" lon="-0.89904">
        <ele>202.6</ele>
        <time>2025-07-23T06:30:55Z</time>
      </trkpt>
      <trkpt lat="43.17408" lon="-0.89914">
        <ele>201.8</ele>
        <time>2025-07-23T06:30:57Z</time>
      </trkpt>
      <trkpt lat="43.17434" lon="-0.89927">
        <ele>200.6</ele>
        <time>2025-07-23T06:31:00Z</time>
      </trkpt>
      <trkpt lat="43.17442" lon="-0.89931">
        <ele>200.2</ele>
        <time>2025-07-23T06:31:01Z</time>
      </trkpt>
      <trkpt lat="43.17469" lon="-0.89942">
        <ele>199.4</ele>
        <time>2025-07-23T06:31:04Z</time>
      </trkpt>
      <trkpt lat="43.17497" lon="-0.89952">
        <ele>198.4</ele>
        <time>2025-07-23T06:31:07Z</time>
      </trkpt>
      <trkpt lat="43.17506" lon="-0.89955">
        <ele>198</ele>
        <time>2025-07-23T06:31:08Z</time>
      </trkpt>
      <trkpt lat="43.17524" lon="-0.89959">
        <ele>197.2</ele>
        <time>2025-07-23T06:31:10Z</time>
      </trkpt>
      <trkpt lat="43.17552" lon="-0.89967">
        <ele>196.2</ele>
        <time>2025-07-23T06:31:13Z</time>
      </trkpt>
      <trkpt lat="43.17577" lon="-0.89976">
        <ele>195.6</ele>
        <time>2025-07-23T06:31:16Z</time>
      </trkpt>
      <trkpt lat="43.17594" lon="-0.89985">
        <ele>195.2</ele>
        <time>2025-07-23T06:31:18Z</time>
      </trkpt>
      <trkpt lat="43.17637" lon="-0.90009">
        <ele>194.8</ele>
        <time>2025-07-23T06:31:24Z</time>
      </trkpt>
      <trkpt lat="43.17671" lon="-0.90032">
        <ele>195</ele>
        <time>2025-07-23T06:31:29Z</time>
      </trkpt>
      <trkpt lat="43.17709" lon="-0.9007">
        <ele>195.6</ele>
        <time>2025-07-23T06:31:36Z</time>
      </trkpt>
      <trkpt lat="43.17745" lon="-0.9011">
        <ele>196.2</ele>
        <time>2025-07-23T06:31:43Z</time>
      </trkpt>
      <trkpt lat="43.17751" lon="-0.90116">
        <ele>196.2</ele>
        <time>2025-07-23T06:31:44Z</time>
      </trkpt>
      <trkpt lat="43.17762" lon="-0.90127">
        <ele>196.4</ele>
        <time>2025-07-23T06:31:46Z</time>
      </trkpt>
      <trkpt lat="43.17786" lon="-0.90148">
        <ele>196.4</ele>
        <time>2025-07-23T06:31:50Z</time>
      </trkpt>
      <trkpt lat="43.178" lon="-0.90156">
        <ele>196.4</ele>
        <time>2025-07-23T06:31:52Z</time>
      </trkpt>
      <trkpt lat="43.17814" lon="-0.90158">
        <ele>196.2</ele>
        <time>2025-07-23T06:31:54Z</time>
      </trkpt>
      <trkpt lat="43.17822" lon="-0.90157">
        <ele>196.2</ele>
        <time>2025-07-23T06:31:55Z</time>
      </trkpt>
      <trkpt lat="43.17883" lon="-0.90148">
        <ele>196</ele>
        <time>2025-07-23T06:32:03Z</time>
      </trkpt>
      <trkpt lat="43.17899" lon="-0.90146">
        <ele>195.8</ele>
        <time>2025-07-23T06:32:05Z</time>
      </trkpt>
      <trkpt lat="43.17916" lon="-0.90148">
        <ele>195.6</ele>
        <time>2025-07-23T06:32:07Z</time>
      </trkpt>
      <trkpt lat="43.17924" lon="-0.90151">
        <ele>195.6</ele>
        <time>2025-07-23T06:32:08Z</time>
      </trkpt>
      <trkpt lat="43.17932" lon="-0.90155">
        <ele>195.2</ele>
        <time>2025-07-23T06:32:09Z</time>
      </trkpt>
      <trkpt lat="43.17938" lon="-0.90158">
        <ele>195</ele>
        <time>2025-07-23T06:32:10Z</time>
      </trkpt>
      <trkpt lat="43.17946" lon="-0.90164">
        <ele>194.8</ele>
        <time>2025-07-23T06:32:11Z</time>
      </trkpt>
      <trkpt lat="43.17954" lon="-0.90172">
        <ele>194.6</ele>
        <time>2025-07-23T06:32:12Z</time>
      </trkpt>
      <trkpt lat="43.17975" lon="-0.90195">
        <ele>193.8</ele>
        <time>2025-07-23T06:32:15Z</time>
      </trkpt>
      <trkpt lat="43.17996" lon="-0.9022">
        <ele>193</ele>
        <time>2025-07-23T06:32:18Z</time>
      </trkpt>
      <trkpt lat="43.18004" lon="-0.90227">
        <ele>192.4</ele>
        <time>2025-07-23T06:32:19Z</time>
      </trkpt>
      <trkpt lat="43.18037" lon="-0.90253">
        <ele>191.2</ele>
        <time>2025-07-23T06:32:23Z</time>
      </trkpt>
      <trkpt lat="43.18064" lon="-0.90266">
        <ele>190</ele>
        <time>2025-07-23T06:32:26Z</time>
      </trkpt>
      <trkpt lat="43.18083" lon="-0.9027">
        <ele>189.2</ele>
        <time>2025-07-23T06:32:28Z</time>
      </trkpt>
      <trkpt lat="43.18093" lon="-0.90272">
        <ele>188.8</ele>
        <time>2025-07-23T06:32:29Z</time>
      </trkpt>
      <trkpt lat="43.18127" lon="-0.90277">
        <ele>187.6</ele>
        <time>2025-07-23T06:32:33Z</time>
      </trkpt>
      <trkpt lat="43.18154" lon="-0.90278">
        <ele>187</ele>
        <time>2025-07-23T06:32:36Z</time>
      </trkpt>
      <trkpt lat="43.18205" lon="-0.90282">
        <ele>186.6</ele>
        <time>2025-07-23T06:32:42Z</time>
      </trkpt>
      <trkpt lat="43.1823" lon="-0.90284">
        <ele>186.6</ele>
        <time>2025-07-23T06:32:46Z</time>
      </trkpt>
      <trkpt lat="43.18245" lon="-0.90285">
        <ele>186.6</ele>
        <time>2025-07-23T06:32:47Z</time>
      </trkpt>
      <trkpt lat="43.18303" lon="-0.90289">
        <ele>186.6</ele>
        <time>2025-07-23T06:32:54Z</time>
      </trkpt>
      <trkpt lat="43.18324" lon="-0.9029">
        <ele>186.8</ele>
        <time>2025-07-23T06:32:57Z</time>
      </trkpt>
      <trkpt lat="43.18385" lon="-0.90294">
        <ele>186.6</ele>
        <time>2025-07-23T06:33:05Z</time>
      </trkpt>
      <trkpt lat="43.18393" lon="-0.90295">
        <ele>186.6</ele>
        <time>2025-07-23T06:33:06Z</time>
      </trkpt>
      <trkpt lat="43.18447" lon="-0.90298">
        <ele>186.2</ele>
        <time>2025-07-23T06:33:13Z</time>
      </trkpt>
      <trkpt lat="43.18454" lon="-0.90299">
        <ele>186.2</ele>
        <time>2025-07-23T06:33:14Z</time>
      </trkpt>
      <trkpt lat="43.18509" lon="-0.90302">
        <ele>185.8</ele>
        <time>2025-07-23T06:33:21Z</time>
      </trkpt>
      <trkpt lat="43.18554" lon="-0.90305">
        <ele>185.8</ele>
        <time>2025-07-23T06:33:27Z</time>
      </trkpt>
      <trkpt lat="43.18615" lon="-0.90311">
        <ele>185.4</ele>
        <time>2025-07-23T06:33:35Z</time>
      </trkpt>
      <trkpt lat="43.18622" lon="-0.90311">
        <ele>185.4</ele>
        <time>2025-07-23T06:33:36Z</time>
      </trkpt>
      <trkpt lat="43.18661" lon="-0.90314">
        <ele>184.8</ele>
        <time>2025-07-23T06:33:41Z</time>
      </trkpt>
      <trkpt lat="43.18716" lon="-0.90318">
        <ele>184.2</ele>
        <time>2025-07-23T06:33:48Z</time>
      </trkpt>
      <trkpt lat="43.18755" lon="-0.90321">
        <ele>183.8</ele>
        <time>2025-07-23T06:33:53Z</time>
      </trkpt>
      <trkpt lat="43.18811" lon="-0.90324">
        <ele>183.2</ele>
        <time>2025-07-23T06:34:00Z</time>
      </trkpt>
      <trkpt lat="43.18858" lon="-0.90328">
        <ele>183</ele>
        <time>2025-07-23T06:34:06Z</time>
      </trkpt>
      <trkpt lat="43.18882" lon="-0.90328">
        <ele>182.8</ele>
        <time>2025-07-23T06:34:10Z</time>
      </trkpt>
      <trkpt lat="43.18897" lon="-0.9033">
        <ele>182.8</ele>
        <time>2025-07-23T06:34:11Z</time>
      </trkpt>
      <trkpt lat="43.18912" lon="-0.90332">
        <ele>182.8</ele>
        <time>2025-07-23T06:34:13Z</time>
      </trkpt>
      <trkpt lat="43.18919" lon="-0.90332">
        <ele>182.8</ele>
        <time>2025-07-23T06:34:14Z</time>
      </trkpt>
      <trkpt lat="43.18979" lon="-0.90336">
        <ele>183</ele>
        <time>2025-07-23T06:34:22Z</time>
      </trkpt>
      <trkpt lat="43.19007" lon="-0.90337">
        <ele>183.2</ele>
        <time>2025-07-23T06:34:26Z</time>
      </trkpt>
      <trkpt lat="43.19062" lon="-0.9034">
        <ele>183.6</ele>
        <time>2025-07-23T06:34:34Z</time>
      </trkpt>
      <trkpt lat="43.19071" lon="-0.90339">
        <ele>183.6</ele>
        <time>2025-07-23T06:34:35Z</time>
      </trkpt>
      <trkpt lat="43.19126" lon="-0.90337">
        <ele>183.6</ele>
        <time>2025-07-23T06:34:42Z</time>
      </trkpt>
      <trkpt lat="43.19181" lon="-0.90334">
        <ele>182.6</ele>
        <time>2025-07-23T06:34:49Z</time>
      </trkpt>
      <trkpt lat="43.19232" lon="-0.90331">
        <ele>182</ele>
        <time>2025-07-23T06:34:55Z</time>
      </trkpt>
      <trkpt lat="43.19256" lon="-0.9033">
        <ele>181.8</ele>
        <time>2025-07-23T06:34:58Z</time>
      </trkpt>
      <trkpt lat="43.19311" lon="-0.90327">
        <ele>181.2</ele>
        <time>2025-07-23T06:35:05Z</time>
      </trkpt>
      <trkpt lat="43.19327" lon="-0.90325">
        <ele>181</ele>
        <time>2025-07-23T06:35:07Z</time>
      </trkpt>
      <trkpt lat="43.19373" lon="-0.90323">
        <ele>180.6</ele>
        <time>2025-07-23T06:35:13Z</time>
      </trkpt>
      <trkpt lat="43.19434" lon="-0.9032">
        <ele>180.2</ele>
        <time>2025-07-23T06:35:21Z</time>
      </trkpt>
      <trkpt lat="43.19442" lon="-0.9032">
        <ele>180.2</ele>
        <time>2025-07-23T06:35:22Z</time>
      </trkpt>
      <trkpt lat="43.19457" lon="-0.90319">
        <ele>180</ele>
        <time>2025-07-23T06:35:24Z</time>
      </trkpt>
      <trkpt lat="43.19519" lon="-0.90317">
        <ele>179.6</ele>
        <time>2025-07-23T06:35:32Z</time>
      </trkpt>
      <trkpt lat="43.19574" lon="-0.90315">
        <ele>179.2</ele>
        <time>2025-07-23T06:35:39Z</time>
      </trkpt>
      <trkpt lat="43.19613" lon="-0.90314">
        <ele>179.2</ele>
        <time>2025-07-23T06:35:44Z</time>
      </trkpt>
      <trkpt lat="43.19667" lon="-0.90313">
        <ele>179</ele>
        <time>2025-07-23T06:35:51Z</time>
      </trkpt>
      <trkpt lat="43.19704" lon="-0.90313">
        <ele>178.8</ele>
        <time>2025-07-23T06:35:56Z</time>
      </trkpt>
      <trkpt lat="43.19765" lon="-0.9031">
        <ele>178.6</ele>
        <time>2025-07-23T06:36:04Z</time>
      </trkpt>
      <trkpt lat="43.19789" lon="-0.90308">
        <ele>178.6</ele>
        <time>2025-07-23T06:36:07Z</time>
      </trkpt>
      <trkpt lat="43.19841" lon="-0.90308">
        <ele>178.6</ele>
        <time>2025-07-23T06:36:14Z</time>
      </trkpt>
      <trkpt lat="43.19875" lon="-0.90297">
        <ele>178.6</ele>
        <time>2025-07-23T06:36:19Z</time>
      </trkpt>
      <trkpt lat="43.1992" lon="-0.90276">
        <ele>178.8</ele>
        <time>2025-07-23T06:36:26Z</time>
      </trkpt>
      <trkpt lat="43.1996" lon="-0.90254">
        <ele>179.8</ele>
        <time>2025-07-23T06:36:33Z</time>
      </trkpt>
      <trkpt lat="43.19992" lon="-0.90246">
        <ele>180.4</ele>
        <time>2025-07-23T06:36:38Z</time>
      </trkpt>
      <trkpt lat="43.20006" lon="-0.90243">
        <ele>180.4</ele>
        <time>2025-07-23T06:36:40Z</time>
      </trkpt>
      <trkpt lat="43.2005" lon="-0.90235">
        <ele>179.8</ele>
        <time>2025-07-23T06:36:46Z</time>
      </trkpt>
      <trkpt lat="43.2008" lon="-0.9023">
        <ele>179.2</ele>
        <time>2025-07-23T06:36:50Z</time>
      </trkpt>
      <trkpt lat="43.20118" lon="-0.90223">
        <ele>178.8</ele>
        <time>2025-07-23T06:36:55Z</time>
      </trkpt>
      <trkpt lat="43.20139" lon="-0.90215">
        <ele>178.2</ele>
        <time>2025-07-23T06:36:58Z</time>
      </trkpt>
      <trkpt lat="43.20148" lon="-0.9021">
        <ele>178</ele>
        <time>2025-07-23T06:36:59Z</time>
      </trkpt>
      <trkpt lat="43.20155" lon="-0.90204">
        <ele>178</ele>
        <time>2025-07-23T06:37:00Z</time>
      </trkpt>
      <trkpt lat="43.20175" lon="-0.90185">
        <ele>177.2</ele>
        <time>2025-07-23T06:37:03Z</time>
      </trkpt>
      <trkpt lat="43.20194" lon="-0.90166">
        <ele>176.6</ele>
        <time>2025-07-23T06:37:06Z</time>
      </trkpt>
      <trkpt lat="43.20222" lon="-0.90144">
        <ele>176.2</ele>
        <time>2025-07-23T06:37:10Z</time>
      </trkpt>
      <trkpt lat="43.20252" lon="-0.90118">
        <ele>175.6</ele>
        <time>2025-07-23T06:37:14Z</time>
      </trkpt>
      <trkpt lat="43.20273" lon="-0.90101">
        <ele>175</ele>
        <time>2025-07-23T06:37:17Z</time>
      </trkpt>
      <trkpt lat="43.20302" lon="-0.90078">
        <ele>174.8</ele>
        <time>2025-07-23T06:37:21Z</time>
      </trkpt>
      <trkpt lat="43.20351" lon="-0.9004">
        <ele>174.2</ele>
        <time>2025-07-23T06:37:28Z</time>
      </trkpt>
      <trkpt lat="43.20358" lon="-0.90035">
        <ele>174</ele>
        <time>2025-07-23T06:37:29Z</time>
      </trkpt>
      <trkpt lat="43.20365" lon="-0.90029">
        <ele>174</ele>
        <time>2025-07-23T06:37:30Z</time>
      </trkpt>
      <trkpt lat="43.20415" lon="-0.89992">
        <ele>173.6</ele>
        <time>2025-07-23T06:37:37Z</time>
      </trkpt>
      <trkpt lat="43.20429" lon="-0.89981">
        <ele>173.4</ele>
        <time>2025-07-23T06:37:39Z</time>
      </trkpt>
      <trkpt lat="43.20477" lon="-0.89943">
        <ele>173.2</ele>
        <time>2025-07-23T06:37:46Z</time>
      </trkpt>
      <trkpt lat="43.20491" lon="-0.89932">
        <ele>173</ele>
        <time>2025-07-23T06:37:48Z</time>
      </trkpt>
      <trkpt lat="43.20498" lon="-0.89927">
        <ele>173</ele>
        <time>2025-07-23T06:37:49Z</time>
      </trkpt>
      <trkpt lat="43.20546" lon="-0.8989">
        <ele>172.6</ele>
        <time>2025-07-23T06:37:56Z</time>
      </trkpt>
      <trkpt lat="43.20553" lon="-0.89884">
        <ele>172.6</ele>
        <time>2025-07-23T06:37:58Z</time>
      </trkpt>
      <trkpt lat="43.20604" lon="-0.89846">
        <ele>172</ele>
        <time>2025-07-23T06:38:04Z</time>
      </trkpt>
      <trkpt lat="43.2061" lon="-0.8984">
        <ele>172</ele>
        <time>2025-07-23T06:38:05Z</time>
      </trkpt>
      <trkpt lat="43.20631" lon="-0.89824">
        <ele>171.8</ele>
        <time>2025-07-23T06:38:08Z</time>
      </trkpt>
      <trkpt lat="43.20683" lon="-0.89786">
        <ele>171.4</ele>
        <time>2025-07-23T06:38:15Z</time>
      </trkpt>
      <trkpt lat="43.20689" lon="-0.89781">
        <ele>171.4</ele>
        <time>2025-07-23T06:38:16Z</time>
      </trkpt>
      <trkpt lat="43.2072" lon="-0.89758">
        <ele>171</ele>
        <time>2025-07-23T06:38:20Z</time>
      </trkpt>
      <trkpt lat="43.20766" lon="-0.89724">
        <ele>170.2</ele>
        <time>2025-07-23T06:38:26Z</time>
      </trkpt>
      <trkpt lat="43.20789" lon="-0.89708">
        <ele>170</ele>
        <time>2025-07-23T06:38:29Z</time>
      </trkpt>
      <trkpt lat="43.20834" lon="-0.89673">
        <ele>169.4</ele>
        <time>2025-07-23T06:38:35Z</time>
      </trkpt>
      <trkpt lat="43.20849" lon="-0.89661">
        <ele>169</ele>
        <time>2025-07-23T06:38:37Z</time>
      </trkpt>
      <trkpt lat="43.20886" lon="-0.89633">
        <ele>168</ele>
        <time>2025-07-23T06:38:42Z</time>
      </trkpt>
      <trkpt lat="43.20901" lon="-0.89621">
        <ele>167.6</ele>
        <time>2025-07-23T06:38:44Z</time>
      </trkpt>
      <trkpt lat="43.20944" lon="-0.89587">
        <ele>167</ele>
        <time>2025-07-23T06:38:50Z</time>
      </trkpt>
      <trkpt lat="43.20951" lon="-0.89581">
        <ele>166.8</ele>
        <time>2025-07-23T06:38:51Z</time>
      </trkpt>
      <trkpt lat="43.21" lon="-0.89544">
        <ele>166.2</ele>
        <time>2025-07-23T06:38:58Z</time>
      </trkpt>
      <trkpt lat="43.21006" lon="-0.89539">
        <ele>166</ele>
        <time>2025-07-23T06:38:59Z</time>
      </trkpt>
      <trkpt lat="43.21046" lon="-0.89509">
        <ele>166</ele>
        <time>2025-07-23T06:39:05Z</time>
      </trkpt>
      <trkpt lat="43.21059" lon="-0.89498">
        <ele>166</ele>
        <time>2025-07-23T06:39:07Z</time>
      </trkpt>
      <trkpt lat="43.21112" lon="-0.89458">
        <ele>165.8</ele>
        <time>2025-07-23T06:39:15Z</time>
      </trkpt>
      <trkpt lat="43.21117" lon="-0.89454">
        <ele>165.6</ele>
        <time>2025-07-23T06:39:16Z</time>
      </trkpt>
      <trkpt lat="43.21171" lon="-0.89413">
        <ele>165.4</ele>
        <time>2025-07-23T06:39:24Z</time>
      </trkpt>
      <trkpt lat="43.21184" lon="-0.89403">
        <ele>165.4</ele>
        <time>2025-07-23T06:39:26Z</time>
      </trkpt>
      <trkpt lat="43.21236" lon="-0.89364">
        <ele>165.2</ele>
        <time>2025-07-23T06:39:34Z</time>
      </trkpt>
      <trkpt lat="43.21242" lon="-0.89359">
        <ele>165</ele>
        <time>2025-07-23T06:39:35Z</time>
      </trkpt>
      <trkpt lat="43.21254" lon="-0.8935">
        <ele>165</ele>
        <time>2025-07-23T06:39:37Z</time>
      </trkpt>
      <trkpt lat="43.21297" lon="-0.89317">
        <ele>164.6</ele>
        <time>2025-07-23T06:39:44Z</time>
      </trkpt>
      <trkpt lat="43.21349" lon="-0.89278">
        <ele>164.6</ele>
        <time>2025-07-23T06:39:52Z</time>
      </trkpt>
      <trkpt lat="43.21362" lon="-0.8927">
        <ele>164.4</ele>
        <time>2025-07-23T06:39:54Z</time>
      </trkpt>
      <trkpt lat="43.21376" lon="-0.89262">
        <ele>164.4</ele>
        <time>2025-07-23T06:39:56Z</time>
      </trkpt>
      <trkpt lat="43.21394" lon="-0.89246">
        <ele>164.4</ele>
        <time>2025-07-23T06:39:59Z</time>
      </trkpt>
      <trkpt lat="43.21426" lon="-0.8922">
        <ele>164</ele>
        <time>2025-07-23T06:40:04Z</time>
      </trkpt>
      <trkpt lat="43.2144" lon="-0.8921">
        <ele>164</ele>
        <time>2025-07-23T06:40:06Z</time>
      </trkpt>
      <trkpt lat="43.21487" lon="-0.89173">
        <ele>163.4</ele>
        <time>2025-07-23T06:40:13Z</time>
      </trkpt>
      <trkpt lat="43.21492" lon="-0.89168">
        <ele>163.4</ele>
        <time>2025-07-23T06:40:14Z</time>
      </trkpt>
      <trkpt lat="43.21533" lon="-0.89137">
        <ele>163</ele>
        <time>2025-07-23T06:40:20Z</time>
      </trkpt>
      <trkpt lat="43.21539" lon="-0.89133">
        <ele>163</ele>
        <time>2025-07-23T06:40:21Z</time>
      </trkpt>
      <trkpt lat="43.21587" lon="-0.89094">
        <ele>162.6</ele>
        <time>2025-07-23T06:40:28Z</time>
      </trkpt>
      <trkpt lat="43.2162" lon="-0.89067">
        <ele>162.4</ele>
        <time>2025-07-23T06:40:33Z</time>
      </trkpt>
      <trkpt lat="43.21672" lon="-0.89028">
        <ele>162.2</ele>
        <time>2025-07-23T06:40:41Z</time>
      </trkpt>
      <trkpt lat="43.21685" lon="-0.89018">
        <ele>162.2</ele>
        <time>2025-07-23T06:40:43Z</time>
      </trkpt>
      <trkpt lat="43.21725" lon="-0.88989">
        <ele>162</ele>
        <time>2025-07-23T06:40:49Z</time>
      </trkpt>
      <trkpt lat="43.21733" lon="-0.88983">
        <ele>161.8</ele>
        <time>2025-07-23T06:40:50Z</time>
      </trkpt>
      <trkpt lat="43.21783" lon="-0.88945">
        <ele>161.8</ele>
        <time>2025-07-23T06:40:58Z</time>
      </trkpt>
      <trkpt lat="43.21836" lon="-0.88915">
        <ele>161.8</ele>
        <time>2025-07-23T06:41:06Z</time>
      </trkpt>
      <trkpt lat="43.21843" lon="-0.88911">
        <ele>161.8</ele>
        <time>2025-07-23T06:41:07Z</time>
      </trkpt>
      <trkpt lat="43.21894" lon="-0.88885">
        <ele>161.8</ele>
        <time>2025-07-23T06:41:15Z</time>
      </trkpt>
      <trkpt lat="43.21944" lon="-0.88861">
        <ele>161.6</ele>
        <time>2025-07-23T06:41:23Z</time>
      </trkpt>
      <trkpt lat="43.21944" lon="-0.88861">
        <ele>161.6</ele>
        <time>2025-07-23T06:41:24Z</time>
      </trkpt>
      <trkpt lat="43.21953" lon="-0.88857">
        <ele>161.4</ele>
        <time>2025-07-23T06:41:25Z</time>
      </trkpt>
      <trkpt lat="43.21962" lon="-0.88859">
        <ele>161</ele>
        <time>2025-07-23T06:41:27Z</time>
      </trkpt>
      <trkpt lat="43.21969" lon="-0.88872">
        <ele>160.6</ele>
        <time>2025-07-23T06:41:30Z</time>
      </trkpt>
      <trkpt lat="43.2197" lon="-0.88879">
        <ele>160.4</ele>
        <time>2025-07-23T06:41:32Z</time>
      </trkpt>
      <trkpt lat="43.21971" lon="-0.88885">
        <ele>160</ele>
        <time>2025-07-23T06:41:34Z</time>
      </trkpt>
      <trkpt lat="43.21969" lon="-0.88893">
        <ele>159.8</ele>
        <time>2025-07-23T06:41:36Z</time>
      </trkpt>
      <trkpt lat="43.21971" lon="-0.88911">
        <ele>159.6</ele>
        <time>2025-07-23T06:41:40Z</time>
      </trkpt>
      <trkpt lat="43.21972" lon="-0.88915">
        <ele>159.6</ele>
        <time>2025-07-23T06:41:41Z</time>
      </trkpt>
      <trkpt lat="43.2198" lon="-0.88945">
        <ele>159.8</ele>
        <time>2025-07-23T06:41:48Z</time>
      </trkpt>
      <trkpt lat="43.21988" lon="-0.88967">
        <ele>159.8</ele>
        <time>2025-07-23T06:41:53Z</time>
      </trkpt>
      <trkpt lat="43.21999" lon="-0.88992">
        <ele>159.6</ele>
        <time>2025-07-23T06:41:59Z</time>
      </trkpt>
      <trkpt lat="43.22001" lon="-0.88998">
        <ele>159.6</ele>
        <time>2025-07-23T06:42:01Z</time>
      </trkpt>
      <trkpt lat="43.22001" lon="-0.89005">
        <ele>159.8</ele>
        <time>2025-07-23T06:42:03Z</time>
      </trkpt>
      <trkpt lat="43.22002" lon="-0.89016">
        <ele>160</ele>
        <time>2025-07-23T06:42:05Z</time>
      </trkpt>
      <trkpt lat="43.22003" lon="-0.8902">
        <ele>160</ele>
        <time>2025-07-23T06:42:06Z</time>
      </trkpt>
      <trkpt lat="43.22012" lon="-0.89044">
        <ele>160.4</ele>
        <time>2025-07-23T06:42:10Z</time>
      </trkpt>
      <trkpt lat="43.22016" lon="-0.89056">
        <ele>160.4</ele>
        <time>2025-07-23T06:42:12Z</time>
      </trkpt>
      <trkpt lat="43.22035" lon="-0.89115">
        <ele>160.4</ele>
        <time>2025-07-23T06:42:22Z</time>
      </trkpt>
      <trkpt lat="43.22049" lon="-0.89155">
        <ele>160.6</ele>
        <time>2025-07-23T06:42:29Z</time>
      </trkpt>
      <trkpt lat="43.22055" lon="-0.89173">
        <ele>161</ele>
        <time>2025-07-23T06:42:32Z</time>
      </trkpt>
      <trkpt lat="43.22073" lon="-0.89226">
        <ele>161.4</ele>
        <time>2025-07-23T06:42:41Z</time>
      </trkpt>
      <trkpt lat="43.22076" lon="-0.89239">
        <ele>161.6</ele>
        <time>2025-07-23T06:42:43Z</time>
      </trkpt>
      <trkpt lat="43.22085" lon="-0.89265">
        <ele>162</ele>
        <time>2025-07-23T06:42:48Z</time>
      </trkpt>
      <trkpt lat="43.22087" lon="-0.89269">
        <ele>162</ele>
        <time>2025-07-23T06:42:49Z</time>
      </trkpt>
      <trkpt lat="43.2209" lon="-0.89271">
        <ele>162.2</ele>
        <time>2025-07-23T06:42:50Z</time>
      </trkpt>
      <trkpt lat="43.22099" lon="-0.89273">
        <ele>162.2</ele>
        <time>2025-07-23T06:42:52Z</time>
      </trkpt>
      <trkpt lat="43.22126" lon="-0.89279">
        <ele>162.4</ele>
        <time>2025-07-23T06:42:58Z</time>
      </trkpt>
      <trkpt lat="43.22131" lon="-0.89282">
        <ele>162.6</ele>
        <time>2025-07-23T06:42:59Z</time>
      </trkpt>
      <trkpt lat="43.22143" lon="-0.89289">
        <ele>163</ele>
        <time>2025-07-23T06:43:02Z</time>
      </trkpt>
      <trkpt lat="43.2216" lon="-0.89298">
        <ele>163.4</ele>
        <time>2025-07-23T06:43:06Z</time>
      </trkpt>
      <trkpt lat="43.22169" lon="-0.89298">
        <ele>163.6</ele>
        <time>2025-07-23T06:43:08Z</time>
      </trkpt>
      <trkpt lat="43.22181" lon="-0.89291">
        <ele>164</ele>
        <time>2025-07-23T06:43:11Z</time>
      </trkpt>
      <trkpt lat="43.22184" lon="-0.89285">
        <ele>164</ele>
        <time>2025-07-23T06:43:12Z</time>
      </trkpt>
      <trkpt lat="43.22201" lon="-0.89253">
        <ele>164</ele>
        <time>2025-07-23T06:43:17Z</time>
      </trkpt>
      <trkpt lat="43.2221" lon="-0.89241">
        <ele>164</ele>
        <time>2025-07-23T06:43:19Z</time>
      </trkpt>
      <trkpt lat="43.22218" lon="-0.8923">
        <ele>164</ele>
        <time>2025-07-23T06:43:21Z</time>
      </trkpt>
      <trkpt lat="43.22259" lon="-0.89178">
        <ele>163.2</ele>
        <time>2025-07-23T06:43:30Z</time>
      </trkpt>
      <trkpt lat="43.22297" lon="-0.8912">
        <ele>163.2</ele>
        <time>2025-07-23T06:43:39Z</time>
      </trkpt>
      <trkpt lat="43.22334" lon="-0.89062">
        <ele>162.8</ele>
        <time>2025-07-23T06:43:48Z</time>
      </trkpt>
      <trkpt lat="43.22338" lon="-0.89056">
        <ele>162.6</ele>
        <time>2025-07-23T06:43:49Z</time>
      </trkpt>
      <trkpt lat="43.2237" lon="-0.89004">
        <ele>162</ele>
        <time>2025-07-23T06:43:57Z</time>
      </trkpt>
      <trkpt lat="43.22375" lon="-0.88997">
        <ele>162</ele>
        <time>2025-07-23T06:43:58Z</time>
      </trkpt>
      <trkpt lat="43.22413" lon="-0.88937">
        <ele>161.6</ele>
        <time>2025-07-23T06:44:07Z</time>
      </trkpt>
      <trkpt lat="43.22417" lon="-0.88931">
        <ele>161.6</ele>
        <time>2025-07-23T06:44:08Z</time>
      </trkpt>
      <trkpt lat="43.22446" lon="-0.88881">
        <ele>161.6</ele>
        <time>2025-07-23T06:44:16Z</time>
      </trkpt>
      <trkpt lat="43.22468" lon="-0.8884">
        <ele>161.6</ele>
        <time>2025-07-23T06:44:23Z</time>
      </trkpt>
      <trkpt lat="43.22475" lon="-0.88827">
        <ele>161.4</ele>
        <time>2025-07-23T06:44:25Z</time>
      </trkpt>
      <trkpt lat="43.22482" lon="-0.88817">
        <ele>161.2</ele>
        <time>2025-07-23T06:44:27Z</time>
      </trkpt>
      <trkpt lat="43.22495" lon="-0.88793">
        <ele>160.8</ele>
        <time>2025-07-23T06:44:31Z</time>
      </trkpt>
      <trkpt lat="43.22499" lon="-0.88786">
        <ele>160.8</ele>
        <time>2025-07-23T06:44:32Z</time>
      </trkpt>
      <trkpt lat="43.22531" lon="-0.88724">
        <ele>160.8</ele>
        <time>2025-07-23T06:44:41Z</time>
      </trkpt>
      <trkpt lat="43.22535" lon="-0.88716">
        <ele>160.8</ele>
        <time>2025-07-23T06:44:42Z</time>
      </trkpt>
      <trkpt lat="43.22562" lon="-0.88666">
        <ele>160.8</ele>
        <time>2025-07-23T06:44:49Z</time>
      </trkpt>
      <trkpt lat="43.22597" lon="-0.886">
        <ele>160.6</ele>
        <time>2025-07-23T06:44:58Z</time>
      </trkpt>
      <trkpt lat="43.22601" lon="-0.88592">
        <ele>160.4</ele>
        <time>2025-07-23T06:44:59Z</time>
      </trkpt>
      <trkpt lat="43.2263" lon="-0.88538">
        <ele>160.4</ele>
        <time>2025-07-23T06:45:06Z</time>
      </trkpt>
      <trkpt lat="43.2265" lon="-0.88499">
        <ele>160.4</ele>
        <time>2025-07-23T06:45:11Z</time>
      </trkpt>
      <trkpt lat="43.22663" lon="-0.88475">
        <ele>160</ele>
        <time>2025-07-23T06:45:14Z</time>
      </trkpt>
      <trkpt lat="43.22696" lon="-0.88411">
        <ele>159.8</ele>
        <time>2025-07-23T06:45:22Z</time>
      </trkpt>
      <trkpt lat="43.22729" lon="-0.88349">
        <ele>159.4</ele>
        <time>2025-07-23T06:45:30Z</time>
      </trkpt>
      <trkpt lat="43.22765" lon="-0.88282">
        <ele>159.4</ele>
        <time>2025-07-23T06:45:38Z</time>
      </trkpt>
      <trkpt lat="43.22791" lon="-0.88231">
        <ele>159.2</ele>
        <time>2025-07-23T06:45:44Z</time>
      </trkpt>
      <trkpt lat="43.22804" lon="-0.88206">
        <ele>159</ele>
        <time>2025-07-23T06:45:47Z</time>
      </trkpt>
      <trkpt lat="43.22839" lon="-0.88139">
        <ele>158.6</ele>
        <time>2025-07-23T06:45:55Z</time>
      </trkpt>
      <trkpt lat="43.22853" lon="-0.88114">
        <ele>158.4</ele>
        <time>2025-07-23T06:45:58Z</time>
      </trkpt>
      <trkpt lat="43.22872" lon="-0.88083">
        <ele>157.8</ele>
        <time>2025-07-23T06:46:02Z</time>
      </trkpt>
      <trkpt lat="43.22912" lon="-0.88029">
        <ele>157.6</ele>
        <time>2025-07-23T06:46:10Z</time>
      </trkpt>
      <trkpt lat="43.22917" lon="-0.88022">
        <ele>157.6</ele>
        <time>2025-07-23T06:46:11Z</time>
      </trkpt>
      <trkpt lat="43.22954" lon="-0.87969">
        <ele>158.2</ele>
        <time>2025-07-23T06:46:19Z</time>
      </trkpt>
      <trkpt lat="43.22989" lon="-0.87922">
        <ele>159.4</ele>
        <time>2025-07-23T06:46:27Z</time>
      </trkpt>
      <trkpt lat="43.22992" lon="-0.87917">
        <ele>159.4</ele>
        <time>2025-07-23T06:46:28Z</time>
      </trkpt>
      <trkpt lat="43.23014" lon="-0.87885">
        <ele>160</ele>
        <time>2025-07-23T06:46:34Z</time>
      </trkpt>
      <trkpt lat="43.23032" lon="-0.8786">
        <ele>160.6</ele>
        <time>2025-07-23T06:46:39Z</time>
      </trkpt>
      <trkpt lat="43.23044" lon="-0.87847">
        <ele>161.2</ele>
        <time>2025-07-23T06:46:42Z</time>
      </trkpt>
      <trkpt lat="43.23054" lon="-0.87842">
        <ele>161.8</ele>
        <time>2025-07-23T06:46:44Z</time>
      </trkpt>
      <trkpt lat="43.23064" lon="-0.8784">
        <ele>162</ele>
        <time>2025-07-23T06:46:46Z</time>
      </trkpt>
      <trkpt lat="43.23069" lon="-0.8784">
        <ele>162</ele>
        <time>2025-07-23T06:46:47Z</time>
      </trkpt>
      <trkpt lat="43.23074" lon="-0.87841">
        <ele>162</ele>
        <time>2025-07-23T06:46:48Z</time>
      </trkpt>
      <trkpt lat="43.23083" lon="-0.87845">
        <ele>162.4</ele>
        <time>2025-07-23T06:46:50Z</time>
      </trkpt>
      <trkpt lat="43.23088" lon="-0.87849">
        <ele>163</ele>
        <time>2025-07-23T06:46:51Z</time>
      </trkpt>
      <trkpt lat="43.23092" lon="-0.87853">
        <ele>163</ele>
        <time>2025-07-23T06:46:52Z</time>
      </trkpt>
      <trkpt lat="43.23107" lon="-0.87873">
        <ele>163.8</ele>
        <time>2025-07-23T06:46:56Z</time>
      </trkpt>
      <trkpt lat="43.23117" lon="-0.87878">
        <ele>164</ele>
        <time>2025-07-23T06:46:58Z</time>
      </trkpt>
      <trkpt lat="43.23122" lon="-0.87877">
        <ele>164.2</ele>
        <time>2025-07-23T06:46:59Z</time>
      </trkpt>
      <trkpt lat="43.23127" lon="-0.87874">
        <ele>164.2</ele>
        <time>2025-07-23T06:47:00Z</time>
      </trkpt>
      <trkpt lat="43.23141" lon="-0.87861">
        <ele>164.4</ele>
        <time>2025-07-23T06:47:03Z</time>
      </trkpt>
      <trkpt lat="43.23172" lon="-0.87818">
        <ele>164.2</ele>
        <time>2025-07-23T06:47:10Z</time>
      </trkpt>
      <trkpt lat="43.23204" lon="-0.87783">
        <ele>164</ele>
        <time>2025-07-23T06:47:16Z</time>
      </trkpt>
      <trkpt lat="43.23242" lon="-0.87761">
        <ele>163.6</ele>
        <time>2025-07-23T06:47:22Z</time>
      </trkpt>
      <trkpt lat="43.23294" lon="-0.87742">
        <ele>164</ele>
        <time>2025-07-23T06:47:30Z</time>
      </trkpt>
      <trkpt lat="43.23337" lon="-0.87742">
        <ele>164</ele>
        <time>2025-07-23T06:47:36Z</time>
      </trkpt>
      <trkpt lat="43.23385" lon="-0.87751">
        <ele>163.4</ele>
        <time>2025-07-23T06:47:42Z</time>
      </trkpt>
      <trkpt lat="43.23394" lon="-0.87753">
        <ele>163.2</ele>
        <time>2025-07-23T06:47:43Z</time>
      </trkpt>
      <trkpt lat="43.23439" lon="-0.87761">
        <ele>161.8</ele>
        <time>2025-07-23T06:47:48Z</time>
      </trkpt>
      <trkpt lat="43.23448" lon="-0.87761">
        <ele>161.6</ele>
        <time>2025-07-23T06:47:49Z</time>
      </trkpt>
      <trkpt lat="43.23476" lon="-0.87762">
        <ele>160.8</ele>
        <time>2025-07-23T06:47:52Z</time>
      </trkpt>
      <trkpt lat="43.23524" lon="-0.8776">
        <ele>159.6</ele>
        <time>2025-07-23T06:47:57Z</time>
      </trkpt>
      <trkpt lat="43.23553" lon="-0.87764">
        <ele>158.2</ele>
        <time>2025-07-23T06:48:00Z</time>
      </trkpt>
      <trkpt lat="43.23563" lon="-0.87767">
        <ele>158</ele>
        <time>2025-07-23T06:48:01Z</time>
      </trkpt>
      <trkpt lat="43.23591" lon="-0.87779">
        <ele>157</ele>
        <time>2025-07-23T06:48:04Z</time>
      </trkpt>
      <trkpt lat="43.23637" lon="-0.87797">
        <ele>155.8</ele>
        <time>2025-07-23T06:48:09Z</time>
      </trkpt>
      <trkpt lat="43.23665" lon="-0.87807">
        <ele>155.2</ele>
        <time>2025-07-23T06:48:12Z</time>
      </trkpt>
      <trkpt lat="43.23691" lon="-0.87818">
        <ele>154.8</ele>
        <time>2025-07-23T06:48:15Z</time>
      </trkpt>
      <trkpt lat="43.23724" lon="-0.87832">
        <ele>154.6</ele>
        <time>2025-07-23T06:48:19Z</time>
      </trkpt>
      <trkpt lat="43.23778" lon="-0.87854">
        <ele>154.6</ele>
        <time>2025-07-23T06:48:26Z</time>
      </trkpt>
      <trkpt lat="43.23836" lon="-0.87875">
        <ele>154.8</ele>
        <time>2025-07-23T06:48:34Z</time>
      </trkpt>
      <trkpt lat="43.23888" lon="-0.87882">
        <ele>155</ele>
        <time>2025-07-23T06:48:41Z</time>
      </trkpt>
      <trkpt lat="43.23948" lon="-0.87881">
        <ele>154.6</ele>
        <time>2025-07-23T06:48:49Z</time>
      </trkpt>
      <trkpt lat="43.23971" lon="-0.87881">
        <ele>154.4</ele>
        <time>2025-07-23T06:48:52Z</time>
      </trkpt>
      <trkpt lat="43.24031" lon="-0.87881">
        <ele>154</ele>
        <time>2025-07-23T06:49:00Z</time>
      </trkpt>
      <trkpt lat="43.24039" lon="-0.8788">
        <ele>154</ele>
        <time>2025-07-23T06:49:01Z</time>
      </trkpt>
      <trkpt lat="43.24052" lon="-0.8788">
        <ele>153.8</ele>
        <time>2025-07-23T06:49:03Z</time>
      </trkpt>
      <trkpt lat="43.24105" lon="-0.87878">
        <ele>153.6</ele>
        <time>2025-07-23T06:49:10Z</time>
      </trkpt>
      <trkpt lat="43.24112" lon="-0.87875">
        <ele>153.6</ele>
        <time>2025-07-23T06:49:11Z</time>
      </trkpt>
      <trkpt lat="43.2412" lon="-0.87872">
        <ele>153.4</ele>
        <time>2025-07-23T06:49:12Z</time>
      </trkpt>
      <trkpt lat="43.24135" lon="-0.87871">
        <ele>153.4</ele>
        <time>2025-07-23T06:49:14Z</time>
      </trkpt>
      <trkpt lat="43.24157" lon="-0.87878">
        <ele>153.2</ele>
        <time>2025-07-23T06:49:17Z</time>
      </trkpt>
      <trkpt lat="43.24172" lon="-0.87878">
        <ele>153</ele>
        <time>2025-07-23T06:49:19Z</time>
      </trkpt>
      <trkpt lat="43.24214" lon="-0.87877">
        <ele>152.6</ele>
        <time>2025-07-23T06:49:25Z</time>
      </trkpt>
      <trkpt lat="43.24268" lon="-0.87876">
        <ele>152.4</ele>
        <time>2025-07-23T06:49:32Z</time>
      </trkpt>
      <trkpt lat="43.24327" lon="-0.87875">
        <ele>152.2</ele>
        <time>2025-07-23T06:49:40Z</time>
      </trkpt>
      <trkpt lat="43.24365" lon="-0.87874">
        <ele>152.4</ele>
        <time>2025-07-23T06:49:45Z</time>
      </trkpt>
      <trkpt lat="43.24419" lon="-0.87873">
        <ele>152</ele>
        <time>2025-07-23T06:49:52Z</time>
      </trkpt>
      <trkpt lat="43.24458" lon="-0.87873">
        <ele>151.6</ele>
        <time>2025-07-23T06:49:57Z</time>
      </trkpt>
      <trkpt lat="43.24498" lon="-0.87872">
        <ele>151.2</ele>
        <time>2025-07-23T06:50:03Z</time>
      </trkpt>
      <trkpt lat="43.24523" lon="-0.87869">
        <ele>151.2</ele>
        <time>2025-07-23T06:50:05Z</time>
      </trkpt>
      <trkpt lat="43.24568" lon="-0.87856">
        <ele>150.8</ele>
        <time>2025-07-23T06:50:11Z</time>
      </trkpt>
      <trkpt lat="43.24626" lon="-0.87828">
        <ele>150.6</ele>
        <time>2025-07-23T06:50:19Z</time>
      </trkpt>
      <trkpt lat="43.24634" lon="-0.87824">
        <ele>150.6</ele>
        <time>2025-07-23T06:50:20Z</time>
      </trkpt>
      <trkpt lat="43.24685" lon="-0.87798">
        <ele>150.4</ele>
        <time>2025-07-23T06:50:27Z</time>
      </trkpt>
      <trkpt lat="43.24707" lon="-0.87789">
        <ele>150.4</ele>
        <time>2025-07-23T06:50:30Z</time>
      </trkpt>
      <trkpt lat="43.2476" lon="-0.87773">
        <ele>150.4</ele>
        <time>2025-07-23T06:50:37Z</time>
      </trkpt>
      <trkpt lat="43.24767" lon="-0.87772">
        <ele>150.2</ele>
        <time>2025-07-23T06:50:38Z</time>
      </trkpt>
      <trkpt lat="43.24812" lon="-0.87776">
        <ele>150</ele>
        <time>2025-07-23T06:50:44Z</time>
      </trkpt>
      <trkpt lat="43.24873" lon="-0.8779">
        <ele>149.6</ele>
        <time>2025-07-23T06:50:52Z</time>
      </trkpt>
      <trkpt lat="43.24888" lon="-0.87794">
        <ele>149.4</ele>
        <time>2025-07-23T06:50:54Z</time>
      </trkpt>
      <trkpt lat="43.24895" lon="-0.87796">
        <ele>149.4</ele>
        <time>2025-07-23T06:50:55Z</time>
      </trkpt>
      <trkpt lat="43.2494" lon="-0.87815">
        <ele>149</ele>
        <time>2025-07-23T06:51:01Z</time>
      </trkpt>
      <trkpt lat="43.25003" lon="-0.87852">
        <ele>148.6</ele>
        <time>2025-07-23T06:51:10Z</time>
      </trkpt>
      <trkpt lat="43.2501" lon="-0.87856">
        <ele>148.4</ele>
        <time>2025-07-23T06:51:11Z</time>
      </trkpt>
      <trkpt lat="43.25019" lon="-0.87861">
        <ele>148.4</ele>
        <time>2025-07-23T06:51:12Z</time>
      </trkpt>
      <trkpt lat="43.25068" lon="-0.87877">
        <ele>148.2</ele>
        <time>2025-07-23T06:51:19Z</time>
      </trkpt>
      <trkpt lat="43.25123" lon="-0.87892">
        <ele>148</ele>
        <time>2025-07-23T06:51:27Z</time>
      </trkpt>
      <trkpt lat="43.25144" lon="-0.87898">
        <ele>148</ele>
        <time>2025-07-23T06:51:30Z</time>
      </trkpt>
      <trkpt lat="43.25204" lon="-0.87913">
        <ele>147.6</ele>
        <time>2025-07-23T06:51:38Z</time>
      </trkpt>
      <trkpt lat="43.25227" lon="-0.87916">
        <ele>147.6</ele>
        <time>2025-07-23T06:51:41Z</time>
      </trkpt>
      <trkpt lat="43.25288" lon="-0.8792">
        <ele>147.6</ele>
        <time>2025-07-23T06:51:49Z</time>
      </trkpt>
      <trkpt lat="43.25296" lon="-0.87921">
        <ele>147.6</ele>
        <time>2025-07-23T06:51:50Z</time>
      </trkpt>
      <trkpt lat="43.25311" lon="-0.87922">
        <ele>147.4</ele>
        <time>2025-07-23T06:51:52Z</time>
      </trkpt>
      <trkpt lat="43.25372" lon="-0.87927">
        <ele>147.2</ele>
        <time>2025-07-23T06:52:00Z</time>
      </trkpt>
      <trkpt lat="43.25387" lon="-0.87928">
        <ele>147</ele>
        <time>2025-07-23T06:52:02Z</time>
      </trkpt>
      <trkpt lat="43.25445" lon="-0.87933">
        <ele>146.8</ele>
        <time>2025-07-23T06:52:10Z</time>
      </trkpt>
      <trkpt lat="43.25482" lon="-0.87936">
        <ele>146.6</ele>
        <time>2025-07-23T06:52:15Z</time>
      </trkpt>
      <trkpt lat="43.25504" lon="-0.87938">
        <ele>146.6</ele>
        <time>2025-07-23T06:52:18Z</time>
      </trkpt>
      <trkpt lat="43.2554" lon="-0.87941">
        <ele>146.4</ele>
        <time>2025-07-23T06:52:23Z</time>
      </trkpt>
      <trkpt lat="43.25598" lon="-0.87949">
        <ele>146.4</ele>
        <time>2025-07-23T06:52:31Z</time>
      </trkpt>
      <trkpt lat="43.25613" lon="-0.87952">
        <ele>146.2</ele>
        <time>2025-07-23T06:52:33Z</time>
      </trkpt>
      <trkpt lat="43.2566" lon="-0.8796">
        <ele>145.8</ele>
        <time>2025-07-23T06:52:39Z</time>
      </trkpt>
      <trkpt lat="43.25684" lon="-0.87962">
        <ele>145.4</ele>
        <time>2025-07-23T06:52:42Z</time>
      </trkpt>
      <trkpt lat="43.25723" lon="-0.87951">
        <ele>145</ele>
        <time>2025-07-23T06:52:47Z</time>
      </trkpt>
      <trkpt lat="43.25772" lon="-0.87923">
        <ele>144.8</ele>
        <time>2025-07-23T06:52:54Z</time>
      </trkpt>
      <trkpt lat="43.25786" lon="-0.87916">
        <ele>144.8</ele>
        <time>2025-07-23T06:52:56Z</time>
      </trkpt>
      <trkpt lat="43.25821" lon="-0.87904">
        <ele>144.6</ele>
        <time>2025-07-23T06:53:01Z</time>
      </trkpt>
      <trkpt lat="43.2585" lon="-0.87903">
        <ele>144.4</ele>
        <time>2025-07-23T06:53:05Z</time>
      </trkpt>
      <trkpt lat="43.25864" lon="-0.87907">
        <ele>144.4</ele>
        <time>2025-07-23T06:53:07Z</time>
      </trkpt>
      <trkpt lat="43.2589" lon="-0.87926">
        <ele>144.4</ele>
        <time>2025-07-23T06:53:11Z</time>
      </trkpt>
      <trkpt lat="43.25929" lon="-0.8797">
        <ele>144</ele>
        <time>2025-07-23T06:53:18Z</time>
      </trkpt>
      <trkpt lat="43.2596" lon="-0.87995">
        <ele>144.2</ele>
        <time>2025-07-23T06:53:23Z</time>
      </trkpt>
      <trkpt lat="43.26011" lon="-0.88023">
        <ele>144.4</ele>
        <time>2025-07-23T06:53:31Z</time>
      </trkpt>
      <trkpt lat="43.26063" lon="-0.88046">
        <ele>144.4</ele>
        <time>2025-07-23T06:53:39Z</time>
      </trkpt>
      <trkpt lat="43.26069" lon="-0.88048">
        <ele>144.4</ele>
        <time>2025-07-23T06:53:40Z</time>
      </trkpt>
      <trkpt lat="43.26119" lon="-0.8806">
        <ele>144.4</ele>
        <time>2025-07-23T06:53:47Z</time>
      </trkpt>
      <trkpt lat="43.26173" lon="-0.88074">
        <ele>144.6</ele>
        <time>2025-07-23T06:53:55Z</time>
      </trkpt>
      <trkpt lat="43.26227" lon="-0.88087">
        <ele>144.8</ele>
        <time>2025-07-23T06:54:03Z</time>
      </trkpt>
      <trkpt lat="43.26232" lon="-0.88088">
        <ele>144.8</ele>
        <time>2025-07-23T06:54:04Z</time>
      </trkpt>
      <trkpt lat="43.26287" lon="-0.88098">
        <ele>145.4</ele>
        <time>2025-07-23T06:54:12Z</time>
      </trkpt>
      <trkpt lat="43.26343" lon="-0.88094">
        <ele>145.6</ele>
        <time>2025-07-23T06:54:20Z</time>
      </trkpt>
      <trkpt lat="43.2635" lon="-0.88093">
        <ele>145.6</ele>
        <time>2025-07-23T06:54:21Z</time>
      </trkpt>
      <trkpt lat="43.26409" lon="-0.88085">
        <ele>145.4</ele>
        <time>2025-07-23T06:54:29Z</time>
      </trkpt>
      <trkpt lat="43.26422" lon="-0.88083">
        <ele>145.4</ele>
        <time>2025-07-23T06:54:31Z</time>
      </trkpt>
      <trkpt lat="43.26467" lon="-0.88067">
        <ele>145</ele>
        <time>2025-07-23T06:54:37Z</time>
      </trkpt>
      <trkpt lat="43.26518" lon="-0.88038">
        <ele>144.4</ele>
        <time>2025-07-23T06:54:44Z</time>
      </trkpt>
      <trkpt lat="43.26525" lon="-0.88033">
        <ele>144.2</ele>
        <time>2025-07-23T06:54:45Z</time>
      </trkpt>
      <trkpt lat="43.26533" lon="-0.88028">
        <ele>144.2</ele>
        <time>2025-07-23T06:54:46Z</time>
      </trkpt>
      <trkpt lat="43.26585" lon="-0.87997">
        <ele>143.4</ele>
        <time>2025-07-23T06:54:53Z</time>
      </trkpt>
      <trkpt lat="43.26592" lon="-0.87992">
        <ele>143.2</ele>
        <time>2025-07-23T06:54:54Z</time>
      </trkpt>
      <trkpt lat="43.26606" lon="-0.87983">
        <ele>143.2</ele>
        <time>2025-07-23T06:54:56Z</time>
      </trkpt>
      <trkpt lat="43.26644" lon="-0.8797">
        <ele>142.8</ele>
        <time>2025-07-23T06:55:01Z</time>
      </trkpt>
      <trkpt lat="43.26685" lon="-0.87973">
        <ele>143</ele>
        <time>2025-07-23T06:55:07Z</time>
      </trkpt>
      <trkpt lat="43.2674" lon="-0.87979">
        <ele>143.4</ele>
        <time>2025-07-23T06:55:15Z</time>
      </trkpt>
      <trkpt lat="43.26747" lon="-0.8798">
        <ele>143.4</ele>
        <time>2025-07-23T06:55:16Z</time>
      </trkpt>
      <trkpt lat="43.26756" lon="-0.87979">
        <ele>143.4</ele>
        <time>2025-07-23T06:55:17Z</time>
      </trkpt>
      <trkpt lat="43.26776" lon="-0.87971">
        <ele>143.4</ele>
        <time>2025-07-23T06:55:20Z</time>
      </trkpt>
      <trkpt lat="43.26824" lon="-0.87941">
        <ele>143</ele>
        <time>2025-07-23T06:55:27Z</time>
      </trkpt>
      <trkpt lat="43.26875" lon="-0.87907">
        <ele>142.8</ele>
        <time>2025-07-23T06:55:34Z</time>
      </trkpt>
      <trkpt lat="43.26881" lon="-0.87902">
        <ele>142.6</ele>
        <time>2025-07-23T06:55:35Z</time>
      </trkpt>
      <trkpt lat="43.26923" lon="-0.87855">
        <ele>142.4</ele>
        <time>2025-07-23T06:55:42Z</time>
      </trkpt>
      <trkpt lat="43.26928" lon="-0.87847">
        <ele>142.2</ele>
        <time>2025-07-23T06:55:43Z</time>
      </trkpt>
      <trkpt lat="43.26958" lon="-0.87794">
        <ele>141.2</ele>
        <time>2025-07-23T06:55:49Z</time>
      </trkpt>
      <trkpt lat="43.26991" lon="-0.87731">
        <ele>140.6</ele>
        <time>2025-07-23T06:55:56Z</time>
      </trkpt>
      <trkpt lat="43.27005" lon="-0.87703">
        <ele>140.2</ele>
        <time>2025-07-23T06:55:59Z</time>
      </trkpt>
      <trkpt lat="43.27014" lon="-0.87684">
        <ele>140</ele>
        <time>2025-07-23T06:56:01Z</time>
      </trkpt>
      <trkpt lat="43.27049" lon="-0.87618">
        <ele>139.2</ele>
        <time>2025-07-23T06:56:08Z</time>
      </trkpt>
      <trkpt lat="43.27054" lon="-0.87609">
        <ele>139.2</ele>
        <time>2025-07-23T06:56:09Z</time>
      </trkpt>
      <trkpt lat="43.27058" lon="-0.87601">
        <ele>139</ele>
        <time>2025-07-23T06:56:10Z</time>
      </trkpt>
      <trkpt lat="43.27086" lon="-0.8756">
        <ele>138.8</ele>
        <time>2025-07-23T06:56:15Z</time>
      </trkpt>
      <trkpt lat="43.27093" lon="-0.87554">
        <ele>138.8</ele>
        <time>2025-07-23T06:56:16Z</time>
      </trkpt>
      <trkpt lat="43.27117" lon="-0.87538">
        <ele>138.6</ele>
        <time>2025-07-23T06:56:19Z</time>
      </trkpt>
      <trkpt lat="43.27172" lon="-0.87516">
        <ele>138.4</ele>
        <time>2025-07-23T06:56:26Z</time>
      </trkpt>
      <trkpt lat="43.2718" lon="-0.87513">
        <ele>138.4</ele>
        <time>2025-07-23T06:56:27Z</time>
      </trkpt>
      <trkpt lat="43.27196" lon="-0.87508">
        <ele>138</ele>
        <time>2025-07-23T06:56:29Z</time>
      </trkpt>
      <trkpt lat="43.27251" lon="-0.87489">
        <ele>137.6</ele>
        <time>2025-07-23T06:56:36Z</time>
      </trkpt>
      <trkpt lat="43.27282" lon="-0.87484">
        <ele>137.6</ele>
        <time>2025-07-23T06:56:40Z</time>
      </trkpt>
      <trkpt lat="43.2729" lon="-0.87484">
        <ele>137.6</ele>
        <time>2025-07-23T06:56:41Z</time>
      </trkpt>
      <trkpt lat="43.27335" lon="-0.87493">
        <ele>137.4</ele>
        <time>2025-07-23T06:56:47Z</time>
      </trkpt>
      <trkpt lat="43.27372" lon="-0.87503">
        <ele>137</ele>
        <time>2025-07-23T06:56:52Z</time>
      </trkpt>
      <trkpt lat="43.27403" lon="-0.87511">
        <ele>137</ele>
        <time>2025-07-23T06:56:56Z</time>
      </trkpt>
      <trkpt lat="43.27456" lon="-0.87523">
        <ele>136.6</ele>
        <time>2025-07-23T06:57:03Z</time>
      </trkpt>
      <trkpt lat="43.27493" lon="-0.87532">
        <ele>136.6</ele>
        <time>2025-07-23T06:57:08Z</time>
      </trkpt>
      <trkpt lat="43.27553" lon="-0.87547">
        <ele>136.2</ele>
        <time>2025-07-23T06:57:16Z</time>
      </trkpt>
      <trkpt lat="43.27559" lon="-0.87549">
        <ele>136.2</ele>
        <time>2025-07-23T06:57:17Z</time>
      </trkpt>
      <trkpt lat="43.27577" lon="-0.87554">
        <ele>136.2</ele>
        <time>2025-07-23T06:57:19Z</time>
      </trkpt>
      <trkpt lat="43.27636" lon="-0.87567">
        <ele>136.4</ele>
        <time>2025-07-23T06:57:27Z</time>
      </trkpt>
      <trkpt lat="43.27692" lon="-0.8758">
        <ele>136.6</ele>
        <time>2025-07-23T06:57:35Z</time>
      </trkpt>
      <trkpt lat="43.27745" lon="-0.87594">
        <ele>136.8</ele>
        <time>2025-07-23T06:57:43Z</time>
      </trkpt>
      <trkpt lat="43.27795" lon="-0.8761">
        <ele>137</ele>
        <time>2025-07-23T06:57:50Z</time>
      </trkpt>
      <trkpt lat="43.27847" lon="-0.87632">
        <ele>137.2</ele>
        <time>2025-07-23T06:57:58Z</time>
      </trkpt>
      <trkpt lat="43.27862" lon="-0.87638">
        <ele>137.2</ele>
        <time>2025-07-23T06:58:01Z</time>
      </trkpt>
      <trkpt lat="43.27916" lon="-0.8766">
        <ele>137.4</ele>
        <time>2025-07-23T06:58:08Z</time>
      </trkpt>
      <trkpt lat="43.27951" lon="-0.87675">
        <ele>137.2</ele>
        <time>2025-07-23T06:58:13Z</time>
      </trkpt>
      <trkpt lat="43.28008" lon="-0.877">
        <ele>136.8</ele>
        <time>2025-07-23T06:58:21Z</time>
      </trkpt>
      <trkpt lat="43.2803" lon="-0.87707">
        <ele>136.6</ele>
        <time>2025-07-23T06:58:24Z</time>
      </trkpt>
      <trkpt lat="43.28037" lon="-0.87709">
        <ele>136.4</ele>
        <time>2025-07-23T06:58:25Z</time>
      </trkpt>
      <trkpt lat="43.28076" lon="-0.87712">
        <ele>136</ele>
        <time>2025-07-23T06:58:30Z</time>
      </trkpt>
      <trkpt lat="43.28131" lon="-0.87711">
        <ele>135.8</ele>
        <time>2025-07-23T06:58:37Z</time>
      </trkpt>
      <trkpt lat="43.28144" lon="-0.87709">
        <ele>135.8</ele>
        <time>2025-07-23T06:58:39Z</time>
      </trkpt>
      <trkpt lat="43.2818" lon="-0.87696">
        <ele>135.8</ele>
        <time>2025-07-23T06:58:44Z</time>
      </trkpt>
      <trkpt lat="43.28213" lon="-0.8767">
        <ele>135.8</ele>
        <time>2025-07-23T06:58:49Z</time>
      </trkpt>
      <trkpt lat="43.28242" lon="-0.87633">
        <ele>135.4</ele>
        <time>2025-07-23T06:58:54Z</time>
      </trkpt>
      <trkpt lat="43.28247" lon="-0.87624">
        <ele>135.4</ele>
        <time>2025-07-23T06:58:55Z</time>
      </trkpt>
      <trkpt lat="43.28259" lon="-0.87596">
        <ele>134.8</ele>
        <time>2025-07-23T06:58:58Z</time>
      </trkpt>
      <trkpt lat="43.28262" lon="-0.87587">
        <ele>134.8</ele>
        <time>2025-07-23T06:58:59Z</time>
      </trkpt>
      <trkpt lat="43.28277" lon="-0.87548">
        <ele>134.4</ele>
        <time>2025-07-23T06:59:03Z</time>
      </trkpt>
      <trkpt lat="43.28302" lon="-0.87481">
        <ele>134</ele>
        <time>2025-07-23T06:59:10Z</time>
      </trkpt>
      <trkpt lat="43.28328" lon="-0.87441">
        <ele>133.8</ele>
        <time>2025-07-23T06:59:15Z</time>
      </trkpt>
      <trkpt lat="43.28335" lon="-0.87434">
        <ele>133.8</ele>
        <time>2025-07-23T06:59:16Z</time>
      </trkpt>
      <trkpt lat="43.2836" lon="-0.87413">
        <ele>134</ele>
        <time>2025-07-23T06:59:20Z</time>
      </trkpt>
      <trkpt lat="43.28402" lon="-0.8739">
        <ele>134</ele>
        <time>2025-07-23T06:59:26Z</time>
      </trkpt>
      <trkpt lat="43.28446" lon="-0.87381">
        <ele>134</ele>
        <time>2025-07-23T06:59:32Z</time>
      </trkpt>
      <trkpt lat="43.28488" lon="-0.87387">
        <ele>134</ele>
        <time>2025-07-23T06:59:38Z</time>
      </trkpt>
      <trkpt lat="43.28527" lon="-0.87406">
        <ele>134</ele>
        <time>2025-07-23T06:59:44Z</time>
      </trkpt>
      <trkpt lat="43.28579" lon="-0.8744">
        <ele>133.8</ele>
        <time>2025-07-23T06:59:52Z</time>
      </trkpt>
      <trkpt lat="43.28584" lon="-0.87443">
        <ele>133.6</ele>
        <time>2025-07-23T06:59:53Z</time>
      </trkpt>
      <trkpt lat="43.28616" lon="-0.87464">
        <ele>133.4</ele>
        <time>2025-07-23T06:59:58Z</time>
      </trkpt>
      <trkpt lat="43.28666" lon="-0.87499">
        <ele>133.6</ele>
        <time>2025-07-23T07:00:06Z</time>
      </trkpt>
      <trkpt lat="43.28673" lon="-0.87503">
        <ele>133.6</ele>
        <time>2025-07-23T07:00:07Z</time>
      </trkpt>
      <trkpt lat="43.28725" lon="-0.87538">
        <ele>133.4</ele>
        <time>2025-07-23T07:00:15Z</time>
      </trkpt>
      <trkpt lat="43.28731" lon="-0.87542">
        <ele>133.4</ele>
        <time>2025-07-23T07:00:16Z</time>
      </trkpt>
      <trkpt lat="43.28783" lon="-0.87578">
        <ele>132.8</ele>
        <time>2025-07-23T07:00:24Z</time>
      </trkpt>
      <trkpt lat="43.2879" lon="-0.87582">
        <ele>132.8</ele>
        <time>2025-07-23T07:00:25Z</time>
      </trkpt>
      <trkpt lat="43.28815" lon="-0.876">
        <ele>132.6</ele>
        <time>2025-07-23T07:00:29Z</time>
      </trkpt>
      <trkpt lat="43.28861" lon="-0.87631">
        <ele>132.4</ele>
        <time>2025-07-23T07:00:36Z</time>
      </trkpt>
      <trkpt lat="43.28912" lon="-0.87664">
        <ele>131.8</ele>
        <time>2025-07-23T07:00:44Z</time>
      </trkpt>
      <trkpt lat="43.28932" lon="-0.87678">
        <ele>131.6</ele>
        <time>2025-07-23T07:00:47Z</time>
      </trkpt>
      <trkpt lat="43.28982" lon="-0.87709">
        <ele>131.6</ele>
        <time>2025-07-23T07:00:55Z</time>
      </trkpt>
      <trkpt lat="43.28996" lon="-0.87718">
        <ele>131.4</ele>
        <time>2025-07-23T07:00:57Z</time>
      </trkpt>
      <trkpt lat="43.29046" lon="-0.87747">
        <ele>131.4</ele>
        <time>2025-07-23T07:01:05Z</time>
      </trkpt>
      <trkpt lat="43.29064" lon="-0.87757">
        <ele>131.8</ele>
        <time>2025-07-23T07:01:08Z</time>
      </trkpt>
      <trkpt lat="43.2907" lon="-0.8776">
        <ele>131.8</ele>
        <time>2025-07-23T07:01:09Z</time>
      </trkpt>
      <trkpt lat="43.29096" lon="-0.8777">
        <ele>132.2</ele>
        <time>2025-07-23T07:01:13Z</time>
      </trkpt>
      <trkpt lat="43.29103" lon="-0.87771">
        <ele>132.2</ele>
        <time>2025-07-23T07:01:14Z</time>
      </trkpt>
      <trkpt lat="43.29137" lon="-0.87774">
        <ele>132.4</ele>
        <time>2025-07-23T07:01:19Z</time>
      </trkpt>
      <trkpt lat="43.29177" lon="-0.87765">
        <ele>132.4</ele>
        <time>2025-07-23T07:01:25Z</time>
      </trkpt>
      <trkpt lat="43.29231" lon="-0.8774">
        <ele>132.4</ele>
        <time>2025-07-23T07:01:33Z</time>
      </trkpt>
      <trkpt lat="43.29237" lon="-0.87736">
        <ele>132.4</ele>
        <time>2025-07-23T07:01:34Z</time>
      </trkpt>
      <trkpt lat="43.2929" lon="-0.877">
        <ele>132.2</ele>
        <time>2025-07-23T07:01:42Z</time>
      </trkpt>
      <trkpt lat="43.29297" lon="-0.87695">
        <ele>132.2</ele>
        <time>2025-07-23T07:01:43Z</time>
      </trkpt>
      <trkpt lat="43.29348" lon="-0.87657">
        <ele>132</ele>
        <time>2025-07-23T07:01:51Z</time>
      </trkpt>
      <trkpt lat="43.29368" lon="-0.87642">
        <ele>132</ele>
        <time>2025-07-23T07:01:54Z</time>
      </trkpt>
      <trkpt lat="43.29421" lon="-0.87603">
        <ele>131.4</ele>
        <time>2025-07-23T07:02:02Z</time>
      </trkpt>
      <trkpt lat="43.29441" lon="-0.87587">
        <ele>131.2</ele>
        <time>2025-07-23T07:02:05Z</time>
      </trkpt>
      <trkpt lat="43.29493" lon="-0.87548">
        <ele>131</ele>
        <time>2025-07-23T07:02:13Z</time>
      </trkpt>
      <trkpt lat="43.29506" lon="-0.87538">
        <ele>131</ele>
        <time>2025-07-23T07:02:15Z</time>
      </trkpt>
      <trkpt lat="43.29525" lon="-0.87523">
        <ele>131</ele>
        <time>2025-07-23T07:02:18Z</time>
      </trkpt>
      <trkpt lat="43.29558" lon="-0.87498">
        <ele>130.6</ele>
        <time>2025-07-23T07:02:23Z</time>
      </trkpt>
      <trkpt lat="43.29611" lon="-0.87458">
        <ele>130.2</ele>
        <time>2025-07-23T07:02:31Z</time>
      </trkpt>
      <trkpt lat="43.29617" lon="-0.87453">
        <ele>130.2</ele>
        <time>2025-07-23T07:02:32Z</time>
      </trkpt>
      <trkpt lat="43.2965" lon="-0.87428">
        <ele>130</ele>
        <time>2025-07-23T07:02:37Z</time>
      </trkpt>
      <trkpt lat="43.29687" lon="-0.874">
        <ele>129.8</ele>
        <time>2025-07-23T07:02:43Z</time>
      </trkpt>
      <trkpt lat="43.29736" lon="-0.87362">
        <ele>129.2</ele>
        <time>2025-07-23T07:02:51Z</time>
      </trkpt>
      <trkpt lat="43.29749" lon="-0.87353">
        <ele>129</ele>
        <time>2025-07-23T07:02:53Z</time>
      </trkpt>
      <trkpt lat="43.29762" lon="-0.87344">
        <ele>128.8</ele>
        <time>2025-07-23T07:02:55Z</time>
      </trkpt>
      <trkpt lat="43.29812" lon="-0.87305">
        <ele>128.6</ele>
        <time>2025-07-23T07:03:03Z</time>
      </trkpt>
      <trkpt lat="43.29863" lon="-0.87267">
        <ele>127.8</ele>
        <time>2025-07-23T07:03:11Z</time>
      </trkpt>
      <trkpt lat="43.29875" lon="-0.87258">
        <ele>127.8</ele>
        <time>2025-07-23T07:03:13Z</time>
      </trkpt>
      <trkpt lat="43.29926" lon="-0.87218">
        <ele>127.8</ele>
        <time>2025-07-23T07:03:21Z</time>
      </trkpt>
      <trkpt lat="43.29946" lon="-0.87204">
        <ele>127.8</ele>
        <time>2025-07-23T07:03:24Z</time>
      </trkpt>
      <trkpt lat="43.29997" lon="-0.87164">
        <ele>127.4</ele>
        <time>2025-07-23T07:03:32Z</time>
      </trkpt>
      <trkpt lat="43.30023" lon="-0.87145">
        <ele>127.4</ele>
        <time>2025-07-23T07:03:36Z</time>
      </trkpt>
      <trkpt lat="43.30075" lon="-0.87106">
        <ele>127.2</ele>
        <time>2025-07-23T07:03:44Z</time>
      </trkpt>
      <trkpt lat="43.30081" lon="-0.87101">
        <ele>127</ele>
        <time>2025-07-23T07:03:45Z</time>
      </trkpt>
      <trkpt lat="43.30101" lon="-0.87086">
        <ele>126.8</ele>
        <time>2025-07-23T07:03:48Z</time>
      </trkpt>
      <trkpt lat="43.30145" lon="-0.87052">
        <ele>126.4</ele>
        <time>2025-07-23T07:03:55Z</time>
      </trkpt>
      <trkpt lat="43.30193" lon="-0.87016">
        <ele>126.2</ele>
        <time>2025-07-23T07:04:02Z</time>
      </trkpt>
      <trkpt lat="43.30213" lon="-0.87002">
        <ele>126</ele>
        <time>2025-07-23T07:04:05Z</time>
      </trkpt>
      <trkpt lat="43.30227" lon="-0.86993">
        <ele>126</ele>
        <time>2025-07-23T07:04:07Z</time>
      </trkpt>
      <trkpt lat="43.30281" lon="-0.8696">
        <ele>125.6</ele>
        <time>2025-07-23T07:04:15Z</time>
      </trkpt>
      <trkpt lat="43.30337" lon="-0.86931">
        <ele>125</ele>
        <time>2025-07-23T07:04:23Z</time>
      </trkpt>
      <trkpt lat="43.30358" lon="-0.86922">
        <ele>125</ele>
        <time>2025-07-23T07:04:26Z</time>
      </trkpt>
      <trkpt lat="43.30366" lon="-0.86919">
        <ele>125</ele>
        <time>2025-07-23T07:04:27Z</time>
      </trkpt>
      <trkpt lat="43.30424" lon="-0.869">
        <ele>124.6</ele>
        <time>2025-07-23T07:04:35Z</time>
      </trkpt>
      <trkpt lat="43.30438" lon="-0.86895">
        <ele>124.4</ele>
        <time>2025-07-23T07:04:37Z</time>
      </trkpt>
      <trkpt lat="43.30489" lon="-0.86883">
        <ele>124</ele>
        <time>2025-07-23T07:04:44Z</time>
      </trkpt>
      <trkpt lat="43.30519" lon="-0.86878">
        <ele>123.8</ele>
        <time>2025-07-23T07:04:48Z</time>
      </trkpt>
      <trkpt lat="43.30577" lon="-0.86872">
        <ele>123.4</ele>
        <time>2025-07-23T07:04:56Z</time>
      </trkpt>
      <trkpt lat="43.30635" lon="-0.86871">
        <ele>123</ele>
        <time>2025-07-23T07:05:04Z</time>
      </trkpt>
      <trkpt lat="43.30649" lon="-0.86872">
        <ele>123</ele>
        <time>2025-07-23T07:05:06Z</time>
      </trkpt>
      <trkpt lat="43.30656" lon="-0.86872">
        <ele>123</ele>
        <time>2025-07-23T07:05:07Z</time>
      </trkpt>
      <trkpt lat="43.30712" lon="-0.86878">
        <ele>122.8</ele>
        <time>2025-07-23T07:05:15Z</time>
      </trkpt>
      <trkpt lat="43.30767" lon="-0.86886">
        <ele>123</ele>
        <time>2025-07-23T07:05:23Z</time>
      </trkpt>
      <trkpt lat="43.30774" lon="-0.86887">
        <ele>123</ele>
        <time>2025-07-23T07:05:24Z</time>
      </trkpt>
      <trkpt lat="43.30831" lon="-0.86895">
        <ele>123.6</ele>
        <time>2025-07-23T07:05:32Z</time>
      </trkpt>
      <trkpt lat="43.30846" lon="-0.86898">
        <ele>123.6</ele>
        <time>2025-07-23T07:05:34Z</time>
      </trkpt>
      <trkpt lat="43.30904" lon="-0.86906">
        <ele>123</ele>
        <time>2025-07-23T07:05:42Z</time>
      </trkpt>
      <trkpt lat="43.30919" lon="-0.86908">
        <ele>122.8</ele>
        <time>2025-07-23T07:05:44Z</time>
      </trkpt>
      <trkpt lat="43.30979" lon="-0.86917">
        <ele>122.6</ele>
        <time>2025-07-23T07:05:52Z</time>
      </trkpt>
      <trkpt lat="43.31001" lon="-0.8692">
        <ele>122.6</ele>
        <time>2025-07-23T07:05:55Z</time>
      </trkpt>
      <trkpt lat="43.3106" lon="-0.86929">
        <ele>122.4</ele>
        <time>2025-07-23T07:06:03Z</time>
      </trkpt>
      <trkpt lat="43.31074" lon="-0.86931">
        <ele>122.4</ele>
        <time>2025-07-23T07:06:05Z</time>
      </trkpt>
      <trkpt lat="43.31132" lon="-0.8694">
        <ele>122.4</ele>
        <time>2025-07-23T07:06:13Z</time>
      </trkpt>
      <trkpt lat="43.31146" lon="-0.86942">
        <ele>122.4</ele>
        <time>2025-07-23T07:06:15Z</time>
      </trkpt>
      <trkpt lat="43.31193" lon="-0.86949">
        <ele>122.8</ele>
        <time>2025-07-23T07:06:22Z</time>
      </trkpt>
      <trkpt lat="43.3125" lon="-0.86959">
        <ele>123.4</ele>
        <time>2025-07-23T07:06:30Z</time>
      </trkpt>
      <trkpt lat="43.31308" lon="-0.86967">
        <ele>123.8</ele>
        <time>2025-07-23T07:06:38Z</time>
      </trkpt>
      <trkpt lat="43.31315" lon="-0.86968">
        <ele>123.8</ele>
        <time>2025-07-23T07:06:39Z</time>
      </trkpt>
      <trkpt lat="43.31374" lon="-0.86977">
        <ele>123.8</ele>
        <time>2025-07-23T07:06:47Z</time>
      </trkpt>
      <trkpt lat="43.31381" lon="-0.86979">
        <ele>123.6</ele>
        <time>2025-07-23T07:06:48Z</time>
      </trkpt>
      <trkpt lat="43.3144" lon="-0.86987">
        <ele>122.6</ele>
        <time>2025-07-23T07:06:56Z</time>
      </trkpt>
      <trkpt lat="43.31456" lon="-0.8699">
        <ele>122.4</ele>
        <time>2025-07-23T07:06:58Z</time>
      </trkpt>
      <trkpt lat="43.31489" lon="-0.86994">
        <ele>122</ele>
        <time>2025-07-23T07:07:02Z</time>
      </trkpt>
      <trkpt lat="43.31528" lon="-0.87">
        <ele>121.4</ele>
        <time>2025-07-23T07:07:07Z</time>
      </trkpt>
      <trkpt lat="43.31589" lon="-0.87009">
        <ele>121.2</ele>
        <time>2025-07-23T07:07:15Z</time>
      </trkpt>
      <trkpt lat="43.3162" lon="-0.87013">
        <ele>121</ele>
        <time>2025-07-23T07:07:19Z</time>
      </trkpt>
      <trkpt lat="43.31627" lon="-0.87014">
        <ele>121</ele>
        <time>2025-07-23T07:07:20Z</time>
      </trkpt>
      <trkpt lat="43.31687" lon="-0.87023">
        <ele>120.6</ele>
        <time>2025-07-23T07:07:28Z</time>
      </trkpt>
      <trkpt lat="43.31695" lon="-0.87025">
        <ele>120.6</ele>
        <time>2025-07-23T07:07:29Z</time>
      </trkpt>
      <trkpt lat="43.31755" lon="-0.87034">
        <ele>120.6</ele>
        <time>2025-07-23T07:07:37Z</time>
      </trkpt>
      <trkpt lat="43.31777" lon="-0.87037">
        <ele>120.4</ele>
        <time>2025-07-23T07:07:40Z</time>
      </trkpt>
      <trkpt lat="43.31836" lon="-0.87045">
        <ele>120.2</ele>
        <time>2025-07-23T07:07:48Z</time>
      </trkpt>
      <trkpt lat="43.31865" lon="-0.8705">
        <ele>120</ele>
        <time>2025-07-23T07:07:52Z</time>
      </trkpt>
      <trkpt lat="43.31923" lon="-0.87061">
        <ele>119.8</ele>
        <time>2025-07-23T07:08:00Z</time>
      </trkpt>
      <trkpt lat="43.31944" lon="-0.87066">
        <ele>119.8</ele>
        <time>2025-07-23T07:08:03Z</time>
      </trkpt>
      <trkpt lat="43.32002" lon="-0.87081">
        <ele>119.6</ele>
        <time>2025-07-23T07:08:11Z</time>
      </trkpt>
      <trkpt lat="43.32031" lon="-0.87089">
        <ele>119.4</ele>
        <time>2025-07-23T07:08:15Z</time>
      </trkpt>
      <trkpt lat="43.32088" lon="-0.87104">
        <ele>119.4</ele>
        <time>2025-07-23T07:08:23Z</time>
      </trkpt>
      <trkpt lat="43.32102" lon="-0.87107">
        <ele>119.4</ele>
        <time>2025-07-23T07:08:25Z</time>
      </trkpt>
      <trkpt lat="43.3216" lon="-0.87122">
        <ele>119</ele>
        <time>2025-07-23T07:08:33Z</time>
      </trkpt>
      <trkpt lat="43.32188" lon="-0.8713">
        <ele>119</ele>
        <time>2025-07-23T07:08:37Z</time>
      </trkpt>
      <trkpt lat="43.32224" lon="-0.87139">
        <ele>119</ele>
        <time>2025-07-23T07:08:42Z</time>
      </trkpt>
      <trkpt lat="43.32275" lon="-0.87152">
        <ele>118.6</ele>
        <time>2025-07-23T07:08:49Z</time>
      </trkpt>
      <trkpt lat="43.32325" lon="-0.87164">
        <ele>118.6</ele>
        <time>2025-07-23T07:08:56Z</time>
      </trkpt>
      <trkpt lat="43.32379" lon="-0.87179">
        <ele>118.4</ele>
        <time>2025-07-23T07:09:04Z</time>
      </trkpt>
      <trkpt lat="43.32422" lon="-0.87191">
        <ele>118.2</ele>
        <time>2025-07-23T07:09:10Z</time>
      </trkpt>
      <trkpt lat="43.32477" lon="-0.87205">
        <ele>118</ele>
        <time>2025-07-23T07:09:18Z</time>
      </trkpt>
      <trkpt lat="43.32491" lon="-0.87208">
        <ele>118</ele>
        <time>2025-07-23T07:09:20Z</time>
      </trkpt>
      <trkpt lat="43.32519" lon="-0.87216">
        <ele>118</ele>
        <time>2025-07-23T07:09:24Z</time>
      </trkpt>
      <trkpt lat="43.32573" lon="-0.8723">
        <ele>118</ele>
        <time>2025-07-23T07:09:32Z</time>
      </trkpt>
      <trkpt lat="43.32594" lon="-0.87235">
        <ele>117.8</ele>
        <time>2025-07-23T07:09:35Z</time>
      </trkpt>
      <trkpt lat="43.32648" lon="-0.87249">
        <ele>117.8</ele>
        <time>2025-07-23T07:09:43Z</time>
      </trkpt>
      <trkpt lat="43.32655" lon="-0.8725">
        <ele>117.8</ele>
        <time>2025-07-23T07:09:44Z</time>
      </trkpt>
      <trkpt lat="43.32711" lon="-0.87257">
        <ele>117.6</ele>
        <time>2025-07-23T07:09:52Z</time>
      </trkpt>
      <trkpt lat="43.32718" lon="-0.87258">
        <ele>117.4</ele>
        <time>2025-07-23T07:09:53Z</time>
      </trkpt>
      <trkpt lat="43.32775" lon="-0.8726">
        <ele>117.4</ele>
        <time>2025-07-23T07:10:01Z</time>
      </trkpt>
      <trkpt lat="43.32782" lon="-0.8726">
        <ele>117.4</ele>
        <time>2025-07-23T07:10:02Z</time>
      </trkpt>
      <trkpt lat="43.3284" lon="-0.87257">
        <ele>117.4</ele>
        <time>2025-07-23T07:10:10Z</time>
      </trkpt>
      <trkpt lat="43.32868" lon="-0.87254">
        <ele>117.4</ele>
        <time>2025-07-23T07:10:14Z</time>
      </trkpt>
      <trkpt lat="43.32924" lon="-0.87243">
        <ele>117.6</ele>
        <time>2025-07-23T07:10:22Z</time>
      </trkpt>
      <trkpt lat="43.32953" lon="-0.87236">
        <ele>117.6</ele>
        <time>2025-07-23T07:10:26Z</time>
      </trkpt>
      <trkpt lat="43.3301" lon="-0.87217">
        <ele>117</ele>
        <time>2025-07-23T07:10:34Z</time>
      </trkpt>
      <trkpt lat="43.33017" lon="-0.87214">
        <ele>116.8</ele>
        <time>2025-07-23T07:10:35Z</time>
      </trkpt>
      <trkpt lat="43.33073" lon="-0.87191">
        <ele>116.4</ele>
        <time>2025-07-23T07:10:43Z</time>
      </trkpt>
      <trkpt lat="43.33094" lon="-0.87182">
        <ele>116.4</ele>
        <time>2025-07-23T07:10:46Z</time>
      </trkpt>
      <trkpt lat="43.3315" lon="-0.87159">
        <ele>116.8</ele>
        <time>2025-07-23T07:10:54Z</time>
      </trkpt>
      <trkpt lat="43.33165" lon="-0.87154">
        <ele>116.8</ele>
        <time>2025-07-23T07:10:56Z</time>
      </trkpt>
      <trkpt lat="43.33222" lon="-0.87128">
        <ele>116.2</ele>
        <time>2025-07-23T07:11:04Z</time>
      </trkpt>
      <trkpt lat="43.33263" lon="-0.8711">
        <ele>116</ele>
        <time>2025-07-23T07:11:10Z</time>
      </trkpt>
      <trkpt lat="43.33317" lon="-0.87088">
        <ele>116.2</ele>
        <time>2025-07-23T07:11:18Z</time>
      </trkpt>
      <trkpt lat="43.33324" lon="-0.87085">
        <ele>116.2</ele>
        <time>2025-07-23T07:11:19Z</time>
      </trkpt>
      <trkpt lat="43.33378" lon="-0.87063">
        <ele>116.4</ele>
        <time>2025-07-23T07:11:27Z</time>
      </trkpt>
      <trkpt lat="43.33433" lon="-0.8704">
        <ele>116.4</ele>
        <time>2025-07-23T07:11:35Z</time>
      </trkpt>
      <trkpt lat="43.3344" lon="-0.87037">
        <ele>116.4</ele>
        <time>2025-07-23T07:11:36Z</time>
      </trkpt>
      <trkpt lat="43.33494" lon="-0.87013">
        <ele>116.4</ele>
        <time>2025-07-23T07:11:44Z</time>
      </trkpt>
      <trkpt lat="43.33508" lon="-0.87007">
        <ele>116.2</ele>
        <time>2025-07-23T07:11:46Z</time>
      </trkpt>
      <trkpt lat="43.33561" lon="-0.86984">
        <ele>116.6</ele>
        <time>2025-07-23T07:11:54Z</time>
      </trkpt>
      <trkpt lat="43.33598" lon="-0.8697">
        <ele>116.6</ele>
        <time>2025-07-23T07:12:00Z</time>
      </trkpt>
      <trkpt lat="43.33647" lon="-0.86954">
        <ele>116.8</ele>
        <time>2025-07-23T07:12:07Z</time>
      </trkpt>
      <trkpt lat="43.33682" lon="-0.86948">
        <ele>116.8</ele>
        <time>2025-07-23T07:12:12Z</time>
      </trkpt>
      <trkpt lat="43.33739" lon="-0.86945">
        <ele>116.4</ele>
        <time>2025-07-23T07:12:20Z</time>
      </trkpt>
      <trkpt lat="43.33796" lon="-0.8695">
        <ele>117</ele>
        <time>2025-07-23T07:12:28Z</time>
      </trkpt>
      <trkpt lat="43.3381" lon="-0.86953">
        <ele>117</ele>
        <time>2025-07-23T07:12:30Z</time>
      </trkpt>
      <trkpt lat="43.33859" lon="-0.86968">
        <ele>116.6</ele>
        <time>2025-07-23T07:12:37Z</time>
      </trkpt>
      <trkpt lat="43.33913" lon="-0.86992">
        <ele>116.6</ele>
        <time>2025-07-23T07:12:45Z</time>
      </trkpt>
      <trkpt lat="43.33966" lon="-0.87024">
        <ele>116.6</ele>
        <time>2025-07-23T07:12:53Z</time>
      </trkpt>
      <trkpt lat="43.33972" lon="-0.87029">
        <ele>116.6</ele>
        <time>2025-07-23T07:12:54Z</time>
      </trkpt>
      <trkpt lat="43.3402" lon="-0.87072">
        <ele>116.6</ele>
        <time>2025-07-23T07:13:02Z</time>
      </trkpt>
      <trkpt lat="43.34067" lon="-0.87122">
        <ele>116.6</ele>
        <time>2025-07-23T07:13:10Z</time>
      </trkpt>
      <trkpt lat="43.34073" lon="-0.87129">
        <ele>116.6</ele>
        <time>2025-07-23T07:13:11Z</time>
      </trkpt>
      <trkpt lat="43.34114" lon="-0.87186">
        <ele>116.6</ele>
        <time>2025-07-23T07:13:19Z</time>
      </trkpt>
      <trkpt lat="43.34155" lon="-0.87243">
        <ele>116.4</ele>
        <time>2025-07-23T07:13:27Z</time>
      </trkpt>
      <trkpt lat="43.34169" lon="-0.87264">
        <ele>116.4</ele>
        <time>2025-07-23T07:13:30Z</time>
      </trkpt>
      <trkpt lat="43.3421" lon="-0.87319">
        <ele>116.4</ele>
        <time>2025-07-23T07:13:38Z</time>
      </trkpt>
      <trkpt lat="43.34249" lon="-0.87375">
        <ele>116.4</ele>
        <time>2025-07-23T07:13:46Z</time>
      </trkpt>
      <trkpt lat="43.34269" lon="-0.87403">
        <ele>116.4</ele>
        <time>2025-07-23T07:13:50Z</time>
      </trkpt>
      <trkpt lat="43.34305" lon="-0.87452">
        <ele>116</ele>
        <time>2025-07-23T07:13:57Z</time>
      </trkpt>
      <trkpt lat="43.34321" lon="-0.87473">
        <ele>116</ele>
        <time>2025-07-23T07:14:00Z</time>
      </trkpt>
      <trkpt lat="43.34363" lon="-0.87533">
        <ele>115.8</ele>
        <time>2025-07-23T07:14:08Z</time>
      </trkpt>
      <trkpt lat="43.34368" lon="-0.8754">
        <ele>115.8</ele>
        <time>2025-07-23T07:14:09Z</time>
      </trkpt>
      <trkpt lat="43.34407" lon="-0.87593">
        <ele>115.4</ele>
        <time>2025-07-23T07:14:16Z</time>
      </trkpt>
      <trkpt lat="43.34424" lon="-0.87616">
        <ele>115.4</ele>
        <time>2025-07-23T07:14:19Z</time>
      </trkpt>
      <trkpt lat="43.34463" lon="-0.87668">
        <ele>115.2</ele>
        <time>2025-07-23T07:14:26Z</time>
      </trkpt>
      <trkpt lat="43.34485" lon="-0.87699">
        <ele>115.2</ele>
        <time>2025-07-23T07:14:30Z</time>
      </trkpt>
      <trkpt lat="43.34496" lon="-0.87714">
        <ele>115</ele>
        <time>2025-07-23T07:14:32Z</time>
      </trkpt>
      <trkpt lat="43.34539" lon="-0.87774">
        <ele>115</ele>
        <time>2025-07-23T07:14:40Z</time>
      </trkpt>
      <trkpt lat="43.34544" lon="-0.87781">
        <ele>115</ele>
        <time>2025-07-23T07:14:41Z</time>
      </trkpt>
      <trkpt lat="43.34588" lon="-0.8784">
        <ele>114.4</ele>
        <time>2025-07-23T07:14:49Z</time>
      </trkpt>
      <trkpt lat="43.34599" lon="-0.87855">
        <ele>114.2</ele>
        <time>2025-07-23T07:14:51Z</time>
      </trkpt>
      <trkpt lat="43.34632" lon="-0.879">
        <ele>114</ele>
        <time>2025-07-23T07:14:57Z</time>
      </trkpt>
      <trkpt lat="43.34654" lon="-0.87931">
        <ele>113.8</ele>
        <time>2025-07-23T07:15:01Z</time>
      </trkpt>
      <trkpt lat="43.34695" lon="-0.87986">
        <ele>113.2</ele>
        <time>2025-07-23T07:15:08Z</time>
      </trkpt>
      <trkpt lat="43.34706" lon="-0.88001">
        <ele>112.8</ele>
        <time>2025-07-23T07:15:10Z</time>
      </trkpt>
      <trkpt lat="43.34712" lon="-0.88009">
        <ele>112.8</ele>
        <time>2025-07-23T07:15:11Z</time>
      </trkpt>
      <trkpt lat="43.34754" lon="-0.88067">
        <ele>112.2</ele>
        <time>2025-07-23T07:15:19Z</time>
      </trkpt>
      <trkpt lat="43.3478" lon="-0.88099">
        <ele>111.8</ele>
        <time>2025-07-23T07:15:24Z</time>
      </trkpt>
      <trkpt lat="43.3479" lon="-0.88112">
        <ele>111.6</ele>
        <time>2025-07-23T07:15:26Z</time>
      </trkpt>
      <trkpt lat="43.34801" lon="-0.88122">
        <ele>111.8</ele>
        <time>2025-07-23T07:15:28Z</time>
      </trkpt>
      <trkpt lat="43.34813" lon="-0.88129">
        <ele>111.6</ele>
        <time>2025-07-23T07:15:30Z</time>
      </trkpt>
      <trkpt lat="43.34819" lon="-0.88133">
        <ele>111.6</ele>
        <time>2025-07-23T07:15:31Z</time>
      </trkpt>
      <trkpt lat="43.34828" lon="-0.88146">
        <ele>111.4</ele>
        <time>2025-07-23T07:15:33Z</time>
      </trkpt>
      <trkpt lat="43.34836" lon="-0.88171">
        <ele>111.4</ele>
        <time>2025-07-23T07:15:36Z</time>
      </trkpt>
      <trkpt lat="43.3484" lon="-0.88179">
        <ele>111.6</ele>
        <time>2025-07-23T07:15:37Z</time>
      </trkpt>
      <trkpt lat="43.34881" lon="-0.88238">
        <ele>112</ele>
        <time>2025-07-23T07:15:46Z</time>
      </trkpt>
      <trkpt lat="43.34922" lon="-0.88295">
        <ele>112</ele>
        <time>2025-07-23T07:15:55Z</time>
      </trkpt>
      <trkpt lat="43.34963" lon="-0.88351">
        <ele>112.4</ele>
        <time>2025-07-23T07:16:04Z</time>
      </trkpt>
      <trkpt lat="43.34995" lon="-0.88397">
        <ele>112.6</ele>
        <time>2025-07-23T07:16:11Z</time>
      </trkpt>
      <trkpt lat="43.35038" lon="-0.88454">
        <ele>112.8</ele>
        <time>2025-07-23T07:16:20Z</time>
      </trkpt>
      <trkpt lat="43.35079" lon="-0.88509">
        <ele>112.4</ele>
        <time>2025-07-23T07:16:28Z</time>
      </trkpt>
      <trkpt lat="43.35095" lon="-0.88532">
        <ele>112.2</ele>
        <time>2025-07-23T07:16:31Z</time>
      </trkpt>
      <trkpt lat="43.35134" lon="-0.88586">
        <ele>111.4</ele>
        <time>2025-07-23T07:16:38Z</time>
      </trkpt>
      <trkpt lat="43.3514" lon="-0.88594">
        <ele>111.4</ele>
        <time>2025-07-23T07:16:39Z</time>
      </trkpt>
      <trkpt lat="43.3515" lon="-0.88608">
        <ele>110.8</ele>
        <time>2025-07-23T07:16:41Z</time>
      </trkpt>
      <trkpt lat="43.35191" lon="-0.88662">
        <ele>110.2</ele>
        <time>2025-07-23T07:16:48Z</time>
      </trkpt>
      <trkpt lat="43.35212" lon="-0.88691">
        <ele>109.8</ele>
        <time>2025-07-23T07:16:52Z</time>
      </trkpt>
      <trkpt lat="43.35252" lon="-0.88745">
        <ele>109.4</ele>
        <time>2025-07-23T07:16:59Z</time>
      </trkpt>
      <trkpt lat="43.35256" lon="-0.88751">
        <ele>109.2</ele>
        <time>2025-07-23T07:17:00Z</time>
      </trkpt>
      <trkpt lat="43.35296" lon="-0.88806">
        <ele>109</ele>
        <time>2025-07-23T07:17:07Z</time>
      </trkpt>
      <trkpt lat="43.35312" lon="-0.88828">
        <ele>108.8</ele>
        <time>2025-07-23T07:17:10Z</time>
      </trkpt>
      <trkpt lat="43.35352" lon="-0.8888">
        <ele>108.4</ele>
        <time>2025-07-23T07:17:17Z</time>
      </trkpt>
      <trkpt lat="43.35369" lon="-0.88903">
        <ele>108.2</ele>
        <time>2025-07-23T07:17:20Z</time>
      </trkpt>
      <trkpt lat="43.35398" lon="-0.88941">
        <ele>107.8</ele>
        <time>2025-07-23T07:17:25Z</time>
      </trkpt>
      <trkpt lat="43.35431" lon="-0.88987">
        <ele>107.4</ele>
        <time>2025-07-23T07:17:31Z</time>
      </trkpt>
      <trkpt lat="43.35473" lon="-0.89046">
        <ele>107.4</ele>
        <time>2025-07-23T07:17:39Z</time>
      </trkpt>
      <trkpt lat="43.355" lon="-0.89081">
        <ele>107.4</ele>
        <time>2025-07-23T07:17:44Z</time>
      </trkpt>
      <trkpt lat="43.35541" lon="-0.89137">
        <ele>107.6</ele>
        <time>2025-07-23T07:17:52Z</time>
      </trkpt>
      <trkpt lat="43.35546" lon="-0.89144">
        <ele>107.6</ele>
        <time>2025-07-23T07:17:53Z</time>
      </trkpt>
      <trkpt lat="43.35587" lon="-0.892">
        <ele>107.8</ele>
        <time>2025-07-23T07:18:01Z</time>
      </trkpt>
      <trkpt lat="43.35592" lon="-0.89207">
        <ele>107.8</ele>
        <time>2025-07-23T07:18:02Z</time>
      </trkpt>
      <trkpt lat="43.35629" lon="-0.89258">
        <ele>107.2</ele>
        <time>2025-07-23T07:18:09Z</time>
      </trkpt>
      <trkpt lat="43.35661" lon="-0.89305">
        <ele>106.8</ele>
        <time>2025-07-23T07:18:15Z</time>
      </trkpt>
      <trkpt lat="43.35672" lon="-0.89321">
        <ele>106.8</ele>
        <time>2025-07-23T07:18:17Z</time>
      </trkpt>
      <trkpt lat="43.35708" lon="-0.89377">
        <ele>106.2</ele>
        <time>2025-07-23T07:18:24Z</time>
      </trkpt>
      <trkpt lat="43.35723" lon="-0.89402">
        <ele>106.2</ele>
        <time>2025-07-23T07:18:27Z</time>
      </trkpt>
      <trkpt lat="43.35759" lon="-0.89459">
        <ele>105.8</ele>
        <time>2025-07-23T07:18:34Z</time>
      </trkpt>
      <trkpt lat="43.35764" lon="-0.89468">
        <ele>105.8</ele>
        <time>2025-07-23T07:18:35Z</time>
      </trkpt>
      <trkpt lat="43.35799" lon="-0.89525">
        <ele>105.6</ele>
        <time>2025-07-23T07:18:42Z</time>
      </trkpt>
      <trkpt lat="43.35815" lon="-0.89549">
        <ele>105.6</ele>
        <time>2025-07-23T07:18:45Z</time>
      </trkpt>
      <trkpt lat="43.35855" lon="-0.89612">
        <ele>105.2</ele>
        <time>2025-07-23T07:18:53Z</time>
      </trkpt>
      <trkpt lat="43.35876" lon="-0.89645">
        <ele>105</ele>
        <time>2025-07-23T07:18:57Z</time>
      </trkpt>
      <trkpt lat="43.35911" lon="-0.89701">
        <ele>104.8</ele>
        <time>2025-07-23T07:19:04Z</time>
      </trkpt>
      <trkpt lat="43.35936" lon="-0.89742">
        <ele>104.6</ele>
        <time>2025-07-23T07:19:09Z</time>
      </trkpt>
      <trkpt lat="43.35972" lon="-0.89799">
        <ele>104.4</ele>
        <time>2025-07-23T07:19:16Z</time>
      </trkpt>
      <trkpt lat="43.35987" lon="-0.89823">
        <ele>104.4</ele>
        <time>2025-07-23T07:19:19Z</time>
      </trkpt>
      <trkpt lat="43.36022" lon="-0.89879">
        <ele>104.2</ele>
        <time>2025-07-23T07:19:26Z</time>
      </trkpt>
      <trkpt lat="43.36046" lon="-0.89921">
        <ele>104.2</ele>
        <time>2025-07-23T07:19:31Z</time>
      </trkpt>
      <trkpt lat="43.36079" lon="-0.8999">
        <ele>104</ele>
        <time>2025-07-23T07:19:39Z</time>
      </trkpt>
      <trkpt lat="43.36087" lon="-0.90007">
        <ele>104</ele>
        <time>2025-07-23T07:19:41Z</time>
      </trkpt>
      <trkpt lat="43.36113" lon="-0.90081">
        <ele>103.8</ele>
        <time>2025-07-23T07:19:49Z</time>
      </trkpt>
      <trkpt lat="43.3613" lon="-0.90148">
        <ele>103.6</ele>
        <time>2025-07-23T07:19:56Z</time>
      </trkpt>
      <trkpt lat="43.3614" lon="-0.90212">
        <ele>103.6</ele>
        <time>2025-07-23T07:20:02Z</time>
      </trkpt>
      <trkpt lat="43.36154" lon="-0.90285">
        <ele>103.2</ele>
        <time>2025-07-23T07:20:09Z</time>
      </trkpt>
      <trkpt lat="43.3616" lon="-0.90326">
        <ele>102.8</ele>
        <time>2025-07-23T07:20:13Z</time>
      </trkpt>
      <trkpt lat="43.36166" lon="-0.90366">
        <ele>102.6</ele>
        <time>2025-07-23T07:20:17Z</time>
      </trkpt>
      <trkpt lat="43.36178" lon="-0.90444">
        <ele>102.4</ele>
        <time>2025-07-23T07:20:25Z</time>
      </trkpt>
      <trkpt lat="43.36182" lon="-0.90464">
        <ele>102.4</ele>
        <time>2025-07-23T07:20:27Z</time>
      </trkpt>
      <trkpt lat="43.362" lon="-0.9054">
        <ele>102.2</ele>
        <time>2025-07-23T07:20:35Z</time>
      </trkpt>
      <trkpt lat="43.36203" lon="-0.90549">
        <ele>102.2</ele>
        <time>2025-07-23T07:20:36Z</time>
      </trkpt>
      <trkpt lat="43.3623" lon="-0.90619">
        <ele>102</ele>
        <time>2025-07-23T07:20:44Z</time>
      </trkpt>
      <trkpt lat="43.36233" lon="-0.90628">
        <ele>102</ele>
        <time>2025-07-23T07:20:45Z</time>
      </trkpt>
      <trkpt lat="43.36263" lon="-0.90686">
        <ele>101.8</ele>
        <time>2025-07-23T07:20:52Z</time>
      </trkpt>
      <trkpt lat="43.36268" lon="-0.90693">
        <ele>101.8</ele>
        <time>2025-07-23T07:20:53Z</time>
      </trkpt>
      <trkpt lat="43.36307" lon="-0.90754">
        <ele>101.4</ele>
        <time>2025-07-23T07:21:01Z</time>
      </trkpt>
      <trkpt lat="43.36317" lon="-0.90769">
        <ele>101.4</ele>
        <time>2025-07-23T07:21:03Z</time>
      </trkpt>
      <trkpt lat="43.36356" lon="-0.90828">
        <ele>101.2</ele>
        <time>2025-07-23T07:21:11Z</time>
      </trkpt>
      <trkpt lat="43.3637" lon="-0.9085">
        <ele>101</ele>
        <time>2025-07-23T07:21:14Z</time>
      </trkpt>
      <trkpt lat="43.36407" lon="-0.90914">
        <ele>101</ele>
        <time>2025-07-23T07:21:22Z</time>
      </trkpt>
      <trkpt lat="43.36411" lon="-0.90922">
        <ele>101</ele>
        <time>2025-07-23T07:21:23Z</time>
      </trkpt>
      <trkpt lat="43.36432" lon="-0.90973">
        <ele>100.8</ele>
        <time>2025-07-23T07:21:29Z</time>
      </trkpt>
      <trkpt lat="43.36443" lon="-0.90998">
        <ele>100.6</ele>
        <time>2025-07-23T07:21:32Z</time>
      </trkpt>
      <trkpt lat="43.3647" lon="-0.91065">
        <ele>100.6</ele>
        <time>2025-07-23T07:21:40Z</time>
      </trkpt>
      <trkpt lat="43.36481" lon="-0.9109">
        <ele>100.8</ele>
        <time>2025-07-23T07:21:43Z</time>
      </trkpt>
      <trkpt lat="43.36509" lon="-0.91157">
        <ele>100.6</ele>
        <time>2025-07-23T07:21:51Z</time>
      </trkpt>
      <trkpt lat="43.36523" lon="-0.9119">
        <ele>100.6</ele>
        <time>2025-07-23T07:21:55Z</time>
      </trkpt>
      <trkpt lat="43.36551" lon="-0.91256">
        <ele>100.4</ele>
        <time>2025-07-23T07:22:03Z</time>
      </trkpt>
      <trkpt lat="43.36569" lon="-0.91299">
        <ele>100.4</ele>
        <time>2025-07-23T07:22:08Z</time>
      </trkpt>
      <trkpt lat="43.36598" lon="-0.91366">
        <ele>100.2</ele>
        <time>2025-07-23T07:22:16Z</time>
      </trkpt>
      <trkpt lat="43.36612" lon="-0.914">
        <ele>100</ele>
        <time>2025-07-23T07:22:20Z</time>
      </trkpt>
      <trkpt lat="43.3663" lon="-0.91441">
        <ele>100</ele>
        <time>2025-07-23T07:22:25Z</time>
      </trkpt>
      <trkpt lat="43.36658" lon="-0.91508">
        <ele>99.6</ele>
        <time>2025-07-23T07:22:33Z</time>
      </trkpt>
      <trkpt lat="43.36662" lon="-0.91517">
        <ele>99.6</ele>
        <time>2025-07-23T07:22:34Z</time>
      </trkpt>
      <trkpt lat="43.3669" lon="-0.91584">
        <ele>99.6</ele>
        <time>2025-07-23T07:22:42Z</time>
      </trkpt>
      <trkpt lat="43.36708" lon="-0.91626">
        <ele>99.6</ele>
        <time>2025-07-23T07:22:47Z</time>
      </trkpt>
      <trkpt lat="43.36737" lon="-0.91694">
        <ele>99.4</ele>
        <time>2025-07-23T07:22:55Z</time>
      </trkpt>
      <trkpt lat="43.36748" lon="-0.9172">
        <ele>99.2</ele>
        <time>2025-07-23T07:22:58Z</time>
      </trkpt>
      <trkpt lat="43.36759" lon="-0.91746">
        <ele>99</ele>
        <time>2025-07-23T07:23:01Z</time>
      </trkpt>
      <trkpt lat="43.36788" lon="-0.91815">
        <ele>98.6</ele>
        <time>2025-07-23T07:23:09Z</time>
      </trkpt>
      <trkpt lat="43.36791" lon="-0.91824">
        <ele>98.6</ele>
        <time>2025-07-23T07:23:10Z</time>
      </trkpt>
      <trkpt lat="43.3682" lon="-0.91892">
        <ele>98.6</ele>
        <time>2025-07-23T07:23:18Z</time>
      </trkpt>
      <trkpt lat="43.36835" lon="-0.91927">
        <ele>98.6</ele>
        <time>2025-07-23T07:23:22Z</time>
      </trkpt>
      <trkpt lat="43.36863" lon="-0.91995">
        <ele>98.4</ele>
        <time>2025-07-23T07:23:30Z</time>
      </trkpt>
      <trkpt lat="43.3687" lon="-0.92012">
        <ele>98.6</ele>
        <time>2025-07-23T07:23:32Z</time>
      </trkpt>
      <trkpt lat="43.36896" lon="-0.92068">
        <ele>98.8</ele>
        <time>2025-07-23T07:23:39Z</time>
      </trkpt>
      <trkpt lat="43.36932" lon="-0.92136">
        <ele>99</ele>
        <time>2025-07-23T07:23:48Z</time>
      </trkpt>
      <trkpt lat="43.36967" lon="-0.92194">
        <ele>99</ele>
        <time>2025-07-23T07:23:56Z</time>
      </trkpt>
      <trkpt lat="43.36976" lon="-0.9221">
        <ele>99</ele>
        <time>2025-07-23T07:23:58Z</time>
      </trkpt>
      <trkpt lat="43.37012" lon="-0.9227">
        <ele>98.8</ele>
        <time>2025-07-23T07:24:06Z</time>
      </trkpt>
      <trkpt lat="43.37017" lon="-0.92278">
        <ele>98.8</ele>
        <time>2025-07-23T07:24:07Z</time>
      </trkpt>
      <trkpt lat="43.37053" lon="-0.92337">
        <ele>98.4</ele>
        <time>2025-07-23T07:24:15Z</time>
      </trkpt>
      <trkpt lat="43.37067" lon="-0.9236">
        <ele>98.4</ele>
        <time>2025-07-23T07:24:18Z</time>
      </trkpt>
      <trkpt lat="43.37103" lon="-0.92419">
        <ele>98.4</ele>
        <time>2025-07-23T07:24:26Z</time>
      </trkpt>
      <trkpt lat="43.37107" lon="-0.92426">
        <ele>98.4</ele>
        <time>2025-07-23T07:24:27Z</time>
      </trkpt>
      <trkpt lat="43.37135" lon="-0.92472">
        <ele>98</ele>
        <time>2025-07-23T07:24:33Z</time>
      </trkpt>
      <trkpt lat="43.37152" lon="-0.92502">
        <ele>98</ele>
        <time>2025-07-23T07:24:37Z</time>
      </trkpt>
      <trkpt lat="43.37188" lon="-0.92564">
        <ele>97.6</ele>
        <time>2025-07-23T07:24:45Z</time>
      </trkpt>
      <trkpt lat="43.37198" lon="-0.92579">
        <ele>97.6</ele>
        <time>2025-07-23T07:24:47Z</time>
      </trkpt>
      <trkpt lat="43.37233" lon="-0.9264">
        <ele>97.8</ele>
        <time>2025-07-23T07:24:55Z</time>
      </trkpt>
      <trkpt lat="43.37242" lon="-0.92655">
        <ele>97.8</ele>
        <time>2025-07-23T07:24:57Z</time>
      </trkpt>
      <trkpt lat="43.37278" lon="-0.92715">
        <ele>97.6</ele>
        <time>2025-07-23T07:25:05Z</time>
      </trkpt>
      <trkpt lat="43.373" lon="-0.92753">
        <ele>97.6</ele>
        <time>2025-07-23T07:25:10Z</time>
      </trkpt>
      <trkpt lat="43.37335" lon="-0.92814">
        <ele>97.4</ele>
        <time>2025-07-23T07:25:18Z</time>
      </trkpt>
      <trkpt lat="43.37338" lon="-0.9282">
        <ele>97.4</ele>
        <time>2025-07-23T07:25:19Z</time>
      </trkpt>
      <trkpt lat="43.37375" lon="-0.92881">
        <ele>97.4</ele>
        <time>2025-07-23T07:25:27Z</time>
      </trkpt>
      <trkpt lat="43.37383" lon="-0.92894">
        <ele>97.2</ele>
        <time>2025-07-23T07:25:29Z</time>
      </trkpt>
      <trkpt lat="43.37397" lon="-0.92918">
        <ele>97.2</ele>
        <time>2025-07-23T07:25:32Z</time>
      </trkpt>
      <trkpt lat="43.37428" lon="-0.9297">
        <ele>97</ele>
        <time>2025-07-23T07:25:39Z</time>
      </trkpt>
      <trkpt lat="43.37465" lon="-0.93028">
        <ele>96.8</ele>
        <time>2025-07-23T07:25:47Z</time>
      </trkpt>
      <trkpt lat="43.37469" lon="-0.93033">
        <ele>96.8</ele>
        <time>2025-07-23T07:25:48Z</time>
      </trkpt>
      <trkpt lat="43.37509" lon="-0.93089">
        <ele>96.6</ele>
        <time>2025-07-23T07:25:56Z</time>
      </trkpt>
      <trkpt lat="43.37514" lon="-0.93096">
        <ele>96.6</ele>
        <time>2025-07-23T07:25:57Z</time>
      </trkpt>
      <trkpt lat="43.37556" lon="-0.93148">
        <ele>96.4</ele>
        <time>2025-07-23T07:26:05Z</time>
      </trkpt>
      <trkpt lat="43.37567" lon="-0.9316">
        <ele>96.4</ele>
        <time>2025-07-23T07:26:07Z</time>
      </trkpt>
      <trkpt lat="43.37612" lon="-0.93209">
        <ele>96.4</ele>
        <time>2025-07-23T07:26:15Z</time>
      </trkpt>
      <trkpt lat="43.37618" lon="-0.93215">
        <ele>96.4</ele>
        <time>2025-07-23T07:26:16Z</time>
      </trkpt>
      <trkpt lat="43.37667" lon="-0.93263">
        <ele>96.2</ele>
        <time>2025-07-23T07:26:24Z</time>
      </trkpt>
      <trkpt lat="43.3768" lon="-0.93273">
        <ele>96.2</ele>
        <time>2025-07-23T07:26:26Z</time>
      </trkpt>
      <trkpt lat="43.37686" lon="-0.93279">
        <ele>96</ele>
        <time>2025-07-23T07:26:27Z</time>
      </trkpt>
      <trkpt lat="43.37737" lon="-0.93322">
        <ele>95.8</ele>
        <time>2025-07-23T07:26:35Z</time>
      </trkpt>
      <trkpt lat="43.37749" lon="-0.93331">
        <ele>95.8</ele>
        <time>2025-07-23T07:26:37Z</time>
      </trkpt>
      <trkpt lat="43.37803" lon="-0.93369">
        <ele>95.8</ele>
        <time>2025-07-23T07:26:45Z</time>
      </trkpt>
      <trkpt lat="43.37821" lon="-0.93382">
        <ele>95.6</ele>
        <time>2025-07-23T07:26:48Z</time>
      </trkpt>
      <trkpt lat="43.37876" lon="-0.93414">
        <ele>95.6</ele>
        <time>2025-07-23T07:26:56Z</time>
      </trkpt>
      <trkpt lat="43.37896" lon="-0.93425">
        <ele>95.6</ele>
        <time>2025-07-23T07:26:59Z</time>
      </trkpt>
      <trkpt lat="43.37953" lon="-0.93454">
        <ele>95.4</ele>
        <time>2025-07-23T07:27:07Z</time>
      </trkpt>
      <trkpt lat="43.38006" lon="-0.93479">
        <ele>95.2</ele>
        <time>2025-07-23T07:27:15Z</time>
      </trkpt>
      <trkpt lat="43.38034" lon="-0.9349">
        <ele>95.2</ele>
        <time>2025-07-23T07:27:19Z</time>
      </trkpt>
      <trkpt lat="43.38089" lon="-0.93509">
        <ele>95.2</ele>
        <time>2025-07-23T07:27:27Z</time>
      </trkpt>
      <trkpt lat="43.38103" lon="-0.93513">
        <ele>95.2</ele>
        <time>2025-07-23T07:27:29Z</time>
      </trkpt>
      <trkpt lat="43.38158" lon="-0.9353">
        <ele>95.4</ele>
        <time>2025-07-23T07:27:37Z</time>
      </trkpt>
      <trkpt lat="43.38172" lon="-0.93535">
        <ele>95.4</ele>
        <time>2025-07-23T07:27:39Z</time>
      </trkpt>
      <trkpt lat="43.38228" lon="-0.93552">
        <ele>95.4</ele>
        <time>2025-07-23T07:27:47Z</time>
      </trkpt>
      <trkpt lat="43.38249" lon="-0.93559">
        <ele>95.4</ele>
        <time>2025-07-23T07:27:50Z</time>
      </trkpt>
      <trkpt lat="43.38306" lon="-0.93576">
        <ele>95.4</ele>
        <time>2025-07-23T07:27:58Z</time>
      </trkpt>
      <trkpt lat="43.38321" lon="-0.93581">
        <ele>95.4</ele>
        <time>2025-07-23T07:28:00Z</time>
      </trkpt>
      <trkpt lat="43.38379" lon="-0.93599">
        <ele>95.2</ele>
        <time>2025-07-23T07:28:08Z</time>
      </trkpt>
      <trkpt lat="43.38394" lon="-0.93604">
        <ele>95.2</ele>
        <time>2025-07-23T07:28:10Z</time>
      </trkpt>
      <trkpt lat="43.38438" lon="-0.93619">
        <ele>95</ele>
        <time>2025-07-23T07:28:16Z</time>
      </trkpt>
      <trkpt lat="43.38467" lon="-0.93628">
        <ele>95</ele>
        <time>2025-07-23T07:28:20Z</time>
      </trkpt>
      <trkpt lat="43.38526" lon="-0.93647">
        <ele>94.8</ele>
        <time>2025-07-23T07:28:28Z</time>
      </trkpt>
      <trkpt lat="43.3854" lon="-0.93653">
        <ele>94.8</ele>
        <time>2025-07-23T07:28:30Z</time>
      </trkpt>
      <trkpt lat="43.38593" lon="-0.9367">
        <ele>94.4</ele>
        <time>2025-07-23T07:28:37Z</time>
      </trkpt>
      <trkpt lat="43.38616" lon="-0.93677">
        <ele>94.4</ele>
        <time>2025-07-23T07:28:40Z</time>
      </trkpt>
      <trkpt lat="43.38668" lon="-0.93697">
        <ele>94.2</ele>
        <time>2025-07-23T07:28:47Z</time>
      </trkpt>
      <trkpt lat="43.38691" lon="-0.93705">
        <ele>94.2</ele>
        <time>2025-07-23T07:28:50Z</time>
      </trkpt>
      <trkpt lat="43.38698" lon="-0.93708">
        <ele>94</ele>
        <time>2025-07-23T07:28:51Z</time>
      </trkpt>
      <trkpt lat="43.38747" lon="-0.93726">
        <ele>93.2</ele>
        <time>2025-07-23T07:28:58Z</time>
      </trkpt>
      <trkpt lat="43.3876" lon="-0.93732">
        <ele>93</ele>
        <time>2025-07-23T07:29:00Z</time>
      </trkpt>
      <trkpt lat="43.38803" lon="-0.93752">
        <ele>92.8</ele>
        <time>2025-07-23T07:29:07Z</time>
      </trkpt>
      <trkpt lat="43.38831" lon="-0.93768">
        <ele>92.6</ele>
        <time>2025-07-23T07:29:12Z</time>
      </trkpt>
      <trkpt lat="43.38837" lon="-0.9377">
        <ele>92.6</ele>
        <time>2025-07-23T07:29:13Z</time>
      </trkpt>
      <trkpt lat="43.38842" lon="-0.93772">
        <ele>92.6</ele>
        <time>2025-07-23T07:29:14Z</time>
      </trkpt>
      <trkpt lat="43.38854" lon="-0.93768">
        <ele>92.6</ele>
        <time>2025-07-23T07:29:16Z</time>
      </trkpt>
      <trkpt lat="43.38866" lon="-0.93764">
        <ele>92.6</ele>
        <time>2025-07-23T07:29:18Z</time>
      </trkpt>
      <trkpt lat="43.38873" lon="-0.93765">
        <ele>92.6</ele>
        <time>2025-07-23T07:29:19Z</time>
      </trkpt>
      <trkpt lat="43.3888" lon="-0.93768">
        <ele>92.6</ele>
        <time>2025-07-23T07:29:20Z</time>
      </trkpt>
      <trkpt lat="43.38892" lon="-0.9378">
        <ele>92.6</ele>
        <time>2025-07-23T07:29:22Z</time>
      </trkpt>
      <trkpt lat="43.38922" lon="-0.93821">
        <ele>92.2</ele>
        <time>2025-07-23T07:29:28Z</time>
      </trkpt>
      <trkpt lat="43.3893" lon="-0.93831">
        <ele>92</ele>
        <time>2025-07-23T07:29:30Z</time>
      </trkpt>
      <trkpt lat="43.38938" lon="-0.93841">
        <ele>91.8</ele>
        <time>2025-07-23T07:29:33Z</time>
      </trkpt>
      <trkpt lat="43.3894" lon="-0.93843">
        <ele>91.6</ele>
        <time>2025-07-23T07:29:36Z</time>
      </trkpt>
      <trkpt lat="43.3894" lon="-0.93843">
        <ele>91.4</ele>
        <time>2025-07-23T07:29:37Z</time>
      </trkpt>
      <trkpt lat="43.38945" lon="-0.93852">
        <ele>91</ele>
        <time>2025-07-23T07:33:06Z</time>
      </trkpt>
      <trkpt lat="43.38949" lon="-0.93856">
        <ele>91</ele>
        <time>2025-07-23T07:33:08Z</time>
      </trkpt>
      <trkpt lat="43.3896" lon="-0.93873">
        <ele>91</ele>
        <time>2025-07-23T07:33:13Z</time>
      </trkpt>
      <trkpt lat="43.38981" lon="-0.93903">
        <ele>90.6</ele>
        <time>2025-07-23T07:33:19Z</time>
      </trkpt>
      <trkpt lat="43.39007" lon="-0.93945">
        <ele>91</ele>
        <time>2025-07-23T07:33:27Z</time>
      </trkpt>
      <trkpt lat="43.39031" lon="-0.93994">
        <ele>91.6</ele>
        <time>2025-07-23T07:33:35Z</time>
      </trkpt>
      <trkpt lat="43.39057" lon="-0.94061">
        <ele>91.6</ele>
        <time>2025-07-23T07:33:45Z</time>
      </trkpt>
      <trkpt lat="43.39075" lon="-0.94123">
        <ele>91.4</ele>
        <time>2025-07-23T07:33:53Z</time>
      </trkpt>
      <trkpt lat="43.3909" lon="-0.94168">
        <ele>91</ele>
        <time>2025-07-23T07:33:59Z</time>
      </trkpt>
      <trkpt lat="43.39119" lon="-0.9423">
        <ele>90.4</ele>
        <time>2025-07-23T07:34:08Z</time>
      </trkpt>
      <trkpt lat="43.39131" lon="-0.94254">
        <ele>90.2</ele>
        <time>2025-07-23T07:34:12Z</time>
      </trkpt>
      <trkpt lat="43.39137" lon="-0.94265">
        <ele>90.2</ele>
        <time>2025-07-23T07:34:14Z</time>
      </trkpt>
      <trkpt lat="43.39144" lon="-0.94268">
        <ele>90</ele>
        <time>2025-07-23T07:34:16Z</time>
      </trkpt>
      <trkpt lat="43.39147" lon="-0.94267">
        <ele>90</ele>
        <time>2025-07-23T07:34:17Z</time>
      </trkpt>
      <trkpt lat="43.39158" lon="-0.94261">
        <ele>90</ele>
        <time>2025-07-23T07:34:20Z</time>
      </trkpt>
      <trkpt lat="43.39162" lon="-0.94262">
        <ele>89.8</ele>
        <time>2025-07-23T07:34:21Z</time>
      </trkpt>
      <trkpt lat="43.39175" lon="-0.94274">
        <ele>89.8</ele>
        <time>2025-07-23T07:34:25Z</time>
      </trkpt>
      <trkpt lat="43.39179" lon="-0.94277">
        <ele>89.8</ele>
        <time>2025-07-23T07:34:26Z</time>
      </trkpt>
      <trkpt lat="43.39189" lon="-0.94281">
        <ele>89.6</ele>
        <time>2025-07-23T07:34:28Z</time>
      </trkpt>
      <trkpt lat="43.39195" lon="-0.94282">
        <ele>89.6</ele>
        <time>2025-07-23T07:34:29Z</time>
      </trkpt>
      <trkpt lat="43.39211" lon="-0.94287">
        <ele>89.6</ele>
        <time>2025-07-23T07:34:32Z</time>
      </trkpt>
      <trkpt lat="43.39222" lon="-0.94294">
        <ele>89.4</ele>
        <time>2025-07-23T07:34:34Z</time>
      </trkpt>
      <trkpt lat="43.39249" lon="-0.94317">
        <ele>89.2</ele>
        <time>2025-07-23T07:34:39Z</time>
      </trkpt>
      <trkpt lat="43.39261" lon="-0.94328">
        <ele>88.8</ele>
        <time>2025-07-23T07:34:41Z</time>
      </trkpt>
      <trkpt lat="43.39288" lon="-0.94351">
        <ele>88</ele>
        <time>2025-07-23T07:34:45Z</time>
      </trkpt>
      <trkpt lat="43.39295" lon="-0.94358">
        <ele>87.4</ele>
        <time>2025-07-23T07:34:46Z</time>
      </trkpt>
      <trkpt lat="43.39327" lon="-0.94387">
        <ele>86.2</ele>
        <time>2025-07-23T07:34:50Z</time>
      </trkpt>
      <trkpt lat="43.39345" lon="-0.94403">
        <ele>85</ele>
        <time>2025-07-23T07:34:52Z</time>
      </trkpt>
      <trkpt lat="43.39363" lon="-0.94419">
        <ele>83.4</ele>
        <time>2025-07-23T07:34:54Z</time>
      </trkpt>
      <trkpt lat="43.39372" lon="-0.94426">
        <ele>82.4</ele>
        <time>2025-07-23T07:34:55Z</time>
      </trkpt>
      <trkpt lat="43.39382" lon="-0.94432">
        <ele>81.4</ele>
        <time>2025-07-23T07:34:56Z</time>
      </trkpt>
      <trkpt lat="43.394" lon="-0.94442">
        <ele>80.2</ele>
        <time>2025-07-23T07:34:58Z</time>
      </trkpt>
      <trkpt lat="43.39417" lon="-0.9445">
        <ele>79.8</ele>
        <time>2025-07-23T07:35:00Z</time>
      </trkpt>
      <trkpt lat="43.39465" lon="-0.9447">
        <ele>79.4</ele>
        <time>2025-07-23T07:35:06Z</time>
      </trkpt>
      <trkpt lat="43.39503" lon="-0.94486">
        <ele>79.2</ele>
        <time>2025-07-23T07:35:11Z</time>
      </trkpt>
      <trkpt lat="43.39518" lon="-0.94494">
        <ele>79</ele>
        <time>2025-07-23T07:35:13Z</time>
      </trkpt>
      <trkpt lat="43.39547" lon="-0.94509">
        <ele>79</ele>
        <time>2025-07-23T07:35:17Z</time>
      </trkpt>
      <trkpt lat="43.39561" lon="-0.9451">
        <ele>78.8</ele>
        <time>2025-07-23T07:35:19Z</time>
      </trkpt>
      <trkpt lat="43.39574" lon="-0.94507">
        <ele>78.6</ele>
        <time>2025-07-23T07:35:21Z</time>
      </trkpt>
      <trkpt lat="43.39585" lon="-0.945">
        <ele>78.4</ele>
        <time>2025-07-23T07:35:23Z</time>
      </trkpt>
      <trkpt lat="43.39589" lon="-0.94498">
        <ele>78.4</ele>
        <time>2025-07-23T07:35:24Z</time>
      </trkpt>
      <trkpt lat="43.39597" lon="-0.94492">
        <ele>78.2</ele>
        <time>2025-07-23T07:35:26Z</time>
      </trkpt>
      <trkpt lat="43.39605" lon="-0.94483">
        <ele>78.2</ele>
        <time>2025-07-23T07:35:28Z</time>
      </trkpt>
      <trkpt lat="43.39617" lon="-0.94463">
        <ele>78.4</ele>
        <time>2025-07-23T07:35:33Z</time>
      </trkpt>
      <trkpt lat="43.39622" lon="-0.94441">
        <ele>79.6</ele>
        <time>2025-07-23T07:35:38Z</time>
      </trkpt>
      <trkpt lat="43.39623" lon="-0.94438">
        <ele>79.8</ele>
        <time>2025-07-23T07:35:39Z</time>
      </trkpt>
      <trkpt lat="43.39624" lon="-0.9443">
        <ele>80.6</ele>
        <time>2025-07-23T07:35:41Z</time>
      </trkpt>
      <trkpt lat="43.39628" lon="-0.94412">
        <ele>81.4</ele>
        <time>2025-07-23T07:35:46Z</time>
      </trkpt>
      <trkpt lat="43.39629" lon="-0.94409">
        <ele>81.6</ele>
        <time>2025-07-23T07:35:47Z</time>
      </trkpt>
      <trkpt lat="43.39632" lon="-0.94394">
        <ele>82.8</ele>
        <time>2025-07-23T07:35:51Z</time>
      </trkpt>
      <trkpt lat="43.39636" lon="-0.94383">
        <ele>83.8</ele>
        <time>2025-07-23T07:35:54Z</time>
      </trkpt>
      <trkpt lat="43.39637" lon="-0.94379">
        <ele>84</ele>
        <time>2025-07-23T07:35:55Z</time>
      </trkpt>
      <trkpt lat="43.39642" lon="-0.94362">
        <ele>85.4</ele>
        <time>2025-07-23T07:36:00Z</time>
      </trkpt>
      <trkpt lat="43.39646" lon="-0.94344">
        <ele>86.4</ele>
        <time>2025-07-23T07:36:05Z</time>
      </trkpt>
      <trkpt lat="43.39648" lon="-0.94336">
        <ele>86.8</ele>
        <time>2025-07-23T07:36:07Z</time>
      </trkpt>
      <trkpt lat="43.39652" lon="-0.94321">
        <ele>87.6</ele>
        <time>2025-07-23T07:36:11Z</time>
      </trkpt>
      <trkpt lat="43.39656" lon="-0.94302">
        <ele>88.6</ele>
        <time>2025-07-23T07:36:16Z</time>
      </trkpt>
      <trkpt lat="43.39658" lon="-0.94295">
        <ele>89</ele>
        <time>2025-07-23T07:36:18Z</time>
      </trkpt>
      <trkpt lat="43.39663" lon="-0.94277">
        <ele>89.6</ele>
        <time>2025-07-23T07:36:23Z</time>
      </trkpt>
      <trkpt lat="43.39672" lon="-0.94262">
        <ele>90.4</ele>
        <time>2025-07-23T07:36:28Z</time>
      </trkpt>
      <trkpt lat="43.3968" lon="-0.94257">
        <ele>90.8</ele>
        <time>2025-07-23T07:36:31Z</time>
      </trkpt>
      <trkpt lat="43.3969" lon="-0.94256">
        <ele>91.4</ele>
        <time>2025-07-23T07:36:34Z</time>
      </trkpt>
      <trkpt lat="43.39698" lon="-0.94254">
        <ele>91.8</ele>
        <time>2025-07-23T07:36:37Z</time>
      </trkpt>
      <trkpt lat="43.39706" lon="-0.94253">
        <ele>92.2</ele>
        <time>2025-07-23T07:36:40Z</time>
      </trkpt>
      <trkpt lat="43.39719" lon="-0.9425">
        <ele>93</ele>
        <time>2025-07-23T07:36:45Z</time>
      </trkpt>
      <trkpt lat="43.39725" lon="-0.94249">
        <ele>93.4</ele>
        <time>2025-07-23T07:36:47Z</time>
      </trkpt>
      <trkpt lat="43.39737" lon="-0.94248">
        <ele>94.2</ele>
        <time>2025-07-23T07:36:51Z</time>
      </trkpt>
      <trkpt lat="43.3975" lon="-0.94245">
        <ele>95.2</ele>
        <time>2025-07-23T07:36:56Z</time>
      </trkpt>
      <trkpt lat="43.39753" lon="-0.94245">
        <ele>95.4</ele>
        <time>2025-07-23T07:36:57Z</time>
      </trkpt>
      <trkpt lat="43.39764" lon="-0.94242">
        <ele>96.4</ele>
        <time>2025-07-23T07:37:01Z</time>
      </trkpt>
      <trkpt lat="43.39775" lon="-0.94239">
        <ele>97.6</ele>
        <time>2025-07-23T07:37:05Z</time>
      </trkpt>
      <trkpt lat="43.39788" lon="-0.94236">
        <ele>98.6</ele>
        <time>2025-07-23T07:37:10Z</time>
      </trkpt>
      <trkpt lat="43.39793" lon="-0.94234">
        <ele>99</ele>
        <time>2025-07-23T07:37:12Z</time>
      </trkpt>
      <trkpt lat="43.39805" lon="-0.9423">
        <ele>99.8</ele>
        <time>2025-07-23T07:37:16Z</time>
      </trkpt>
      <trkpt lat="43.39816" lon="-0.94228">
        <ele>100.6</ele>
        <time>2025-07-23T07:37:20Z</time>
      </trkpt>
      <trkpt lat="43.39819" lon="-0.94227">
        <ele>100.8</ele>
        <time>2025-07-23T07:37:21Z</time>
      </trkpt>
      <trkpt lat="43.39843" lon="-0.94221">
        <ele>101.4</ele>
        <time>2025-07-23T07:37:29Z</time>
      </trkpt>
      <trkpt lat="43.39863" lon="-0.94216">
        <ele>101.8</ele>
        <time>2025-07-23T07:37:36Z</time>
      </trkpt>
      <trkpt lat="43.39866" lon="-0.94215">
        <ele>102</ele>
        <time>2025-07-23T07:37:37Z</time>
      </trkpt>
      <trkpt lat="43.39884" lon="-0.94198">
        <ele>102.4</ele>
        <time>2025-07-23T07:37:44Z</time>
      </trkpt>
      <trkpt lat="43.39892" lon="-0.94182">
        <ele>103</ele>
        <time>2025-07-23T07:37:49Z</time>
      </trkpt>
      <trkpt lat="43.39896" lon="-0.9417">
        <ele>103.2</ele>
        <time>2025-07-23T07:37:52Z</time>
      </trkpt>
      <trkpt lat="43.39903" lon="-0.94138">
        <ele>103.6</ele>
        <time>2025-07-23T07:38:00Z</time>
      </trkpt>
      <trkpt lat="43.39908" lon="-0.94112">
        <ele>104</ele>
        <time>2025-07-23T07:38:07Z</time>
      </trkpt>
      <trkpt lat="43.39909" lon="-0.94108">
        <ele>104.2</ele>
        <time>2025-07-23T07:38:08Z</time>
      </trkpt>
      <trkpt lat="43.39918" lon="-0.94074">
        <ele>104.4</ele>
        <time>2025-07-23T07:38:16Z</time>
      </trkpt>
      <trkpt lat="43.39926" lon="-0.94039">
        <ele>104.8</ele>
        <time>2025-07-23T07:38:24Z</time>
      </trkpt>
      <trkpt lat="43.39926" lon="-0.94035">
        <ele>104.8</ele>
        <time>2025-07-23T07:38:25Z</time>
      </trkpt>
      <trkpt lat="43.39929" lon="-0.94019">
        <ele>105.2</ele>
        <time>2025-07-23T07:38:30Z</time>
      </trkpt>
      <trkpt lat="43.39934" lon="-0.93997">
        <ele>105.4</ele>
        <time>2025-07-23T07:38:38Z</time>
      </trkpt>
      <trkpt lat="43.39937" lon="-0.93991">
        <ele>105.2</ele>
        <time>2025-07-23T07:38:42Z</time>
      </trkpt>
      <trkpt lat="43.39943" lon="-0.93969">
        <ele>105.2</ele>
        <time>2025-07-23T07:38:47Z</time>
      </trkpt>
      <trkpt lat="43.39949" lon="-0.93942">
        <ele>105.2</ele>
        <time>2025-07-23T07:38:53Z</time>
      </trkpt>
      <trkpt lat="43.39956" lon="-0.93912">
        <ele>105.2</ele>
        <time>2025-07-23T07:39:00Z</time>
      </trkpt>
      <trkpt lat="43.39961" lon="-0.93898">
        <ele>105</ele>
        <time>2025-07-23T07:39:04Z</time>
      </trkpt>
      <trkpt lat="43.39963" lon="-0.93896">
        <ele>104.8</ele>
        <time>2025-07-23T07:39:05Z</time>
      </trkpt>
      <trkpt lat="43.39973" lon="-0.93896">
        <ele>104.6</ele>
        <time>2025-07-23T07:39:10Z</time>
      </trkpt>
      <trkpt lat="43.39977" lon="-0.93899">
        <ele>104.4</ele>
        <time>2025-07-23T07:39:13Z</time>
      </trkpt>
      <trkpt lat="43.39977" lon="-0.93903">
        <ele>104.4</ele>
        <time>2025-07-23T07:39:15Z</time>
      </trkpt>
      <trkpt lat="43.39976" lon="-0.9391">
        <ele>104.4</ele>
        <time>2025-07-23T07:39:19Z</time>
      </trkpt>
      <trkpt lat="43.39976" lon="-0.93915">
        <ele>104.2</ele>
        <time>2025-07-23T07:39:21Z</time>
      </trkpt>
      <trkpt lat="43.39976" lon="-0.93916">
        <ele>104.2</ele>
        <time>2025-07-23T07:39:22Z</time>
      </trkpt>
      <trkpt lat="43.39976" lon="-0.93917">
        <ele>104.2</ele>
        <time>2025-07-23T07:39:25Z</time>
      </trkpt>
      <trkpt lat="43.39961" lon="-0.9392">
        <ele>103.4</ele>
        <time>2025-07-23T07:41:15Z</time>
      </trkpt>
      <trkpt lat="43.39964" lon="-0.93918">
        <ele>103.4</ele>
        <time>2025-07-23T07:41:17Z</time>
      </trkpt>
      <trkpt lat="43.39965" lon="-0.93918">
        <ele>103.2</ele>
        <time>2025-07-23T07:41:21Z</time>
      </trkpt>
      <trkpt lat="43.39967" lon="-0.93917">
        <ele>103.2</ele>
        <time>2025-07-23T07:41:27Z</time>
      </trkpt>
      <trkpt lat="43.39967" lon="-0.93917">
        <ele>103.2</ele>
        <time>2025-07-23T07:41:30Z</time>
      </trkpt>
      <trkpt lat="43.39973" lon="-0.93913">
        <ele>103.6</ele>
        <time>2025-07-23T07:42:38Z</time>
      </trkpt>
      <trkpt lat="43.39977" lon="-0.93906">
        <ele>103.4</ele>
        <time>2025-07-23T07:42:41Z</time>
      </trkpt>
      <trkpt lat="43.39976" lon="-0.93908">
        <ele>103.4</ele>
        <time>2025-07-23T07:42:44Z</time>
      </trkpt>
      <trkpt lat="43.39974" lon="-0.93901">
        <ele>103.2</ele>
        <time>2025-07-23T07:42:53Z</time>
      </trkpt>
      <trkpt lat="43.39948" lon="-0.93927">
        <ele>103</ele>
        <time>2025-07-23T07:50:53Z</time>
      </trkpt>
      <trkpt lat="43.39952" lon="-0.93927">
        <ele>103.6</ele>
        <time>2025-07-23T07:50:54Z</time>
      </trkpt>
      <trkpt lat="43.39974" lon="-0.93934">
        <ele>104.2</ele>
        <time>2025-07-23T07:51:23Z</time>
      </trkpt>
      <trkpt lat="43.39976" lon="-0.93939">
        <ele>104.2</ele>
        <time>2025-07-23T07:51:25Z</time>
      </trkpt>
      <trkpt lat="43.39983" lon="-0.93962">
        <ele>104.4</ele>
        <time>2025-07-23T07:51:31Z</time>
      </trkpt>
      <trkpt lat="43.39989" lon="-0.93988">
        <ele>104.6</ele>
        <time>2025-07-23T07:51:36Z</time>
      </trkpt>
      <trkpt lat="43.39993" lon="-0.94026">
        <ele>104.8</ele>
        <time>2025-07-23T07:51:43Z</time>
      </trkpt>
      <trkpt lat="43.39997" lon="-0.94057">
        <ele>104.6</ele>
        <time>2025-07-23T07:51:48Z</time>
      </trkpt>
      <trkpt lat="43.39998" lon="-0.94064">
        <ele>104.6</ele>
        <time>2025-07-23T07:51:49Z</time>
      </trkpt>
      <trkpt lat="43.39998" lon="-0.94123">
        <ele>104.2</ele>
        <time>2025-07-23T07:51:59Z</time>
      </trkpt>
      <trkpt lat="43.39996" lon="-0.94157">
        <ele>104.2</ele>
        <time>2025-07-23T07:52:04Z</time>
      </trkpt>
      <trkpt lat="43.39994" lon="-0.94171">
        <ele>104.2</ele>
        <time>2025-07-23T07:52:06Z</time>
      </trkpt>
      <trkpt lat="43.39989" lon="-0.94223">
        <ele>103.6</ele>
        <time>2025-07-23T07:52:13Z</time>
      </trkpt>
      <trkpt lat="43.39983" lon="-0.94277">
        <ele>103.4</ele>
        <time>2025-07-23T07:52:20Z</time>
      </trkpt>
      <trkpt lat="43.3998" lon="-0.94292">
        <ele>103.4</ele>
        <time>2025-07-23T07:52:22Z</time>
      </trkpt>
      <trkpt lat="43.39975" lon="-0.94306">
        <ele>103.4</ele>
        <time>2025-07-23T07:52:24Z</time>
      </trkpt>
      <trkpt lat="43.39964" lon="-0.94335">
        <ele>103.4</ele>
        <time>2025-07-23T07:52:28Z</time>
      </trkpt>
      <trkpt lat="43.39962" lon="-0.94343">
        <ele>103.4</ele>
        <time>2025-07-23T07:52:29Z</time>
      </trkpt>
      <trkpt lat="43.39958" lon="-0.94376">
        <ele>103.4</ele>
        <time>2025-07-23T07:52:33Z</time>
      </trkpt>
      <trkpt lat="43.39958" lon="-0.94401">
        <ele>103.4</ele>
        <time>2025-07-23T07:52:36Z</time>
      </trkpt>
      <trkpt lat="43.3996" lon="-0.94417">
        <ele>103.4</ele>
        <time>2025-07-23T07:52:38Z</time>
      </trkpt>
      <trkpt lat="43.39963" lon="-0.94434">
        <ele>103.4</ele>
        <time>2025-07-23T07:52:40Z</time>
      </trkpt>
      <trkpt lat="43.39976" lon="-0.9448">
        <ele>103.4</ele>
        <time>2025-07-23T07:52:46Z</time>
      </trkpt>
      <trkpt lat="43.39997" lon="-0.94541">
        <ele>103.2</ele>
        <time>2025-07-23T07:52:54Z</time>
      </trkpt>
      <trkpt lat="43.4002" lon="-0.94601">
        <ele>103</ele>
        <time>2025-07-23T07:53:02Z</time>
      </trkpt>
      <trkpt lat="43.40036" lon="-0.94647">
        <ele>102.6</ele>
        <time>2025-07-23T07:53:08Z</time>
      </trkpt>
      <trkpt lat="43.40058" lon="-0.94709">
        <ele>102.6</ele>
        <time>2025-07-23T07:53:16Z</time>
      </trkpt>
      <trkpt lat="43.40063" lon="-0.94725">
        <ele>102.6</ele>
        <time>2025-07-23T07:53:18Z</time>
      </trkpt>
      <trkpt lat="43.40089" lon="-0.94795">
        <ele>101.8</ele>
        <time>2025-07-23T07:53:27Z</time>
      </trkpt>
      <trkpt lat="43.40111" lon="-0.94848">
        <ele>101.8</ele>
        <time>2025-07-23T07:53:34Z</time>
      </trkpt>
      <trkpt lat="43.40115" lon="-0.94854">
        <ele>101.8</ele>
        <time>2025-07-23T07:53:35Z</time>
      </trkpt>
      <trkpt lat="43.4012" lon="-0.9486">
        <ele>101.6</ele>
        <time>2025-07-23T07:53:36Z</time>
      </trkpt>
      <trkpt lat="43.40136" lon="-0.94873">
        <ele>101.6</ele>
        <time>2025-07-23T07:53:39Z</time>
      </trkpt>
      <trkpt lat="43.4014" lon="-0.94878">
        <ele>101.6</ele>
        <time>2025-07-23T07:53:40Z</time>
      </trkpt>
      <trkpt lat="43.40146" lon="-0.94891">
        <ele>101.6</ele>
        <time>2025-07-23T07:53:42Z</time>
      </trkpt>
      <trkpt lat="43.40149" lon="-0.94906">
        <ele>101.6</ele>
        <time>2025-07-23T07:53:44Z</time>
      </trkpt>
      <trkpt lat="43.4015" lon="-0.94924">
        <ele>101.8</ele>
        <time>2025-07-23T07:53:46Z</time>
      </trkpt>
      <trkpt lat="43.40151" lon="-0.94933">
        <ele>101.8</ele>
        <time>2025-07-23T07:53:47Z</time>
      </trkpt>
      <trkpt lat="43.40157" lon="-0.9495">
        <ele>101.8</ele>
        <time>2025-07-23T07:53:49Z</time>
      </trkpt>
      <trkpt lat="43.40186" lon="-0.95009">
        <ele>101.4</ele>
        <time>2025-07-23T07:53:57Z</time>
      </trkpt>
      <trkpt lat="43.40218" lon="-0.95069">
        <ele>101.4</ele>
        <time>2025-07-23T07:54:06Z</time>
      </trkpt>
      <trkpt lat="43.40248" lon="-0.95126">
        <ele>102.2</ele>
        <time>2025-07-23T07:54:15Z</time>
      </trkpt>
      <trkpt lat="43.40274" lon="-0.95175">
        <ele>102.8</ele>
        <time>2025-07-23T07:54:23Z</time>
      </trkpt>
      <trkpt lat="43.40287" lon="-0.952">
        <ele>103</ele>
        <time>2025-07-23T07:54:27Z</time>
      </trkpt>
      <trkpt lat="43.40321" lon="-0.95262">
        <ele>103.6</ele>
        <time>2025-07-23T07:54:37Z</time>
      </trkpt>
      <trkpt lat="43.40325" lon="-0.9527">
        <ele>103.6</ele>
        <time>2025-07-23T07:54:38Z</time>
      </trkpt>
      <trkpt lat="43.40327" lon="-0.95275">
        <ele>103.8</ele>
        <time>2025-07-23T07:54:39Z</time>
      </trkpt>
      <trkpt lat="43.40355" lon="-0.95326">
        <ele>103.8</ele>
        <time>2025-07-23T07:54:47Z</time>
      </trkpt>
      <trkpt lat="43.40359" lon="-0.95332">
        <ele>103.8</ele>
        <time>2025-07-23T07:54:48Z</time>
      </trkpt>
      <trkpt lat="43.40384" lon="-0.95365">
        <ele>103.8</ele>
        <time>2025-07-23T07:54:54Z</time>
      </trkpt>
      <trkpt lat="43.40427" lon="-0.9541">
        <ele>103.8</ele>
        <time>2025-07-23T07:55:03Z</time>
      </trkpt>
      <trkpt lat="43.40433" lon="-0.95415">
        <ele>103.8</ele>
        <time>2025-07-23T07:55:04Z</time>
      </trkpt>
      <trkpt lat="43.40478" lon="-0.95459">
        <ele>104.2</ele>
        <time>2025-07-23T07:55:13Z</time>
      </trkpt>
      <trkpt lat="43.4049" lon="-0.9547">
        <ele>103.8</ele>
        <time>2025-07-23T07:55:15Z</time>
      </trkpt>
      <trkpt lat="43.40539" lon="-0.95511">
        <ele>103.8</ele>
        <time>2025-07-23T07:55:24Z</time>
      </trkpt>
      <trkpt lat="43.4055" lon="-0.9552">
        <ele>103.8</ele>
        <time>2025-07-23T07:55:26Z</time>
      </trkpt>
      <trkpt lat="43.40602" lon="-0.9556">
        <ele>103.8</ele>
        <time>2025-07-23T07:55:35Z</time>
      </trkpt>
      <trkpt lat="43.40609" lon="-0.95566">
        <ele>103.8</ele>
        <time>2025-07-23T07:55:36Z</time>
      </trkpt>
      <trkpt lat="43.4066" lon="-0.95603">
        <ele>103.8</ele>
        <time>2025-07-23T07:55:45Z</time>
      </trkpt>
      <trkpt lat="43.40666" lon="-0.95607">
        <ele>103.8</ele>
        <time>2025-07-23T07:55:46Z</time>
      </trkpt>
      <trkpt lat="43.40715" lon="-0.95637">
        <ele>103.2</ele>
        <time>2025-07-23T07:55:54Z</time>
      </trkpt>
      <trkpt lat="43.40728" lon="-0.95643">
        <ele>103.2</ele>
        <time>2025-07-23T07:55:56Z</time>
      </trkpt>
      <trkpt lat="43.40761" lon="-0.95655">
        <ele>103</ele>
        <time>2025-07-23T07:56:01Z</time>
      </trkpt>
      <trkpt lat="43.40773" lon="-0.95658">
        <ele>102.8</ele>
        <time>2025-07-23T07:56:03Z</time>
      </trkpt>
      <trkpt lat="43.4078" lon="-0.9566">
        <ele>102.8</ele>
        <time>2025-07-23T07:56:04Z</time>
      </trkpt>
      <trkpt lat="43.40831" lon="-0.95681">
        <ele>102.6</ele>
        <time>2025-07-23T07:56:12Z</time>
      </trkpt>
      <trkpt lat="43.40865" lon="-0.95709">
        <ele>102.4</ele>
        <time>2025-07-23T07:56:18Z</time>
      </trkpt>
      <trkpt lat="43.40894" lon="-0.95741">
        <ele>102</ele>
        <time>2025-07-23T07:56:23Z</time>
      </trkpt>
      <trkpt lat="43.40901" lon="-0.95746">
        <ele>101.8</ele>
        <time>2025-07-23T07:56:24Z</time>
      </trkpt>
      <trkpt lat="43.40929" lon="-0.95764">
        <ele>100.8</ele>
        <time>2025-07-23T07:56:28Z</time>
      </trkpt>
      <trkpt lat="43.40941" lon="-0.95772">
        <ele>100.8</ele>
        <time>2025-07-23T07:56:30Z</time>
      </trkpt>
      <trkpt lat="43.40975" lon="-0.95793">
        <ele>99.8</ele>
        <time>2025-07-23T07:56:35Z</time>
      </trkpt>
      <trkpt lat="43.41021" lon="-0.95822">
        <ele>98.6</ele>
        <time>2025-07-23T07:56:42Z</time>
      </trkpt>
      <trkpt lat="43.41072" lon="-0.95854">
        <ele>97.8</ele>
        <time>2025-07-23T07:56:49Z</time>
      </trkpt>
      <trkpt lat="43.41079" lon="-0.95858">
        <ele>97.4</ele>
        <time>2025-07-23T07:56:50Z</time>
      </trkpt>
      <trkpt lat="43.41099" lon="-0.9587">
        <ele>96.4</ele>
        <time>2025-07-23T07:56:53Z</time>
      </trkpt>
      <trkpt lat="43.41108" lon="-0.95875">
        <ele>96</ele>
        <time>2025-07-23T07:56:54Z</time>
      </trkpt>
      <trkpt lat="43.41143" lon="-0.95893">
        <ele>95.2</ele>
        <time>2025-07-23T07:56:59Z</time>
      </trkpt>
      <trkpt lat="43.41173" lon="-0.95906">
        <ele>94.8</ele>
        <time>2025-07-23T07:57:03Z</time>
      </trkpt>
      <trkpt lat="43.41202" lon="-0.95919">
        <ele>94.4</ele>
        <time>2025-07-23T07:57:07Z</time>
      </trkpt>
      <trkpt lat="43.41207" lon="-0.95922">
        <ele>94.4</ele>
        <time>2025-07-23T07:57:08Z</time>
      </trkpt>
      <trkpt lat="43.41213" lon="-0.95927">
        <ele>94.4</ele>
        <time>2025-07-23T07:57:09Z</time>
      </trkpt>
      <trkpt lat="43.41236" lon="-0.95948">
        <ele>94.2</ele>
        <time>2025-07-23T07:57:13Z</time>
      </trkpt>
      <trkpt lat="43.41277" lon="-0.95988">
        <ele>93.6</ele>
        <time>2025-07-23T07:57:21Z</time>
      </trkpt>
      <trkpt lat="43.41281" lon="-0.95992">
        <ele>93.6</ele>
        <time>2025-07-23T07:57:22Z</time>
      </trkpt>
      <trkpt lat="43.41299" lon="-0.96011">
        <ele>93.8</ele>
        <time>2025-07-23T07:57:27Z</time>
      </trkpt>
      <trkpt lat="43.41316" lon="-0.96028">
        <ele>94.8</ele>
        <time>2025-07-23T07:57:33Z</time>
      </trkpt>
      <trkpt lat="43.41323" lon="-0.96036">
        <ele>95.4</ele>
        <time>2025-07-23T07:57:36Z</time>
      </trkpt>
      <trkpt lat="43.41331" lon="-0.96043">
        <ele>96.2</ele>
        <time>2025-07-23T07:57:39Z</time>
      </trkpt>
      <trkpt lat="43.41336" lon="-0.96047">
        <ele>96.6</ele>
        <time>2025-07-23T07:57:41Z</time>
      </trkpt>
      <trkpt lat="43.41351" lon="-0.96061">
        <ele>97.6</ele>
        <time>2025-07-23T07:57:47Z</time>
      </trkpt>
      <trkpt lat="43.41363" lon="-0.96073">
        <ele>98.8</ele>
        <time>2025-07-23T07:57:53Z</time>
      </trkpt>
      <trkpt lat="43.41369" lon="-0.96078">
        <ele>99.2</ele>
        <time>2025-07-23T07:57:56Z</time>
      </trkpt>
      <trkpt lat="43.41374" lon="-0.96084">
        <ele>100</ele>
        <time>2025-07-23T07:57:59Z</time>
      </trkpt>
      <trkpt lat="43.4138" lon="-0.96091">
        <ele>100.6</ele>
        <time>2025-07-23T07:58:02Z</time>
      </trkpt>
      <trkpt lat="43.41387" lon="-0.96097">
        <ele>101</ele>
        <time>2025-07-23T07:58:05Z</time>
      </trkpt>
      <trkpt lat="43.41393" lon="-0.96103">
        <ele>101.6</ele>
        <time>2025-07-23T07:58:08Z</time>
      </trkpt>
      <trkpt lat="43.41399" lon="-0.96109">
        <ele>102.2</ele>
        <time>2025-07-23T07:58:11Z</time>
      </trkpt>
      <trkpt lat="43.41407" lon="-0.96115">
        <ele>102.8</ele>
        <time>2025-07-23T07:58:15Z</time>
      </trkpt>
      <trkpt lat="43.41411" lon="-0.96119">
        <ele>103.2</ele>
        <time>2025-07-23T07:58:17Z</time>
      </trkpt>
      <trkpt lat="43.41419" lon="-0.96126">
        <ele>104</ele>
        <time>2025-07-23T07:58:21Z</time>
      </trkpt>
      <trkpt lat="43.41423" lon="-0.9613">
        <ele>104.4</ele>
        <time>2025-07-23T07:58:23Z</time>
      </trkpt>
      <trkpt lat="43.41435" lon="-0.96142">
        <ele>105.6</ele>
        <time>2025-07-23T07:58:29Z</time>
      </trkpt>
      <trkpt lat="43.41436" lon="-0.96143">
        <ele>105.8</ele>
        <time>2025-07-23T07:58:30Z</time>
      </trkpt>
      <trkpt lat="43.41448" lon="-0.96155">
        <ele>106.6</ele>
        <time>2025-07-23T07:58:36Z</time>
      </trkpt>
      <trkpt lat="43.41454" lon="-0.96161">
        <ele>107.2</ele>
        <time>2025-07-23T07:58:39Z</time>
      </trkpt>
      <trkpt lat="43.41463" lon="-0.96171">
        <ele>107.8</ele>
        <time>2025-07-23T07:58:43Z</time>
      </trkpt>
      <trkpt lat="43.41479" lon="-0.96185">
        <ele>108.8</ele>
        <time>2025-07-23T07:58:50Z</time>
      </trkpt>
      <trkpt lat="43.41485" lon="-0.96189">
        <ele>108.8</ele>
        <time>2025-07-23T07:58:52Z</time>
      </trkpt>
      <trkpt lat="43.41508" lon="-0.96206">
        <ele>109.8</ele>
        <time>2025-07-23T07:59:00Z</time>
      </trkpt>
      <trkpt lat="43.41535" lon="-0.96226">
        <ele>110.6</ele>
        <time>2025-07-23T07:59:08Z</time>
      </trkpt>
      <trkpt lat="43.41545" lon="-0.96234">
        <ele>110.8</ele>
        <time>2025-07-23T07:59:11Z</time>
      </trkpt>
      <trkpt lat="43.41553" lon="-0.96239">
        <ele>111</ele>
        <time>2025-07-23T07:59:13Z</time>
      </trkpt>
      <trkpt lat="43.41568" lon="-0.9625">
        <ele>111</ele>
        <time>2025-07-23T07:59:17Z</time>
      </trkpt>
      <trkpt lat="43.41604" lon="-0.96275">
        <ele>111</ele>
        <time>2025-07-23T07:59:25Z</time>
      </trkpt>
      <trkpt lat="43.4163" lon="-0.96294">
        <ele>110.4</ele>
        <time>2025-07-23T07:59:30Z</time>
      </trkpt>
      <trkpt lat="43.41656" lon="-0.96311">
        <ele>109.8</ele>
        <time>2025-07-23T07:59:34Z</time>
      </trkpt>
      <trkpt lat="43.41676" lon="-0.96325">
        <ele>108.6</ele>
        <time>2025-07-23T07:59:37Z</time>
      </trkpt>
      <trkpt lat="43.41703" lon="-0.96343">
        <ele>107</ele>
        <time>2025-07-23T07:59:41Z</time>
      </trkpt>
      <trkpt lat="43.41718" lon="-0.9635">
        <ele>106.6</ele>
        <time>2025-07-23T07:59:43Z</time>
      </trkpt>
      <trkpt lat="43.41758" lon="-0.96363">
        <ele>106.4</ele>
        <time>2025-07-23T07:59:49Z</time>
      </trkpt>
      <trkpt lat="43.41789" lon="-0.96382">
        <ele>106.8</ele>
        <time>2025-07-23T07:59:55Z</time>
      </trkpt>
      <trkpt lat="43.41826" lon="-0.96413">
        <ele>107.2</ele>
        <time>2025-07-23T08:00:02Z</time>
      </trkpt>
      <trkpt lat="43.41861" lon="-0.96442">
        <ele>106.6</ele>
        <time>2025-07-23T08:00:08Z</time>
      </trkpt>
      <trkpt lat="43.41889" lon="-0.9647">
        <ele>105.8</ele>
        <time>2025-07-23T08:00:13Z</time>
      </trkpt>
      <trkpt lat="43.41899" lon="-0.96483">
        <ele>105.6</ele>
        <time>2025-07-23T08:00:15Z</time>
      </trkpt>
      <trkpt lat="43.41929" lon="-0.96534">
        <ele>105.2</ele>
        <time>2025-07-23T08:00:22Z</time>
      </trkpt>
      <trkpt lat="43.41962" lon="-0.96594">
        <ele>105.6</ele>
        <time>2025-07-23T08:00:31Z</time>
      </trkpt>
      <trkpt lat="43.41985" lon="-0.96634">
        <ele>106.2</ele>
        <time>2025-07-23T08:00:38Z</time>
      </trkpt>
      <trkpt lat="43.41988" lon="-0.9664">
        <ele>106.4</ele>
        <time>2025-07-23T08:00:39Z</time>
      </trkpt>
      <trkpt lat="43.42008" lon="-0.96674">
        <ele>107</ele>
        <time>2025-07-23T08:00:45Z</time>
      </trkpt>
      <trkpt lat="43.42011" lon="-0.9668">
        <ele>107</ele>
        <time>2025-07-23T08:00:46Z</time>
      </trkpt>
      <trkpt lat="43.42033" lon="-0.96724">
        <ele>107.4</ele>
        <time>2025-07-23T08:00:53Z</time>
      </trkpt>
      <trkpt lat="43.42051" lon="-0.96763">
        <ele>107.2</ele>
        <time>2025-07-23T08:00:58Z</time>
      </trkpt>
      <trkpt lat="43.42075" lon="-0.96817">
        <ele>106</ele>
        <time>2025-07-23T08:01:04Z</time>
      </trkpt>
      <trkpt lat="43.42091" lon="-0.96856">
        <ele>104.8</ele>
        <time>2025-07-23T08:01:08Z</time>
      </trkpt>
      <trkpt lat="43.42104" lon="-0.96889">
        <ele>104.4</ele>
        <time>2025-07-23T08:01:12Z</time>
      </trkpt>
      <trkpt lat="43.42122" lon="-0.96942">
        <ele>104.8</ele>
        <time>2025-07-23T08:01:19Z</time>
      </trkpt>
      <trkpt lat="43.42128" lon="-0.96974">
        <ele>105.2</ele>
        <time>2025-07-23T08:01:23Z</time>
      </trkpt>
      <trkpt lat="43.42129" lon="-0.96993">
        <ele>105.2</ele>
        <time>2025-07-23T08:01:25Z</time>
      </trkpt>
      <trkpt lat="43.4213" lon="-0.97051">
        <ele>104.4</ele>
        <time>2025-07-23T08:01:31Z</time>
      </trkpt>
      <trkpt lat="43.42134" lon="-0.97069">
        <ele>104</ele>
        <time>2025-07-23T08:01:33Z</time>
      </trkpt>
      <trkpt lat="43.4214" lon="-0.97087">
        <ele>103.8</ele>
        <time>2025-07-23T08:01:35Z</time>
      </trkpt>
      <trkpt lat="43.42153" lon="-0.97113">
        <ele>102.6</ele>
        <time>2025-07-23T08:01:38Z</time>
      </trkpt>
      <trkpt lat="43.42164" lon="-0.97132">
        <ele>102.2</ele>
        <time>2025-07-23T08:01:40Z</time>
      </trkpt>
      <trkpt lat="43.4217" lon="-0.97142">
        <ele>102</ele>
        <time>2025-07-23T08:01:41Z</time>
      </trkpt>
      <trkpt lat="43.42176" lon="-0.97152">
        <ele>101.4</ele>
        <time>2025-07-23T08:01:42Z</time>
      </trkpt>
      <trkpt lat="43.42198" lon="-0.9718">
        <ele>99.8</ele>
        <time>2025-07-23T08:01:45Z</time>
      </trkpt>
      <trkpt lat="43.42207" lon="-0.97188">
        <ele>99.4</ele>
        <time>2025-07-23T08:01:46Z</time>
      </trkpt>
      <trkpt lat="43.42215" lon="-0.97195">
        <ele>98.6</ele>
        <time>2025-07-23T08:01:47Z</time>
      </trkpt>
      <trkpt lat="43.42223" lon="-0.97199">
        <ele>97.6</ele>
        <time>2025-07-23T08:01:48Z</time>
      </trkpt>
      <trkpt lat="43.42244" lon="-0.97204">
        <ele>96.2</ele>
        <time>2025-07-23T08:01:50Z</time>
      </trkpt>
      <trkpt lat="43.42254" lon="-0.97205">
        <ele>95.8</ele>
        <time>2025-07-23T08:01:51Z</time>
      </trkpt>
      <trkpt lat="43.42264" lon="-0.97204">
        <ele>95.2</ele>
        <time>2025-07-23T08:01:52Z</time>
      </trkpt>
      <trkpt lat="43.42285" lon="-0.97202">
        <ele>93.6</ele>
        <time>2025-07-23T08:01:54Z</time>
      </trkpt>
      <trkpt lat="43.42295" lon="-0.97202">
        <ele>92.6</ele>
        <time>2025-07-23T08:01:55Z</time>
      </trkpt>
      <trkpt lat="43.42318" lon="-0.97208">
        <ele>91</ele>
        <time>2025-07-23T08:01:57Z</time>
      </trkpt>
      <trkpt lat="43.42338" lon="-0.97218">
        <ele>89.2</ele>
        <time>2025-07-23T08:01:59Z</time>
      </trkpt>
      <trkpt lat="43.42359" lon="-0.97232">
        <ele>87</ele>
        <time>2025-07-23T08:02:01Z</time>
      </trkpt>
      <trkpt lat="43.42366" lon="-0.97241">
        <ele>85.4</ele>
        <time>2025-07-23T08:02:02Z</time>
      </trkpt>
      <trkpt lat="43.42372" lon="-0.97253">
        <ele>85</ele>
        <time>2025-07-23T08:02:03Z</time>
      </trkpt>
      <trkpt lat="43.42376" lon="-0.97267">
        <ele>83.6</ele>
        <time>2025-07-23T08:02:04Z</time>
      </trkpt>
      <trkpt lat="43.42379" lon="-0.97281">
        <ele>82.8</ele>
        <time>2025-07-23T08:02:05Z</time>
      </trkpt>
      <trkpt lat="43.42381" lon="-0.97295">
        <ele>82</ele>
        <time>2025-07-23T08:02:06Z</time>
      </trkpt>
      <trkpt lat="43.42384" lon="-0.97309">
        <ele>80.6</ele>
        <time>2025-07-23T08:02:07Z</time>
      </trkpt>
      <trkpt lat="43.4239" lon="-0.97336">
        <ele>79</ele>
        <time>2025-07-23T08:02:09Z</time>
      </trkpt>
      <trkpt lat="43.42395" lon="-0.97363">
        <ele>77.4</ele>
        <time>2025-07-23T08:02:11Z</time>
      </trkpt>
      <trkpt lat="43.42397" lon="-0.9739">
        <ele>75.8</ele>
        <time>2025-07-23T08:02:13Z</time>
      </trkpt>
      <trkpt lat="43.42397" lon="-0.97416">
        <ele>75.2</ele>
        <time>2025-07-23T08:02:15Z</time>
      </trkpt>
      <trkpt lat="43.42398" lon="-0.97428">
        <ele>74.6</ele>
        <time>2025-07-23T08:02:16Z</time>
      </trkpt>
      <trkpt lat="43.42404" lon="-0.97452">
        <ele>73.8</ele>
        <time>2025-07-23T08:02:18Z</time>
      </trkpt>
      <trkpt lat="43.4241" lon="-0.97461">
        <ele>73.6</ele>
        <time>2025-07-23T08:02:19Z</time>
      </trkpt>
      <trkpt lat="43.42416" lon="-0.97468">
        <ele>73</ele>
        <time>2025-07-23T08:02:20Z</time>
      </trkpt>
      <trkpt lat="43.42424" lon="-0.97473">
        <ele>72.4</ele>
        <time>2025-07-23T08:02:21Z</time>
      </trkpt>
      <trkpt lat="43.42447" lon="-0.97486">
        <ele>71.4</ele>
        <time>2025-07-23T08:02:24Z</time>
      </trkpt>
      <trkpt lat="43.42454" lon="-0.97491">
        <ele>71.2</ele>
        <time>2025-07-23T08:02:25Z</time>
      </trkpt>
      <trkpt lat="43.42494" lon="-0.97522">
        <ele>70.8</ele>
        <time>2025-07-23T08:02:31Z</time>
      </trkpt>
      <trkpt lat="43.42528" lon="-0.97546">
        <ele>70.2</ele>
        <time>2025-07-23T08:02:36Z</time>
      </trkpt>
      <trkpt lat="43.42565" lon="-0.97557">
        <ele>70.6</ele>
        <time>2025-07-23T08:02:42Z</time>
      </trkpt>
      <trkpt lat="43.42618" lon="-0.9757">
        <ele>71.8</ele>
        <time>2025-07-23T08:02:51Z</time>
      </trkpt>
      <trkpt lat="43.42639" lon="-0.97576">
        <ele>72.2</ele>
        <time>2025-07-23T08:02:55Z</time>
      </trkpt>
      <trkpt lat="43.42649" lon="-0.97582">
        <ele>72.4</ele>
        <time>2025-07-23T08:02:57Z</time>
      </trkpt>
      <trkpt lat="43.42654" lon="-0.97584">
        <ele>72.4</ele>
        <time>2025-07-23T08:02:58Z</time>
      </trkpt>
      <trkpt lat="43.42659" lon="-0.97587">
        <ele>72.4</ele>
        <time>2025-07-23T08:02:59Z</time>
      </trkpt>
      <trkpt lat="43.42669" lon="-0.97595">
        <ele>72.6</ele>
        <time>2025-07-23T08:03:01Z</time>
      </trkpt>
      <trkpt lat="43.42677" lon="-0.97604">
        <ele>72.6</ele>
        <time>2025-07-23T08:03:03Z</time>
      </trkpt>
      <trkpt lat="43.42708" lon="-0.97639">
        <ele>72.6</ele>
        <time>2025-07-23T08:03:10Z</time>
      </trkpt>
      <trkpt lat="43.42748" lon="-0.97686">
        <ele>72.6</ele>
        <time>2025-07-23T08:03:19Z</time>
      </trkpt>
      <trkpt lat="43.42792" lon="-0.97737">
        <ele>72.2</ele>
        <time>2025-07-23T08:03:28Z</time>
      </trkpt>
      <trkpt lat="43.42839" lon="-0.97779">
        <ele>71.6</ele>
        <time>2025-07-23T08:03:36Z</time>
      </trkpt>
      <trkpt lat="43.42844" lon="-0.97786">
        <ele>71.4</ele>
        <time>2025-07-23T08:03:37Z</time>
      </trkpt>
      <trkpt lat="43.4285" lon="-0.97792">
        <ele>71.2</ele>
        <time>2025-07-23T08:03:38Z</time>
      </trkpt>
      <trkpt lat="43.4288" lon="-0.97833">
        <ele>70.8</ele>
        <time>2025-07-23T08:03:44Z</time>
      </trkpt>
      <trkpt lat="43.42913" lon="-0.97864">
        <ele>70.4</ele>
        <time>2025-07-23T08:03:50Z</time>
      </trkpt>
      <trkpt lat="43.42926" lon="-0.97871">
        <ele>70.2</ele>
        <time>2025-07-23T08:03:52Z</time>
      </trkpt>
      <trkpt lat="43.42953" lon="-0.97881">
        <ele>70.2</ele>
        <time>2025-07-23T08:03:56Z</time>
      </trkpt>
      <trkpt lat="43.42959" lon="-0.97883">
        <ele>70.2</ele>
        <time>2025-07-23T08:03:57Z</time>
      </trkpt>
      <trkpt lat="43.42989" lon="-0.97895">
        <ele>70.4</ele>
        <time>2025-07-23T08:04:02Z</time>
      </trkpt>
      <trkpt lat="43.42999" lon="-0.97902">
        <ele>70.4</ele>
        <time>2025-07-23T08:04:04Z</time>
      </trkpt>
      <trkpt lat="43.43016" lon="-0.97918">
        <ele>71</ele>
        <time>2025-07-23T08:04:07Z</time>
      </trkpt>
      <trkpt lat="43.43052" lon="-0.97964">
        <ele>71</ele>
        <time>2025-07-23T08:04:15Z</time>
      </trkpt>
      <trkpt lat="43.43087" lon="-0.98023">
        <ele>70.8</ele>
        <time>2025-07-23T08:04:24Z</time>
      </trkpt>
      <trkpt lat="43.43091" lon="-0.98029">
        <ele>70.8</ele>
        <time>2025-07-23T08:04:25Z</time>
      </trkpt>
      <trkpt lat="43.43129" lon="-0.98086">
        <ele>70.4</ele>
        <time>2025-07-23T08:04:34Z</time>
      </trkpt>
      <trkpt lat="43.43139" lon="-0.98099">
        <ele>70.4</ele>
        <time>2025-07-23T08:04:36Z</time>
      </trkpt>
      <trkpt lat="43.43163" lon="-0.98147">
        <ele>70.2</ele>
        <time>2025-07-23T08:04:43Z</time>
      </trkpt>
      <trkpt lat="43.43184" lon="-0.98197">
        <ele>70.4</ele>
        <time>2025-07-23T08:04:50Z</time>
      </trkpt>
      <trkpt lat="43.43215" lon="-0.98255">
        <ele>70.2</ele>
        <time>2025-07-23T08:04:58Z</time>
      </trkpt>
      <trkpt lat="43.43255" lon="-0.98313">
        <ele>69.6</ele>
        <time>2025-07-23T08:05:07Z</time>
      </trkpt>
      <trkpt lat="43.43263" lon="-0.9832">
        <ele>69.4</ele>
        <time>2025-07-23T08:05:09Z</time>
      </trkpt>
      <trkpt lat="43.43264" lon="-0.98322">
        <ele>69.2</ele>
        <time>2025-07-23T08:05:10Z</time>
      </trkpt>
      <trkpt lat="43.43265" lon="-0.98322">
        <ele>69.2</ele>
        <time>2025-07-23T08:05:11Z</time>
      </trkpt>
      <trkpt lat="43.43265" lon="-0.98323">
        <ele>69</ele>
        <time>2025-07-23T08:05:13Z</time>
      </trkpt>
      <trkpt lat="43.43268" lon="-0.98326">
        <ele>68.4</ele>
        <time>2025-07-23T08:07:02Z</time>
      </trkpt>
      <trkpt lat="43.43272" lon="-0.9833">
        <ele>68.4</ele>
        <time>2025-07-23T08:07:05Z</time>
      </trkpt>
      <trkpt lat="43.43272" lon="-0.98332">
        <ele>68.2</ele>
        <time>2025-07-23T08:07:08Z</time>
      </trkpt>
      <trkpt lat="43.43274" lon="-0.98334">
        <ele>67.8</ele>
        <time>2025-07-23T08:09:02Z</time>
      </trkpt>
      <trkpt lat="43.43288" lon="-0.9835">
        <ele>68.2</ele>
        <time>2025-07-23T08:09:09Z</time>
      </trkpt>
      <trkpt lat="43.43301" lon="-0.98367">
        <ele>68.2</ele>
        <time>2025-07-23T08:09:14Z</time>
      </trkpt>
      <trkpt lat="43.43319" lon="-0.9839">
        <ele>68.4</ele>
        <time>2025-07-23T08:09:20Z</time>
      </trkpt>
      <trkpt lat="43.43342" lon="-0.98418">
        <ele>68.4</ele>
        <time>2025-07-23T08:09:27Z</time>
      </trkpt>
      <trkpt lat="43.43346" lon="-0.98422">
        <ele>68.4</ele>
        <time>2025-07-23T08:09:28Z</time>
      </trkpt>
      <trkpt lat="43.43368" lon="-0.9845">
        <ele>68.6</ele>
        <time>2025-07-23T08:09:34Z</time>
      </trkpt>
      <trkpt lat="43.43386" lon="-0.98468">
        <ele>68.6</ele>
        <time>2025-07-23T08:09:38Z</time>
      </trkpt>
      <trkpt lat="43.43401" lon="-0.98478">
        <ele>68.6</ele>
        <time>2025-07-23T08:09:41Z</time>
      </trkpt>
      <trkpt lat="43.43406" lon="-0.98481">
        <ele>68.6</ele>
        <time>2025-07-23T08:09:42Z</time>
      </trkpt>
      <trkpt lat="43.43428" lon="-0.98486">
        <ele>68.6</ele>
        <time>2025-07-23T08:09:46Z</time>
      </trkpt>
      <trkpt lat="43.43479" lon="-0.98498">
        <ele>68.6</ele>
        <time>2025-07-23T08:09:55Z</time>
      </trkpt>
      <trkpt lat="43.43512" lon="-0.98508">
        <ele>68.6</ele>
        <time>2025-07-23T08:10:01Z</time>
      </trkpt>
      <trkpt lat="43.43523" lon="-0.98514">
        <ele>68.6</ele>
        <time>2025-07-23T08:10:03Z</time>
      </trkpt>
      <trkpt lat="43.43554" lon="-0.98533">
        <ele>68.4</ele>
        <time>2025-07-23T08:10:09Z</time>
      </trkpt>
      <trkpt lat="43.4356" lon="-0.98536">
        <ele>68.4</ele>
        <time>2025-07-23T08:10:10Z</time>
      </trkpt>
      <trkpt lat="43.43593" lon="-0.98554">
        <ele>68.4</ele>
        <time>2025-07-23T08:10:16Z</time>
      </trkpt>
      <trkpt lat="43.43648" lon="-0.98575">
        <ele>67.8</ele>
        <time>2025-07-23T08:10:25Z</time>
      </trkpt>
      <trkpt lat="43.43654" lon="-0.98577">
        <ele>67.6</ele>
        <time>2025-07-23T08:10:26Z</time>
      </trkpt>
      <trkpt lat="43.43673" lon="-0.98584">
        <ele>67.6</ele>
        <time>2025-07-23T08:10:29Z</time>
      </trkpt>
      <trkpt lat="43.43711" lon="-0.98599">
        <ele>67.2</ele>
        <time>2025-07-23T08:10:35Z</time>
      </trkpt>
      <trkpt lat="43.43758" lon="-0.98629">
        <ele>66.6</ele>
        <time>2025-07-23T08:10:43Z</time>
      </trkpt>
      <trkpt lat="43.43776" lon="-0.98643">
        <ele>66.4</ele>
        <time>2025-07-23T08:10:46Z</time>
      </trkpt>
      <trkpt lat="43.43799" lon="-0.98661">
        <ele>65.4</ele>
        <time>2025-07-23T08:10:50Z</time>
      </trkpt>
      <trkpt lat="43.43818" lon="-0.98679">
        <ele>64.8</ele>
        <time>2025-07-23T08:10:53Z</time>
      </trkpt>
      <trkpt lat="43.43822" lon="-0.98685">
        <ele>64.2</ele>
        <time>2025-07-23T08:10:54Z</time>
      </trkpt>
      <trkpt lat="43.43845" lon="-0.9872">
        <ele>63.2</ele>
        <time>2025-07-23T08:10:59Z</time>
      </trkpt>
      <trkpt lat="43.43858" lon="-0.98727">
        <ele>62.6</ele>
        <time>2025-07-23T08:11:01Z</time>
      </trkpt>
      <trkpt lat="43.43866" lon="-0.98727">
        <ele>62</ele>
        <time>2025-07-23T08:11:02Z</time>
      </trkpt>
      <trkpt lat="43.43872" lon="-0.98724">
        <ele>61.8</ele>
        <time>2025-07-23T08:11:03Z</time>
      </trkpt>
      <trkpt lat="43.43896" lon="-0.98711">
        <ele>61.2</ele>
        <time>2025-07-23T08:11:07Z</time>
      </trkpt>
      <trkpt lat="43.43924" lon="-0.98686">
        <ele>61.6</ele>
        <time>2025-07-23T08:11:13Z</time>
      </trkpt>
      <trkpt lat="43.43937" lon="-0.98671">
        <ele>62.4</ele>
        <time>2025-07-23T08:11:17Z</time>
      </trkpt>
      <trkpt lat="43.43945" lon="-0.98664">
        <ele>62.8</ele>
        <time>2025-07-23T08:11:19Z</time>
      </trkpt>
      <trkpt lat="43.43948" lon="-0.98661">
        <ele>63.2</ele>
        <time>2025-07-23T08:11:20Z</time>
      </trkpt>
      <trkpt lat="43.43955" lon="-0.98656">
        <ele>63.6</ele>
        <time>2025-07-23T08:11:22Z</time>
      </trkpt>
      <trkpt lat="43.43964" lon="-0.98654">
        <ele>64.2</ele>
        <time>2025-07-23T08:11:24Z</time>
      </trkpt>
      <trkpt lat="43.43977" lon="-0.98657">
        <ele>65.2</ele>
        <time>2025-07-23T08:11:27Z</time>
      </trkpt>
      <trkpt lat="43.43986" lon="-0.98661">
        <ele>65.6</ele>
        <time>2025-07-23T08:11:29Z</time>
      </trkpt>
      <trkpt lat="43.43994" lon="-0.98664">
        <ele>65.6</ele>
        <time>2025-07-23T08:11:31Z</time>
      </trkpt>
      <trkpt lat="43.44014" lon="-0.98667">
        <ele>65.6</ele>
        <time>2025-07-23T08:11:35Z</time>
      </trkpt>
      <trkpt lat="43.44048" lon="-0.98662">
        <ele>65.6</ele>
        <time>2025-07-23T08:11:42Z</time>
      </trkpt>
      <trkpt lat="43.44059" lon="-0.98657">
        <ele>65.6</ele>
        <time>2025-07-23T08:11:44Z</time>
      </trkpt>
      <trkpt lat="43.44069" lon="-0.9865">
        <ele>65.6</ele>
        <time>2025-07-23T08:11:46Z</time>
      </trkpt>
      <trkpt lat="43.44072" lon="-0.98646">
        <ele>65.8</ele>
        <time>2025-07-23T08:11:47Z</time>
      </trkpt>
      <trkpt lat="43.44095" lon="-0.98614">
        <ele>65.8</ele>
        <time>2025-07-23T08:11:53Z</time>
      </trkpt>
      <trkpt lat="43.44128" lon="-0.98575">
        <ele>66.2</ele>
        <time>2025-07-23T08:12:01Z</time>
      </trkpt>
      <trkpt lat="43.44136" lon="-0.98567">
        <ele>66.2</ele>
        <time>2025-07-23T08:12:03Z</time>
      </trkpt>
      <trkpt lat="43.44176" lon="-0.98523">
        <ele>66.4</ele>
        <time>2025-07-23T08:12:12Z</time>
      </trkpt>
      <trkpt lat="43.44206" lon="-0.98482">
        <ele>66.6</ele>
        <time>2025-07-23T08:12:20Z</time>
      </trkpt>
      <trkpt lat="43.44232" lon="-0.98432">
        <ele>67</ele>
        <time>2025-07-23T08:12:28Z</time>
      </trkpt>
      <trkpt lat="43.44251" lon="-0.98406">
        <ele>67.4</ele>
        <time>2025-07-23T08:12:33Z</time>
      </trkpt>
      <trkpt lat="43.44258" lon="-0.98398">
        <ele>67.6</ele>
        <time>2025-07-23T08:12:35Z</time>
      </trkpt>
      <trkpt lat="43.44295" lon="-0.98367">
        <ele>68</ele>
        <time>2025-07-23T08:12:43Z</time>
      </trkpt>
      <trkpt lat="43.44337" lon="-0.98348">
        <ele>68.2</ele>
        <time>2025-07-23T08:12:51Z</time>
      </trkpt>
      <trkpt lat="43.44369" lon="-0.98344">
        <ele>68.2</ele>
        <time>2025-07-23T08:12:57Z</time>
      </trkpt>
      <trkpt lat="43.44375" lon="-0.98344">
        <ele>68.2</ele>
        <time>2025-07-23T08:12:58Z</time>
      </trkpt>
      <trkpt lat="43.44402" lon="-0.98351">
        <ele>68.4</ele>
        <time>2025-07-23T08:13:03Z</time>
      </trkpt>
      <trkpt lat="43.44407" lon="-0.98353">
        <ele>68.4</ele>
        <time>2025-07-23T08:13:04Z</time>
      </trkpt>
      <trkpt lat="43.44448" lon="-0.98375">
        <ele>68.6</ele>
        <time>2025-07-23T08:13:12Z</time>
      </trkpt>
      <trkpt lat="43.44483" lon="-0.98377">
        <ele>69</ele>
        <time>2025-07-23T08:13:19Z</time>
      </trkpt>
      <trkpt lat="43.44524" lon="-0.98372">
        <ele>69.4</ele>
        <time>2025-07-23T08:13:27Z</time>
      </trkpt>
      <trkpt lat="43.44533" lon="-0.98371">
        <ele>69.4</ele>
        <time>2025-07-23T08:13:29Z</time>
      </trkpt>
      <trkpt lat="43.44538" lon="-0.98369">
        <ele>69.6</ele>
        <time>2025-07-23T08:13:30Z</time>
      </trkpt>
      <trkpt lat="43.44562" lon="-0.9836">
        <ele>70.6</ele>
        <time>2025-07-23T08:13:36Z</time>
      </trkpt>
      <trkpt lat="43.4458" lon="-0.98347">
        <ele>71.6</ele>
        <time>2025-07-23T08:13:42Z</time>
      </trkpt>
      <trkpt lat="43.44591" lon="-0.98333">
        <ele>72.6</ele>
        <time>2025-07-23T08:13:47Z</time>
      </trkpt>
      <trkpt lat="43.44593" lon="-0.9833">
        <ele>72.8</ele>
        <time>2025-07-23T08:13:48Z</time>
      </trkpt>
      <trkpt lat="43.44598" lon="-0.98319">
        <ele>73.8</ele>
        <time>2025-07-23T08:13:52Z</time>
      </trkpt>
      <trkpt lat="43.44599" lon="-0.98312">
        <ele>74.4</ele>
        <time>2025-07-23T08:13:54Z</time>
      </trkpt>
      <trkpt lat="43.446" lon="-0.98305">
        <ele>75</ele>
        <time>2025-07-23T08:13:56Z</time>
      </trkpt>
      <trkpt lat="43.44601" lon="-0.9829">
        <ele>76</ele>
        <time>2025-07-23T08:14:01Z</time>
      </trkpt>
      <trkpt lat="43.44601" lon="-0.98286">
        <ele>76.2</ele>
        <time>2025-07-23T08:14:02Z</time>
      </trkpt>
      <trkpt lat="43.44602" lon="-0.98271">
        <ele>77</ele>
        <time>2025-07-23T08:14:06Z</time>
      </trkpt>
      <trkpt lat="43.44602" lon="-0.98253">
        <ele>78</ele>
        <time>2025-07-23T08:14:11Z</time>
      </trkpt>
      <trkpt lat="43.44601" lon="-0.9825">
        <ele>78.2</ele>
        <time>2025-07-23T08:14:12Z</time>
      </trkpt>
      <trkpt lat="43.44599" lon="-0.98233">
        <ele>79.4</ele>
        <time>2025-07-23T08:14:17Z</time>
      </trkpt>
      <trkpt lat="43.44596" lon="-0.9822">
        <ele>79.6</ele>
        <time>2025-07-23T08:14:21Z</time>
      </trkpt>
      <trkpt lat="43.44593" lon="-0.98206">
        <ele>80.2</ele>
        <time>2025-07-23T08:14:25Z</time>
      </trkpt>
      <trkpt lat="43.44589" lon="-0.98189">
        <ele>80.8</ele>
        <time>2025-07-23T08:14:30Z</time>
      </trkpt>
      <trkpt lat="43.44586" lon="-0.98175">
        <ele>81.4</ele>
        <time>2025-07-23T08:14:34Z</time>
      </trkpt>
      <trkpt lat="43.44585" lon="-0.98167">
        <ele>81.6</ele>
        <time>2025-07-23T08:14:36Z</time>
      </trkpt>
      <trkpt lat="43.44581" lon="-0.9815">
        <ele>82.6</ele>
        <time>2025-07-23T08:14:41Z</time>
      </trkpt>
      <trkpt lat="43.44578" lon="-0.98139">
        <ele>83</ele>
        <time>2025-07-23T08:14:44Z</time>
      </trkpt>
      <trkpt lat="43.44576" lon="-0.98124">
        <ele>83.8</ele>
        <time>2025-07-23T08:14:48Z</time>
      </trkpt>
      <trkpt lat="43.44575" lon="-0.98108">
        <ele>84</ele>
        <time>2025-07-23T08:14:52Z</time>
      </trkpt>
      <trkpt lat="43.44575" lon="-0.98093">
        <ele>84.8</ele>
        <time>2025-07-23T08:14:56Z</time>
      </trkpt>
      <trkpt lat="43.44575" lon="-0.98086">
        <ele>85.4</ele>
        <time>2025-07-23T08:14:58Z</time>
      </trkpt>
      <trkpt lat="43.44579" lon="-0.98075">
        <ele>86</ele>
        <time>2025-07-23T08:15:02Z</time>
      </trkpt>
      <trkpt lat="43.4458" lon="-0.98069">
        <ele>86.4</ele>
        <time>2025-07-23T08:15:04Z</time>
      </trkpt>
      <trkpt lat="43.44587" lon="-0.98052">
        <ele>87</ele>
        <time>2025-07-23T08:15:10Z</time>
      </trkpt>
      <trkpt lat="43.44588" lon="-0.98049">
        <ele>87.2</ele>
        <time>2025-07-23T08:15:11Z</time>
      </trkpt>
      <trkpt lat="43.44594" lon="-0.98036">
        <ele>88</ele>
        <time>2025-07-23T08:15:15Z</time>
      </trkpt>
      <trkpt lat="43.44596" lon="-0.98031">
        <ele>88.2</ele>
        <time>2025-07-23T08:15:16Z</time>
      </trkpt>
      <trkpt lat="43.44604" lon="-0.98007">
        <ele>89.4</ele>
        <time>2025-07-23T08:15:23Z</time>
      </trkpt>
      <trkpt lat="43.44614" lon="-0.9798">
        <ele>90.4</ele>
        <time>2025-07-23T08:15:30Z</time>
      </trkpt>
      <trkpt lat="43.44615" lon="-0.97977">
        <ele>90.6</ele>
        <time>2025-07-23T08:15:31Z</time>
      </trkpt>
      <trkpt lat="43.44624" lon="-0.97959">
        <ele>91.6</ele>
        <time>2025-07-23T08:15:38Z</time>
      </trkpt>
      <trkpt lat="43.44634" lon="-0.97945">
        <ele>92.6</ele>
        <time>2025-07-23T08:15:43Z</time>
      </trkpt>
      <trkpt lat="43.44648" lon="-0.9793">
        <ele>93.6</ele>
        <time>2025-07-23T08:15:49Z</time>
      </trkpt>
      <trkpt lat="43.44651" lon="-0.97928">
        <ele>93.8</ele>
        <time>2025-07-23T08:15:50Z</time>
      </trkpt>
      <trkpt lat="43.44663" lon="-0.97917">
        <ele>94.8</ele>
        <time>2025-07-23T08:15:55Z</time>
      </trkpt>
      <trkpt lat="43.44677" lon="-0.97908">
        <ele>95.4</ele>
        <time>2025-07-23T08:16:00Z</time>
      </trkpt>
      <trkpt lat="43.44687" lon="-0.97902">
        <ele>96</ele>
        <time>2025-07-23T08:16:04Z</time>
      </trkpt>
      <trkpt lat="43.44703" lon="-0.97891">
        <ele>96.8</ele>
        <time>2025-07-23T08:16:10Z</time>
      </trkpt>
      <trkpt lat="43.44719" lon="-0.97879">
        <ele>98</ele>
        <time>2025-07-23T08:16:16Z</time>
      </trkpt>
      <trkpt lat="43.44724" lon="-0.97875">
        <ele>98.2</ele>
        <time>2025-07-23T08:16:18Z</time>
      </trkpt>
      <trkpt lat="43.44737" lon="-0.97866">
        <ele>99.2</ele>
        <time>2025-07-23T08:16:23Z</time>
      </trkpt>
      <trkpt lat="43.4475" lon="-0.97854">
        <ele>100</ele>
        <time>2025-07-23T08:16:28Z</time>
      </trkpt>
      <trkpt lat="43.44752" lon="-0.97852">
        <ele>100.2</ele>
        <time>2025-07-23T08:16:29Z</time>
      </trkpt>
      <trkpt lat="43.44764" lon="-0.97835">
        <ele>101.2</ele>
        <time>2025-07-23T08:16:35Z</time>
      </trkpt>
      <trkpt lat="43.44766" lon="-0.97832">
        <ele>101.4</ele>
        <time>2025-07-23T08:16:36Z</time>
      </trkpt>
      <trkpt lat="43.44773" lon="-0.97812">
        <ele>102.4</ele>
        <time>2025-07-23T08:16:42Z</time>
      </trkpt>
      <trkpt lat="43.44774" lon="-0.97805">
        <ele>102.8</ele>
        <time>2025-07-23T08:16:44Z</time>
      </trkpt>
      <trkpt lat="43.44773" lon="-0.97793">
        <ele>103.4</ele>
        <time>2025-07-23T08:16:47Z</time>
      </trkpt>
      <trkpt lat="43.44767" lon="-0.9778">
        <ele>104.2</ele>
        <time>2025-07-23T08:16:51Z</time>
      </trkpt>
      <trkpt lat="43.44764" lon="-0.97777">
        <ele>104.4</ele>
        <time>2025-07-23T08:16:52Z</time>
      </trkpt>
      <trkpt lat="43.44754" lon="-0.97773">
        <ele>105</ele>
        <time>2025-07-23T08:16:56Z</time>
      </trkpt>
      <trkpt lat="43.44748" lon="-0.97772">
        <ele>105.6</ele>
        <time>2025-07-23T08:16:59Z</time>
      </trkpt>
      <trkpt lat="43.44743" lon="-0.97772">
        <ele>106.2</ele>
        <time>2025-07-23T08:17:01Z</time>
      </trkpt>
      <trkpt lat="43.44735" lon="-0.97772">
        <ele>106.6</ele>
        <time>2025-07-23T08:17:04Z</time>
      </trkpt>
      <trkpt lat="43.44725" lon="-0.97771">
        <ele>107</ele>
        <time>2025-07-23T08:17:07Z</time>
      </trkpt>
      <trkpt lat="43.44719" lon="-0.97769">
        <ele>108</ele>
        <time>2025-07-23T08:17:09Z</time>
      </trkpt>
      <trkpt lat="43.44705" lon="-0.97757">
        <ele>108.8</ele>
        <time>2025-07-23T08:17:14Z</time>
      </trkpt>
      <trkpt lat="43.447" lon="-0.97752">
        <ele>109.2</ele>
        <time>2025-07-23T08:17:16Z</time>
      </trkpt>
      <trkpt lat="43.44694" lon="-0.97737">
        <ele>109.6</ele>
        <time>2025-07-23T08:17:20Z</time>
      </trkpt>
      <trkpt lat="43.44692" lon="-0.97724">
        <ele>110.2</ele>
        <time>2025-07-23T08:17:23Z</time>
      </trkpt>
      <trkpt lat="43.44693" lon="-0.97704">
        <ele>111</ele>
        <time>2025-07-23T08:17:28Z</time>
      </trkpt>
      <trkpt lat="43.44695" lon="-0.97697">
        <ele>111.4</ele>
        <time>2025-07-23T08:17:30Z</time>
      </trkpt>
      <trkpt lat="43.44702" lon="-0.97684">
        <ele>112</ele>
        <time>2025-07-23T08:17:34Z</time>
      </trkpt>
      <trkpt lat="43.44708" lon="-0.97676">
        <ele>112.8</ele>
        <time>2025-07-23T08:17:37Z</time>
      </trkpt>
      <trkpt lat="43.44719" lon="-0.97666">
        <ele>113.2</ele>
        <time>2025-07-23T08:17:41Z</time>
      </trkpt>
      <trkpt lat="43.44727" lon="-0.97661">
        <ele>113.8</ele>
        <time>2025-07-23T08:17:44Z</time>
      </trkpt>
      <trkpt lat="43.44739" lon="-0.97652">
        <ele>114.6</ele>
        <time>2025-07-23T08:17:49Z</time>
      </trkpt>
      <trkpt lat="43.44743" lon="-0.97649">
        <ele>115</ele>
        <time>2025-07-23T08:17:51Z</time>
      </trkpt>
      <trkpt lat="43.44761" lon="-0.97644">
        <ele>116</ele>
        <time>2025-07-23T08:17:57Z</time>
      </trkpt>
      <trkpt lat="43.44764" lon="-0.97643">
        <ele>116</ele>
        <time>2025-07-23T08:17:58Z</time>
      </trkpt>
      <trkpt lat="43.4478" lon="-0.97644">
        <ele>117.2</ele>
        <time>2025-07-23T08:18:03Z</time>
      </trkpt>
      <trkpt lat="43.44785" lon="-0.97646">
        <ele>118</ele>
        <time>2025-07-23T08:18:07Z</time>
      </trkpt>
      <trkpt lat="43.44785" lon="-0.97646">
        <ele>118.4</ele>
        <time>2025-07-23T08:18:09Z</time>
      </trkpt>
      <trkpt lat="43.44788" lon="-0.97651">
        <ele>117.8</ele>
        <time>2025-07-23T08:26:24Z</time>
      </trkpt>
      <trkpt lat="43.44791" lon="-0.97654">
        <ele>117.8</ele>
        <time>2025-07-23T08:26:26Z</time>
      </trkpt>
      <trkpt lat="43.44801" lon="-0.97668">
        <ele>118.2</ele>
        <time>2025-07-23T08:26:32Z</time>
      </trkpt>
      <trkpt lat="43.44806" lon="-0.97677">
        <ele>118.6</ele>
        <time>2025-07-23T08:26:35Z</time>
      </trkpt>
      <trkpt lat="43.44815" lon="-0.97692">
        <ele>119.2</ele>
        <time>2025-07-23T08:26:40Z</time>
      </trkpt>
      <trkpt lat="43.44821" lon="-0.97703">
        <ele>119.8</ele>
        <time>2025-07-23T08:26:44Z</time>
      </trkpt>
      <trkpt lat="43.44829" lon="-0.97713">
        <ele>120.4</ele>
        <time>2025-07-23T08:26:48Z</time>
      </trkpt>
      <trkpt lat="43.44834" lon="-0.97718">
        <ele>120.8</ele>
        <time>2025-07-23T08:26:50Z</time>
      </trkpt>
      <trkpt lat="43.44845" lon="-0.97727">
        <ele>121.8</ele>
        <time>2025-07-23T08:26:55Z</time>
      </trkpt>
      <trkpt lat="43.44848" lon="-0.97728">
        <ele>122.2</ele>
        <time>2025-07-23T08:26:56Z</time>
      </trkpt>
      <trkpt lat="43.44854" lon="-0.9773">
        <ele>123</ele>
        <time>2025-07-23T08:26:59Z</time>
      </trkpt>
      <trkpt lat="43.44869" lon="-0.97729">
        <ele>123.8</ele>
        <time>2025-07-23T08:27:05Z</time>
      </trkpt>
      <trkpt lat="43.44873" lon="-0.97729">
        <ele>124</ele>
        <time>2025-07-23T08:27:06Z</time>
      </trkpt>
      <trkpt lat="43.44886" lon="-0.97731">
        <ele>124.8</ele>
        <time>2025-07-23T08:27:11Z</time>
      </trkpt>
      <trkpt lat="43.44892" lon="-0.97731">
        <ele>125.2</ele>
        <time>2025-07-23T08:27:13Z</time>
      </trkpt>
      <trkpt lat="43.44911" lon="-0.97732">
        <ele>126.4</ele>
        <time>2025-07-23T08:27:20Z</time>
      </trkpt>
      <trkpt lat="43.44914" lon="-0.97732">
        <ele>126.6</ele>
        <time>2025-07-23T08:27:21Z</time>
      </trkpt>
      <trkpt lat="43.44922" lon="-0.97734">
        <ele>127.4</ele>
        <time>2025-07-23T08:27:24Z</time>
      </trkpt>
      <trkpt lat="43.44935" lon="-0.97742">
        <ele>128</ele>
        <time>2025-07-23T08:27:29Z</time>
      </trkpt>
      <trkpt lat="43.44949" lon="-0.97758">
        <ele>127.8</ele>
        <time>2025-07-23T08:27:34Z</time>
      </trkpt>
      <trkpt lat="43.44957" lon="-0.97771">
        <ele>127.2</ele>
        <time>2025-07-23T08:27:37Z</time>
      </trkpt>
      <trkpt lat="43.44968" lon="-0.9779">
        <ele>126.4</ele>
        <time>2025-07-23T08:27:40Z</time>
      </trkpt>
      <trkpt lat="43.44971" lon="-0.97795">
        <ele>126.4</ele>
        <time>2025-07-23T08:27:41Z</time>
      </trkpt>
      <trkpt lat="43.44982" lon="-0.97818">
        <ele>125</ele>
        <time>2025-07-23T08:27:44Z</time>
      </trkpt>
      <trkpt lat="43.44991" lon="-0.9783">
        <ele>124.4</ele>
        <time>2025-07-23T08:27:46Z</time>
      </trkpt>
      <trkpt lat="43.44996" lon="-0.97836">
        <ele>123.8</ele>
        <time>2025-07-23T08:27:47Z</time>
      </trkpt>
      <trkpt lat="43.4501" lon="-0.97845">
        <ele>122.8</ele>
        <time>2025-07-23T08:27:49Z</time>
      </trkpt>
      <trkpt lat="43.45017" lon="-0.97846">
        <ele>122.6</ele>
        <time>2025-07-23T08:27:50Z</time>
      </trkpt>
      <trkpt lat="43.45025" lon="-0.97846">
        <ele>122</ele>
        <time>2025-07-23T08:27:51Z</time>
      </trkpt>
      <trkpt lat="43.45031" lon="-0.97846">
        <ele>121.6</ele>
        <time>2025-07-23T08:27:52Z</time>
      </trkpt>
      <trkpt lat="43.4504" lon="-0.97846">
        <ele>121.4</ele>
        <time>2025-07-23T08:27:53Z</time>
      </trkpt>
      <trkpt lat="43.45056" lon="-0.97847">
        <ele>120.6</ele>
        <time>2025-07-23T08:27:55Z</time>
      </trkpt>
      <trkpt lat="43.45065" lon="-0.97845">
        <ele>119.6</ele>
        <time>2025-07-23T08:27:56Z</time>
      </trkpt>
      <trkpt lat="43.45071" lon="-0.97841">
        <ele>118.8</ele>
        <time>2025-07-23T08:27:57Z</time>
      </trkpt>
      <trkpt lat="43.45083" lon="-0.97827">
        <ele>118.2</ele>
        <time>2025-07-23T08:27:59Z</time>
      </trkpt>
      <trkpt lat="43.45087" lon="-0.97818">
        <ele>117.6</ele>
        <time>2025-07-23T08:28:00Z</time>
      </trkpt>
      <trkpt lat="43.45092" lon="-0.97809">
        <ele>116.4</ele>
        <time>2025-07-23T08:28:01Z</time>
      </trkpt>
      <trkpt lat="43.45101" lon="-0.97788">
        <ele>114.8</ele>
        <time>2025-07-23T08:28:03Z</time>
      </trkpt>
      <trkpt lat="43.45105" lon="-0.97778">
        <ele>113.8</ele>
        <time>2025-07-23T08:28:04Z</time>
      </trkpt>
      <trkpt lat="43.45116" lon="-0.97759">
        <ele>112.8</ele>
        <time>2025-07-23T08:28:06Z</time>
      </trkpt>
      <trkpt lat="43.45123" lon="-0.9775">
        <ele>112</ele>
        <time>2025-07-23T08:28:07Z</time>
      </trkpt>
      <trkpt lat="43.45128" lon="-0.97744">
        <ele>111.2</ele>
        <time>2025-07-23T08:28:08Z</time>
      </trkpt>
      <trkpt lat="43.45144" lon="-0.97735">
        <ele>109.4</ele>
        <time>2025-07-23T08:28:10Z</time>
      </trkpt>
      <trkpt lat="43.45154" lon="-0.97733">
        <ele>108.2</ele>
        <time>2025-07-23T08:28:11Z</time>
      </trkpt>
      <trkpt lat="43.45172" lon="-0.97733">
        <ele>105.6</ele>
        <time>2025-07-23T08:28:13Z</time>
      </trkpt>
      <trkpt lat="43.45191" lon="-0.97732">
        <ele>104</ele>
        <time>2025-07-23T08:28:15Z</time>
      </trkpt>
      <trkpt lat="43.45201" lon="-0.97731">
        <ele>103</ele>
        <time>2025-07-23T08:28:16Z</time>
      </trkpt>
      <trkpt lat="43.45223" lon="-0.97729">
        <ele>100.6</ele>
        <time>2025-07-23T08:28:18Z</time>
      </trkpt>
      <trkpt lat="43.4524" lon="-0.97729">
        <ele>99</ele>
        <time>2025-07-23T08:28:20Z</time>
      </trkpt>
      <trkpt lat="43.45258" lon="-0.97733">
        <ele>96.8</ele>
        <time>2025-07-23T08:28:22Z</time>
      </trkpt>
      <trkpt lat="43.45266" lon="-0.97737">
        <ele>95.2</ele>
        <time>2025-07-23T08:28:23Z</time>
      </trkpt>
      <trkpt lat="43.45275" lon="-0.97743">
        <ele>94.8</ele>
        <time>2025-07-23T08:28:24Z</time>
      </trkpt>
      <trkpt lat="43.45283" lon="-0.97751">
        <ele>93.6</ele>
        <time>2025-07-23T08:28:25Z</time>
      </trkpt>
      <trkpt lat="43.453" lon="-0.97773">
        <ele>92</ele>
        <time>2025-07-23T08:28:27Z</time>
      </trkpt>
      <trkpt lat="43.45308" lon="-0.97784">
        <ele>90.6</ele>
        <time>2025-07-23T08:28:28Z</time>
      </trkpt>
      <trkpt lat="43.45316" lon="-0.97794">
        <ele>90</ele>
        <time>2025-07-23T08:28:29Z</time>
      </trkpt>
      <trkpt lat="43.45323" lon="-0.97802">
        <ele>88.6</ele>
        <time>2025-07-23T08:28:30Z</time>
      </trkpt>
      <trkpt lat="43.45344" lon="-0.97819">
        <ele>87</ele>
        <time>2025-07-23T08:28:32Z</time>
      </trkpt>
      <trkpt lat="43.45353" lon="-0.97828">
        <ele>86.4</ele>
        <time>2025-07-23T08:28:33Z</time>
      </trkpt>
      <trkpt lat="43.45362" lon="-0.97836">
        <ele>85.2</ele>
        <time>2025-07-23T08:28:34Z</time>
      </trkpt>
      <trkpt lat="43.4537" lon="-0.97843">
        <ele>84</ele>
        <time>2025-07-23T08:28:35Z</time>
      </trkpt>
      <trkpt lat="43.4538" lon="-0.97854">
        <ele>83.4</ele>
        <time>2025-07-23T08:28:36Z</time>
      </trkpt>
      <trkpt lat="43.45386" lon="-0.97862">
        <ele>82.4</ele>
        <time>2025-07-23T08:28:37Z</time>
      </trkpt>
      <trkpt lat="43.45394" lon="-0.97873">
        <ele>81.6</ele>
        <time>2025-07-23T08:28:38Z</time>
      </trkpt>
      <trkpt lat="43.45403" lon="-0.97885">
        <ele>80.4</ele>
        <time>2025-07-23T08:28:39Z</time>
      </trkpt>
      <trkpt lat="43.45416" lon="-0.97904">
        <ele>78.4</ele>
        <time>2025-07-23T08:28:41Z</time>
      </trkpt>
      <trkpt lat="43.45422" lon="-0.97916">
        <ele>77.2</ele>
        <time>2025-07-23T08:28:42Z</time>
      </trkpt>
      <trkpt lat="43.45434" lon="-0.97943">
        <ele>75.6</ele>
        <time>2025-07-23T08:28:44Z</time>
      </trkpt>
      <trkpt lat="43.45442" lon="-0.97963">
        <ele>74.2</ele>
        <time>2025-07-23T08:28:46Z</time>
      </trkpt>
      <trkpt lat="43.45446" lon="-0.97973">
        <ele>73.8</ele>
        <time>2025-07-23T08:28:47Z</time>
      </trkpt>
      <trkpt lat="43.45456" lon="-0.97994">
        <ele>73.2</ele>
        <time>2025-07-23T08:28:49Z</time>
      </trkpt>
      <trkpt lat="43.4547" lon="-0.98028">
        <ele>72.2</ele>
        <time>2025-07-23T08:28:53Z</time>
      </trkpt>
      <trkpt lat="43.45478" lon="-0.98047">
        <ele>72</ele>
        <time>2025-07-23T08:28:55Z</time>
      </trkpt>
      <trkpt lat="43.45493" lon="-0.98077">
        <ele>71.6</ele>
        <time>2025-07-23T08:28:59Z</time>
      </trkpt>
      <trkpt lat="43.45508" lon="-0.98115">
        <ele>71</ele>
        <time>2025-07-23T08:29:04Z</time>
      </trkpt>
      <trkpt lat="43.45511" lon="-0.98123">
        <ele>70.8</ele>
        <time>2025-07-23T08:29:05Z</time>
      </trkpt>
      <trkpt lat="43.45523" lon="-0.98165">
        <ele>69.8</ele>
        <time>2025-07-23T08:29:10Z</time>
      </trkpt>
      <trkpt lat="43.45532" lon="-0.98176">
        <ele>69.2</ele>
        <time>2025-07-23T08:29:12Z</time>
      </trkpt>
      <trkpt lat="43.45536" lon="-0.98176">
        <ele>68.8</ele>
        <time>2025-07-23T08:29:13Z</time>
      </trkpt>
      <trkpt lat="43.45543" lon="-0.98174">
        <ele>68.8</ele>
        <time>2025-07-23T08:29:14Z</time>
      </trkpt>
      <trkpt lat="43.45568" lon="-0.98166">
        <ele>67.4</ele>
        <time>2025-07-23T08:29:18Z</time>
      </trkpt>
      <trkpt lat="43.45596" lon="-0.98157">
        <ele>66.2</ele>
        <time>2025-07-23T08:29:22Z</time>
      </trkpt>
      <trkpt lat="43.45633" lon="-0.98145">
        <ele>65.2</ele>
        <time>2025-07-23T08:29:28Z</time>
      </trkpt>
      <trkpt lat="43.45639" lon="-0.98143">
        <ele>65</ele>
        <time>2025-07-23T08:29:29Z</time>
      </trkpt>
      <trkpt lat="43.45689" lon="-0.98129">
        <ele>64.2</ele>
        <time>2025-07-23T08:29:37Z</time>
      </trkpt>
      <trkpt lat="43.45696" lon="-0.98127">
        <ele>64</ele>
        <time>2025-07-23T08:29:38Z</time>
      </trkpt>
      <trkpt lat="43.45726" lon="-0.98115">
        <ele>62.8</ele>
        <time>2025-07-23T08:29:42Z</time>
      </trkpt>
      <trkpt lat="43.45748" lon="-0.98105">
        <ele>61.6</ele>
        <time>2025-07-23T08:29:45Z</time>
      </trkpt>
      <trkpt lat="43.45772" lon="-0.98089">
        <ele>60.4</ele>
        <time>2025-07-23T08:29:48Z</time>
      </trkpt>
      <trkpt lat="43.45787" lon="-0.98072">
        <ele>59.4</ele>
        <time>2025-07-23T08:29:50Z</time>
      </trkpt>
      <trkpt lat="43.45795" lon="-0.98062">
        <ele>58</ele>
        <time>2025-07-23T08:29:51Z</time>
      </trkpt>
      <trkpt lat="43.45803" lon="-0.9805">
        <ele>57.4</ele>
        <time>2025-07-23T08:29:52Z</time>
      </trkpt>
      <trkpt lat="43.4581" lon="-0.98038">
        <ele>56.8</ele>
        <time>2025-07-23T08:29:53Z</time>
      </trkpt>
      <trkpt lat="43.45824" lon="-0.98015">
        <ele>55.2</ele>
        <time>2025-07-23T08:29:55Z</time>
      </trkpt>
      <trkpt lat="43.45832" lon="-0.98003">
        <ele>54.6</ele>
        <time>2025-07-23T08:29:56Z</time>
      </trkpt>
      <trkpt lat="43.45839" lon="-0.97992">
        <ele>53.8</ele>
        <time>2025-07-23T08:29:57Z</time>
      </trkpt>
      <trkpt lat="43.45847" lon="-0.97982">
        <ele>52.6</ele>
        <time>2025-07-23T08:29:58Z</time>
      </trkpt>
      <trkpt lat="43.45855" lon="-0.97973">
        <ele>52.2</ele>
        <time>2025-07-23T08:29:59Z</time>
      </trkpt>
      <trkpt lat="43.45865" lon="-0.97968">
        <ele>51.4</ele>
        <time>2025-07-23T08:30:00Z</time>
      </trkpt>
      <trkpt lat="43.45875" lon="-0.97965">
        <ele>50.6</ele>
        <time>2025-07-23T08:30:01Z</time>
      </trkpt>
      <trkpt lat="43.45885" lon="-0.97963">
        <ele>49.8</ele>
        <time>2025-07-23T08:30:02Z</time>
      </trkpt>
      <trkpt lat="43.45903" lon="-0.97961">
        <ele>48.8</ele>
        <time>2025-07-23T08:30:04Z</time>
      </trkpt>
      <trkpt lat="43.45928" lon="-0.97955">
        <ele>47.6</ele>
        <time>2025-07-23T08:30:07Z</time>
      </trkpt>
      <trkpt lat="43.45943" lon="-0.97947">
        <ele>47.2</ele>
        <time>2025-07-23T08:30:09Z</time>
      </trkpt>
      <trkpt lat="43.45955" lon="-0.97934">
        <ele>46.8</ele>
        <time>2025-07-23T08:30:11Z</time>
      </trkpt>
      <trkpt lat="43.4596" lon="-0.97927">
        <ele>46.6</ele>
        <time>2025-07-23T08:30:12Z</time>
      </trkpt>
      <trkpt lat="43.45977" lon="-0.979">
        <ele>46.4</ele>
        <time>2025-07-23T08:30:16Z</time>
      </trkpt>
      <trkpt lat="43.45992" lon="-0.97873">
        <ele>46.8</ele>
        <time>2025-07-23T08:30:21Z</time>
      </trkpt>
      <trkpt lat="43.45998" lon="-0.9786">
        <ele>48</ele>
        <time>2025-07-23T08:30:24Z</time>
      </trkpt>
      <trkpt lat="43.46" lon="-0.97849">
        <ele>49</ele>
        <time>2025-07-23T08:30:27Z</time>
      </trkpt>
      <trkpt lat="43.46002" lon="-0.97845">
        <ele>49</ele>
        <time>2025-07-23T08:30:28Z</time>
      </trkpt>
      <trkpt lat="43.4601" lon="-0.97829">
        <ele>50</ele>
        <time>2025-07-23T08:30:33Z</time>
      </trkpt>
      <trkpt lat="43.46011" lon="-0.97826">
        <ele>50.2</ele>
        <time>2025-07-23T08:30:34Z</time>
      </trkpt>
      <trkpt lat="43.46023" lon="-0.97809">
        <ele>51.2</ele>
        <time>2025-07-23T08:30:40Z</time>
      </trkpt>
      <trkpt lat="43.46034" lon="-0.978">
        <ele>52.4</ele>
        <time>2025-07-23T08:30:44Z</time>
      </trkpt>
      <trkpt lat="43.46046" lon="-0.97793">
        <ele>53</ele>
        <time>2025-07-23T08:30:48Z</time>
      </trkpt>
      <trkpt lat="43.46052" lon="-0.97789">
        <ele>53.4</ele>
        <time>2025-07-23T08:30:50Z</time>
      </trkpt>
      <trkpt lat="43.46068" lon="-0.97781">
        <ele>54.6</ele>
        <time>2025-07-23T08:30:55Z</time>
      </trkpt>
      <trkpt lat="43.4609" lon="-0.97771">
        <ele>55.6</ele>
        <time>2025-07-23T08:31:02Z</time>
      </trkpt>
      <trkpt lat="43.46098" lon="-0.97768">
        <ele>55.8</ele>
        <time>2025-07-23T08:31:04Z</time>
      </trkpt>
      <trkpt lat="43.46121" lon="-0.97764">
        <ele>56.8</ele>
        <time>2025-07-23T08:31:10Z</time>
      </trkpt>
      <trkpt lat="43.46125" lon="-0.97764">
        <ele>56.8</ele>
        <time>2025-07-23T08:31:11Z</time>
      </trkpt>
      <trkpt lat="43.46155" lon="-0.97772">
        <ele>57.2</ele>
        <time>2025-07-23T08:31:19Z</time>
      </trkpt>
      <trkpt lat="43.46183" lon="-0.97786">
        <ele>57.4</ele>
        <time>2025-07-23T08:31:26Z</time>
      </trkpt>
      <trkpt lat="43.46218" lon="-0.97793">
        <ele>57.4</ele>
        <time>2025-07-23T08:31:33Z</time>
      </trkpt>
      <trkpt lat="43.46234" lon="-0.97797">
        <ele>57.4</ele>
        <time>2025-07-23T08:31:36Z</time>
      </trkpt>
      <trkpt lat="43.46244" lon="-0.97804">
        <ele>57.4</ele>
        <time>2025-07-23T08:31:38Z</time>
      </trkpt>
      <trkpt lat="43.46263" lon="-0.97823">
        <ele>57.4</ele>
        <time>2025-07-23T08:31:42Z</time>
      </trkpt>
      <trkpt lat="43.46279" lon="-0.97833">
        <ele>57.2</ele>
        <time>2025-07-23T08:31:45Z</time>
      </trkpt>
      <trkpt lat="43.46327" lon="-0.97858">
        <ele>56.6</ele>
        <time>2025-07-23T08:31:53Z</time>
      </trkpt>
      <trkpt lat="43.46377" lon="-0.97885">
        <ele>56.4</ele>
        <time>2025-07-23T08:32:02Z</time>
      </trkpt>
      <trkpt lat="43.46415" lon="-0.97903">
        <ele>56.6</ele>
        <time>2025-07-23T08:32:09Z</time>
      </trkpt>
      <trkpt lat="43.46454" lon="-0.9791">
        <ele>56.8</ele>
        <time>2025-07-23T08:32:16Z</time>
      </trkpt>
      <trkpt lat="43.46504" lon="-0.97917">
        <ele>57.2</ele>
        <time>2025-07-23T08:32:25Z</time>
      </trkpt>
      <trkpt lat="43.4654" lon="-0.97937">
        <ele>57.6</ele>
        <time>2025-07-23T08:32:32Z</time>
      </trkpt>
      <trkpt lat="43.46579" lon="-0.97963">
        <ele>58</ele>
        <time>2025-07-23T08:32:40Z</time>
      </trkpt>
      <trkpt lat="43.46583" lon="-0.97967">
        <ele>58.2</ele>
        <time>2025-07-23T08:32:41Z</time>
      </trkpt>
      <trkpt lat="43.4661" lon="-0.97987">
        <ele>59.2</ele>
        <time>2025-07-23T08:32:48Z</time>
      </trkpt>
      <trkpt lat="43.46613" lon="-0.9799">
        <ele>59.4</ele>
        <time>2025-07-23T08:32:49Z</time>
      </trkpt>
      <trkpt lat="43.46637" lon="-0.98007">
        <ele>60.4</ele>
        <time>2025-07-23T08:32:55Z</time>
      </trkpt>
      <trkpt lat="43.46654" lon="-0.98017">
        <ele>60.8</ele>
        <time>2025-07-23T08:32:59Z</time>
      </trkpt>
      <trkpt lat="43.46697" lon="-0.98041">
        <ele>61.4</ele>
        <time>2025-07-23T08:33:09Z</time>
      </trkpt>
      <trkpt lat="43.46705" lon="-0.98045">
        <ele>61.6</ele>
        <time>2025-07-23T08:33:11Z</time>
      </trkpt>
      <trkpt lat="43.46736" lon="-0.98062">
        <ele>62.6</ele>
        <time>2025-07-23T08:33:19Z</time>
      </trkpt>
      <trkpt lat="43.4674" lon="-0.98064">
        <ele>62.6</ele>
        <time>2025-07-23T08:33:20Z</time>
      </trkpt>
      <trkpt lat="43.46762" lon="-0.98076">
        <ele>63.6</ele>
        <time>2025-07-23T08:33:26Z</time>
      </trkpt>
      <trkpt lat="43.46775" lon="-0.98084">
        <ele>64.4</ele>
        <time>2025-07-23T08:33:30Z</time>
      </trkpt>
      <trkpt lat="43.46782" lon="-0.98088">
        <ele>64.8</ele>
        <time>2025-07-23T08:33:32Z</time>
      </trkpt>
      <trkpt lat="43.46799" lon="-0.981">
        <ele>65.8</ele>
        <time>2025-07-23T08:33:37Z</time>
      </trkpt>
      <trkpt lat="43.46812" lon="-0.9811">
        <ele>66.4</ele>
        <time>2025-07-23T08:33:41Z</time>
      </trkpt>
      <trkpt lat="43.46826" lon="-0.98121">
        <ele>66.8</ele>
        <time>2025-07-23T08:33:45Z</time>
      </trkpt>
      <trkpt lat="43.46843" lon="-0.98134">
        <ele>67.6</ele>
        <time>2025-07-23T08:33:50Z</time>
      </trkpt>
      <trkpt lat="43.46849" lon="-0.98139">
        <ele>67.8</ele>
        <time>2025-07-23T08:33:52Z</time>
      </trkpt>
      <trkpt lat="43.46867" lon="-0.98155">
        <ele>69</ele>
        <time>2025-07-23T08:33:58Z</time>
      </trkpt>
      <trkpt lat="43.46869" lon="-0.98158">
        <ele>69.2</ele>
        <time>2025-07-23T08:33:59Z</time>
      </trkpt>
      <trkpt lat="43.46884" lon="-0.98171">
        <ele>70.4</ele>
        <time>2025-07-23T08:34:04Z</time>
      </trkpt>
      <trkpt lat="43.46889" lon="-0.98176">
        <ele>70.6</ele>
        <time>2025-07-23T08:34:06Z</time>
      </trkpt>
      <trkpt lat="43.46897" lon="-0.98184">
        <ele>71.4</ele>
        <time>2025-07-23T08:34:09Z</time>
      </trkpt>
      <trkpt lat="43.46912" lon="-0.98199">
        <ele>72.4</ele>
        <time>2025-07-23T08:34:14Z</time>
      </trkpt>
      <trkpt lat="43.46915" lon="-0.98202">
        <ele>72.6</ele>
        <time>2025-07-23T08:34:15Z</time>
      </trkpt>
      <trkpt lat="43.46932" lon="-0.98219">
        <ele>73.4</ele>
        <time>2025-07-23T08:34:21Z</time>
      </trkpt>
      <trkpt lat="43.46943" lon="-0.98231">
        <ele>74</ele>
        <time>2025-07-23T08:34:25Z</time>
      </trkpt>
      <trkpt lat="43.46958" lon="-0.98245">
        <ele>74.6</ele>
        <time>2025-07-23T08:34:30Z</time>
      </trkpt>
      <trkpt lat="43.46972" lon="-0.98257">
        <ele>75</ele>
        <time>2025-07-23T08:34:35Z</time>
      </trkpt>
      <trkpt lat="43.46985" lon="-0.98266">
        <ele>75.6</ele>
        <time>2025-07-23T08:34:39Z</time>
      </trkpt>
      <trkpt lat="43.4701" lon="-0.98284">
        <ele>76.2</ele>
        <time>2025-07-23T08:34:46Z</time>
      </trkpt>
      <trkpt lat="43.47022" lon="-0.98291">
        <ele>76.6</ele>
        <time>2025-07-23T08:34:49Z</time>
      </trkpt>
      <trkpt lat="43.47043" lon="-0.98303">
        <ele>76.8</ele>
        <time>2025-07-23T08:34:54Z</time>
      </trkpt>
      <trkpt lat="43.4706" lon="-0.98311">
        <ele>77</ele>
        <time>2025-07-23T08:34:58Z</time>
      </trkpt>
      <trkpt lat="43.47078" lon="-0.9832">
        <ele>77</ele>
        <time>2025-07-23T08:35:02Z</time>
      </trkpt>
      <trkpt lat="43.47121" lon="-0.98345">
        <ele>77</ele>
        <time>2025-07-23T08:35:11Z</time>
      </trkpt>
      <trkpt lat="43.47153" lon="-0.98369">
        <ele>77.4</ele>
        <time>2025-07-23T08:35:18Z</time>
      </trkpt>
      <trkpt lat="43.47157" lon="-0.98374">
        <ele>77.8</ele>
        <time>2025-07-23T08:35:19Z</time>
      </trkpt>
      <trkpt lat="43.47164" lon="-0.98384">
        <ele>78</ele>
        <time>2025-07-23T08:35:21Z</time>
      </trkpt>
      <trkpt lat="43.47173" lon="-0.98402">
        <ele>78</ele>
        <time>2025-07-23T08:35:24Z</time>
      </trkpt>
      <trkpt lat="43.47204" lon="-0.98445">
        <ele>78</ele>
        <time>2025-07-23T08:35:32Z</time>
      </trkpt>
      <trkpt lat="43.47245" lon="-0.98496">
        <ele>78</ele>
        <time>2025-07-23T08:35:42Z</time>
      </trkpt>
      <trkpt lat="43.47249" lon="-0.985">
        <ele>78</ele>
        <time>2025-07-23T08:35:43Z</time>
      </trkpt>
      <trkpt lat="43.47265" lon="-0.98518">
        <ele>77.8</ele>
        <time>2025-07-23T08:35:47Z</time>
      </trkpt>
      <trkpt lat="43.47272" lon="-0.98523">
        <ele>77.2</ele>
        <time>2025-07-23T08:35:49Z</time>
      </trkpt>
      <trkpt lat="43.47283" lon="-0.98532">
        <ele>77</ele>
        <time>2025-07-23T08:35:53Z</time>
      </trkpt>
      <trkpt lat="43.47285" lon="-0.98537">
        <ele>76.8</ele>
        <time>2025-07-23T08:35:54Z</time>
      </trkpt>
      <trkpt lat="43.47291" lon="-0.98557">
        <ele>76.8</ele>
        <time>2025-07-23T08:35:57Z</time>
      </trkpt>
      <trkpt lat="43.47295" lon="-0.98574">
        <ele>76.6</ele>
        <time>2025-07-23T08:35:59Z</time>
      </trkpt>
      <trkpt lat="43.47303" lon="-0.98602">
        <ele>75.6</ele>
        <time>2025-07-23T08:36:02Z</time>
      </trkpt>
      <trkpt lat="43.47316" lon="-0.98632">
        <ele>74.6</ele>
        <time>2025-07-23T08:36:05Z</time>
      </trkpt>
      <trkpt lat="43.47332" lon="-0.98663">
        <ele>73.4</ele>
        <time>2025-07-23T08:36:08Z</time>
      </trkpt>
      <trkpt lat="43.47343" lon="-0.98684">
        <ele>72</ele>
        <time>2025-07-23T08:36:10Z</time>
      </trkpt>
      <trkpt lat="43.47354" lon="-0.98706">
        <ele>71</ele>
        <time>2025-07-23T08:36:12Z</time>
      </trkpt>
      <trkpt lat="43.47365" lon="-0.98729">
        <ele>69.2</ele>
        <time>2025-07-23T08:36:14Z</time>
      </trkpt>
      <trkpt lat="43.47377" lon="-0.98753">
        <ele>68</ele>
        <time>2025-07-23T08:36:16Z</time>
      </trkpt>
      <trkpt lat="43.47389" lon="-0.98777">
        <ele>66.8</ele>
        <time>2025-07-23T08:36:18Z</time>
      </trkpt>
      <trkpt lat="43.47401" lon="-0.98801">
        <ele>65.4</ele>
        <time>2025-07-23T08:36:20Z</time>
      </trkpt>
      <trkpt lat="43.47412" lon="-0.98824">
        <ele>64.4</ele>
        <time>2025-07-23T08:36:22Z</time>
      </trkpt>
      <trkpt lat="43.47418" lon="-0.98836">
        <ele>63.2</ele>
        <time>2025-07-23T08:36:23Z</time>
      </trkpt>
      <trkpt lat="43.47429" lon="-0.98858">
        <ele>62</ele>
        <time>2025-07-23T08:36:25Z</time>
      </trkpt>
      <trkpt lat="43.47446" lon="-0.9889">
        <ele>60.8</ele>
        <time>2025-07-23T08:36:28Z</time>
      </trkpt>
      <trkpt lat="43.47451" lon="-0.989">
        <ele>60.6</ele>
        <time>2025-07-23T08:36:29Z</time>
      </trkpt>
      <trkpt lat="43.47466" lon="-0.98931">
        <ele>59.8</ele>
        <time>2025-07-23T08:36:32Z</time>
      </trkpt>
      <trkpt lat="43.47484" lon="-0.98971">
        <ele>58.8</ele>
        <time>2025-07-23T08:36:36Z</time>
      </trkpt>
      <trkpt lat="43.47489" lon="-0.98981">
        <ele>58.6</ele>
        <time>2025-07-23T08:36:37Z</time>
      </trkpt>
      <trkpt lat="43.47521" lon="-0.99046">
        <ele>57.6</ele>
        <time>2025-07-23T08:36:44Z</time>
      </trkpt>
      <trkpt lat="43.47552" lon="-0.99109">
        <ele>56.4</ele>
        <time>2025-07-23T08:36:51Z</time>
      </trkpt>
      <trkpt lat="43.47555" lon="-0.99119">
        <ele>56.4</ele>
        <time>2025-07-23T08:36:52Z</time>
      </trkpt>
      <trkpt lat="43.47578" lon="-0.99164">
        <ele>55.8</ele>
        <time>2025-07-23T08:36:57Z</time>
      </trkpt>
      <trkpt lat="43.47588" lon="-0.99181">
        <ele>55.4</ele>
        <time>2025-07-23T08:36:59Z</time>
      </trkpt>
      <trkpt lat="43.47619" lon="-0.99241">
        <ele>54.8</ele>
        <time>2025-07-23T08:37:06Z</time>
      </trkpt>
      <trkpt lat="43.47635" lon="-0.99273">
        <ele>54.2</ele>
        <time>2025-07-23T08:37:10Z</time>
      </trkpt>
      <trkpt lat="43.47643" lon="-0.99289">
        <ele>54</ele>
        <time>2025-07-23T08:37:12Z</time>
      </trkpt>
      <trkpt lat="43.47671" lon="-0.99342">
        <ele>53.6</ele>
        <time>2025-07-23T08:37:19Z</time>
      </trkpt>
      <trkpt lat="43.47681" lon="-0.99355">
        <ele>53.6</ele>
        <time>2025-07-23T08:37:21Z</time>
      </trkpt>
      <trkpt lat="43.47692" lon="-0.99367">
        <ele>53.8</ele>
        <time>2025-07-23T08:37:23Z</time>
      </trkpt>
      <trkpt lat="43.47728" lon="-0.99393">
        <ele>54.2</ele>
        <time>2025-07-23T08:37:29Z</time>
      </trkpt>
      <trkpt lat="43.4775" lon="-0.9941">
        <ele>54.2</ele>
        <time>2025-07-23T08:37:33Z</time>
      </trkpt>
      <trkpt lat="43.4776" lon="-0.99422">
        <ele>54.2</ele>
        <time>2025-07-23T08:37:35Z</time>
      </trkpt>
      <trkpt lat="43.47791" lon="-0.9947">
        <ele>54</ele>
        <time>2025-07-23T08:37:42Z</time>
      </trkpt>
      <trkpt lat="43.47812" lon="-0.99509">
        <ele>54</ele>
        <time>2025-07-23T08:37:48Z</time>
      </trkpt>
      <trkpt lat="43.47816" lon="-0.99515">
        <ele>53.8</ele>
        <time>2025-07-23T08:37:49Z</time>
      </trkpt>
      <trkpt lat="43.47825" lon="-0.99524">
        <ele>53.8</ele>
        <time>2025-07-23T08:37:51Z</time>
      </trkpt>
      <trkpt lat="43.4783" lon="-0.99527">
        <ele>53.8</ele>
        <time>2025-07-23T08:37:52Z</time>
      </trkpt>
      <trkpt lat="43.47867" lon="-0.99559">
        <ele>53.6</ele>
        <time>2025-07-23T08:37:59Z</time>
      </trkpt>
      <trkpt lat="43.47887" lon="-0.9958">
        <ele>53.4</ele>
        <time>2025-07-23T08:38:03Z</time>
      </trkpt>
      <trkpt lat="43.47893" lon="-0.99584">
        <ele>53.4</ele>
        <time>2025-07-23T08:38:04Z</time>
      </trkpt>
      <trkpt lat="43.47899" lon="-0.99587">
        <ele>53.4</ele>
        <time>2025-07-23T08:38:05Z</time>
      </trkpt>
      <trkpt lat="43.47946" lon="-0.99614">
        <ele>53.4</ele>
        <time>2025-07-23T08:38:13Z</time>
      </trkpt>
      <trkpt lat="43.47981" lon="-0.99632">
        <ele>53.4</ele>
        <time>2025-07-23T08:38:19Z</time>
      </trkpt>
      <trkpt lat="43.47994" lon="-0.99635">
        <ele>53.4</ele>
        <time>2025-07-23T08:38:21Z</time>
      </trkpt>
      <trkpt lat="43.48016" lon="-0.99647">
        <ele>53.4</ele>
        <time>2025-07-23T08:38:25Z</time>
      </trkpt>
      <trkpt lat="43.48022" lon="-0.99652">
        <ele>53.2</ele>
        <time>2025-07-23T08:38:26Z</time>
      </trkpt>
      <trkpt lat="43.48063" lon="-0.99692">
        <ele>52.8</ele>
        <time>2025-07-23T08:38:34Z</time>
      </trkpt>
      <trkpt lat="43.4811" lon="-0.99726">
        <ele>52.6</ele>
        <time>2025-07-23T08:38:42Z</time>
      </trkpt>
      <trkpt lat="43.48161" lon="-0.9976">
        <ele>52.4</ele>
        <time>2025-07-23T08:38:51Z</time>
      </trkpt>
      <trkpt lat="43.48179" lon="-0.9977">
        <ele>52.4</ele>
        <time>2025-07-23T08:38:54Z</time>
      </trkpt>
      <trkpt lat="43.48208" lon="-0.99788">
        <ele>52.4</ele>
        <time>2025-07-23T08:38:59Z</time>
      </trkpt>
      <trkpt lat="43.48239" lon="-0.99821">
        <ele>52.2</ele>
        <time>2025-07-23T08:39:05Z</time>
      </trkpt>
      <trkpt lat="43.48262" lon="-0.99865">
        <ele>52.2</ele>
        <time>2025-07-23T08:39:11Z</time>
      </trkpt>
      <trkpt lat="43.48295" lon="-0.99934">
        <ele>51.8</ele>
        <time>2025-07-23T08:39:20Z</time>
      </trkpt>
      <trkpt lat="43.48326" lon="-0.99999">
        <ele>51.4</ele>
        <time>2025-07-23T08:39:28Z</time>
      </trkpt>
      <trkpt lat="43.48329" lon="-1.00005">
        <ele>51.2</ele>
        <time>2025-07-23T08:39:29Z</time>
      </trkpt>
      <trkpt lat="43.48364" lon="-1.00067">
        <ele>50.8</ele>
        <time>2025-07-23T08:39:37Z</time>
      </trkpt>
      <trkpt lat="43.48376" lon="-1.0009">
        <ele>50.8</ele>
        <time>2025-07-23T08:39:40Z</time>
      </trkpt>
      <trkpt lat="43.48409" lon="-1.00145">
        <ele>50.2</ele>
        <time>2025-07-23T08:39:47Z</time>
      </trkpt>
      <trkpt lat="43.48418" lon="-1.00162">
        <ele>50</ele>
        <time>2025-07-23T08:39:49Z</time>
      </trkpt>
      <trkpt lat="43.48446" lon="-1.00211">
        <ele>49</ele>
        <time>2025-07-23T08:39:55Z</time>
      </trkpt>
      <trkpt lat="43.48455" lon="-1.00227">
        <ele>48.8</ele>
        <time>2025-07-23T08:39:57Z</time>
      </trkpt>
      <trkpt lat="43.48481" lon="-1.00275">
        <ele>48</ele>
        <time>2025-07-23T08:40:03Z</time>
      </trkpt>
      <trkpt lat="43.48493" lon="-1.00299">
        <ele>48</ele>
        <time>2025-07-23T08:40:06Z</time>
      </trkpt>
      <trkpt lat="43.48518" lon="-1.00374">
        <ele>48.2</ele>
        <time>2025-07-23T08:40:15Z</time>
      </trkpt>
      <trkpt lat="43.4854" lon="-1.00444">
        <ele>47.8</ele>
        <time>2025-07-23T08:40:23Z</time>
      </trkpt>
      <trkpt lat="43.48543" lon="-1.00454">
        <ele>47.6</ele>
        <time>2025-07-23T08:40:24Z</time>
      </trkpt>
      <trkpt lat="43.48552" lon="-1.00482">
        <ele>47</ele>
        <time>2025-07-23T08:40:27Z</time>
      </trkpt>
      <trkpt lat="43.48568" lon="-1.0053">
        <ele>46.6</ele>
        <time>2025-07-23T08:40:32Z</time>
      </trkpt>
      <trkpt lat="43.48577" lon="-1.00559">
        <ele>46.2</ele>
        <time>2025-07-23T08:40:35Z</time>
      </trkpt>
      <trkpt lat="43.48599" lon="-1.00627">
        <ele>45.2</ele>
        <time>2025-07-23T08:40:42Z</time>
      </trkpt>
      <trkpt lat="43.48602" lon="-1.00637">
        <ele>45</ele>
        <time>2025-07-23T08:40:43Z</time>
      </trkpt>
      <trkpt lat="43.48622" lon="-1.00706">
        <ele>44</ele>
        <time>2025-07-23T08:40:50Z</time>
      </trkpt>
      <trkpt lat="43.48625" lon="-1.00716">
        <ele>43.8</ele>
        <time>2025-07-23T08:40:51Z</time>
      </trkpt>
      <trkpt lat="43.48629" lon="-1.00726">
        <ele>43.8</ele>
        <time>2025-07-23T08:40:52Z</time>
      </trkpt>
      <trkpt lat="43.48637" lon="-1.00745">
        <ele>43.6</ele>
        <time>2025-07-23T08:40:54Z</time>
      </trkpt>
      <trkpt lat="43.48649" lon="-1.00762">
        <ele>43.2</ele>
        <time>2025-07-23T08:40:56Z</time>
      </trkpt>
      <trkpt lat="43.48656" lon="-1.0077">
        <ele>43</ele>
        <time>2025-07-23T08:40:57Z</time>
      </trkpt>
      <trkpt lat="43.48664" lon="-1.00777">
        <ele>42.6</ele>
        <time>2025-07-23T08:40:58Z</time>
      </trkpt>
      <trkpt lat="43.48672" lon="-1.00782">
        <ele>42.2</ele>
        <time>2025-07-23T08:40:59Z</time>
      </trkpt>
      <trkpt lat="43.4869" lon="-1.00788">
        <ele>41.4</ele>
        <time>2025-07-23T08:41:01Z</time>
      </trkpt>
      <trkpt lat="43.48707" lon="-1.00795">
        <ele>40.2</ele>
        <time>2025-07-23T08:41:03Z</time>
      </trkpt>
      <trkpt lat="43.48722" lon="-1.00807">
        <ele>39.4</ele>
        <time>2025-07-23T08:41:05Z</time>
      </trkpt>
      <trkpt lat="43.48729" lon="-1.00813">
        <ele>39</ele>
        <time>2025-07-23T08:41:06Z</time>
      </trkpt>
      <trkpt lat="43.48736" lon="-1.0082">
        <ele>38.6</ele>
        <time>2025-07-23T08:41:07Z</time>
      </trkpt>
      <trkpt lat="43.48743" lon="-1.00826">
        <ele>38.6</ele>
        <time>2025-07-23T08:41:08Z</time>
      </trkpt>
      <trkpt lat="43.48758" lon="-1.00835">
        <ele>38</ele>
        <time>2025-07-23T08:41:10Z</time>
      </trkpt>
      <trkpt lat="43.48765" lon="-1.00838">
        <ele>37.8</ele>
        <time>2025-07-23T08:41:11Z</time>
      </trkpt>
      <trkpt lat="43.48788" lon="-1.00846">
        <ele>37.8</ele>
        <time>2025-07-23T08:41:15Z</time>
      </trkpt>
      <trkpt lat="43.48806" lon="-1.00855">
        <ele>39</ele>
        <time>2025-07-23T08:41:20Z</time>
      </trkpt>
      <trkpt lat="43.48812" lon="-1.0086">
        <ele>40.2</ele>
        <time>2025-07-23T08:41:22Z</time>
      </trkpt>
      <trkpt lat="43.48823" lon="-1.00871">
        <ele>41.4</ele>
        <time>2025-07-23T08:41:26Z</time>
      </trkpt>
      <trkpt lat="43.48828" lon="-1.00878">
        <ele>42</ele>
        <time>2025-07-23T08:41:28Z</time>
      </trkpt>
      <trkpt lat="43.48831" lon="-1.00881">
        <ele>42.4</ele>
        <time>2025-07-23T08:41:29Z</time>
      </trkpt>
      <trkpt lat="43.4884" lon="-1.00893">
        <ele>43.4</ele>
        <time>2025-07-23T08:41:33Z</time>
      </trkpt>
      <trkpt lat="43.48847" lon="-1.00903">
        <ele>44</ele>
        <time>2025-07-23T08:41:36Z</time>
      </trkpt>
      <trkpt lat="43.48852" lon="-1.0091">
        <ele>44.4</ele>
        <time>2025-07-23T08:41:38Z</time>
      </trkpt>
      <trkpt lat="43.48863" lon="-1.00928">
        <ele>45.4</ele>
        <time>2025-07-23T08:41:43Z</time>
      </trkpt>
      <trkpt lat="43.48865" lon="-1.00931">
        <ele>45.6</ele>
        <time>2025-07-23T08:41:44Z</time>
      </trkpt>
      <trkpt lat="43.48882" lon="-1.00954">
        <ele>46</ele>
        <time>2025-07-23T08:41:50Z</time>
      </trkpt>
      <trkpt lat="43.48894" lon="-1.00979">
        <ele>46.2</ele>
        <time>2025-07-23T08:41:55Z</time>
      </trkpt>
      <trkpt lat="43.48897" lon="-1.00984">
        <ele>46.2</ele>
        <time>2025-07-23T08:41:56Z</time>
      </trkpt>
      <trkpt lat="43.489" lon="-1.00989">
        <ele>46.2</ele>
        <time>2025-07-23T08:41:57Z</time>
      </trkpt>
      <trkpt lat="43.48907" lon="-1.00998">
        <ele>46.2</ele>
        <time>2025-07-23T08:41:59Z</time>
      </trkpt>
      <trkpt lat="43.48917" lon="-1.01003">
        <ele>46</ele>
        <time>2025-07-23T08:42:01Z</time>
      </trkpt>
      <trkpt lat="43.48926" lon="-1.01006">
        <ele>46</ele>
        <time>2025-07-23T08:42:03Z</time>
      </trkpt>
      <trkpt lat="43.48947" lon="-1.01008">
        <ele>45.8</ele>
        <time>2025-07-23T08:42:07Z</time>
      </trkpt>
      <trkpt lat="43.4898" lon="-1.01011">
        <ele>45.8</ele>
        <time>2025-07-23T08:42:13Z</time>
      </trkpt>
      <trkpt lat="43.48992" lon="-1.01014">
        <ele>45.8</ele>
        <time>2025-07-23T08:42:15Z</time>
      </trkpt>
      <trkpt lat="43.49031" lon="-1.01027">
        <ele>45.8</ele>
        <time>2025-07-23T08:42:22Z</time>
      </trkpt>
      <trkpt lat="43.49054" lon="-1.01034">
        <ele>45.8</ele>
        <time>2025-07-23T08:42:26Z</time>
      </trkpt>
      <trkpt lat="43.49059" lon="-1.01039">
        <ele>45.8</ele>
        <time>2025-07-23T08:42:27Z</time>
      </trkpt>
      <trkpt lat="43.49094" lon="-1.01078">
        <ele>45.8</ele>
        <time>2025-07-23T08:42:34Z</time>
      </trkpt>
      <trkpt lat="43.49131" lon="-1.01122">
        <ele>45</ele>
        <time>2025-07-23T08:42:41Z</time>
      </trkpt>
      <trkpt lat="43.49152" lon="-1.01147">
        <ele>44.4</ele>
        <time>2025-07-23T08:42:45Z</time>
      </trkpt>
      <trkpt lat="43.49182" lon="-1.01179">
        <ele>43</ele>
        <time>2025-07-23T08:42:50Z</time>
      </trkpt>
      <trkpt lat="43.49202" lon="-1.01196">
        <ele>42.2</ele>
        <time>2025-07-23T08:42:53Z</time>
      </trkpt>
      <trkpt lat="43.49216" lon="-1.01203">
        <ele>41.8</ele>
        <time>2025-07-23T08:42:55Z</time>
      </trkpt>
      <trkpt lat="43.49231" lon="-1.01205">
        <ele>41</ele>
        <time>2025-07-23T08:42:57Z</time>
      </trkpt>
      <trkpt lat="43.49245" lon="-1.01205">
        <ele>40.6</ele>
        <time>2025-07-23T08:42:59Z</time>
      </trkpt>
      <trkpt lat="43.49279" lon="-1.01211">
        <ele>40</ele>
        <time>2025-07-23T08:43:04Z</time>
      </trkpt>
      <trkpt lat="43.49323" lon="-1.01229">
        <ele>39.4</ele>
        <time>2025-07-23T08:43:10Z</time>
      </trkpt>
      <trkpt lat="43.49338" lon="-1.01235">
        <ele>39</ele>
        <time>2025-07-23T08:43:12Z</time>
      </trkpt>
      <trkpt lat="43.49366" lon="-1.01248">
        <ele>38.2</ele>
        <time>2025-07-23T08:43:16Z</time>
      </trkpt>
      <trkpt lat="43.49372" lon="-1.01253">
        <ele>38.2</ele>
        <time>2025-07-23T08:43:17Z</time>
      </trkpt>
      <trkpt lat="43.49415" lon="-1.01291">
        <ele>37.8</ele>
        <time>2025-07-23T08:43:24Z</time>
      </trkpt>
      <trkpt lat="43.49455" lon="-1.01319">
        <ele>37.4</ele>
        <time>2025-07-23T08:43:30Z</time>
      </trkpt>
      <trkpt lat="43.49462" lon="-1.01324">
        <ele>37</ele>
        <time>2025-07-23T08:43:31Z</time>
      </trkpt>
      <trkpt lat="43.49496" lon="-1.01351">
        <ele>36</ele>
        <time>2025-07-23T08:43:36Z</time>
      </trkpt>
      <trkpt lat="43.4951" lon="-1.01362">
        <ele>35.4</ele>
        <time>2025-07-23T08:43:38Z</time>
      </trkpt>
      <trkpt lat="43.49525" lon="-1.01374">
        <ele>34.8</ele>
        <time>2025-07-23T08:43:40Z</time>
      </trkpt>
      <trkpt lat="43.49574" lon="-1.01416">
        <ele>33.8</ele>
        <time>2025-07-23T08:43:47Z</time>
      </trkpt>
      <trkpt lat="43.49581" lon="-1.01421">
        <ele>33.8</ele>
        <time>2025-07-23T08:43:48Z</time>
      </trkpt>
      <trkpt lat="43.4963" lon="-1.01464">
        <ele>33.6</ele>
        <time>2025-07-23T08:43:56Z</time>
      </trkpt>
      <trkpt lat="43.49667" lon="-1.01497">
        <ele>34.2</ele>
        <time>2025-07-23T08:44:03Z</time>
      </trkpt>
      <trkpt lat="43.4969" lon="-1.01517">
        <ele>35</ele>
        <time>2025-07-23T08:44:08Z</time>
      </trkpt>
      <trkpt lat="43.49695" lon="-1.0152">
        <ele>35</ele>
        <time>2025-07-23T08:44:09Z</time>
      </trkpt>
      <trkpt lat="43.49728" lon="-1.0155">
        <ele>35.6</ele>
        <time>2025-07-23T08:44:17Z</time>
      </trkpt>
      <trkpt lat="43.49733" lon="-1.01554">
        <ele>35.8</ele>
        <time>2025-07-23T08:44:18Z</time>
      </trkpt>
      <trkpt lat="43.49766" lon="-1.01583">
        <ele>36.8</ele>
        <time>2025-07-23T08:44:26Z</time>
      </trkpt>
      <trkpt lat="43.49799" lon="-1.01612">
        <ele>38</ele>
        <time>2025-07-23T08:44:34Z</time>
      </trkpt>
      <trkpt lat="43.49806" lon="-1.01618">
        <ele>38.8</ele>
        <time>2025-07-23T08:44:37Z</time>
      </trkpt>
      <trkpt lat="43.49817" lon="-1.01627">
        <ele>39.2</ele>
        <time>2025-07-23T08:44:40Z</time>
      </trkpt>
      <trkpt lat="43.4982" lon="-1.01629">
        <ele>39.2</ele>
        <time>2025-07-23T08:44:41Z</time>
      </trkpt>
      <trkpt lat="43.49838" lon="-1.01645">
        <ele>40</ele>
        <time>2025-07-23T08:44:46Z</time>
      </trkpt>
      <trkpt lat="43.49858" lon="-1.01664">
        <ele>41</ele>
        <time>2025-07-23T08:44:52Z</time>
      </trkpt>
      <trkpt lat="43.49879" lon="-1.01678">
        <ele>42.2</ele>
        <time>2025-07-23T08:44:58Z</time>
      </trkpt>
      <trkpt lat="43.49882" lon="-1.0168">
        <ele>42.4</ele>
        <time>2025-07-23T08:44:59Z</time>
      </trkpt>
      <trkpt lat="43.49898" lon="-1.01689">
        <ele>43.2</ele>
        <time>2025-07-23T08:45:04Z</time>
      </trkpt>
      <trkpt lat="43.49898" lon="-1.01689">
        <ele>43.4</ele>
        <time>2025-07-23T08:45:05Z</time>
      </trkpt>
      <trkpt lat="43.4992" lon="-1.01712">
        <ele>44.4</ele>
        <time>2025-07-23T08:45:11Z</time>
      </trkpt>
      <trkpt lat="43.49924" lon="-1.01715">
        <ele>44.4</ele>
        <time>2025-07-23T08:45:12Z</time>
      </trkpt>
      <trkpt lat="43.49945" lon="-1.01735">
        <ele>45.4</ele>
        <time>2025-07-23T08:45:18Z</time>
      </trkpt>
      <trkpt lat="43.49957" lon="-1.01744">
        <ele>45.8</ele>
        <time>2025-07-23T08:45:21Z</time>
      </trkpt>
      <trkpt lat="43.49961" lon="-1.01748">
        <ele>45.8</ele>
        <time>2025-07-23T08:45:22Z</time>
      </trkpt>
      <trkpt lat="43.49982" lon="-1.01758">
        <ele>46.2</ele>
        <time>2025-07-23T08:45:27Z</time>
      </trkpt>
      <trkpt lat="43.50019" lon="-1.01775">
        <ele>46.4</ele>
        <time>2025-07-23T08:45:35Z</time>
      </trkpt>
      <trkpt lat="43.50061" lon="-1.0179">
        <ele>46.2</ele>
        <time>2025-07-23T08:45:43Z</time>
      </trkpt>
      <trkpt lat="43.50111" lon="-1.01805">
        <ele>45.8</ele>
        <time>2025-07-23T08:45:51Z</time>
      </trkpt>
      <trkpt lat="43.50163" lon="-1.01825">
        <ele>45</ele>
        <time>2025-07-23T08:45:59Z</time>
      </trkpt>
      <trkpt lat="43.50191" lon="-1.01835">
        <ele>44</ele>
        <time>2025-07-23T08:46:03Z</time>
      </trkpt>
      <trkpt lat="43.50206" lon="-1.01837">
        <ele>43.6</ele>
        <time>2025-07-23T08:46:05Z</time>
      </trkpt>
      <trkpt lat="43.50229" lon="-1.01843">
        <ele>42.8</ele>
        <time>2025-07-23T08:46:08Z</time>
      </trkpt>
      <trkpt lat="43.50253" lon="-1.0185">
        <ele>41.8</ele>
        <time>2025-07-23T08:46:11Z</time>
      </trkpt>
      <trkpt lat="43.50284" lon="-1.01859">
        <ele>40.4</ele>
        <time>2025-07-23T08:46:15Z</time>
      </trkpt>
      <trkpt lat="43.50315" lon="-1.0187">
        <ele>39.2</ele>
        <time>2025-07-23T08:46:19Z</time>
      </trkpt>
      <trkpt lat="43.50359" lon="-1.01882">
        <ele>38</ele>
        <time>2025-07-23T08:46:25Z</time>
      </trkpt>
      <trkpt lat="43.50406" lon="-1.01895">
        <ele>37.4</ele>
        <time>2025-07-23T08:46:32Z</time>
      </trkpt>
      <trkpt lat="43.50446" lon="-1.01907">
        <ele>38</ele>
        <time>2025-07-23T08:46:39Z</time>
      </trkpt>
      <trkpt lat="43.50493" lon="-1.01921">
        <ele>38.8</ele>
        <time>2025-07-23T08:46:48Z</time>
      </trkpt>
      <trkpt lat="43.50508" lon="-1.01926">
        <ele>39</ele>
        <time>2025-07-23T08:46:51Z</time>
      </trkpt>
      <trkpt lat="43.50538" lon="-1.01939">
        <ele>39.8</ele>
        <time>2025-07-23T08:46:57Z</time>
      </trkpt>
      <trkpt lat="43.50547" lon="-1.01943">
        <ele>40</ele>
        <time>2025-07-23T08:46:59Z</time>
      </trkpt>
      <trkpt lat="43.50563" lon="-1.01951">
        <ele>41</ele>
        <time>2025-07-23T08:47:03Z</time>
      </trkpt>
      <trkpt lat="43.5057" lon="-1.01955">
        <ele>41.4</ele>
        <time>2025-07-23T08:47:05Z</time>
      </trkpt>
      <trkpt lat="43.50593" lon="-1.01968">
        <ele>42.6</ele>
        <time>2025-07-23T08:47:11Z</time>
      </trkpt>
      <trkpt lat="43.50614" lon="-1.01983">
        <ele>43.8</ele>
        <time>2025-07-23T08:47:17Z</time>
      </trkpt>
      <trkpt lat="43.50618" lon="-1.01985">
        <ele>44.2</ele>
        <time>2025-07-23T08:47:18Z</time>
      </trkpt>
      <trkpt lat="43.50635" lon="-1.01998">
        <ele>44.8</ele>
        <time>2025-07-23T08:47:23Z</time>
      </trkpt>
      <trkpt lat="43.50639" lon="-1.02">
        <ele>45</ele>
        <time>2025-07-23T08:47:24Z</time>
      </trkpt>
      <trkpt lat="43.50643" lon="-1.02003">
        <ele>45.2</ele>
        <time>2025-07-23T08:47:25Z</time>
      </trkpt>
      <trkpt lat="43.50647" lon="-1.02006">
        <ele>45.4</ele>
        <time>2025-07-23T08:47:26Z</time>
      </trkpt>
      <trkpt lat="43.50675" lon="-1.02026">
        <ele>46</ele>
        <time>2025-07-23T08:47:33Z</time>
      </trkpt>
      <trkpt lat="43.50684" lon="-1.02032">
        <ele>46.2</ele>
        <time>2025-07-23T08:47:35Z</time>
      </trkpt>
      <trkpt lat="43.50724" lon="-1.02061">
        <ele>46.6</ele>
        <time>2025-07-23T08:47:43Z</time>
      </trkpt>
      <trkpt lat="43.50761" lon="-1.02086">
        <ele>46</ele>
        <time>2025-07-23T08:47:49Z</time>
      </trkpt>
      <trkpt lat="43.50789" lon="-1.02105">
        <ele>45</ele>
        <time>2025-07-23T08:47:53Z</time>
      </trkpt>
      <trkpt lat="43.50803" lon="-1.02116">
        <ele>44.6</ele>
        <time>2025-07-23T08:47:55Z</time>
      </trkpt>
      <trkpt lat="43.50818" lon="-1.02126">
        <ele>43.8</ele>
        <time>2025-07-23T08:47:57Z</time>
      </trkpt>
      <trkpt lat="43.50839" lon="-1.02142">
        <ele>42.6</ele>
        <time>2025-07-23T08:48:00Z</time>
      </trkpt>
      <trkpt lat="43.50859" lon="-1.02155">
        <ele>41.8</ele>
        <time>2025-07-23T08:48:03Z</time>
      </trkpt>
      <trkpt lat="43.50871" lon="-1.02163">
        <ele>41.6</ele>
        <time>2025-07-23T08:48:05Z</time>
      </trkpt>
      <trkpt lat="43.50895" lon="-1.02179">
        <ele>41.2</ele>
        <time>2025-07-23T08:48:09Z</time>
      </trkpt>
      <trkpt lat="43.50947" lon="-1.02214">
        <ele>41.2</ele>
        <time>2025-07-23T08:48:18Z</time>
      </trkpt>
      <trkpt lat="43.50997" lon="-1.02249">
        <ele>41.2</ele>
        <time>2025-07-23T08:48:27Z</time>
      </trkpt>
      <trkpt lat="43.5102" lon="-1.02265">
        <ele>41.2</ele>
        <time>2025-07-23T08:48:31Z</time>
      </trkpt>
      <trkpt lat="43.51068" lon="-1.02311">
        <ele>41.2</ele>
        <time>2025-07-23T08:48:40Z</time>
      </trkpt>
      <trkpt lat="43.51108" lon="-1.0237">
        <ele>41</ele>
        <time>2025-07-23T08:48:49Z</time>
      </trkpt>
      <trkpt lat="43.51122" lon="-1.0239">
        <ele>41</ele>
        <time>2025-07-23T08:48:52Z</time>
      </trkpt>
      <trkpt lat="43.51164" lon="-1.0245">
        <ele>40.6</ele>
        <time>2025-07-23T08:49:01Z</time>
      </trkpt>
      <trkpt lat="43.51168" lon="-1.02457">
        <ele>40.6</ele>
        <time>2025-07-23T08:49:02Z</time>
      </trkpt>
      <trkpt lat="43.51212" lon="-1.0252">
        <ele>40.4</ele>
        <time>2025-07-23T08:49:12Z</time>
      </trkpt>
      <trkpt lat="43.51216" lon="-1.02526">
        <ele>40.4</ele>
        <time>2025-07-23T08:49:13Z</time>
      </trkpt>
      <trkpt lat="43.51257" lon="-1.02585">
        <ele>40.4</ele>
        <time>2025-07-23T08:49:22Z</time>
      </trkpt>
      <trkpt lat="43.51266" lon="-1.02598">
        <ele>40.2</ele>
        <time>2025-07-23T08:49:24Z</time>
      </trkpt>
      <trkpt lat="43.51295" lon="-1.02641">
        <ele>39.4</ele>
        <time>2025-07-23T08:49:30Z</time>
      </trkpt>
      <trkpt lat="43.5132" lon="-1.02677">
        <ele>38.6</ele>
        <time>2025-07-23T08:49:35Z</time>
      </trkpt>
      <trkpt lat="43.51325" lon="-1.02685">
        <ele>38.4</ele>
        <time>2025-07-23T08:49:36Z</time>
      </trkpt>
      <trkpt lat="43.51367" lon="-1.02745">
        <ele>37.2</ele>
        <time>2025-07-23T08:49:44Z</time>
      </trkpt>
      <trkpt lat="43.51377" lon="-1.0276">
        <ele>36.8</ele>
        <time>2025-07-23T08:49:46Z</time>
      </trkpt>
      <trkpt lat="43.51403" lon="-1.02798">
        <ele>36.2</ele>
        <time>2025-07-23T08:49:51Z</time>
      </trkpt>
      <trkpt lat="43.51439" lon="-1.02849">
        <ele>35.2</ele>
        <time>2025-07-23T08:49:58Z</time>
      </trkpt>
      <trkpt lat="43.51449" lon="-1.02863">
        <ele>35</ele>
        <time>2025-07-23T08:50:00Z</time>
      </trkpt>
      <trkpt lat="43.51487" lon="-1.02919">
        <ele>34.4</ele>
        <time>2025-07-23T08:50:08Z</time>
      </trkpt>
      <trkpt lat="43.51526" lon="-1.02977">
        <ele>34.4</ele>
        <time>2025-07-23T08:50:17Z</time>
      </trkpt>
      <trkpt lat="43.51565" lon="-1.03033">
        <ele>34.6</ele>
        <time>2025-07-23T08:50:26Z</time>
      </trkpt>
      <trkpt lat="43.51598" lon="-1.03083">
        <ele>34.6</ele>
        <time>2025-07-23T08:50:34Z</time>
      </trkpt>
      <trkpt lat="43.51634" lon="-1.03123">
        <ele>34.8</ele>
        <time>2025-07-23T08:50:41Z</time>
      </trkpt>
      <trkpt lat="43.51676" lon="-1.03161">
        <ele>35</ele>
        <time>2025-07-23T08:50:49Z</time>
      </trkpt>
      <trkpt lat="43.5172" lon="-1.03201">
        <ele>35.6</ele>
        <time>2025-07-23T08:50:58Z</time>
      </trkpt>
      <trkpt lat="43.51747" lon="-1.03227">
        <ele>36.2</ele>
        <time>2025-07-23T08:51:04Z</time>
      </trkpt>
      <trkpt lat="43.51778" lon="-1.03257">
        <ele>36.6</ele>
        <time>2025-07-23T08:51:11Z</time>
      </trkpt>
      <trkpt lat="43.51801" lon="-1.03278">
        <ele>37.4</ele>
        <time>2025-07-23T08:51:16Z</time>
      </trkpt>
      <trkpt lat="43.51823" lon="-1.03302">
        <ele>37.8</ele>
        <time>2025-07-23T08:51:21Z</time>
      </trkpt>
      <trkpt lat="43.51849" lon="-1.03345">
        <ele>38.6</ele>
        <time>2025-07-23T08:51:28Z</time>
      </trkpt>
      <trkpt lat="43.51849" lon="-1.03345">
        <ele>38.6</ele>
        <time>2025-07-23T08:51:29Z</time>
      </trkpt>
      <trkpt lat="43.51856" lon="-1.03359">
        <ele>38.6</ele>
        <time>2025-07-23T08:51:30Z</time>
      </trkpt>
      <trkpt lat="43.5187" lon="-1.03396">
        <ele>38.4</ele>
        <time>2025-07-23T08:51:35Z</time>
      </trkpt>
      <trkpt lat="43.51888" lon="-1.03466">
        <ele>38.2</ele>
        <time>2025-07-23T08:51:43Z</time>
      </trkpt>
      <trkpt lat="43.51905" lon="-1.03537">
        <ele>37.8</ele>
        <time>2025-07-23T08:51:51Z</time>
      </trkpt>
      <trkpt lat="43.5191" lon="-1.03555">
        <ele>37.8</ele>
        <time>2025-07-23T08:51:54Z</time>
      </trkpt>
      <trkpt lat="43.51927" lon="-1.03625">
        <ele>37.4</ele>
        <time>2025-07-23T08:52:01Z</time>
      </trkpt>
      <trkpt lat="43.51931" lon="-1.03643">
        <ele>37.4</ele>
        <time>2025-07-23T08:52:03Z</time>
      </trkpt>
      <trkpt lat="43.51939" lon="-1.03678">
        <ele>37.2</ele>
        <time>2025-07-23T08:52:07Z</time>
      </trkpt>
      <trkpt lat="43.51962" lon="-1.03753">
        <ele>37</ele>
        <time>2025-07-23T08:52:16Z</time>
      </trkpt>
      <trkpt lat="43.51991" lon="-1.03811">
        <ele>37.2</ele>
        <time>2025-07-23T08:52:24Z</time>
      </trkpt>
      <trkpt lat="43.52029" lon="-1.03873">
        <ele>37.4</ele>
        <time>2025-07-23T08:52:33Z</time>
      </trkpt>
      <trkpt lat="43.52033" lon="-1.0388">
        <ele>37.6</ele>
        <time>2025-07-23T08:52:34Z</time>
      </trkpt>
      <trkpt lat="43.52071" lon="-1.03944">
        <ele>37.6</ele>
        <time>2025-07-23T08:52:43Z</time>
      </trkpt>
      <trkpt lat="43.52075" lon="-1.03951">
        <ele>37.6</ele>
        <time>2025-07-23T08:52:44Z</time>
      </trkpt>
      <trkpt lat="43.52109" lon="-1.04007">
        <ele>37.6</ele>
        <time>2025-07-23T08:52:52Z</time>
      </trkpt>
      <trkpt lat="43.52147" lon="-1.0407">
        <ele>37.4</ele>
        <time>2025-07-23T08:53:01Z</time>
      </trkpt>
      <trkpt lat="43.52159" lon="-1.04091">
        <ele>37.4</ele>
        <time>2025-07-23T08:53:04Z</time>
      </trkpt>
      <trkpt lat="43.52197" lon="-1.04155">
        <ele>37</ele>
        <time>2025-07-23T08:53:13Z</time>
      </trkpt>
      <trkpt lat="43.52206" lon="-1.0417">
        <ele>37</ele>
        <time>2025-07-23T08:53:15Z</time>
      </trkpt>
      <trkpt lat="43.52241" lon="-1.04228">
        <ele>36.6</ele>
        <time>2025-07-23T08:53:23Z</time>
      </trkpt>
      <trkpt lat="43.52245" lon="-1.04236">
        <ele>36.6</ele>
        <time>2025-07-23T08:53:24Z</time>
      </trkpt>
      <trkpt lat="43.52272" lon="-1.04281">
        <ele>36.4</ele>
        <time>2025-07-23T08:53:30Z</time>
      </trkpt>
      <trkpt lat="43.52289" lon="-1.04311">
        <ele>36.2</ele>
        <time>2025-07-23T08:53:34Z</time>
      </trkpt>
      <trkpt lat="43.52325" lon="-1.0437">
        <ele>35.8</ele>
        <time>2025-07-23T08:53:42Z</time>
      </trkpt>
      <trkpt lat="43.52329" lon="-1.04378">
        <ele>35.8</ele>
        <time>2025-07-23T08:53:43Z</time>
      </trkpt>
      <trkpt lat="43.52364" lon="-1.04436">
        <ele>35.6</ele>
        <time>2025-07-23T08:53:51Z</time>
      </trkpt>
      <trkpt lat="43.52364" lon="-1.04436">
        <ele>35.6</ele>
        <time>2025-07-23T08:53:52Z</time>
      </trkpt>
      <trkpt lat="43.52404" lon="-1.04496">
        <ele>35.4</ele>
        <time>2025-07-23T08:54:00Z</time>
      </trkpt>
      <trkpt lat="43.52409" lon="-1.04502">
        <ele>35.4</ele>
        <time>2025-07-23T08:54:01Z</time>
      </trkpt>
      <trkpt lat="43.52452" lon="-1.04558">
        <ele>35.4</ele>
        <time>2025-07-23T08:54:10Z</time>
      </trkpt>
      <trkpt lat="43.52492" lon="-1.0461">
        <ele>35.4</ele>
        <time>2025-07-23T08:54:18Z</time>
      </trkpt>
      <trkpt lat="43.52501" lon="-1.04623">
        <ele>35.4</ele>
        <time>2025-07-23T08:54:20Z</time>
      </trkpt>
      <trkpt lat="43.52511" lon="-1.04636">
        <ele>35.4</ele>
        <time>2025-07-23T08:54:22Z</time>
      </trkpt>
      <trkpt lat="43.52555" lon="-1.04692">
        <ele>35.2</ele>
        <time>2025-07-23T08:54:31Z</time>
      </trkpt>
      <trkpt lat="43.52597" lon="-1.04747">
        <ele>35.2</ele>
        <time>2025-07-23T08:54:40Z</time>
      </trkpt>
      <trkpt lat="43.52607" lon="-1.04759">
        <ele>35.2</ele>
        <time>2025-07-23T08:54:42Z</time>
      </trkpt>
      <trkpt lat="43.52649" lon="-1.04808">
        <ele>35.2</ele>
        <time>2025-07-23T08:54:51Z</time>
      </trkpt>
      <trkpt lat="43.52653" lon="-1.04813">
        <ele>35.2</ele>
        <time>2025-07-23T08:54:52Z</time>
      </trkpt>
      <trkpt lat="43.52669" lon="-1.04832">
        <ele>35.4</ele>
        <time>2025-07-23T08:54:57Z</time>
      </trkpt>
      <trkpt lat="43.52672" lon="-1.04836">
        <ele>35.4</ele>
        <time>2025-07-23T08:55:01Z</time>
      </trkpt>
      <trkpt lat="43.52673" lon="-1.04835">
        <ele>35.4</ele>
        <time>2025-07-23T08:55:02Z</time>
      </trkpt>
      <trkpt lat="43.52676" lon="-1.0484">
        <ele>35</ele>
        <time>2025-07-23T08:57:12Z</time>
      </trkpt>
      <trkpt lat="43.5268" lon="-1.04846">
        <ele>35</ele>
        <time>2025-07-23T08:57:14Z</time>
      </trkpt>
      <trkpt lat="43.527" lon="-1.04869">
        <ele>35.4</ele>
        <time>2025-07-23T08:57:21Z</time>
      </trkpt>
      <trkpt lat="43.52723" lon="-1.04897">
        <ele>35.8</ele>
        <time>2025-07-23T08:57:28Z</time>
      </trkpt>
      <trkpt lat="43.52751" lon="-1.04936">
        <ele>36.2</ele>
        <time>2025-07-23T08:57:37Z</time>
      </trkpt>
      <trkpt lat="43.52771" lon="-1.04975">
        <ele>36.2</ele>
        <time>2025-07-23T08:57:44Z</time>
      </trkpt>
      <trkpt lat="43.52776" lon="-1.04988">
        <ele>36.2</ele>
        <time>2025-07-23T08:57:46Z</time>
      </trkpt>
      <trkpt lat="43.52799" lon="-1.05049">
        <ele>36.4</ele>
        <time>2025-07-23T08:57:55Z</time>
      </trkpt>
      <trkpt lat="43.52816" lon="-1.05099">
        <ele>35.6</ele>
        <time>2025-07-23T08:58:02Z</time>
      </trkpt>
      <trkpt lat="43.52838" lon="-1.05159">
        <ele>34.8</ele>
        <time>2025-07-23T08:58:10Z</time>
      </trkpt>
      <trkpt lat="43.52846" lon="-1.05182">
        <ele>34.4</ele>
        <time>2025-07-23T08:58:13Z</time>
      </trkpt>
      <trkpt lat="43.52859" lon="-1.05212">
        <ele>34.4</ele>
        <time>2025-07-23T08:58:17Z</time>
      </trkpt>
      <trkpt lat="43.52876" lon="-1.05248">
        <ele>34.2</ele>
        <time>2025-07-23T08:58:22Z</time>
      </trkpt>
      <trkpt lat="43.52879" lon="-1.05256">
        <ele>34.2</ele>
        <time>2025-07-23T08:58:23Z</time>
      </trkpt>
      <trkpt lat="43.52888" lon="-1.05278">
        <ele>34</ele>
        <time>2025-07-23T08:58:26Z</time>
      </trkpt>
      <trkpt lat="43.52895" lon="-1.05301">
        <ele>34</ele>
        <time>2025-07-23T08:58:29Z</time>
      </trkpt>
      <trkpt lat="43.52907" lon="-1.05355">
        <ele>34.6</ele>
        <time>2025-07-23T08:58:36Z</time>
      </trkpt>
      <trkpt lat="43.52921" lon="-1.0541">
        <ele>34.4</ele>
        <time>2025-07-23T08:58:43Z</time>
      </trkpt>
      <trkpt lat="43.52924" lon="-1.05417">
        <ele>34.2</ele>
        <time>2025-07-23T08:58:44Z</time>
      </trkpt>
      <trkpt lat="43.52932" lon="-1.05436">
        <ele>34.2</ele>
        <time>2025-07-23T08:58:47Z</time>
      </trkpt>
      <trkpt lat="43.52937" lon="-1.05447">
        <ele>34</ele>
        <time>2025-07-23T08:58:49Z</time>
      </trkpt>
      <trkpt lat="43.5294" lon="-1.05453">
        <ele>34</ele>
        <time>2025-07-23T08:58:50Z</time>
      </trkpt>
      <trkpt lat="43.52949" lon="-1.05472">
        <ele>34</ele>
        <time>2025-07-23T08:58:53Z</time>
      </trkpt>
      <trkpt lat="43.52952" lon="-1.05477">
        <ele>34</ele>
        <time>2025-07-23T08:58:54Z</time>
      </trkpt>
      <trkpt lat="43.52956" lon="-1.05483">
        <ele>34</ele>
        <time>2025-07-23T08:58:55Z</time>
      </trkpt>
      <trkpt lat="43.52967" lon="-1.05507">
        <ele>34</ele>
        <time>2025-07-23T08:58:59Z</time>
      </trkpt>
      <trkpt lat="43.52972" lon="-1.0552">
        <ele>34</ele>
        <time>2025-07-23T08:59:01Z</time>
      </trkpt>
      <trkpt lat="43.5298" lon="-1.05549">
        <ele>34</ele>
        <time>2025-07-23T08:59:05Z</time>
      </trkpt>
      <trkpt lat="43.52987" lon="-1.05605">
        <ele>34</ele>
        <time>2025-07-23T08:59:12Z</time>
      </trkpt>
      <trkpt lat="43.53001" lon="-1.05684">
        <ele>33.2</ele>
        <time>2025-07-23T08:59:22Z</time>
      </trkpt>
      <trkpt lat="43.53007" lon="-1.05708">
        <ele>33.2</ele>
        <time>2025-07-23T08:59:25Z</time>
      </trkpt>
      <trkpt lat="43.53024" lon="-1.0577">
        <ele>33</ele>
        <time>2025-07-23T08:59:33Z</time>
      </trkpt>
      <trkpt lat="43.5304" lon="-1.05833">
        <ele>32.6</ele>
        <time>2025-07-23T08:59:41Z</time>
      </trkpt>
      <trkpt lat="43.5306" lon="-1.05902">
        <ele>32.2</ele>
        <time>2025-07-23T08:59:50Z</time>
      </trkpt>
      <trkpt lat="43.53063" lon="-1.0591">
        <ele>32.2</ele>
        <time>2025-07-23T08:59:51Z</time>
      </trkpt>
      <trkpt lat="43.53079" lon="-1.05963">
        <ele>31.8</ele>
        <time>2025-07-23T08:59:58Z</time>
      </trkpt>
      <trkpt lat="43.53102" lon="-1.0603">
        <ele>31.6</ele>
        <time>2025-07-23T09:00:07Z</time>
      </trkpt>
      <trkpt lat="43.53121" lon="-1.06081">
        <ele>31.8</ele>
        <time>2025-07-23T09:00:14Z</time>
      </trkpt>
      <trkpt lat="43.53147" lon="-1.0615">
        <ele>31.6</ele>
        <time>2025-07-23T09:00:23Z</time>
      </trkpt>
      <trkpt lat="43.5315" lon="-1.06158">
        <ele>31.6</ele>
        <time>2025-07-23T09:00:24Z</time>
      </trkpt>
      <trkpt lat="43.53174" lon="-1.0622">
        <ele>31.4</ele>
        <time>2025-07-23T09:00:32Z</time>
      </trkpt>
      <trkpt lat="43.53197" lon="-1.06292">
        <ele>31.4</ele>
        <time>2025-07-23T09:00:41Z</time>
      </trkpt>
      <trkpt lat="43.53209" lon="-1.06344">
        <ele>31.2</ele>
        <time>2025-07-23T09:00:47Z</time>
      </trkpt>
      <trkpt lat="43.5322" lon="-1.06387">
        <ele>31.2</ele>
        <time>2025-07-23T09:00:52Z</time>
      </trkpt>
      <trkpt lat="43.53232" lon="-1.0644">
        <ele>30.8</ele>
        <time>2025-07-23T09:00:58Z</time>
      </trkpt>
      <trkpt lat="43.5325" lon="-1.06518">
        <ele>30.4</ele>
        <time>2025-07-23T09:01:07Z</time>
      </trkpt>
      <trkpt lat="43.53268" lon="-1.06596">
        <ele>30.2</ele>
        <time>2025-07-23T09:01:16Z</time>
      </trkpt>
      <trkpt lat="43.53284" lon="-1.06663">
        <ele>30.2</ele>
        <time>2025-07-23T09:01:24Z</time>
      </trkpt>
      <trkpt lat="43.53287" lon="-1.06671">
        <ele>30</ele>
        <time>2025-07-23T09:01:25Z</time>
      </trkpt>
      <trkpt lat="43.53309" lon="-1.06716">
        <ele>29.8</ele>
        <time>2025-07-23T09:01:31Z</time>
      </trkpt>
      <trkpt lat="43.53346" lon="-1.06781">
        <ele>29.2</ele>
        <time>2025-07-23T09:01:40Z</time>
      </trkpt>
      <trkpt lat="43.53366" lon="-1.06816">
        <ele>29</ele>
        <time>2025-07-23T09:01:45Z</time>
      </trkpt>
      <trkpt lat="43.53394" lon="-1.06866">
        <ele>29</ele>
        <time>2025-07-23T09:01:52Z</time>
      </trkpt>
      <trkpt lat="43.5343" lon="-1.06925">
        <ele>28.8</ele>
        <time>2025-07-23T09:02:01Z</time>
      </trkpt>
      <trkpt lat="43.53457" lon="-1.06972">
        <ele>28.8</ele>
        <time>2025-07-23T09:02:08Z</time>
      </trkpt>
      <trkpt lat="43.53485" lon="-1.07031">
        <ele>28.8</ele>
        <time>2025-07-23T09:02:16Z</time>
      </trkpt>
      <trkpt lat="43.53513" lon="-1.07103">
        <ele>28.8</ele>
        <time>2025-07-23T09:02:25Z</time>
      </trkpt>
      <trkpt lat="43.53517" lon="-1.07112">
        <ele>28.8</ele>
        <time>2025-07-23T09:02:26Z</time>
      </trkpt>
      <trkpt lat="43.53545" lon="-1.07183">
        <ele>29</ele>
        <time>2025-07-23T09:02:35Z</time>
      </trkpt>
      <trkpt lat="43.53548" lon="-1.0719">
        <ele>29.2</ele>
        <time>2025-07-23T09:02:36Z</time>
      </trkpt>
      <trkpt lat="43.53571" lon="-1.0725">
        <ele>29.4</ele>
        <time>2025-07-23T09:02:44Z</time>
      </trkpt>
      <trkpt lat="43.5359" lon="-1.073">
        <ele>30</ele>
        <time>2025-07-23T09:02:51Z</time>
      </trkpt>
      <trkpt lat="43.53598" lon="-1.07321">
        <ele>30.2</ele>
        <time>2025-07-23T09:02:54Z</time>
      </trkpt>
      <trkpt lat="43.53627" lon="-1.07393">
        <ele>30.6</ele>
        <time>2025-07-23T09:03:04Z</time>
      </trkpt>
      <trkpt lat="43.53637" lon="-1.07421">
        <ele>30.8</ele>
        <time>2025-07-23T09:03:08Z</time>
      </trkpt>
      <trkpt lat="43.53651" lon="-1.07457">
        <ele>31</ele>
        <time>2025-07-23T09:03:13Z</time>
      </trkpt>
      <trkpt lat="43.53665" lon="-1.07493">
        <ele>31.4</ele>
        <time>2025-07-23T09:03:18Z</time>
      </trkpt>
      <trkpt lat="43.53691" lon="-1.07567">
        <ele>31.8</ele>
        <time>2025-07-23T09:03:28Z</time>
      </trkpt>
      <trkpt lat="43.53715" lon="-1.0764">
        <ele>31.4</ele>
        <time>2025-07-23T09:03:37Z</time>
      </trkpt>
      <trkpt lat="43.53718" lon="-1.07648">
        <ele>31.4</ele>
        <time>2025-07-23T09:03:38Z</time>
      </trkpt>
      <trkpt lat="43.53741" lon="-1.0772">
        <ele>31.4</ele>
        <time>2025-07-23T09:03:47Z</time>
      </trkpt>
      <trkpt lat="43.53744" lon="-1.07728">
        <ele>31.4</ele>
        <time>2025-07-23T09:03:48Z</time>
      </trkpt>
      <trkpt lat="43.53768" lon="-1.07799">
        <ele>31</ele>
        <time>2025-07-23T09:03:57Z</time>
      </trkpt>
      <trkpt lat="43.53793" lon="-1.07875">
        <ele>30.4</ele>
        <time>2025-07-23T09:04:06Z</time>
      </trkpt>
      <trkpt lat="43.53798" lon="-1.07893">
        <ele>30</ele>
        <time>2025-07-23T09:04:08Z</time>
      </trkpt>
      <trkpt lat="43.5382" lon="-1.07958">
        <ele>29</ele>
        <time>2025-07-23T09:04:15Z</time>
      </trkpt>
      <trkpt lat="43.53823" lon="-1.07968">
        <ele>28.8</ele>
        <time>2025-07-23T09:04:16Z</time>
      </trkpt>
      <trkpt lat="43.5384" lon="-1.08019">
        <ele>27.8</ele>
        <time>2025-07-23T09:04:21Z</time>
      </trkpt>
      <trkpt lat="43.53847" lon="-1.0804">
        <ele>27.4</ele>
        <time>2025-07-23T09:04:23Z</time>
      </trkpt>
      <trkpt lat="43.53856" lon="-1.08071">
        <ele>26.8</ele>
        <time>2025-07-23T09:04:26Z</time>
      </trkpt>
      <trkpt lat="43.53867" lon="-1.08102">
        <ele>25.6</ele>
        <time>2025-07-23T09:04:29Z</time>
      </trkpt>
      <trkpt lat="43.53877" lon="-1.08132">
        <ele>24.8</ele>
        <time>2025-07-23T09:04:32Z</time>
      </trkpt>
      <trkpt lat="43.53883" lon="-1.08151">
        <ele>24.6</ele>
        <time>2025-07-23T09:04:34Z</time>
      </trkpt>
      <trkpt lat="43.53902" lon="-1.08206">
        <ele>24</ele>
        <time>2025-07-23T09:04:40Z</time>
      </trkpt>
      <trkpt lat="43.53925" lon="-1.08277">
        <ele>23.6</ele>
        <time>2025-07-23T09:04:48Z</time>
      </trkpt>
      <trkpt lat="43.53948" lon="-1.08346">
        <ele>23.2</ele>
        <time>2025-07-23T09:04:56Z</time>
      </trkpt>
      <trkpt lat="43.53954" lon="-1.08363">
        <ele>23.2</ele>
        <time>2025-07-23T09:04:58Z</time>
      </trkpt>
      <trkpt lat="43.53977" lon="-1.08437">
        <ele>23.2</ele>
        <time>2025-07-23T09:05:07Z</time>
      </trkpt>
      <trkpt lat="43.54002" lon="-1.0851">
        <ele>23.8</ele>
        <time>2025-07-23T09:05:16Z</time>
      </trkpt>
      <trkpt lat="43.54007" lon="-1.08525">
        <ele>23.8</ele>
        <time>2025-07-23T09:05:18Z</time>
      </trkpt>
      <trkpt lat="43.5403" lon="-1.08595">
        <ele>24</ele>
        <time>2025-07-23T09:05:27Z</time>
      </trkpt>
      <trkpt lat="43.54033" lon="-1.08603">
        <ele>23.8</ele>
        <time>2025-07-23T09:05:28Z</time>
      </trkpt>
      <trkpt lat="43.54055" lon="-1.08671">
        <ele>23.8</ele>
        <time>2025-07-23T09:05:37Z</time>
      </trkpt>
      <trkpt lat="43.54057" lon="-1.08676">
        <ele>24</ele>
        <time>2025-07-23T09:05:38Z</time>
      </trkpt>
      <trkpt lat="43.54065" lon="-1.08705">
        <ele>24.2</ele>
        <time>2025-07-23T09:05:42Z</time>
      </trkpt>
      <trkpt lat="43.54072" lon="-1.08724">
        <ele>24.6</ele>
        <time>2025-07-23T09:05:45Z</time>
      </trkpt>
      <trkpt lat="43.54073" lon="-1.0873">
        <ele>24.8</ele>
        <time>2025-07-23T09:05:46Z</time>
      </trkpt>
      <trkpt lat="43.54085" lon="-1.08768">
        <ele>25.6</ele>
        <time>2025-07-23T09:05:52Z</time>
      </trkpt>
      <trkpt lat="43.54093" lon="-1.08793">
        <ele>26</ele>
        <time>2025-07-23T09:05:56Z</time>
      </trkpt>
      <trkpt lat="43.54102" lon="-1.0882">
        <ele>26.4</ele>
        <time>2025-07-23T09:06:00Z</time>
      </trkpt>
      <trkpt lat="43.54124" lon="-1.08883">
        <ele>26.6</ele>
        <time>2025-07-23T09:06:09Z</time>
      </trkpt>
      <trkpt lat="43.54142" lon="-1.08937">
        <ele>26</ele>
        <time>2025-07-23T09:06:16Z</time>
      </trkpt>
      <trkpt lat="43.5416" lon="-1.09">
        <ele>25</ele>
        <time>2025-07-23T09:06:23Z</time>
      </trkpt>
      <trkpt lat="43.54162" lon="-1.0901">
        <ele>24.8</ele>
        <time>2025-07-23T09:06:24Z</time>
      </trkpt>
      <trkpt lat="43.54171" lon="-1.09066">
        <ele>24</ele>
        <time>2025-07-23T09:06:30Z</time>
      </trkpt>
      <trkpt lat="43.54173" lon="-1.09075">
        <ele>23.8</ele>
        <time>2025-07-23T09:06:31Z</time>
      </trkpt>
      <trkpt lat="43.54176" lon="-1.09116">
        <ele>23.2</ele>
        <time>2025-07-23T09:06:35Z</time>
      </trkpt>
      <trkpt lat="43.54176" lon="-1.09159">
        <ele>22.8</ele>
        <time>2025-07-23T09:06:39Z</time>
      </trkpt>
      <trkpt lat="43.54176" lon="-1.09198">
        <ele>22.6</ele>
        <time>2025-07-23T09:06:43Z</time>
      </trkpt>
      <trkpt lat="43.54178" lon="-1.09274">
        <ele>22.4</ele>
        <time>2025-07-23T09:06:51Z</time>
      </trkpt>
      <trkpt lat="43.54179" lon="-1.09355">
        <ele>22.2</ele>
        <time>2025-07-23T09:07:00Z</time>
      </trkpt>
      <trkpt lat="43.54179" lon="-1.09365">
        <ele>22.2</ele>
        <time>2025-07-23T09:07:01Z</time>
      </trkpt>
      <trkpt lat="43.54185" lon="-1.09444">
        <ele>22.4</ele>
        <time>2025-07-23T09:07:10Z</time>
      </trkpt>
      <trkpt lat="43.54192" lon="-1.09469">
        <ele>22.6</ele>
        <time>2025-07-23T09:07:13Z</time>
      </trkpt>
      <trkpt lat="43.54199" lon="-1.09486">
        <ele>22.6</ele>
        <time>2025-07-23T09:07:15Z</time>
      </trkpt>
      <trkpt lat="43.54223" lon="-1.09541">
        <ele>22.6</ele>
        <time>2025-07-23T09:07:22Z</time>
      </trkpt>
      <trkpt lat="43.54229" lon="-1.09556">
        <ele>22.6</ele>
        <time>2025-07-23T09:07:24Z</time>
      </trkpt>
      <trkpt lat="43.54235" lon="-1.0957">
        <ele>22.6</ele>
        <time>2025-07-23T09:07:26Z</time>
      </trkpt>
      <trkpt lat="43.54248" lon="-1.09601">
        <ele>22.6</ele>
        <time>2025-07-23T09:07:31Z</time>
      </trkpt>
      <trkpt lat="43.54256" lon="-1.09618">
        <ele>22.2</ele>
        <time>2025-07-23T09:07:36Z</time>
      </trkpt>
      <trkpt lat="43.54257" lon="-1.0962">
        <ele>22</ele>
        <time>2025-07-23T09:07:40Z</time>
      </trkpt>
      <trkpt lat="43.54258" lon="-1.09621">
        <ele>21.8</ele>
        <time>2025-07-23T09:07:44Z</time>
      </trkpt>
      <trkpt lat="43.54259" lon="-1.09625">
        <ele>21.4</ele>
        <time>2025-07-23T09:13:40Z</time>
      </trkpt>
      <trkpt lat="43.5426" lon="-1.09629">
        <ele>21.4</ele>
        <time>2025-07-23T09:13:41Z</time>
      </trkpt>
      <trkpt lat="43.54267" lon="-1.09657">
        <ele>21.4</ele>
        <time>2025-07-23T09:13:48Z</time>
      </trkpt>
      <trkpt lat="43.54273" lon="-1.09682">
        <ele>21.6</ele>
        <time>2025-07-23T09:13:53Z</time>
      </trkpt>
      <trkpt lat="43.54281" lon="-1.09718">
        <ele>21.6</ele>
        <time>2025-07-23T09:13:59Z</time>
      </trkpt>
      <trkpt lat="43.54295" lon="-1.09782">
        <ele>21.8</ele>
        <time>2025-07-23T09:14:10Z</time>
      </trkpt>
      <trkpt lat="43.54308" lon="-1.09826">
        <ele>22.2</ele>
        <time>2025-07-23T09:14:19Z</time>
      </trkpt>
      <trkpt lat="43.54311" lon="-1.09834">
        <ele>22.4</ele>
        <time>2025-07-23T09:14:22Z</time>
      </trkpt>
      <trkpt lat="43.54314" lon="-1.09838">
        <ele>22.4</ele>
        <time>2025-07-23T09:14:24Z</time>
      </trkpt>
      <trkpt lat="43.54315" lon="-1.09841">
        <ele>22.6</ele>
        <time>2025-07-23T09:14:29Z</time>
      </trkpt>
      <trkpt lat="43.54317" lon="-1.0984">
        <ele>22.8</ele>
        <time>2025-07-23T09:14:58Z</time>
      </trkpt>
      <trkpt lat="43.54322" lon="-1.09836">
        <ele>22.8</ele>
        <time>2025-07-23T09:15:00Z</time>
      </trkpt>
      <trkpt lat="43.54346" lon="-1.09821">
        <ele>23</ele>
        <time>2025-07-23T09:15:07Z</time>
      </trkpt>
      <trkpt lat="43.54374" lon="-1.09803">
        <ele>23</ele>
        <time>2025-07-23T09:15:13Z</time>
      </trkpt>
      <trkpt lat="43.54408" lon="-1.09781">
        <ele>23.2</ele>
        <time>2025-07-23T09:15:20Z</time>
      </trkpt>
      <trkpt lat="43.54438" lon="-1.09765">
        <ele>23.4</ele>
        <time>2025-07-23T09:15:26Z</time>
      </trkpt>
      <trkpt lat="43.54447" lon="-1.0976">
        <ele>23.6</ele>
        <time>2025-07-23T09:15:28Z</time>
      </trkpt>
      <trkpt lat="43.5448" lon="-1.09741">
        <ele>24.4</ele>
        <time>2025-07-23T09:15:36Z</time>
      </trkpt>
      <trkpt lat="43.54484" lon="-1.09739">
        <ele>24.4</ele>
        <time>2025-07-23T09:15:37Z</time>
      </trkpt>
      <trkpt lat="43.54497" lon="-1.09732">
        <ele>25.2</ele>
        <time>2025-07-23T09:15:41Z</time>
      </trkpt>
      <trkpt lat="43.54502" lon="-1.0973">
        <ele>25.6</ele>
        <time>2025-07-23T09:15:43Z</time>
      </trkpt>
      <trkpt lat="43.54506" lon="-1.09728">
        <ele>25.8</ele>
        <time>2025-07-23T09:15:46Z</time>
      </trkpt>
      <trkpt lat="43.54507" lon="-1.09728">
        <ele>26</ele>
        <time>2025-07-23T09:15:48Z</time>
      </trkpt>
      <trkpt lat="43.54512" lon="-1.09729">
        <ele>26.2</ele>
        <time>2025-07-23T09:16:36Z</time>
      </trkpt>
      <trkpt lat="43.54514" lon="-1.0973">
        <ele>26.2</ele>
        <time>2025-07-23T09:16:37Z</time>
      </trkpt>
      <trkpt lat="43.54521" lon="-1.09744">
        <ele>26.4</ele>
        <time>2025-07-23T09:16:41Z</time>
      </trkpt>
      <trkpt lat="43.54522" lon="-1.09753">
        <ele>26.6</ele>
        <time>2025-07-23T09:16:43Z</time>
      </trkpt>
      <trkpt lat="43.54524" lon="-1.09781">
        <ele>26.6</ele>
        <time>2025-07-23T09:16:48Z</time>
      </trkpt>
      <trkpt lat="43.54529" lon="-1.09811">
        <ele>26.4</ele>
        <time>2025-07-23T09:16:53Z</time>
      </trkpt>
      <trkpt lat="43.54531" lon="-1.09837">
        <ele>26.2</ele>
        <time>2025-07-23T09:16:57Z</time>
      </trkpt>
      <trkpt lat="43.5453" lon="-1.0985">
        <ele>26</ele>
        <time>2025-07-23T09:16:59Z</time>
      </trkpt>
      <trkpt lat="43.54519" lon="-1.09887">
        <ele>25.8</ele>
        <time>2025-07-23T09:17:05Z</time>
      </trkpt>
      <trkpt lat="43.54517" lon="-1.09893">
        <ele>25.8</ele>
        <time>2025-07-23T09:17:06Z</time>
      </trkpt>
      <trkpt lat="43.54505" lon="-1.09923">
        <ele>25.6</ele>
        <time>2025-07-23T09:17:11Z</time>
      </trkpt>
      <trkpt lat="43.54501" lon="-1.09935">
        <ele>25.6</ele>
        <time>2025-07-23T09:17:13Z</time>
      </trkpt>
      <trkpt lat="43.54498" lon="-1.09947">
        <ele>25.6</ele>
        <time>2025-07-23T09:17:15Z</time>
      </trkpt>
      <trkpt lat="43.54498" lon="-1.09954">
        <ele>25.6</ele>
        <time>2025-07-23T09:17:16Z</time>
      </trkpt>
      <trkpt lat="43.54495" lon="-1.09971">
        <ele>25.4</ele>
        <time>2025-07-23T09:17:21Z</time>
      </trkpt>
      <trkpt lat="43.54495" lon="-1.09971">
        <ele>25.4</ele>
        <time>2025-07-23T09:17:24Z</time>
      </trkpt>
      <trkpt lat="43.54498" lon="-1.09963">
        <ele>23.4</ele>
        <time>2025-07-23T09:31:56Z</time>
      </trkpt>
      <trkpt lat="43.54499" lon="-1.09961">
        <ele>23.4</ele>
        <time>2025-07-23T09:31:57Z</time>
      </trkpt>
      <trkpt lat="43.54503" lon="-1.09936">
        <ele>23.4</ele>
        <time>2025-07-23T09:32:04Z</time>
      </trkpt>
      <trkpt lat="43.54511" lon="-1.09909">
        <ele>23.8</ele>
        <time>2025-07-23T09:32:11Z</time>
      </trkpt>
      <trkpt lat="43.54521" lon="-1.09883">
        <ele>24</ele>
        <time>2025-07-23T09:32:17Z</time>
      </trkpt>
      <trkpt lat="43.54531" lon="-1.09849">
        <ele>23.8</ele>
        <time>2025-07-23T09:32:24Z</time>
      </trkpt>
      <trkpt lat="43.5453" lon="-1.09821">
        <ele>23.8</ele>
        <time>2025-07-23T09:32:30Z</time>
      </trkpt>
      <trkpt lat="43.54524" lon="-1.09796">
        <ele>24</ele>
        <time>2025-07-23T09:32:36Z</time>
      </trkpt>
      <trkpt lat="43.54519" lon="-1.0977">
        <ele>24.4</ele>
        <time>2025-07-23T09:32:43Z</time>
      </trkpt>
      <trkpt lat="43.54519" lon="-1.09767">
        <ele>24.6</ele>
        <time>2025-07-23T09:32:44Z</time>
      </trkpt>
      <trkpt lat="43.5452" lon="-1.09765">
        <ele>24.6</ele>
        <time>2025-07-23T09:32:45Z</time>
      </trkpt>
      <trkpt lat="43.54522" lon="-1.09761">
        <ele>24.6</ele>
        <time>2025-07-23T09:32:47Z</time>
      </trkpt>
      <trkpt lat="43.54523" lon="-1.09758">
        <ele>24.6</ele>
        <time>2025-07-23T09:32:48Z</time>
      </trkpt>
      <trkpt lat="43.54522" lon="-1.09749">
        <ele>24.8</ele>
        <time>2025-07-23T09:32:51Z</time>
      </trkpt>
      <trkpt lat="43.54524" lon="-1.09744">
        <ele>24.8</ele>
        <time>2025-07-23T09:32:53Z</time>
      </trkpt>
      <trkpt lat="43.54526" lon="-1.09738">
        <ele>24.8</ele>
        <time>2025-07-23T09:32:56Z</time>
      </trkpt>
      <trkpt lat="43.54528" lon="-1.0973">
        <ele>24.8</ele>
        <time>2025-07-23T09:32:59Z</time>
      </trkpt>
      <trkpt lat="43.54531" lon="-1.0972">
        <ele>24.8</ele>
        <time>2025-07-23T09:33:05Z</time>
      </trkpt>
      <trkpt lat="43.54541" lon="-1.09714">
        <ele>24.8</ele>
        <time>2025-07-23T09:33:13Z</time>
      </trkpt>
      <trkpt lat="43.54544" lon="-1.0971">
        <ele>24.8</ele>
        <time>2025-07-23T09:33:18Z</time>
      </trkpt>
      <trkpt lat="43.54552" lon="-1.097">
        <ele>24.8</ele>
        <time>2025-07-23T09:33:34Z</time>
      </trkpt>
      <trkpt lat="43.54562" lon="-1.09687">
        <ele>25</ele>
        <time>2025-07-23T09:33:39Z</time>
      </trkpt>
      <trkpt lat="43.54584" lon="-1.09672">
        <ele>25.2</ele>
        <time>2025-07-23T09:33:45Z</time>
      </trkpt>
      <trkpt lat="43.54597" lon="-1.09664">
        <ele>25.4</ele>
        <time>2025-07-23T09:33:48Z</time>
      </trkpt>
      <trkpt lat="43.54623" lon="-1.09647">
        <ele>26.2</ele>
        <time>2025-07-23T09:33:54Z</time>
      </trkpt>
      <trkpt lat="43.54634" lon="-1.0964">
        <ele>26.6</ele>
        <time>2025-07-23T09:33:57Z</time>
      </trkpt>
      <trkpt lat="43.54649" lon="-1.0963">
        <ele>27</ele>
        <time>2025-07-23T09:34:01Z</time>
      </trkpt>
      <trkpt lat="43.54665" lon="-1.09619">
        <ele>27.6</ele>
        <time>2025-07-23T09:34:05Z</time>
      </trkpt>
      <trkpt lat="43.54689" lon="-1.09603">
        <ele>28.2</ele>
        <time>2025-07-23T09:34:11Z</time>
      </trkpt>
      <trkpt lat="43.547" lon="-1.09596">
        <ele>28.6</ele>
        <time>2025-07-23T09:34:14Z</time>
      </trkpt>
      <trkpt lat="43.5472" lon="-1.09583">
        <ele>29.2</ele>
        <time>2025-07-23T09:34:19Z</time>
      </trkpt>
      <trkpt lat="43.5474" lon="-1.0957">
        <ele>29.8</ele>
        <time>2025-07-23T09:34:24Z</time>
      </trkpt>
      <trkpt lat="43.54759" lon="-1.09558">
        <ele>30.4</ele>
        <time>2025-07-23T09:34:29Z</time>
      </trkpt>
      <trkpt lat="43.54777" lon="-1.09547">
        <ele>30.8</ele>
        <time>2025-07-23T09:34:34Z</time>
      </trkpt>
      <trkpt lat="43.54781" lon="-1.09544">
        <ele>31</ele>
        <time>2025-07-23T09:34:35Z</time>
      </trkpt>
      <trkpt lat="43.54814" lon="-1.09522">
        <ele>32</ele>
        <time>2025-07-23T09:34:43Z</time>
      </trkpt>
      <trkpt lat="43.54822" lon="-1.09517">
        <ele>32.2</ele>
        <time>2025-07-23T09:34:45Z</time>
      </trkpt>
      <trkpt lat="43.54851" lon="-1.09499">
        <ele>33</ele>
        <time>2025-07-23T09:34:53Z</time>
      </trkpt>
      <trkpt lat="43.54863" lon="-1.09491">
        <ele>33.4</ele>
        <time>2025-07-23T09:34:56Z</time>
      </trkpt>
      <trkpt lat="43.54879" lon="-1.09481">
        <ele>33.8</ele>
        <time>2025-07-23T09:34:59Z</time>
      </trkpt>
      <trkpt lat="43.54887" lon="-1.09475">
        <ele>34</ele>
        <time>2025-07-23T09:35:01Z</time>
      </trkpt>
      <trkpt lat="43.54891" lon="-1.09473">
        <ele>34</ele>
        <time>2025-07-23T09:35:02Z</time>
      </trkpt>
      <trkpt lat="43.54895" lon="-1.0947">
        <ele>34.2</ele>
        <time>2025-07-23T09:35:03Z</time>
      </trkpt>
      <trkpt lat="43.54925" lon="-1.09451">
        <ele>35.2</ele>
        <time>2025-07-23T09:35:11Z</time>
      </trkpt>
      <trkpt lat="43.54928" lon="-1.09449">
        <ele>35.4</ele>
        <time>2025-07-23T09:35:12Z</time>
      </trkpt>
      <trkpt lat="43.54932" lon="-1.09447">
        <ele>35.6</ele>
        <time>2025-07-23T09:35:13Z</time>
      </trkpt>
      <trkpt lat="43.54948" lon="-1.09437">
        <ele>36.4</ele>
        <time>2025-07-23T09:35:18Z</time>
      </trkpt>
      <trkpt lat="43.54961" lon="-1.09429">
        <ele>37</ele>
        <time>2025-07-23T09:35:22Z</time>
      </trkpt>
      <trkpt lat="43.54967" lon="-1.09425">
        <ele>37.4</ele>
        <time>2025-07-23T09:35:25Z</time>
      </trkpt>
      <trkpt lat="43.54983" lon="-1.09413">
        <ele>38.6</ele>
        <time>2025-07-23T09:35:30Z</time>
      </trkpt>
      <trkpt lat="43.54986" lon="-1.09411">
        <ele>38.6</ele>
        <time>2025-07-23T09:35:31Z</time>
      </trkpt>
      <trkpt lat="43.55002" lon="-1.09402">
        <ele>39.6</ele>
        <time>2025-07-23T09:35:37Z</time>
      </trkpt>
      <trkpt lat="43.55008" lon="-1.09399">
        <ele>40</ele>
        <time>2025-07-23T09:35:39Z</time>
      </trkpt>
      <trkpt lat="43.55021" lon="-1.0939">
        <ele>40.6</ele>
        <time>2025-07-23T09:35:43Z</time>
      </trkpt>
      <trkpt lat="43.55033" lon="-1.09382">
        <ele>41.2</ele>
        <time>2025-07-23T09:35:47Z</time>
      </trkpt>
      <trkpt lat="43.55039" lon="-1.09377">
        <ele>41.8</ele>
        <time>2025-07-23T09:35:49Z</time>
      </trkpt>
      <trkpt lat="43.55048" lon="-1.09371">
        <ele>43.2</ele>
        <time>2025-07-23T09:35:52Z</time>
      </trkpt>
      <trkpt lat="43.55054" lon="-1.09367">
        <ele>44</ele>
        <time>2025-07-23T09:35:54Z</time>
      </trkpt>
      <trkpt lat="43.5506" lon="-1.09363">
        <ele>44.2</ele>
        <time>2025-07-23T09:35:56Z</time>
      </trkpt>
      <trkpt lat="43.55075" lon="-1.09353">
        <ele>45.2</ele>
        <time>2025-07-23T09:36:02Z</time>
      </trkpt>
      <trkpt lat="43.55102" lon="-1.09338">
        <ele>46.2</ele>
        <time>2025-07-23T09:36:10Z</time>
      </trkpt>
      <trkpt lat="43.55104" lon="-1.09336">
        <ele>46.6</ele>
        <time>2025-07-23T09:36:11Z</time>
      </trkpt>
      <trkpt lat="43.55117" lon="-1.09322">
        <ele>47.4</ele>
        <time>2025-07-23T09:36:17Z</time>
      </trkpt>
      <trkpt lat="43.55124" lon="-1.09297">
        <ele>48.4</ele>
        <time>2025-07-23T09:36:23Z</time>
      </trkpt>
      <trkpt lat="43.55125" lon="-1.09285">
        <ele>48.6</ele>
        <time>2025-07-23T09:36:25Z</time>
      </trkpt>
      <trkpt lat="43.55124" lon="-1.09267">
        <ele>49.8</ele>
        <time>2025-07-23T09:36:29Z</time>
      </trkpt>
      <trkpt lat="43.55123" lon="-1.09258">
        <ele>50</ele>
        <time>2025-07-23T09:36:31Z</time>
      </trkpt>
      <trkpt lat="43.55122" lon="-1.09248">
        <ele>50.8</ele>
        <time>2025-07-23T09:36:34Z</time>
      </trkpt>
      <trkpt lat="43.55117" lon="-1.09222">
        <ele>51.8</ele>
        <time>2025-07-23T09:36:39Z</time>
      </trkpt>
      <trkpt lat="43.55117" lon="-1.09218">
        <ele>52</ele>
        <time>2025-07-23T09:36:40Z</time>
      </trkpt>
      <trkpt lat="43.55115" lon="-1.09198">
        <ele>52.8</ele>
        <time>2025-07-23T09:36:45Z</time>
      </trkpt>
      <trkpt lat="43.55113" lon="-1.09182">
        <ele>53.6</ele>
        <time>2025-07-23T09:36:49Z</time>
      </trkpt>
      <trkpt lat="43.55112" lon="-1.09175">
        <ele>54</ele>
        <time>2025-07-23T09:36:51Z</time>
      </trkpt>
      <trkpt lat="43.55109" lon="-1.0915">
        <ele>55.4</ele>
        <time>2025-07-23T09:36:57Z</time>
      </trkpt>
      <trkpt lat="43.55109" lon="-1.09143">
        <ele>55.8</ele>
        <time>2025-07-23T09:36:59Z</time>
      </trkpt>
      <trkpt lat="43.55107" lon="-1.09131">
        <ele>56.4</ele>
        <time>2025-07-23T09:37:02Z</time>
      </trkpt>
      <trkpt lat="43.55105" lon="-1.09106">
        <ele>57.4</ele>
        <time>2025-07-23T09:37:08Z</time>
      </trkpt>
      <trkpt lat="43.55105" lon="-1.09106">
        <ele>57.8</ele>
        <time>2025-07-23T09:37:09Z</time>
      </trkpt>
      <trkpt lat="43.55105" lon="-1.09084">
        <ele>58.6</ele>
        <time>2025-07-23T09:37:13Z</time>
      </trkpt>
      <trkpt lat="43.55109" lon="-1.09071">
        <ele>59</ele>
        <time>2025-07-23T09:37:16Z</time>
      </trkpt>
      <trkpt lat="43.55115" lon="-1.09061">
        <ele>59.6</ele>
        <time>2025-07-23T09:37:19Z</time>
      </trkpt>
      <trkpt lat="43.5512" lon="-1.09057">
        <ele>60</ele>
        <time>2025-07-23T09:37:21Z</time>
      </trkpt>
      <trkpt lat="43.55128" lon="-1.09052">
        <ele>60.6</ele>
        <time>2025-07-23T09:37:24Z</time>
      </trkpt>
      <trkpt lat="43.55136" lon="-1.09051">
        <ele>61.4</ele>
        <time>2025-07-23T09:37:27Z</time>
      </trkpt>
      <trkpt lat="43.55144" lon="-1.09053">
        <ele>62</ele>
        <time>2025-07-23T09:37:30Z</time>
      </trkpt>
      <trkpt lat="43.55156" lon="-1.09057">
        <ele>62.8</ele>
        <time>2025-07-23T09:37:34Z</time>
      </trkpt>
      <trkpt lat="43.55158" lon="-1.09058">
        <ele>63.2</ele>
        <time>2025-07-23T09:37:35Z</time>
      </trkpt>
      <trkpt lat="43.55172" lon="-1.09068">
        <ele>64.2</ele>
        <time>2025-07-23T09:37:40Z</time>
      </trkpt>
      <trkpt lat="43.55174" lon="-1.09069">
        <ele>64.4</ele>
        <time>2025-07-23T09:37:41Z</time>
      </trkpt>
      <trkpt lat="43.55185" lon="-1.09079">
        <ele>65.2</ele>
        <time>2025-07-23T09:37:45Z</time>
      </trkpt>
      <trkpt lat="43.55198" lon="-1.0909">
        <ele>66</ele>
        <time>2025-07-23T09:37:50Z</time>
      </trkpt>
      <trkpt lat="43.55201" lon="-1.09093">
        <ele>66.4</ele>
        <time>2025-07-23T09:37:51Z</time>
      </trkpt>
      <trkpt lat="43.55217" lon="-1.09106">
        <ele>67.4</ele>
        <time>2025-07-23T09:37:57Z</time>
      </trkpt>
      <trkpt lat="43.5522" lon="-1.09108">
        <ele>67.6</ele>
        <time>2025-07-23T09:37:58Z</time>
      </trkpt>
      <trkpt lat="43.55233" lon="-1.09118">
        <ele>68.6</ele>
        <time>2025-07-23T09:38:03Z</time>
      </trkpt>
      <trkpt lat="43.55246" lon="-1.09129">
        <ele>69.4</ele>
        <time>2025-07-23T09:38:08Z</time>
      </trkpt>
      <trkpt lat="43.55249" lon="-1.09132">
        <ele>69.6</ele>
        <time>2025-07-23T09:38:09Z</time>
      </trkpt>
      <trkpt lat="43.55266" lon="-1.09146">
        <ele>70.6</ele>
        <time>2025-07-23T09:38:15Z</time>
      </trkpt>
      <trkpt lat="43.55269" lon="-1.09148">
        <ele>70.8</ele>
        <time>2025-07-23T09:38:16Z</time>
      </trkpt>
      <trkpt lat="43.55294" lon="-1.09169">
        <ele>71.6</ele>
        <time>2025-07-23T09:38:24Z</time>
      </trkpt>
      <trkpt lat="43.55304" lon="-1.09177">
        <ele>71.8</ele>
        <time>2025-07-23T09:38:27Z</time>
      </trkpt>
      <trkpt lat="43.55322" lon="-1.09192">
        <ele>71.8</ele>
        <time>2025-07-23T09:38:32Z</time>
      </trkpt>
      <trkpt lat="43.5535" lon="-1.09215">
        <ele>71.8</ele>
        <time>2025-07-23T09:38:39Z</time>
      </trkpt>
      <trkpt lat="43.55386" lon="-1.09244">
        <ele>71.4</ele>
        <time>2025-07-23T09:38:47Z</time>
      </trkpt>
      <trkpt lat="43.5543" lon="-1.0928">
        <ele>71.4</ele>
        <time>2025-07-23T09:38:56Z</time>
      </trkpt>
      <trkpt lat="43.55467" lon="-1.09306">
        <ele>71.2</ele>
        <time>2025-07-23T09:39:03Z</time>
      </trkpt>
      <trkpt lat="43.55473" lon="-1.09307">
        <ele>71.2</ele>
        <time>2025-07-23T09:39:04Z</time>
      </trkpt>
      <trkpt lat="43.55511" lon="-1.09311">
        <ele>71.2</ele>
        <time>2025-07-23T09:39:11Z</time>
      </trkpt>
      <trkpt lat="43.55565" lon="-1.09312">
        <ele>72</ele>
        <time>2025-07-23T09:39:21Z</time>
      </trkpt>
      <trkpt lat="43.55601" lon="-1.09313">
        <ele>72.8</ele>
        <time>2025-07-23T09:39:28Z</time>
      </trkpt>
      <trkpt lat="43.55606" lon="-1.09314">
        <ele>73</ele>
        <time>2025-07-23T09:39:29Z</time>
      </trkpt>
      <trkpt lat="43.55642" lon="-1.09314">
        <ele>73.8</ele>
        <time>2025-07-23T09:39:36Z</time>
      </trkpt>
      <trkpt lat="43.55648" lon="-1.09315">
        <ele>74</ele>
        <time>2025-07-23T09:39:37Z</time>
      </trkpt>
      <trkpt lat="43.55689" lon="-1.09309">
        <ele>75</ele>
        <time>2025-07-23T09:39:45Z</time>
      </trkpt>
      <trkpt lat="43.55725" lon="-1.09293">
        <ele>76</ele>
        <time>2025-07-23T09:39:53Z</time>
      </trkpt>
      <trkpt lat="43.55758" lon="-1.09275">
        <ele>77.2</ele>
        <time>2025-07-23T09:40:01Z</time>
      </trkpt>
      <trkpt lat="43.55766" lon="-1.09272">
        <ele>77.4</ele>
        <time>2025-07-23T09:40:03Z</time>
      </trkpt>
      <trkpt lat="43.55792" lon="-1.0926">
        <ele>78.2</ele>
        <time>2025-07-23T09:40:09Z</time>
      </trkpt>
      <trkpt lat="43.55813" lon="-1.0925">
        <ele>79</ele>
        <time>2025-07-23T09:40:14Z</time>
      </trkpt>
      <trkpt lat="43.55821" lon="-1.09245">
        <ele>79.2</ele>
        <time>2025-07-23T09:40:16Z</time>
      </trkpt>
      <trkpt lat="43.5586" lon="-1.09217">
        <ele>80.2</ele>
        <time>2025-07-23T09:40:25Z</time>
      </trkpt>
      <trkpt lat="43.55864" lon="-1.09213">
        <ele>80.2</ele>
        <time>2025-07-23T09:40:26Z</time>
      </trkpt>
      <trkpt lat="43.55893" lon="-1.09184">
        <ele>81</ele>
        <time>2025-07-23T09:40:33Z</time>
      </trkpt>
      <trkpt lat="43.55906" lon="-1.09171">
        <ele>81.4</ele>
        <time>2025-07-23T09:40:36Z</time>
      </trkpt>
      <trkpt lat="43.55928" lon="-1.0915">
        <ele>81.6</ele>
        <time>2025-07-23T09:40:41Z</time>
      </trkpt>
      <trkpt lat="43.55961" lon="-1.09118">
        <ele>82.6</ele>
        <time>2025-07-23T09:40:49Z</time>
      </trkpt>
      <trkpt lat="43.56007" lon="-1.09074">
        <ele>83.4</ele>
        <time>2025-07-23T09:41:00Z</time>
      </trkpt>
      <trkpt lat="43.56016" lon="-1.09065">
        <ele>83.6</ele>
        <time>2025-07-23T09:41:02Z</time>
      </trkpt>
      <trkpt lat="43.5602" lon="-1.09061">
        <ele>83.8</ele>
        <time>2025-07-23T09:41:03Z</time>
      </trkpt>
      <trkpt lat="43.56056" lon="-1.09026">
        <ele>84</ele>
        <time>2025-07-23T09:41:11Z</time>
      </trkpt>
      <trkpt lat="43.56096" lon="-1.08979">
        <ele>84.2</ele>
        <time>2025-07-23T09:41:20Z</time>
      </trkpt>
      <trkpt lat="43.56135" lon="-1.08931">
        <ele>84.8</ele>
        <time>2025-07-23T09:41:29Z</time>
      </trkpt>
      <trkpt lat="43.5614" lon="-1.08926">
        <ele>84.8</ele>
        <time>2025-07-23T09:41:30Z</time>
      </trkpt>
      <trkpt lat="43.56173" lon="-1.08885">
        <ele>85.4</ele>
        <time>2025-07-23T09:41:38Z</time>
      </trkpt>
      <trkpt lat="43.56196" lon="-1.08859">
        <ele>85.8</ele>
        <time>2025-07-23T09:41:43Z</time>
      </trkpt>
      <trkpt lat="43.56213" lon="-1.08837">
        <ele>86</ele>
        <time>2025-07-23T09:41:47Z</time>
      </trkpt>
      <trkpt lat="43.5625" lon="-1.08793">
        <ele>87</ele>
        <time>2025-07-23T09:41:56Z</time>
      </trkpt>
      <trkpt lat="43.56283" lon="-1.08751">
        <ele>87.8</ele>
        <time>2025-07-23T09:42:04Z</time>
      </trkpt>
      <trkpt lat="43.56295" lon="-1.08736">
        <ele>88</ele>
        <time>2025-07-23T09:42:07Z</time>
      </trkpt>
      <trkpt lat="43.56324" lon="-1.08701">
        <ele>88.4</ele>
        <time>2025-07-23T09:42:14Z</time>
      </trkpt>
      <trkpt lat="43.56354" lon="-1.08664">
        <ele>89</ele>
        <time>2025-07-23T09:42:22Z</time>
      </trkpt>
      <trkpt lat="43.56357" lon="-1.08659">
        <ele>89.2</ele>
        <time>2025-07-23T09:42:23Z</time>
      </trkpt>
      <trkpt lat="43.5637" lon="-1.08626">
        <ele>90</ele>
        <time>2025-07-23T09:42:29Z</time>
      </trkpt>
      <trkpt lat="43.56373" lon="-1.08615">
        <ele>90.2</ele>
        <time>2025-07-23T09:42:31Z</time>
      </trkpt>
      <trkpt lat="43.56377" lon="-1.08586">
        <ele>91</ele>
        <time>2025-07-23T09:42:36Z</time>
      </trkpt>
      <trkpt lat="43.56378" lon="-1.08575">
        <ele>91.4</ele>
        <time>2025-07-23T09:42:38Z</time>
      </trkpt>
      <trkpt lat="43.56382" lon="-1.08547">
        <ele>92.6</ele>
        <time>2025-07-23T09:42:43Z</time>
      </trkpt>
      <trkpt lat="43.56384" lon="-1.0853">
        <ele>93.4</ele>
        <time>2025-07-23T09:42:46Z</time>
      </trkpt>
      <trkpt lat="43.56385" lon="-1.0852">
        <ele>93.6</ele>
        <time>2025-07-23T09:42:48Z</time>
      </trkpt>
      <trkpt lat="43.5639" lon="-1.08481">
        <ele>94.8</ele>
        <time>2025-07-23T09:42:55Z</time>
      </trkpt>
      <trkpt lat="43.56394" lon="-1.08443">
        <ele>96</ele>
        <time>2025-07-23T09:43:02Z</time>
      </trkpt>
      <trkpt lat="43.56397" lon="-1.08428">
        <ele>96.6</ele>
        <time>2025-07-23T09:43:05Z</time>
      </trkpt>
      <trkpt lat="43.56401" lon="-1.08409">
        <ele>97.4</ele>
        <time>2025-07-23T09:43:09Z</time>
      </trkpt>
      <trkpt lat="43.56408" lon="-1.08394">
        <ele>98</ele>
        <time>2025-07-23T09:43:12Z</time>
      </trkpt>
      <trkpt lat="43.56413" lon="-1.08387">
        <ele>98.4</ele>
        <time>2025-07-23T09:43:14Z</time>
      </trkpt>
      <trkpt lat="43.56424" lon="-1.08379">
        <ele>98.8</ele>
        <time>2025-07-23T09:43:17Z</time>
      </trkpt>
      <trkpt lat="43.56443" lon="-1.08374">
        <ele>99.4</ele>
        <time>2025-07-23T09:43:22Z</time>
      </trkpt>
      <trkpt lat="43.56451" lon="-1.08375">
        <ele>99.6</ele>
        <time>2025-07-23T09:43:24Z</time>
      </trkpt>
      <trkpt lat="43.56476" lon="-1.08376">
        <ele>100.4</ele>
        <time>2025-07-23T09:43:30Z</time>
      </trkpt>
      <trkpt lat="43.56488" lon="-1.08379">
        <ele>100.6</ele>
        <time>2025-07-23T09:43:33Z</time>
      </trkpt>
      <trkpt lat="43.56501" lon="-1.08378">
        <ele>101.2</ele>
        <time>2025-07-23T09:43:36Z</time>
      </trkpt>
      <trkpt lat="43.56516" lon="-1.08378">
        <ele>102</ele>
        <time>2025-07-23T09:43:40Z</time>
      </trkpt>
      <trkpt lat="43.56542" lon="-1.08375">
        <ele>102.8</ele>
        <time>2025-07-23T09:43:47Z</time>
      </trkpt>
      <trkpt lat="43.56545" lon="-1.08374">
        <ele>103.2</ele>
        <time>2025-07-23T09:43:48Z</time>
      </trkpt>
      <trkpt lat="43.56568" lon="-1.08368">
        <ele>104.2</ele>
        <time>2025-07-23T09:43:54Z</time>
      </trkpt>
      <trkpt lat="43.56588" lon="-1.08359">
        <ele>105.2</ele>
        <time>2025-07-23T09:44:00Z</time>
      </trkpt>
      <trkpt lat="43.56594" lon="-1.08356">
        <ele>105.4</ele>
        <time>2025-07-23T09:44:01Z</time>
      </trkpt>
      <trkpt lat="43.56614" lon="-1.08344">
        <ele>106.4</ele>
        <time>2025-07-23T09:44:07Z</time>
      </trkpt>
      <trkpt lat="43.56625" lon="-1.08339">
        <ele>106.6</ele>
        <time>2025-07-23T09:44:10Z</time>
      </trkpt>
      <trkpt lat="43.56636" lon="-1.08336">
        <ele>107.2</ele>
        <time>2025-07-23T09:44:13Z</time>
      </trkpt>
      <trkpt lat="43.56647" lon="-1.08337">
        <ele>107.8</ele>
        <time>2025-07-23T09:44:16Z</time>
      </trkpt>
      <trkpt lat="43.56661" lon="-1.08347">
        <ele>108.2</ele>
        <time>2025-07-23T09:44:20Z</time>
      </trkpt>
      <trkpt lat="43.56664" lon="-1.0835">
        <ele>108.4</ele>
        <time>2025-07-23T09:44:21Z</time>
      </trkpt>
      <trkpt lat="43.56678" lon="-1.08372">
        <ele>109.2</ele>
        <time>2025-07-23T09:44:27Z</time>
      </trkpt>
      <trkpt lat="43.56691" lon="-1.08384">
        <ele>110.4</ele>
        <time>2025-07-23T09:44:31Z</time>
      </trkpt>
      <trkpt lat="43.56694" lon="-1.08386">
        <ele>110.4</ele>
        <time>2025-07-23T09:44:32Z</time>
      </trkpt>
      <trkpt lat="43.56711" lon="-1.08381">
        <ele>111.2</ele>
        <time>2025-07-23T09:44:37Z</time>
      </trkpt>
      <trkpt lat="43.56715" lon="-1.08378">
        <ele>111.4</ele>
        <time>2025-07-23T09:44:38Z</time>
      </trkpt>
      <trkpt lat="43.56725" lon="-1.08364">
        <ele>112</ele>
        <time>2025-07-23T09:44:42Z</time>
      </trkpt>
      <trkpt lat="43.56731" lon="-1.08351">
        <ele>112.6</ele>
        <time>2025-07-23T09:44:45Z</time>
      </trkpt>
      <trkpt lat="43.56733" lon="-1.08336">
        <ele>113</ele>
        <time>2025-07-23T09:44:48Z</time>
      </trkpt>
      <trkpt lat="43.56735" lon="-1.08311">
        <ele>113.6</ele>
        <time>2025-07-23T09:44:53Z</time>
      </trkpt>
      <trkpt lat="43.56737" lon="-1.08282">
        <ele>114.6</ele>
        <time>2025-07-23T09:44:59Z</time>
      </trkpt>
      <trkpt lat="43.56742" lon="-1.08248">
        <ele>116</ele>
        <time>2025-07-23T09:45:06Z</time>
      </trkpt>
      <trkpt lat="43.56749" lon="-1.08226">
        <ele>117.2</ele>
        <time>2025-07-23T09:45:11Z</time>
      </trkpt>
      <trkpt lat="43.56758" lon="-1.08208">
        <ele>117.8</ele>
        <time>2025-07-23T09:45:15Z</time>
      </trkpt>
      <trkpt lat="43.56766" lon="-1.08197">
        <ele>118.4</ele>
        <time>2025-07-23T09:45:18Z</time>
      </trkpt>
      <trkpt lat="43.56778" lon="-1.08182">
        <ele>119</ele>
        <time>2025-07-23T09:45:23Z</time>
      </trkpt>
      <trkpt lat="43.56783" lon="-1.08177">
        <ele>119.4</ele>
        <time>2025-07-23T09:45:25Z</time>
      </trkpt>
      <trkpt lat="43.56798" lon="-1.08166">
        <ele>119.8</ele>
        <time>2025-07-23T09:45:29Z</time>
      </trkpt>
      <trkpt lat="43.56805" lon="-1.08162">
        <ele>120.2</ele>
        <time>2025-07-23T09:45:31Z</time>
      </trkpt>
      <trkpt lat="43.56821" lon="-1.08157">
        <ele>120.8</ele>
        <time>2025-07-23T09:45:35Z</time>
      </trkpt>
      <trkpt lat="43.56831" lon="-1.08155">
        <ele>121.4</ele>
        <time>2025-07-23T09:45:38Z</time>
      </trkpt>
      <trkpt lat="43.56849" lon="-1.08152">
        <ele>122.4</ele>
        <time>2025-07-23T09:45:43Z</time>
      </trkpt>
      <trkpt lat="43.56853" lon="-1.08153">
        <ele>122.4</ele>
        <time>2025-07-23T09:45:44Z</time>
      </trkpt>
      <trkpt lat="43.56878" lon="-1.08157">
        <ele>123.6</ele>
        <time>2025-07-23T09:45:51Z</time>
      </trkpt>
      <trkpt lat="43.56882" lon="-1.08158">
        <ele>123.8</ele>
        <time>2025-07-23T09:45:52Z</time>
      </trkpt>
      <trkpt lat="43.56901" lon="-1.08173">
        <ele>124.6</ele>
        <time>2025-07-23T09:45:58Z</time>
      </trkpt>
      <trkpt lat="43.56904" lon="-1.08176">
        <ele>125</ele>
        <time>2025-07-23T09:45:59Z</time>
      </trkpt>
      <trkpt lat="43.56914" lon="-1.08197">
        <ele>125.6</ele>
        <time>2025-07-23T09:46:04Z</time>
      </trkpt>
      <trkpt lat="43.5693" lon="-1.0823">
        <ele>126.6</ele>
        <time>2025-07-23T09:46:12Z</time>
      </trkpt>
      <trkpt lat="43.56933" lon="-1.08233">
        <ele>126.8</ele>
        <time>2025-07-23T09:46:13Z</time>
      </trkpt>
      <trkpt lat="43.56945" lon="-1.08234">
        <ele>127.2</ele>
        <time>2025-07-23T09:46:16Z</time>
      </trkpt>
      <trkpt lat="43.56958" lon="-1.08224">
        <ele>127.8</ele>
        <time>2025-07-23T09:46:20Z</time>
      </trkpt>
      <trkpt lat="43.56962" lon="-1.08219">
        <ele>128</ele>
        <time>2025-07-23T09:46:21Z</time>
      </trkpt>
      <trkpt lat="43.56965" lon="-1.08215">
        <ele>128</ele>
        <time>2025-07-23T09:46:22Z</time>
      </trkpt>
      <trkpt lat="43.56974" lon="-1.082">
        <ele>128.2</ele>
        <time>2025-07-23T09:46:25Z</time>
      </trkpt>
      <trkpt lat="43.56979" lon="-1.08195">
        <ele>128.2</ele>
        <time>2025-07-23T09:46:26Z</time>
      </trkpt>
      <trkpt lat="43.56986" lon="-1.08188">
        <ele>128.2</ele>
        <time>2025-07-23T09:46:28Z</time>
      </trkpt>
      <trkpt lat="43.56991" lon="-1.08183">
        <ele>128.2</ele>
        <time>2025-07-23T09:46:30Z</time>
      </trkpt>
      <trkpt lat="43.57007" lon="-1.08174">
        <ele>128.4</ele>
        <time>2025-07-23T09:46:35Z</time>
      </trkpt>
      <trkpt lat="43.57013" lon="-1.08172">
        <ele>128.4</ele>
        <time>2025-07-23T09:46:36Z</time>
      </trkpt>
      <trkpt lat="43.57024" lon="-1.0817">
        <ele>128.4</ele>
        <time>2025-07-23T09:46:38Z</time>
      </trkpt>
      <trkpt lat="43.57058" lon="-1.08174">
        <ele>128.2</ele>
        <time>2025-07-23T09:46:44Z</time>
      </trkpt>
      <trkpt lat="43.57071" lon="-1.08173">
        <ele>128</ele>
        <time>2025-07-23T09:46:46Z</time>
      </trkpt>
      <trkpt lat="43.57084" lon="-1.08171">
        <ele>127.8</ele>
        <time>2025-07-23T09:46:48Z</time>
      </trkpt>
      <trkpt lat="43.57122" lon="-1.08169">
        <ele>127.6</ele>
        <time>2025-07-23T09:46:54Z</time>
      </trkpt>
      <trkpt lat="43.5715" lon="-1.0817">
        <ele>127.4</ele>
        <time>2025-07-23T09:46:58Z</time>
      </trkpt>
      <trkpt lat="43.57157" lon="-1.0817">
        <ele>127.2</ele>
        <time>2025-07-23T09:46:59Z</time>
      </trkpt>
      <trkpt lat="43.57163" lon="-1.08169">
        <ele>127.2</ele>
        <time>2025-07-23T09:47:00Z</time>
      </trkpt>
      <trkpt lat="43.57184" lon="-1.0816">
        <ele>127.2</ele>
        <time>2025-07-23T09:47:03Z</time>
      </trkpt>
      <trkpt lat="43.572" lon="-1.08146">
        <ele>126.8</ele>
        <time>2025-07-23T09:47:06Z</time>
      </trkpt>
      <trkpt lat="43.57212" lon="-1.08134">
        <ele>126.8</ele>
        <time>2025-07-23T09:47:08Z</time>
      </trkpt>
      <trkpt lat="43.57242" lon="-1.08095">
        <ele>126.4</ele>
        <time>2025-07-23T09:47:14Z</time>
      </trkpt>
      <trkpt lat="43.57251" lon="-1.08084">
        <ele>126.4</ele>
        <time>2025-07-23T09:47:16Z</time>
      </trkpt>
      <trkpt lat="43.57265" lon="-1.08074">
        <ele>126.2</ele>
        <time>2025-07-23T09:47:18Z</time>
      </trkpt>
      <trkpt lat="43.57272" lon="-1.08071">
        <ele>126.2</ele>
        <time>2025-07-23T09:47:19Z</time>
      </trkpt>
      <trkpt lat="43.57278" lon="-1.08071">
        <ele>126.2</ele>
        <time>2025-07-23T09:47:20Z</time>
      </trkpt>
      <trkpt lat="43.57291" lon="-1.08075">
        <ele>126</ele>
        <time>2025-07-23T09:47:22Z</time>
      </trkpt>
      <trkpt lat="43.57324" lon="-1.08097">
        <ele>125.8</ele>
        <time>2025-07-23T09:47:27Z</time>
      </trkpt>
      <trkpt lat="43.57339" lon="-1.08112">
        <ele>125.8</ele>
        <time>2025-07-23T09:47:30Z</time>
      </trkpt>
      <trkpt lat="43.57351" lon="-1.08124">
        <ele>125.6</ele>
        <time>2025-07-23T09:47:32Z</time>
      </trkpt>
      <trkpt lat="43.57357" lon="-1.08129">
        <ele>125.4</ele>
        <time>2025-07-23T09:47:33Z</time>
      </trkpt>
      <trkpt lat="43.57364" lon="-1.08133">
        <ele>125.4</ele>
        <time>2025-07-23T09:47:34Z</time>
      </trkpt>
      <trkpt lat="43.57386" lon="-1.08141">
        <ele>125</ele>
        <time>2025-07-23T09:47:37Z</time>
      </trkpt>
      <trkpt lat="43.574" lon="-1.08145">
        <ele>124.6</ele>
        <time>2025-07-23T09:47:39Z</time>
      </trkpt>
      <trkpt lat="43.57405" lon="-1.08146">
        <ele>124.6</ele>
        <time>2025-07-23T09:47:40Z</time>
      </trkpt>
      <trkpt lat="43.57419" lon="-1.08155">
        <ele>124.4</ele>
        <time>2025-07-23T09:47:42Z</time>
      </trkpt>
      <trkpt lat="43.57428" lon="-1.08167">
        <ele>124.2</ele>
        <time>2025-07-23T09:47:44Z</time>
      </trkpt>
      <trkpt lat="43.5743" lon="-1.08174">
        <ele>124.2</ele>
        <time>2025-07-23T09:47:45Z</time>
      </trkpt>
      <trkpt lat="43.57435" lon="-1.08193">
        <ele>124.2</ele>
        <time>2025-07-23T09:47:47Z</time>
      </trkpt>
      <trkpt lat="43.57437" lon="-1.08212">
        <ele>124</ele>
        <time>2025-07-23T09:47:49Z</time>
      </trkpt>
      <trkpt lat="43.57437" lon="-1.08249">
        <ele>123.6</ele>
        <time>2025-07-23T09:47:53Z</time>
      </trkpt>
      <trkpt lat="43.5744" lon="-1.08274">
        <ele>123.4</ele>
        <time>2025-07-23T09:47:56Z</time>
      </trkpt>
      <trkpt lat="43.57442" lon="-1.08284">
        <ele>123.2</ele>
        <time>2025-07-23T09:47:57Z</time>
      </trkpt>
      <trkpt lat="43.57448" lon="-1.08306">
        <ele>123</ele>
        <time>2025-07-23T09:48:00Z</time>
      </trkpt>
      <trkpt lat="43.57451" lon="-1.08314">
        <ele>123</ele>
        <time>2025-07-23T09:48:01Z</time>
      </trkpt>
      <trkpt lat="43.57463" lon="-1.08335">
        <ele>122.8</ele>
        <time>2025-07-23T09:48:04Z</time>
      </trkpt>
      <trkpt lat="43.57472" lon="-1.08348">
        <ele>122.6</ele>
        <time>2025-07-23T09:48:06Z</time>
      </trkpt>
      <trkpt lat="43.57479" lon="-1.08355">
        <ele>122.6</ele>
        <time>2025-07-23T09:48:07Z</time>
      </trkpt>
      <trkpt lat="43.57491" lon="-1.08365">
        <ele>122.4</ele>
        <time>2025-07-23T09:48:09Z</time>
      </trkpt>
      <trkpt lat="43.57533" lon="-1.08395">
        <ele>122.2</ele>
        <time>2025-07-23T09:48:15Z</time>
      </trkpt>
      <trkpt lat="43.57554" lon="-1.08408">
        <ele>121.8</ele>
        <time>2025-07-23T09:48:18Z</time>
      </trkpt>
      <trkpt lat="43.57567" lon="-1.08412">
        <ele>121.6</ele>
        <time>2025-07-23T09:48:20Z</time>
      </trkpt>
      <trkpt lat="43.57581" lon="-1.0841">
        <ele>121.6</ele>
        <time>2025-07-23T09:48:22Z</time>
      </trkpt>
      <trkpt lat="43.5759" lon="-1.08407">
        <ele>121.4</ele>
        <time>2025-07-23T09:48:23Z</time>
      </trkpt>
      <trkpt lat="43.57597" lon="-1.08403">
        <ele>121.4</ele>
        <time>2025-07-23T09:48:24Z</time>
      </trkpt>
      <trkpt lat="43.57613" lon="-1.08387">
        <ele>121.2</ele>
        <time>2025-07-23T09:48:27Z</time>
      </trkpt>
      <trkpt lat="43.57653" lon="-1.0834">
        <ele>120.6</ele>
        <time>2025-07-23T09:48:34Z</time>
      </trkpt>
      <trkpt lat="43.57664" lon="-1.08327">
        <ele>120.4</ele>
        <time>2025-07-23T09:48:36Z</time>
      </trkpt>
      <trkpt lat="43.577" lon="-1.08283">
        <ele>119.2</ele>
        <time>2025-07-23T09:48:42Z</time>
      </trkpt>
      <trkpt lat="43.57732" lon="-1.08247">
        <ele>118</ele>
        <time>2025-07-23T09:48:47Z</time>
      </trkpt>
      <trkpt lat="43.57746" lon="-1.08235">
        <ele>117.4</ele>
        <time>2025-07-23T09:48:49Z</time>
      </trkpt>
      <trkpt lat="43.57759" lon="-1.08228">
        <ele>116.8</ele>
        <time>2025-07-23T09:48:51Z</time>
      </trkpt>
      <trkpt lat="43.57775" lon="-1.0823">
        <ele>116.4</ele>
        <time>2025-07-23T09:48:53Z</time>
      </trkpt>
      <trkpt lat="43.5779" lon="-1.08242">
        <ele>115.8</ele>
        <time>2025-07-23T09:48:55Z</time>
      </trkpt>
      <trkpt lat="43.57797" lon="-1.08247">
        <ele>115.2</ele>
        <time>2025-07-23T09:48:56Z</time>
      </trkpt>
      <trkpt lat="43.57806" lon="-1.08251">
        <ele>115</ele>
        <time>2025-07-23T09:48:57Z</time>
      </trkpt>
      <trkpt lat="43.57817" lon="-1.08255">
        <ele>114.6</ele>
        <time>2025-07-23T09:48:58Z</time>
      </trkpt>
      <trkpt lat="43.57834" lon="-1.08258">
        <ele>114</ele>
        <time>2025-07-23T09:49:00Z</time>
      </trkpt>
      <trkpt lat="43.57843" lon="-1.08258">
        <ele>113.4</ele>
        <time>2025-07-23T09:49:01Z</time>
      </trkpt>
      <trkpt lat="43.57871" lon="-1.08252">
        <ele>112.2</ele>
        <time>2025-07-23T09:49:04Z</time>
      </trkpt>
      <trkpt lat="43.57879" lon="-1.08249">
        <ele>111.8</ele>
        <time>2025-07-23T09:49:05Z</time>
      </trkpt>
      <trkpt lat="43.57892" lon="-1.08235">
        <ele>111.2</ele>
        <time>2025-07-23T09:49:07Z</time>
      </trkpt>
      <trkpt lat="43.579" lon="-1.08224">
        <ele>110.8</ele>
        <time>2025-07-23T09:49:08Z</time>
      </trkpt>
      <trkpt lat="43.57913" lon="-1.08206">
        <ele>109.8</ele>
        <time>2025-07-23T09:49:10Z</time>
      </trkpt>
      <trkpt lat="43.5792" lon="-1.08201">
        <ele>109</ele>
        <time>2025-07-23T09:49:11Z</time>
      </trkpt>
      <trkpt lat="43.57929" lon="-1.08197">
        <ele>108.8</ele>
        <time>2025-07-23T09:49:12Z</time>
      </trkpt>
      <trkpt lat="43.57949" lon="-1.08196">
        <ele>108</ele>
        <time>2025-07-23T09:49:14Z</time>
      </trkpt>
      <trkpt lat="43.57976" lon="-1.08203">
        <ele>106.8</ele>
        <time>2025-07-23T09:49:17Z</time>
      </trkpt>
      <trkpt lat="43.57984" lon="-1.08204">
        <ele>106.4</ele>
        <time>2025-07-23T09:49:18Z</time>
      </trkpt>
      <trkpt lat="43.58002" lon="-1.08201">
        <ele>105.4</ele>
        <time>2025-07-23T09:49:20Z</time>
      </trkpt>
      <trkpt lat="43.58007" lon="-1.08195">
        <ele>105</ele>
        <time>2025-07-23T09:49:21Z</time>
      </trkpt>
      <trkpt lat="43.58013" lon="-1.08187">
        <ele>104.6</ele>
        <time>2025-07-23T09:49:22Z</time>
      </trkpt>
      <trkpt lat="43.58018" lon="-1.08177">
        <ele>104.2</ele>
        <time>2025-07-23T09:49:23Z</time>
      </trkpt>
      <trkpt lat="43.58025" lon="-1.08165">
        <ele>103.8</ele>
        <time>2025-07-23T09:49:24Z</time>
      </trkpt>
      <trkpt lat="43.58034" lon="-1.08146">
        <ele>103</ele>
        <time>2025-07-23T09:49:26Z</time>
      </trkpt>
      <trkpt lat="43.58045" lon="-1.08125">
        <ele>102</ele>
        <time>2025-07-23T09:49:28Z</time>
      </trkpt>
      <trkpt lat="43.58056" lon="-1.08103">
        <ele>101.2</ele>
        <time>2025-07-23T09:49:30Z</time>
      </trkpt>
      <trkpt lat="43.58061" lon="-1.08096">
        <ele>101</ele>
        <time>2025-07-23T09:49:31Z</time>
      </trkpt>
      <trkpt lat="43.58067" lon="-1.08089">
        <ele>100.6</ele>
        <time>2025-07-23T09:49:32Z</time>
      </trkpt>
      <trkpt lat="43.58075" lon="-1.08085">
        <ele>100.4</ele>
        <time>2025-07-23T09:49:33Z</time>
      </trkpt>
      <trkpt lat="43.58093" lon="-1.08089">
        <ele>99.4</ele>
        <time>2025-07-23T09:49:35Z</time>
      </trkpt>
      <trkpt lat="43.58103" lon="-1.08105">
        <ele>98.8</ele>
        <time>2025-07-23T09:49:37Z</time>
      </trkpt>
      <trkpt lat="43.58107" lon="-1.08115">
        <ele>98.6</ele>
        <time>2025-07-23T09:49:38Z</time>
      </trkpt>
      <trkpt lat="43.5811" lon="-1.08126">
        <ele>98.2</ele>
        <time>2025-07-23T09:49:39Z</time>
      </trkpt>
      <trkpt lat="43.58112" lon="-1.08137">
        <ele>97.8</ele>
        <time>2025-07-23T09:49:40Z</time>
      </trkpt>
      <trkpt lat="43.58117" lon="-1.0816">
        <ele>97</ele>
        <time>2025-07-23T09:49:42Z</time>
      </trkpt>
      <trkpt lat="43.58129" lon="-1.08185">
        <ele>96.2</ele>
        <time>2025-07-23T09:49:44Z</time>
      </trkpt>
      <trkpt lat="43.58136" lon="-1.08194">
        <ele>96</ele>
        <time>2025-07-23T09:49:45Z</time>
      </trkpt>
      <trkpt lat="43.58142" lon="-1.082">
        <ele>95.4</ele>
        <time>2025-07-23T09:49:46Z</time>
      </trkpt>
      <trkpt lat="43.5815" lon="-1.08205">
        <ele>94.8</ele>
        <time>2025-07-23T09:49:47Z</time>
      </trkpt>
      <trkpt lat="43.58157" lon="-1.08206">
        <ele>94.6</ele>
        <time>2025-07-23T09:49:48Z</time>
      </trkpt>
      <trkpt lat="43.58164" lon="-1.08205">
        <ele>94.4</ele>
        <time>2025-07-23T09:49:49Z</time>
      </trkpt>
      <trkpt lat="43.58185" lon="-1.08199">
        <ele>93.6</ele>
        <time>2025-07-23T09:49:51Z</time>
      </trkpt>
      <trkpt lat="43.58195" lon="-1.08195">
        <ele>93.4</ele>
        <time>2025-07-23T09:49:52Z</time>
      </trkpt>
      <trkpt lat="43.58216" lon="-1.08181">
        <ele>92.4</ele>
        <time>2025-07-23T09:49:54Z</time>
      </trkpt>
      <trkpt lat="43.5823" lon="-1.08168">
        <ele>91.4</ele>
        <time>2025-07-23T09:49:56Z</time>
      </trkpt>
      <trkpt lat="43.58237" lon="-1.08159">
        <ele>91.2</ele>
        <time>2025-07-23T09:49:57Z</time>
      </trkpt>
      <trkpt lat="43.58261" lon="-1.08129">
        <ele>90</ele>
        <time>2025-07-23T09:50:00Z</time>
      </trkpt>
      <trkpt lat="43.58267" lon="-1.08124">
        <ele>89.2</ele>
        <time>2025-07-23T09:50:01Z</time>
      </trkpt>
      <trkpt lat="43.58276" lon="-1.08119">
        <ele>89</ele>
        <time>2025-07-23T09:50:02Z</time>
      </trkpt>
      <trkpt lat="43.58285" lon="-1.08116">
        <ele>88.6</ele>
        <time>2025-07-23T09:50:03Z</time>
      </trkpt>
      <trkpt lat="43.58302" lon="-1.08108">
        <ele>88.2</ele>
        <time>2025-07-23T09:50:05Z</time>
      </trkpt>
      <trkpt lat="43.5831" lon="-1.08102">
        <ele>87.6</ele>
        <time>2025-07-23T09:50:06Z</time>
      </trkpt>
      <trkpt lat="43.58314" lon="-1.08095">
        <ele>87.4</ele>
        <time>2025-07-23T09:50:07Z</time>
      </trkpt>
      <trkpt lat="43.58318" lon="-1.08086">
        <ele>87</ele>
        <time>2025-07-23T09:50:08Z</time>
      </trkpt>
      <trkpt lat="43.5832" lon="-1.08073">
        <ele>86.8</ele>
        <time>2025-07-23T09:50:09Z</time>
      </trkpt>
      <trkpt lat="43.58319" lon="-1.08064">
        <ele>86</ele>
        <time>2025-07-23T09:50:10Z</time>
      </trkpt>
      <trkpt lat="43.58319" lon="-1.08053">
        <ele>85.2</ele>
        <time>2025-07-23T09:50:11Z</time>
      </trkpt>
      <trkpt lat="43.58317" lon="-1.08029">
        <ele>84.6</ele>
        <time>2025-07-23T09:50:13Z</time>
      </trkpt>
      <trkpt lat="43.58317" lon="-1.08014">
        <ele>84.4</ele>
        <time>2025-07-23T09:50:14Z</time>
      </trkpt>
      <trkpt lat="43.58319" lon="-1.07989">
        <ele>83.6</ele>
        <time>2025-07-23T09:50:16Z</time>
      </trkpt>
      <trkpt lat="43.58321" lon="-1.07967">
        <ele>82.6</ele>
        <time>2025-07-23T09:50:18Z</time>
      </trkpt>
      <trkpt lat="43.5832" lon="-1.07951">
        <ele>82.2</ele>
        <time>2025-07-23T09:50:19Z</time>
      </trkpt>
      <trkpt lat="43.58318" lon="-1.07938">
        <ele>81.6</ele>
        <time>2025-07-23T09:50:20Z</time>
      </trkpt>
      <trkpt lat="43.58314" lon="-1.07917">
        <ele>80.8</ele>
        <time>2025-07-23T09:50:22Z</time>
      </trkpt>
      <trkpt lat="43.58313" lon="-1.07881">
        <ele>79.8</ele>
        <time>2025-07-23T09:50:25Z</time>
      </trkpt>
      <trkpt lat="43.58319" lon="-1.07866">
        <ele>78.8</ele>
        <time>2025-07-23T09:50:27Z</time>
      </trkpt>
      <trkpt lat="43.58326" lon="-1.07862">
        <ele>78.6</ele>
        <time>2025-07-23T09:50:28Z</time>
      </trkpt>
      <trkpt lat="43.58334" lon="-1.07861">
        <ele>78</ele>
        <time>2025-07-23T09:50:29Z</time>
      </trkpt>
      <trkpt lat="43.58341" lon="-1.07864">
        <ele>77.6</ele>
        <time>2025-07-23T09:50:30Z</time>
      </trkpt>
      <trkpt lat="43.58347" lon="-1.07868">
        <ele>77.2</ele>
        <time>2025-07-23T09:50:31Z</time>
      </trkpt>
      <trkpt lat="43.58371" lon="-1.07886">
        <ele>76</ele>
        <time>2025-07-23T09:50:34Z</time>
      </trkpt>
      <trkpt lat="43.58395" lon="-1.07903">
        <ele>74.6</ele>
        <time>2025-07-23T09:50:37Z</time>
      </trkpt>
      <trkpt lat="43.58416" lon="-1.07915">
        <ele>73.6</ele>
        <time>2025-07-23T09:50:40Z</time>
      </trkpt>
      <trkpt lat="43.58438" lon="-1.07924">
        <ele>72.2</ele>
        <time>2025-07-23T09:50:43Z</time>
      </trkpt>
      <trkpt lat="43.58457" lon="-1.07929">
        <ele>71.4</ele>
        <time>2025-07-23T09:50:45Z</time>
      </trkpt>
      <trkpt lat="43.58465" lon="-1.0793">
        <ele>71</ele>
        <time>2025-07-23T09:50:46Z</time>
      </trkpt>
      <trkpt lat="43.58491" lon="-1.07928">
        <ele>70</ele>
        <time>2025-07-23T09:50:49Z</time>
      </trkpt>
      <trkpt lat="43.58524" lon="-1.07916">
        <ele>68.8</ele>
        <time>2025-07-23T09:50:53Z</time>
      </trkpt>
      <trkpt lat="43.58541" lon="-1.079">
        <ele>68.2</ele>
        <time>2025-07-23T09:50:55Z</time>
      </trkpt>
      <trkpt lat="43.58547" lon="-1.07891">
        <ele>67.4</ele>
        <time>2025-07-23T09:50:56Z</time>
      </trkpt>
      <trkpt lat="43.58552" lon="-1.07882">
        <ele>67</ele>
        <time>2025-07-23T09:50:57Z</time>
      </trkpt>
      <trkpt lat="43.58561" lon="-1.07856">
        <ele>66</ele>
        <time>2025-07-23T09:50:59Z</time>
      </trkpt>
      <trkpt lat="43.58571" lon="-1.07809">
        <ele>64.4</ele>
        <time>2025-07-23T09:51:03Z</time>
      </trkpt>
      <trkpt lat="43.58576" lon="-1.07784">
        <ele>63.8</ele>
        <time>2025-07-23T09:51:05Z</time>
      </trkpt>
      <trkpt lat="43.58579" lon="-1.07771">
        <ele>63.4</ele>
        <time>2025-07-23T09:51:06Z</time>
      </trkpt>
      <trkpt lat="43.58593" lon="-1.0773">
        <ele>62.2</ele>
        <time>2025-07-23T09:51:10Z</time>
      </trkpt>
      <trkpt lat="43.58617" lon="-1.07667">
        <ele>61.2</ele>
        <time>2025-07-23T09:51:16Z</time>
      </trkpt>
      <trkpt lat="43.58625" lon="-1.07646">
        <ele>60.8</ele>
        <time>2025-07-23T09:51:18Z</time>
      </trkpt>
      <trkpt lat="43.58645" lon="-1.07598">
        <ele>60.2</ele>
        <time>2025-07-23T09:51:23Z</time>
      </trkpt>
      <trkpt lat="43.58662" lon="-1.07569">
        <ele>59.6</ele>
        <time>2025-07-23T09:51:26Z</time>
      </trkpt>
      <trkpt lat="43.58688" lon="-1.07539">
        <ele>59</ele>
        <time>2025-07-23T09:51:30Z</time>
      </trkpt>
      <trkpt lat="43.587" lon="-1.07527">
        <ele>58.6</ele>
        <time>2025-07-23T09:51:32Z</time>
      </trkpt>
      <trkpt lat="43.58727" lon="-1.07498">
        <ele>58</ele>
        <time>2025-07-23T09:51:36Z</time>
      </trkpt>
      <trkpt lat="43.58753" lon="-1.07469">
        <ele>57.4</ele>
        <time>2025-07-23T09:51:40Z</time>
      </trkpt>
      <trkpt lat="43.58786" lon="-1.07436">
        <ele>57</ele>
        <time>2025-07-23T09:51:45Z</time>
      </trkpt>
      <trkpt lat="43.58818" lon="-1.07401">
        <ele>56</ele>
        <time>2025-07-23T09:51:50Z</time>
      </trkpt>
      <trkpt lat="43.58843" lon="-1.07376">
        <ele>55.8</ele>
        <time>2025-07-23T09:51:54Z</time>
      </trkpt>
      <trkpt lat="43.58881" lon="-1.07335">
        <ele>55.6</ele>
        <time>2025-07-23T09:52:00Z</time>
      </trkpt>
      <trkpt lat="43.58927" lon="-1.07286">
        <ele>55.6</ele>
        <time>2025-07-23T09:52:08Z</time>
      </trkpt>
      <trkpt lat="43.58933" lon="-1.0728">
        <ele>55.6</ele>
        <time>2025-07-23T09:52:09Z</time>
      </trkpt>
      <trkpt lat="43.58977" lon="-1.07233">
        <ele>55.8</ele>
        <time>2025-07-23T09:52:17Z</time>
      </trkpt>
      <trkpt lat="43.59024" lon="-1.07191">
        <ele>55.8</ele>
        <time>2025-07-23T09:52:25Z</time>
      </trkpt>
      <trkpt lat="43.59031" lon="-1.07185">
        <ele>55.8</ele>
        <time>2025-07-23T09:52:26Z</time>
      </trkpt>
      <trkpt lat="43.5908" lon="-1.07151">
        <ele>55.4</ele>
        <time>2025-07-23T09:52:33Z</time>
      </trkpt>
      <trkpt lat="43.59103" lon="-1.07135">
        <ele>54.8</ele>
        <time>2025-07-23T09:52:36Z</time>
      </trkpt>
      <trkpt lat="43.59145" lon="-1.07106">
        <ele>53.6</ele>
        <time>2025-07-23T09:52:42Z</time>
      </trkpt>
      <trkpt lat="43.59194" lon="-1.07072">
        <ele>52.8</ele>
        <time>2025-07-23T09:52:49Z</time>
      </trkpt>
      <trkpt lat="43.59209" lon="-1.07062">
        <ele>52.6</ele>
        <time>2025-07-23T09:52:51Z</time>
      </trkpt>
      <trkpt lat="43.59214" lon="-1.07058">
        <ele>52.6</ele>
        <time>2025-07-23T09:52:52Z</time>
      </trkpt>
      <trkpt lat="43.59245" lon="-1.07036">
        <ele>52.4</ele>
        <time>2025-07-23T09:52:57Z</time>
      </trkpt>
      <trkpt lat="43.59286" lon="-1.07008">
        <ele>52.6</ele>
        <time>2025-07-23T09:53:04Z</time>
      </trkpt>
      <trkpt lat="43.59336" lon="-1.0697">
        <ele>53.6</ele>
        <time>2025-07-23T09:53:13Z</time>
      </trkpt>
      <trkpt lat="43.59341" lon="-1.06965">
        <ele>53.6</ele>
        <time>2025-07-23T09:53:14Z</time>
      </trkpt>
      <trkpt lat="43.59365" lon="-1.06939">
        <ele>53.8</ele>
        <time>2025-07-23T09:53:19Z</time>
      </trkpt>
      <trkpt lat="43.59378" lon="-1.06925">
        <ele>54</ele>
        <time>2025-07-23T09:53:22Z</time>
      </trkpt>
      <trkpt lat="43.59396" lon="-1.06903">
        <ele>55</ele>
        <time>2025-07-23T09:53:27Z</time>
      </trkpt>
      <trkpt lat="43.59403" lon="-1.06895">
        <ele>55.4</ele>
        <time>2025-07-23T09:53:29Z</time>
      </trkpt>
      <trkpt lat="43.59415" lon="-1.06882">
        <ele>56</ele>
        <time>2025-07-23T09:53:33Z</time>
      </trkpt>
      <trkpt lat="43.59418" lon="-1.06879">
        <ele>56.2</ele>
        <time>2025-07-23T09:53:34Z</time>
      </trkpt>
      <trkpt lat="43.59421" lon="-1.06875">
        <ele>56.4</ele>
        <time>2025-07-23T09:53:35Z</time>
      </trkpt>
      <trkpt lat="43.59437" lon="-1.06858">
        <ele>57.2</ele>
        <time>2025-07-23T09:53:40Z</time>
      </trkpt>
      <trkpt lat="43.59453" lon="-1.06842">
        <ele>58</ele>
        <time>2025-07-23T09:53:45Z</time>
      </trkpt>
      <trkpt lat="43.59457" lon="-1.06839">
        <ele>58.2</ele>
        <time>2025-07-23T09:53:46Z</time>
      </trkpt>
      <trkpt lat="43.59474" lon="-1.06831">
        <ele>58.8</ele>
        <time>2025-07-23T09:53:50Z</time>
      </trkpt>
      <trkpt lat="43.59489" lon="-1.0683">
        <ele>59</ele>
        <time>2025-07-23T09:53:53Z</time>
      </trkpt>
      <trkpt lat="43.59522" lon="-1.06828">
        <ele>59.2</ele>
        <time>2025-07-23T09:54:00Z</time>
      </trkpt>
      <trkpt lat="43.59531" lon="-1.06828">
        <ele>59.4</ele>
        <time>2025-07-23T09:54:03Z</time>
      </trkpt>
      <trkpt lat="43.59579" lon="-1.06827">
        <ele>59.6</ele>
        <time>2025-07-23T09:54:13Z</time>
      </trkpt>
      <trkpt lat="43.59624" lon="-1.06825">
        <ele>59.8</ele>
        <time>2025-07-23T09:54:20Z</time>
      </trkpt>
      <trkpt lat="43.59665" lon="-1.06824">
        <ele>59.2</ele>
        <time>2025-07-23T09:54:26Z</time>
      </trkpt>
      <trkpt lat="43.59709" lon="-1.06822">
        <ele>58.2</ele>
        <time>2025-07-23T09:54:32Z</time>
      </trkpt>
      <trkpt lat="43.59709" lon="-1.06822">
        <ele>58</ele>
        <time>2025-07-23T09:54:33Z</time>
      </trkpt>
      <trkpt lat="43.59752" lon="-1.0682">
        <ele>57</ele>
        <time>2025-07-23T09:54:38Z</time>
      </trkpt>
      <trkpt lat="43.59766" lon="-1.0682">
        <ele>56.6</ele>
        <time>2025-07-23T09:54:41Z</time>
      </trkpt>
      <trkpt lat="43.59819" lon="-1.06817">
        <ele>56.4</ele>
        <time>2025-07-23T09:54:49Z</time>
      </trkpt>
      <trkpt lat="43.59873" lon="-1.06818">
        <ele>56.2</ele>
        <time>2025-07-23T09:54:57Z</time>
      </trkpt>
      <trkpt lat="43.59886" lon="-1.06818">
        <ele>56.2</ele>
        <time>2025-07-23T09:54:58Z</time>
      </trkpt>
      <trkpt lat="43.59893" lon="-1.06819">
        <ele>56</ele>
        <time>2025-07-23T09:55:00Z</time>
      </trkpt>
      <trkpt lat="43.59947" lon="-1.06827">
        <ele>55.6</ele>
        <time>2025-07-23T09:55:07Z</time>
      </trkpt>
      <trkpt lat="43.59954" lon="-1.06829">
        <ele>55.6</ele>
        <time>2025-07-23T09:55:09Z</time>
      </trkpt>
      <trkpt lat="43.60009" lon="-1.06838">
        <ele>55.2</ele>
        <time>2025-07-23T09:55:17Z</time>
      </trkpt>
      <trkpt lat="43.60016" lon="-1.06839">
        <ele>55.2</ele>
        <time>2025-07-23T09:55:18Z</time>
      </trkpt>
      <trkpt lat="43.60031" lon="-1.06842">
        <ele>54.8</ele>
        <time>2025-07-23T09:55:20Z</time>
      </trkpt>
      <trkpt lat="43.6009" lon="-1.06854">
        <ele>54.4</ele>
        <time>2025-07-23T09:55:28Z</time>
      </trkpt>
      <trkpt lat="43.60149" lon="-1.06865">
        <ele>54</ele>
        <time>2025-07-23T09:55:35Z</time>
      </trkpt>
      <trkpt lat="43.60163" lon="-1.06867">
        <ele>53.8</ele>
        <time>2025-07-23T09:55:37Z</time>
      </trkpt>
      <trkpt lat="43.6017" lon="-1.06867">
        <ele>53.8</ele>
        <time>2025-07-23T09:55:39Z</time>
      </trkpt>
      <trkpt lat="43.60184" lon="-1.06864">
        <ele>53.8</ele>
        <time>2025-07-23T09:55:40Z</time>
      </trkpt>
      <trkpt lat="43.60204" lon="-1.06855">
        <ele>53.6</ele>
        <time>2025-07-23T09:55:43Z</time>
      </trkpt>
      <trkpt lat="43.60217" lon="-1.06846">
        <ele>53.6</ele>
        <time>2025-07-23T09:55:45Z</time>
      </trkpt>
      <trkpt lat="43.60227" lon="-1.06835">
        <ele>53.6</ele>
        <time>2025-07-23T09:55:47Z</time>
      </trkpt>
      <trkpt lat="43.60232" lon="-1.06828">
        <ele>53.6</ele>
        <time>2025-07-23T09:55:48Z</time>
      </trkpt>
      <trkpt lat="43.60249" lon="-1.06799">
        <ele>53.6</ele>
        <time>2025-07-23T09:55:52Z</time>
      </trkpt>
      <trkpt lat="43.60285" lon="-1.06735">
        <ele>53.6</ele>
        <time>2025-07-23T09:56:01Z</time>
      </trkpt>
      <trkpt lat="43.60294" lon="-1.06723">
        <ele>53.6</ele>
        <time>2025-07-23T09:56:03Z</time>
      </trkpt>
      <trkpt lat="43.60337" lon="-1.06675">
        <ele>53.8</ele>
        <time>2025-07-23T09:56:12Z</time>
      </trkpt>
      <trkpt lat="43.6038" lon="-1.06627">
        <ele>53.4</ele>
        <time>2025-07-23T09:56:21Z</time>
      </trkpt>
      <trkpt lat="43.6039" lon="-1.06616">
        <ele>53.4</ele>
        <time>2025-07-23T09:56:23Z</time>
      </trkpt>
      <trkpt lat="43.60435" lon="-1.06566">
        <ele>53</ele>
        <time>2025-07-23T09:56:32Z</time>
      </trkpt>
      <trkpt lat="43.6044" lon="-1.06561">
        <ele>52.8</ele>
        <time>2025-07-23T09:56:33Z</time>
      </trkpt>
      <trkpt lat="43.60493" lon="-1.06503">
        <ele>52.6</ele>
        <time>2025-07-23T09:56:43Z</time>
      </trkpt>
      <trkpt lat="43.60539" lon="-1.0646">
        <ele>52.4</ele>
        <time>2025-07-23T09:56:52Z</time>
      </trkpt>
      <trkpt lat="43.60551" lon="-1.06451">
        <ele>52.4</ele>
        <time>2025-07-23T09:56:53Z</time>
      </trkpt>
      <trkpt lat="43.606" lon="-1.06416">
        <ele>52.4</ele>
        <time>2025-07-23T09:57:01Z</time>
      </trkpt>
      <trkpt lat="43.606" lon="-1.06416">
        <ele>52.2</ele>
        <time>2025-07-23T09:57:02Z</time>
      </trkpt>
      <trkpt lat="43.60637" lon="-1.06391">
        <ele>51.8</ele>
        <time>2025-07-23T09:57:07Z</time>
      </trkpt>
      <trkpt lat="43.60656" lon="-1.0638">
        <ele>51.6</ele>
        <time>2025-07-23T09:57:10Z</time>
      </trkpt>
      <trkpt lat="43.60714" lon="-1.06354">
        <ele>51</ele>
        <time>2025-07-23T09:57:19Z</time>
      </trkpt>
      <trkpt lat="43.60733" lon="-1.06351">
        <ele>50.8</ele>
        <time>2025-07-23T09:57:22Z</time>
      </trkpt>
      <trkpt lat="43.60745" lon="-1.06354">
        <ele>50.4</ele>
        <time>2025-07-23T09:57:24Z</time>
      </trkpt>
      <trkpt lat="43.60766" lon="-1.06367">
        <ele>50</ele>
        <time>2025-07-23T09:57:28Z</time>
      </trkpt>
      <trkpt lat="43.60779" lon="-1.0638">
        <ele>49.6</ele>
        <time>2025-07-23T09:57:29Z</time>
      </trkpt>
      <trkpt lat="43.608" lon="-1.06403">
        <ele>48.8</ele>
        <time>2025-07-23T09:57:32Z</time>
      </trkpt>
      <trkpt lat="43.608" lon="-1.06403">
        <ele>48.2</ele>
        <time>2025-07-23T09:57:33Z</time>
      </trkpt>
      <trkpt lat="43.60815" lon="-1.06421">
        <ele>46.8</ele>
        <time>2025-07-23T09:57:35Z</time>
      </trkpt>
      <trkpt lat="43.6083" lon="-1.06438">
        <ele>45.6</ele>
        <time>2025-07-23T09:57:36Z</time>
      </trkpt>
      <trkpt lat="43.60844" lon="-1.06454">
        <ele>44.2</ele>
        <time>2025-07-23T09:57:38Z</time>
      </trkpt>
      <trkpt lat="43.60865" lon="-1.06472">
        <ele>43.2</ele>
        <time>2025-07-23T09:57:41Z</time>
      </trkpt>
      <trkpt lat="43.6088" lon="-1.0648">
        <ele>42.6</ele>
        <time>2025-07-23T09:57:43Z</time>
      </trkpt>
      <trkpt lat="43.60917" lon="-1.06495">
        <ele>42.4</ele>
        <time>2025-07-23T09:57:49Z</time>
      </trkpt>
      <trkpt lat="43.60932" lon="-1.06501">
        <ele>43.2</ele>
        <time>2025-07-23T09:57:53Z</time>
      </trkpt>
      <trkpt lat="43.60943" lon="-1.06506">
        <ele>44.2</ele>
        <time>2025-07-23T09:57:56Z</time>
      </trkpt>
      <trkpt lat="43.60946" lon="-1.06508">
        <ele>45.2</ele>
        <time>2025-07-23T09:57:58Z</time>
      </trkpt>
      <trkpt lat="43.60958" lon="-1.06511">
        <ele>46</ele>
        <time>2025-07-23T09:58:01Z</time>
      </trkpt>
      <trkpt lat="43.60962" lon="-1.06512">
        <ele>46.4</ele>
        <time>2025-07-23T09:58:02Z</time>
      </trkpt>
      <trkpt lat="43.60981" lon="-1.06517">
        <ele>47.6</ele>
        <time>2025-07-23T09:58:07Z</time>
      </trkpt>
      <trkpt lat="43.60986" lon="-1.06517">
        <ele>48</ele>
        <time>2025-07-23T09:58:09Z</time>
      </trkpt>
      <trkpt lat="43.6101" lon="-1.06521">
        <ele>48.8</ele>
        <time>2025-07-23T09:58:14Z</time>
      </trkpt>
      <trkpt lat="43.61039" lon="-1.06522">
        <ele>49.2</ele>
        <time>2025-07-23T09:58:19Z</time>
      </trkpt>
      <trkpt lat="43.61044" lon="-1.06521">
        <ele>49.4</ele>
        <time>2025-07-23T09:58:20Z</time>
      </trkpt>
      <trkpt lat="43.61067" lon="-1.06519">
        <ele>49.8</ele>
        <time>2025-07-23T09:58:25Z</time>
      </trkpt>
      <trkpt lat="43.61087" lon="-1.06515">
        <ele>50.2</ele>
        <time>2025-07-23T09:58:29Z</time>
      </trkpt>
      <trkpt lat="43.61092" lon="-1.06513">
        <ele>50.2</ele>
        <time>2025-07-23T09:58:30Z</time>
      </trkpt>
      <trkpt lat="43.61148" lon="-1.06498">
        <ele>50.6</ele>
        <time>2025-07-23T09:58:40Z</time>
      </trkpt>
      <trkpt lat="43.61188" lon="-1.06488">
        <ele>50.2</ele>
        <time>2025-07-23T09:58:47Z</time>
      </trkpt>
      <trkpt lat="43.61237" lon="-1.06475">
        <ele>50.2</ele>
        <time>2025-07-23T09:58:55Z</time>
      </trkpt>
      <trkpt lat="43.61301" lon="-1.06456">
        <ele>50</ele>
        <time>2025-07-23T09:59:05Z</time>
      </trkpt>
      <trkpt lat="43.61355" lon="-1.06442">
        <ele>49.8</ele>
        <time>2025-07-23T09:59:13Z</time>
      </trkpt>
      <trkpt lat="43.61375" lon="-1.06436">
        <ele>49.6</ele>
        <time>2025-07-23T09:59:16Z</time>
      </trkpt>
      <trkpt lat="43.61429" lon="-1.06426">
        <ele>49.2</ele>
        <time>2025-07-23T09:59:24Z</time>
      </trkpt>
      <trkpt lat="43.6147" lon="-1.0643">
        <ele>49</ele>
        <time>2025-07-23T09:59:30Z</time>
      </trkpt>
      <trkpt lat="43.61476" lon="-1.06433">
        <ele>49</ele>
        <time>2025-07-23T09:59:31Z</time>
      </trkpt>
      <trkpt lat="43.61482" lon="-1.06436">
        <ele>48.8</ele>
        <time>2025-07-23T09:59:32Z</time>
      </trkpt>
      <trkpt lat="43.61495" lon="-1.06452">
        <ele>48.8</ele>
        <time>2025-07-23T09:59:34Z</time>
      </trkpt>
      <trkpt lat="43.61515" lon="-1.06492">
        <ele>47.6</ele>
        <time>2025-07-23T09:59:38Z</time>
      </trkpt>
      <trkpt lat="43.61532" lon="-1.06531">
        <ele>45.6</ele>
        <time>2025-07-23T09:59:41Z</time>
      </trkpt>
      <trkpt lat="43.61542" lon="-1.06552">
        <ele>43.8</ele>
        <time>2025-07-23T09:59:43Z</time>
      </trkpt>
      <trkpt lat="43.6156" lon="-1.06584">
        <ele>42.8</ele>
        <time>2025-07-23T09:59:46Z</time>
      </trkpt>
      <trkpt lat="43.61568" lon="-1.06599">
        <ele>42.6</ele>
        <time>2025-07-23T09:59:48Z</time>
      </trkpt>
      <trkpt lat="43.61582" lon="-1.06625">
        <ele>43</ele>
        <time>2025-07-23T09:59:52Z</time>
      </trkpt>
      <trkpt lat="43.61589" lon="-1.06639">
        <ele>44.2</ele>
        <time>2025-07-23T09:59:55Z</time>
      </trkpt>
      <trkpt lat="43.61598" lon="-1.06652">
        <ele>45.2</ele>
        <time>2025-07-23T09:59:58Z</time>
      </trkpt>
      <trkpt lat="43.616" lon="-1.06657">
        <ele>45.6</ele>
        <time>2025-07-23T09:59:59Z</time>
      </trkpt>
      <trkpt lat="43.61606" lon="-1.06666">
        <ele>46.2</ele>
        <time>2025-07-23T10:00:01Z</time>
      </trkpt>
      <trkpt lat="43.61612" lon="-1.06676">
        <ele>46.6</ele>
        <time>2025-07-23T10:00:03Z</time>
      </trkpt>
      <trkpt lat="43.61617" lon="-1.06684">
        <ele>47</ele>
        <time>2025-07-23T10:00:05Z</time>
      </trkpt>
      <trkpt lat="43.61624" lon="-1.06694">
        <ele>47.2</ele>
        <time>2025-07-23T10:00:07Z</time>
      </trkpt>
      <trkpt lat="43.61636" lon="-1.06714">
        <ele>47.6</ele>
        <time>2025-07-23T10:00:11Z</time>
      </trkpt>
      <trkpt lat="43.61639" lon="-1.06719">
        <ele>47.8</ele>
        <time>2025-07-23T10:00:12Z</time>
      </trkpt>
      <trkpt lat="43.61669" lon="-1.06768">
        <ele>48.4</ele>
        <time>2025-07-23T10:00:21Z</time>
      </trkpt>
      <trkpt lat="43.6168" lon="-1.06786">
        <ele>48.2</ele>
        <time>2025-07-23T10:00:24Z</time>
      </trkpt>
      <trkpt lat="43.61688" lon="-1.06795">
        <ele>48</ele>
        <time>2025-07-23T10:00:26Z</time>
      </trkpt>
      <trkpt lat="43.61694" lon="-1.068">
        <ele>48</ele>
        <time>2025-07-23T10:00:27Z</time>
      </trkpt>
      <trkpt lat="43.61705" lon="-1.06808">
        <ele>47.8</ele>
        <time>2025-07-23T10:00:29Z</time>
      </trkpt>
      <trkpt lat="43.61721" lon="-1.06815">
        <ele>47.8</ele>
        <time>2025-07-23T10:00:32Z</time>
      </trkpt>
      <trkpt lat="43.61759" lon="-1.06829">
        <ele>47.8</ele>
        <time>2025-07-23T10:00:39Z</time>
      </trkpt>
      <trkpt lat="43.61807" lon="-1.06845">
        <ele>48.2</ele>
        <time>2025-07-23T10:00:47Z</time>
      </trkpt>
      <trkpt lat="43.61862" lon="-1.06864">
        <ele>48</ele>
        <time>2025-07-23T10:00:56Z</time>
      </trkpt>
      <trkpt lat="43.61868" lon="-1.06866">
        <ele>48</ele>
        <time>2025-07-23T10:00:57Z</time>
      </trkpt>
      <trkpt lat="43.61923" lon="-1.06886">
        <ele>48</ele>
        <time>2025-07-23T10:01:06Z</time>
      </trkpt>
      <trkpt lat="43.61929" lon="-1.06888">
        <ele>48</ele>
        <time>2025-07-23T10:01:07Z</time>
      </trkpt>
      <trkpt lat="43.61975" lon="-1.06902">
        <ele>47.4</ele>
        <time>2025-07-23T10:01:14Z</time>
      </trkpt>
      <trkpt lat="43.62005" lon="-1.06907">
        <ele>46.4</ele>
        <time>2025-07-23T10:01:18Z</time>
      </trkpt>
      <trkpt lat="43.62036" lon="-1.06911">
        <ele>45.8</ele>
        <time>2025-07-23T10:01:22Z</time>
      </trkpt>
      <trkpt lat="43.62049" lon="-1.06913">
        <ele>45.4</ele>
        <time>2025-07-23T10:01:24Z</time>
      </trkpt>
      <trkpt lat="43.62092" lon="-1.06916">
        <ele>44.8</ele>
        <time>2025-07-23T10:01:30Z</time>
      </trkpt>
      <trkpt lat="43.62107" lon="-1.06913">
        <ele>44.6</ele>
        <time>2025-07-23T10:01:32Z</time>
      </trkpt>
      <trkpt lat="43.6212" lon="-1.06908">
        <ele>44.4</ele>
        <time>2025-07-23T10:01:34Z</time>
      </trkpt>
      <trkpt lat="43.62128" lon="-1.06904">
        <ele>44.2</ele>
        <time>2025-07-23T10:01:35Z</time>
      </trkpt>
      <trkpt lat="43.62153" lon="-1.06886">
        <ele>43</ele>
        <time>2025-07-23T10:01:39Z</time>
      </trkpt>
      <trkpt lat="43.62174" lon="-1.06871">
        <ele>42.4</ele>
        <time>2025-07-23T10:01:42Z</time>
      </trkpt>
      <trkpt lat="43.62213" lon="-1.06837">
        <ele>42.2</ele>
        <time>2025-07-23T10:01:49Z</time>
      </trkpt>
      <trkpt lat="43.62218" lon="-1.06832">
        <ele>42.2</ele>
        <time>2025-07-23T10:01:50Z</time>
      </trkpt>
      <trkpt lat="43.62255" lon="-1.06785">
        <ele>42</ele>
        <time>2025-07-23T10:01:57Z</time>
      </trkpt>
      <trkpt lat="43.62284" lon="-1.06736">
        <ele>41.6</ele>
        <time>2025-07-23T10:02:02Z</time>
      </trkpt>
      <trkpt lat="43.62291" lon="-1.06725">
        <ele>41.2</ele>
        <time>2025-07-23T10:02:03Z</time>
      </trkpt>
      <trkpt lat="43.62311" lon="-1.06693">
        <ele>39.4</ele>
        <time>2025-07-23T10:02:06Z</time>
      </trkpt>
      <trkpt lat="43.62319" lon="-1.0668">
        <ele>38.2</ele>
        <time>2025-07-23T10:02:07Z</time>
      </trkpt>
      <trkpt lat="43.62324" lon="-1.06671">
        <ele>37.8</ele>
        <time>2025-07-23T10:02:08Z</time>
      </trkpt>
      <trkpt lat="43.62332" lon="-1.06658">
        <ele>36.8</ele>
        <time>2025-07-23T10:02:09Z</time>
      </trkpt>
      <trkpt lat="43.6235" lon="-1.06628">
        <ele>35.2</ele>
        <time>2025-07-23T10:02:12Z</time>
      </trkpt>
      <trkpt lat="43.62362" lon="-1.06609">
        <ele>34.8</ele>
        <time>2025-07-23T10:02:14Z</time>
      </trkpt>
      <trkpt lat="43.62392" lon="-1.06558">
        <ele>34.4</ele>
        <time>2025-07-23T10:02:20Z</time>
      </trkpt>
      <trkpt lat="43.62426" lon="-1.06501">
        <ele>34.6</ele>
        <time>2025-07-23T10:02:28Z</time>
      </trkpt>
      <trkpt lat="43.62451" lon="-1.06459">
        <ele>35.2</ele>
        <time>2025-07-23T10:02:34Z</time>
      </trkpt>
      <trkpt lat="43.62467" lon="-1.06433">
        <ele>36.2</ele>
        <time>2025-07-23T10:02:39Z</time>
      </trkpt>
      <trkpt lat="43.62478" lon="-1.06413">
        <ele>37.4</ele>
        <time>2025-07-23T10:02:43Z</time>
      </trkpt>
      <trkpt lat="43.62489" lon="-1.06394">
        <ele>38.2</ele>
        <time>2025-07-23T10:02:47Z</time>
      </trkpt>
      <trkpt lat="43.62491" lon="-1.0639">
        <ele>38.4</ele>
        <time>2025-07-23T10:02:48Z</time>
      </trkpt>
      <trkpt lat="43.62496" lon="-1.06381">
        <ele>39</ele>
        <time>2025-07-23T10:02:50Z</time>
      </trkpt>
      <trkpt lat="43.625" lon="-1.06375">
        <ele>39.4</ele>
        <time>2025-07-23T10:02:52Z</time>
      </trkpt>
      <trkpt lat="43.62502" lon="-1.06371">
        <ele>39.6</ele>
        <time>2025-07-23T10:02:53Z</time>
      </trkpt>
      <trkpt lat="43.6251" lon="-1.06361">
        <ele>40.6</ele>
        <time>2025-07-23T10:02:57Z</time>
      </trkpt>
      <trkpt lat="43.62512" lon="-1.06358">
        <ele>40.8</ele>
        <time>2025-07-23T10:02:58Z</time>
      </trkpt>
      <trkpt lat="43.62518" lon="-1.06349">
        <ele>42.2</ele>
        <time>2025-07-23T10:03:02Z</time>
      </trkpt>
      <trkpt lat="43.62526" lon="-1.06336">
        <ele>43.2</ele>
        <time>2025-07-23T10:03:07Z</time>
      </trkpt>
      <trkpt lat="43.62529" lon="-1.06331">
        <ele>43.8</ele>
        <time>2025-07-23T10:03:09Z</time>
      </trkpt>
      <trkpt lat="43.62532" lon="-1.06326">
        <ele>44.4</ele>
        <time>2025-07-23T10:03:11Z</time>
      </trkpt>
      <trkpt lat="43.62539" lon="-1.06315">
        <ele>45.4</ele>
        <time>2025-07-23T10:03:15Z</time>
      </trkpt>
      <trkpt lat="43.62545" lon="-1.06305">
        <ele>46</ele>
        <time>2025-07-23T10:03:18Z</time>
      </trkpt>
      <trkpt lat="43.62551" lon="-1.06295">
        <ele>46.6</ele>
        <time>2025-07-23T10:03:21Z</time>
      </trkpt>
      <trkpt lat="43.62563" lon="-1.06277">
        <ele>47.6</ele>
        <time>2025-07-23T10:03:26Z</time>
      </trkpt>
      <trkpt lat="43.62567" lon="-1.0627">
        <ele>48</ele>
        <time>2025-07-23T10:03:28Z</time>
      </trkpt>
      <trkpt lat="43.62572" lon="-1.06264">
        <ele>48.4</ele>
        <time>2025-07-23T10:03:30Z</time>
      </trkpt>
      <trkpt lat="43.62585" lon="-1.0625">
        <ele>48.8</ele>
        <time>2025-07-23T10:03:34Z</time>
      </trkpt>
      <trkpt lat="43.62595" lon="-1.0624">
        <ele>48.8</ele>
        <time>2025-07-23T10:03:37Z</time>
      </trkpt>
      <trkpt lat="43.62604" lon="-1.06234">
        <ele>49</ele>
        <time>2025-07-23T10:03:39Z</time>
      </trkpt>
      <trkpt lat="43.62611" lon="-1.0623">
        <ele>49</ele>
        <time>2025-07-23T10:03:41Z</time>
      </trkpt>
      <trkpt lat="43.62615" lon="-1.06228">
        <ele>49</ele>
        <time>2025-07-23T10:03:42Z</time>
      </trkpt>
      <trkpt lat="43.62651" lon="-1.06206">
        <ele>49.2</ele>
        <time>2025-07-23T10:03:52Z</time>
      </trkpt>
      <trkpt lat="43.6266" lon="-1.06203">
        <ele>49.2</ele>
        <time>2025-07-23T10:03:57Z</time>
      </trkpt>
      <trkpt lat="43.62671" lon="-1.06196">
        <ele>49</ele>
        <time>2025-07-23T10:04:00Z</time>
      </trkpt>
      <trkpt lat="43.62676" lon="-1.06194">
        <ele>49</ele>
        <time>2025-07-23T10:04:01Z</time>
      </trkpt>
      <trkpt lat="43.62708" lon="-1.06181">
        <ele>49.2</ele>
        <time>2025-07-23T10:04:08Z</time>
      </trkpt>
      <trkpt lat="43.62745" lon="-1.06172">
        <ele>49.2</ele>
        <time>2025-07-23T10:04:15Z</time>
      </trkpt>
      <trkpt lat="43.62788" lon="-1.06161">
        <ele>48.8</ele>
        <time>2025-07-23T10:04:22Z</time>
      </trkpt>
      <trkpt lat="43.62827" lon="-1.06151">
        <ele>48.4</ele>
        <time>2025-07-23T10:04:28Z</time>
      </trkpt>
      <trkpt lat="43.6287" lon="-1.06138">
        <ele>48.4</ele>
        <time>2025-07-23T10:04:35Z</time>
      </trkpt>
      <trkpt lat="43.62898" lon="-1.06132">
        <ele>48.6</ele>
        <time>2025-07-23T10:04:40Z</time>
      </trkpt>
      <trkpt lat="43.6295" lon="-1.0612">
        <ele>49</ele>
        <time>2025-07-23T10:04:48Z</time>
      </trkpt>
      <trkpt lat="43.62999" lon="-1.06107">
        <ele>49</ele>
        <time>2025-07-23T10:04:56Z</time>
      </trkpt>
      <trkpt lat="43.63057" lon="-1.06094">
        <ele>49</ele>
        <time>2025-07-23T10:05:05Z</time>
      </trkpt>
      <trkpt lat="43.63099" lon="-1.06083">
        <ele>48.6</ele>
        <time>2025-07-23T10:05:11Z</time>
      </trkpt>
      <trkpt lat="43.63141" lon="-1.06075">
        <ele>47</ele>
        <time>2025-07-23T10:05:16Z</time>
      </trkpt>
      <trkpt lat="43.6317" lon="-1.06068">
        <ele>45.4</ele>
        <time>2025-07-23T10:05:19Z</time>
      </trkpt>
      <trkpt lat="43.63192" lon="-1.06059">
        <ele>44.6</ele>
        <time>2025-07-23T10:05:22Z</time>
      </trkpt>
      <trkpt lat="43.63201" lon="-1.06053">
        <ele>43.4</ele>
        <time>2025-07-23T10:05:23Z</time>
      </trkpt>
      <trkpt lat="43.63226" lon="-1.06035">
        <ele>42.2</ele>
        <time>2025-07-23T10:05:26Z</time>
      </trkpt>
      <trkpt lat="43.63236" lon="-1.06028">
        <ele>41.8</ele>
        <time>2025-07-23T10:05:27Z</time>
      </trkpt>
      <trkpt lat="43.63266" lon="-1.06004">
        <ele>41</ele>
        <time>2025-07-23T10:05:31Z</time>
      </trkpt>
      <trkpt lat="43.63284" lon="-1.05992">
        <ele>40.8</ele>
        <time>2025-07-23T10:05:33Z</time>
      </trkpt>
      <trkpt lat="43.63299" lon="-1.05989">
        <ele>40.8</ele>
        <time>2025-07-23T10:05:35Z</time>
      </trkpt>
      <trkpt lat="43.63317" lon="-1.05993">
        <ele>40.2</ele>
        <time>2025-07-23T10:05:37Z</time>
      </trkpt>
      <trkpt lat="43.63325" lon="-1.05996">
        <ele>40</ele>
        <time>2025-07-23T10:05:38Z</time>
      </trkpt>
      <trkpt lat="43.63332" lon="-1.06001">
        <ele>39.8</ele>
        <time>2025-07-23T10:05:39Z</time>
      </trkpt>
      <trkpt lat="43.63355" lon="-1.06011">
        <ele>39.4</ele>
        <time>2025-07-23T10:05:42Z</time>
      </trkpt>
      <trkpt lat="43.63363" lon="-1.0601">
        <ele>39.4</ele>
        <time>2025-07-23T10:05:43Z</time>
      </trkpt>
      <trkpt lat="43.63371" lon="-1.06007">
        <ele>39.4</ele>
        <time>2025-07-23T10:05:44Z</time>
      </trkpt>
      <trkpt lat="43.63391" lon="-1.05995">
        <ele>39.2</ele>
        <time>2025-07-23T10:05:47Z</time>
      </trkpt>
      <trkpt lat="43.6344" lon="-1.05967">
        <ele>39.6</ele>
        <time>2025-07-23T10:05:55Z</time>
      </trkpt>
      <trkpt lat="43.63446" lon="-1.05965">
        <ele>39.6</ele>
        <time>2025-07-23T10:05:56Z</time>
      </trkpt>
      <trkpt lat="43.63459" lon="-1.0596">
        <ele>39.8</ele>
        <time>2025-07-23T10:05:58Z</time>
      </trkpt>
      <trkpt lat="43.63464" lon="-1.05959">
        <ele>39.8</ele>
        <time>2025-07-23T10:05:59Z</time>
      </trkpt>
      <trkpt lat="43.63494" lon="-1.05959">
        <ele>40.2</ele>
        <time>2025-07-23T10:06:04Z</time>
      </trkpt>
      <trkpt lat="43.63509" lon="-1.05963">
        <ele>41</ele>
        <time>2025-07-23T10:06:07Z</time>
      </trkpt>
      <trkpt lat="43.63522" lon="-1.05965">
        <ele>41.6</ele>
        <time>2025-07-23T10:06:10Z</time>
      </trkpt>
      <trkpt lat="43.63534" lon="-1.05967">
        <ele>42.4</ele>
        <time>2025-07-23T10:06:13Z</time>
      </trkpt>
      <trkpt lat="43.63545" lon="-1.05969">
        <ele>43.2</ele>
        <time>2025-07-23T10:06:16Z</time>
      </trkpt>
      <trkpt lat="43.63551" lon="-1.05971">
        <ele>43.6</ele>
        <time>2025-07-23T10:06:18Z</time>
      </trkpt>
      <trkpt lat="43.6356" lon="-1.05973">
        <ele>44.2</ele>
        <time>2025-07-23T10:06:22Z</time>
      </trkpt>
      <trkpt lat="43.63569" lon="-1.05975">
        <ele>45</ele>
        <time>2025-07-23T10:06:24Z</time>
      </trkpt>
      <trkpt lat="43.63579" lon="-1.05978">
        <ele>46</ele>
        <time>2025-07-23T10:06:27Z</time>
      </trkpt>
      <trkpt lat="43.63584" lon="-1.05979">
        <ele>46.2</ele>
        <time>2025-07-23T10:06:29Z</time>
      </trkpt>
      <trkpt lat="43.63594" lon="-1.05982">
        <ele>47</ele>
        <time>2025-07-23T10:06:32Z</time>
      </trkpt>
      <trkpt lat="43.63606" lon="-1.05986">
        <ele>48</ele>
        <time>2025-07-23T10:06:36Z</time>
      </trkpt>
      <trkpt lat="43.63612" lon="-1.05987">
        <ele>48.6</ele>
        <time>2025-07-23T10:06:38Z</time>
      </trkpt>
      <trkpt lat="43.63624" lon="-1.05988">
        <ele>49</ele>
        <time>2025-07-23T10:06:41Z</time>
      </trkpt>
      <trkpt lat="43.63635" lon="-1.0599">
        <ele>49.6</ele>
        <time>2025-07-23T10:06:44Z</time>
      </trkpt>
      <trkpt lat="43.63657" lon="-1.0599">
        <ele>50.2</ele>
        <time>2025-07-23T10:06:49Z</time>
      </trkpt>
      <trkpt lat="43.63667" lon="-1.05988">
        <ele>50.4</ele>
        <time>2025-07-23T10:06:51Z</time>
      </trkpt>
      <trkpt lat="43.6371" lon="-1.05981">
        <ele>51.2</ele>
        <time>2025-07-23T10:07:00Z</time>
      </trkpt>
      <trkpt lat="43.63715" lon="-1.0598">
        <ele>51.2</ele>
        <time>2025-07-23T10:07:01Z</time>
      </trkpt>
      <trkpt lat="43.6376" lon="-1.05971">
        <ele>51.8</ele>
        <time>2025-07-23T10:07:10Z</time>
      </trkpt>
      <trkpt lat="43.63786" lon="-1.05964">
        <ele>52.2</ele>
        <time>2025-07-23T10:07:15Z</time>
      </trkpt>
      <trkpt lat="43.63812" lon="-1.05959">
        <ele>52.6</ele>
        <time>2025-07-23T10:07:20Z</time>
      </trkpt>
      <trkpt lat="43.63825" lon="-1.05956">
        <ele>52.8</ele>
        <time>2025-07-23T10:07:23Z</time>
      </trkpt>
      <trkpt lat="43.63848" lon="-1.05951">
        <ele>52.8</ele>
        <time>2025-07-23T10:07:27Z</time>
      </trkpt>
      <trkpt lat="43.63865" lon="-1.05948">
        <ele>53.2</ele>
        <time>2025-07-23T10:07:30Z</time>
      </trkpt>
      <trkpt lat="43.63874" lon="-1.05946">
        <ele>53.4</ele>
        <time>2025-07-23T10:07:32Z</time>
      </trkpt>
      <trkpt lat="43.63886" lon="-1.05944">
        <ele>53.6</ele>
        <time>2025-07-23T10:07:34Z</time>
      </trkpt>
      <trkpt lat="43.63937" lon="-1.05929">
        <ele>54</ele>
        <time>2025-07-23T10:07:43Z</time>
      </trkpt>
      <trkpt lat="43.63985" lon="-1.05902">
        <ele>53.8</ele>
        <time>2025-07-23T10:07:50Z</time>
      </trkpt>
      <trkpt lat="43.64018" lon="-1.0588">
        <ele>52.2</ele>
        <time>2025-07-23T10:07:54Z</time>
      </trkpt>
      <trkpt lat="43.64026" lon="-1.05874">
        <ele>51.8</ele>
        <time>2025-07-23T10:07:55Z</time>
      </trkpt>
      <trkpt lat="43.64032" lon="-1.05867">
        <ele>51.4</ele>
        <time>2025-07-23T10:07:56Z</time>
      </trkpt>
      <trkpt lat="43.64046" lon="-1.05847">
        <ele>50.6</ele>
        <time>2025-07-23T10:07:58Z</time>
      </trkpt>
      <trkpt lat="43.64059" lon="-1.05818">
        <ele>49.2</ele>
        <time>2025-07-23T10:08:01Z</time>
      </trkpt>
      <trkpt lat="43.64069" lon="-1.05796">
        <ele>48.8</ele>
        <time>2025-07-23T10:08:03Z</time>
      </trkpt>
      <trkpt lat="43.64087" lon="-1.05761">
        <ele>48.4</ele>
        <time>2025-07-23T10:08:07Z</time>
      </trkpt>
      <trkpt lat="43.64094" lon="-1.05753">
        <ele>48.4</ele>
        <time>2025-07-23T10:08:08Z</time>
      </trkpt>
      <trkpt lat="43.64101" lon="-1.05747">
        <ele>48.4</ele>
        <time>2025-07-23T10:08:09Z</time>
      </trkpt>
      <trkpt lat="43.64132" lon="-1.05725">
        <ele>48.4</ele>
        <time>2025-07-23T10:08:14Z</time>
      </trkpt>
      <trkpt lat="43.64147" lon="-1.05714">
        <ele>48.8</ele>
        <time>2025-07-23T10:08:17Z</time>
      </trkpt>
      <trkpt lat="43.64155" lon="-1.05707">
        <ele>49</ele>
        <time>2025-07-23T10:08:19Z</time>
      </trkpt>
      <trkpt lat="43.6417" lon="-1.05694">
        <ele>50.4</ele>
        <time>2025-07-23T10:08:24Z</time>
      </trkpt>
      <trkpt lat="43.64183" lon="-1.05685">
        <ele>51.6</ele>
        <time>2025-07-23T10:08:28Z</time>
      </trkpt>
      <trkpt lat="43.64187" lon="-1.05681">
        <ele>52</ele>
        <time>2025-07-23T10:08:30Z</time>
      </trkpt>
      <trkpt lat="43.64192" lon="-1.05678">
        <ele>52.6</ele>
        <time>2025-07-23T10:08:32Z</time>
      </trkpt>
      <trkpt lat="43.64201" lon="-1.05671">
        <ele>53.8</ele>
        <time>2025-07-23T10:08:36Z</time>
      </trkpt>
      <trkpt lat="43.64204" lon="-1.05669">
        <ele>54.2</ele>
        <time>2025-07-23T10:08:37Z</time>
      </trkpt>
      <trkpt lat="43.64212" lon="-1.05664">
        <ele>54.8</ele>
        <time>2025-07-23T10:08:40Z</time>
      </trkpt>
      <trkpt lat="43.64217" lon="-1.05659">
        <ele>55.8</ele>
        <time>2025-07-23T10:08:42Z</time>
      </trkpt>
      <trkpt lat="43.64221" lon="-1.05657">
        <ele>56</ele>
        <time>2025-07-23T10:08:43Z</time>
      </trkpt>
      <trkpt lat="43.64234" lon="-1.05646">
        <ele>57.2</ele>
        <time>2025-07-23T10:08:48Z</time>
      </trkpt>
      <trkpt lat="43.64237" lon="-1.05643">
        <ele>57.4</ele>
        <time>2025-07-23T10:08:49Z</time>
      </trkpt>
      <trkpt lat="43.64257" lon="-1.05632">
        <ele>58.4</ele>
        <time>2025-07-23T10:08:53Z</time>
      </trkpt>
      <trkpt lat="43.64262" lon="-1.0563">
        <ele>58.4</ele>
        <time>2025-07-23T10:08:54Z</time>
      </trkpt>
      <trkpt lat="43.64278" lon="-1.05617">
        <ele>59.4</ele>
        <time>2025-07-23T10:08:59Z</time>
      </trkpt>
      <trkpt lat="43.64292" lon="-1.05608">
        <ele>59.8</ele>
        <time>2025-07-23T10:09:02Z</time>
      </trkpt>
      <trkpt lat="43.6431" lon="-1.05593">
        <ele>60.4</ele>
        <time>2025-07-23T10:09:07Z</time>
      </trkpt>
      <trkpt lat="43.64314" lon="-1.05591">
        <ele>60.4</ele>
        <time>2025-07-23T10:09:08Z</time>
      </trkpt>
      <trkpt lat="43.64332" lon="-1.05577">
        <ele>61.4</ele>
        <time>2025-07-23T10:09:13Z</time>
      </trkpt>
      <trkpt lat="43.64347" lon="-1.05566">
        <ele>61.8</ele>
        <time>2025-07-23T10:09:17Z</time>
      </trkpt>
      <trkpt lat="43.64361" lon="-1.05556">
        <ele>62.6</ele>
        <time>2025-07-23T10:09:21Z</time>
      </trkpt>
      <trkpt lat="43.64379" lon="-1.05544">
        <ele>63.4</ele>
        <time>2025-07-23T10:09:26Z</time>
      </trkpt>
      <trkpt lat="43.64382" lon="-1.05542">
        <ele>63.6</ele>
        <time>2025-07-23T10:09:27Z</time>
      </trkpt>
      <trkpt lat="43.64402" lon="-1.05527">
        <ele>64.8</ele>
        <time>2025-07-23T10:09:33Z</time>
      </trkpt>
      <trkpt lat="43.64406" lon="-1.05525">
        <ele>64.8</ele>
        <time>2025-07-23T10:09:34Z</time>
      </trkpt>
      <trkpt lat="43.64428" lon="-1.05512">
        <ele>65.8</ele>
        <time>2025-07-23T10:09:40Z</time>
      </trkpt>
      <trkpt lat="43.64447" lon="-1.05501">
        <ele>66.4</ele>
        <time>2025-07-23T10:09:45Z</time>
      </trkpt>
      <trkpt lat="43.6446" lon="-1.05495">
        <ele>67</ele>
        <time>2025-07-23T10:09:48Z</time>
      </trkpt>
      <trkpt lat="43.64482" lon="-1.05486">
        <ele>67.6</ele>
        <time>2025-07-23T10:09:54Z</time>
      </trkpt>
      <trkpt lat="43.64494" lon="-1.05484">
        <ele>68</ele>
        <time>2025-07-23T10:09:57Z</time>
      </trkpt>
      <trkpt lat="43.64525" lon="-1.05482">
        <ele>69.2</ele>
        <time>2025-07-23T10:10:05Z</time>
      </trkpt>
      <trkpt lat="43.64545" lon="-1.05481">
        <ele>70.2</ele>
        <time>2025-07-23T10:10:10Z</time>
      </trkpt>
      <trkpt lat="43.6456" lon="-1.05481">
        <ele>71.2</ele>
        <time>2025-07-23T10:10:14Z</time>
      </trkpt>
      <trkpt lat="43.64583" lon="-1.05479">
        <ele>72.4</ele>
        <time>2025-07-23T10:10:20Z</time>
      </trkpt>
      <trkpt lat="43.64602" lon="-1.05474">
        <ele>73.2</ele>
        <time>2025-07-23T10:10:25Z</time>
      </trkpt>
      <trkpt lat="43.64609" lon="-1.0547">
        <ele>73.4</ele>
        <time>2025-07-23T10:10:27Z</time>
      </trkpt>
      <trkpt lat="43.64631" lon="-1.05453">
        <ele>74.6</ele>
        <time>2025-07-23T10:10:33Z</time>
      </trkpt>
      <trkpt lat="43.64665" lon="-1.05425">
        <ele>75.6</ele>
        <time>2025-07-23T10:10:43Z</time>
      </trkpt>
      <trkpt lat="43.64685" lon="-1.0541">
        <ele>76.6</ele>
        <time>2025-07-23T10:10:49Z</time>
      </trkpt>
      <trkpt lat="43.64697" lon="-1.054">
        <ele>77.2</ele>
        <time>2025-07-23T10:10:53Z</time>
      </trkpt>
      <trkpt lat="43.64703" lon="-1.05395">
        <ele>77.6</ele>
        <time>2025-07-23T10:10:55Z</time>
      </trkpt>
      <trkpt lat="43.64708" lon="-1.05391">
        <ele>78</ele>
        <time>2025-07-23T10:10:58Z</time>
      </trkpt>
      <trkpt lat="43.64712" lon="-1.05387">
        <ele>78.2</ele>
        <time>2025-07-23T10:11:00Z</time>
      </trkpt>
      <trkpt lat="43.6472" lon="-1.05384">
        <ele>78.6</ele>
        <time>2025-07-23T10:11:03Z</time>
      </trkpt>
      <trkpt lat="43.64724" lon="-1.05382">
        <ele>78.8</ele>
        <time>2025-07-23T10:11:04Z</time>
      </trkpt>
      <trkpt lat="43.64738" lon="-1.05373">
        <ele>79.2</ele>
        <time>2025-07-23T10:11:08Z</time>
      </trkpt>
      <trkpt lat="43.64763" lon="-1.05357">
        <ele>79.8</ele>
        <time>2025-07-23T10:11:15Z</time>
      </trkpt>
      <trkpt lat="43.64788" lon="-1.05341">
        <ele>80.4</ele>
        <time>2025-07-23T10:11:22Z</time>
      </trkpt>
      <trkpt lat="43.64802" lon="-1.05333">
        <ele>80.6</ele>
        <time>2025-07-23T10:11:25Z</time>
      </trkpt>
      <trkpt lat="43.64811" lon="-1.05327">
        <ele>80.6</ele>
        <time>2025-07-23T10:11:27Z</time>
      </trkpt>
      <trkpt lat="43.64844" lon="-1.05305">
        <ele>80.2</ele>
        <time>2025-07-23T10:11:33Z</time>
      </trkpt>
      <trkpt lat="43.64857" lon="-1.05298">
        <ele>80.2</ele>
        <time>2025-07-23T10:11:35Z</time>
      </trkpt>
      <trkpt lat="43.64868" lon="-1.05294">
        <ele>80</ele>
        <time>2025-07-23T10:11:37Z</time>
      </trkpt>
      <trkpt lat="43.64883" lon="-1.05292">
        <ele>79.8</ele>
        <time>2025-07-23T10:11:39Z</time>
      </trkpt>
      <trkpt lat="43.64929" lon="-1.05299">
        <ele>79.6</ele>
        <time>2025-07-23T10:11:46Z</time>
      </trkpt>
      <trkpt lat="43.64949" lon="-1.05305">
        <ele>79.4</ele>
        <time>2025-07-23T10:11:49Z</time>
      </trkpt>
      <trkpt lat="43.64967" lon="-1.05308">
        <ele>79</ele>
        <time>2025-07-23T10:11:52Z</time>
      </trkpt>
      <trkpt lat="43.64983" lon="-1.05311">
        <ele>78.6</ele>
        <time>2025-07-23T10:11:54Z</time>
      </trkpt>
      <trkpt lat="43.6499" lon="-1.05312">
        <ele>78.4</ele>
        <time>2025-07-23T10:11:55Z</time>
      </trkpt>
      <trkpt lat="43.65003" lon="-1.05314">
        <ele>78.2</ele>
        <time>2025-07-23T10:11:57Z</time>
      </trkpt>
      <trkpt lat="43.65049" lon="-1.05314">
        <ele>77.6</ele>
        <time>2025-07-23T10:12:03Z</time>
      </trkpt>
      <trkpt lat="43.6507" lon="-1.05311">
        <ele>77.4</ele>
        <time>2025-07-23T10:12:06Z</time>
      </trkpt>
      <trkpt lat="43.65099" lon="-1.05305">
        <ele>77</ele>
        <time>2025-07-23T10:12:10Z</time>
      </trkpt>
      <trkpt lat="43.65115" lon="-1.05303">
        <ele>76.2</ele>
        <time>2025-07-23T10:12:12Z</time>
      </trkpt>
      <trkpt lat="43.65125" lon="-1.05301">
        <ele>75.8</ele>
        <time>2025-07-23T10:12:13Z</time>
      </trkpt>
      <trkpt lat="43.6514" lon="-1.05299">
        <ele>75.4</ele>
        <time>2025-07-23T10:12:15Z</time>
      </trkpt>
      <trkpt lat="43.65149" lon="-1.05298">
        <ele>75</ele>
        <time>2025-07-23T10:12:16Z</time>
      </trkpt>
      <trkpt lat="43.65178" lon="-1.05292">
        <ele>73.4</ele>
        <time>2025-07-23T10:12:19Z</time>
      </trkpt>
      <trkpt lat="43.65205" lon="-1.05287">
        <ele>72.6</ele>
        <time>2025-07-23T10:12:22Z</time>
      </trkpt>
      <trkpt lat="43.65214" lon="-1.05286">
        <ele>72.2</ele>
        <time>2025-07-23T10:12:23Z</time>
      </trkpt>
      <trkpt lat="43.65239" lon="-1.05283">
        <ele>71</ele>
        <time>2025-07-23T10:12:26Z</time>
      </trkpt>
      <trkpt lat="43.65256" lon="-1.05282">
        <ele>70</ele>
        <time>2025-07-23T10:12:28Z</time>
      </trkpt>
      <trkpt lat="43.65272" lon="-1.05285">
        <ele>69.6</ele>
        <time>2025-07-23T10:12:30Z</time>
      </trkpt>
      <trkpt lat="43.65278" lon="-1.05288">
        <ele>69.2</ele>
        <time>2025-07-23T10:12:31Z</time>
      </trkpt>
      <trkpt lat="43.65286" lon="-1.05294">
        <ele>69.2</ele>
        <time>2025-07-23T10:12:32Z</time>
      </trkpt>
      <trkpt lat="43.65299" lon="-1.05303">
        <ele>68.6</ele>
        <time>2025-07-23T10:12:35Z</time>
      </trkpt>
      <trkpt lat="43.65322" lon="-1.05324">
        <ele>67.4</ele>
        <time>2025-07-23T10:12:38Z</time>
      </trkpt>
      <trkpt lat="43.65338" lon="-1.05335">
        <ele>67</ele>
        <time>2025-07-23T10:12:40Z</time>
      </trkpt>
      <trkpt lat="43.65346" lon="-1.05338">
        <ele>66.6</ele>
        <time>2025-07-23T10:12:41Z</time>
      </trkpt>
      <trkpt lat="43.65353" lon="-1.05339">
        <ele>65.8</ele>
        <time>2025-07-23T10:12:42Z</time>
      </trkpt>
      <trkpt lat="43.65361" lon="-1.05343">
        <ele>65.4</ele>
        <time>2025-07-23T10:12:43Z</time>
      </trkpt>
      <trkpt lat="43.6537" lon="-1.05346">
        <ele>64.6</ele>
        <time>2025-07-23T10:12:44Z</time>
      </trkpt>
      <trkpt lat="43.65377" lon="-1.05349">
        <ele>64</ele>
        <time>2025-07-23T10:12:45Z</time>
      </trkpt>
      <trkpt lat="43.65385" lon="-1.05352">
        <ele>63.6</ele>
        <time>2025-07-23T10:12:46Z</time>
      </trkpt>
      <trkpt lat="43.65407" lon="-1.05358">
        <ele>62.6</ele>
        <time>2025-07-23T10:12:48Z</time>
      </trkpt>
      <trkpt lat="43.6542" lon="-1.05361">
        <ele>61.8</ele>
        <time>2025-07-23T10:12:49Z</time>
      </trkpt>
      <trkpt lat="43.65431" lon="-1.05365">
        <ele>61</ele>
        <time>2025-07-23T10:12:50Z</time>
      </trkpt>
      <trkpt lat="43.65452" lon="-1.05371">
        <ele>59.2</ele>
        <time>2025-07-23T10:12:52Z</time>
      </trkpt>
      <trkpt lat="43.65473" lon="-1.05376">
        <ele>57.4</ele>
        <time>2025-07-23T10:12:54Z</time>
      </trkpt>
      <trkpt lat="43.65483" lon="-1.05376">
        <ele>55.6</ele>
        <time>2025-07-23T10:12:55Z</time>
      </trkpt>
      <trkpt lat="43.65502" lon="-1.05375">
        <ele>53</ele>
        <time>2025-07-23T10:12:57Z</time>
      </trkpt>
      <trkpt lat="43.65512" lon="-1.05375">
        <ele>52.4</ele>
        <time>2025-07-23T10:12:58Z</time>
      </trkpt>
      <trkpt lat="43.65521" lon="-1.05374">
        <ele>51</ele>
        <time>2025-07-23T10:12:59Z</time>
      </trkpt>
      <trkpt lat="43.65528" lon="-1.05371">
        <ele>50.4</ele>
        <time>2025-07-23T10:13:00Z</time>
      </trkpt>
      <trkpt lat="43.65535" lon="-1.05366">
        <ele>49</ele>
        <time>2025-07-23T10:13:01Z</time>
      </trkpt>
      <trkpt lat="43.65544" lon="-1.05361">
        <ele>47.8</ele>
        <time>2025-07-23T10:13:02Z</time>
      </trkpt>
      <trkpt lat="43.6556" lon="-1.05349">
        <ele>45.4</ele>
        <time>2025-07-23T10:13:04Z</time>
      </trkpt>
      <trkpt lat="43.6557" lon="-1.05345">
        <ele>44.8</ele>
        <time>2025-07-23T10:13:05Z</time>
      </trkpt>
      <trkpt lat="43.65581" lon="-1.05345">
        <ele>43</ele>
        <time>2025-07-23T10:13:06Z</time>
      </trkpt>
      <trkpt lat="43.65592" lon="-1.05348">
        <ele>41.8</ele>
        <time>2025-07-23T10:13:07Z</time>
      </trkpt>
      <trkpt lat="43.65601" lon="-1.05354">
        <ele>41.2</ele>
        <time>2025-07-23T10:13:08Z</time>
      </trkpt>
      <trkpt lat="43.6561" lon="-1.05357">
        <ele>39.8</ele>
        <time>2025-07-23T10:13:09Z</time>
      </trkpt>
      <trkpt lat="43.65627" lon="-1.05367">
        <ele>38.4</ele>
        <time>2025-07-23T10:13:11Z</time>
      </trkpt>
      <trkpt lat="43.65645" lon="-1.05373">
        <ele>37.6</ele>
        <time>2025-07-23T10:13:13Z</time>
      </trkpt>
      <trkpt lat="43.65653" lon="-1.05375">
        <ele>37</ele>
        <time>2025-07-23T10:13:14Z</time>
      </trkpt>
      <trkpt lat="43.65688" lon="-1.0538">
        <ele>36</ele>
        <time>2025-07-23T10:13:18Z</time>
      </trkpt>
      <trkpt lat="43.65711" lon="-1.05383">
        <ele>35.8</ele>
        <time>2025-07-23T10:13:21Z</time>
      </trkpt>
      <trkpt lat="43.65718" lon="-1.05385">
        <ele>35.8</ele>
        <time>2025-07-23T10:13:22Z</time>
      </trkpt>
      <trkpt lat="43.65728" lon="-1.05387">
        <ele>35.6</ele>
        <time>2025-07-23T10:13:24Z</time>
      </trkpt>
      <trkpt lat="43.65739" lon="-1.05385">
        <ele>35.6</ele>
        <time>2025-07-23T10:13:26Z</time>
      </trkpt>
      <trkpt lat="43.65757" lon="-1.05379">
        <ele>35.4</ele>
        <time>2025-07-23T10:13:29Z</time>
      </trkpt>
      <trkpt lat="43.6579" lon="-1.05366">
        <ele>35.6</ele>
        <time>2025-07-23T10:13:35Z</time>
      </trkpt>
      <trkpt lat="43.6581" lon="-1.05358">
        <ele>36.6</ele>
        <time>2025-07-23T10:13:40Z</time>
      </trkpt>
      <trkpt lat="43.65823" lon="-1.05352">
        <ele>37.2</ele>
        <time>2025-07-23T10:13:44Z</time>
      </trkpt>
      <trkpt lat="43.65829" lon="-1.05349">
        <ele>38</ele>
        <time>2025-07-23T10:13:46Z</time>
      </trkpt>
      <trkpt lat="43.65835" lon="-1.05346">
        <ele>38.4</ele>
        <time>2025-07-23T10:13:48Z</time>
      </trkpt>
      <trkpt lat="43.65843" lon="-1.0534">
        <ele>39.4</ele>
        <time>2025-07-23T10:13:51Z</time>
      </trkpt>
      <trkpt lat="43.65849" lon="-1.05337">
        <ele>39.8</ele>
        <time>2025-07-23T10:13:53Z</time>
      </trkpt>
      <trkpt lat="43.65855" lon="-1.05333">
        <ele>40.6</ele>
        <time>2025-07-23T10:13:56Z</time>
      </trkpt>
      <trkpt lat="43.65859" lon="-1.05329">
        <ele>41</ele>
        <time>2025-07-23T10:13:58Z</time>
      </trkpt>
      <trkpt lat="43.65865" lon="-1.05324">
        <ele>41.8</ele>
        <time>2025-07-23T10:14:01Z</time>
      </trkpt>
      <trkpt lat="43.65873" lon="-1.05317">
        <ele>42.6</ele>
        <time>2025-07-23T10:14:05Z</time>
      </trkpt>
      <trkpt lat="43.65876" lon="-1.05315">
        <ele>43</ele>
        <time>2025-07-23T10:14:06Z</time>
      </trkpt>
      <trkpt lat="43.65887" lon="-1.05302">
        <ele>44</ele>
        <time>2025-07-23T10:14:11Z</time>
      </trkpt>
      <trkpt lat="43.65889" lon="-1.05299">
        <ele>44</ele>
        <time>2025-07-23T10:14:12Z</time>
      </trkpt>
      <trkpt lat="43.65897" lon="-1.05289">
        <ele>45</ele>
        <time>2025-07-23T10:14:16Z</time>
      </trkpt>
      <trkpt lat="43.65908" lon="-1.0528">
        <ele>45.8</ele>
        <time>2025-07-23T10:14:19Z</time>
      </trkpt>
      <trkpt lat="43.65909" lon="-1.05277">
        <ele>46</ele>
        <time>2025-07-23T10:14:20Z</time>
      </trkpt>
      <trkpt lat="43.65918" lon="-1.05261">
        <ele>47.2</ele>
        <time>2025-07-23T10:14:25Z</time>
      </trkpt>
      <trkpt lat="43.6592" lon="-1.05256">
        <ele>47.2</ele>
        <time>2025-07-23T10:14:26Z</time>
      </trkpt>
      <trkpt lat="43.65928" lon="-1.0524">
        <ele>48.2</ele>
        <time>2025-07-23T10:14:30Z</time>
      </trkpt>
      <trkpt lat="43.65934" lon="-1.05231">
        <ele>48.6</ele>
        <time>2025-07-23T10:14:32Z</time>
      </trkpt>
      <trkpt lat="43.65944" lon="-1.05213">
        <ele>49.2</ele>
        <time>2025-07-23T10:14:36Z</time>
      </trkpt>
      <trkpt lat="43.65949" lon="-1.05206">
        <ele>49.6</ele>
        <time>2025-07-23T10:14:38Z</time>
      </trkpt>
      <trkpt lat="43.65956" lon="-1.05193">
        <ele>50.4</ele>
        <time>2025-07-23T10:14:41Z</time>
      </trkpt>
      <trkpt lat="43.65962" lon="-1.05182">
        <ele>51</ele>
        <time>2025-07-23T10:14:44Z</time>
      </trkpt>
      <trkpt lat="43.65973" lon="-1.05162">
        <ele>51.6</ele>
        <time>2025-07-23T10:14:49Z</time>
      </trkpt>
      <trkpt lat="43.65977" lon="-1.05148">
        <ele>52</ele>
        <time>2025-07-23T10:14:52Z</time>
      </trkpt>
      <trkpt lat="43.65986" lon="-1.05114">
        <ele>52.4</ele>
        <time>2025-07-23T10:14:58Z</time>
      </trkpt>
      <trkpt lat="43.65992" lon="-1.05096">
        <ele>52.4</ele>
        <time>2025-07-23T10:15:00Z</time>
      </trkpt>
      <trkpt lat="43.65998" lon="-1.05071">
        <ele>52.2</ele>
        <time>2025-07-23T10:15:04Z</time>
      </trkpt>
      <trkpt lat="43.66003" lon="-1.05053">
        <ele>52.2</ele>
        <time>2025-07-23T10:15:07Z</time>
      </trkpt>
      <trkpt lat="43.66006" lon="-1.0505">
        <ele>52.2</ele>
        <time>2025-07-23T10:15:08Z</time>
      </trkpt>
      <trkpt lat="43.66009" lon="-1.0505">
        <ele>52</ele>
        <time>2025-07-23T10:15:09Z</time>
      </trkpt>
      <trkpt lat="43.66017" lon="-1.05051">
        <ele>52</ele>
        <time>2025-07-23T10:15:11Z</time>
      </trkpt>
      <trkpt lat="43.66028" lon="-1.0505">
        <ele>51.8</ele>
        <time>2025-07-23T10:15:14Z</time>
      </trkpt>
      <trkpt lat="43.66037" lon="-1.05046">
        <ele>51.8</ele>
        <time>2025-07-23T10:15:16Z</time>
      </trkpt>
      <trkpt lat="43.66059" lon="-1.05037">
        <ele>51.4</ele>
        <time>2025-07-23T10:15:21Z</time>
      </trkpt>
      <trkpt lat="43.66066" lon="-1.05034">
        <ele>51.4</ele>
        <time>2025-07-23T10:15:23Z</time>
      </trkpt>
      <trkpt lat="43.6607" lon="-1.05032">
        <ele>51.4</ele>
        <time>2025-07-23T10:15:24Z</time>
      </trkpt>
      <trkpt lat="43.66092" lon="-1.05022">
        <ele>51.6</ele>
        <time>2025-07-23T10:15:29Z</time>
      </trkpt>
      <trkpt lat="43.66102" lon="-1.05017">
        <ele>51.8</ele>
        <time>2025-07-23T10:15:31Z</time>
      </trkpt>
      <trkpt lat="43.66115" lon="-1.05011">
        <ele>52.4</ele>
        <time>2025-07-23T10:15:34Z</time>
      </trkpt>
      <trkpt lat="43.66124" lon="-1.05007">
        <ele>52.8</ele>
        <time>2025-07-23T10:15:36Z</time>
      </trkpt>
      <trkpt lat="43.66136" lon="-1.05001">
        <ele>53.4</ele>
        <time>2025-07-23T10:15:39Z</time>
      </trkpt>
      <trkpt lat="43.66164" lon="-1.04989">
        <ele>54.4</ele>
        <time>2025-07-23T10:15:46Z</time>
      </trkpt>
      <trkpt lat="43.66167" lon="-1.04988">
        <ele>54.4</ele>
        <time>2025-07-23T10:15:47Z</time>
      </trkpt>
      <trkpt lat="43.66204" lon="-1.04974">
        <ele>55.2</ele>
        <time>2025-07-23T10:15:55Z</time>
      </trkpt>
      <trkpt lat="43.66256" lon="-1.04956">
        <ele>55.4</ele>
        <time>2025-07-23T10:16:06Z</time>
      </trkpt>
      <trkpt lat="43.6626" lon="-1.04955">
        <ele>55.6</ele>
        <time>2025-07-23T10:16:07Z</time>
      </trkpt>
      <trkpt lat="43.66308" lon="-1.04938">
        <ele>56</ele>
        <time>2025-07-23T10:16:17Z</time>
      </trkpt>
      <trkpt lat="43.66358" lon="-1.04921">
        <ele>56.6</ele>
        <time>2025-07-23T10:16:27Z</time>
      </trkpt>
      <trkpt lat="43.66409" lon="-1.04904">
        <ele>57.2</ele>
        <time>2025-07-23T10:16:38Z</time>
      </trkpt>
      <trkpt lat="43.6645" lon="-1.0489">
        <ele>57</ele>
        <time>2025-07-23T10:16:45Z</time>
      </trkpt>
      <trkpt lat="43.66483" lon="-1.04879">
        <ele>55.4</ele>
        <time>2025-07-23T10:16:49Z</time>
      </trkpt>
      <trkpt lat="43.66492" lon="-1.04877">
        <ele>55.4</ele>
        <time>2025-07-23T10:16:50Z</time>
      </trkpt>
      <trkpt lat="43.66513" lon="-1.04873">
        <ele>54.2</ele>
        <time>2025-07-23T10:16:52Z</time>
      </trkpt>
      <trkpt lat="43.66532" lon="-1.04874">
        <ele>53.2</ele>
        <time>2025-07-23T10:16:54Z</time>
      </trkpt>
      <trkpt lat="43.6654" lon="-1.04875">
        <ele>52</ele>
        <time>2025-07-23T10:16:55Z</time>
      </trkpt>
      <trkpt lat="43.66551" lon="-1.04876">
        <ele>50.8</ele>
        <time>2025-07-23T10:16:56Z</time>
      </trkpt>
      <trkpt lat="43.66573" lon="-1.04876">
        <ele>49.2</ele>
        <time>2025-07-23T10:16:58Z</time>
      </trkpt>
      <trkpt lat="43.66593" lon="-1.04876">
        <ele>46.8</ele>
        <time>2025-07-23T10:17:00Z</time>
      </trkpt>
      <trkpt lat="43.66613" lon="-1.04875">
        <ele>44.8</ele>
        <time>2025-07-23T10:17:02Z</time>
      </trkpt>
      <trkpt lat="43.66626" lon="-1.04875">
        <ele>43.4</ele>
        <time>2025-07-23T10:17:03Z</time>
      </trkpt>
      <trkpt lat="43.66639" lon="-1.04873">
        <ele>42.4</ele>
        <time>2025-07-23T10:17:04Z</time>
      </trkpt>
      <trkpt lat="43.66651" lon="-1.0487">
        <ele>40.6</ele>
        <time>2025-07-23T10:17:05Z</time>
      </trkpt>
      <trkpt lat="43.66671" lon="-1.04864">
        <ele>38.4</ele>
        <time>2025-07-23T10:17:07Z</time>
      </trkpt>
      <trkpt lat="43.66683" lon="-1.04858">
        <ele>37</ele>
        <time>2025-07-23T10:17:08Z</time>
      </trkpt>
      <trkpt lat="43.66692" lon="-1.04851">
        <ele>36.2</ele>
        <time>2025-07-23T10:17:09Z</time>
      </trkpt>
      <trkpt lat="43.66701" lon="-1.04843">
        <ele>35</ele>
        <time>2025-07-23T10:17:10Z</time>
      </trkpt>
      <trkpt lat="43.66715" lon="-1.04828">
        <ele>33.8</ele>
        <time>2025-07-23T10:17:12Z</time>
      </trkpt>
      <trkpt lat="43.66722" lon="-1.04817">
        <ele>33.6</ele>
        <time>2025-07-23T10:17:13Z</time>
      </trkpt>
      <trkpt lat="43.66741" lon="-1.0478">
        <ele>33.2</ele>
        <time>2025-07-23T10:17:17Z</time>
      </trkpt>
      <trkpt lat="43.66761" lon="-1.04739">
        <ele>33.6</ele>
        <time>2025-07-23T10:17:22Z</time>
      </trkpt>
      <trkpt lat="43.66767" lon="-1.04727">
        <ele>34.2</ele>
        <time>2025-07-23T10:17:24Z</time>
      </trkpt>
      <trkpt lat="43.66772" lon="-1.04718">
        <ele>34.8</ele>
        <time>2025-07-23T10:17:26Z</time>
      </trkpt>
      <trkpt lat="43.66779" lon="-1.04705">
        <ele>35.8</ele>
        <time>2025-07-23T10:17:29Z</time>
      </trkpt>
      <trkpt lat="43.6678" lon="-1.04702">
        <ele>36</ele>
        <time>2025-07-23T10:17:30Z</time>
      </trkpt>
      <trkpt lat="43.66785" lon="-1.0469">
        <ele>37.2</ele>
        <time>2025-07-23T10:17:33Z</time>
      </trkpt>
      <trkpt lat="43.6679" lon="-1.04678">
        <ele>38.4</ele>
        <time>2025-07-23T10:17:37Z</time>
      </trkpt>
      <trkpt lat="43.66793" lon="-1.04672">
        <ele>39.2</ele>
        <time>2025-07-23T10:17:39Z</time>
      </trkpt>
      <trkpt lat="43.66797" lon="-1.04664">
        <ele>39.8</ele>
        <time>2025-07-23T10:17:41Z</time>
      </trkpt>
      <trkpt lat="43.66803" lon="-1.0465">
        <ele>41</ele>
        <time>2025-07-23T10:17:45Z</time>
      </trkpt>
      <trkpt lat="43.66808" lon="-1.04646">
        <ele>41.4</ele>
        <time>2025-07-23T10:17:46Z</time>
      </trkpt>
      <trkpt lat="43.66821" lon="-1.0463">
        <ele>42.4</ele>
        <time>2025-07-23T10:17:50Z</time>
      </trkpt>
      <trkpt lat="43.6684" lon="-1.04616">
        <ele>43.6</ele>
        <time>2025-07-23T10:17:55Z</time>
      </trkpt>
      <trkpt lat="43.66845" lon="-1.04613">
        <ele>43.6</ele>
        <time>2025-07-23T10:17:56Z</time>
      </trkpt>
      <trkpt lat="43.66857" lon="-1.04605">
        <ele>43.8</ele>
        <time>2025-07-23T10:17:59Z</time>
      </trkpt>
      <trkpt lat="43.66869" lon="-1.04595">
        <ele>44</ele>
        <time>2025-07-23T10:18:02Z</time>
      </trkpt>
      <trkpt lat="43.66873" lon="-1.0459">
        <ele>44</ele>
        <time>2025-07-23T10:18:03Z</time>
      </trkpt>
      <trkpt lat="43.66888" lon="-1.04567">
        <ele>44.2</ele>
        <time>2025-07-23T10:18:08Z</time>
      </trkpt>
      <trkpt lat="43.66899" lon="-1.04549">
        <ele>44.4</ele>
        <time>2025-07-23T10:18:12Z</time>
      </trkpt>
      <trkpt lat="43.66913" lon="-1.04526">
        <ele>44.8</ele>
        <time>2025-07-23T10:18:17Z</time>
      </trkpt>
      <trkpt lat="43.66926" lon="-1.0451">
        <ele>45.4</ele>
        <time>2025-07-23T10:18:21Z</time>
      </trkpt>
      <trkpt lat="43.6693" lon="-1.04507">
        <ele>45.6</ele>
        <time>2025-07-23T10:18:22Z</time>
      </trkpt>
      <trkpt lat="43.66934" lon="-1.04505">
        <ele>45.8</ele>
        <time>2025-07-23T10:18:23Z</time>
      </trkpt>
      <trkpt lat="43.66942" lon="-1.04502">
        <ele>46.2</ele>
        <time>2025-07-23T10:18:25Z</time>
      </trkpt>
      <trkpt lat="43.66956" lon="-1.04501">
        <ele>46.6</ele>
        <time>2025-07-23T10:18:28Z</time>
      </trkpt>
      <trkpt lat="43.66976" lon="-1.04498">
        <ele>47</ele>
        <time>2025-07-23T10:18:32Z</time>
      </trkpt>
      <trkpt lat="43.66981" lon="-1.04495">
        <ele>47</ele>
        <time>2025-07-23T10:18:33Z</time>
      </trkpt>
      <trkpt lat="43.66986" lon="-1.04491">
        <ele>47</ele>
        <time>2025-07-23T10:18:34Z</time>
      </trkpt>
      <trkpt lat="43.67" lon="-1.04473">
        <ele>47</ele>
        <time>2025-07-23T10:18:38Z</time>
      </trkpt>
      <trkpt lat="43.67003" lon="-1.04468">
        <ele>47.2</ele>
        <time>2025-07-23T10:18:39Z</time>
      </trkpt>
      <trkpt lat="43.67012" lon="-1.04448">
        <ele>47.8</ele>
        <time>2025-07-23T10:18:43Z</time>
      </trkpt>
      <trkpt lat="43.67026" lon="-1.04415">
        <ele>48.8</ele>
        <time>2025-07-23T10:18:50Z</time>
      </trkpt>
      <trkpt lat="43.67035" lon="-1.04394">
        <ele>50.4</ele>
        <time>2025-07-23T10:18:55Z</time>
      </trkpt>
      <trkpt lat="43.67039" lon="-1.04386">
        <ele>50.8</ele>
        <time>2025-07-23T10:18:57Z</time>
      </trkpt>
      <trkpt lat="43.67044" lon="-1.04375">
        <ele>51.4</ele>
        <time>2025-07-23T10:19:00Z</time>
      </trkpt>
      <trkpt lat="43.6705" lon="-1.04365">
        <ele>51.8</ele>
        <time>2025-07-23T10:19:03Z</time>
      </trkpt>
      <trkpt lat="43.67055" lon="-1.04359">
        <ele>52.4</ele>
        <time>2025-07-23T10:19:05Z</time>
      </trkpt>
      <trkpt lat="43.67065" lon="-1.04351">
        <ele>53.6</ele>
        <time>2025-07-23T10:19:09Z</time>
      </trkpt>
      <trkpt lat="43.67071" lon="-1.04349">
        <ele>54.2</ele>
        <time>2025-07-23T10:19:11Z</time>
      </trkpt>
      <trkpt lat="43.67076" lon="-1.04347">
        <ele>54.8</ele>
        <time>2025-07-23T10:19:13Z</time>
      </trkpt>
      <trkpt lat="43.67087" lon="-1.04344">
        <ele>55.8</ele>
        <time>2025-07-23T10:19:17Z</time>
      </trkpt>
      <trkpt lat="43.67092" lon="-1.04344">
        <ele>56.6</ele>
        <time>2025-07-23T10:19:19Z</time>
      </trkpt>
      <trkpt lat="43.67096" lon="-1.04344">
        <ele>57</ele>
        <time>2025-07-23T10:19:21Z</time>
      </trkpt>
      <trkpt lat="43.67111" lon="-1.04342">
        <ele>58.2</ele>
        <time>2025-07-23T10:19:26Z</time>
      </trkpt>
      <trkpt lat="43.67133" lon="-1.04344">
        <ele>59.2</ele>
        <time>2025-07-23T10:19:32Z</time>
      </trkpt>
      <trkpt lat="43.67136" lon="-1.04345">
        <ele>59.8</ele>
        <time>2025-07-23T10:19:33Z</time>
      </trkpt>
      <trkpt lat="43.67141" lon="-1.04344">
        <ele>60.4</ele>
        <time>2025-07-23T10:19:35Z</time>
      </trkpt>
      <trkpt lat="43.67152" lon="-1.04345">
        <ele>61</ele>
        <time>2025-07-23T10:19:38Z</time>
      </trkpt>
      <trkpt lat="43.67163" lon="-1.04346">
        <ele>61.6</ele>
        <time>2025-07-23T10:19:42Z</time>
      </trkpt>
      <trkpt lat="43.67185" lon="-1.04348">
        <ele>62.8</ele>
        <time>2025-07-23T10:19:47Z</time>
      </trkpt>
      <trkpt lat="43.67188" lon="-1.04348">
        <ele>63</ele>
        <time>2025-07-23T10:19:48Z</time>
      </trkpt>
      <trkpt lat="43.67207" lon="-1.04348">
        <ele>64</ele>
        <time>2025-07-23T10:19:54Z</time>
      </trkpt>
      <trkpt lat="43.67209" lon="-1.04346">
        <ele>64</ele>
        <time>2025-07-23T10:19:55Z</time>
      </trkpt>
      <trkpt lat="43.67213" lon="-1.04345">
        <ele>64.2</ele>
        <time>2025-07-23T10:19:56Z</time>
      </trkpt>
      <trkpt lat="43.67218" lon="-1.04347">
        <ele>64.4</ele>
        <time>2025-07-23T10:19:58Z</time>
      </trkpt>
      <trkpt lat="43.6723" lon="-1.04357">
        <ele>64.6</ele>
        <time>2025-07-23T10:20:02Z</time>
      </trkpt>
      <trkpt lat="43.6724" lon="-1.04358">
        <ele>64.6</ele>
        <time>2025-07-23T10:20:04Z</time>
      </trkpt>
      <trkpt lat="43.67257" lon="-1.04357">
        <ele>64.4</ele>
        <time>2025-07-23T10:20:07Z</time>
      </trkpt>
      <trkpt lat="43.67263" lon="-1.04357">
        <ele>64.2</ele>
        <time>2025-07-23T10:20:08Z</time>
      </trkpt>
      <trkpt lat="43.67288" lon="-1.04355">
        <ele>63.6</ele>
        <time>2025-07-23T10:20:12Z</time>
      </trkpt>
      <trkpt lat="43.67301" lon="-1.04354">
        <ele>62.8</ele>
        <time>2025-07-23T10:20:14Z</time>
      </trkpt>
      <trkpt lat="43.67331" lon="-1.04349">
        <ele>61.8</ele>
        <time>2025-07-23T10:20:18Z</time>
      </trkpt>
      <trkpt lat="43.67337" lon="-1.04347">
        <ele>61.2</ele>
        <time>2025-07-23T10:20:19Z</time>
      </trkpt>
      <trkpt lat="43.67357" lon="-1.04335">
        <ele>60.2</ele>
        <time>2025-07-23T10:20:22Z</time>
      </trkpt>
      <trkpt lat="43.67365" lon="-1.04329">
        <ele>59.6</ele>
        <time>2025-07-23T10:20:23Z</time>
      </trkpt>
      <trkpt lat="43.67379" lon="-1.04317">
        <ele>58.6</ele>
        <time>2025-07-23T10:20:25Z</time>
      </trkpt>
      <trkpt lat="43.67393" lon="-1.04302">
        <ele>57.6</ele>
        <time>2025-07-23T10:20:27Z</time>
      </trkpt>
      <trkpt lat="43.67407" lon="-1.04284">
        <ele>56.2</ele>
        <time>2025-07-23T10:20:29Z</time>
      </trkpt>
      <trkpt lat="43.67414" lon="-1.04275">
        <ele>55.2</ele>
        <time>2025-07-23T10:20:30Z</time>
      </trkpt>
      <trkpt lat="43.67428" lon="-1.04257">
        <ele>53</ele>
        <time>2025-07-23T10:20:32Z</time>
      </trkpt>
      <trkpt lat="43.67437" lon="-1.04247">
        <ele>52</ele>
        <time>2025-07-23T10:20:33Z</time>
      </trkpt>
      <trkpt lat="43.67445" lon="-1.0424">
        <ele>51.4</ele>
        <time>2025-07-23T10:20:34Z</time>
      </trkpt>
      <trkpt lat="43.67452" lon="-1.04235">
        <ele>50.4</ele>
        <time>2025-07-23T10:20:35Z</time>
      </trkpt>
      <trkpt lat="43.67461" lon="-1.0423">
        <ele>49.8</ele>
        <time>2025-07-23T10:20:36Z</time>
      </trkpt>
      <trkpt lat="43.67471" lon="-1.04226">
        <ele>48.4</ele>
        <time>2025-07-23T10:20:37Z</time>
      </trkpt>
      <trkpt lat="43.67481" lon="-1.04221">
        <ele>47.2</ele>
        <time>2025-07-23T10:20:38Z</time>
      </trkpt>
      <trkpt lat="43.675" lon="-1.04211">
        <ele>45.8</ele>
        <time>2025-07-23T10:20:40Z</time>
      </trkpt>
      <trkpt lat="43.67516" lon="-1.04203">
        <ele>44.2</ele>
        <time>2025-07-23T10:20:42Z</time>
      </trkpt>
      <trkpt lat="43.67536" lon="-1.04197">
        <ele>41.8</ele>
        <time>2025-07-23T10:20:44Z</time>
      </trkpt>
      <trkpt lat="43.67544" lon="-1.04196">
        <ele>40.2</ele>
        <time>2025-07-23T10:20:45Z</time>
      </trkpt>
      <trkpt lat="43.67544" lon="-1.04196">
        <ele>39.4</ele>
        <time>2025-07-23T10:20:46Z</time>
      </trkpt>
      <trkpt lat="43.67561" lon="-1.04201">
        <ele>37.8</ele>
        <time>2025-07-23T10:20:47Z</time>
      </trkpt>
      <trkpt lat="43.6757" lon="-1.04207">
        <ele>36.8</ele>
        <time>2025-07-23T10:20:48Z</time>
      </trkpt>
      <trkpt lat="43.67578" lon="-1.04213">
        <ele>35.4</ele>
        <time>2025-07-23T10:20:49Z</time>
      </trkpt>
      <trkpt lat="43.67587" lon="-1.04218">
        <ele>33.4</ele>
        <time>2025-07-23T10:20:50Z</time>
      </trkpt>
      <trkpt lat="43.67601" lon="-1.04222">
        <ele>31</ele>
        <time>2025-07-23T10:20:52Z</time>
      </trkpt>
      <trkpt lat="43.67608" lon="-1.04221">
        <ele>29</ele>
        <time>2025-07-23T10:20:54Z</time>
      </trkpt>
      <trkpt lat="43.6761" lon="-1.0422">
        <ele>27.2</ele>
        <time>2025-07-23T10:20:56Z</time>
      </trkpt>
      <trkpt lat="43.6761" lon="-1.0422">
        <ele>26</ele>
        <time>2025-07-23T10:20:57Z</time>
      </trkpt>
      <trkpt lat="43.67612" lon="-1.0422">
        <ele>24.6</ele>
        <time>2025-07-23T10:21:20Z</time>
      </trkpt>
      <trkpt lat="43.67618" lon="-1.04223">
        <ele>24.6</ele>
        <time>2025-07-23T10:21:22Z</time>
      </trkpt>
      <trkpt lat="43.67625" lon="-1.04226">
        <ele>24.6</ele>
        <time>2025-07-23T10:21:24Z</time>
      </trkpt>
      <trkpt lat="43.67632" lon="-1.04225">
        <ele>24.6</ele>
        <time>2025-07-23T10:21:26Z</time>
      </trkpt>
      <trkpt lat="43.67646" lon="-1.04217">
        <ele>24.6</ele>
        <time>2025-07-23T10:21:30Z</time>
      </trkpt>
      <trkpt lat="43.67682" lon="-1.04197">
        <ele>24.8</ele>
        <time>2025-07-23T10:21:36Z</time>
      </trkpt>
      <trkpt lat="43.67718" lon="-1.04178">
        <ele>24.6</ele>
        <time>2025-07-23T10:21:42Z</time>
      </trkpt>
      <trkpt lat="43.67769" lon="-1.04151">
        <ele>24.4</ele>
        <time>2025-07-23T10:21:50Z</time>
      </trkpt>
      <trkpt lat="43.67819" lon="-1.04124">
        <ele>24</ele>
        <time>2025-07-23T10:21:58Z</time>
      </trkpt>
      <trkpt lat="43.67852" lon="-1.04117">
        <ele>24</ele>
        <time>2025-07-23T10:22:03Z</time>
      </trkpt>
      <trkpt lat="43.67859" lon="-1.04118">
        <ele>24</ele>
        <time>2025-07-23T10:22:04Z</time>
      </trkpt>
      <trkpt lat="43.67891" lon="-1.04128">
        <ele>24</ele>
        <time>2025-07-23T10:22:09Z</time>
      </trkpt>
      <trkpt lat="43.67935" lon="-1.04151">
        <ele>24.2</ele>
        <time>2025-07-23T10:22:16Z</time>
      </trkpt>
      <trkpt lat="43.67977" lon="-1.04176">
        <ele>24</ele>
        <time>2025-07-23T10:22:23Z</time>
      </trkpt>
      <trkpt lat="43.68019" lon="-1.04202">
        <ele>24</ele>
        <time>2025-07-23T10:22:31Z</time>
      </trkpt>
      <trkpt lat="43.68075" lon="-1.04235">
        <ele>24.6</ele>
        <time>2025-07-23T10:22:40Z</time>
      </trkpt>
      <trkpt lat="43.68091" lon="-1.04245">
        <ele>24.6</ele>
        <time>2025-07-23T10:22:43Z</time>
      </trkpt>
      <trkpt lat="43.68136" lon="-1.0427">
        <ele>25.2</ele>
        <time>2025-07-23T10:22:51Z</time>
      </trkpt>
      <trkpt lat="43.68158" lon="-1.04283">
        <ele>25.8</ele>
        <time>2025-07-23T10:22:55Z</time>
      </trkpt>
      <trkpt lat="43.6819" lon="-1.04303">
        <ele>25.8</ele>
        <time>2025-07-23T10:23:01Z</time>
      </trkpt>
      <trkpt lat="43.68239" lon="-1.04323">
        <ele>26.6</ele>
        <time>2025-07-23T10:23:10Z</time>
      </trkpt>
      <trkpt lat="43.6825" lon="-1.04326">
        <ele>26.8</ele>
        <time>2025-07-23T10:23:12Z</time>
      </trkpt>
      <trkpt lat="43.68283" lon="-1.04334">
        <ele>27.4</ele>
        <time>2025-07-23T10:23:18Z</time>
      </trkpt>
      <trkpt lat="43.68298" lon="-1.04339">
        <ele>27.8</ele>
        <time>2025-07-23T10:23:21Z</time>
      </trkpt>
      <trkpt lat="43.68335" lon="-1.04347">
        <ele>28.6</ele>
        <time>2025-07-23T10:23:28Z</time>
      </trkpt>
      <trkpt lat="43.68344" lon="-1.0435">
        <ele>28.8</ele>
        <time>2025-07-23T10:23:30Z</time>
      </trkpt>
      <trkpt lat="43.68381" lon="-1.04358">
        <ele>29.6</ele>
        <time>2025-07-23T10:23:37Z</time>
      </trkpt>
      <trkpt lat="43.68396" lon="-1.04362">
        <ele>29.8</ele>
        <time>2025-07-23T10:23:40Z</time>
      </trkpt>
      <trkpt lat="43.68435" lon="-1.04373">
        <ele>30.8</ele>
        <time>2025-07-23T10:23:48Z</time>
      </trkpt>
      <trkpt lat="43.68439" lon="-1.04374">
        <ele>31</ele>
        <time>2025-07-23T10:23:49Z</time>
      </trkpt>
      <trkpt lat="43.68488" lon="-1.04387">
        <ele>32</ele>
        <time>2025-07-23T10:23:59Z</time>
      </trkpt>
      <trkpt lat="43.68526" lon="-1.04398">
        <ele>33.4</ele>
        <time>2025-07-23T10:24:07Z</time>
      </trkpt>
      <trkpt lat="43.68571" lon="-1.04409">
        <ele>34.2</ele>
        <time>2025-07-23T10:24:16Z</time>
      </trkpt>
      <trkpt lat="43.6859" lon="-1.04414">
        <ele>34.2</ele>
        <time>2025-07-23T10:24:20Z</time>
      </trkpt>
      <trkpt lat="43.68617" lon="-1.04422">
        <ele>35</ele>
        <time>2025-07-23T10:24:26Z</time>
      </trkpt>
      <trkpt lat="43.68631" lon="-1.04425">
        <ele>35.6</ele>
        <time>2025-07-23T10:24:29Z</time>
      </trkpt>
      <trkpt lat="43.68655" lon="-1.04431">
        <ele>36.2</ele>
        <time>2025-07-23T10:24:35Z</time>
      </trkpt>
      <trkpt lat="43.68667" lon="-1.04435">
        <ele>36.8</ele>
        <time>2025-07-23T10:24:38Z</time>
      </trkpt>
      <trkpt lat="43.68689" lon="-1.04443">
        <ele>37.4</ele>
        <time>2025-07-23T10:24:44Z</time>
      </trkpt>
      <trkpt lat="43.68693" lon="-1.04445">
        <ele>37.6</ele>
        <time>2025-07-23T10:24:45Z</time>
      </trkpt>
      <trkpt lat="43.68707" lon="-1.04454">
        <ele>38.8</ele>
        <time>2025-07-23T10:24:49Z</time>
      </trkpt>
      <trkpt lat="43.68724" lon="-1.04467">
        <ele>40</ele>
        <time>2025-07-23T10:24:54Z</time>
      </trkpt>
      <trkpt lat="43.68729" lon="-1.0447">
        <ele>40</ele>
        <time>2025-07-23T10:24:55Z</time>
      </trkpt>
      <trkpt lat="43.68753" lon="-1.04487">
        <ele>40.8</ele>
        <time>2025-07-23T10:25:02Z</time>
      </trkpt>
      <trkpt lat="43.68776" lon="-1.04504">
        <ele>41.4</ele>
        <time>2025-07-23T10:25:08Z</time>
      </trkpt>
      <trkpt lat="43.68783" lon="-1.04508">
        <ele>41.8</ele>
        <time>2025-07-23T10:25:10Z</time>
      </trkpt>
      <trkpt lat="43.688" lon="-1.04522">
        <ele>42</ele>
        <time>2025-07-23T10:25:14Z</time>
      </trkpt>
      <trkpt lat="43.68827" lon="-1.04544">
        <ele>42.6</ele>
        <time>2025-07-23T10:25:21Z</time>
      </trkpt>
      <trkpt lat="43.68835" lon="-1.04549">
        <ele>42.8</ele>
        <time>2025-07-23T10:25:23Z</time>
      </trkpt>
      <trkpt lat="43.68845" lon="-1.04557">
        <ele>43.2</ele>
        <time>2025-07-23T10:25:25Z</time>
      </trkpt>
      <trkpt lat="43.68848" lon="-1.04558">
        <ele>43.2</ele>
        <time>2025-07-23T10:25:26Z</time>
      </trkpt>
      <trkpt lat="43.68884" lon="-1.04584">
        <ele>43.8</ele>
        <time>2025-07-23T10:25:34Z</time>
      </trkpt>
      <trkpt lat="43.68909" lon="-1.04601">
        <ele>44</ele>
        <time>2025-07-23T10:25:39Z</time>
      </trkpt>
      <trkpt lat="43.68921" lon="-1.04613">
        <ele>44.4</ele>
        <time>2025-07-23T10:25:42Z</time>
      </trkpt>
      <trkpt lat="43.68944" lon="-1.04627">
        <ele>45</ele>
        <time>2025-07-23T10:25:47Z</time>
      </trkpt>
      <trkpt lat="43.68953" lon="-1.04635">
        <ele>45</ele>
        <time>2025-07-23T10:25:49Z</time>
      </trkpt>
      <trkpt lat="43.68957" lon="-1.04639">
        <ele>45.2</ele>
        <time>2025-07-23T10:25:50Z</time>
      </trkpt>
      <trkpt lat="43.68993" lon="-1.0467">
        <ele>45.8</ele>
        <time>2025-07-23T10:25:58Z</time>
      </trkpt>
      <trkpt lat="43.69015" lon="-1.04692">
        <ele>46.2</ele>
        <time>2025-07-23T10:26:03Z</time>
      </trkpt>
      <trkpt lat="43.69036" lon="-1.04711">
        <ele>46.6</ele>
        <time>2025-07-23T10:26:08Z</time>
      </trkpt>
      <trkpt lat="43.69057" lon="-1.04733">
        <ele>47.2</ele>
        <time>2025-07-23T10:26:13Z</time>
      </trkpt>
      <trkpt lat="43.69061" lon="-1.04736">
        <ele>47.4</ele>
        <time>2025-07-23T10:26:14Z</time>
      </trkpt>
      <trkpt lat="43.69064" lon="-1.0474">
        <ele>47.4</ele>
        <time>2025-07-23T10:26:15Z</time>
      </trkpt>
      <trkpt lat="43.69087" lon="-1.04763">
        <ele>47.8</ele>
        <time>2025-07-23T10:26:22Z</time>
      </trkpt>
      <trkpt lat="43.69092" lon="-1.04767">
        <ele>48.2</ele>
        <time>2025-07-23T10:26:25Z</time>
      </trkpt>
      <trkpt lat="43.69092" lon="-1.0477">
        <ele>48.2</ele>
        <time>2025-07-23T10:26:26Z</time>
      </trkpt>
      <trkpt lat="43.69092" lon="-1.04774">
        <ele>48.2</ele>
        <time>2025-07-23T10:26:27Z</time>
      </trkpt>
      <trkpt lat="43.69087" lon="-1.04781">
        <ele>48.2</ele>
        <time>2025-07-23T10:26:29Z</time>
      </trkpt>
      <trkpt lat="43.6908" lon="-1.04786">
        <ele>48.4</ele>
        <time>2025-07-23T10:26:31Z</time>
      </trkpt>
      <trkpt lat="43.69074" lon="-1.04794">
        <ele>48.6</ele>
        <time>2025-07-23T10:26:34Z</time>
      </trkpt>
      <trkpt lat="43.69072" lon="-1.04809">
        <ele>49.4</ele>
        <time>2025-07-23T10:26:38Z</time>
      </trkpt>
      <trkpt lat="43.69073" lon="-1.04813">
        <ele>49.4</ele>
        <time>2025-07-23T10:26:39Z</time>
      </trkpt>
      <trkpt lat="43.69075" lon="-1.04816">
        <ele>49.8</ele>
        <time>2025-07-23T10:26:40Z</time>
      </trkpt>
      <trkpt lat="43.69078" lon="-1.04821">
        <ele>50.2</ele>
        <time>2025-07-23T10:26:42Z</time>
      </trkpt>
      <trkpt lat="43.69082" lon="-1.04824">
        <ele>50.6</ele>
        <time>2025-07-23T10:26:44Z</time>
      </trkpt>
      <trkpt lat="43.69084" lon="-1.04825">
        <ele>50.8</ele>
        <time>2025-07-23T10:26:46Z</time>
      </trkpt>
      <trkpt lat="43.69084" lon="-1.04825">
        <ele>51.4</ele>
        <time>2025-07-23T10:26:49Z</time>
      </trkpt>
      <trkpt lat="43.691" lon="-1.04719">
        <ele>49.8</ele>
        <time>2025-07-23T11:41:02Z</time>
      </trkpt>
      <trkpt lat="43.69097" lon="-1.04733">
        <ele>51</ele>
        <time>2025-07-23T11:41:03Z</time>
      </trkpt>
      <trkpt lat="43.69096" lon="-1.04732">
        <ele>52</ele>
        <time>2025-07-23T11:41:04Z</time>
      </trkpt>
      <trkpt lat="43.69096" lon="-1.04734">
        <ele>52.4</ele>
        <time>2025-07-23T11:41:05Z</time>
      </trkpt>
      <trkpt lat="43.69097" lon="-1.04801">
        <ele>52.2</ele>
        <time>2025-07-23T11:49:02Z</time>
      </trkpt>
      <trkpt lat="43.69098" lon="-1.04799">
        <ele>52.2</ele>
        <time>2025-07-23T11:49:04Z</time>
      </trkpt>
      <trkpt lat="43.69098" lon="-1.04798">
        <ele>52.2</ele>
        <time>2025-07-23T11:49:05Z</time>
      </trkpt>
      <trkpt lat="43.69102" lon="-1.04794">
        <ele>52.2</ele>
        <time>2025-07-23T11:49:08Z</time>
      </trkpt>
      <trkpt lat="43.69103" lon="-1.04794">
        <ele>52.2</ele>
        <time>2025-07-23T11:49:09Z</time>
      </trkpt>
      <trkpt lat="43.69105" lon="-1.04795">
        <ele>52.2</ele>
        <time>2025-07-23T11:49:10Z</time>
      </trkpt>
      <trkpt lat="43.69111" lon="-1.04802">
        <ele>52.2</ele>
        <time>2025-07-23T11:49:14Z</time>
      </trkpt>
      <trkpt lat="43.69119" lon="-1.04808">
        <ele>51.8</ele>
        <time>2025-07-23T11:49:20Z</time>
      </trkpt>
      <trkpt lat="43.69122" lon="-1.04812">
        <ele>51.8</ele>
        <time>2025-07-23T11:49:22Z</time>
      </trkpt>
      <trkpt lat="43.69125" lon="-1.0482">
        <ele>52</ele>
        <time>2025-07-23T11:49:25Z</time>
      </trkpt>
      <trkpt lat="43.69142" lon="-1.04833">
        <ele>52.4</ele>
        <time>2025-07-23T11:49:33Z</time>
      </trkpt>
      <trkpt lat="43.69156" lon="-1.04846">
        <ele>52.6</ele>
        <time>2025-07-23T11:49:40Z</time>
      </trkpt>
      <trkpt lat="43.69177" lon="-1.04864">
        <ele>52.4</ele>
        <time>2025-07-23T11:49:50Z</time>
      </trkpt>
      <trkpt lat="43.69199" lon="-1.04879">
        <ele>52.4</ele>
        <time>2025-07-23T11:49:58Z</time>
      </trkpt>
      <trkpt lat="43.69218" lon="-1.04892">
        <ele>52</ele>
        <time>2025-07-23T11:50:05Z</time>
      </trkpt>
      <trkpt lat="43.6922" lon="-1.04892">
        <ele>51.8</ele>
        <time>2025-07-23T11:50:06Z</time>
      </trkpt>
      <trkpt lat="43.69224" lon="-1.04889">
        <ele>51.8</ele>
        <time>2025-07-23T11:50:08Z</time>
      </trkpt>
      <trkpt lat="43.69227" lon="-1.04876">
        <ele>51</ele>
        <time>2025-07-23T11:50:13Z</time>
      </trkpt>
      <trkpt lat="43.69228" lon="-1.04876">
        <ele>50.6</ele>
        <time>2025-07-23T11:50:14Z</time>
      </trkpt>
      <trkpt lat="43.69227" lon="-1.04875">
        <ele>50.2</ele>
        <time>2025-07-23T11:50:16Z</time>
      </trkpt>
      <trkpt lat="43.69233" lon="-1.04873">
        <ele>49.8</ele>
        <time>2025-07-23T11:50:21Z</time>
      </trkpt>
      <trkpt lat="43.69246" lon="-1.0488">
        <ele>49.6</ele>
        <time>2025-07-23T11:50:25Z</time>
      </trkpt>
      <trkpt lat="43.69261" lon="-1.0489">
        <ele>49.6</ele>
        <time>2025-07-23T11:50:29Z</time>
      </trkpt>
      <trkpt lat="43.69272" lon="-1.04899">
        <ele>49.4</ele>
        <time>2025-07-23T11:50:32Z</time>
      </trkpt>
      <trkpt lat="43.69288" lon="-1.04909">
        <ele>49.2</ele>
        <time>2025-07-23T11:50:37Z</time>
      </trkpt>
      <trkpt lat="43.69296" lon="-1.04911">
        <ele>48.8</ele>
        <time>2025-07-23T11:50:39Z</time>
      </trkpt>
      <trkpt lat="43.69304" lon="-1.04916">
        <ele>48.6</ele>
        <time>2025-07-23T11:50:41Z</time>
      </trkpt>
      <trkpt lat="43.69307" lon="-1.04922">
        <ele>48.6</ele>
        <time>2025-07-23T11:50:42Z</time>
      </trkpt>
      <trkpt lat="43.69315" lon="-1.04939">
        <ele>48.4</ele>
        <time>2025-07-23T11:50:45Z</time>
      </trkpt>
      <trkpt lat="43.69324" lon="-1.0495">
        <ele>48.2</ele>
        <time>2025-07-23T11:50:47Z</time>
      </trkpt>
      <trkpt lat="43.69337" lon="-1.04963">
        <ele>48.2</ele>
        <time>2025-07-23T11:50:50Z</time>
      </trkpt>
      <trkpt lat="43.69363" lon="-1.04988">
        <ele>47.6</ele>
        <time>2025-07-23T11:50:55Z</time>
      </trkpt>
      <trkpt lat="43.69374" lon="-1.05">
        <ele>47.4</ele>
        <time>2025-07-23T11:50:57Z</time>
      </trkpt>
      <trkpt lat="43.69417" lon="-1.0504">
        <ele>46.6</ele>
        <time>2025-07-23T11:51:05Z</time>
      </trkpt>
      <trkpt lat="43.69438" lon="-1.0506">
        <ele>46.2</ele>
        <time>2025-07-23T11:51:09Z</time>
      </trkpt>
      <trkpt lat="43.69457" lon="-1.05079">
        <ele>45.4</ele>
        <time>2025-07-23T11:51:13Z</time>
      </trkpt>
      <trkpt lat="43.69469" lon="-1.0509">
        <ele>45.2</ele>
        <time>2025-07-23T11:51:15Z</time>
      </trkpt>
      <trkpt lat="43.69494" lon="-1.05115">
        <ele>44.4</ele>
        <time>2025-07-23T11:51:20Z</time>
      </trkpt>
      <trkpt lat="43.69513" lon="-1.05134">
        <ele>44.2</ele>
        <time>2025-07-23T11:51:24Z</time>
      </trkpt>
      <trkpt lat="43.69542" lon="-1.05163">
        <ele>43</ele>
        <time>2025-07-23T11:51:30Z</time>
      </trkpt>
      <trkpt lat="43.69586" lon="-1.05208">
        <ele>42.4</ele>
        <time>2025-07-23T11:51:39Z</time>
      </trkpt>
      <trkpt lat="43.69621" lon="-1.05243">
        <ele>42</ele>
        <time>2025-07-23T11:51:46Z</time>
      </trkpt>
      <trkpt lat="43.69626" lon="-1.05248">
        <ele>42</ele>
        <time>2025-07-23T11:51:47Z</time>
      </trkpt>
      <trkpt lat="43.69669" lon="-1.05291">
        <ele>41</ele>
        <time>2025-07-23T11:51:56Z</time>
      </trkpt>
      <trkpt lat="43.69717" lon="-1.05327">
        <ele>40.8</ele>
        <time>2025-07-23T11:52:05Z</time>
      </trkpt>
      <trkpt lat="43.69763" lon="-1.0535">
        <ele>40.6</ele>
        <time>2025-07-23T11:52:13Z</time>
      </trkpt>
      <trkpt lat="43.69815" lon="-1.05376">
        <ele>39.8</ele>
        <time>2025-07-23T11:52:22Z</time>
      </trkpt>
      <trkpt lat="43.69822" lon="-1.0538">
        <ele>39.8</ele>
        <time>2025-07-23T11:52:23Z</time>
      </trkpt>
      <trkpt lat="43.69873" lon="-1.05408">
        <ele>39.2</ele>
        <time>2025-07-23T11:52:32Z</time>
      </trkpt>
      <trkpt lat="43.69878" lon="-1.05409">
        <ele>39</ele>
        <time>2025-07-23T11:52:33Z</time>
      </trkpt>
      <trkpt lat="43.69883" lon="-1.05409">
        <ele>38.8</ele>
        <time>2025-07-23T11:52:34Z</time>
      </trkpt>
      <trkpt lat="43.69887" lon="-1.05406">
        <ele>38.8</ele>
        <time>2025-07-23T11:52:35Z</time>
      </trkpt>
      <trkpt lat="43.69892" lon="-1.05404">
        <ele>38.8</ele>
        <time>2025-07-23T11:52:36Z</time>
      </trkpt>
      <trkpt lat="43.69896" lon="-1.05403">
        <ele>38.8</ele>
        <time>2025-07-23T11:52:37Z</time>
      </trkpt>
      <trkpt lat="43.69906" lon="-1.05405">
        <ele>38.6</ele>
        <time>2025-07-23T11:52:39Z</time>
      </trkpt>
      <trkpt lat="43.69913" lon="-1.05415">
        <ele>38.6</ele>
        <time>2025-07-23T11:52:41Z</time>
      </trkpt>
      <trkpt lat="43.69915" lon="-1.05421">
        <ele>38.6</ele>
        <time>2025-07-23T11:52:42Z</time>
      </trkpt>
      <trkpt lat="43.69921" lon="-1.05434">
        <ele>38.4</ele>
        <time>2025-07-23T11:52:44Z</time>
      </trkpt>
      <trkpt lat="43.69929" lon="-1.05444">
        <ele>38.2</ele>
        <time>2025-07-23T11:52:46Z</time>
      </trkpt>
      <trkpt lat="43.69956" lon="-1.0547">
        <ele>38</ele>
        <time>2025-07-23T11:52:52Z</time>
      </trkpt>
      <trkpt lat="43.69965" lon="-1.05473">
        <ele>37.8</ele>
        <time>2025-07-23T11:52:54Z</time>
      </trkpt>
      <trkpt lat="43.69974" lon="-1.05475">
        <ele>37.6</ele>
        <time>2025-07-23T11:52:56Z</time>
      </trkpt>
      <trkpt lat="43.69984" lon="-1.05478">
        <ele>37.4</ele>
        <time>2025-07-23T11:52:58Z</time>
      </trkpt>
      <trkpt lat="43.69993" lon="-1.05477">
        <ele>37.4</ele>
        <time>2025-07-23T11:53:00Z</time>
      </trkpt>
      <trkpt lat="43.70018" lon="-1.05461">
        <ele>37.2</ele>
        <time>2025-07-23T11:53:05Z</time>
      </trkpt>
      <trkpt lat="43.70072" lon="-1.05424">
        <ele>37</ele>
        <time>2025-07-23T11:53:15Z</time>
      </trkpt>
      <trkpt lat="43.70078" lon="-1.05421">
        <ele>37</ele>
        <time>2025-07-23T11:53:16Z</time>
      </trkpt>
      <trkpt lat="43.70099" lon="-1.05407">
        <ele>37.2</ele>
        <time>2025-07-23T11:53:20Z</time>
      </trkpt>
      <trkpt lat="43.70115" lon="-1.05396">
        <ele>37.2</ele>
        <time>2025-07-23T11:53:23Z</time>
      </trkpt>
      <trkpt lat="43.70137" lon="-1.05382">
        <ele>37.2</ele>
        <time>2025-07-23T11:53:27Z</time>
      </trkpt>
      <trkpt lat="43.70176" lon="-1.05358">
        <ele>36.8</ele>
        <time>2025-07-23T11:53:34Z</time>
      </trkpt>
      <trkpt lat="43.70186" lon="-1.05353">
        <ele>36.6</ele>
        <time>2025-07-23T11:53:36Z</time>
      </trkpt>
      <trkpt lat="43.70241" lon="-1.05331">
        <ele>35.6</ele>
        <time>2025-07-23T11:53:46Z</time>
      </trkpt>
      <trkpt lat="43.70245" lon="-1.05329">
        <ele>35.4</ele>
        <time>2025-07-23T11:53:47Z</time>
      </trkpt>
      <trkpt lat="43.70294" lon="-1.05311">
        <ele>34.4</ele>
        <time>2025-07-23T11:53:55Z</time>
      </trkpt>
      <trkpt lat="43.70305" lon="-1.05307">
        <ele>34</ele>
        <time>2025-07-23T11:53:57Z</time>
      </trkpt>
      <trkpt lat="43.7033" lon="-1.05297">
        <ele>33.2</ele>
        <time>2025-07-23T11:54:01Z</time>
      </trkpt>
      <trkpt lat="43.70367" lon="-1.05284">
        <ele>32.2</ele>
        <time>2025-07-23T11:54:07Z</time>
      </trkpt>
      <trkpt lat="43.70379" lon="-1.0528">
        <ele>31.8</ele>
        <time>2025-07-23T11:54:09Z</time>
      </trkpt>
      <trkpt lat="43.70406" lon="-1.0527">
        <ele>31.2</ele>
        <time>2025-07-23T11:54:13Z</time>
      </trkpt>
      <trkpt lat="43.70434" lon="-1.05261">
        <ele>30.6</ele>
        <time>2025-07-23T11:54:17Z</time>
      </trkpt>
      <trkpt lat="43.70459" lon="-1.05253">
        <ele>30.2</ele>
        <time>2025-07-23T11:54:21Z</time>
      </trkpt>
      <trkpt lat="43.70472" lon="-1.05252">
        <ele>30</ele>
        <time>2025-07-23T11:54:23Z</time>
      </trkpt>
      <trkpt lat="43.70523" lon="-1.05255">
        <ele>29.8</ele>
        <time>2025-07-23T11:54:31Z</time>
      </trkpt>
      <trkpt lat="43.70582" lon="-1.0526">
        <ele>29.6</ele>
        <time>2025-07-23T11:54:40Z</time>
      </trkpt>
      <trkpt lat="43.70596" lon="-1.05261">
        <ele>29.6</ele>
        <time>2025-07-23T11:54:42Z</time>
      </trkpt>
      <trkpt lat="43.70651" lon="-1.05264">
        <ele>29.4</ele>
        <time>2025-07-23T11:54:51Z</time>
      </trkpt>
      <trkpt lat="43.70688" lon="-1.05265">
        <ele>29.4</ele>
        <time>2025-07-23T11:54:58Z</time>
      </trkpt>
      <trkpt lat="43.70709" lon="-1.05267">
        <ele>29.4</ele>
        <time>2025-07-23T11:55:04Z</time>
      </trkpt>
      <trkpt lat="43.7071" lon="-1.05267">
        <ele>29.4</ele>
        <time>2025-07-23T11:55:05Z</time>
      </trkpt>
      <trkpt lat="43.70711" lon="-1.05267">
        <ele>29.2</ele>
        <time>2025-07-23T11:55:08Z</time>
      </trkpt>
      <trkpt lat="43.70714" lon="-1.05268">
        <ele>29.2</ele>
        <time>2025-07-23T11:55:31Z</time>
      </trkpt>
      <trkpt lat="43.7072" lon="-1.05269">
        <ele>29.2</ele>
        <time>2025-07-23T11:55:33Z</time>
      </trkpt>
      <trkpt lat="43.70725" lon="-1.0527">
        <ele>29.2</ele>
        <time>2025-07-23T11:55:37Z</time>
      </trkpt>
      <trkpt lat="43.70725" lon="-1.0527">
        <ele>29.2</ele>
        <time>2025-07-23T11:55:39Z</time>
      </trkpt>
      <trkpt lat="43.70733" lon="-1.05275">
        <ele>29.2</ele>
        <time>2025-07-23T11:55:43Z</time>
      </trkpt>
      <trkpt lat="43.70737" lon="-1.05282">
        <ele>29</ele>
        <time>2025-07-23T11:55:45Z</time>
      </trkpt>
      <trkpt lat="43.7074" lon="-1.05309">
        <ele>29</ele>
        <time>2025-07-23T11:55:49Z</time>
      </trkpt>
      <trkpt lat="43.70741" lon="-1.05332">
        <ele>28.8</ele>
        <time>2025-07-23T11:55:52Z</time>
      </trkpt>
      <trkpt lat="43.70744" lon="-1.05361">
        <ele>28.6</ele>
        <time>2025-07-23T11:55:56Z</time>
      </trkpt>
      <trkpt lat="43.70749" lon="-1.05427">
        <ele>28.4</ele>
        <time>2025-07-23T11:56:04Z</time>
      </trkpt>
      <trkpt lat="43.70751" lon="-1.05434">
        <ele>28.2</ele>
        <time>2025-07-23T11:56:05Z</time>
      </trkpt>
      <trkpt lat="43.70757" lon="-1.05445">
        <ele>28.2</ele>
        <time>2025-07-23T11:56:07Z</time>
      </trkpt>
      <trkpt lat="43.70767" lon="-1.05457">
        <ele>28.2</ele>
        <time>2025-07-23T11:56:09Z</time>
      </trkpt>
      <trkpt lat="43.70781" lon="-1.05468">
        <ele>28</ele>
        <time>2025-07-23T11:56:12Z</time>
      </trkpt>
      <trkpt lat="43.70805" lon="-1.05482">
        <ele>27.8</ele>
        <time>2025-07-23T11:56:17Z</time>
      </trkpt>
      <trkpt lat="43.70818" lon="-1.0549">
        <ele>27.8</ele>
        <time>2025-07-23T11:56:20Z</time>
      </trkpt>
      <trkpt lat="43.70834" lon="-1.05501">
        <ele>27.8</ele>
        <time>2025-07-23T11:56:26Z</time>
      </trkpt>
      <trkpt lat="43.70839" lon="-1.05504">
        <ele>27.8</ele>
        <time>2025-07-23T11:56:32Z</time>
      </trkpt>
      <trkpt lat="43.70839" lon="-1.05504">
        <ele>27.8</ele>
        <time>2025-07-23T11:56:33Z</time>
      </trkpt>
      <trkpt lat="43.70842" lon="-1.05506">
        <ele>27.4</ele>
        <time>2025-07-23T11:57:03Z</time>
      </trkpt>
      <trkpt lat="43.70848" lon="-1.0551">
        <ele>27.4</ele>
        <time>2025-07-23T11:57:05Z</time>
      </trkpt>
      <trkpt lat="43.70862" lon="-1.05518">
        <ele>27.6</ele>
        <time>2025-07-23T11:57:08Z</time>
      </trkpt>
      <trkpt lat="43.70871" lon="-1.05523">
        <ele>27.6</ele>
        <time>2025-07-23T11:57:10Z</time>
      </trkpt>
      <trkpt lat="43.70875" lon="-1.05525">
        <ele>27.6</ele>
        <time>2025-07-23T11:57:11Z</time>
      </trkpt>
      <trkpt lat="43.70886" lon="-1.05529">
        <ele>27.6</ele>
        <time>2025-07-23T11:57:13Z</time>
      </trkpt>
      <trkpt lat="43.70891" lon="-1.0553">
        <ele>27.6</ele>
        <time>2025-07-23T11:57:14Z</time>
      </trkpt>
      <trkpt lat="43.70924" lon="-1.05541">
        <ele>27</ele>
        <time>2025-07-23T11:57:20Z</time>
      </trkpt>
      <trkpt lat="43.70939" lon="-1.05546">
        <ele>26.6</ele>
        <time>2025-07-23T11:57:23Z</time>
      </trkpt>
      <trkpt lat="43.70975" lon="-1.05553">
        <ele>25.8</ele>
        <time>2025-07-23T11:57:29Z</time>
      </trkpt>
      <trkpt lat="43.70991" lon="-1.05556">
        <ele>25.4</ele>
        <time>2025-07-23T11:57:32Z</time>
      </trkpt>
      <trkpt lat="43.71029" lon="-1.05566">
        <ele>25</ele>
        <time>2025-07-23T11:57:39Z</time>
      </trkpt>
      <trkpt lat="43.71074" lon="-1.05575">
        <ele>24.6</ele>
        <time>2025-07-23T11:57:47Z</time>
      </trkpt>
      <trkpt lat="43.71082" lon="-1.05573">
        <ele>24.4</ele>
        <time>2025-07-23T11:57:49Z</time>
      </trkpt>
      <trkpt lat="43.71085" lon="-1.05569">
        <ele>24.2</ele>
        <time>2025-07-23T11:57:50Z</time>
      </trkpt>
      <trkpt lat="43.71087" lon="-1.05567">
        <ele>24.2</ele>
        <time>2025-07-23T11:57:51Z</time>
      </trkpt>
      <trkpt lat="43.71088" lon="-1.05562">
        <ele>24.2</ele>
        <time>2025-07-23T11:57:53Z</time>
      </trkpt>
      <trkpt lat="43.71093" lon="-1.05549">
        <ele>24.2</ele>
        <time>2025-07-23T11:57:59Z</time>
      </trkpt>
      <trkpt lat="43.71095" lon="-1.05526">
        <ele>24.4</ele>
        <time>2025-07-23T11:58:04Z</time>
      </trkpt>
      <trkpt lat="43.71096" lon="-1.05507">
        <ele>24.6</ele>
        <time>2025-07-23T11:58:08Z</time>
      </trkpt>
      <trkpt lat="43.71102" lon="-1.05476">
        <ele>25</ele>
        <time>2025-07-23T11:58:14Z</time>
      </trkpt>
      <trkpt lat="43.71106" lon="-1.05456">
        <ele>25.2</ele>
        <time>2025-07-23T11:58:17Z</time>
      </trkpt>
      <trkpt lat="43.71106" lon="-1.05449">
        <ele>25.4</ele>
        <time>2025-07-23T11:58:18Z</time>
      </trkpt>
      <trkpt lat="43.71108" lon="-1.05443">
        <ele>25.4</ele>
        <time>2025-07-23T11:58:19Z</time>
      </trkpt>
      <trkpt lat="43.71107" lon="-1.05428">
        <ele>25.6</ele>
        <time>2025-07-23T11:58:21Z</time>
      </trkpt>
      <trkpt lat="43.71109" lon="-1.05421">
        <ele>25.6</ele>
        <time>2025-07-23T11:58:22Z</time>
      </trkpt>
      <trkpt lat="43.71111" lon="-1.05417">
        <ele>25.6</ele>
        <time>2025-07-23T11:58:23Z</time>
      </trkpt>
      <trkpt lat="43.71122" lon="-1.05407">
        <ele>25.6</ele>
        <time>2025-07-23T11:58:26Z</time>
      </trkpt>
      <trkpt lat="43.71138" lon="-1.05396">
        <ele>25.4</ele>
        <time>2025-07-23T11:58:30Z</time>
      </trkpt>
      <trkpt lat="43.71151" lon="-1.05383">
        <ele>25.4</ele>
        <time>2025-07-23T11:58:35Z</time>
      </trkpt>
      <trkpt lat="43.71162" lon="-1.05374">
        <ele>25.8</ele>
        <time>2025-07-23T11:58:41Z</time>
      </trkpt>
      <trkpt lat="43.71172" lon="-1.05367">
        <ele>26.2</ele>
        <time>2025-07-23T11:58:44Z</time>
      </trkpt>
      <trkpt lat="43.7118" lon="-1.05363">
        <ele>26.6</ele>
        <time>2025-07-23T11:58:46Z</time>
      </trkpt>
      <trkpt lat="43.71197" lon="-1.05362">
        <ele>27.2</ele>
        <time>2025-07-23T11:58:50Z</time>
      </trkpt>
      <trkpt lat="43.71202" lon="-1.05363">
        <ele>27.4</ele>
        <time>2025-07-23T11:58:51Z</time>
      </trkpt>
      <trkpt lat="43.71223" lon="-1.05379">
        <ele>28.2</ele>
        <time>2025-07-23T11:58:56Z</time>
      </trkpt>
      <trkpt lat="43.71231" lon="-1.05384">
        <ele>28.6</ele>
        <time>2025-07-23T11:58:58Z</time>
      </trkpt>
      <trkpt lat="43.71265" lon="-1.05411">
        <ele>29.2</ele>
        <time>2025-07-23T11:59:06Z</time>
      </trkpt>
      <trkpt lat="43.71289" lon="-1.05429">
        <ele>29.2</ele>
        <time>2025-07-23T11:59:13Z</time>
      </trkpt>
      <trkpt lat="43.71295" lon="-1.05434">
        <ele>28.8</ele>
        <time>2025-07-23T11:59:18Z</time>
      </trkpt>
      <trkpt lat="43.71295" lon="-1.05434">
        <ele>28.6</ele>
        <time>2025-07-23T11:59:20Z</time>
      </trkpt>
      <trkpt lat="43.71301" lon="-1.05438">
        <ele>28.4</ele>
        <time>2025-07-23T11:59:30Z</time>
      </trkpt>
      <trkpt lat="43.71303" lon="-1.0544">
        <ele>28.4</ele>
        <time>2025-07-23T11:59:31Z</time>
      </trkpt>
      <trkpt lat="43.71321" lon="-1.05454">
        <ele>28.2</ele>
        <time>2025-07-23T11:59:36Z</time>
      </trkpt>
      <trkpt lat="43.71326" lon="-1.05457">
        <ele>28.2</ele>
        <time>2025-07-23T11:59:37Z</time>
      </trkpt>
      <trkpt lat="43.71343" lon="-1.05461">
        <ele>27.8</ele>
        <time>2025-07-23T11:59:40Z</time>
      </trkpt>
      <trkpt lat="43.71351" lon="-1.05459">
        <ele>27.6</ele>
        <time>2025-07-23T11:59:42Z</time>
      </trkpt>
      <trkpt lat="43.71368" lon="-1.05453">
        <ele>26.8</ele>
        <time>2025-07-23T11:59:45Z</time>
      </trkpt>
      <trkpt lat="43.71379" lon="-1.05449">
        <ele>26.4</ele>
        <time>2025-07-23T11:59:47Z</time>
      </trkpt>
      <trkpt lat="43.71395" lon="-1.05446">
        <ele>25.8</ele>
        <time>2025-07-23T11:59:50Z</time>
      </trkpt>
      <trkpt lat="43.71419" lon="-1.0544">
        <ele>24.8</ele>
        <time>2025-07-23T11:59:55Z</time>
      </trkpt>
      <trkpt lat="43.71426" lon="-1.05439">
        <ele>24.6</ele>
        <time>2025-07-23T11:59:57Z</time>
      </trkpt>
      <trkpt lat="43.71438" lon="-1.05434">
        <ele>24.6</ele>
        <time>2025-07-23T12:00:00Z</time>
      </trkpt>
      <trkpt lat="43.71446" lon="-1.05429">
        <ele>24.6</ele>
        <time>2025-07-23T12:00:05Z</time>
      </trkpt>
      <trkpt lat="43.71446" lon="-1.05429">
        <ele>24.6</ele>
        <time>2025-07-23T12:00:06Z</time>
      </trkpt>
      <trkpt lat="43.71449" lon="-1.05428">
        <ele>24.4</ele>
        <time>2025-07-23T12:00:39Z</time>
      </trkpt>
      <trkpt lat="43.71456" lon="-1.05426">
        <ele>24.4</ele>
        <time>2025-07-23T12:00:41Z</time>
      </trkpt>
      <trkpt lat="43.71482" lon="-1.05414">
        <ele>24.8</ele>
        <time>2025-07-23T12:00:46Z</time>
      </trkpt>
      <trkpt lat="43.71495" lon="-1.05409">
        <ele>24.8</ele>
        <time>2025-07-23T12:00:48Z</time>
      </trkpt>
      <trkpt lat="43.71508" lon="-1.05403">
        <ele>24.8</ele>
        <time>2025-07-23T12:00:50Z</time>
      </trkpt>
      <trkpt lat="43.71542" lon="-1.05392">
        <ele>24.6</ele>
        <time>2025-07-23T12:00:55Z</time>
      </trkpt>
      <trkpt lat="43.71601" lon="-1.05372">
        <ele>24.6</ele>
        <time>2025-07-23T12:01:04Z</time>
      </trkpt>
      <trkpt lat="43.71657" lon="-1.05354">
        <ele>24.6</ele>
        <time>2025-07-23T12:01:13Z</time>
      </trkpt>
      <trkpt lat="43.71716" lon="-1.05333">
        <ele>24.6</ele>
        <time>2025-07-23T12:01:22Z</time>
      </trkpt>
      <trkpt lat="43.71721" lon="-1.05332">
        <ele>24.6</ele>
        <time>2025-07-23T12:01:23Z</time>
      </trkpt>
      <trkpt lat="43.71766" lon="-1.05317">
        <ele>25</ele>
        <time>2025-07-23T12:01:30Z</time>
      </trkpt>
      <trkpt lat="43.71818" lon="-1.05299">
        <ele>25.2</ele>
        <time>2025-07-23T12:01:38Z</time>
      </trkpt>
      <trkpt lat="43.71849" lon="-1.05289">
        <ele>25.2</ele>
        <time>2025-07-23T12:01:43Z</time>
      </trkpt>
      <trkpt lat="43.71855" lon="-1.05287">
        <ele>25.2</ele>
        <time>2025-07-23T12:01:44Z</time>
      </trkpt>
      <trkpt lat="43.71907" lon="-1.05271">
        <ele>25.4</ele>
        <time>2025-07-23T12:01:52Z</time>
      </trkpt>
      <trkpt lat="43.71946" lon="-1.05257">
        <ele>25.6</ele>
        <time>2025-07-23T12:01:59Z</time>
      </trkpt>
      <trkpt lat="43.71951" lon="-1.05255">
        <ele>25.8</ele>
        <time>2025-07-23T12:02:00Z</time>
      </trkpt>
      <trkpt lat="43.71959" lon="-1.05249">
        <ele>26</ele>
        <time>2025-07-23T12:02:02Z</time>
      </trkpt>
      <trkpt lat="43.71964" lon="-1.05244">
        <ele>26</ele>
        <time>2025-07-23T12:02:03Z</time>
      </trkpt>
      <trkpt lat="43.71968" lon="-1.05239">
        <ele>26.4</ele>
        <time>2025-07-23T12:02:04Z</time>
      </trkpt>
      <trkpt lat="43.71972" lon="-1.05228">
        <ele>26.6</ele>
        <time>2025-07-23T12:02:06Z</time>
      </trkpt>
      <trkpt lat="43.71984" lon="-1.05223">
        <ele>26.8</ele>
        <time>2025-07-23T12:02:08Z</time>
      </trkpt>
      <trkpt lat="43.71989" lon="-1.05225">
        <ele>26.8</ele>
        <time>2025-07-23T12:02:09Z</time>
      </trkpt>
      <trkpt lat="43.71994" lon="-1.05228">
        <ele>26.8</ele>
        <time>2025-07-23T12:02:10Z</time>
      </trkpt>
      <trkpt lat="43.72003" lon="-1.05234">
        <ele>27</ele>
        <time>2025-07-23T12:02:12Z</time>
      </trkpt>
      <trkpt lat="43.72007" lon="-1.05235">
        <ele>27.2</ele>
        <time>2025-07-23T12:02:13Z</time>
      </trkpt>
      <trkpt lat="43.72013" lon="-1.05235">
        <ele>27.2</ele>
        <time>2025-07-23T12:02:14Z</time>
      </trkpt>
      <trkpt lat="43.72026" lon="-1.05231">
        <ele>27.8</ele>
        <time>2025-07-23T12:02:17Z</time>
      </trkpt>
      <trkpt lat="43.72048" lon="-1.05223">
        <ele>28.8</ele>
        <time>2025-07-23T12:02:21Z</time>
      </trkpt>
      <trkpt lat="43.72077" lon="-1.05214">
        <ele>29.6</ele>
        <time>2025-07-23T12:02:27Z</time>
      </trkpt>
      <trkpt lat="43.72081" lon="-1.05213">
        <ele>29.8</ele>
        <time>2025-07-23T12:02:28Z</time>
      </trkpt>
      <trkpt lat="43.72114" lon="-1.05204">
        <ele>30.4</ele>
        <time>2025-07-23T12:02:34Z</time>
      </trkpt>
      <trkpt lat="43.72156" lon="-1.05191">
        <ele>29.8</ele>
        <time>2025-07-23T12:02:41Z</time>
      </trkpt>
      <trkpt lat="43.72208" lon="-1.05174">
        <ele>29.6</ele>
        <time>2025-07-23T12:02:50Z</time>
      </trkpt>
      <trkpt lat="43.72246" lon="-1.0516">
        <ele>29.8</ele>
        <time>2025-07-23T12:02:57Z</time>
      </trkpt>
      <trkpt lat="43.72301" lon="-1.05144">
        <ele>30.6</ele>
        <time>2025-07-23T12:03:07Z</time>
      </trkpt>
      <trkpt lat="43.72306" lon="-1.05142">
        <ele>30.6</ele>
        <time>2025-07-23T12:03:08Z</time>
      </trkpt>
      <trkpt lat="43.72318" lon="-1.05137">
        <ele>31</ele>
        <time>2025-07-23T12:03:10Z</time>
      </trkpt>
      <trkpt lat="43.72328" lon="-1.05133">
        <ele>31.4</ele>
        <time>2025-07-23T12:03:12Z</time>
      </trkpt>
      <trkpt lat="43.72344" lon="-1.05125">
        <ele>31.6</ele>
        <time>2025-07-23T12:03:15Z</time>
      </trkpt>
      <trkpt lat="43.72358" lon="-1.0512">
        <ele>32</ele>
        <time>2025-07-23T12:03:18Z</time>
      </trkpt>
      <trkpt lat="43.72366" lon="-1.05118">
        <ele>32.2</ele>
        <time>2025-07-23T12:03:20Z</time>
      </trkpt>
      <trkpt lat="43.72375" lon="-1.05116">
        <ele>32.6</ele>
        <time>2025-07-23T12:03:25Z</time>
      </trkpt>
      <trkpt lat="43.72375" lon="-1.05116">
        <ele>32.6</ele>
        <time>2025-07-23T12:03:26Z</time>
      </trkpt>
      <trkpt lat="43.7238" lon="-1.05115">
        <ele>32.8</ele>
        <time>2025-07-23T12:03:34Z</time>
      </trkpt>
      <trkpt lat="43.72386" lon="-1.05114">
        <ele>32.8</ele>
        <time>2025-07-23T12:03:36Z</time>
      </trkpt>
      <trkpt lat="43.72403" lon="-1.05111">
        <ele>33</ele>
        <time>2025-07-23T12:03:40Z</time>
      </trkpt>
      <trkpt lat="43.72408" lon="-1.05111">
        <ele>33</ele>
        <time>2025-07-23T12:03:41Z</time>
      </trkpt>
      <trkpt lat="43.7244" lon="-1.05103">
        <ele>33.4</ele>
        <time>2025-07-23T12:03:47Z</time>
      </trkpt>
      <trkpt lat="43.72482" lon="-1.05092">
        <ele>34.2</ele>
        <time>2025-07-23T12:03:55Z</time>
      </trkpt>
      <trkpt lat="43.72489" lon="-1.0509">
        <ele>34.4</ele>
        <time>2025-07-23T12:03:56Z</time>
      </trkpt>
      <trkpt lat="43.72533" lon="-1.05075">
        <ele>35</ele>
        <time>2025-07-23T12:04:04Z</time>
      </trkpt>
      <trkpt lat="43.72587" lon="-1.05051">
        <ele>35.2</ele>
        <time>2025-07-23T12:04:13Z</time>
      </trkpt>
      <trkpt lat="43.72608" lon="-1.05034">
        <ele>35.2</ele>
        <time>2025-07-23T12:04:17Z</time>
      </trkpt>
      <trkpt lat="43.72623" lon="-1.0502">
        <ele>35.2</ele>
        <time>2025-07-23T12:04:20Z</time>
      </trkpt>
      <trkpt lat="43.7267" lon="-1.04977">
        <ele>35</ele>
        <time>2025-07-23T12:04:29Z</time>
      </trkpt>
      <trkpt lat="43.72712" lon="-1.04938">
        <ele>36.2</ele>
        <time>2025-07-23T12:04:38Z</time>
      </trkpt>
      <trkpt lat="43.72718" lon="-1.04933">
        <ele>36.2</ele>
        <time>2025-07-23T12:04:39Z</time>
      </trkpt>
      <trkpt lat="43.72751" lon="-1.04913">
        <ele>37.2</ele>
        <time>2025-07-23T12:04:46Z</time>
      </trkpt>
      <trkpt lat="43.72756" lon="-1.04911">
        <ele>37.4</ele>
        <time>2025-07-23T12:04:47Z</time>
      </trkpt>
      <trkpt lat="43.72778" lon="-1.04904">
        <ele>37.8</ele>
        <time>2025-07-23T12:04:51Z</time>
      </trkpt>
      <trkpt lat="43.72794" lon="-1.04901">
        <ele>38.2</ele>
        <time>2025-07-23T12:04:54Z</time>
      </trkpt>
      <trkpt lat="43.72815" lon="-1.04898">
        <ele>38.4</ele>
        <time>2025-07-23T12:04:58Z</time>
      </trkpt>
      <trkpt lat="43.72837" lon="-1.04893">
        <ele>39</ele>
        <time>2025-07-23T12:05:02Z</time>
      </trkpt>
      <trkpt lat="43.72866" lon="-1.04889">
        <ele>39.4</ele>
        <time>2025-07-23T12:05:07Z</time>
      </trkpt>
      <trkpt lat="43.72894" lon="-1.04884">
        <ele>39.8</ele>
        <time>2025-07-23T12:05:12Z</time>
      </trkpt>
      <trkpt lat="43.72905" lon="-1.04882">
        <ele>39.8</ele>
        <time>2025-07-23T12:05:14Z</time>
      </trkpt>
      <trkpt lat="43.72918" lon="-1.0488">
        <ele>39.8</ele>
        <time>2025-07-23T12:05:16Z</time>
      </trkpt>
      <trkpt lat="43.72924" lon="-1.04879">
        <ele>39.8</ele>
        <time>2025-07-23T12:05:17Z</time>
      </trkpt>
      <trkpt lat="43.72983" lon="-1.0487">
        <ele>39.6</ele>
        <time>2025-07-23T12:05:27Z</time>
      </trkpt>
      <trkpt lat="43.73032" lon="-1.04863">
        <ele>39.2</ele>
        <time>2025-07-23T12:05:35Z</time>
      </trkpt>
      <trkpt lat="43.73092" lon="-1.04855">
        <ele>38.4</ele>
        <time>2025-07-23T12:05:44Z</time>
      </trkpt>
      <trkpt lat="43.73098" lon="-1.04855">
        <ele>38.4</ele>
        <time>2025-07-23T12:05:45Z</time>
      </trkpt>
      <trkpt lat="43.73131" lon="-1.04863">
        <ele>38.2</ele>
        <time>2025-07-23T12:05:50Z</time>
      </trkpt>
      <trkpt lat="43.73136" lon="-1.04865">
        <ele>38.2</ele>
        <time>2025-07-23T12:05:51Z</time>
      </trkpt>
      <trkpt lat="43.73173" lon="-1.04884">
        <ele>38</ele>
        <time>2025-07-23T12:05:57Z</time>
      </trkpt>
      <trkpt lat="43.73227" lon="-1.04916">
        <ele>37.6</ele>
        <time>2025-07-23T12:06:06Z</time>
      </trkpt>
      <trkpt lat="43.73232" lon="-1.04919">
        <ele>37.6</ele>
        <time>2025-07-23T12:06:07Z</time>
      </trkpt>
      <trkpt lat="43.73287" lon="-1.04951">
        <ele>37.8</ele>
        <time>2025-07-23T12:06:16Z</time>
      </trkpt>
      <trkpt lat="43.7334" lon="-1.04982">
        <ele>37.4</ele>
        <time>2025-07-23T12:06:25Z</time>
      </trkpt>
      <trkpt lat="43.73352" lon="-1.04989">
        <ele>37.2</ele>
        <time>2025-07-23T12:06:27Z</time>
      </trkpt>
      <trkpt lat="43.73405" lon="-1.0502">
        <ele>37.4</ele>
        <time>2025-07-23T12:06:36Z</time>
      </trkpt>
      <trkpt lat="43.7344" lon="-1.0504">
        <ele>37.6</ele>
        <time>2025-07-23T12:06:42Z</time>
      </trkpt>
      <trkpt lat="43.73491" lon="-1.05069">
        <ele>38</ele>
        <time>2025-07-23T12:06:51Z</time>
      </trkpt>
      <trkpt lat="43.73515" lon="-1.05083">
        <ele>38.2</ele>
        <time>2025-07-23T12:06:55Z</time>
      </trkpt>
      <trkpt lat="43.73566" lon="-1.05113">
        <ele>38.2</ele>
        <time>2025-07-23T12:07:04Z</time>
      </trkpt>
      <trkpt lat="43.7357" lon="-1.05115">
        <ele>38.4</ele>
        <time>2025-07-23T12:07:05Z</time>
      </trkpt>
      <trkpt lat="43.73593" lon="-1.05127">
        <ele>38.4</ele>
        <time>2025-07-23T12:07:09Z</time>
      </trkpt>
      <trkpt lat="43.73599" lon="-1.05128">
        <ele>38.4</ele>
        <time>2025-07-23T12:07:10Z</time>
      </trkpt>
      <trkpt lat="43.73604" lon="-1.05128">
        <ele>38.4</ele>
        <time>2025-07-23T12:07:11Z</time>
      </trkpt>
      <trkpt lat="43.73616" lon="-1.05126">
        <ele>38.4</ele>
        <time>2025-07-23T12:07:13Z</time>
      </trkpt>
      <trkpt lat="43.73621" lon="-1.05124">
        <ele>38.6</ele>
        <time>2025-07-23T12:07:14Z</time>
      </trkpt>
      <trkpt lat="43.73633" lon="-1.05116">
        <ele>38.6</ele>
        <time>2025-07-23T12:07:17Z</time>
      </trkpt>
      <trkpt lat="43.73637" lon="-1.0511">
        <ele>38.6</ele>
        <time>2025-07-23T12:07:18Z</time>
      </trkpt>
      <trkpt lat="43.7364" lon="-1.05104">
        <ele>38.6</ele>
        <time>2025-07-23T12:07:19Z</time>
      </trkpt>
      <trkpt lat="43.73645" lon="-1.05093">
        <ele>38.4</ele>
        <time>2025-07-23T12:07:21Z</time>
      </trkpt>
      <trkpt lat="43.7365" lon="-1.05089">
        <ele>38.4</ele>
        <time>2025-07-23T12:07:22Z</time>
      </trkpt>
      <trkpt lat="43.73661" lon="-1.05082">
        <ele>38.4</ele>
        <time>2025-07-23T12:07:24Z</time>
      </trkpt>
      <trkpt lat="43.7367" lon="-1.05072">
        <ele>38.4</ele>
        <time>2025-07-23T12:07:26Z</time>
      </trkpt>
      <trkpt lat="43.73675" lon="-1.05065">
        <ele>38.4</ele>
        <time>2025-07-23T12:07:27Z</time>
      </trkpt>
      <trkpt lat="43.73682" lon="-1.0505">
        <ele>38.2</ele>
        <time>2025-07-23T12:07:29Z</time>
      </trkpt>
      <trkpt lat="43.73686" lon="-1.05034">
        <ele>38.2</ele>
        <time>2025-07-23T12:07:31Z</time>
      </trkpt>
      <trkpt lat="43.73703" lon="-1.04968">
        <ele>37.4</ele>
        <time>2025-07-23T12:07:39Z</time>
      </trkpt>
      <trkpt lat="43.73707" lon="-1.04951">
        <ele>37</ele>
        <time>2025-07-23T12:07:41Z</time>
      </trkpt>
      <trkpt lat="43.73725" lon="-1.04883">
        <ele>36.6</ele>
        <time>2025-07-23T12:07:49Z</time>
      </trkpt>
      <trkpt lat="43.73726" lon="-1.04874">
        <ele>36.6</ele>
        <time>2025-07-23T12:07:50Z</time>
      </trkpt>
      <trkpt lat="43.73725" lon="-1.04866">
        <ele>36.4</ele>
        <time>2025-07-23T12:07:51Z</time>
      </trkpt>
      <trkpt lat="43.73723" lon="-1.04858">
        <ele>36.4</ele>
        <time>2025-07-23T12:07:52Z</time>
      </trkpt>
      <trkpt lat="43.73721" lon="-1.04843">
        <ele>36</ele>
        <time>2025-07-23T12:07:54Z</time>
      </trkpt>
      <trkpt lat="43.73728" lon="-1.04829">
        <ele>35.8</ele>
        <time>2025-07-23T12:07:56Z</time>
      </trkpt>
      <trkpt lat="43.73737" lon="-1.0482">
        <ele>35.4</ele>
        <time>2025-07-23T12:07:58Z</time>
      </trkpt>
      <trkpt lat="43.73746" lon="-1.04804">
        <ele>34.8</ele>
        <time>2025-07-23T12:08:00Z</time>
      </trkpt>
      <trkpt lat="43.73753" lon="-1.04775">
        <ele>34.6</ele>
        <time>2025-07-23T12:08:04Z</time>
      </trkpt>
      <trkpt lat="43.73754" lon="-1.04766">
        <ele>34.6</ele>
        <time>2025-07-23T12:08:05Z</time>
      </trkpt>
      <trkpt lat="43.73754" lon="-1.04752">
        <ele>34.6</ele>
        <time>2025-07-23T12:08:07Z</time>
      </trkpt>
      <trkpt lat="43.73754" lon="-1.04703">
        <ele>35.2</ele>
        <time>2025-07-23T12:08:13Z</time>
      </trkpt>
      <trkpt lat="43.73762" lon="-1.04659">
        <ele>35.4</ele>
        <time>2025-07-23T12:08:18Z</time>
      </trkpt>
      <trkpt lat="43.73766" lon="-1.04643">
        <ele>35.2</ele>
        <time>2025-07-23T12:08:20Z</time>
      </trkpt>
      <trkpt lat="43.73772" lon="-1.04612">
        <ele>34.8</ele>
        <time>2025-07-23T12:08:23Z</time>
      </trkpt>
      <trkpt lat="43.73786" lon="-1.04548">
        <ele>34</ele>
        <time>2025-07-23T12:08:30Z</time>
      </trkpt>
      <trkpt lat="43.73793" lon="-1.0452">
        <ele>33.8</ele>
        <time>2025-07-23T12:08:33Z</time>
      </trkpt>
      <trkpt lat="43.73798" lon="-1.045">
        <ele>33.8</ele>
        <time>2025-07-23T12:08:35Z</time>
      </trkpt>
      <trkpt lat="43.73798" lon="-1.0449">
        <ele>33.8</ele>
        <time>2025-07-23T12:08:36Z</time>
      </trkpt>
      <trkpt lat="43.73807" lon="-1.04448">
        <ele>33.6</ele>
        <time>2025-07-23T12:08:40Z</time>
      </trkpt>
      <trkpt lat="43.73822" lon="-1.04387">
        <ele>32.6</ele>
        <time>2025-07-23T12:08:45Z</time>
      </trkpt>
      <trkpt lat="43.73837" lon="-1.04334">
        <ele>30.8</ele>
        <time>2025-07-23T12:08:49Z</time>
      </trkpt>
      <trkpt lat="43.73845" lon="-1.0431">
        <ele>29.4</ele>
        <time>2025-07-23T12:08:51Z</time>
      </trkpt>
      <trkpt lat="43.73852" lon="-1.04286">
        <ele>28.2</ele>
        <time>2025-07-23T12:08:53Z</time>
      </trkpt>
      <trkpt lat="43.73862" lon="-1.04252">
        <ele>27.4</ele>
        <time>2025-07-23T12:08:56Z</time>
      </trkpt>
      <trkpt lat="43.73868" lon="-1.04229">
        <ele>27.2</ele>
        <time>2025-07-23T12:08:58Z</time>
      </trkpt>
      <trkpt lat="43.73878" lon="-1.04187">
        <ele>27</ele>
        <time>2025-07-23T12:09:02Z</time>
      </trkpt>
      <trkpt lat="43.73894" lon="-1.04131">
        <ele>27</ele>
        <time>2025-07-23T12:09:08Z</time>
      </trkpt>
      <trkpt lat="43.73897" lon="-1.04124">
        <ele>27.2</ele>
        <time>2025-07-23T12:09:09Z</time>
      </trkpt>
      <trkpt lat="43.7391" lon="-1.04105">
        <ele>27.2</ele>
        <time>2025-07-23T12:09:12Z</time>
      </trkpt>
      <trkpt lat="43.73927" lon="-1.04087">
        <ele>28.2</ele>
        <time>2025-07-23T12:09:16Z</time>
      </trkpt>
      <trkpt lat="43.73934" lon="-1.0408">
        <ele>29.2</ele>
        <time>2025-07-23T12:09:18Z</time>
      </trkpt>
      <trkpt lat="43.73942" lon="-1.04074">
        <ele>29.4</ele>
        <time>2025-07-23T12:09:20Z</time>
      </trkpt>
      <trkpt lat="43.73945" lon="-1.04071">
        <ele>29.6</ele>
        <time>2025-07-23T12:09:21Z</time>
      </trkpt>
      <trkpt lat="43.7396" lon="-1.04058">
        <ele>30.2</ele>
        <time>2025-07-23T12:09:26Z</time>
      </trkpt>
      <trkpt lat="43.73963" lon="-1.04055">
        <ele>30.4</ele>
        <time>2025-07-23T12:09:27Z</time>
      </trkpt>
      <trkpt lat="43.73974" lon="-1.04045">
        <ele>31.4</ele>
        <time>2025-07-23T12:09:31Z</time>
      </trkpt>
      <trkpt lat="43.73985" lon="-1.04038">
        <ele>32.4</ele>
        <time>2025-07-23T12:09:35Z</time>
      </trkpt>
      <trkpt lat="43.73988" lon="-1.04036">
        <ele>32.8</ele>
        <time>2025-07-23T12:09:36Z</time>
      </trkpt>
      <trkpt lat="43.74002" lon="-1.04025">
        <ele>33.8</ele>
        <time>2025-07-23T12:09:41Z</time>
      </trkpt>
      <trkpt lat="43.74014" lon="-1.04014">
        <ele>34.8</ele>
        <time>2025-07-23T12:09:46Z</time>
      </trkpt>
      <trkpt lat="43.74022" lon="-1.04008">
        <ele>35.6</ele>
        <time>2025-07-23T12:09:49Z</time>
      </trkpt>
      <trkpt lat="43.74024" lon="-1.04006">
        <ele>35.8</ele>
        <time>2025-07-23T12:09:50Z</time>
      </trkpt>
      <trkpt lat="43.74036" lon="-1.03993">
        <ele>37</ele>
        <time>2025-07-23T12:09:55Z</time>
      </trkpt>
      <trkpt lat="43.74058" lon="-1.03975">
        <ele>37.6</ele>
        <time>2025-07-23T12:10:01Z</time>
      </trkpt>
      <trkpt lat="43.74082" lon="-1.03968">
        <ele>37.6</ele>
        <time>2025-07-23T12:10:07Z</time>
      </trkpt>
      <trkpt lat="43.74093" lon="-1.03971">
        <ele>37.8</ele>
        <time>2025-07-23T12:10:09Z</time>
      </trkpt>
      <trkpt lat="43.74104" lon="-1.03978">
        <ele>37.6</ele>
        <time>2025-07-23T12:10:11Z</time>
      </trkpt>
      <trkpt lat="43.74121" lon="-1.03991">
        <ele>37.4</ele>
        <time>2025-07-23T12:10:14Z</time>
      </trkpt>
      <trkpt lat="43.74127" lon="-1.03999">
        <ele>37.4</ele>
        <time>2025-07-23T12:10:15Z</time>
      </trkpt>
      <trkpt lat="43.74165" lon="-1.04038">
        <ele>36</ele>
        <time>2025-07-23T12:10:20Z</time>
      </trkpt>
      <trkpt lat="43.74174" lon="-1.04044">
        <ele>35.6</ele>
        <time>2025-07-23T12:10:21Z</time>
      </trkpt>
      <trkpt lat="43.74183" lon="-1.04047">
        <ele>34.8</ele>
        <time>2025-07-23T12:10:22Z</time>
      </trkpt>
      <trkpt lat="43.74192" lon="-1.04048">
        <ele>34.4</ele>
        <time>2025-07-23T12:10:23Z</time>
      </trkpt>
      <trkpt lat="43.74201" lon="-1.04047">
        <ele>33.6</ele>
        <time>2025-07-23T12:10:24Z</time>
      </trkpt>
      <trkpt lat="43.7421" lon="-1.04045">
        <ele>33</ele>
        <time>2025-07-23T12:10:25Z</time>
      </trkpt>
      <trkpt lat="43.74218" lon="-1.04042">
        <ele>31.6</ele>
        <time>2025-07-23T12:10:26Z</time>
      </trkpt>
      <trkpt lat="43.74229" lon="-1.04027">
        <ele>30.6</ele>
        <time>2025-07-23T12:10:28Z</time>
      </trkpt>
      <trkpt lat="43.74232" lon="-1.04007">
        <ele>30.4</ele>
        <time>2025-07-23T12:10:30Z</time>
      </trkpt>
      <trkpt lat="43.74221" lon="-1.03984">
        <ele>30.2</ele>
        <time>2025-07-23T12:10:33Z</time>
      </trkpt>
      <trkpt lat="43.74211" lon="-1.03955">
        <ele>31.2</ele>
        <time>2025-07-23T12:10:38Z</time>
      </trkpt>
      <trkpt lat="43.7421" lon="-1.0395">
        <ele>31.6</ele>
        <time>2025-07-23T12:10:39Z</time>
      </trkpt>
      <trkpt lat="43.74204" lon="-1.03931">
        <ele>33</ele>
        <time>2025-07-23T12:10:43Z</time>
      </trkpt>
      <trkpt lat="43.742" lon="-1.03923">
        <ele>33.6</ele>
        <time>2025-07-23T12:10:45Z</time>
      </trkpt>
      <trkpt lat="43.74197" lon="-1.03913">
        <ele>34</ele>
        <time>2025-07-23T12:10:47Z</time>
      </trkpt>
      <trkpt lat="43.74196" lon="-1.03895">
        <ele>35.2</ele>
        <time>2025-07-23T12:10:51Z</time>
      </trkpt>
      <trkpt lat="43.74195" lon="-1.0389">
        <ele>35.4</ele>
        <time>2025-07-23T12:10:52Z</time>
      </trkpt>
      <trkpt lat="43.7419" lon="-1.03877">
        <ele>36.2</ele>
        <time>2025-07-23T12:10:55Z</time>
      </trkpt>
      <trkpt lat="43.74181" lon="-1.03848">
        <ele>37</ele>
        <time>2025-07-23T12:11:01Z</time>
      </trkpt>
      <trkpt lat="43.74173" lon="-1.03804">
        <ele>37.2</ele>
        <time>2025-07-23T12:11:08Z</time>
      </trkpt>
      <trkpt lat="43.74172" lon="-1.03797">
        <ele>37.4</ele>
        <time>2025-07-23T12:11:09Z</time>
      </trkpt>
      <trkpt lat="43.74171" lon="-1.03784">
        <ele>37.4</ele>
        <time>2025-07-23T12:11:11Z</time>
      </trkpt>
      <trkpt lat="43.74173" lon="-1.03749">
        <ele>37.6</ele>
        <time>2025-07-23T12:11:16Z</time>
      </trkpt>
      <trkpt lat="43.74176" lon="-1.03729">
        <ele>38</ele>
        <time>2025-07-23T12:11:19Z</time>
      </trkpt>
      <trkpt lat="43.74181" lon="-1.0371">
        <ele>38.2</ele>
        <time>2025-07-23T12:11:22Z</time>
      </trkpt>
      <trkpt lat="43.74186" lon="-1.03693">
        <ele>38.8</ele>
        <time>2025-07-23T12:11:25Z</time>
      </trkpt>
      <trkpt lat="43.74189" lon="-1.0368">
        <ele>39.4</ele>
        <time>2025-07-23T12:11:27Z</time>
      </trkpt>
      <trkpt lat="43.74192" lon="-1.03667">
        <ele>39.8</ele>
        <time>2025-07-23T12:11:29Z</time>
      </trkpt>
      <trkpt lat="43.74202" lon="-1.03626">
        <ele>40.6</ele>
        <time>2025-07-23T12:11:35Z</time>
      </trkpt>
      <trkpt lat="43.74203" lon="-1.03619">
        <ele>40.6</ele>
        <time>2025-07-23T12:11:36Z</time>
      </trkpt>
      <trkpt lat="43.74215" lon="-1.03577">
        <ele>40.2</ele>
        <time>2025-07-23T12:11:41Z</time>
      </trkpt>
      <trkpt lat="43.74229" lon="-1.03513">
        <ele>39.2</ele>
        <time>2025-07-23T12:11:48Z</time>
      </trkpt>
      <trkpt lat="43.74231" lon="-1.03504">
        <ele>39.2</ele>
        <time>2025-07-23T12:11:49Z</time>
      </trkpt>
      <trkpt lat="43.7424" lon="-1.03462">
        <ele>39</ele>
        <time>2025-07-23T12:11:54Z</time>
      </trkpt>
      <trkpt lat="43.74252" lon="-1.03407">
        <ele>39.6</ele>
        <time>2025-07-23T12:12:01Z</time>
      </trkpt>
      <trkpt lat="43.74253" lon="-1.034">
        <ele>39.8</ele>
        <time>2025-07-23T12:12:02Z</time>
      </trkpt>
      <trkpt lat="43.74255" lon="-1.03384">
        <ele>40.2</ele>
        <time>2025-07-23T12:12:04Z</time>
      </trkpt>
      <trkpt lat="43.74256" lon="-1.03376">
        <ele>40.4</ele>
        <time>2025-07-23T12:12:05Z</time>
      </trkpt>
      <trkpt lat="43.74259" lon="-1.03352">
        <ele>40.6</ele>
        <time>2025-07-23T12:12:08Z</time>
      </trkpt>
      <trkpt lat="43.74262" lon="-1.03327">
        <ele>40.6</ele>
        <time>2025-07-23T12:12:11Z</time>
      </trkpt>
      <trkpt lat="43.74263" lon="-1.033">
        <ele>40.4</ele>
        <time>2025-07-23T12:12:14Z</time>
      </trkpt>
      <trkpt lat="43.74263" lon="-1.03282">
        <ele>40.4</ele>
        <time>2025-07-23T12:12:16Z</time>
      </trkpt>
      <trkpt lat="43.74262" lon="-1.03258">
        <ele>40.2</ele>
        <time>2025-07-23T12:12:19Z</time>
      </trkpt>
      <trkpt lat="43.74262" lon="-1.0325">
        <ele>40</ele>
        <time>2025-07-23T12:12:20Z</time>
      </trkpt>
      <trkpt lat="43.74267" lon="-1.03216">
        <ele>40</ele>
        <time>2025-07-23T12:12:24Z</time>
      </trkpt>
      <trkpt lat="43.74268" lon="-1.03208">
        <ele>40</ele>
        <time>2025-07-23T12:12:25Z</time>
      </trkpt>
      <trkpt lat="43.74274" lon="-1.03182">
        <ele>40.2</ele>
        <time>2025-07-23T12:12:28Z</time>
      </trkpt>
      <trkpt lat="43.74294" lon="-1.03108">
        <ele>40.6</ele>
        <time>2025-07-23T12:12:37Z</time>
      </trkpt>
      <trkpt lat="43.74306" lon="-1.03033">
        <ele>41.2</ele>
        <time>2025-07-23T12:12:46Z</time>
      </trkpt>
      <trkpt lat="43.74307" lon="-1.03025">
        <ele>41.4</ele>
        <time>2025-07-23T12:12:47Z</time>
      </trkpt>
      <trkpt lat="43.74316" lon="-1.02969">
        <ele>41.6</ele>
        <time>2025-07-23T12:12:54Z</time>
      </trkpt>
      <trkpt lat="43.74324" lon="-1.02915">
        <ele>42</ele>
        <time>2025-07-23T12:13:01Z</time>
      </trkpt>
      <trkpt lat="43.74329" lon="-1.02883">
        <ele>42.4</ele>
        <time>2025-07-23T12:13:05Z</time>
      </trkpt>
      <trkpt lat="43.74337" lon="-1.02834">
        <ele>42.6</ele>
        <time>2025-07-23T12:13:11Z</time>
      </trkpt>
      <trkpt lat="43.74343" lon="-1.02809">
        <ele>42.6</ele>
        <time>2025-07-23T12:13:14Z</time>
      </trkpt>
      <trkpt lat="43.74347" lon="-1.02785">
        <ele>42.6</ele>
        <time>2025-07-23T12:13:17Z</time>
      </trkpt>
      <trkpt lat="43.74352" lon="-1.02754">
        <ele>42.4</ele>
        <time>2025-07-23T12:13:21Z</time>
      </trkpt>
      <trkpt lat="43.74352" lon="-1.0274">
        <ele>42.4</ele>
        <time>2025-07-23T12:13:23Z</time>
      </trkpt>
      <trkpt lat="43.74347" lon="-1.02729">
        <ele>42.4</ele>
        <time>2025-07-23T12:13:25Z</time>
      </trkpt>
      <trkpt lat="43.74345" lon="-1.02727">
        <ele>42.4</ele>
        <time>2025-07-23T12:13:26Z</time>
      </trkpt>
      <trkpt lat="43.7434" lon="-1.02719">
        <ele>42</ele>
        <time>2025-07-23T12:13:29Z</time>
      </trkpt>
      <trkpt lat="43.7434" lon="-1.02715">
        <ele>42</ele>
        <time>2025-07-23T12:13:30Z</time>
      </trkpt>
      <trkpt lat="43.7435" lon="-1.02699">
        <ele>42</ele>
        <time>2025-07-23T12:13:34Z</time>
      </trkpt>
      <trkpt lat="43.74353" lon="-1.02694">
        <ele>42</ele>
        <time>2025-07-23T12:13:35Z</time>
      </trkpt>
      <trkpt lat="43.7437" lon="-1.02676">
        <ele>42.4</ele>
        <time>2025-07-23T12:13:39Z</time>
      </trkpt>
      <trkpt lat="43.74374" lon="-1.02671">
        <ele>42.4</ele>
        <time>2025-07-23T12:13:40Z</time>
      </trkpt>
      <trkpt lat="43.74377" lon="-1.02658">
        <ele>42.4</ele>
        <time>2025-07-23T12:13:42Z</time>
      </trkpt>
      <trkpt lat="43.74372" lon="-1.02639">
        <ele>42.4</ele>
        <time>2025-07-23T12:13:45Z</time>
      </trkpt>
      <trkpt lat="43.74372" lon="-1.02623">
        <ele>42.4</ele>
        <time>2025-07-23T12:13:47Z</time>
      </trkpt>
      <trkpt lat="43.74374" lon="-1.02607">
        <ele>42.4</ele>
        <time>2025-07-23T12:13:49Z</time>
      </trkpt>
      <trkpt lat="43.74375" lon="-1.02599">
        <ele>42.4</ele>
        <time>2025-07-23T12:13:50Z</time>
      </trkpt>
      <trkpt lat="43.74388" lon="-1.02531">
        <ele>42.6</ele>
        <time>2025-07-23T12:13:58Z</time>
      </trkpt>
      <trkpt lat="43.74397" lon="-1.02471">
        <ele>42.6</ele>
        <time>2025-07-23T12:14:05Z</time>
      </trkpt>
      <trkpt lat="43.74403" lon="-1.02437">
        <ele>42.6</ele>
        <time>2025-07-23T12:14:09Z</time>
      </trkpt>
      <trkpt lat="43.7441" lon="-1.02374">
        <ele>42.2</ele>
        <time>2025-07-23T12:14:16Z</time>
      </trkpt>
      <trkpt lat="43.74413" lon="-1.02349">
        <ele>42.2</ele>
        <time>2025-07-23T12:14:19Z</time>
      </trkpt>
      <trkpt lat="43.74417" lon="-1.02313">
        <ele>42</ele>
        <time>2025-07-23T12:14:23Z</time>
      </trkpt>
      <trkpt lat="43.74428" lon="-1.02233">
        <ele>41.8</ele>
        <time>2025-07-23T12:14:32Z</time>
      </trkpt>
      <trkpt lat="43.74429" lon="-1.02225">
        <ele>41.8</ele>
        <time>2025-07-23T12:14:33Z</time>
      </trkpt>
      <trkpt lat="43.74437" lon="-1.02166">
        <ele>41.8</ele>
        <time>2025-07-23T12:14:40Z</time>
      </trkpt>
      <trkpt lat="43.74448" lon="-1.02084">
        <ele>41.4</ele>
        <time>2025-07-23T12:14:49Z</time>
      </trkpt>
      <trkpt lat="43.74451" lon="-1.02067">
        <ele>41.2</ele>
        <time>2025-07-23T12:14:51Z</time>
      </trkpt>
      <trkpt lat="43.74456" lon="-1.02033">
        <ele>41</ele>
        <time>2025-07-23T12:14:55Z</time>
      </trkpt>
      <trkpt lat="43.74461" lon="-1.01992">
        <ele>40.6</ele>
        <time>2025-07-23T12:15:00Z</time>
      </trkpt>
      <trkpt lat="43.74466" lon="-1.01928">
        <ele>40.2</ele>
        <time>2025-07-23T12:15:07Z</time>
      </trkpt>
      <trkpt lat="43.74468" lon="-1.01897">
        <ele>39.8</ele>
        <time>2025-07-23T12:15:10Z</time>
      </trkpt>
      <trkpt lat="43.74471" lon="-1.01847">
        <ele>39.4</ele>
        <time>2025-07-23T12:15:15Z</time>
      </trkpt>
      <trkpt lat="43.74477" lon="-1.01832">
        <ele>39</ele>
        <time>2025-07-23T12:15:17Z</time>
      </trkpt>
      <trkpt lat="43.74482" lon="-1.01825">
        <ele>39</ele>
        <time>2025-07-23T12:15:18Z</time>
      </trkpt>
      <trkpt lat="43.74489" lon="-1.01818">
        <ele>38.8</ele>
        <time>2025-07-23T12:15:19Z</time>
      </trkpt>
      <trkpt lat="43.74501" lon="-1.0181">
        <ele>38.8</ele>
        <time>2025-07-23T12:15:21Z</time>
      </trkpt>
      <trkpt lat="43.74556" lon="-1.01777">
        <ele>38.8</ele>
        <time>2025-07-23T12:15:30Z</time>
      </trkpt>
      <trkpt lat="43.746" lon="-1.01749">
        <ele>39.2</ele>
        <time>2025-07-23T12:15:38Z</time>
      </trkpt>
      <trkpt lat="43.74652" lon="-1.01715">
        <ele>39.6</ele>
        <time>2025-07-23T12:15:47Z</time>
      </trkpt>
      <trkpt lat="43.74663" lon="-1.01707">
        <ele>39.8</ele>
        <time>2025-07-23T12:15:49Z</time>
      </trkpt>
      <trkpt lat="43.74693" lon="-1.01691">
        <ele>39.8</ele>
        <time>2025-07-23T12:15:54Z</time>
      </trkpt>
      <trkpt lat="43.747" lon="-1.0169">
        <ele>39.8</ele>
        <time>2025-07-23T12:15:55Z</time>
      </trkpt>
      <trkpt lat="43.74706" lon="-1.0169">
        <ele>39.8</ele>
        <time>2025-07-23T12:15:56Z</time>
      </trkpt>
      <trkpt lat="43.7473" lon="-1.01688">
        <ele>39.8</ele>
        <time>2025-07-23T12:16:00Z</time>
      </trkpt>
      <trkpt lat="43.74741" lon="-1.01683">
        <ele>39.6</ele>
        <time>2025-07-23T12:16:02Z</time>
      </trkpt>
      <trkpt lat="43.74758" lon="-1.01672">
        <ele>39.6</ele>
        <time>2025-07-23T12:16:05Z</time>
      </trkpt>
      <trkpt lat="43.748" lon="-1.01645">
        <ele>39.6</ele>
        <time>2025-07-23T12:16:13Z</time>
      </trkpt>
      <trkpt lat="43.74814" lon="-1.01635">
        <ele>39.4</ele>
        <time>2025-07-23T12:16:16Z</time>
      </trkpt>
      <trkpt lat="43.74819" lon="-1.01625">
        <ele>39.4</ele>
        <time>2025-07-23T12:16:18Z</time>
      </trkpt>
      <trkpt lat="43.74816" lon="-1.01613">
        <ele>39.4</ele>
        <time>2025-07-23T12:16:20Z</time>
      </trkpt>
      <trkpt lat="43.74814" lon="-1.01608">
        <ele>39.4</ele>
        <time>2025-07-23T12:16:21Z</time>
      </trkpt>
      <trkpt lat="43.74807" lon="-1.01592">
        <ele>39.4</ele>
        <time>2025-07-23T12:16:24Z</time>
      </trkpt>
      <trkpt lat="43.74799" lon="-1.01586">
        <ele>39.2</ele>
        <time>2025-07-23T12:16:26Z</time>
      </trkpt>
      <trkpt lat="43.74773" lon="-1.01582">
        <ele>39.2</ele>
        <time>2025-07-23T12:16:31Z</time>
      </trkpt>
      <trkpt lat="43.74739" lon="-1.01572">
        <ele>39</ele>
        <time>2025-07-23T12:16:37Z</time>
      </trkpt>
      <trkpt lat="43.74692" lon="-1.01553">
        <ele>38.8</ele>
        <time>2025-07-23T12:16:45Z</time>
      </trkpt>
      <trkpt lat="43.74638" lon="-1.01531">
        <ele>38.6</ele>
        <time>2025-07-23T12:16:54Z</time>
      </trkpt>
      <trkpt lat="43.74632" lon="-1.01528">
        <ele>38.6</ele>
        <time>2025-07-23T12:16:55Z</time>
      </trkpt>
      <trkpt lat="43.74577" lon="-1.01504">
        <ele>38</ele>
        <time>2025-07-23T12:17:04Z</time>
      </trkpt>
      <trkpt lat="43.74566" lon="-1.01499">
        <ele>37.8</ele>
        <time>2025-07-23T12:17:06Z</time>
      </trkpt>
      <trkpt lat="43.74561" lon="-1.01497">
        <ele>37.8</ele>
        <time>2025-07-23T12:17:07Z</time>
      </trkpt>
      <trkpt lat="43.74552" lon="-1.01492">
        <ele>37.6</ele>
        <time>2025-07-23T12:17:09Z</time>
      </trkpt>
      <trkpt lat="43.74548" lon="-1.01487">
        <ele>37.6</ele>
        <time>2025-07-23T12:17:10Z</time>
      </trkpt>
      <trkpt lat="43.74546" lon="-1.01482">
        <ele>37.4</ele>
        <time>2025-07-23T12:17:11Z</time>
      </trkpt>
      <trkpt lat="43.74547" lon="-1.0147">
        <ele>37.4</ele>
        <time>2025-07-23T12:17:13Z</time>
      </trkpt>
      <trkpt lat="43.7456" lon="-1.01423">
        <ele>37.4</ele>
        <time>2025-07-23T12:17:20Z</time>
      </trkpt>
      <trkpt lat="43.74577" lon="-1.01363">
        <ele>36.8</ele>
        <time>2025-07-23T12:17:28Z</time>
      </trkpt>
      <trkpt lat="43.74579" lon="-1.01354">
        <ele>36.8</ele>
        <time>2025-07-23T12:17:29Z</time>
      </trkpt>
      <trkpt lat="43.74594" lon="-1.01286">
        <ele>36.4</ele>
        <time>2025-07-23T12:17:37Z</time>
      </trkpt>
      <trkpt lat="43.74607" lon="-1.01225">
        <ele>36.2</ele>
        <time>2025-07-23T12:17:44Z</time>
      </trkpt>
      <trkpt lat="43.74624" lon="-1.01147">
        <ele>35.8</ele>
        <time>2025-07-23T12:17:53Z</time>
      </trkpt>
      <trkpt lat="43.74625" lon="-1.01138">
        <ele>35.8</ele>
        <time>2025-07-23T12:17:54Z</time>
      </trkpt>
      <trkpt lat="43.74642" lon="-1.01065">
        <ele>35.8</ele>
        <time>2025-07-23T12:18:03Z</time>
      </trkpt>
      <trkpt lat="43.74643" lon="-1.01056">
        <ele>35.8</ele>
        <time>2025-07-23T12:18:04Z</time>
      </trkpt>
      <trkpt lat="43.74646" lon="-1.01041">
        <ele>35.8</ele>
        <time>2025-07-23T12:18:06Z</time>
      </trkpt>
      <trkpt lat="43.74649" lon="-1.01025">
        <ele>35.8</ele>
        <time>2025-07-23T12:18:08Z</time>
      </trkpt>
      <trkpt lat="43.74652" lon="-1.01019">
        <ele>35.8</ele>
        <time>2025-07-23T12:18:09Z</time>
      </trkpt>
      <trkpt lat="43.74656" lon="-1.01016">
        <ele>35.8</ele>
        <time>2025-07-23T12:18:10Z</time>
      </trkpt>
      <trkpt lat="43.7466" lon="-1.01016">
        <ele>35.8</ele>
        <time>2025-07-23T12:18:11Z</time>
      </trkpt>
      <trkpt lat="43.7468" lon="-1.01018">
        <ele>36</ele>
        <time>2025-07-23T12:18:15Z</time>
      </trkpt>
      <trkpt lat="43.74691" lon="-1.01021">
        <ele>36</ele>
        <time>2025-07-23T12:18:17Z</time>
      </trkpt>
      <trkpt lat="43.7472" lon="-1.01026">
        <ele>36</ele>
        <time>2025-07-23T12:18:22Z</time>
      </trkpt>
      <trkpt lat="43.74773" lon="-1.01024">
        <ele>36.2</ele>
        <time>2025-07-23T12:18:31Z</time>
      </trkpt>
      <trkpt lat="43.74778" lon="-1.01024">
        <ele>36.2</ele>
        <time>2025-07-23T12:18:32Z</time>
      </trkpt>
      <trkpt lat="43.74801" lon="-1.01017">
        <ele>36.4</ele>
        <time>2025-07-23T12:18:36Z</time>
      </trkpt>
      <trkpt lat="43.74842" lon="-1.01003">
        <ele>36.2</ele>
        <time>2025-07-23T12:18:43Z</time>
      </trkpt>
      <trkpt lat="43.74877" lon="-1.00984">
        <ele>36.2</ele>
        <time>2025-07-23T12:18:50Z</time>
      </trkpt>
      <trkpt lat="43.74923" lon="-1.00959">
        <ele>36.6</ele>
        <time>2025-07-23T12:18:59Z</time>
      </trkpt>
      <trkpt lat="43.74948" lon="-1.00947">
        <ele>37</ele>
        <time>2025-07-23T12:19:04Z</time>
      </trkpt>
      <trkpt lat="43.74957" lon="-1.00941">
        <ele>37</ele>
        <time>2025-07-23T12:19:06Z</time>
      </trkpt>
      <trkpt lat="43.74987" lon="-1.00928">
        <ele>37.2</ele>
        <time>2025-07-23T12:19:12Z</time>
      </trkpt>
      <trkpt lat="43.75025" lon="-1.00909">
        <ele>37.4</ele>
        <time>2025-07-23T12:19:20Z</time>
      </trkpt>
      <trkpt lat="43.75029" lon="-1.00908">
        <ele>37.6</ele>
        <time>2025-07-23T12:19:21Z</time>
      </trkpt>
      <trkpt lat="43.75041" lon="-1.00904">
        <ele>37.8</ele>
        <time>2025-07-23T12:19:24Z</time>
      </trkpt>
      <trkpt lat="43.75044" lon="-1.00903">
        <ele>37.8</ele>
        <time>2025-07-23T12:19:25Z</time>
      </trkpt>
      <trkpt lat="43.75061" lon="-1.00894">
        <ele>38</ele>
        <time>2025-07-23T12:19:30Z</time>
      </trkpt>
      <trkpt lat="43.75082" lon="-1.00883">
        <ele>38.4</ele>
        <time>2025-07-23T12:19:37Z</time>
      </trkpt>
      <trkpt lat="43.75099" lon="-1.00869">
        <ele>38.6</ele>
        <time>2025-07-23T12:19:43Z</time>
      </trkpt>
      <trkpt lat="43.75119" lon="-1.00859">
        <ele>38.6</ele>
        <time>2025-07-23T12:19:48Z</time>
      </trkpt>
      <trkpt lat="43.75128" lon="-1.00855">
        <ele>38.6</ele>
        <time>2025-07-23T12:19:50Z</time>
      </trkpt>
      <trkpt lat="43.7514" lon="-1.00849">
        <ele>38.8</ele>
        <time>2025-07-23T12:19:53Z</time>
      </trkpt>
      <trkpt lat="43.75144" lon="-1.00849">
        <ele>38.8</ele>
        <time>2025-07-23T12:19:54Z</time>
      </trkpt>
      <trkpt lat="43.75156" lon="-1.00849">
        <ele>39.2</ele>
        <time>2025-07-23T12:19:59Z</time>
      </trkpt>
      <trkpt lat="43.75156" lon="-1.0085">
        <ele>39.2</ele>
        <time>2025-07-23T12:20:02Z</time>
      </trkpt>
      <trkpt lat="43.75161" lon="-1.00838">
        <ele>39.2</ele>
        <time>2025-07-23T12:21:31Z</time>
      </trkpt>
      <trkpt lat="43.75173" lon="-1.00832">
        <ele>39.2</ele>
        <time>2025-07-23T12:21:38Z</time>
      </trkpt>
      <trkpt lat="43.75184" lon="-1.00819">
        <ele>39.2</ele>
        <time>2025-07-23T12:21:43Z</time>
      </trkpt>
      <trkpt lat="43.75187" lon="-1.00804">
        <ele>39.2</ele>
        <time>2025-07-23T12:21:48Z</time>
      </trkpt>
      <trkpt lat="43.75187" lon="-1.00798">
        <ele>39.2</ele>
        <time>2025-07-23T12:21:50Z</time>
      </trkpt>
      <trkpt lat="43.75193" lon="-1.00792">
        <ele>39</ele>
        <time>2025-07-23T12:21:52Z</time>
      </trkpt>
      <trkpt lat="43.75197" lon="-1.00791">
        <ele>39</ele>
        <time>2025-07-23T12:21:53Z</time>
      </trkpt>
      <trkpt lat="43.75218" lon="-1.00789">
        <ele>39.2</ele>
        <time>2025-07-23T12:21:58Z</time>
      </trkpt>
      <trkpt lat="43.75255" lon="-1.00781">
        <ele>39.2</ele>
        <time>2025-07-23T12:22:06Z</time>
      </trkpt>
      <trkpt lat="43.75289" lon="-1.00767">
        <ele>39.6</ele>
        <time>2025-07-23T12:22:13Z</time>
      </trkpt>
      <trkpt lat="43.75295" lon="-1.00764">
        <ele>39.6</ele>
        <time>2025-07-23T12:22:14Z</time>
      </trkpt>
      <trkpt lat="43.75333" lon="-1.00745">
        <ele>39.8</ele>
        <time>2025-07-23T12:22:21Z</time>
      </trkpt>
      <trkpt lat="43.75377" lon="-1.00722">
        <ele>40</ele>
        <time>2025-07-23T12:22:28Z</time>
      </trkpt>
      <trkpt lat="43.75433" lon="-1.00693">
        <ele>40.4</ele>
        <time>2025-07-23T12:22:37Z</time>
      </trkpt>
      <trkpt lat="43.75457" lon="-1.0068">
        <ele>40.6</ele>
        <time>2025-07-23T12:22:41Z</time>
      </trkpt>
      <trkpt lat="43.75509" lon="-1.00653">
        <ele>41</ele>
        <time>2025-07-23T12:22:50Z</time>
      </trkpt>
      <trkpt lat="43.75515" lon="-1.0065">
        <ele>41</ele>
        <time>2025-07-23T12:22:51Z</time>
      </trkpt>
      <trkpt lat="43.75566" lon="-1.00624">
        <ele>41.6</ele>
        <time>2025-07-23T12:23:00Z</time>
      </trkpt>
      <trkpt lat="43.75572" lon="-1.00621">
        <ele>41.6</ele>
        <time>2025-07-23T12:23:01Z</time>
      </trkpt>
      <trkpt lat="43.75584" lon="-1.00615">
        <ele>41.8</ele>
        <time>2025-07-23T12:23:03Z</time>
      </trkpt>
      <trkpt lat="43.75635" lon="-1.00589">
        <ele>42.4</ele>
        <time>2025-07-23T12:23:12Z</time>
      </trkpt>
      <trkpt lat="43.75689" lon="-1.00563">
        <ele>42.8</ele>
        <time>2025-07-23T12:23:21Z</time>
      </trkpt>
      <trkpt lat="43.75713" lon="-1.0055">
        <ele>42.8</ele>
        <time>2025-07-23T12:23:25Z</time>
      </trkpt>
      <trkpt lat="43.75749" lon="-1.0053">
        <ele>43</ele>
        <time>2025-07-23T12:23:31Z</time>
      </trkpt>
      <trkpt lat="43.75793" lon="-1.00507">
        <ele>43.2</ele>
        <time>2025-07-23T12:23:38Z</time>
      </trkpt>
      <trkpt lat="43.75825" lon="-1.00492">
        <ele>43.2</ele>
        <time>2025-07-23T12:23:43Z</time>
      </trkpt>
      <trkpt lat="43.75831" lon="-1.00488">
        <ele>43.2</ele>
        <time>2025-07-23T12:23:44Z</time>
      </trkpt>
      <trkpt lat="43.75875" lon="-1.00465">
        <ele>43</ele>
        <time>2025-07-23T12:23:51Z</time>
      </trkpt>
      <trkpt lat="43.75888" lon="-1.00458">
        <ele>42.8</ele>
        <time>2025-07-23T12:23:53Z</time>
      </trkpt>
      <trkpt lat="43.759" lon="-1.00451">
        <ele>42.8</ele>
        <time>2025-07-23T12:23:55Z</time>
      </trkpt>
      <trkpt lat="43.75907" lon="-1.00448">
        <ele>42.8</ele>
        <time>2025-07-23T12:23:56Z</time>
      </trkpt>
      <trkpt lat="43.7595" lon="-1.00427">
        <ele>43</ele>
        <time>2025-07-23T12:24:03Z</time>
      </trkpt>
      <trkpt lat="43.76" lon="-1.00401">
        <ele>43.2</ele>
        <time>2025-07-23T12:24:11Z</time>
      </trkpt>
      <trkpt lat="43.76045" lon="-1.00376">
        <ele>43.8</ele>
        <time>2025-07-23T12:24:19Z</time>
      </trkpt>
      <trkpt lat="43.76056" lon="-1.00371">
        <ele>44</ele>
        <time>2025-07-23T12:24:21Z</time>
      </trkpt>
      <trkpt lat="43.76088" lon="-1.00354">
        <ele>44.6</ele>
        <time>2025-07-23T12:24:27Z</time>
      </trkpt>
      <trkpt lat="43.76093" lon="-1.00351">
        <ele>44.8</ele>
        <time>2025-07-23T12:24:28Z</time>
      </trkpt>
      <trkpt lat="43.76148" lon="-1.00322">
        <ele>45.8</ele>
        <time>2025-07-23T12:24:38Z</time>
      </trkpt>
      <trkpt lat="43.76153" lon="-1.0032">
        <ele>46</ele>
        <time>2025-07-23T12:24:39Z</time>
      </trkpt>
      <trkpt lat="43.76199" lon="-1.00295">
        <ele>46.4</ele>
        <time>2025-07-23T12:24:47Z</time>
      </trkpt>
      <trkpt lat="43.76252" lon="-1.00268">
        <ele>46.6</ele>
        <time>2025-07-23T12:24:56Z</time>
      </trkpt>
      <trkpt lat="43.76307" lon="-1.00241">
        <ele>47</ele>
        <time>2025-07-23T12:25:05Z</time>
      </trkpt>
      <trkpt lat="43.76357" lon="-1.00213">
        <ele>47.2</ele>
        <time>2025-07-23T12:25:13Z</time>
      </trkpt>
      <trkpt lat="43.7637" lon="-1.00206">
        <ele>47</ele>
        <time>2025-07-23T12:25:15Z</time>
      </trkpt>
      <trkpt lat="43.76419" lon="-1.00179">
        <ele>47</ele>
        <time>2025-07-23T12:25:23Z</time>
      </trkpt>
      <trkpt lat="43.76476" lon="-1.00151">
        <ele>47.2</ele>
        <time>2025-07-23T12:25:32Z</time>
      </trkpt>
      <trkpt lat="43.76528" lon="-1.00124">
        <ele>47.2</ele>
        <time>2025-07-23T12:25:40Z</time>
      </trkpt>
      <trkpt lat="43.76535" lon="-1.0012">
        <ele>47.2</ele>
        <time>2025-07-23T12:25:41Z</time>
      </trkpt>
      <trkpt lat="43.76587" lon="-1.00093">
        <ele>47.2</ele>
        <time>2025-07-23T12:25:49Z</time>
      </trkpt>
      <trkpt lat="43.76593" lon="-1.0009">
        <ele>47.2</ele>
        <time>2025-07-23T12:25:50Z</time>
      </trkpt>
      <trkpt lat="43.76646" lon="-1.00064">
        <ele>47.2</ele>
        <time>2025-07-23T12:25:58Z</time>
      </trkpt>
      <trkpt lat="43.76678" lon="-1.00047">
        <ele>47.2</ele>
        <time>2025-07-23T12:26:03Z</time>
      </trkpt>
      <trkpt lat="43.76729" lon="-1.0002">
        <ele>47.2</ele>
        <time>2025-07-23T12:26:11Z</time>
      </trkpt>
      <trkpt lat="43.76742" lon="-1.00014">
        <ele>47.2</ele>
        <time>2025-07-23T12:26:13Z</time>
      </trkpt>
      <trkpt lat="43.76786" lon="-0.99992">
        <ele>47.2</ele>
        <time>2025-07-23T12:26:20Z</time>
      </trkpt>
      <trkpt lat="43.76838" lon="-0.99963">
        <ele>47.8</ele>
        <time>2025-07-23T12:26:28Z</time>
      </trkpt>
      <trkpt lat="43.76891" lon="-0.99936">
        <ele>47.6</ele>
        <time>2025-07-23T12:26:36Z</time>
      </trkpt>
      <trkpt lat="43.76904" lon="-0.99929">
        <ele>47.6</ele>
        <time>2025-07-23T12:26:38Z</time>
      </trkpt>
      <trkpt lat="43.76958" lon="-0.99903">
        <ele>46.8</ele>
        <time>2025-07-23T12:26:46Z</time>
      </trkpt>
      <trkpt lat="43.76965" lon="-0.99899">
        <ele>46.8</ele>
        <time>2025-07-23T12:26:47Z</time>
      </trkpt>
      <trkpt lat="43.76972" lon="-0.99896">
        <ele>46.8</ele>
        <time>2025-07-23T12:26:48Z</time>
      </trkpt>
      <trkpt lat="43.7701" lon="-0.99877">
        <ele>45.6</ele>
        <time>2025-07-23T12:26:53Z</time>
      </trkpt>
      <trkpt lat="43.77018" lon="-0.99874">
        <ele>45.2</ele>
        <time>2025-07-23T12:26:54Z</time>
      </trkpt>
      <trkpt lat="43.77047" lon="-0.99857">
        <ele>44.2</ele>
        <time>2025-07-23T12:26:58Z</time>
      </trkpt>
      <trkpt lat="43.77091" lon="-0.99834">
        <ele>43.6</ele>
        <time>2025-07-23T12:27:04Z</time>
      </trkpt>
      <trkpt lat="43.77143" lon="-0.99806">
        <ele>43.8</ele>
        <time>2025-07-23T12:27:12Z</time>
      </trkpt>
      <trkpt lat="43.77149" lon="-0.99803">
        <ele>43.8</ele>
        <time>2025-07-23T12:27:13Z</time>
      </trkpt>
      <trkpt lat="43.77196" lon="-0.99778">
        <ele>44.4</ele>
        <time>2025-07-23T12:27:21Z</time>
      </trkpt>
      <trkpt lat="43.77248" lon="-0.99749">
        <ele>45.2</ele>
        <time>2025-07-23T12:27:30Z</time>
      </trkpt>
      <trkpt lat="43.77254" lon="-0.99746">
        <ele>45.4</ele>
        <time>2025-07-23T12:27:31Z</time>
      </trkpt>
      <trkpt lat="43.7726" lon="-0.99744">
        <ele>45.4</ele>
        <time>2025-07-23T12:27:32Z</time>
      </trkpt>
      <trkpt lat="43.77311" lon="-0.99718">
        <ele>45.6</ele>
        <time>2025-07-23T12:27:40Z</time>
      </trkpt>
      <trkpt lat="43.77317" lon="-0.99714">
        <ele>45.6</ele>
        <time>2025-07-23T12:27:41Z</time>
      </trkpt>
      <trkpt lat="43.77362" lon="-0.99691">
        <ele>45.6</ele>
        <time>2025-07-23T12:27:48Z</time>
      </trkpt>
      <trkpt lat="43.77424" lon="-0.99659">
        <ele>46.4</ele>
        <time>2025-07-23T12:27:58Z</time>
      </trkpt>
      <trkpt lat="43.7743" lon="-0.99656">
        <ele>46.4</ele>
        <time>2025-07-23T12:27:59Z</time>
      </trkpt>
      <trkpt lat="43.77484" lon="-0.99629">
        <ele>47.2</ele>
        <time>2025-07-23T12:28:08Z</time>
      </trkpt>
      <trkpt lat="43.77496" lon="-0.99622">
        <ele>47.4</ele>
        <time>2025-07-23T12:28:10Z</time>
      </trkpt>
      <trkpt lat="43.77545" lon="-0.99598">
        <ele>48</ele>
        <time>2025-07-23T12:28:18Z</time>
      </trkpt>
      <trkpt lat="43.776" lon="-0.99569">
        <ele>48.4</ele>
        <time>2025-07-23T12:28:27Z</time>
      </trkpt>
      <trkpt lat="43.77614" lon="-0.99562">
        <ele>48.4</ele>
        <time>2025-07-23T12:28:29Z</time>
      </trkpt>
      <trkpt lat="43.7767" lon="-0.99533">
        <ele>48.8</ele>
        <time>2025-07-23T12:28:38Z</time>
      </trkpt>
      <trkpt lat="43.77726" lon="-0.99505">
        <ele>49.4</ele>
        <time>2025-07-23T12:28:47Z</time>
      </trkpt>
      <trkpt lat="43.77732" lon="-0.99501">
        <ele>49.4</ele>
        <time>2025-07-23T12:28:48Z</time>
      </trkpt>
      <trkpt lat="43.77739" lon="-0.99497">
        <ele>49.4</ele>
        <time>2025-07-23T12:28:49Z</time>
      </trkpt>
      <trkpt lat="43.77774" lon="-0.99479">
        <ele>49.6</ele>
        <time>2025-07-23T12:28:55Z</time>
      </trkpt>
      <trkpt lat="43.77819" lon="-0.99455">
        <ele>50.2</ele>
        <time>2025-07-23T12:29:03Z</time>
      </trkpt>
      <trkpt lat="43.77854" lon="-0.99437">
        <ele>50.4</ele>
        <time>2025-07-23T12:29:09Z</time>
      </trkpt>
      <trkpt lat="43.77867" lon="-0.9943">
        <ele>50.6</ele>
        <time>2025-07-23T12:29:11Z</time>
      </trkpt>
      <trkpt lat="43.77917" lon="-0.99403">
        <ele>51.2</ele>
        <time>2025-07-23T12:29:20Z</time>
      </trkpt>
      <trkpt lat="43.77922" lon="-0.994">
        <ele>51.4</ele>
        <time>2025-07-23T12:29:21Z</time>
      </trkpt>
      <trkpt lat="43.77962" lon="-0.9938">
        <ele>51.8</ele>
        <time>2025-07-23T12:29:28Z</time>
      </trkpt>
      <trkpt lat="43.77974" lon="-0.99375">
        <ele>52</ele>
        <time>2025-07-23T12:29:30Z</time>
      </trkpt>
      <trkpt lat="43.78026" lon="-0.99347">
        <ele>52.2</ele>
        <time>2025-07-23T12:29:39Z</time>
      </trkpt>
      <trkpt lat="43.78081" lon="-0.99318">
        <ele>52.2</ele>
        <time>2025-07-23T12:29:48Z</time>
      </trkpt>
      <trkpt lat="43.7811" lon="-0.99305">
        <ele>52.4</ele>
        <time>2025-07-23T12:29:53Z</time>
      </trkpt>
      <trkpt lat="43.78115" lon="-0.99302">
        <ele>52.4</ele>
        <time>2025-07-23T12:29:54Z</time>
      </trkpt>
      <trkpt lat="43.78142" lon="-0.99288">
        <ele>52.8</ele>
        <time>2025-07-23T12:29:59Z</time>
      </trkpt>
      <trkpt lat="43.78157" lon="-0.99282">
        <ele>53</ele>
        <time>2025-07-23T12:30:02Z</time>
      </trkpt>
      <trkpt lat="43.78178" lon="-0.99272">
        <ele>53</ele>
        <time>2025-07-23T12:30:07Z</time>
      </trkpt>
      <trkpt lat="43.78185" lon="-0.9927">
        <ele>53</ele>
        <time>2025-07-23T12:30:11Z</time>
      </trkpt>
      <trkpt lat="43.78181" lon="-0.99274">
        <ele>53</ele>
        <time>2025-07-23T12:30:14Z</time>
      </trkpt>
      <trkpt lat="43.78166" lon="-0.99281">
        <ele>53</ele>
        <time>2025-07-23T12:30:19Z</time>
      </trkpt>
      <trkpt lat="43.7814" lon="-0.99296">
        <ele>53</ele>
        <time>2025-07-23T12:30:25Z</time>
      </trkpt>
      <trkpt lat="43.78126" lon="-0.99303">
        <ele>53</ele>
        <time>2025-07-23T12:30:28Z</time>
      </trkpt>
      <trkpt lat="43.78121" lon="-0.99311">
        <ele>53</ele>
        <time>2025-07-23T12:30:30Z</time>
      </trkpt>
      <trkpt lat="43.78121" lon="-0.99326">
        <ele>53</ele>
        <time>2025-07-23T12:30:33Z</time>
      </trkpt>
      <trkpt lat="43.78123" lon="-0.99333">
        <ele>53</ele>
        <time>2025-07-23T12:30:34Z</time>
      </trkpt>
      <trkpt lat="43.7814" lon="-0.99379">
        <ele>53.2</ele>
        <time>2025-07-23T12:30:42Z</time>
      </trkpt>
      <trkpt lat="43.78161" lon="-0.99435">
        <ele>53.8</ele>
        <time>2025-07-23T12:30:51Z</time>
      </trkpt>
      <trkpt lat="43.78163" lon="-0.9944">
        <ele>54</ele>
        <time>2025-07-23T12:30:52Z</time>
      </trkpt>
      <trkpt lat="43.78174" lon="-0.99472">
        <ele>54.2</ele>
        <time>2025-07-23T12:30:58Z</time>
      </trkpt>
      <trkpt lat="43.78188" lon="-0.99497">
        <ele>54.8</ele>
        <time>2025-07-23T12:31:03Z</time>
      </trkpt>
      <trkpt lat="43.78192" lon="-0.99502">
        <ele>54.8</ele>
        <time>2025-07-23T12:31:04Z</time>
      </trkpt>
      <trkpt lat="43.782" lon="-0.9951">
        <ele>55</ele>
        <time>2025-07-23T12:31:06Z</time>
      </trkpt>
      <trkpt lat="43.78214" lon="-0.99519">
        <ele>55</ele>
        <time>2025-07-23T12:31:09Z</time>
      </trkpt>
      <trkpt lat="43.78254" lon="-0.99534">
        <ele>55.4</ele>
        <time>2025-07-23T12:31:17Z</time>
      </trkpt>
      <trkpt lat="43.78286" lon="-0.99543">
        <ele>55.8</ele>
        <time>2025-07-23T12:31:23Z</time>
      </trkpt>
      <trkpt lat="43.78301" lon="-0.99547">
        <ele>56.2</ele>
        <time>2025-07-23T12:31:26Z</time>
      </trkpt>
      <trkpt lat="43.78344" lon="-0.99563">
        <ele>56.6</ele>
        <time>2025-07-23T12:31:34Z</time>
      </trkpt>
      <trkpt lat="43.78355" lon="-0.99566">
        <ele>56.6</ele>
        <time>2025-07-23T12:31:36Z</time>
      </trkpt>
      <trkpt lat="43.78377" lon="-0.99571">
        <ele>56.8</ele>
        <time>2025-07-23T12:31:40Z</time>
      </trkpt>
      <trkpt lat="43.78382" lon="-0.99573">
        <ele>57</ele>
        <time>2025-07-23T12:31:41Z</time>
      </trkpt>
      <trkpt lat="43.78433" lon="-0.99588">
        <ele>57</ele>
        <time>2025-07-23T12:31:50Z</time>
      </trkpt>
      <trkpt lat="43.78479" lon="-0.99603">
        <ele>57</ele>
        <time>2025-07-23T12:31:58Z</time>
      </trkpt>
      <trkpt lat="43.7852" lon="-0.99616">
        <ele>57</ele>
        <time>2025-07-23T12:32:05Z</time>
      </trkpt>
      <trkpt lat="43.78527" lon="-0.99618">
        <ele>57</ele>
        <time>2025-07-23T12:32:06Z</time>
      </trkpt>
      <trkpt lat="43.78545" lon="-0.99617">
        <ele>57.2</ele>
        <time>2025-07-23T12:32:09Z</time>
      </trkpt>
      <trkpt lat="43.7859" lon="-0.99613">
        <ele>57.4</ele>
        <time>2025-07-23T12:32:16Z</time>
      </trkpt>
      <trkpt lat="43.78645" lon="-0.99611">
        <ele>57.6</ele>
        <time>2025-07-23T12:32:25Z</time>
      </trkpt>
      <trkpt lat="43.78652" lon="-0.99611">
        <ele>57.6</ele>
        <time>2025-07-23T12:32:26Z</time>
      </trkpt>
      <trkpt lat="43.78708" lon="-0.99611">
        <ele>57.8</ele>
        <time>2025-07-23T12:32:35Z</time>
      </trkpt>
      <trkpt lat="43.78714" lon="-0.99611">
        <ele>58</ele>
        <time>2025-07-23T12:32:36Z</time>
      </trkpt>
      <trkpt lat="43.78749" lon="-0.99608">
        <ele>58</ele>
        <time>2025-07-23T12:32:42Z</time>
      </trkpt>
      <trkpt lat="43.78804" lon="-0.99608">
        <ele>58.4</ele>
        <time>2025-07-23T12:32:51Z</time>
      </trkpt>
      <trkpt lat="43.78846" lon="-0.99608">
        <ele>59</ele>
        <time>2025-07-23T12:32:58Z</time>
      </trkpt>
      <trkpt lat="43.78857" lon="-0.99607">
        <ele>59.2</ele>
        <time>2025-07-23T12:33:00Z</time>
      </trkpt>
      <trkpt lat="43.78901" lon="-0.99605">
        <ele>59.6</ele>
        <time>2025-07-23T12:33:07Z</time>
      </trkpt>
      <trkpt lat="43.78942" lon="-0.99606">
        <ele>60</ele>
        <time>2025-07-23T12:33:14Z</time>
      </trkpt>
      <trkpt lat="43.78996" lon="-0.99605">
        <ele>60</ele>
        <time>2025-07-23T12:33:23Z</time>
      </trkpt>
      <trkpt lat="43.79016" lon="-0.99606">
        <ele>60</ele>
        <time>2025-07-23T12:33:26Z</time>
      </trkpt>
      <trkpt lat="43.79027" lon="-0.99608">
        <ele>60.2</ele>
        <time>2025-07-23T12:33:28Z</time>
      </trkpt>
      <trkpt lat="43.79034" lon="-0.9961">
        <ele>60.2</ele>
        <time>2025-07-23T12:33:29Z</time>
      </trkpt>
      <trkpt lat="43.79073" lon="-0.99629">
        <ele>60.8</ele>
        <time>2025-07-23T12:33:36Z</time>
      </trkpt>
      <trkpt lat="43.79121" lon="-0.99666">
        <ele>61</ele>
        <time>2025-07-23T12:33:45Z</time>
      </trkpt>
      <trkpt lat="43.79137" lon="-0.99674">
        <ele>61.2</ele>
        <time>2025-07-23T12:33:48Z</time>
      </trkpt>
      <trkpt lat="43.79143" lon="-0.99676">
        <ele>61.2</ele>
        <time>2025-07-23T12:33:49Z</time>
      </trkpt>
      <trkpt lat="43.79153" lon="-0.9968">
        <ele>61.4</ele>
        <time>2025-07-23T12:33:51Z</time>
      </trkpt>
      <trkpt lat="43.79171" lon="-0.99685">
        <ele>61.6</ele>
        <time>2025-07-23T12:33:54Z</time>
      </trkpt>
      <trkpt lat="43.79193" lon="-0.99688">
        <ele>62</ele>
        <time>2025-07-23T12:33:58Z</time>
      </trkpt>
      <trkpt lat="43.79204" lon="-0.99688">
        <ele>62.2</ele>
        <time>2025-07-23T12:34:00Z</time>
      </trkpt>
      <trkpt lat="43.79233" lon="-0.99684">
        <ele>62.6</ele>
        <time>2025-07-23T12:34:05Z</time>
      </trkpt>
      <trkpt lat="43.79285" lon="-0.99668">
        <ele>63.4</ele>
        <time>2025-07-23T12:34:14Z</time>
      </trkpt>
      <trkpt lat="43.79292" lon="-0.99666">
        <ele>63.4</ele>
        <time>2025-07-23T12:34:15Z</time>
      </trkpt>
      <trkpt lat="43.79334" lon="-0.99651">
        <ele>64.2</ele>
        <time>2025-07-23T12:34:23Z</time>
      </trkpt>
      <trkpt lat="43.79344" lon="-0.99648">
        <ele>64.6</ele>
        <time>2025-07-23T12:34:25Z</time>
      </trkpt>
      <trkpt lat="43.79356" lon="-0.99643">
        <ele>65.2</ele>
        <time>2025-07-23T12:34:28Z</time>
      </trkpt>
      <trkpt lat="43.79375" lon="-0.99635">
        <ele>65.6</ele>
        <time>2025-07-23T12:34:32Z</time>
      </trkpt>
      <trkpt lat="43.7938" lon="-0.99634">
        <ele>65.6</ele>
        <time>2025-07-23T12:34:33Z</time>
      </trkpt>
      <trkpt lat="43.79386" lon="-0.99632">
        <ele>65.6</ele>
        <time>2025-07-23T12:34:34Z</time>
      </trkpt>
      <trkpt lat="43.79395" lon="-0.9963">
        <ele>65.8</ele>
        <time>2025-07-23T12:34:36Z</time>
      </trkpt>
      <trkpt lat="43.7941" lon="-0.99626">
        <ele>66.2</ele>
        <time>2025-07-23T12:34:39Z</time>
      </trkpt>
      <trkpt lat="43.79436" lon="-0.99617">
        <ele>66.8</ele>
        <time>2025-07-23T12:34:44Z</time>
      </trkpt>
      <trkpt lat="43.79441" lon="-0.99616">
        <ele>66.8</ele>
        <time>2025-07-23T12:34:45Z</time>
      </trkpt>
      <trkpt lat="43.79446" lon="-0.99614">
        <ele>67</ele>
        <time>2025-07-23T12:34:46Z</time>
      </trkpt>
      <trkpt lat="43.79467" lon="-0.99604">
        <ele>67.8</ele>
        <time>2025-07-23T12:34:50Z</time>
      </trkpt>
      <trkpt lat="43.79478" lon="-0.996">
        <ele>68</ele>
        <time>2025-07-23T12:34:52Z</time>
      </trkpt>
      <trkpt lat="43.79489" lon="-0.99595">
        <ele>68.2</ele>
        <time>2025-07-23T12:34:54Z</time>
      </trkpt>
      <trkpt lat="43.79511" lon="-0.99586">
        <ele>68.4</ele>
        <time>2025-07-23T12:34:58Z</time>
      </trkpt>
      <trkpt lat="43.79546" lon="-0.99584">
        <ele>68.8</ele>
        <time>2025-07-23T12:35:04Z</time>
      </trkpt>
      <trkpt lat="43.79552" lon="-0.99586">
        <ele>68.8</ele>
        <time>2025-07-23T12:35:05Z</time>
      </trkpt>
      <trkpt lat="43.79589" lon="-0.99591">
        <ele>69</ele>
        <time>2025-07-23T12:35:11Z</time>
      </trkpt>
      <trkpt lat="43.79623" lon="-0.99604">
        <ele>69.8</ele>
        <time>2025-07-23T12:35:18Z</time>
      </trkpt>
      <trkpt lat="43.79629" lon="-0.99607">
        <ele>69.8</ele>
        <time>2025-07-23T12:35:19Z</time>
      </trkpt>
      <trkpt lat="43.79648" lon="-0.9962">
        <ele>70.4</ele>
        <time>2025-07-23T12:35:23Z</time>
      </trkpt>
      <trkpt lat="43.79658" lon="-0.99625">
        <ele>70.6</ele>
        <time>2025-07-23T12:35:25Z</time>
      </trkpt>
      <trkpt lat="43.79663" lon="-0.99629">
        <ele>70.6</ele>
        <time>2025-07-23T12:35:26Z</time>
      </trkpt>
      <trkpt lat="43.79673" lon="-0.99636">
        <ele>70.8</ele>
        <time>2025-07-23T12:35:28Z</time>
      </trkpt>
      <trkpt lat="43.79678" lon="-0.99639">
        <ele>70.8</ele>
        <time>2025-07-23T12:35:29Z</time>
      </trkpt>
      <trkpt lat="43.79687" lon="-0.99645">
        <ele>70.8</ele>
        <time>2025-07-23T12:35:31Z</time>
      </trkpt>
      <trkpt lat="43.79717" lon="-0.99665">
        <ele>71.6</ele>
        <time>2025-07-23T12:35:37Z</time>
      </trkpt>
      <trkpt lat="43.79727" lon="-0.99672">
        <ele>71.8</ele>
        <time>2025-07-23T12:35:39Z</time>
      </trkpt>
      <trkpt lat="43.79764" lon="-0.99694">
        <ele>72</ele>
        <time>2025-07-23T12:35:46Z</time>
      </trkpt>
      <trkpt lat="43.7977" lon="-0.99698">
        <ele>72</ele>
        <time>2025-07-23T12:35:47Z</time>
      </trkpt>
      <trkpt lat="43.79776" lon="-0.99701">
        <ele>72.2</ele>
        <time>2025-07-23T12:35:48Z</time>
      </trkpt>
      <trkpt lat="43.79803" lon="-0.99719">
        <ele>72.2</ele>
        <time>2025-07-23T12:35:53Z</time>
      </trkpt>
      <trkpt lat="43.79854" lon="-0.99751">
        <ele>72.2</ele>
        <time>2025-07-23T12:36:02Z</time>
      </trkpt>
      <trkpt lat="43.7986" lon="-0.99755">
        <ele>72.2</ele>
        <time>2025-07-23T12:36:03Z</time>
      </trkpt>
      <trkpt lat="43.79912" lon="-0.99787">
        <ele>72.4</ele>
        <time>2025-07-23T12:36:12Z</time>
      </trkpt>
      <trkpt lat="43.79962" lon="-0.99819">
        <ele>72</ele>
        <time>2025-07-23T12:36:21Z</time>
      </trkpt>
      <trkpt lat="43.80013" lon="-0.9985">
        <ele>72.4</ele>
        <time>2025-07-23T12:36:30Z</time>
      </trkpt>
      <trkpt lat="43.80023" lon="-0.99856">
        <ele>72.4</ele>
        <time>2025-07-23T12:36:32Z</time>
      </trkpt>
      <trkpt lat="43.80041" lon="-0.99867">
        <ele>72.6</ele>
        <time>2025-07-23T12:36:35Z</time>
      </trkpt>
      <trkpt lat="43.80068" lon="-0.99884">
        <ele>72.8</ele>
        <time>2025-07-23T12:36:40Z</time>
      </trkpt>
      <trkpt lat="43.80118" lon="-0.99915">
        <ele>73.2</ele>
        <time>2025-07-23T12:36:49Z</time>
      </trkpt>
      <trkpt lat="43.80128" lon="-0.99922">
        <ele>73.2</ele>
        <time>2025-07-23T12:36:51Z</time>
      </trkpt>
      <trkpt lat="43.80155" lon="-0.99939">
        <ele>73.6</ele>
        <time>2025-07-23T12:36:56Z</time>
      </trkpt>
      <trkpt lat="43.80176" lon="-0.99952">
        <ele>74.2</ele>
        <time>2025-07-23T12:37:00Z</time>
      </trkpt>
      <trkpt lat="43.80216" lon="-0.99975">
        <ele>74.6</ele>
        <time>2025-07-23T12:37:08Z</time>
      </trkpt>
      <trkpt lat="43.8022" lon="-0.99978">
        <ele>74.8</ele>
        <time>2025-07-23T12:37:09Z</time>
      </trkpt>
      <trkpt lat="43.80255" lon="-1.00001">
        <ele>76</ele>
        <time>2025-07-23T12:37:16Z</time>
      </trkpt>
      <trkpt lat="43.80276" lon="-1.00013">
        <ele>76.2</ele>
        <time>2025-07-23T12:37:20Z</time>
      </trkpt>
      <trkpt lat="43.80296" lon="-1.00026">
        <ele>77</ele>
        <time>2025-07-23T12:37:24Z</time>
      </trkpt>
      <trkpt lat="43.80322" lon="-1.00043">
        <ele>77</ele>
        <time>2025-07-23T12:37:29Z</time>
      </trkpt>
      <trkpt lat="43.80372" lon="-1.00075">
        <ele>77.6</ele>
        <time>2025-07-23T12:37:38Z</time>
      </trkpt>
      <trkpt lat="43.80387" lon="-1.00084">
        <ele>77.8</ele>
        <time>2025-07-23T12:37:41Z</time>
      </trkpt>
      <trkpt lat="43.80425" lon="-1.00108">
        <ele>78</ele>
        <time>2025-07-23T12:37:48Z</time>
      </trkpt>
      <trkpt lat="43.80461" lon="-1.00122">
        <ele>78.6</ele>
        <time>2025-07-23T12:37:54Z</time>
      </trkpt>
      <trkpt lat="43.80502" lon="-1.00127">
        <ele>78.8</ele>
        <time>2025-07-23T12:38:01Z</time>
      </trkpt>
      <trkpt lat="43.80508" lon="-1.00127">
        <ele>78.8</ele>
        <time>2025-07-23T12:38:02Z</time>
      </trkpt>
      <trkpt lat="43.80564" lon="-1.00124">
        <ele>79.2</ele>
        <time>2025-07-23T12:38:11Z</time>
      </trkpt>
      <trkpt lat="43.80595" lon="-1.00121">
        <ele>79.6</ele>
        <time>2025-07-23T12:38:16Z</time>
      </trkpt>
      <trkpt lat="43.80601" lon="-1.00121">
        <ele>79.6</ele>
        <time>2025-07-23T12:38:17Z</time>
      </trkpt>
      <trkpt lat="43.80631" lon="-1.0012">
        <ele>79.8</ele>
        <time>2025-07-23T12:38:22Z</time>
      </trkpt>
      <trkpt lat="43.80689" lon="-1.00116">
        <ele>80.6</ele>
        <time>2025-07-23T12:38:31Z</time>
      </trkpt>
      <trkpt lat="43.80696" lon="-1.00116">
        <ele>80.6</ele>
        <time>2025-07-23T12:38:32Z</time>
      </trkpt>
      <trkpt lat="43.8072" lon="-1.00115">
        <ele>80.6</ele>
        <time>2025-07-23T12:38:36Z</time>
      </trkpt>
      <trkpt lat="43.80767" lon="-1.00112">
        <ele>80.8</ele>
        <time>2025-07-23T12:38:43Z</time>
      </trkpt>
      <trkpt lat="43.80827" lon="-1.00109">
        <ele>81.2</ele>
        <time>2025-07-23T12:38:52Z</time>
      </trkpt>
      <trkpt lat="43.80833" lon="-1.00109">
        <ele>81.4</ele>
        <time>2025-07-23T12:38:53Z</time>
      </trkpt>
      <trkpt lat="43.80893" lon="-1.00105">
        <ele>81.8</ele>
        <time>2025-07-23T12:39:02Z</time>
      </trkpt>
      <trkpt lat="43.80899" lon="-1.00105">
        <ele>82</ele>
        <time>2025-07-23T12:39:03Z</time>
      </trkpt>
      <trkpt lat="43.80905" lon="-1.00104">
        <ele>82</ele>
        <time>2025-07-23T12:39:04Z</time>
      </trkpt>
      <trkpt lat="43.80964" lon="-1.00101">
        <ele>82.4</ele>
        <time>2025-07-23T12:39:13Z</time>
      </trkpt>
      <trkpt lat="43.80978" lon="-1.001">
        <ele>82.4</ele>
        <time>2025-07-23T12:39:15Z</time>
      </trkpt>
      <trkpt lat="43.81039" lon="-1.00097">
        <ele>82.6</ele>
        <time>2025-07-23T12:39:24Z</time>
      </trkpt>
      <trkpt lat="43.81051" lon="-1.00096">
        <ele>82.8</ele>
        <time>2025-07-23T12:39:26Z</time>
      </trkpt>
      <trkpt lat="43.81085" lon="-1.00094">
        <ele>83</ele>
        <time>2025-07-23T12:39:31Z</time>
      </trkpt>
      <trkpt lat="43.81125" lon="-1.00091">
        <ele>83</ele>
        <time>2025-07-23T12:39:37Z</time>
      </trkpt>
      <trkpt lat="43.81185" lon="-1.00087">
        <ele>83.2</ele>
        <time>2025-07-23T12:39:46Z</time>
      </trkpt>
      <trkpt lat="43.81191" lon="-1.00087">
        <ele>83.2</ele>
        <time>2025-07-23T12:39:47Z</time>
      </trkpt>
      <trkpt lat="43.81244" lon="-1.00084">
        <ele>83.6</ele>
        <time>2025-07-23T12:39:55Z</time>
      </trkpt>
      <trkpt lat="43.81298" lon="-1.00081">
        <ele>84</ele>
        <time>2025-07-23T12:40:03Z</time>
      </trkpt>
      <trkpt lat="43.81311" lon="-1.00081">
        <ele>84</ele>
        <time>2025-07-23T12:40:05Z</time>
      </trkpt>
      <trkpt lat="43.81324" lon="-1.0008">
        <ele>84.2</ele>
        <time>2025-07-23T12:40:07Z</time>
      </trkpt>
      <trkpt lat="43.81343" lon="-1.00078">
        <ele>84.2</ele>
        <time>2025-07-23T12:40:10Z</time>
      </trkpt>
      <trkpt lat="43.81356" lon="-1.00078">
        <ele>84.4</ele>
        <time>2025-07-23T12:40:12Z</time>
      </trkpt>
      <trkpt lat="43.81403" lon="-1.00074">
        <ele>84.4</ele>
        <time>2025-07-23T12:40:19Z</time>
      </trkpt>
      <trkpt lat="43.81462" lon="-1.0007">
        <ele>84.6</ele>
        <time>2025-07-23T12:40:28Z</time>
      </trkpt>
      <trkpt lat="43.81519" lon="-1.00067">
        <ele>84.6</ele>
        <time>2025-07-23T12:40:37Z</time>
      </trkpt>
      <trkpt lat="43.81526" lon="-1.00066">
        <ele>84.6</ele>
        <time>2025-07-23T12:40:38Z</time>
      </trkpt>
      <trkpt lat="43.81582" lon="-1.00064">
        <ele>84.8</ele>
        <time>2025-07-23T12:40:47Z</time>
      </trkpt>
      <trkpt lat="43.8163" lon="-1.00061">
        <ele>85.2</ele>
        <time>2025-07-23T12:40:55Z</time>
      </trkpt>
      <trkpt lat="43.81686" lon="-1.00058">
        <ele>85.4</ele>
        <time>2025-07-23T12:41:04Z</time>
      </trkpt>
      <trkpt lat="43.81692" lon="-1.00058">
        <ele>85.4</ele>
        <time>2025-07-23T12:41:05Z</time>
      </trkpt>
      <trkpt lat="43.81751" lon="-1.00054">
        <ele>85.6</ele>
        <time>2025-07-23T12:41:15Z</time>
      </trkpt>
      <trkpt lat="43.81769" lon="-1.00053">
        <ele>85.8</ele>
        <time>2025-07-23T12:41:18Z</time>
      </trkpt>
      <trkpt lat="43.81811" lon="-1.00052">
        <ele>86.2</ele>
        <time>2025-07-23T12:41:25Z</time>
      </trkpt>
      <trkpt lat="43.81823" lon="-1.00051">
        <ele>86.4</ele>
        <time>2025-07-23T12:41:27Z</time>
      </trkpt>
      <trkpt lat="43.81866" lon="-1.00047">
        <ele>87</ele>
        <time>2025-07-23T12:41:34Z</time>
      </trkpt>
      <trkpt lat="43.81922" lon="-1.00045">
        <ele>87.4</ele>
        <time>2025-07-23T12:41:43Z</time>
      </trkpt>
      <trkpt lat="43.81934" lon="-1.00044">
        <ele>87.4</ele>
        <time>2025-07-23T12:41:45Z</time>
      </trkpt>
      <trkpt lat="43.8194" lon="-1.00044">
        <ele>87.6</ele>
        <time>2025-07-23T12:41:46Z</time>
      </trkpt>
      <trkpt lat="43.81995" lon="-1.0004">
        <ele>87.6</ele>
        <time>2025-07-23T12:41:55Z</time>
      </trkpt>
      <trkpt lat="43.82008" lon="-1.00038">
        <ele>87.6</ele>
        <time>2025-07-23T12:41:57Z</time>
      </trkpt>
      <trkpt lat="43.82062" lon="-1.00027">
        <ele>87.8</ele>
        <time>2025-07-23T12:42:06Z</time>
      </trkpt>
      <trkpt lat="43.82068" lon="-1.00026">
        <ele>87.8</ele>
        <time>2025-07-23T12:42:07Z</time>
      </trkpt>
      <trkpt lat="43.82121" lon="-1.00011">
        <ele>88.2</ele>
        <time>2025-07-23T12:42:16Z</time>
      </trkpt>
      <trkpt lat="43.82127" lon="-1.0001">
        <ele>88.2</ele>
        <time>2025-07-23T12:42:17Z</time>
      </trkpt>
      <trkpt lat="43.82158" lon="-1.00002">
        <ele>88.4</ele>
        <time>2025-07-23T12:42:22Z</time>
      </trkpt>
      <trkpt lat="43.82196" lon="-0.99993">
        <ele>88.8</ele>
        <time>2025-07-23T12:42:28Z</time>
      </trkpt>
      <trkpt lat="43.82254" lon="-0.99979">
        <ele>88.8</ele>
        <time>2025-07-23T12:42:37Z</time>
      </trkpt>
      <trkpt lat="43.8226" lon="-0.99977">
        <ele>88.8</ele>
        <time>2025-07-23T12:42:38Z</time>
      </trkpt>
      <trkpt lat="43.82312" lon="-0.99964">
        <ele>89.6</ele>
        <time>2025-07-23T12:42:46Z</time>
      </trkpt>
      <trkpt lat="43.82324" lon="-0.99962">
        <ele>89.6</ele>
        <time>2025-07-23T12:42:48Z</time>
      </trkpt>
      <trkpt lat="43.82379" lon="-0.99948">
        <ele>89.6</ele>
        <time>2025-07-23T12:42:56Z</time>
      </trkpt>
      <trkpt lat="43.82406" lon="-0.99941">
        <ele>89.4</ele>
        <time>2025-07-23T12:43:00Z</time>
      </trkpt>
      <trkpt lat="43.82462" lon="-0.99928">
        <ele>89.4</ele>
        <time>2025-07-23T12:43:08Z</time>
      </trkpt>
      <trkpt lat="43.82478" lon="-0.99925">
        <ele>89.4</ele>
        <time>2025-07-23T12:43:10Z</time>
      </trkpt>
      <trkpt lat="43.82535" lon="-0.99911">
        <ele>89.6</ele>
        <time>2025-07-23T12:43:18Z</time>
      </trkpt>
      <trkpt lat="43.82588" lon="-0.99898">
        <ele>90</ele>
        <time>2025-07-23T12:43:26Z</time>
      </trkpt>
      <trkpt lat="43.82596" lon="-0.99896">
        <ele>90</ele>
        <time>2025-07-23T12:43:27Z</time>
      </trkpt>
      <trkpt lat="43.82652" lon="-0.99883">
        <ele>90</ele>
        <time>2025-07-23T12:43:35Z</time>
      </trkpt>
      <trkpt lat="43.82667" lon="-0.9988">
        <ele>90.2</ele>
        <time>2025-07-23T12:43:37Z</time>
      </trkpt>
      <trkpt lat="43.82715" lon="-0.99868">
        <ele>90.4</ele>
        <time>2025-07-23T12:43:44Z</time>
      </trkpt>
      <trkpt lat="43.82722" lon="-0.99866">
        <ele>90.4</ele>
        <time>2025-07-23T12:43:45Z</time>
      </trkpt>
      <trkpt lat="43.82778" lon="-0.99853">
        <ele>90.6</ele>
        <time>2025-07-23T12:43:53Z</time>
      </trkpt>
      <trkpt lat="43.82836" lon="-0.99839">
        <ele>90.8</ele>
        <time>2025-07-23T12:44:01Z</time>
      </trkpt>
      <trkpt lat="43.82891" lon="-0.99826">
        <ele>91</ele>
        <time>2025-07-23T12:44:09Z</time>
      </trkpt>
      <trkpt lat="43.82898" lon="-0.99824">
        <ele>91</ele>
        <time>2025-07-23T12:44:10Z</time>
      </trkpt>
      <trkpt lat="43.82951" lon="-0.99811">
        <ele>91.4</ele>
        <time>2025-07-23T12:44:18Z</time>
      </trkpt>
      <trkpt lat="43.83005" lon="-0.99798">
        <ele>91</ele>
        <time>2025-07-23T12:44:26Z</time>
      </trkpt>
      <trkpt lat="43.83027" lon="-0.99793">
        <ele>91.2</ele>
        <time>2025-07-23T12:44:29Z</time>
      </trkpt>
      <trkpt lat="43.83084" lon="-0.9978">
        <ele>91.4</ele>
        <time>2025-07-23T12:44:37Z</time>
      </trkpt>
      <trkpt lat="43.83097" lon="-0.99777">
        <ele>91.4</ele>
        <time>2025-07-23T12:44:39Z</time>
      </trkpt>
      <trkpt lat="43.83154" lon="-0.99763">
        <ele>91.6</ele>
        <time>2025-07-23T12:44:47Z</time>
      </trkpt>
      <trkpt lat="43.83169" lon="-0.9976">
        <ele>91.6</ele>
        <time>2025-07-23T12:44:49Z</time>
      </trkpt>
      <trkpt lat="43.83229" lon="-0.99745">
        <ele>91.6</ele>
        <time>2025-07-23T12:44:57Z</time>
      </trkpt>
      <trkpt lat="43.83249" lon="-0.99741">
        <ele>91.6</ele>
        <time>2025-07-23T12:45:00Z</time>
      </trkpt>
      <trkpt lat="43.83271" lon="-0.99735">
        <ele>91.6</ele>
        <time>2025-07-23T12:45:03Z</time>
      </trkpt>
      <trkpt lat="43.83299" lon="-0.99728">
        <ele>91.4</ele>
        <time>2025-07-23T12:45:07Z</time>
      </trkpt>
      <trkpt lat="43.83359" lon="-0.99713">
        <ele>91.6</ele>
        <time>2025-07-23T12:45:15Z</time>
      </trkpt>
      <trkpt lat="43.83412" lon="-0.99701">
        <ele>91.2</ele>
        <time>2025-07-23T12:45:23Z</time>
      </trkpt>
      <trkpt lat="43.83419" lon="-0.99699">
        <ele>91.4</ele>
        <time>2025-07-23T12:45:24Z</time>
      </trkpt>
      <trkpt lat="43.83468" lon="-0.99687">
        <ele>91.4</ele>
        <time>2025-07-23T12:45:31Z</time>
      </trkpt>
      <trkpt lat="43.83525" lon="-0.99674">
        <ele>91.2</ele>
        <time>2025-07-23T12:45:39Z</time>
      </trkpt>
      <trkpt lat="43.8354" lon="-0.9967">
        <ele>91.2</ele>
        <time>2025-07-23T12:45:41Z</time>
      </trkpt>
      <trkpt lat="43.83598" lon="-0.99656">
        <ele>91</ele>
        <time>2025-07-23T12:45:49Z</time>
      </trkpt>
      <trkpt lat="43.83612" lon="-0.99652">
        <ele>91</ele>
        <time>2025-07-23T12:45:51Z</time>
      </trkpt>
      <trkpt lat="43.83671" lon="-0.99638">
        <ele>91</ele>
        <time>2025-07-23T12:45:59Z</time>
      </trkpt>
      <trkpt lat="43.83686" lon="-0.99634">
        <ele>91</ele>
        <time>2025-07-23T12:46:01Z</time>
      </trkpt>
      <trkpt lat="43.83744" lon="-0.9962">
        <ele>90.6</ele>
        <time>2025-07-23T12:46:09Z</time>
      </trkpt>
      <trkpt lat="43.83798" lon="-0.99607">
        <ele>90.6</ele>
        <time>2025-07-23T12:46:16Z</time>
      </trkpt>
      <trkpt lat="43.83827" lon="-0.99599">
        <ele>90.4</ele>
        <time>2025-07-23T12:46:20Z</time>
      </trkpt>
      <trkpt lat="43.83881" lon="-0.99588">
        <ele>90.4</ele>
        <time>2025-07-23T12:46:27Z</time>
      </trkpt>
      <trkpt lat="43.83912" lon="-0.9958">
        <ele>90.4</ele>
        <time>2025-07-23T12:46:31Z</time>
      </trkpt>
      <trkpt lat="43.83966" lon="-0.99567">
        <ele>90.6</ele>
        <time>2025-07-23T12:46:38Z</time>
      </trkpt>
      <trkpt lat="43.83981" lon="-0.99563">
        <ele>90.6</ele>
        <time>2025-07-23T12:46:40Z</time>
      </trkpt>
      <trkpt lat="43.84036" lon="-0.99549">
        <ele>90.4</ele>
        <time>2025-07-23T12:46:47Z</time>
      </trkpt>
      <trkpt lat="43.84052" lon="-0.99546">
        <ele>90.4</ele>
        <time>2025-07-23T12:46:49Z</time>
      </trkpt>
      <trkpt lat="43.84106" lon="-0.99533">
        <ele>90.4</ele>
        <time>2025-07-23T12:46:56Z</time>
      </trkpt>
      <trkpt lat="43.84157" lon="-0.99521">
        <ele>90.6</ele>
        <time>2025-07-23T12:47:03Z</time>
      </trkpt>
      <trkpt lat="43.84215" lon="-0.99506">
        <ele>90.2</ele>
        <time>2025-07-23T12:47:11Z</time>
      </trkpt>
      <trkpt lat="43.84222" lon="-0.99504">
        <ele>90</ele>
        <time>2025-07-23T12:47:12Z</time>
      </trkpt>
      <trkpt lat="43.84237" lon="-0.99501">
        <ele>89.8</ele>
        <time>2025-07-23T12:47:14Z</time>
      </trkpt>
      <trkpt lat="43.84294" lon="-0.99486">
        <ele>89.6</ele>
        <time>2025-07-23T12:47:22Z</time>
      </trkpt>
      <trkpt lat="43.84329" lon="-0.99478">
        <ele>89.2</ele>
        <time>2025-07-23T12:47:27Z</time>
      </trkpt>
      <trkpt lat="43.84364" lon="-0.99469">
        <ele>88.8</ele>
        <time>2025-07-23T12:47:32Z</time>
      </trkpt>
      <trkpt lat="43.84407" lon="-0.99459">
        <ele>88.6</ele>
        <time>2025-07-23T12:47:38Z</time>
      </trkpt>
      <trkpt lat="43.84464" lon="-0.99445">
        <ele>88.2</ele>
        <time>2025-07-23T12:47:46Z</time>
      </trkpt>
      <trkpt lat="43.84486" lon="-0.9944">
        <ele>88.2</ele>
        <time>2025-07-23T12:47:49Z</time>
      </trkpt>
      <trkpt lat="43.84543" lon="-0.99426">
        <ele>88</ele>
        <time>2025-07-23T12:47:57Z</time>
      </trkpt>
      <trkpt lat="43.8455" lon="-0.99424">
        <ele>88</ele>
        <time>2025-07-23T12:47:58Z</time>
      </trkpt>
      <trkpt lat="43.8458" lon="-0.99417">
        <ele>87.8</ele>
        <time>2025-07-23T12:48:02Z</time>
      </trkpt>
      <trkpt lat="43.84599" lon="-0.99412">
        <ele>87.4</ele>
        <time>2025-07-23T12:48:05Z</time>
      </trkpt>
      <trkpt lat="43.84654" lon="-0.99398">
        <ele>87.2</ele>
        <time>2025-07-23T12:48:13Z</time>
      </trkpt>
      <trkpt lat="43.84667" lon="-0.99395">
        <ele>87.2</ele>
        <time>2025-07-23T12:48:15Z</time>
      </trkpt>
      <trkpt lat="43.84713" lon="-0.99383">
        <ele>86.8</ele>
        <time>2025-07-23T12:48:22Z</time>
      </trkpt>
      <trkpt lat="43.8472" lon="-0.99381">
        <ele>86.8</ele>
        <time>2025-07-23T12:48:23Z</time>
      </trkpt>
      <trkpt lat="43.84776" lon="-0.99369">
        <ele>86.4</ele>
        <time>2025-07-23T12:48:31Z</time>
      </trkpt>
      <trkpt lat="43.84831" lon="-0.99354">
        <ele>86.4</ele>
        <time>2025-07-23T12:48:39Z</time>
      </trkpt>
      <trkpt lat="43.84887" lon="-0.99341">
        <ele>86.2</ele>
        <time>2025-07-23T12:48:47Z</time>
      </trkpt>
      <trkpt lat="43.84894" lon="-0.99339">
        <ele>86.2</ele>
        <time>2025-07-23T12:48:48Z</time>
      </trkpt>
      <trkpt lat="43.84948" lon="-0.99326">
        <ele>85.8</ele>
        <time>2025-07-23T12:48:56Z</time>
      </trkpt>
      <trkpt lat="43.84955" lon="-0.99325">
        <ele>85.8</ele>
        <time>2025-07-23T12:48:57Z</time>
      </trkpt>
      <trkpt lat="43.85009" lon="-0.99313">
        <ele>85.6</ele>
        <time>2025-07-23T12:49:05Z</time>
      </trkpt>
      <trkpt lat="43.85016" lon="-0.99311">
        <ele>85.4</ele>
        <time>2025-07-23T12:49:06Z</time>
      </trkpt>
      <trkpt lat="43.85048" lon="-0.99303">
        <ele>84.8</ele>
        <time>2025-07-23T12:49:11Z</time>
      </trkpt>
      <trkpt lat="43.8508" lon="-0.99295">
        <ele>84</ele>
        <time>2025-07-23T12:49:16Z</time>
      </trkpt>
      <trkpt lat="43.8512" lon="-0.99284">
        <ele>83.8</ele>
        <time>2025-07-23T12:49:22Z</time>
      </trkpt>
      <trkpt lat="43.85148" lon="-0.99278">
        <ele>83.4</ele>
        <time>2025-07-23T12:49:26Z</time>
      </trkpt>
      <trkpt lat="43.85203" lon="-0.99264">
        <ele>83</ele>
        <time>2025-07-23T12:49:34Z</time>
      </trkpt>
      <trkpt lat="43.8521" lon="-0.99262">
        <ele>82.8</ele>
        <time>2025-07-23T12:49:35Z</time>
      </trkpt>
      <trkpt lat="43.85257" lon="-0.99248">
        <ele>81.8</ele>
        <time>2025-07-23T12:49:42Z</time>
      </trkpt>
      <trkpt lat="43.85263" lon="-0.99245">
        <ele>81.8</ele>
        <time>2025-07-23T12:49:43Z</time>
      </trkpt>
      <trkpt lat="43.8528" lon="-0.99235">
        <ele>81.4</ele>
        <time>2025-07-23T12:49:46Z</time>
      </trkpt>
      <trkpt lat="43.8529" lon="-0.99225">
        <ele>81.2</ele>
        <time>2025-07-23T12:49:48Z</time>
      </trkpt>
      <trkpt lat="43.853" lon="-0.9921">
        <ele>80.8</ele>
        <time>2025-07-23T12:49:51Z</time>
      </trkpt>
      <trkpt lat="43.85305" lon="-0.99203">
        <ele>80.6</ele>
        <time>2025-07-23T12:49:53Z</time>
      </trkpt>
      <trkpt lat="43.85307" lon="-0.99201">
        <ele>80.6</ele>
        <time>2025-07-23T12:49:54Z</time>
      </trkpt>
      <trkpt lat="43.85314" lon="-0.99204">
        <ele>80.4</ele>
        <time>2025-07-23T12:49:56Z</time>
      </trkpt>
      <trkpt lat="43.85334" lon="-0.9923">
        <ele>80</ele>
        <time>2025-07-23T12:50:02Z</time>
      </trkpt>
      <trkpt lat="43.85357" lon="-0.99263">
        <ele>80.2</ele>
        <time>2025-07-23T12:50:08Z</time>
      </trkpt>
      <trkpt lat="43.85389" lon="-0.99327">
        <ele>80</ele>
        <time>2025-07-23T12:50:18Z</time>
      </trkpt>
      <trkpt lat="43.854" lon="-0.99356">
        <ele>79.8</ele>
        <time>2025-07-23T12:50:22Z</time>
      </trkpt>
      <trkpt lat="43.85403" lon="-0.99372">
        <ele>79.8</ele>
        <time>2025-07-23T12:50:24Z</time>
      </trkpt>
      <trkpt lat="43.85405" lon="-0.99386">
        <ele>79.8</ele>
        <time>2025-07-23T12:50:26Z</time>
      </trkpt>
      <trkpt lat="43.85411" lon="-0.99398">
        <ele>79.8</ele>
        <time>2025-07-23T12:50:28Z</time>
      </trkpt>
      <trkpt lat="43.85414" lon="-0.99404">
        <ele>79.8</ele>
        <time>2025-07-23T12:50:29Z</time>
      </trkpt>
      <trkpt lat="43.85426" lon="-0.99418">
        <ele>79.8</ele>
        <time>2025-07-23T12:50:32Z</time>
      </trkpt>
      <trkpt lat="43.85438" lon="-0.99432">
        <ele>79.8</ele>
        <time>2025-07-23T12:50:35Z</time>
      </trkpt>
      <trkpt lat="43.8546" lon="-0.9946">
        <ele>79.6</ele>
        <time>2025-07-23T12:50:40Z</time>
      </trkpt>
      <trkpt lat="43.85474" lon="-0.99477">
        <ele>79.4</ele>
        <time>2025-07-23T12:50:43Z</time>
      </trkpt>
      <trkpt lat="43.85519" lon="-0.99523">
        <ele>79.6</ele>
        <time>2025-07-23T12:50:52Z</time>
      </trkpt>
      <trkpt lat="43.85528" lon="-0.99533">
        <ele>80</ele>
        <time>2025-07-23T12:50:54Z</time>
      </trkpt>
      <trkpt lat="43.85574" lon="-0.99584">
        <ele>80.4</ele>
        <time>2025-07-23T12:51:04Z</time>
      </trkpt>
      <trkpt lat="43.85605" lon="-0.9963">
        <ele>80.8</ele>
        <time>2025-07-23T12:51:12Z</time>
      </trkpt>
      <trkpt lat="43.85609" lon="-0.99636">
        <ele>81</ele>
        <time>2025-07-23T12:51:13Z</time>
      </trkpt>
      <trkpt lat="43.85612" lon="-0.99643">
        <ele>81</ele>
        <time>2025-07-23T12:51:14Z</time>
      </trkpt>
      <trkpt lat="43.85623" lon="-0.99661">
        <ele>81.2</ele>
        <time>2025-07-23T12:51:17Z</time>
      </trkpt>
      <trkpt lat="43.85627" lon="-0.99666">
        <ele>81.4</ele>
        <time>2025-07-23T12:51:18Z</time>
      </trkpt>
      <trkpt lat="43.85632" lon="-0.99671">
        <ele>81.6</ele>
        <time>2025-07-23T12:51:19Z</time>
      </trkpt>
      <trkpt lat="43.85646" lon="-0.99681">
        <ele>81.8</ele>
        <time>2025-07-23T12:51:22Z</time>
      </trkpt>
      <trkpt lat="43.85651" lon="-0.99683">
        <ele>81.8</ele>
        <time>2025-07-23T12:51:23Z</time>
      </trkpt>
      <trkpt lat="43.85683" lon="-0.99693">
        <ele>82.2</ele>
        <time>2025-07-23T12:51:29Z</time>
      </trkpt>
      <trkpt lat="43.85693" lon="-0.99696">
        <ele>82.2</ele>
        <time>2025-07-23T12:51:31Z</time>
      </trkpt>
      <trkpt lat="43.85743" lon="-0.9971">
        <ele>83</ele>
        <time>2025-07-23T12:51:40Z</time>
      </trkpt>
      <trkpt lat="43.85759" lon="-0.99715">
        <ele>83</ele>
        <time>2025-07-23T12:51:43Z</time>
      </trkpt>
      <trkpt lat="43.85765" lon="-0.99717">
        <ele>83.2</ele>
        <time>2025-07-23T12:51:44Z</time>
      </trkpt>
      <trkpt lat="43.85776" lon="-0.99721">
        <ele>83.2</ele>
        <time>2025-07-23T12:51:46Z</time>
      </trkpt>
      <trkpt lat="43.85827" lon="-0.99738">
        <ele>83.4</ele>
        <time>2025-07-23T12:51:55Z</time>
      </trkpt>
      <trkpt lat="43.85869" lon="-0.99751">
        <ele>83.8</ele>
        <time>2025-07-23T12:52:03Z</time>
      </trkpt>
      <trkpt lat="43.85885" lon="-0.99756">
        <ele>84.2</ele>
        <time>2025-07-23T12:52:06Z</time>
      </trkpt>
      <trkpt lat="43.85923" lon="-0.99764">
        <ele>84.6</ele>
        <time>2025-07-23T12:52:13Z</time>
      </trkpt>
      <trkpt lat="43.85977" lon="-0.99767">
        <ele>84.8</ele>
        <time>2025-07-23T12:52:22Z</time>
      </trkpt>
      <trkpt lat="43.86037" lon="-0.99767">
        <ele>84.6</ele>
        <time>2025-07-23T12:52:31Z</time>
      </trkpt>
      <trkpt lat="43.86097" lon="-0.99768">
        <ele>84.4</ele>
        <time>2025-07-23T12:52:40Z</time>
      </trkpt>
      <trkpt lat="43.86103" lon="-0.99768">
        <ele>84.4</ele>
        <time>2025-07-23T12:52:41Z</time>
      </trkpt>
      <trkpt lat="43.86164" lon="-0.9977">
        <ele>83.8</ele>
        <time>2025-07-23T12:52:50Z</time>
      </trkpt>
      <trkpt lat="43.86171" lon="-0.9977">
        <ele>83.8</ele>
        <time>2025-07-23T12:52:51Z</time>
      </trkpt>
      <trkpt lat="43.86228" lon="-0.99771">
        <ele>83.6</ele>
        <time>2025-07-23T12:53:00Z</time>
      </trkpt>
      <trkpt lat="43.86285" lon="-0.99771">
        <ele>84</ele>
        <time>2025-07-23T12:53:09Z</time>
      </trkpt>
      <trkpt lat="43.86291" lon="-0.99771">
        <ele>84</ele>
        <time>2025-07-23T12:53:10Z</time>
      </trkpt>
      <trkpt lat="43.86333" lon="-0.99773">
        <ele>84.2</ele>
        <time>2025-07-23T12:53:17Z</time>
      </trkpt>
      <trkpt lat="43.86373" lon="-0.99774">
        <ele>84.4</ele>
        <time>2025-07-23T12:53:24Z</time>
      </trkpt>
      <trkpt lat="43.86417" lon="-0.99774">
        <ele>85</ele>
        <time>2025-07-23T12:53:32Z</time>
      </trkpt>
      <trkpt lat="43.86454" lon="-0.99774">
        <ele>85.4</ele>
        <time>2025-07-23T12:53:39Z</time>
      </trkpt>
      <trkpt lat="43.86465" lon="-0.99774">
        <ele>85.6</ele>
        <time>2025-07-23T12:53:41Z</time>
      </trkpt>
      <trkpt lat="43.86506" lon="-0.99773">
        <ele>85.8</ele>
        <time>2025-07-23T12:53:48Z</time>
      </trkpt>
      <trkpt lat="43.86556" lon="-0.99769">
        <ele>85.6</ele>
        <time>2025-07-23T12:53:56Z</time>
      </trkpt>
      <trkpt lat="43.86601" lon="-0.99766">
        <ele>85.4</ele>
        <time>2025-07-23T12:54:03Z</time>
      </trkpt>
      <trkpt lat="43.86657" lon="-0.99763">
        <ele>85</ele>
        <time>2025-07-23T12:54:12Z</time>
      </trkpt>
      <trkpt lat="43.8671" lon="-0.9976">
        <ele>84.4</ele>
        <time>2025-07-23T12:54:20Z</time>
      </trkpt>
      <trkpt lat="43.86764" lon="-0.99762">
        <ele>84.2</ele>
        <time>2025-07-23T12:54:28Z</time>
      </trkpt>
      <trkpt lat="43.86814" lon="-0.99778">
        <ele>84.4</ele>
        <time>2025-07-23T12:54:36Z</time>
      </trkpt>
      <trkpt lat="43.86863" lon="-0.99803">
        <ele>85.2</ele>
        <time>2025-07-23T12:54:45Z</time>
      </trkpt>
      <trkpt lat="43.86878" lon="-0.99811">
        <ele>85.6</ele>
        <time>2025-07-23T12:54:48Z</time>
      </trkpt>
      <trkpt lat="43.86921" lon="-0.99835">
        <ele>86</ele>
        <time>2025-07-23T12:54:56Z</time>
      </trkpt>
      <trkpt lat="43.86964" lon="-0.99858">
        <ele>86.4</ele>
        <time>2025-07-23T12:55:04Z</time>
      </trkpt>
      <trkpt lat="43.87002" lon="-0.99878">
        <ele>86.6</ele>
        <time>2025-07-23T12:55:11Z</time>
      </trkpt>
      <trkpt lat="43.87013" lon="-0.99883">
        <ele>86.6</ele>
        <time>2025-07-23T12:55:13Z</time>
      </trkpt>
      <trkpt lat="43.87056" lon="-0.99907">
        <ele>87</ele>
        <time>2025-07-23T12:55:21Z</time>
      </trkpt>
      <trkpt lat="43.87077" lon="-0.99919">
        <ele>87.2</ele>
        <time>2025-07-23T12:55:25Z</time>
      </trkpt>
      <trkpt lat="43.87115" lon="-0.9994">
        <ele>87.2</ele>
        <time>2025-07-23T12:55:32Z</time>
      </trkpt>
      <trkpt lat="43.87169" lon="-0.99969">
        <ele>87.4</ele>
        <time>2025-07-23T12:55:42Z</time>
      </trkpt>
      <trkpt lat="43.87174" lon="-0.99972">
        <ele>87.4</ele>
        <time>2025-07-23T12:55:43Z</time>
      </trkpt>
      <trkpt lat="43.87213" lon="-0.99992">
        <ele>87.6</ele>
        <time>2025-07-23T12:55:50Z</time>
      </trkpt>
      <trkpt lat="43.87223" lon="-0.99998">
        <ele>87.8</ele>
        <time>2025-07-23T12:55:52Z</time>
      </trkpt>
      <trkpt lat="43.87277" lon="-1.00027">
        <ele>88.2</ele>
        <time>2025-07-23T12:56:02Z</time>
      </trkpt>
      <trkpt lat="43.87314" lon="-1.00047">
        <ele>88.6</ele>
        <time>2025-07-23T12:56:09Z</time>
      </trkpt>
      <trkpt lat="43.8734" lon="-1.00061">
        <ele>89</ele>
        <time>2025-07-23T12:56:14Z</time>
      </trkpt>
      <trkpt lat="43.87387" lon="-1.00087">
        <ele>89.4</ele>
        <time>2025-07-23T12:56:23Z</time>
      </trkpt>
      <trkpt lat="43.87414" lon="-1.00101">
        <ele>89.6</ele>
        <time>2025-07-23T12:56:28Z</time>
      </trkpt>
      <trkpt lat="43.87431" lon="-1.0011">
        <ele>89.8</ele>
        <time>2025-07-23T12:56:31Z</time>
      </trkpt>
      <trkpt lat="43.87479" lon="-1.00137">
        <ele>89.6</ele>
        <time>2025-07-23T12:56:40Z</time>
      </trkpt>
      <trkpt lat="43.87523" lon="-1.00161">
        <ele>90</ele>
        <time>2025-07-23T12:56:48Z</time>
      </trkpt>
      <trkpt lat="43.87572" lon="-1.00187">
        <ele>90.8</ele>
        <time>2025-07-23T12:56:57Z</time>
      </trkpt>
      <trkpt lat="43.87582" lon="-1.00193">
        <ele>90.6</ele>
        <time>2025-07-23T12:56:59Z</time>
      </trkpt>
      <trkpt lat="43.87633" lon="-1.00222">
        <ele>91.4</ele>
        <time>2025-07-23T12:57:08Z</time>
      </trkpt>
      <trkpt lat="43.87639" lon="-1.00225">
        <ele>91.4</ele>
        <time>2025-07-23T12:57:09Z</time>
      </trkpt>
      <trkpt lat="43.87693" lon="-1.00254">
        <ele>91.8</ele>
        <time>2025-07-23T12:57:19Z</time>
      </trkpt>
      <trkpt lat="43.87714" lon="-1.00265">
        <ele>92</ele>
        <time>2025-07-23T12:57:23Z</time>
      </trkpt>
      <trkpt lat="43.87736" lon="-1.00271">
        <ele>92.4</ele>
        <time>2025-07-23T12:57:27Z</time>
      </trkpt>
      <trkpt lat="43.87776" lon="-1.00275">
        <ele>92.6</ele>
        <time>2025-07-23T12:57:34Z</time>
      </trkpt>
      <trkpt lat="43.87821" lon="-1.00262">
        <ele>92.8</ele>
        <time>2025-07-23T12:57:42Z</time>
      </trkpt>
      <trkpt lat="43.87854" lon="-1.0024">
        <ele>92.6</ele>
        <time>2025-07-23T12:57:48Z</time>
      </trkpt>
      <trkpt lat="43.87888" lon="-1.00203">
        <ele>92</ele>
        <time>2025-07-23T12:57:54Z</time>
      </trkpt>
      <trkpt lat="43.87931" lon="-1.00142">
        <ele>90.8</ele>
        <time>2025-07-23T12:58:02Z</time>
      </trkpt>
      <trkpt lat="43.87937" lon="-1.00133">
        <ele>90.6</ele>
        <time>2025-07-23T12:58:03Z</time>
      </trkpt>
      <trkpt lat="43.87957" lon="-1.00104">
        <ele>89.6</ele>
        <time>2025-07-23T12:58:07Z</time>
      </trkpt>
      <trkpt lat="43.87983" lon="-1.00064">
        <ele>88.6</ele>
        <time>2025-07-23T12:58:12Z</time>
      </trkpt>
      <trkpt lat="43.88024" lon="-1.00002">
        <ele>87.8</ele>
        <time>2025-07-23T12:58:20Z</time>
      </trkpt>
      <trkpt lat="43.88051" lon="-0.99972">
        <ele>88</ele>
        <time>2025-07-23T12:58:25Z</time>
      </trkpt>
      <trkpt lat="43.88068" lon="-0.99958">
        <ele>88.2</ele>
        <time>2025-07-23T12:58:28Z</time>
      </trkpt>
      <trkpt lat="43.88079" lon="-0.99951">
        <ele>88.4</ele>
        <time>2025-07-23T12:58:30Z</time>
      </trkpt>
      <trkpt lat="43.88115" lon="-0.99938">
        <ele>88.8</ele>
        <time>2025-07-23T12:58:36Z</time>
      </trkpt>
      <trkpt lat="43.88155" lon="-0.99926">
        <ele>89.6</ele>
        <time>2025-07-23T12:58:43Z</time>
      </trkpt>
      <trkpt lat="43.88161" lon="-0.99924">
        <ele>89.8</ele>
        <time>2025-07-23T12:58:44Z</time>
      </trkpt>
      <trkpt lat="43.88204" lon="-0.99913">
        <ele>90.6</ele>
        <time>2025-07-23T12:58:51Z</time>
      </trkpt>
      <trkpt lat="43.88261" lon="-0.99896">
        <ele>90.2</ele>
        <time>2025-07-23T12:59:00Z</time>
      </trkpt>
      <trkpt lat="43.88267" lon="-0.99894">
        <ele>90</ele>
        <time>2025-07-23T12:59:01Z</time>
      </trkpt>
      <trkpt lat="43.88324" lon="-0.99877">
        <ele>89.6</ele>
        <time>2025-07-23T12:59:10Z</time>
      </trkpt>
      <trkpt lat="43.88382" lon="-0.99861">
        <ele>89.4</ele>
        <time>2025-07-23T12:59:19Z</time>
      </trkpt>
      <trkpt lat="43.88437" lon="-0.99845">
        <ele>90</ele>
        <time>2025-07-23T12:59:28Z</time>
      </trkpt>
      <trkpt lat="43.88443" lon="-0.99844">
        <ele>90.2</ele>
        <time>2025-07-23T12:59:29Z</time>
      </trkpt>
      <trkpt lat="43.88492" lon="-0.99828">
        <ele>90.4</ele>
        <time>2025-07-23T12:59:37Z</time>
      </trkpt>
      <trkpt lat="43.88542" lon="-0.99805">
        <ele>90.2</ele>
        <time>2025-07-23T12:59:45Z</time>
      </trkpt>
      <trkpt lat="43.88592" lon="-0.99778">
        <ele>90.2</ele>
        <time>2025-07-23T12:59:53Z</time>
      </trkpt>
      <trkpt lat="43.8864" lon="-0.99754">
        <ele>90.2</ele>
        <time>2025-07-23T13:00:01Z</time>
      </trkpt>
      <trkpt lat="43.88658" lon="-0.99745">
        <ele>90.2</ele>
        <time>2025-07-23T13:00:04Z</time>
      </trkpt>
      <trkpt lat="43.8867" lon="-0.9974">
        <ele>90.2</ele>
        <time>2025-07-23T13:00:06Z</time>
      </trkpt>
      <trkpt lat="43.88709" lon="-0.99718">
        <ele>91</ele>
        <time>2025-07-23T13:00:13Z</time>
      </trkpt>
      <trkpt lat="43.88719" lon="-0.99712">
        <ele>91.2</ele>
        <time>2025-07-23T13:00:15Z</time>
      </trkpt>
      <trkpt lat="43.8875" lon="-0.99693">
        <ele>92</ele>
        <time>2025-07-23T13:00:21Z</time>
      </trkpt>
      <trkpt lat="43.8876" lon="-0.99687">
        <ele>92.2</ele>
        <time>2025-07-23T13:00:23Z</time>
      </trkpt>
      <trkpt lat="43.88798" lon="-0.99661">
        <ele>92.8</ele>
        <time>2025-07-23T13:00:31Z</time>
      </trkpt>
      <trkpt lat="43.88822" lon="-0.99644">
        <ele>93</ele>
        <time>2025-07-23T13:00:36Z</time>
      </trkpt>
      <trkpt lat="43.88848" lon="-0.99627">
        <ele>93.2</ele>
        <time>2025-07-23T13:00:41Z</time>
      </trkpt>
      <trkpt lat="43.88898" lon="-0.99591">
        <ele>92.6</ele>
        <time>2025-07-23T13:00:50Z</time>
      </trkpt>
      <trkpt lat="43.88949" lon="-0.99555">
        <ele>92.8</ele>
        <time>2025-07-23T13:00:59Z</time>
      </trkpt>
      <trkpt lat="43.88961" lon="-0.99549">
        <ele>92.8</ele>
        <time>2025-07-23T13:01:01Z</time>
      </trkpt>
      <trkpt lat="43.88999" lon="-0.99528">
        <ele>93.2</ele>
        <time>2025-07-23T13:01:08Z</time>
      </trkpt>
      <trkpt lat="43.89032" lon="-0.99508">
        <ele>93.8</ele>
        <time>2025-07-23T13:01:14Z</time>
      </trkpt>
      <trkpt lat="43.89037" lon="-0.99504">
        <ele>94</ele>
        <time>2025-07-23T13:01:15Z</time>
      </trkpt>
      <trkpt lat="43.89053" lon="-0.99484">
        <ele>94.2</ele>
        <time>2025-07-23T13:01:19Z</time>
      </trkpt>
      <trkpt lat="43.89057" lon="-0.99479">
        <ele>94.4</ele>
        <time>2025-07-23T13:01:20Z</time>
      </trkpt>
      <trkpt lat="43.89061" lon="-0.99474">
        <ele>94.4</ele>
        <time>2025-07-23T13:01:21Z</time>
      </trkpt>
      <trkpt lat="43.89082" lon="-0.99441">
        <ele>94.8</ele>
        <time>2025-07-23T13:01:27Z</time>
      </trkpt>
      <trkpt lat="43.89099" lon="-0.99415">
        <ele>95</ele>
        <time>2025-07-23T13:01:32Z</time>
      </trkpt>
      <trkpt lat="43.89106" lon="-0.99404">
        <ele>95.2</ele>
        <time>2025-07-23T13:01:34Z</time>
      </trkpt>
      <trkpt lat="43.89115" lon="-0.99389">
        <ele>95.4</ele>
        <time>2025-07-23T13:01:37Z</time>
      </trkpt>
      <trkpt lat="43.89135" lon="-0.9936">
        <ele>95.6</ele>
        <time>2025-07-23T13:01:43Z</time>
      </trkpt>
      <trkpt lat="43.89158" lon="-0.99315">
        <ele>96.2</ele>
        <time>2025-07-23T13:01:51Z</time>
      </trkpt>
      <trkpt lat="43.89179" lon="-0.99244">
        <ele>96.2</ele>
        <time>2025-07-23T13:02:01Z</time>
      </trkpt>
      <trkpt lat="43.89191" lon="-0.99194">
        <ele>96.2</ele>
        <time>2025-07-23T13:02:07Z</time>
      </trkpt>
      <trkpt lat="43.8921" lon="-0.99122">
        <ele>96</ele>
        <time>2025-07-23T13:02:15Z</time>
      </trkpt>
      <trkpt lat="43.89215" lon="-0.99104">
        <ele>96</ele>
        <time>2025-07-23T13:02:17Z</time>
      </trkpt>
      <trkpt lat="43.89237" lon="-0.99037">
        <ele>95.8</ele>
        <time>2025-07-23T13:02:25Z</time>
      </trkpt>
      <trkpt lat="43.89265" lon="-0.9899">
        <ele>96.4</ele>
        <time>2025-07-23T13:02:32Z</time>
      </trkpt>
      <trkpt lat="43.89285" lon="-0.98959">
        <ele>96.8</ele>
        <time>2025-07-23T13:02:37Z</time>
      </trkpt>
      <trkpt lat="43.89293" lon="-0.98947">
        <ele>96.8</ele>
        <time>2025-07-23T13:02:39Z</time>
      </trkpt>
      <trkpt lat="43.89318" lon="-0.98904">
        <ele>97.4</ele>
        <time>2025-07-23T13:02:46Z</time>
      </trkpt>
      <trkpt lat="43.89338" lon="-0.98871">
        <ele>97.8</ele>
        <time>2025-07-23T13:02:51Z</time>
      </trkpt>
      <trkpt lat="43.89355" lon="-0.98844">
        <ele>98</ele>
        <time>2025-07-23T13:02:55Z</time>
      </trkpt>
      <trkpt lat="43.89394" lon="-0.98784">
        <ele>98.6</ele>
        <time>2025-07-23T13:03:04Z</time>
      </trkpt>
      <trkpt lat="43.89432" lon="-0.98743">
        <ele>98.4</ele>
        <time>2025-07-23T13:03:11Z</time>
      </trkpt>
      <trkpt lat="43.89476" lon="-0.98698">
        <ele>98.2</ele>
        <time>2025-07-23T13:03:19Z</time>
      </trkpt>
      <trkpt lat="43.89481" lon="-0.98692">
        <ele>98.2</ele>
        <time>2025-07-23T13:03:20Z</time>
      </trkpt>
      <trkpt lat="43.89524" lon="-0.9865">
        <ele>98.2</ele>
        <time>2025-07-23T13:03:28Z</time>
      </trkpt>
      <trkpt lat="43.8957" lon="-0.98605">
        <ele>98.6</ele>
        <time>2025-07-23T13:03:37Z</time>
      </trkpt>
      <trkpt lat="43.8959" lon="-0.98584">
        <ele>98.8</ele>
        <time>2025-07-23T13:03:41Z</time>
      </trkpt>
      <trkpt lat="43.89619" lon="-0.98554">
        <ele>99</ele>
        <time>2025-07-23T13:03:47Z</time>
      </trkpt>
      <trkpt lat="43.89654" lon="-0.98507">
        <ele>99</ele>
        <time>2025-07-23T13:03:55Z</time>
      </trkpt>
      <trkpt lat="43.89689" lon="-0.98448">
        <ele>99.6</ele>
        <time>2025-07-23T13:04:04Z</time>
      </trkpt>
      <trkpt lat="43.89696" lon="-0.98435">
        <ele>99.8</ele>
        <time>2025-07-23T13:04:06Z</time>
      </trkpt>
      <trkpt lat="43.89704" lon="-0.98422">
        <ele>99.8</ele>
        <time>2025-07-23T13:04:08Z</time>
      </trkpt>
      <trkpt lat="43.89737" lon="-0.98368">
        <ele>100.4</ele>
        <time>2025-07-23T13:04:16Z</time>
      </trkpt>
      <trkpt lat="43.89774" lon="-0.98305">
        <ele>100.6</ele>
        <time>2025-07-23T13:04:25Z</time>
      </trkpt>
      <trkpt lat="43.89778" lon="-0.98298">
        <ele>100.6</ele>
        <time>2025-07-23T13:04:26Z</time>
      </trkpt>
      <trkpt lat="43.89815" lon="-0.98239">
        <ele>100.4</ele>
        <time>2025-07-23T13:04:34Z</time>
      </trkpt>
      <trkpt lat="43.89819" lon="-0.98232">
        <ele>100.2</ele>
        <time>2025-07-23T13:04:35Z</time>
      </trkpt>
      <trkpt lat="43.89857" lon="-0.98169">
        <ele>100.4</ele>
        <time>2025-07-23T13:04:44Z</time>
      </trkpt>
      <trkpt lat="43.89896" lon="-0.98105">
        <ele>100.4</ele>
        <time>2025-07-23T13:04:53Z</time>
      </trkpt>
      <trkpt lat="43.89908" lon="-0.98083">
        <ele>100.4</ele>
        <time>2025-07-23T13:04:56Z</time>
      </trkpt>
      <trkpt lat="43.89947" lon="-0.98021">
        <ele>100.6</ele>
        <time>2025-07-23T13:05:05Z</time>
      </trkpt>
      <trkpt lat="43.89985" lon="-0.97957">
        <ele>100.6</ele>
        <time>2025-07-23T13:05:14Z</time>
      </trkpt>
      <trkpt lat="43.9002" lon="-0.97899">
        <ele>100.8</ele>
        <time>2025-07-23T13:05:22Z</time>
      </trkpt>
      <trkpt lat="43.90029" lon="-0.97884">
        <ele>100.8</ele>
        <time>2025-07-23T13:05:24Z</time>
      </trkpt>
      <trkpt lat="43.90047" lon="-0.97856">
        <ele>100.8</ele>
        <time>2025-07-23T13:05:28Z</time>
      </trkpt>
      <trkpt lat="43.90073" lon="-0.97811">
        <ele>101</ele>
        <time>2025-07-23T13:05:34Z</time>
      </trkpt>
      <trkpt lat="43.90108" lon="-0.97754">
        <ele>101.2</ele>
        <time>2025-07-23T13:05:42Z</time>
      </trkpt>
      <trkpt lat="43.90121" lon="-0.97732">
        <ele>101.2</ele>
        <time>2025-07-23T13:05:45Z</time>
      </trkpt>
      <trkpt lat="43.90153" lon="-0.97669">
        <ele>101</ele>
        <time>2025-07-23T13:05:53Z</time>
      </trkpt>
      <trkpt lat="43.90159" lon="-0.97655">
        <ele>101</ele>
        <time>2025-07-23T13:05:55Z</time>
      </trkpt>
      <trkpt lat="43.90186" lon="-0.97589">
        <ele>101</ele>
        <time>2025-07-23T13:06:03Z</time>
      </trkpt>
      <trkpt lat="43.90194" lon="-0.97573">
        <ele>101</ele>
        <time>2025-07-23T13:06:05Z</time>
      </trkpt>
      <trkpt lat="43.90221" lon="-0.97507">
        <ele>101.2</ele>
        <time>2025-07-23T13:06:13Z</time>
      </trkpt>
      <trkpt lat="43.90229" lon="-0.97489">
        <ele>101.4</ele>
        <time>2025-07-23T13:06:15Z</time>
      </trkpt>
      <trkpt lat="43.90256" lon="-0.97424">
        <ele>101.4</ele>
        <time>2025-07-23T13:06:23Z</time>
      </trkpt>
      <trkpt lat="43.90268" lon="-0.97396">
        <ele>101.6</ele>
        <time>2025-07-23T13:06:26Z</time>
      </trkpt>
      <trkpt lat="43.90297" lon="-0.9733">
        <ele>101.4</ele>
        <time>2025-07-23T13:06:34Z</time>
      </trkpt>
      <trkpt lat="43.90305" lon="-0.97311">
        <ele>101.4</ele>
        <time>2025-07-23T13:06:36Z</time>
      </trkpt>
      <trkpt lat="43.90333" lon="-0.97245">
        <ele>101.2</ele>
        <time>2025-07-23T13:06:44Z</time>
      </trkpt>
      <trkpt lat="43.9035" lon="-0.97203">
        <ele>101</ele>
        <time>2025-07-23T13:06:49Z</time>
      </trkpt>
      <trkpt lat="43.90379" lon="-0.97134">
        <ele>101</ele>
        <time>2025-07-23T13:06:57Z</time>
      </trkpt>
      <trkpt lat="43.90407" lon="-0.97067">
        <ele>101.2</ele>
        <time>2025-07-23T13:07:05Z</time>
      </trkpt>
      <trkpt lat="43.90418" lon="-0.97041">
        <ele>101.2</ele>
        <time>2025-07-23T13:07:08Z</time>
      </trkpt>
      <trkpt lat="43.90449" lon="-0.96971">
        <ele>101</ele>
        <time>2025-07-23T13:07:16Z</time>
      </trkpt>
      <trkpt lat="43.90455" lon="-0.96956">
        <ele>101</ele>
        <time>2025-07-23T13:07:18Z</time>
      </trkpt>
      <trkpt lat="43.90485" lon="-0.96884">
        <ele>100.8</ele>
        <time>2025-07-23T13:07:26Z</time>
      </trkpt>
      <trkpt lat="43.90496" lon="-0.96858">
        <ele>101.2</ele>
        <time>2025-07-23T13:07:29Z</time>
      </trkpt>
      <trkpt lat="43.90532" lon="-0.96796">
        <ele>101.2</ele>
        <time>2025-07-23T13:07:37Z</time>
      </trkpt>
      <trkpt lat="43.90572" lon="-0.96738">
        <ele>101</ele>
        <time>2025-07-23T13:07:45Z</time>
      </trkpt>
      <trkpt lat="43.90582" lon="-0.96723">
        <ele>100.8</ele>
        <time>2025-07-23T13:07:47Z</time>
      </trkpt>
      <trkpt lat="43.90622" lon="-0.96666">
        <ele>100.8</ele>
        <time>2025-07-23T13:07:55Z</time>
      </trkpt>
      <trkpt lat="43.90644" lon="-0.96636">
        <ele>100.8</ele>
        <time>2025-07-23T13:07:59Z</time>
      </trkpt>
      <trkpt lat="43.90683" lon="-0.9658">
        <ele>100.8</ele>
        <time>2025-07-23T13:08:07Z</time>
      </trkpt>
      <trkpt lat="43.90687" lon="-0.96574">
        <ele>100.8</ele>
        <time>2025-07-23T13:08:08Z</time>
      </trkpt>
      <trkpt lat="43.90727" lon="-0.96518">
        <ele>100.6</ele>
        <time>2025-07-23T13:08:16Z</time>
      </trkpt>
      <trkpt lat="43.90741" lon="-0.96498">
        <ele>100.8</ele>
        <time>2025-07-23T13:08:19Z</time>
      </trkpt>
      <trkpt lat="43.90779" lon="-0.96442">
        <ele>100.8</ele>
        <time>2025-07-23T13:08:27Z</time>
      </trkpt>
      <trkpt lat="43.90783" lon="-0.96435">
        <ele>100.8</ele>
        <time>2025-07-23T13:08:28Z</time>
      </trkpt>
      <trkpt lat="43.90823" lon="-0.96378">
        <ele>100.8</ele>
        <time>2025-07-23T13:08:36Z</time>
      </trkpt>
      <trkpt lat="43.90827" lon="-0.96372">
        <ele>100.8</ele>
        <time>2025-07-23T13:08:37Z</time>
      </trkpt>
      <trkpt lat="43.90868" lon="-0.96314">
        <ele>101</ele>
        <time>2025-07-23T13:08:45Z</time>
      </trkpt>
      <trkpt lat="43.9091" lon="-0.96254">
        <ele>101</ele>
        <time>2025-07-23T13:08:53Z</time>
      </trkpt>
      <trkpt lat="43.90919" lon="-0.96238">
        <ele>101</ele>
        <time>2025-07-23T13:08:55Z</time>
      </trkpt>
      <trkpt lat="43.90953" lon="-0.96188">
        <ele>101.2</ele>
        <time>2025-07-23T13:09:02Z</time>
      </trkpt>
      <trkpt lat="43.90993" lon="-0.96131">
        <ele>101</ele>
        <time>2025-07-23T13:09:10Z</time>
      </trkpt>
      <trkpt lat="43.91008" lon="-0.96108">
        <ele>101</ele>
        <time>2025-07-23T13:09:13Z</time>
      </trkpt>
      <trkpt lat="43.91047" lon="-0.96052">
        <ele>100.6</ele>
        <time>2025-07-23T13:09:21Z</time>
      </trkpt>
      <trkpt lat="43.91052" lon="-0.96045">
        <ele>100.6</ele>
        <time>2025-07-23T13:09:22Z</time>
      </trkpt>
      <trkpt lat="43.91092" lon="-0.95985">
        <ele>100.2</ele>
        <time>2025-07-23T13:09:30Z</time>
      </trkpt>
      <trkpt lat="43.91101" lon="-0.95972">
        <ele>100.2</ele>
        <time>2025-07-23T13:09:32Z</time>
      </trkpt>
      <trkpt lat="43.91141" lon="-0.95913">
        <ele>100.2</ele>
        <time>2025-07-23T13:09:40Z</time>
      </trkpt>
      <trkpt lat="43.91156" lon="-0.95892">
        <ele>100.2</ele>
        <time>2025-07-23T13:09:43Z</time>
      </trkpt>
      <trkpt lat="43.91194" lon="-0.95834">
        <ele>100.6</ele>
        <time>2025-07-23T13:09:51Z</time>
      </trkpt>
      <trkpt lat="43.91203" lon="-0.95822">
        <ele>100.6</ele>
        <time>2025-07-23T13:09:53Z</time>
      </trkpt>
      <trkpt lat="43.91207" lon="-0.95815">
        <ele>100.6</ele>
        <time>2025-07-23T13:09:54Z</time>
      </trkpt>
      <trkpt lat="43.91245" lon="-0.95759">
        <ele>100.6</ele>
        <time>2025-07-23T13:10:02Z</time>
      </trkpt>
      <trkpt lat="43.91263" lon="-0.95732">
        <ele>100.4</ele>
        <time>2025-07-23T13:10:06Z</time>
      </trkpt>
      <trkpt lat="43.91302" lon="-0.95675">
        <ele>100.4</ele>
        <time>2025-07-23T13:10:14Z</time>
      </trkpt>
      <trkpt lat="43.9131" lon="-0.95663">
        <ele>100.4</ele>
        <time>2025-07-23T13:10:16Z</time>
      </trkpt>
      <trkpt lat="43.91348" lon="-0.95606">
        <ele>100.4</ele>
        <time>2025-07-23T13:10:24Z</time>
      </trkpt>
      <trkpt lat="43.91367" lon="-0.95578">
        <ele>100.2</ele>
        <time>2025-07-23T13:10:28Z</time>
      </trkpt>
      <trkpt lat="43.91391" lon="-0.95542">
        <ele>100</ele>
        <time>2025-07-23T13:10:33Z</time>
      </trkpt>
      <trkpt lat="43.9141" lon="-0.95514">
        <ele>99.6</ele>
        <time>2025-07-23T13:10:37Z</time>
      </trkpt>
      <trkpt lat="43.9145" lon="-0.95456">
        <ele>99.8</ele>
        <time>2025-07-23T13:10:45Z</time>
      </trkpt>
      <trkpt lat="43.91465" lon="-0.95434">
        <ele>99.8</ele>
        <time>2025-07-23T13:10:48Z</time>
      </trkpt>
      <trkpt lat="43.915" lon="-0.95382">
        <ele>99.8</ele>
        <time>2025-07-23T13:10:55Z</time>
      </trkpt>
      <trkpt lat="43.91534" lon="-0.95332">
        <ele>99.8</ele>
        <time>2025-07-23T13:11:02Z</time>
      </trkpt>
      <trkpt lat="43.91572" lon="-0.95274">
        <ele>99.6</ele>
        <time>2025-07-23T13:11:10Z</time>
      </trkpt>
      <trkpt lat="43.91591" lon="-0.95245">
        <ele>99.2</ele>
        <time>2025-07-23T13:11:14Z</time>
      </trkpt>
      <trkpt lat="43.91596" lon="-0.95238">
        <ele>99.2</ele>
        <time>2025-07-23T13:11:15Z</time>
      </trkpt>
      <trkpt lat="43.91637" lon="-0.95179">
        <ele>99</ele>
        <time>2025-07-23T13:11:23Z</time>
      </trkpt>
      <trkpt lat="43.91647" lon="-0.95164">
        <ele>99</ele>
        <time>2025-07-23T13:11:25Z</time>
      </trkpt>
      <trkpt lat="43.91688" lon="-0.95105">
        <ele>99.2</ele>
        <time>2025-07-23T13:11:33Z</time>
      </trkpt>
      <trkpt lat="43.91698" lon="-0.9509">
        <ele>99.2</ele>
        <time>2025-07-23T13:11:35Z</time>
      </trkpt>
      <trkpt lat="43.91736" lon="-0.95033">
        <ele>99.2</ele>
        <time>2025-07-23T13:11:43Z</time>
      </trkpt>
      <trkpt lat="43.91746" lon="-0.95019">
        <ele>99.2</ele>
        <time>2025-07-23T13:11:45Z</time>
      </trkpt>
      <trkpt lat="43.91784" lon="-0.94963">
        <ele>99.4</ele>
        <time>2025-07-23T13:11:53Z</time>
      </trkpt>
      <trkpt lat="43.91799" lon="-0.94941">
        <ele>99.4</ele>
        <time>2025-07-23T13:11:56Z</time>
      </trkpt>
      <trkpt lat="43.91838" lon="-0.94882">
        <ele>99</ele>
        <time>2025-07-23T13:12:04Z</time>
      </trkpt>
      <trkpt lat="43.91853" lon="-0.9486">
        <ele>99</ele>
        <time>2025-07-23T13:12:07Z</time>
      </trkpt>
      <trkpt lat="43.91892" lon="-0.94803">
        <ele>99</ele>
        <time>2025-07-23T13:12:15Z</time>
      </trkpt>
      <trkpt lat="43.91931" lon="-0.94746">
        <ele>98.6</ele>
        <time>2025-07-23T13:12:23Z</time>
      </trkpt>
      <trkpt lat="43.91941" lon="-0.94731">
        <ele>98.4</ele>
        <time>2025-07-23T13:12:25Z</time>
      </trkpt>
      <trkpt lat="43.91981" lon="-0.9467">
        <ele>98</ele>
        <time>2025-07-23T13:12:33Z</time>
      </trkpt>
      <trkpt lat="43.91998" lon="-0.94646">
        <ele>97.8</ele>
        <time>2025-07-23T13:12:36Z</time>
      </trkpt>
      <trkpt lat="43.92038" lon="-0.94586">
        <ele>97.6</ele>
        <time>2025-07-23T13:12:44Z</time>
      </trkpt>
      <trkpt lat="43.92053" lon="-0.94564">
        <ele>97.4</ele>
        <time>2025-07-23T13:12:47Z</time>
      </trkpt>
      <trkpt lat="43.92063" lon="-0.94549">
        <ele>97.4</ele>
        <time>2025-07-23T13:12:49Z</time>
      </trkpt>
      <trkpt lat="43.92095" lon="-0.94502">
        <ele>96.8</ele>
        <time>2025-07-23T13:12:55Z</time>
      </trkpt>
      <trkpt lat="43.92136" lon="-0.94441">
        <ele>96.8</ele>
        <time>2025-07-23T13:13:03Z</time>
      </trkpt>
      <trkpt lat="43.92177" lon="-0.9438">
        <ele>96.4</ele>
        <time>2025-07-23T13:13:11Z</time>
      </trkpt>
      <trkpt lat="43.92182" lon="-0.94372">
        <ele>96.4</ele>
        <time>2025-07-23T13:13:12Z</time>
      </trkpt>
      <trkpt lat="43.92223" lon="-0.94313">
        <ele>96</ele>
        <time>2025-07-23T13:13:20Z</time>
      </trkpt>
      <trkpt lat="43.92228" lon="-0.94306">
        <ele>96</ele>
        <time>2025-07-23T13:13:21Z</time>
      </trkpt>
      <trkpt lat="43.92272" lon="-0.94253">
        <ele>95.8</ele>
        <time>2025-07-23T13:13:29Z</time>
      </trkpt>
      <trkpt lat="43.92278" lon="-0.94246">
        <ele>95.8</ele>
        <time>2025-07-23T13:13:30Z</time>
      </trkpt>
      <trkpt lat="43.92323" lon="-0.94199">
        <ele>95.6</ele>
        <time>2025-07-23T13:13:38Z</time>
      </trkpt>
      <trkpt lat="43.92329" lon="-0.94193">
        <ele>95.4</ele>
        <time>2025-07-23T13:13:39Z</time>
      </trkpt>
      <trkpt lat="43.9234" lon="-0.94181">
        <ele>95.4</ele>
        <time>2025-07-23T13:13:41Z</time>
      </trkpt>
      <trkpt lat="43.92388" lon="-0.94132">
        <ele>95</ele>
        <time>2025-07-23T13:13:49Z</time>
      </trkpt>
      <trkpt lat="43.92394" lon="-0.94125">
        <ele>95</ele>
        <time>2025-07-23T13:13:50Z</time>
      </trkpt>
      <trkpt lat="43.92419" lon="-0.94099">
        <ele>94.4</ele>
        <time>2025-07-23T13:13:54Z</time>
      </trkpt>
      <trkpt lat="43.92449" lon="-0.94068">
        <ele>94</ele>
        <time>2025-07-23T13:13:59Z</time>
      </trkpt>
      <trkpt lat="43.92497" lon="-0.94016">
        <ele>93.6</ele>
        <time>2025-07-23T13:14:07Z</time>
      </trkpt>
      <trkpt lat="43.92516" lon="-0.93998">
        <ele>93.4</ele>
        <time>2025-07-23T13:14:10Z</time>
      </trkpt>
      <trkpt lat="43.92546" lon="-0.93965">
        <ele>93.2</ele>
        <time>2025-07-23T13:14:15Z</time>
      </trkpt>
      <trkpt lat="43.92594" lon="-0.93915">
        <ele>92.8</ele>
        <time>2025-07-23T13:14:23Z</time>
      </trkpt>
      <trkpt lat="43.926" lon="-0.93909">
        <ele>92.8</ele>
        <time>2025-07-23T13:14:24Z</time>
      </trkpt>
      <trkpt lat="43.92606" lon="-0.93903">
        <ele>92.4</ele>
        <time>2025-07-23T13:14:25Z</time>
      </trkpt>
      <trkpt lat="43.92637" lon="-0.93874">
        <ele>91.6</ele>
        <time>2025-07-23T13:14:30Z</time>
      </trkpt>
      <trkpt lat="43.92656" lon="-0.93859">
        <ele>91.4</ele>
        <time>2025-07-23T13:14:33Z</time>
      </trkpt>
      <trkpt lat="43.92663" lon="-0.93855">
        <ele>91.2</ele>
        <time>2025-07-23T13:14:34Z</time>
      </trkpt>
      <trkpt lat="43.9267" lon="-0.93853">
        <ele>91.2</ele>
        <time>2025-07-23T13:14:35Z</time>
      </trkpt>
      <trkpt lat="43.92729" lon="-0.93838">
        <ele>90.4</ele>
        <time>2025-07-23T13:14:43Z</time>
      </trkpt>
      <trkpt lat="43.92743" lon="-0.93835">
        <ele>90.2</ele>
        <time>2025-07-23T13:14:45Z</time>
      </trkpt>
      <trkpt lat="43.92778" lon="-0.93827">
        <ele>90.2</ele>
        <time>2025-07-23T13:14:50Z</time>
      </trkpt>
      <trkpt lat="43.92821" lon="-0.93818">
        <ele>90.2</ele>
        <time>2025-07-23T13:14:56Z</time>
      </trkpt>
      <trkpt lat="43.92867" lon="-0.93801">
        <ele>90</ele>
        <time>2025-07-23T13:15:03Z</time>
      </trkpt>
      <trkpt lat="43.92899" lon="-0.93773">
        <ele>90</ele>
        <time>2025-07-23T13:15:09Z</time>
      </trkpt>
      <trkpt lat="43.92908" lon="-0.93761">
        <ele>90.2</ele>
        <time>2025-07-23T13:15:11Z</time>
      </trkpt>
      <trkpt lat="43.92924" lon="-0.93736">
        <ele>90.4</ele>
        <time>2025-07-23T13:15:15Z</time>
      </trkpt>
      <trkpt lat="43.92949" lon="-0.93687">
        <ele>91.6</ele>
        <time>2025-07-23T13:15:22Z</time>
      </trkpt>
      <trkpt lat="43.92957" lon="-0.93672">
        <ele>91.8</ele>
        <time>2025-07-23T13:15:24Z</time>
      </trkpt>
      <trkpt lat="43.92992" lon="-0.93608">
        <ele>92</ele>
        <time>2025-07-23T13:15:33Z</time>
      </trkpt>
      <trkpt lat="43.92996" lon="-0.93601">
        <ele>92</ele>
        <time>2025-07-23T13:15:34Z</time>
      </trkpt>
      <trkpt lat="43.9303" lon="-0.93537">
        <ele>91.8</ele>
        <time>2025-07-23T13:15:42Z</time>
      </trkpt>
      <trkpt lat="43.93039" lon="-0.93521">
        <ele>91.6</ele>
        <time>2025-07-23T13:15:44Z</time>
      </trkpt>
      <trkpt lat="43.93075" lon="-0.93454">
        <ele>91.6</ele>
        <time>2025-07-23T13:15:52Z</time>
      </trkpt>
      <trkpt lat="43.93079" lon="-0.93446">
        <ele>91.6</ele>
        <time>2025-07-23T13:15:53Z</time>
      </trkpt>
      <trkpt lat="43.93115" lon="-0.9338">
        <ele>91.4</ele>
        <time>2025-07-23T13:16:01Z</time>
      </trkpt>
      <trkpt lat="43.93128" lon="-0.93356">
        <ele>91.2</ele>
        <time>2025-07-23T13:16:04Z</time>
      </trkpt>
      <trkpt lat="43.93163" lon="-0.9329">
        <ele>91</ele>
        <time>2025-07-23T13:16:12Z</time>
      </trkpt>
      <trkpt lat="43.93172" lon="-0.93274">
        <ele>91</ele>
        <time>2025-07-23T13:16:14Z</time>
      </trkpt>
      <trkpt lat="43.93208" lon="-0.9321">
        <ele>91</ele>
        <time>2025-07-23T13:16:22Z</time>
      </trkpt>
      <trkpt lat="43.93213" lon="-0.93204">
        <ele>91</ele>
        <time>2025-07-23T13:16:23Z</time>
      </trkpt>
      <trkpt lat="43.93241" lon="-0.93179">
        <ele>91.6</ele>
        <time>2025-07-23T13:16:28Z</time>
      </trkpt>
      <trkpt lat="43.93279" lon="-0.93165">
        <ele>91.8</ele>
        <time>2025-07-23T13:16:34Z</time>
      </trkpt>
      <trkpt lat="43.93324" lon="-0.93166">
        <ele>91.8</ele>
        <time>2025-07-23T13:16:41Z</time>
      </trkpt>
      <trkpt lat="43.93366" lon="-0.93171">
        <ele>91.8</ele>
        <time>2025-07-23T13:16:48Z</time>
      </trkpt>
      <trkpt lat="43.93408" lon="-0.93176">
        <ele>92.2</ele>
        <time>2025-07-23T13:16:55Z</time>
      </trkpt>
      <trkpt lat="43.93458" lon="-0.9318">
        <ele>92.4</ele>
        <time>2025-07-23T13:17:03Z</time>
      </trkpt>
      <trkpt lat="43.935" lon="-0.93184">
        <ele>92.2</ele>
        <time>2025-07-23T13:17:10Z</time>
      </trkpt>
      <trkpt lat="43.9354" lon="-0.9319">
        <ele>92.6</ele>
        <time>2025-07-23T13:17:17Z</time>
      </trkpt>
      <trkpt lat="43.93545" lon="-0.93191">
        <ele>92.6</ele>
        <time>2025-07-23T13:17:18Z</time>
      </trkpt>
      <trkpt lat="43.93551" lon="-0.93191">
        <ele>92.6</ele>
        <time>2025-07-23T13:17:19Z</time>
      </trkpt>
      <trkpt lat="43.93577" lon="-0.93201">
        <ele>93</ele>
        <time>2025-07-23T13:17:24Z</time>
      </trkpt>
      <trkpt lat="43.93588" lon="-0.93205">
        <ele>93.2</ele>
        <time>2025-07-23T13:17:26Z</time>
      </trkpt>
      <trkpt lat="43.93597" lon="-0.93199">
        <ele>93.2</ele>
        <time>2025-07-23T13:17:28Z</time>
      </trkpt>
      <trkpt lat="43.93599" lon="-0.93193">
        <ele>93.4</ele>
        <time>2025-07-23T13:17:29Z</time>
      </trkpt>
      <trkpt lat="43.93599" lon="-0.93185">
        <ele>93.4</ele>
        <time>2025-07-23T13:17:30Z</time>
      </trkpt>
      <trkpt lat="43.93595" lon="-0.93169">
        <ele>93.2</ele>
        <time>2025-07-23T13:17:32Z</time>
      </trkpt>
      <trkpt lat="43.93589" lon="-0.93153">
        <ele>93.2</ele>
        <time>2025-07-23T13:17:34Z</time>
      </trkpt>
      <trkpt lat="43.93566" lon="-0.93098">
        <ele>92.8</ele>
        <time>2025-07-23T13:17:41Z</time>
      </trkpt>
      <trkpt lat="43.9355" lon="-0.93058">
        <ele>92.6</ele>
        <time>2025-07-23T13:17:46Z</time>
      </trkpt>
      <trkpt lat="43.93547" lon="-0.9304">
        <ele>92.6</ele>
        <time>2025-07-23T13:17:48Z</time>
      </trkpt>
      <trkpt lat="43.93546" lon="-0.9301">
        <ele>92.4</ele>
        <time>2025-07-23T13:17:51Z</time>
      </trkpt>
      <trkpt lat="43.93548" lon="-0.92991">
        <ele>92.2</ele>
        <time>2025-07-23T13:17:53Z</time>
      </trkpt>
      <trkpt lat="43.93563" lon="-0.92935">
        <ele>92</ele>
        <time>2025-07-23T13:17:59Z</time>
      </trkpt>
      <trkpt lat="43.93572" lon="-0.92909">
        <ele>91.6</ele>
        <time>2025-07-23T13:18:02Z</time>
      </trkpt>
      <trkpt lat="43.93586" lon="-0.92864">
        <ele>90.4</ele>
        <time>2025-07-23T13:18:07Z</time>
      </trkpt>
      <trkpt lat="43.93588" lon="-0.92854">
        <ele>90.4</ele>
        <time>2025-07-23T13:18:08Z</time>
      </trkpt>
      <trkpt lat="43.9359" lon="-0.92844">
        <ele>90.4</ele>
        <time>2025-07-23T13:18:09Z</time>
      </trkpt>
      <trkpt lat="43.9359" lon="-0.92815">
        <ele>90.2</ele>
        <time>2025-07-23T13:18:12Z</time>
      </trkpt>
      <trkpt lat="43.9358" lon="-0.92762">
        <ele>90.8</ele>
        <time>2025-07-23T13:18:18Z</time>
      </trkpt>
      <trkpt lat="43.9356" lon="-0.92684">
        <ele>91</ele>
        <time>2025-07-23T13:18:27Z</time>
      </trkpt>
      <trkpt lat="43.93558" lon="-0.92675">
        <ele>91</ele>
        <time>2025-07-23T13:18:28Z</time>
      </trkpt>
      <trkpt lat="43.93539" lon="-0.92598">
        <ele>91</ele>
        <time>2025-07-23T13:18:37Z</time>
      </trkpt>
      <trkpt lat="43.93535" lon="-0.92582">
        <ele>91</ele>
        <time>2025-07-23T13:18:39Z</time>
      </trkpt>
      <trkpt lat="43.93528" lon="-0.92551">
        <ele>91.2</ele>
        <time>2025-07-23T13:18:43Z</time>
      </trkpt>
      <trkpt lat="43.93525" lon="-0.92538">
        <ele>91.2</ele>
        <time>2025-07-23T13:18:45Z</time>
      </trkpt>
      <trkpt lat="43.93521" lon="-0.92519">
        <ele>91.2</ele>
        <time>2025-07-23T13:18:48Z</time>
      </trkpt>
      <trkpt lat="43.93518" lon="-0.92509">
        <ele>91.2</ele>
        <time>2025-07-23T13:18:50Z</time>
      </trkpt>
      <trkpt lat="43.93511" lon="-0.92479">
        <ele>91.2</ele>
        <time>2025-07-23T13:18:56Z</time>
      </trkpt>
      <trkpt lat="43.9351" lon="-0.92467">
        <ele>91.2</ele>
        <time>2025-07-23T13:18:59Z</time>
      </trkpt>
      <trkpt lat="43.93511" lon="-0.92465">
        <ele>91.2</ele>
        <time>2025-07-23T13:19:00Z</time>
      </trkpt>
      <trkpt lat="43.93514" lon="-0.9247">
        <ele>91.2</ele>
        <time>2025-07-23T13:19:03Z</time>
      </trkpt>
      <trkpt lat="43.93517" lon="-0.92491">
        <ele>91.4</ele>
        <time>2025-07-23T13:19:08Z</time>
      </trkpt>
      <trkpt lat="43.93522" lon="-0.92513">
        <ele>91.4</ele>
        <time>2025-07-23T13:19:14Z</time>
      </trkpt>
      <trkpt lat="43.93522" lon="-0.92514">
        <ele>91.4</ele>
        <time>2025-07-23T13:19:17Z</time>
      </trkpt>
      <trkpt lat="43.93526" lon="-0.92523">
        <ele>91.2</ele>
        <time>2025-07-23T13:21:50Z</time>
      </trkpt>
      <trkpt lat="43.93532" lon="-0.92549">
        <ele>91.2</ele>
        <time>2025-07-23T13:21:56Z</time>
      </trkpt>
      <trkpt lat="43.93535" lon="-0.92556">
        <ele>91.2</ele>
        <time>2025-07-23T13:21:58Z</time>
      </trkpt>
      <trkpt lat="43.9354" lon="-0.92559">
        <ele>91.2</ele>
        <time>2025-07-23T13:22:00Z</time>
      </trkpt>
      <trkpt lat="43.93552" lon="-0.92566">
        <ele>91.4</ele>
        <time>2025-07-23T13:22:06Z</time>
      </trkpt>
      <trkpt lat="43.93552" lon="-0.92566">
        <ele>91.4</ele>
        <time>2025-07-23T13:22:08Z</time>
      </trkpt>
      <trkpt lat="43.93552" lon="-0.92569">
        <ele>92.8</ele>
        <time>2025-07-23T13:58:36Z</time>
      </trkpt>
      <trkpt lat="43.9355" lon="-0.92565">
        <ele>92.6</ele>
        <time>2025-07-23T13:58:37Z</time>
      </trkpt>
      <trkpt lat="43.93546" lon="-0.92562">
        <ele>92.6</ele>
        <time>2025-07-23T13:58:39Z</time>
      </trkpt>
      <trkpt lat="43.93542" lon="-0.92563">
        <ele>92.6</ele>
        <time>2025-07-23T13:58:42Z</time>
      </trkpt>
      <trkpt lat="43.93537" lon="-0.92562">
        <ele>92.6</ele>
        <time>2025-07-23T13:58:46Z</time>
      </trkpt>
      <trkpt lat="43.93536" lon="-0.92562">
        <ele>92.6</ele>
        <time>2025-07-23T13:58:47Z</time>
      </trkpt>
      <trkpt lat="43.93536" lon="-0.92562">
        <ele>92.8</ele>
        <time>2025-07-23T13:58:48Z</time>
      </trkpt>
      <trkpt lat="43.93535" lon="-0.92561">
        <ele>92.8</ele>
        <time>2025-07-23T13:58:52Z</time>
      </trkpt>
      <trkpt lat="43.9353" lon="-0.92553">
        <ele>92.8</ele>
        <time>2025-07-23T13:58:55Z</time>
      </trkpt>
      <trkpt lat="43.93524" lon="-0.92534">
        <ele>92.6</ele>
        <time>2025-07-23T13:59:01Z</time>
      </trkpt>
      <trkpt lat="43.93522" lon="-0.92527">
        <ele>92.4</ele>
        <time>2025-07-23T13:59:03Z</time>
      </trkpt>
      <trkpt lat="43.93517" lon="-0.92511">
        <ele>92.2</ele>
        <time>2025-07-23T13:59:09Z</time>
      </trkpt>
      <trkpt lat="43.93516" lon="-0.9251">
        <ele>92.2</ele>
        <time>2025-07-23T13:59:11Z</time>
      </trkpt>
      <trkpt lat="43.93515" lon="-0.92506">
        <ele>92.8</ele>
        <time>2025-07-23T13:59:39Z</time>
      </trkpt>
      <trkpt lat="43.93514" lon="-0.92504">
        <ele>92.8</ele>
        <time>2025-07-23T13:59:40Z</time>
      </trkpt>
      <trkpt lat="43.93513" lon="-0.92489">
        <ele>92.6</ele>
        <time>2025-07-23T13:59:45Z</time>
      </trkpt>
      <trkpt lat="43.93508" lon="-0.92469">
        <ele>92.6</ele>
        <time>2025-07-23T13:59:51Z</time>
      </trkpt>
      <trkpt lat="43.935" lon="-0.92439">
        <ele>92.6</ele>
        <time>2025-07-23T13:59:58Z</time>
      </trkpt>
      <trkpt lat="43.93492" lon="-0.92401">
        <ele>92.4</ele>
        <time>2025-07-23T14:00:05Z</time>
      </trkpt>
      <trkpt lat="43.93482" lon="-0.92358">
        <ele>92.2</ele>
        <time>2025-07-23T14:00:12Z</time>
      </trkpt>
      <trkpt lat="43.93474" lon="-0.92326">
        <ele>92.2</ele>
        <time>2025-07-23T14:00:17Z</time>
      </trkpt>
      <trkpt lat="43.9347" lon="-0.92314">
        <ele>92.2</ele>
        <time>2025-07-23T14:00:19Z</time>
      </trkpt>
      <trkpt lat="43.93454" lon="-0.92267">
        <ele>92.2</ele>
        <time>2025-07-23T14:00:27Z</time>
      </trkpt>
      <trkpt lat="43.93452" lon="-0.92262">
        <ele>92.2</ele>
        <time>2025-07-23T14:00:28Z</time>
      </trkpt>
      <trkpt lat="43.93444" lon="-0.92248">
        <ele>92.2</ele>
        <time>2025-07-23T14:00:31Z</time>
      </trkpt>
      <trkpt lat="43.93442" lon="-0.92243">
        <ele>92.2</ele>
        <time>2025-07-23T14:00:32Z</time>
      </trkpt>
      <trkpt lat="43.93443" lon="-0.92237">
        <ele>92.2</ele>
        <time>2025-07-23T14:00:33Z</time>
      </trkpt>
      <trkpt lat="43.93447" lon="-0.92229">
        <ele>92.2</ele>
        <time>2025-07-23T14:00:35Z</time>
      </trkpt>
      <trkpt lat="43.93467" lon="-0.9222">
        <ele>92.2</ele>
        <time>2025-07-23T14:00:40Z</time>
      </trkpt>
      <trkpt lat="43.93504" lon="-0.92211">
        <ele>92.4</ele>
        <time>2025-07-23T14:00:48Z</time>
      </trkpt>
      <trkpt lat="43.93531" lon="-0.9221">
        <ele>92.4</ele>
        <time>2025-07-23T14:00:53Z</time>
      </trkpt>
      <trkpt lat="43.93536" lon="-0.92208">
        <ele>92.4</ele>
        <time>2025-07-23T14:00:54Z</time>
      </trkpt>
      <trkpt lat="43.93542" lon="-0.92206">
        <ele>92.6</ele>
        <time>2025-07-23T14:00:55Z</time>
      </trkpt>
      <trkpt lat="43.93566" lon="-0.9219">
        <ele>92.6</ele>
        <time>2025-07-23T14:01:00Z</time>
      </trkpt>
      <trkpt lat="43.93595" lon="-0.92168">
        <ele>93</ele>
        <time>2025-07-23T14:01:06Z</time>
      </trkpt>
      <trkpt lat="43.93624" lon="-0.92147">
        <ele>93.4</ele>
        <time>2025-07-23T14:01:12Z</time>
      </trkpt>
      <trkpt lat="43.93633" lon="-0.92142">
        <ele>93.8</ele>
        <time>2025-07-23T14:01:14Z</time>
      </trkpt>
      <trkpt lat="43.93671" lon="-0.92119">
        <ele>94</ele>
        <time>2025-07-23T14:01:22Z</time>
      </trkpt>
      <trkpt lat="43.93701" lon="-0.92088">
        <ele>94</ele>
        <time>2025-07-23T14:01:29Z</time>
      </trkpt>
      <trkpt lat="43.9374" lon="-0.92043">
        <ele>94</ele>
        <time>2025-07-23T14:01:38Z</time>
      </trkpt>
      <trkpt lat="43.93764" lon="-0.92026">
        <ele>94.2</ele>
        <time>2025-07-23T14:01:43Z</time>
      </trkpt>
      <trkpt lat="43.9377" lon="-0.92024">
        <ele>94.2</ele>
        <time>2025-07-23T14:01:44Z</time>
      </trkpt>
      <trkpt lat="43.93776" lon="-0.92023">
        <ele>94.4</ele>
        <time>2025-07-23T14:01:45Z</time>
      </trkpt>
      <trkpt lat="43.938" lon="-0.92022">
        <ele>94.4</ele>
        <time>2025-07-23T14:01:49Z</time>
      </trkpt>
      <trkpt lat="43.93841" lon="-0.9202">
        <ele>94.4</ele>
        <time>2025-07-23T14:01:56Z</time>
      </trkpt>
      <trkpt lat="43.9388" lon="-0.92018">
        <ele>94.8</ele>
        <time>2025-07-23T14:02:03Z</time>
      </trkpt>
      <trkpt lat="43.93932" lon="-0.92012">
        <ele>95.4</ele>
        <time>2025-07-23T14:02:12Z</time>
      </trkpt>
      <trkpt lat="43.93962" lon="-0.92004">
        <ele>95.8</ele>
        <time>2025-07-23T14:02:17Z</time>
      </trkpt>
      <trkpt lat="43.93979" lon="-0.91997">
        <ele>96</ele>
        <time>2025-07-23T14:02:20Z</time>
      </trkpt>
      <trkpt lat="43.94024" lon="-0.91972">
        <ele>96.6</ele>
        <time>2025-07-23T14:02:28Z</time>
      </trkpt>
      <trkpt lat="43.94075" lon="-0.91946">
        <ele>96.6</ele>
        <time>2025-07-23T14:02:37Z</time>
      </trkpt>
      <trkpt lat="43.94109" lon="-0.9193">
        <ele>96.4</ele>
        <time>2025-07-23T14:02:43Z</time>
      </trkpt>
      <trkpt lat="43.94114" lon="-0.91926">
        <ele>96.4</ele>
        <time>2025-07-23T14:02:44Z</time>
      </trkpt>
      <trkpt lat="43.94157" lon="-0.91892">
        <ele>96.6</ele>
        <time>2025-07-23T14:02:52Z</time>
      </trkpt>
      <trkpt lat="43.94185" lon="-0.91872">
        <ele>97</ele>
        <time>2025-07-23T14:02:57Z</time>
      </trkpt>
      <trkpt lat="43.94197" lon="-0.91864">
        <ele>97</ele>
        <time>2025-07-23T14:02:59Z</time>
      </trkpt>
      <trkpt lat="43.94236" lon="-0.9184">
        <ele>97.8</ele>
        <time>2025-07-23T14:03:06Z</time>
      </trkpt>
      <trkpt lat="43.94264" lon="-0.91821">
        <ele>98</ele>
        <time>2025-07-23T14:03:11Z</time>
      </trkpt>
      <trkpt lat="43.94282" lon="-0.91809">
        <ele>98.2</ele>
        <time>2025-07-23T14:03:14Z</time>
      </trkpt>
      <trkpt lat="43.94322" lon="-0.91782">
        <ele>98.4</ele>
        <time>2025-07-23T14:03:21Z</time>
      </trkpt>
      <trkpt lat="43.94373" lon="-0.91746">
        <ele>98.4</ele>
        <time>2025-07-23T14:03:30Z</time>
      </trkpt>
      <trkpt lat="43.94423" lon="-0.91713">
        <ele>98.4</ele>
        <time>2025-07-23T14:03:39Z</time>
      </trkpt>
      <trkpt lat="43.94429" lon="-0.91709">
        <ele>98.4</ele>
        <time>2025-07-23T14:03:40Z</time>
      </trkpt>
      <trkpt lat="43.94482" lon="-0.91673">
        <ele>98.4</ele>
        <time>2025-07-23T14:03:49Z</time>
      </trkpt>
      <trkpt lat="43.94534" lon="-0.91639">
        <ele>99</ele>
        <time>2025-07-23T14:03:58Z</time>
      </trkpt>
      <trkpt lat="43.94545" lon="-0.91631">
        <ele>99.2</ele>
        <time>2025-07-23T14:04:00Z</time>
      </trkpt>
      <trkpt lat="43.94557" lon="-0.91624">
        <ele>99.2</ele>
        <time>2025-07-23T14:04:02Z</time>
      </trkpt>
      <trkpt lat="43.94609" lon="-0.9159">
        <ele>99.4</ele>
        <time>2025-07-23T14:04:11Z</time>
      </trkpt>
      <trkpt lat="43.94615" lon="-0.91586">
        <ele>99.4</ele>
        <time>2025-07-23T14:04:12Z</time>
      </trkpt>
      <trkpt lat="43.94667" lon="-0.91551">
        <ele>99.6</ele>
        <time>2025-07-23T14:04:21Z</time>
      </trkpt>
      <trkpt lat="43.94684" lon="-0.9154">
        <ele>100</ele>
        <time>2025-07-23T14:04:24Z</time>
      </trkpt>
      <trkpt lat="43.94729" lon="-0.91509">
        <ele>100.2</ele>
        <time>2025-07-23T14:04:32Z</time>
      </trkpt>
      <trkpt lat="43.94744" lon="-0.91499">
        <ele>100.2</ele>
        <time>2025-07-23T14:04:35Z</time>
      </trkpt>
      <trkpt lat="43.94794" lon="-0.91465">
        <ele>100.2</ele>
        <time>2025-07-23T14:04:44Z</time>
      </trkpt>
      <trkpt lat="43.94811" lon="-0.91454">
        <ele>100.2</ele>
        <time>2025-07-23T14:04:47Z</time>
      </trkpt>
      <trkpt lat="43.94854" lon="-0.91424">
        <ele>100.6</ele>
        <time>2025-07-23T14:04:55Z</time>
      </trkpt>
      <trkpt lat="43.94904" lon="-0.91391">
        <ele>100.8</ele>
        <time>2025-07-23T14:05:04Z</time>
      </trkpt>
      <trkpt lat="43.9495" lon="-0.91359">
        <ele>101</ele>
        <time>2025-07-23T14:05:12Z</time>
      </trkpt>
      <trkpt lat="43.94962" lon="-0.91351">
        <ele>101</ele>
        <time>2025-07-23T14:05:14Z</time>
      </trkpt>
      <trkpt lat="43.95005" lon="-0.91323">
        <ele>101.2</ele>
        <time>2025-07-23T14:05:21Z</time>
      </trkpt>
      <trkpt lat="43.95052" lon="-0.91292">
        <ele>101.8</ele>
        <time>2025-07-23T14:05:29Z</time>
      </trkpt>
      <trkpt lat="43.95099" lon="-0.9126">
        <ele>101.8</ele>
        <time>2025-07-23T14:05:37Z</time>
      </trkpt>
      <trkpt lat="43.95152" lon="-0.91228">
        <ele>102</ele>
        <time>2025-07-23T14:05:46Z</time>
      </trkpt>
      <trkpt lat="43.95164" lon="-0.91222">
        <ele>102</ele>
        <time>2025-07-23T14:05:48Z</time>
      </trkpt>
      <trkpt lat="43.952" lon="-0.91203">
        <ele>102.4</ele>
        <time>2025-07-23T14:05:54Z</time>
      </trkpt>
      <trkpt lat="43.95256" lon="-0.91177">
        <ele>103</ele>
        <time>2025-07-23T14:06:03Z</time>
      </trkpt>
      <trkpt lat="43.95263" lon="-0.91174">
        <ele>103</ele>
        <time>2025-07-23T14:06:04Z</time>
      </trkpt>
      <trkpt lat="43.95306" lon="-0.91154">
        <ele>103.4</ele>
        <time>2025-07-23T14:06:11Z</time>
      </trkpt>
      <trkpt lat="43.95345" lon="-0.91138">
        <ele>103.4</ele>
        <time>2025-07-23T14:06:17Z</time>
      </trkpt>
      <trkpt lat="43.95388" lon="-0.91118">
        <ele>103.6</ele>
        <time>2025-07-23T14:06:24Z</time>
      </trkpt>
      <trkpt lat="43.95424" lon="-0.91101">
        <ele>104.2</ele>
        <time>2025-07-23T14:06:30Z</time>
      </trkpt>
      <trkpt lat="43.95448" lon="-0.91091">
        <ele>104.8</ele>
        <time>2025-07-23T14:06:34Z</time>
      </trkpt>
      <trkpt lat="43.95503" lon="-0.91067">
        <ele>104.4</ele>
        <time>2025-07-23T14:06:43Z</time>
      </trkpt>
      <trkpt lat="43.95509" lon="-0.91064">
        <ele>104.4</ele>
        <time>2025-07-23T14:06:44Z</time>
      </trkpt>
      <trkpt lat="43.95565" lon="-0.9104">
        <ele>104.4</ele>
        <time>2025-07-23T14:06:53Z</time>
      </trkpt>
      <trkpt lat="43.95571" lon="-0.91037">
        <ele>104.4</ele>
        <time>2025-07-23T14:06:54Z</time>
      </trkpt>
      <trkpt lat="43.95614" lon="-0.91019">
        <ele>104.8</ele>
        <time>2025-07-23T14:07:01Z</time>
      </trkpt>
      <trkpt lat="43.95627" lon="-0.91013">
        <ele>104.8</ele>
        <time>2025-07-23T14:07:03Z</time>
      </trkpt>
      <trkpt lat="43.95645" lon="-0.91005">
        <ele>104.8</ele>
        <time>2025-07-23T14:07:06Z</time>
      </trkpt>
      <trkpt lat="43.95692" lon="-0.90984">
        <ele>105</ele>
        <time>2025-07-23T14:07:14Z</time>
      </trkpt>
      <trkpt lat="43.95746" lon="-0.90959">
        <ele>105</ele>
        <time>2025-07-23T14:07:23Z</time>
      </trkpt>
      <trkpt lat="43.95789" lon="-0.90939">
        <ele>104.6</ele>
        <time>2025-07-23T14:07:30Z</time>
      </trkpt>
      <trkpt lat="43.95846" lon="-0.90915">
        <ele>104.4</ele>
        <time>2025-07-23T14:07:39Z</time>
      </trkpt>
      <trkpt lat="43.95852" lon="-0.90913">
        <ele>104.6</ele>
        <time>2025-07-23T14:07:40Z</time>
      </trkpt>
      <trkpt lat="43.95888" lon="-0.90897">
        <ele>104.8</ele>
        <time>2025-07-23T14:07:46Z</time>
      </trkpt>
      <trkpt lat="43.95894" lon="-0.90895">
        <ele>105.2</ele>
        <time>2025-07-23T14:07:47Z</time>
      </trkpt>
      <trkpt lat="43.95906" lon="-0.90891">
        <ele>105.2</ele>
        <time>2025-07-23T14:07:49Z</time>
      </trkpt>
      <trkpt lat="43.95911" lon="-0.90887">
        <ele>105.2</ele>
        <time>2025-07-23T14:07:50Z</time>
      </trkpt>
      <trkpt lat="43.95923" lon="-0.90882">
        <ele>105.2</ele>
        <time>2025-07-23T14:07:52Z</time>
      </trkpt>
      <trkpt lat="43.95975" lon="-0.90869">
        <ele>105.8</ele>
        <time>2025-07-23T14:08:00Z</time>
      </trkpt>
      <trkpt lat="43.95989" lon="-0.90869">
        <ele>106</ele>
        <time>2025-07-23T14:08:02Z</time>
      </trkpt>
      <trkpt lat="43.96001" lon="-0.90868">
        <ele>106.2</ele>
        <time>2025-07-23T14:08:04Z</time>
      </trkpt>
      <trkpt lat="43.96007" lon="-0.90866">
        <ele>106.2</ele>
        <time>2025-07-23T14:08:05Z</time>
      </trkpt>
      <trkpt lat="43.96027" lon="-0.90865">
        <ele>106.2</ele>
        <time>2025-07-23T14:08:08Z</time>
      </trkpt>
      <trkpt lat="43.96041" lon="-0.90867">
        <ele>106</ele>
        <time>2025-07-23T14:08:10Z</time>
      </trkpt>
      <trkpt lat="43.96089" lon="-0.90868">
        <ele>105.8</ele>
        <time>2025-07-23T14:08:17Z</time>
      </trkpt>
      <trkpt lat="43.96149" lon="-0.90867">
        <ele>106</ele>
        <time>2025-07-23T14:08:26Z</time>
      </trkpt>
      <trkpt lat="43.96153" lon="-0.90867">
        <ele>106.4</ele>
        <time>2025-07-23T14:08:27Z</time>
      </trkpt>
      <trkpt lat="43.96198" lon="-0.90865">
        <ele>106.8</ele>
        <time>2025-07-23T14:08:35Z</time>
      </trkpt>
      <trkpt lat="43.96228" lon="-0.90865">
        <ele>107.4</ele>
        <time>2025-07-23T14:08:40Z</time>
      </trkpt>
      <trkpt lat="43.96255" lon="-0.90865">
        <ele>108</ele>
        <time>2025-07-23T14:08:45Z</time>
      </trkpt>
      <trkpt lat="43.96296" lon="-0.90864">
        <ele>108.4</ele>
        <time>2025-07-23T14:08:52Z</time>
      </trkpt>
      <trkpt lat="43.96314" lon="-0.90864">
        <ele>108.6</ele>
        <time>2025-07-23T14:08:55Z</time>
      </trkpt>
      <trkpt lat="43.96363" lon="-0.90861">
        <ele>108.8</ele>
        <time>2025-07-23T14:09:03Z</time>
      </trkpt>
      <trkpt lat="43.96422" lon="-0.90859">
        <ele>108.8</ele>
        <time>2025-07-23T14:09:12Z</time>
      </trkpt>
      <trkpt lat="43.96428" lon="-0.90859">
        <ele>108.8</ele>
        <time>2025-07-23T14:09:13Z</time>
      </trkpt>
      <trkpt lat="43.9648" lon="-0.90857">
        <ele>108.6</ele>
        <time>2025-07-23T14:09:21Z</time>
      </trkpt>
      <trkpt lat="43.96537" lon="-0.90855">
        <ele>108.4</ele>
        <time>2025-07-23T14:09:30Z</time>
      </trkpt>
      <trkpt lat="43.96594" lon="-0.90853">
        <ele>108.2</ele>
        <time>2025-07-23T14:09:39Z</time>
      </trkpt>
      <trkpt lat="43.96653" lon="-0.90852">
        <ele>108</ele>
        <time>2025-07-23T14:09:48Z</time>
      </trkpt>
      <trkpt lat="43.96659" lon="-0.90851">
        <ele>108</ele>
        <time>2025-07-23T14:09:49Z</time>
      </trkpt>
      <trkpt lat="43.96719" lon="-0.9085">
        <ele>107.8</ele>
        <time>2025-07-23T14:09:58Z</time>
      </trkpt>
      <trkpt lat="43.96766" lon="-0.90846">
        <ele>108</ele>
        <time>2025-07-23T14:10:05Z</time>
      </trkpt>
      <trkpt lat="43.96814" lon="-0.90845">
        <ele>108</ele>
        <time>2025-07-23T14:10:12Z</time>
      </trkpt>
      <trkpt lat="43.96854" lon="-0.90841">
        <ele>107.8</ele>
        <time>2025-07-23T14:10:18Z</time>
      </trkpt>
      <trkpt lat="43.96861" lon="-0.90841">
        <ele>107.8</ele>
        <time>2025-07-23T14:10:19Z</time>
      </trkpt>
      <trkpt lat="43.96895" lon="-0.90843">
        <ele>107.8</ele>
        <time>2025-07-23T14:10:24Z</time>
      </trkpt>
      <trkpt lat="43.96951" lon="-0.90841">
        <ele>108</ele>
        <time>2025-07-23T14:10:32Z</time>
      </trkpt>
      <trkpt lat="43.96965" lon="-0.90841">
        <ele>108</ele>
        <time>2025-07-23T14:10:34Z</time>
      </trkpt>
      <trkpt lat="43.97025" lon="-0.90839">
        <ele>108.2</ele>
        <time>2025-07-23T14:10:43Z</time>
      </trkpt>
      <trkpt lat="43.97032" lon="-0.90839">
        <ele>108.2</ele>
        <time>2025-07-23T14:10:44Z</time>
      </trkpt>
      <trkpt lat="43.97086" lon="-0.90831">
        <ele>108.8</ele>
        <time>2025-07-23T14:10:53Z</time>
      </trkpt>
      <trkpt lat="43.97092" lon="-0.9083">
        <ele>108.8</ele>
        <time>2025-07-23T14:10:54Z</time>
      </trkpt>
      <trkpt lat="43.97127" lon="-0.90817">
        <ele>109.2</ele>
        <time>2025-07-23T14:11:00Z</time>
      </trkpt>
      <trkpt lat="43.97133" lon="-0.90814">
        <ele>109.2</ele>
        <time>2025-07-23T14:11:01Z</time>
      </trkpt>
      <trkpt lat="43.97186" lon="-0.9079">
        <ele>109.8</ele>
        <time>2025-07-23T14:11:10Z</time>
      </trkpt>
      <trkpt lat="43.97241" lon="-0.90764">
        <ele>110.2</ele>
        <time>2025-07-23T14:11:19Z</time>
      </trkpt>
      <trkpt lat="43.97294" lon="-0.90739">
        <ele>110</ele>
        <time>2025-07-23T14:11:27Z</time>
      </trkpt>
      <trkpt lat="43.97308" lon="-0.90732">
        <ele>109.8</ele>
        <time>2025-07-23T14:11:29Z</time>
      </trkpt>
      <trkpt lat="43.97362" lon="-0.90707">
        <ele>109.2</ele>
        <time>2025-07-23T14:11:37Z</time>
      </trkpt>
      <trkpt lat="43.97381" lon="-0.90698">
        <ele>109.4</ele>
        <time>2025-07-23T14:11:40Z</time>
      </trkpt>
      <trkpt lat="43.97434" lon="-0.90673">
        <ele>109.6</ele>
        <time>2025-07-23T14:11:48Z</time>
      </trkpt>
      <trkpt lat="43.97452" lon="-0.90664">
        <ele>109.4</ele>
        <time>2025-07-23T14:11:51Z</time>
      </trkpt>
      <trkpt lat="43.9748" lon="-0.90651">
        <ele>109.8</ele>
        <time>2025-07-23T14:11:56Z</time>
      </trkpt>
      <trkpt lat="43.97501" lon="-0.9064">
        <ele>109.6</ele>
        <time>2025-07-23T14:12:01Z</time>
      </trkpt>
      <trkpt lat="43.97507" lon="-0.90636">
        <ele>109.4</ele>
        <time>2025-07-23T14:12:04Z</time>
      </trkpt>
      <trkpt lat="43.97507" lon="-0.90635">
        <ele>109</ele>
        <time>2025-07-23T14:12:07Z</time>
      </trkpt>
      <trkpt lat="43.97512" lon="-0.90633">
        <ele>109.2</ele>
        <time>2025-07-23T14:15:44Z</time>
      </trkpt>
      <trkpt lat="43.97529" lon="-0.90625">
        <ele>109</ele>
        <time>2025-07-23T14:15:49Z</time>
      </trkpt>
      <trkpt lat="43.97553" lon="-0.90614">
        <ele>109</ele>
        <time>2025-07-23T14:15:55Z</time>
      </trkpt>
      <trkpt lat="43.97585" lon="-0.90599">
        <ele>109</ele>
        <time>2025-07-23T14:16:02Z</time>
      </trkpt>
      <trkpt lat="43.97594" lon="-0.90594">
        <ele>108.8</ele>
        <time>2025-07-23T14:16:04Z</time>
      </trkpt>
      <trkpt lat="43.97611" lon="-0.90587">
        <ele>108.8</ele>
        <time>2025-07-23T14:16:07Z</time>
      </trkpt>
      <trkpt lat="43.97618" lon="-0.90584">
        <ele>108.8</ele>
        <time>2025-07-23T14:16:08Z</time>
      </trkpt>
      <trkpt lat="43.97652" lon="-0.90569">
        <ele>108.8</ele>
        <time>2025-07-23T14:16:14Z</time>
      </trkpt>
      <trkpt lat="43.97702" lon="-0.90545">
        <ele>108.8</ele>
        <time>2025-07-23T14:16:22Z</time>
      </trkpt>
      <trkpt lat="43.97759" lon="-0.90519">
        <ele>108.6</ele>
        <time>2025-07-23T14:16:31Z</time>
      </trkpt>
      <trkpt lat="43.97813" lon="-0.90498">
        <ele>108.4</ele>
        <time>2025-07-23T14:16:39Z</time>
      </trkpt>
      <trkpt lat="43.97827" lon="-0.90494">
        <ele>108.4</ele>
        <time>2025-07-23T14:16:41Z</time>
      </trkpt>
      <trkpt lat="43.97881" lon="-0.90478">
        <ele>107.8</ele>
        <time>2025-07-23T14:16:49Z</time>
      </trkpt>
      <trkpt lat="43.97901" lon="-0.90472">
        <ele>107.8</ele>
        <time>2025-07-23T14:16:52Z</time>
      </trkpt>
      <trkpt lat="43.97908" lon="-0.9047">
        <ele>107.8</ele>
        <time>2025-07-23T14:16:53Z</time>
      </trkpt>
      <trkpt lat="43.97966" lon="-0.90453">
        <ele>107.6</ele>
        <time>2025-07-23T14:17:01Z</time>
      </trkpt>
      <trkpt lat="43.98026" lon="-0.90435">
        <ele>107.4</ele>
        <time>2025-07-23T14:17:09Z</time>
      </trkpt>
      <trkpt lat="43.98032" lon="-0.90433">
        <ele>107.4</ele>
        <time>2025-07-23T14:17:10Z</time>
      </trkpt>
      <trkpt lat="43.98092" lon="-0.90415">
        <ele>107.2</ele>
        <time>2025-07-23T14:17:18Z</time>
      </trkpt>
      <trkpt lat="43.98097" lon="-0.90413">
        <ele>107.2</ele>
        <time>2025-07-23T14:17:19Z</time>
      </trkpt>
      <trkpt lat="43.98156" lon="-0.90396">
        <ele>107.2</ele>
        <time>2025-07-23T14:17:27Z</time>
      </trkpt>
      <trkpt lat="43.98184" lon="-0.90394">
        <ele>106.8</ele>
        <time>2025-07-23T14:17:31Z</time>
      </trkpt>
      <trkpt lat="43.98199" lon="-0.90396">
        <ele>106.6</ele>
        <time>2025-07-23T14:17:33Z</time>
      </trkpt>
      <trkpt lat="43.98249" lon="-0.90406">
        <ele>106.4</ele>
        <time>2025-07-23T14:17:40Z</time>
      </trkpt>
      <trkpt lat="43.98303" lon="-0.90429">
        <ele>106.2</ele>
        <time>2025-07-23T14:17:48Z</time>
      </trkpt>
      <trkpt lat="43.98317" lon="-0.90434">
        <ele>106.2</ele>
        <time>2025-07-23T14:17:50Z</time>
      </trkpt>
      <trkpt lat="43.98363" lon="-0.90443">
        <ele>106</ele>
        <time>2025-07-23T14:17:57Z</time>
      </trkpt>
      <trkpt lat="43.98392" lon="-0.90441">
        <ele>106.2</ele>
        <time>2025-07-23T14:18:02Z</time>
      </trkpt>
      <trkpt lat="43.98422" lon="-0.9043">
        <ele>107.6</ele>
        <time>2025-07-23T14:18:08Z</time>
      </trkpt>
      <trkpt lat="43.9843" lon="-0.90426">
        <ele>108.2</ele>
        <time>2025-07-23T14:18:10Z</time>
      </trkpt>
      <trkpt lat="43.9845" lon="-0.90414">
        <ele>108.6</ele>
        <time>2025-07-23T14:18:15Z</time>
      </trkpt>
      <trkpt lat="43.98462" lon="-0.90404">
        <ele>109.2</ele>
        <time>2025-07-23T14:18:18Z</time>
      </trkpt>
      <trkpt lat="43.98481" lon="-0.90389">
        <ele>110.8</ele>
        <time>2025-07-23T14:18:23Z</time>
      </trkpt>
      <trkpt lat="43.98492" lon="-0.90379">
        <ele>111.4</ele>
        <time>2025-07-23T14:18:26Z</time>
      </trkpt>
      <trkpt lat="43.98496" lon="-0.90376">
        <ele>111.8</ele>
        <time>2025-07-23T14:18:27Z</time>
      </trkpt>
      <trkpt lat="43.98535" lon="-0.90341">
        <ele>112.4</ele>
        <time>2025-07-23T14:18:36Z</time>
      </trkpt>
      <trkpt lat="43.98576" lon="-0.90305">
        <ele>112</ele>
        <time>2025-07-23T14:18:43Z</time>
      </trkpt>
      <trkpt lat="43.98614" lon="-0.90275">
        <ele>110.4</ele>
        <time>2025-07-23T14:18:48Z</time>
      </trkpt>
      <trkpt lat="43.9864" lon="-0.90258">
        <ele>109.2</ele>
        <time>2025-07-23T14:18:51Z</time>
      </trkpt>
      <trkpt lat="43.98659" lon="-0.90247">
        <ele>108.2</ele>
        <time>2025-07-23T14:18:53Z</time>
      </trkpt>
      <trkpt lat="43.98677" lon="-0.90238">
        <ele>107</ele>
        <time>2025-07-23T14:18:55Z</time>
      </trkpt>
      <trkpt lat="43.98695" lon="-0.9023">
        <ele>105.8</ele>
        <time>2025-07-23T14:18:57Z</time>
      </trkpt>
      <trkpt lat="43.9872" lon="-0.9022">
        <ele>104.6</ele>
        <time>2025-07-23T14:19:00Z</time>
      </trkpt>
      <trkpt lat="43.98737" lon="-0.90214">
        <ele>104.2</ele>
        <time>2025-07-23T14:19:02Z</time>
      </trkpt>
      <trkpt lat="43.9877" lon="-0.90203">
        <ele>103.6</ele>
        <time>2025-07-23T14:19:06Z</time>
      </trkpt>
      <trkpt lat="43.98795" lon="-0.90196">
        <ele>103.4</ele>
        <time>2025-07-23T14:19:09Z</time>
      </trkpt>
      <trkpt lat="43.98852" lon="-0.90178">
        <ele>102.6</ele>
        <time>2025-07-23T14:19:16Z</time>
      </trkpt>
      <trkpt lat="43.9886" lon="-0.90176">
        <ele>102.6</ele>
        <time>2025-07-23T14:19:17Z</time>
      </trkpt>
      <trkpt lat="43.98875" lon="-0.90171">
        <ele>102.2</ele>
        <time>2025-07-23T14:19:19Z</time>
      </trkpt>
      <trkpt lat="43.98926" lon="-0.90155">
        <ele>102</ele>
        <time>2025-07-23T14:19:26Z</time>
      </trkpt>
      <trkpt lat="43.98984" lon="-0.90137">
        <ele>102.2</ele>
        <time>2025-07-23T14:19:34Z</time>
      </trkpt>
      <trkpt lat="43.99026" lon="-0.90123">
        <ele>101.4</ele>
        <time>2025-07-23T14:19:40Z</time>
      </trkpt>
      <trkpt lat="43.99047" lon="-0.90116">
        <ele>101.4</ele>
        <time>2025-07-23T14:19:43Z</time>
      </trkpt>
      <trkpt lat="43.99103" lon="-0.90098">
        <ele>101.2</ele>
        <time>2025-07-23T14:19:51Z</time>
      </trkpt>
      <trkpt lat="43.99162" lon="-0.9008">
        <ele>100.6</ele>
        <time>2025-07-23T14:19:59Z</time>
      </trkpt>
      <trkpt lat="43.99177" lon="-0.90076">
        <ele>100.4</ele>
        <time>2025-07-23T14:20:01Z</time>
      </trkpt>
      <trkpt lat="43.99229" lon="-0.90059">
        <ele>99.8</ele>
        <time>2025-07-23T14:20:08Z</time>
      </trkpt>
      <trkpt lat="43.99252" lon="-0.90052">
        <ele>99.6</ele>
        <time>2025-07-23T14:20:11Z</time>
      </trkpt>
      <trkpt lat="43.99305" lon="-0.90033">
        <ele>99.4</ele>
        <time>2025-07-23T14:20:18Z</time>
      </trkpt>
      <trkpt lat="43.99313" lon="-0.90031">
        <ele>99.4</ele>
        <time>2025-07-23T14:20:19Z</time>
      </trkpt>
      <trkpt lat="43.99369" lon="-0.90014">
        <ele>98.6</ele>
        <time>2025-07-23T14:20:26Z</time>
      </trkpt>
      <trkpt lat="43.99385" lon="-0.90009">
        <ele>98.2</ele>
        <time>2025-07-23T14:20:28Z</time>
      </trkpt>
      <trkpt lat="43.99442" lon="-0.89991">
        <ele>97.6</ele>
        <time>2025-07-23T14:20:35Z</time>
      </trkpt>
      <trkpt lat="43.99458" lon="-0.89986">
        <ele>97.2</ele>
        <time>2025-07-23T14:20:37Z</time>
      </trkpt>
      <trkpt lat="43.99513" lon="-0.89969">
        <ele>96.2</ele>
        <time>2025-07-23T14:20:44Z</time>
      </trkpt>
      <trkpt lat="43.99521" lon="-0.89967">
        <ele>96</ele>
        <time>2025-07-23T14:20:45Z</time>
      </trkpt>
      <trkpt lat="43.99537" lon="-0.89962">
        <ele>96</ele>
        <time>2025-07-23T14:20:47Z</time>
      </trkpt>
      <trkpt lat="43.99592" lon="-0.89952">
        <ele>95.4</ele>
        <time>2025-07-23T14:20:54Z</time>
      </trkpt>
      <trkpt lat="43.99599" lon="-0.89951">
        <ele>95.2</ele>
        <time>2025-07-23T14:20:55Z</time>
      </trkpt>
      <trkpt lat="43.99615" lon="-0.89949">
        <ele>95</ele>
        <time>2025-07-23T14:20:57Z</time>
      </trkpt>
      <trkpt lat="43.99673" lon="-0.8994">
        <ele>94</ele>
        <time>2025-07-23T14:21:04Z</time>
      </trkpt>
      <trkpt lat="43.99688" lon="-0.89936">
        <ele>93.8</ele>
        <time>2025-07-23T14:21:06Z</time>
      </trkpt>
      <trkpt lat="43.99742" lon="-0.89918">
        <ele>93.4</ele>
        <time>2025-07-23T14:21:13Z</time>
      </trkpt>
      <trkpt lat="43.99761" lon="-0.89911">
        <ele>93.2</ele>
        <time>2025-07-23T14:21:15Z</time>
      </trkpt>
      <trkpt lat="43.99784" lon="-0.89902">
        <ele>93</ele>
        <time>2025-07-23T14:21:18Z</time>
      </trkpt>
      <trkpt lat="43.99824" lon="-0.89886">
        <ele>92.6</ele>
        <time>2025-07-23T14:21:23Z</time>
      </trkpt>
      <trkpt lat="43.9987" lon="-0.89866">
        <ele>92</ele>
        <time>2025-07-23T14:21:29Z</time>
      </trkpt>
      <trkpt lat="43.99885" lon="-0.89858">
        <ele>92</ele>
        <time>2025-07-23T14:21:31Z</time>
      </trkpt>
      <trkpt lat="43.99939" lon="-0.89832">
        <ele>91.4</ele>
        <time>2025-07-23T14:21:38Z</time>
      </trkpt>
      <trkpt lat="43.99961" lon="-0.89822">
        <ele>91.2</ele>
        <time>2025-07-23T14:21:41Z</time>
      </trkpt>
      <trkpt lat="43.99969" lon="-0.89817">
        <ele>91</ele>
        <time>2025-07-23T14:21:42Z</time>
      </trkpt>
      <trkpt lat="44.00026" lon="-0.89787">
        <ele>90.2</ele>
        <time>2025-07-23T14:21:49Z</time>
      </trkpt>
      <trkpt lat="44.00033" lon="-0.89784">
        <ele>90</ele>
        <time>2025-07-23T14:21:50Z</time>
      </trkpt>
      <trkpt lat="44.00042" lon="-0.8978">
        <ele>89.8</ele>
        <time>2025-07-23T14:21:51Z</time>
      </trkpt>
      <trkpt lat="44.00077" lon="-0.8977">
        <ele>89.6</ele>
        <time>2025-07-23T14:21:55Z</time>
      </trkpt>
      <trkpt lat="44.0011" lon="-0.89761">
        <ele>88.8</ele>
        <time>2025-07-23T14:21:59Z</time>
      </trkpt>
      <trkpt lat="44.00125" lon="-0.89756">
        <ele>88.6</ele>
        <time>2025-07-23T14:22:01Z</time>
      </trkpt>
      <trkpt lat="44.00161" lon="-0.89742">
        <ele>88.6</ele>
        <time>2025-07-23T14:22:06Z</time>
      </trkpt>
      <trkpt lat="44.00197" lon="-0.89712">
        <ele>88.8</ele>
        <time>2025-07-23T14:22:12Z</time>
      </trkpt>
      <trkpt lat="44.00234" lon="-0.89669">
        <ele>89.4</ele>
        <time>2025-07-23T14:22:19Z</time>
      </trkpt>
      <trkpt lat="44.0026" lon="-0.89632">
        <ele>89.4</ele>
        <time>2025-07-23T14:22:24Z</time>
      </trkpt>
      <trkpt lat="44.00299" lon="-0.89582">
        <ele>89.2</ele>
        <time>2025-07-23T14:22:31Z</time>
      </trkpt>
      <trkpt lat="44.00342" lon="-0.89527">
        <ele>88.6</ele>
        <time>2025-07-23T14:22:39Z</time>
      </trkpt>
      <trkpt lat="44.00383" lon="-0.89469">
        <ele>88.2</ele>
        <time>2025-07-23T14:22:47Z</time>
      </trkpt>
      <trkpt lat="44.00413" lon="-0.89435">
        <ele>88</ele>
        <time>2025-07-23T14:22:52Z</time>
      </trkpt>
      <trkpt lat="44.00454" lon="-0.89383">
        <ele>88</ele>
        <time>2025-07-23T14:22:59Z</time>
      </trkpt>
      <trkpt lat="44.00464" lon="-0.89372">
        <ele>88</ele>
        <time>2025-07-23T14:23:01Z</time>
      </trkpt>
      <trkpt lat="44.00491" lon="-0.89339">
        <ele>88.2</ele>
        <time>2025-07-23T14:23:06Z</time>
      </trkpt>
      <trkpt lat="44.00497" lon="-0.89333">
        <ele>88.2</ele>
        <time>2025-07-23T14:23:07Z</time>
      </trkpt>
      <trkpt lat="44.00523" lon="-0.89316">
        <ele>88.6</ele>
        <time>2025-07-23T14:23:11Z</time>
      </trkpt>
      <trkpt lat="44.00559" lon="-0.89301">
        <ele>88.8</ele>
        <time>2025-07-23T14:23:16Z</time>
      </trkpt>
      <trkpt lat="44.00609" lon="-0.89297">
        <ele>89.4</ele>
        <time>2025-07-23T14:23:23Z</time>
      </trkpt>
      <trkpt lat="44.00622" lon="-0.89296">
        <ele>89.6</ele>
        <time>2025-07-23T14:23:25Z</time>
      </trkpt>
      <trkpt lat="44.00642" lon="-0.8929">
        <ele>89.6</ele>
        <time>2025-07-23T14:23:28Z</time>
      </trkpt>
      <trkpt lat="44.00654" lon="-0.89281">
        <ele>89.6</ele>
        <time>2025-07-23T14:23:30Z</time>
      </trkpt>
      <trkpt lat="44.00659" lon="-0.89274">
        <ele>89.6</ele>
        <time>2025-07-23T14:23:31Z</time>
      </trkpt>
      <trkpt lat="44.00663" lon="-0.89266">
        <ele>89.6</ele>
        <time>2025-07-23T14:23:32Z</time>
      </trkpt>
      <trkpt lat="44.00668" lon="-0.89247">
        <ele>89.6</ele>
        <time>2025-07-23T14:23:34Z</time>
      </trkpt>
      <trkpt lat="44.00671" lon="-0.89227">
        <ele>89.4</ele>
        <time>2025-07-23T14:23:36Z</time>
      </trkpt>
      <trkpt lat="44.0068" lon="-0.8921">
        <ele>89.2</ele>
        <time>2025-07-23T14:23:38Z</time>
      </trkpt>
      <trkpt lat="44.00693" lon="-0.89202">
        <ele>89</ele>
        <time>2025-07-23T14:23:40Z</time>
      </trkpt>
      <trkpt lat="44.007" lon="-0.89201">
        <ele>88.8</ele>
        <time>2025-07-23T14:23:41Z</time>
      </trkpt>
      <trkpt lat="44.00708" lon="-0.89202">
        <ele>88.8</ele>
        <time>2025-07-23T14:23:42Z</time>
      </trkpt>
      <trkpt lat="44.00724" lon="-0.89208">
        <ele>88.6</ele>
        <time>2025-07-23T14:23:44Z</time>
      </trkpt>
      <trkpt lat="44.00757" lon="-0.8922">
        <ele>87.4</ele>
        <time>2025-07-23T14:23:48Z</time>
      </trkpt>
      <trkpt lat="44.00783" lon="-0.89227">
        <ele>86.6</ele>
        <time>2025-07-23T14:23:51Z</time>
      </trkpt>
      <trkpt lat="44.00797" lon="-0.89229">
        <ele>86.6</ele>
        <time>2025-07-23T14:23:53Z</time>
      </trkpt>
      <trkpt lat="44.00819" lon="-0.8923">
        <ele>86.2</ele>
        <time>2025-07-23T14:23:56Z</time>
      </trkpt>
      <trkpt lat="44.00854" lon="-0.89226">
        <ele>87.2</ele>
        <time>2025-07-23T14:24:02Z</time>
      </trkpt>
      <trkpt lat="44.00864" lon="-0.89225">
        <ele>87.8</ele>
        <time>2025-07-23T14:24:04Z</time>
      </trkpt>
      <trkpt lat="44.00869" lon="-0.89225">
        <ele>88</ele>
        <time>2025-07-23T14:24:05Z</time>
      </trkpt>
      <trkpt lat="44.00874" lon="-0.89224">
        <ele>88.4</ele>
        <time>2025-07-23T14:24:06Z</time>
      </trkpt>
      <trkpt lat="44.00889" lon="-0.89222">
        <ele>89.2</ele>
        <time>2025-07-23T14:24:09Z</time>
      </trkpt>
      <trkpt lat="44.00904" lon="-0.8922">
        <ele>90.4</ele>
        <time>2025-07-23T14:24:12Z</time>
      </trkpt>
      <trkpt lat="44.00909" lon="-0.8922">
        <ele>90.6</ele>
        <time>2025-07-23T14:24:13Z</time>
      </trkpt>
      <trkpt lat="44.00931" lon="-0.89217">
        <ele>91.2</ele>
        <time>2025-07-23T14:24:17Z</time>
      </trkpt>
      <trkpt lat="44.00947" lon="-0.89211">
        <ele>91.4</ele>
        <time>2025-07-23T14:24:20Z</time>
      </trkpt>
      <trkpt lat="44.00953" lon="-0.8921">
        <ele>91.6</ele>
        <time>2025-07-23T14:24:21Z</time>
      </trkpt>
      <trkpt lat="44.00959" lon="-0.8921">
        <ele>91.6</ele>
        <time>2025-07-23T14:24:22Z</time>
      </trkpt>
      <trkpt lat="44.00976" lon="-0.89211">
        <ele>91.6</ele>
        <time>2025-07-23T14:24:25Z</time>
      </trkpt>
      <trkpt lat="44.01029" lon="-0.89209">
        <ele>92.2</ele>
        <time>2025-07-23T14:24:34Z</time>
      </trkpt>
      <trkpt lat="44.01078" lon="-0.89214">
        <ele>92.2</ele>
        <time>2025-07-23T14:24:42Z</time>
      </trkpt>
      <trkpt lat="44.01135" lon="-0.89229">
        <ele>92.2</ele>
        <time>2025-07-23T14:24:51Z</time>
      </trkpt>
      <trkpt lat="44.01142" lon="-0.89231">
        <ele>92.2</ele>
        <time>2025-07-23T14:24:52Z</time>
      </trkpt>
      <trkpt lat="44.01199" lon="-0.89249">
        <ele>91.8</ele>
        <time>2025-07-23T14:25:01Z</time>
      </trkpt>
      <trkpt lat="44.0121" lon="-0.89252">
        <ele>91.8</ele>
        <time>2025-07-23T14:25:03Z</time>
      </trkpt>
      <trkpt lat="44.01223" lon="-0.89258">
        <ele>91.8</ele>
        <time>2025-07-23T14:25:05Z</time>
      </trkpt>
      <trkpt lat="44.01241" lon="-0.89264">
        <ele>91.8</ele>
        <time>2025-07-23T14:25:08Z</time>
      </trkpt>
      <trkpt lat="44.01298" lon="-0.89283">
        <ele>92</ele>
        <time>2025-07-23T14:25:17Z</time>
      </trkpt>
      <trkpt lat="44.01304" lon="-0.89285">
        <ele>92</ele>
        <time>2025-07-23T14:25:18Z</time>
      </trkpt>
      <trkpt lat="44.01359" lon="-0.89301">
        <ele>92.2</ele>
        <time>2025-07-23T14:25:27Z</time>
      </trkpt>
      <trkpt lat="44.01365" lon="-0.89303">
        <ele>92.2</ele>
        <time>2025-07-23T14:25:28Z</time>
      </trkpt>
      <trkpt lat="44.0142" lon="-0.89322">
        <ele>92</ele>
        <time>2025-07-23T14:25:37Z</time>
      </trkpt>
      <trkpt lat="44.01432" lon="-0.89326">
        <ele>92</ele>
        <time>2025-07-23T14:25:39Z</time>
      </trkpt>
      <trkpt lat="44.01488" lon="-0.89344">
        <ele>92</ele>
        <time>2025-07-23T14:25:48Z</time>
      </trkpt>
      <trkpt lat="44.01513" lon="-0.89352">
        <ele>92</ele>
        <time>2025-07-23T14:25:52Z</time>
      </trkpt>
      <trkpt lat="44.01569" lon="-0.89371">
        <ele>92.2</ele>
        <time>2025-07-23T14:26:01Z</time>
      </trkpt>
      <trkpt lat="44.01611" lon="-0.89385">
        <ele>92.2</ele>
        <time>2025-07-23T14:26:08Z</time>
      </trkpt>
      <trkpt lat="44.01617" lon="-0.89384">
        <ele>92.2</ele>
        <time>2025-07-23T14:26:09Z</time>
      </trkpt>
      <trkpt lat="44.01622" lon="-0.89381">
        <ele>92.2</ele>
        <time>2025-07-23T14:26:10Z</time>
      </trkpt>
      <trkpt lat="44.01633" lon="-0.89374">
        <ele>92.4</ele>
        <time>2025-07-23T14:26:12Z</time>
      </trkpt>
      <trkpt lat="44.01639" lon="-0.89372">
        <ele>92.4</ele>
        <time>2025-07-23T14:26:13Z</time>
      </trkpt>
      <trkpt lat="44.01645" lon="-0.89371">
        <ele>92.4</ele>
        <time>2025-07-23T14:26:14Z</time>
      </trkpt>
      <trkpt lat="44.01657" lon="-0.89375">
        <ele>92.4</ele>
        <time>2025-07-23T14:26:16Z</time>
      </trkpt>
      <trkpt lat="44.01668" lon="-0.89385">
        <ele>92.8</ele>
        <time>2025-07-23T14:26:18Z</time>
      </trkpt>
      <trkpt lat="44.01677" lon="-0.89396">
        <ele>92.8</ele>
        <time>2025-07-23T14:26:20Z</time>
      </trkpt>
      <trkpt lat="44.01682" lon="-0.89401">
        <ele>92.8</ele>
        <time>2025-07-23T14:26:21Z</time>
      </trkpt>
      <trkpt lat="44.017" lon="-0.89412">
        <ele>92.4</ele>
        <time>2025-07-23T14:26:24Z</time>
      </trkpt>
      <trkpt lat="44.01754" lon="-0.89435">
        <ele>92.6</ele>
        <time>2025-07-23T14:26:33Z</time>
      </trkpt>
      <trkpt lat="44.01807" lon="-0.89452">
        <ele>92.8</ele>
        <time>2025-07-23T14:26:42Z</time>
      </trkpt>
      <trkpt lat="44.01824" lon="-0.89455">
        <ele>93</ele>
        <time>2025-07-23T14:26:45Z</time>
      </trkpt>
      <trkpt lat="44.0184" lon="-0.89455">
        <ele>93</ele>
        <time>2025-07-23T14:26:48Z</time>
      </trkpt>
      <trkpt lat="44.01852" lon="-0.89453">
        <ele>93</ele>
        <time>2025-07-23T14:26:50Z</time>
      </trkpt>
      <trkpt lat="44.01892" lon="-0.89437">
        <ele>93.6</ele>
        <time>2025-07-23T14:26:57Z</time>
      </trkpt>
      <trkpt lat="44.01935" lon="-0.89418">
        <ele>93.8</ele>
        <time>2025-07-23T14:27:04Z</time>
      </trkpt>
      <trkpt lat="44.01947" lon="-0.89412">
        <ele>93.8</ele>
        <time>2025-07-23T14:27:06Z</time>
      </trkpt>
      <trkpt lat="44.01987" lon="-0.89391">
        <ele>93.8</ele>
        <time>2025-07-23T14:27:12Z</time>
      </trkpt>
      <trkpt lat="44.02029" lon="-0.89373">
        <ele>93.4</ele>
        <time>2025-07-23T14:27:18Z</time>
      </trkpt>
      <trkpt lat="44.02049" lon="-0.89361">
        <ele>93.2</ele>
        <time>2025-07-23T14:27:21Z</time>
      </trkpt>
      <trkpt lat="44.02062" lon="-0.8935">
        <ele>93.2</ele>
        <time>2025-07-23T14:27:23Z</time>
      </trkpt>
      <trkpt lat="44.02068" lon="-0.89346">
        <ele>93</ele>
        <time>2025-07-23T14:27:24Z</time>
      </trkpt>
      <trkpt lat="44.0209" lon="-0.89341">
        <ele>92.8</ele>
        <time>2025-07-23T14:27:27Z</time>
      </trkpt>
      <trkpt lat="44.02098" lon="-0.8934">
        <ele>92.8</ele>
        <time>2025-07-23T14:27:28Z</time>
      </trkpt>
      <trkpt lat="44.0212" lon="-0.89332">
        <ele>92.6</ele>
        <time>2025-07-23T14:27:31Z</time>
      </trkpt>
      <trkpt lat="44.02134" lon="-0.89324">
        <ele>92.4</ele>
        <time>2025-07-23T14:27:33Z</time>
      </trkpt>
      <trkpt lat="44.02171" lon="-0.893">
        <ele>92.4</ele>
        <time>2025-07-23T14:27:39Z</time>
      </trkpt>
      <trkpt lat="44.02202" lon="-0.89274">
        <ele>93</ele>
        <time>2025-07-23T14:27:45Z</time>
      </trkpt>
      <trkpt lat="44.02242" lon="-0.89243">
        <ele>94</ele>
        <time>2025-07-23T14:27:53Z</time>
      </trkpt>
      <trkpt lat="44.02247" lon="-0.8924">
        <ele>94</ele>
        <time>2025-07-23T14:27:54Z</time>
      </trkpt>
      <trkpt lat="44.02298" lon="-0.89204">
        <ele>94.4</ele>
        <time>2025-07-23T14:28:04Z</time>
      </trkpt>
      <trkpt lat="44.02343" lon="-0.89173">
        <ele>95</ele>
        <time>2025-07-23T14:28:12Z</time>
      </trkpt>
      <trkpt lat="44.02353" lon="-0.89166">
        <ele>95</ele>
        <time>2025-07-23T14:28:14Z</time>
      </trkpt>
      <trkpt lat="44.02406" lon="-0.89129">
        <ele>95</ele>
        <time>2025-07-23T14:28:23Z</time>
      </trkpt>
      <trkpt lat="44.0246" lon="-0.89101">
        <ele>94.4</ele>
        <time>2025-07-23T14:28:31Z</time>
      </trkpt>
      <trkpt lat="44.02468" lon="-0.891">
        <ele>94.2</ele>
        <time>2025-07-23T14:28:32Z</time>
      </trkpt>
      <trkpt lat="44.02476" lon="-0.89099">
        <ele>93.6</ele>
        <time>2025-07-23T14:28:33Z</time>
      </trkpt>
      <trkpt lat="44.02501" lon="-0.89098">
        <ele>92.6</ele>
        <time>2025-07-23T14:28:36Z</time>
      </trkpt>
      <trkpt lat="44.02534" lon="-0.89099">
        <ele>91.2</ele>
        <time>2025-07-23T14:28:40Z</time>
      </trkpt>
      <trkpt lat="44.02558" lon="-0.89099">
        <ele>90.6</ele>
        <time>2025-07-23T14:28:43Z</time>
      </trkpt>
      <trkpt lat="44.0259" lon="-0.89099">
        <ele>90.4</ele>
        <time>2025-07-23T14:28:47Z</time>
      </trkpt>
      <trkpt lat="44.02628" lon="-0.89095">
        <ele>89.8</ele>
        <time>2025-07-23T14:28:52Z</time>
      </trkpt>
      <trkpt lat="44.02659" lon="-0.89083">
        <ele>90</ele>
        <time>2025-07-23T14:28:57Z</time>
      </trkpt>
      <trkpt lat="44.02684" lon="-0.89068">
        <ele>90.4</ele>
        <time>2025-07-23T14:29:02Z</time>
      </trkpt>
      <trkpt lat="44.02688" lon="-0.89064">
        <ele>90.8</ele>
        <time>2025-07-23T14:29:03Z</time>
      </trkpt>
      <trkpt lat="44.02704" lon="-0.89048">
        <ele>91.4</ele>
        <time>2025-07-23T14:29:07Z</time>
      </trkpt>
      <trkpt lat="44.02717" lon="-0.89034">
        <ele>92.2</ele>
        <time>2025-07-23T14:29:10Z</time>
      </trkpt>
      <trkpt lat="44.02721" lon="-0.8903">
        <ele>92.4</ele>
        <time>2025-07-23T14:29:11Z</time>
      </trkpt>
      <trkpt lat="44.0275" lon="-0.89002">
        <ele>93.6</ele>
        <time>2025-07-23T14:29:18Z</time>
      </trkpt>
      <trkpt lat="44.02754" lon="-0.88998">
        <ele>93.8</ele>
        <time>2025-07-23T14:29:19Z</time>
      </trkpt>
      <trkpt lat="44.02777" lon="-0.8898">
        <ele>94.8</ele>
        <time>2025-07-23T14:29:24Z</time>
      </trkpt>
      <trkpt lat="44.02796" lon="-0.88967">
        <ele>95.4</ele>
        <time>2025-07-23T14:29:28Z</time>
      </trkpt>
      <trkpt lat="44.02816" lon="-0.88956">
        <ele>95.8</ele>
        <time>2025-07-23T14:29:32Z</time>
      </trkpt>
      <trkpt lat="44.02848" lon="-0.88941">
        <ele>96.4</ele>
        <time>2025-07-23T14:29:38Z</time>
      </trkpt>
      <trkpt lat="44.02883" lon="-0.88924">
        <ele>96.8</ele>
        <time>2025-07-23T14:29:45Z</time>
      </trkpt>
      <trkpt lat="44.02905" lon="-0.88914">
        <ele>97</ele>
        <time>2025-07-23T14:29:49Z</time>
      </trkpt>
      <trkpt lat="44.02952" lon="-0.88894">
        <ele>97</ele>
        <time>2025-07-23T14:29:57Z</time>
      </trkpt>
      <trkpt lat="44.02995" lon="-0.88874">
        <ele>96.8</ele>
        <time>2025-07-23T14:30:04Z</time>
      </trkpt>
      <trkpt lat="44.03043" lon="-0.88852">
        <ele>96.8</ele>
        <time>2025-07-23T14:30:12Z</time>
      </trkpt>
      <trkpt lat="44.03072" lon="-0.88839">
        <ele>98</ele>
        <time>2025-07-23T14:30:17Z</time>
      </trkpt>
      <trkpt lat="44.0309" lon="-0.88832">
        <ele>98.4</ele>
        <time>2025-07-23T14:30:20Z</time>
      </trkpt>
      <trkpt lat="44.03143" lon="-0.88806">
        <ele>98.4</ele>
        <time>2025-07-23T14:30:29Z</time>
      </trkpt>
      <trkpt lat="44.03149" lon="-0.88803">
        <ele>98.4</ele>
        <time>2025-07-23T14:30:30Z</time>
      </trkpt>
      <trkpt lat="44.03197" lon="-0.88781">
        <ele>98.4</ele>
        <time>2025-07-23T14:30:38Z</time>
      </trkpt>
      <trkpt lat="44.03255" lon="-0.88757">
        <ele>98.4</ele>
        <time>2025-07-23T14:30:47Z</time>
      </trkpt>
      <trkpt lat="44.03268" lon="-0.88751">
        <ele>98.8</ele>
        <time>2025-07-23T14:30:49Z</time>
      </trkpt>
      <trkpt lat="44.03314" lon="-0.88731">
        <ele>99.2</ele>
        <time>2025-07-23T14:30:56Z</time>
      </trkpt>
      <trkpt lat="44.03335" lon="-0.88723">
        <ele>99.2</ele>
        <time>2025-07-23T14:30:59Z</time>
      </trkpt>
      <trkpt lat="44.03386" lon="-0.88701">
        <ele>99</ele>
        <time>2025-07-23T14:31:07Z</time>
      </trkpt>
      <trkpt lat="44.03404" lon="-0.88693">
        <ele>98.8</ele>
        <time>2025-07-23T14:31:10Z</time>
      </trkpt>
      <trkpt lat="44.03457" lon="-0.8867">
        <ele>98.6</ele>
        <time>2025-07-23T14:31:18Z</time>
      </trkpt>
      <trkpt lat="44.03463" lon="-0.88667">
        <ele>98.6</ele>
        <time>2025-07-23T14:31:19Z</time>
      </trkpt>
      <trkpt lat="44.03515" lon="-0.88644">
        <ele>99</ele>
        <time>2025-07-23T14:31:27Z</time>
      </trkpt>
      <trkpt lat="44.03548" lon="-0.8863">
        <ele>99</ele>
        <time>2025-07-23T14:31:32Z</time>
      </trkpt>
      <trkpt lat="44.03598" lon="-0.88608">
        <ele>99.2</ele>
        <time>2025-07-23T14:31:40Z</time>
      </trkpt>
      <trkpt lat="44.03643" lon="-0.88589">
        <ele>99.2</ele>
        <time>2025-07-23T14:31:47Z</time>
      </trkpt>
      <trkpt lat="44.03699" lon="-0.88564">
        <ele>99.2</ele>
        <time>2025-07-23T14:31:56Z</time>
      </trkpt>
      <trkpt lat="44.0373" lon="-0.8855">
        <ele>99.4</ele>
        <time>2025-07-23T14:32:01Z</time>
      </trkpt>
      <trkpt lat="44.0378" lon="-0.88529">
        <ele>99.6</ele>
        <time>2025-07-23T14:32:09Z</time>
      </trkpt>
      <trkpt lat="44.03786" lon="-0.88526">
        <ele>99.8</ele>
        <time>2025-07-23T14:32:10Z</time>
      </trkpt>
      <trkpt lat="44.03844" lon="-0.88507">
        <ele>99.4</ele>
        <time>2025-07-23T14:32:19Z</time>
      </trkpt>
      <trkpt lat="44.03851" lon="-0.88505">
        <ele>99.4</ele>
        <time>2025-07-23T14:32:20Z</time>
      </trkpt>
      <trkpt lat="44.03911" lon="-0.88495">
        <ele>99.6</ele>
        <time>2025-07-23T14:32:29Z</time>
      </trkpt>
      <trkpt lat="44.03956" lon="-0.88494">
        <ele>99.8</ele>
        <time>2025-07-23T14:32:36Z</time>
      </trkpt>
      <trkpt lat="44.03975" lon="-0.88494">
        <ele>100.2</ele>
        <time>2025-07-23T14:32:39Z</time>
      </trkpt>
      <trkpt lat="44.03994" lon="-0.88494">
        <ele>100.4</ele>
        <time>2025-07-23T14:32:42Z</time>
      </trkpt>
      <trkpt lat="44.04019" lon="-0.88495">
        <ele>101</ele>
        <time>2025-07-23T14:32:46Z</time>
      </trkpt>
      <trkpt lat="44.04038" lon="-0.88495">
        <ele>101.2</ele>
        <time>2025-07-23T14:32:49Z</time>
      </trkpt>
      <trkpt lat="44.04076" lon="-0.88495">
        <ele>101.4</ele>
        <time>2025-07-23T14:32:55Z</time>
      </trkpt>
      <trkpt lat="44.04135" lon="-0.88499">
        <ele>101.2</ele>
        <time>2025-07-23T14:33:04Z</time>
      </trkpt>
      <trkpt lat="44.04148" lon="-0.88502">
        <ele>101.2</ele>
        <time>2025-07-23T14:33:06Z</time>
      </trkpt>
      <trkpt lat="44.04194" lon="-0.88517">
        <ele>101</ele>
        <time>2025-07-23T14:33:13Z</time>
      </trkpt>
      <trkpt lat="44.04248" lon="-0.88547">
        <ele>101.4</ele>
        <time>2025-07-23T14:33:22Z</time>
      </trkpt>
      <trkpt lat="44.04304" lon="-0.88581">
        <ele>101.2</ele>
        <time>2025-07-23T14:33:31Z</time>
      </trkpt>
      <trkpt lat="44.0431" lon="-0.88585">
        <ele>101.2</ele>
        <time>2025-07-23T14:33:32Z</time>
      </trkpt>
      <trkpt lat="44.0436" lon="-0.88616">
        <ele>101.2</ele>
        <time>2025-07-23T14:33:40Z</time>
      </trkpt>
      <trkpt lat="44.04391" lon="-0.88636">
        <ele>101.2</ele>
        <time>2025-07-23T14:33:45Z</time>
      </trkpt>
      <trkpt lat="44.04423" lon="-0.88656">
        <ele>101</ele>
        <time>2025-07-23T14:33:50Z</time>
      </trkpt>
      <trkpt lat="44.04473" lon="-0.88687">
        <ele>100.6</ele>
        <time>2025-07-23T14:33:58Z</time>
      </trkpt>
      <trkpt lat="44.04479" lon="-0.88691">
        <ele>100.6</ele>
        <time>2025-07-23T14:33:59Z</time>
      </trkpt>
      <trkpt lat="44.04533" lon="-0.88724">
        <ele>100.8</ele>
        <time>2025-07-23T14:34:08Z</time>
      </trkpt>
      <trkpt lat="44.04539" lon="-0.88728">
        <ele>100.8</ele>
        <time>2025-07-23T14:34:09Z</time>
      </trkpt>
      <trkpt lat="44.04591" lon="-0.88759">
        <ele>101.4</ele>
        <time>2025-07-23T14:34:18Z</time>
      </trkpt>
      <trkpt lat="44.04643" lon="-0.88792">
        <ele>101.6</ele>
        <time>2025-07-23T14:34:27Z</time>
      </trkpt>
      <trkpt lat="44.0466" lon="-0.88802">
        <ele>101.8</ele>
        <time>2025-07-23T14:34:30Z</time>
      </trkpt>
      <trkpt lat="44.04711" lon="-0.88834">
        <ele>102</ele>
        <time>2025-07-23T14:34:39Z</time>
      </trkpt>
      <trkpt lat="44.04717" lon="-0.88838">
        <ele>102</ele>
        <time>2025-07-23T14:34:40Z</time>
      </trkpt>
      <trkpt lat="44.04765" lon="-0.88869">
        <ele>102.4</ele>
        <time>2025-07-23T14:34:49Z</time>
      </trkpt>
      <trkpt lat="44.04816" lon="-0.889">
        <ele>102.8</ele>
        <time>2025-07-23T14:34:58Z</time>
      </trkpt>
      <trkpt lat="44.04821" lon="-0.88903">
        <ele>102.8</ele>
        <time>2025-07-23T14:34:59Z</time>
      </trkpt>
      <trkpt lat="44.04872" lon="-0.88936">
        <ele>102.8</ele>
        <time>2025-07-23T14:35:08Z</time>
      </trkpt>
      <trkpt lat="44.04899" lon="-0.88954">
        <ele>103</ele>
        <time>2025-07-23T14:35:13Z</time>
      </trkpt>
      <trkpt lat="44.0495" lon="-0.88985">
        <ele>103.2</ele>
        <time>2025-07-23T14:35:22Z</time>
      </trkpt>
      <trkpt lat="44.05005" lon="-0.89018">
        <ele>103.4</ele>
        <time>2025-07-23T14:35:32Z</time>
      </trkpt>
      <trkpt lat="44.05047" lon="-0.89045">
        <ele>103.2</ele>
        <time>2025-07-23T14:35:40Z</time>
      </trkpt>
      <trkpt lat="44.05094" lon="-0.89074">
        <ele>103.2</ele>
        <time>2025-07-23T14:35:49Z</time>
      </trkpt>
      <trkpt lat="44.05132" lon="-0.89087">
        <ele>103.4</ele>
        <time>2025-07-23T14:35:56Z</time>
      </trkpt>
      <trkpt lat="44.05138" lon="-0.89087">
        <ele>103.4</ele>
        <time>2025-07-23T14:35:57Z</time>
      </trkpt>
      <trkpt lat="44.05144" lon="-0.89085">
        <ele>103.6</ele>
        <time>2025-07-23T14:35:58Z</time>
      </trkpt>
      <trkpt lat="44.05167" lon="-0.89077">
        <ele>103.4</ele>
        <time>2025-07-23T14:36:02Z</time>
      </trkpt>
      <trkpt lat="44.05178" lon="-0.8907">
        <ele>103.6</ele>
        <time>2025-07-23T14:36:04Z</time>
      </trkpt>
      <trkpt lat="44.05188" lon="-0.89058">
        <ele>103.6</ele>
        <time>2025-07-23T14:36:06Z</time>
      </trkpt>
      <trkpt lat="44.05212" lon="-0.89017">
        <ele>103.8</ele>
        <time>2025-07-23T14:36:12Z</time>
      </trkpt>
      <trkpt lat="44.05247" lon="-0.88949">
        <ele>104</ele>
        <time>2025-07-23T14:36:21Z</time>
      </trkpt>
      <trkpt lat="44.05278" lon="-0.88884">
        <ele>103.8</ele>
        <time>2025-07-23T14:36:29Z</time>
      </trkpt>
      <trkpt lat="44.05311" lon="-0.88821">
        <ele>104.6</ele>
        <time>2025-07-23T14:36:37Z</time>
      </trkpt>
      <trkpt lat="44.05338" lon="-0.88765">
        <ele>105</ele>
        <time>2025-07-23T14:36:44Z</time>
      </trkpt>
      <trkpt lat="44.0537" lon="-0.88702">
        <ele>105.2</ele>
        <time>2025-07-23T14:36:52Z</time>
      </trkpt>
      <trkpt lat="44.05373" lon="-0.88695">
        <ele>105.2</ele>
        <time>2025-07-23T14:36:53Z</time>
      </trkpt>
      <trkpt lat="44.05405" lon="-0.8863">
        <ele>105.4</ele>
        <time>2025-07-23T14:37:01Z</time>
      </trkpt>
      <trkpt lat="44.05417" lon="-0.88607">
        <ele>105.4</ele>
        <time>2025-07-23T14:37:04Z</time>
      </trkpt>
      <trkpt lat="44.0545" lon="-0.88541">
        <ele>105.4</ele>
        <time>2025-07-23T14:37:12Z</time>
      </trkpt>
      <trkpt lat="44.05454" lon="-0.88533">
        <ele>105.2</ele>
        <time>2025-07-23T14:37:13Z</time>
      </trkpt>
      <trkpt lat="44.05487" lon="-0.88468">
        <ele>105.4</ele>
        <time>2025-07-23T14:37:21Z</time>
      </trkpt>
      <trkpt lat="44.05498" lon="-0.88444">
        <ele>105.4</ele>
        <time>2025-07-23T14:37:24Z</time>
      </trkpt>
      <trkpt lat="44.05519" lon="-0.88403">
        <ele>105.6</ele>
        <time>2025-07-23T14:37:29Z</time>
      </trkpt>
      <trkpt lat="44.05539" lon="-0.88365">
        <ele>105.6</ele>
        <time>2025-07-23T14:37:34Z</time>
      </trkpt>
      <trkpt lat="44.0557" lon="-0.88296">
        <ele>106.2</ele>
        <time>2025-07-23T14:37:43Z</time>
      </trkpt>
      <trkpt lat="44.05582" lon="-0.88263">
        <ele>106.4</ele>
        <time>2025-07-23T14:37:47Z</time>
      </trkpt>
      <trkpt lat="44.05601" lon="-0.88206">
        <ele>106.8</ele>
        <time>2025-07-23T14:37:54Z</time>
      </trkpt>
      <trkpt lat="44.05612" lon="-0.88173">
        <ele>107</ele>
        <time>2025-07-23T14:37:58Z</time>
      </trkpt>
      <trkpt lat="44.05635" lon="-0.88106">
        <ele>107.2</ele>
        <time>2025-07-23T14:38:06Z</time>
      </trkpt>
      <trkpt lat="44.05657" lon="-0.88038">
        <ele>107.4</ele>
        <time>2025-07-23T14:38:14Z</time>
      </trkpt>
      <trkpt lat="44.05666" lon="-0.88013">
        <ele>107.4</ele>
        <time>2025-07-23T14:38:17Z</time>
      </trkpt>
      <trkpt lat="44.05689" lon="-0.87944">
        <ele>107.2</ele>
        <time>2025-07-23T14:38:25Z</time>
      </trkpt>
      <trkpt lat="44.05691" lon="-0.87936">
        <ele>107.2</ele>
        <time>2025-07-23T14:38:26Z</time>
      </trkpt>
      <trkpt lat="44.05716" lon="-0.8786">
        <ele>106.8</ele>
        <time>2025-07-23T14:38:34Z</time>
      </trkpt>
      <trkpt lat="44.05724" lon="-0.87831">
        <ele>106.6</ele>
        <time>2025-07-23T14:38:37Z</time>
      </trkpt>
      <trkpt lat="44.05732" lon="-0.87792">
        <ele>107</ele>
        <time>2025-07-23T14:38:41Z</time>
      </trkpt>
      <trkpt lat="44.05742" lon="-0.87715">
        <ele>107.4</ele>
        <time>2025-07-23T14:38:49Z</time>
      </trkpt>
      <trkpt lat="44.05744" lon="-0.87704">
        <ele>107.4</ele>
        <time>2025-07-23T14:38:50Z</time>
      </trkpt>
      <trkpt lat="44.05751" lon="-0.87654">
        <ele>107.4</ele>
        <time>2025-07-23T14:38:55Z</time>
      </trkpt>
      <trkpt lat="44.0576" lon="-0.87583">
        <ele>107.2</ele>
        <time>2025-07-23T14:39:02Z</time>
      </trkpt>
      <trkpt lat="44.05772" lon="-0.87502">
        <ele>106.8</ele>
        <time>2025-07-23T14:39:10Z</time>
      </trkpt>
      <trkpt lat="44.05775" lon="-0.87482">
        <ele>106.8</ele>
        <time>2025-07-23T14:39:12Z</time>
      </trkpt>
      <trkpt lat="44.05778" lon="-0.87463">
        <ele>106.6</ele>
        <time>2025-07-23T14:39:14Z</time>
      </trkpt>
      <trkpt lat="44.05783" lon="-0.87432">
        <ele>106.6</ele>
        <time>2025-07-23T14:39:17Z</time>
      </trkpt>
      <trkpt lat="44.05789" lon="-0.87382">
        <ele>106.6</ele>
        <time>2025-07-23T14:39:22Z</time>
      </trkpt>
      <trkpt lat="44.05797" lon="-0.87324">
        <ele>106.6</ele>
        <time>2025-07-23T14:39:28Z</time>
      </trkpt>
      <trkpt lat="44.05807" lon="-0.87247">
        <ele>106.4</ele>
        <time>2025-07-23T14:39:36Z</time>
      </trkpt>
      <trkpt lat="44.05815" lon="-0.87196">
        <ele>106.4</ele>
        <time>2025-07-23T14:39:41Z</time>
      </trkpt>
      <trkpt lat="44.05819" lon="-0.87166">
        <ele>106.4</ele>
        <time>2025-07-23T14:39:44Z</time>
      </trkpt>
      <trkpt lat="44.05831" lon="-0.87088">
        <ele>106.6</ele>
        <time>2025-07-23T14:39:52Z</time>
      </trkpt>
      <trkpt lat="44.05833" lon="-0.87079">
        <ele>106.6</ele>
        <time>2025-07-23T14:39:53Z</time>
      </trkpt>
      <trkpt lat="44.05851" lon="-0.87015">
        <ele>107</ele>
        <time>2025-07-23T14:40:00Z</time>
      </trkpt>
      <trkpt lat="44.0588" lon="-0.86948">
        <ele>107</ele>
        <time>2025-07-23T14:40:08Z</time>
      </trkpt>
      <trkpt lat="44.05913" lon="-0.86895">
        <ele>107.2</ele>
        <time>2025-07-23T14:40:15Z</time>
      </trkpt>
      <trkpt lat="44.05918" lon="-0.86887">
        <ele>107.2</ele>
        <time>2025-07-23T14:40:16Z</time>
      </trkpt>
      <trkpt lat="44.05962" lon="-0.86838">
        <ele>107</ele>
        <time>2025-07-23T14:40:24Z</time>
      </trkpt>
      <trkpt lat="44.06003" lon="-0.86805">
        <ele>107</ele>
        <time>2025-07-23T14:40:31Z</time>
      </trkpt>
      <trkpt lat="44.06046" lon="-0.86778">
        <ele>107.2</ele>
        <time>2025-07-23T14:40:38Z</time>
      </trkpt>
      <trkpt lat="44.06097" lon="-0.86751">
        <ele>107</ele>
        <time>2025-07-23T14:40:46Z</time>
      </trkpt>
      <trkpt lat="44.06109" lon="-0.86744">
        <ele>107.2</ele>
        <time>2025-07-23T14:40:48Z</time>
      </trkpt>
      <trkpt lat="44.06152" lon="-0.86717">
        <ele>107.4</ele>
        <time>2025-07-23T14:40:55Z</time>
      </trkpt>
      <trkpt lat="44.06196" lon="-0.8668">
        <ele>107.4</ele>
        <time>2025-07-23T14:41:03Z</time>
      </trkpt>
      <trkpt lat="44.06236" lon="-0.86633">
        <ele>107.6</ele>
        <time>2025-07-23T14:41:11Z</time>
      </trkpt>
      <trkpt lat="44.0627" lon="-0.86577">
        <ele>107.6</ele>
        <time>2025-07-23T14:41:19Z</time>
      </trkpt>
      <trkpt lat="44.06298" lon="-0.86516">
        <ele>107.6</ele>
        <time>2025-07-23T14:41:27Z</time>
      </trkpt>
      <trkpt lat="44.06321" lon="-0.86447">
        <ele>107.6</ele>
        <time>2025-07-23T14:41:35Z</time>
      </trkpt>
      <trkpt lat="44.06339" lon="-0.86376">
        <ele>107.8</ele>
        <time>2025-07-23T14:41:43Z</time>
      </trkpt>
      <trkpt lat="44.06353" lon="-0.86322">
        <ele>107.8</ele>
        <time>2025-07-23T14:41:49Z</time>
      </trkpt>
      <trkpt lat="44.0637" lon="-0.86256">
        <ele>107.8</ele>
        <time>2025-07-23T14:41:56Z</time>
      </trkpt>
      <trkpt lat="44.0639" lon="-0.86178">
        <ele>108.2</ele>
        <time>2025-07-23T14:42:04Z</time>
      </trkpt>
      <trkpt lat="44.06393" lon="-0.86169">
        <ele>108.2</ele>
        <time>2025-07-23T14:42:05Z</time>
      </trkpt>
      <trkpt lat="44.06411" lon="-0.861">
        <ele>108.2</ele>
        <time>2025-07-23T14:42:12Z</time>
      </trkpt>
      <trkpt lat="44.06416" lon="-0.8608">
        <ele>108.4</ele>
        <time>2025-07-23T14:42:14Z</time>
      </trkpt>
      <trkpt lat="44.06434" lon="-0.86009">
        <ele>108.4</ele>
        <time>2025-07-23T14:42:21Z</time>
      </trkpt>
      <trkpt lat="44.06436" lon="-0.86001">
        <ele>108.4</ele>
        <time>2025-07-23T14:42:22Z</time>
      </trkpt>
      <trkpt lat="44.06456" lon="-0.85921">
        <ele>108.6</ele>
        <time>2025-07-23T14:42:30Z</time>
      </trkpt>
      <trkpt lat="44.06458" lon="-0.85913">
        <ele>108.6</ele>
        <time>2025-07-23T14:42:31Z</time>
      </trkpt>
      <trkpt lat="44.0648" lon="-0.85833">
        <ele>108.8</ele>
        <time>2025-07-23T14:42:39Z</time>
      </trkpt>
      <trkpt lat="44.06487" lon="-0.85806">
        <ele>108.8</ele>
        <time>2025-07-23T14:42:42Z</time>
      </trkpt>
      <trkpt lat="44.065" lon="-0.85756">
        <ele>109</ele>
        <time>2025-07-23T14:42:47Z</time>
      </trkpt>
      <trkpt lat="44.06519" lon="-0.8568">
        <ele>109.4</ele>
        <time>2025-07-23T14:42:56Z</time>
      </trkpt>
      <trkpt lat="44.06538" lon="-0.85608">
        <ele>109</ele>
        <time>2025-07-23T14:43:03Z</time>
      </trkpt>
      <trkpt lat="44.06541" lon="-0.85598">
        <ele>109</ele>
        <time>2025-07-23T14:43:04Z</time>
      </trkpt>
      <trkpt lat="44.06559" lon="-0.85527">
        <ele>109.2</ele>
        <time>2025-07-23T14:43:11Z</time>
      </trkpt>
      <trkpt lat="44.06565" lon="-0.85505">
        <ele>109.2</ele>
        <time>2025-07-23T14:43:13Z</time>
      </trkpt>
      <trkpt lat="44.06585" lon="-0.85424">
        <ele>109.2</ele>
        <time>2025-07-23T14:43:21Z</time>
      </trkpt>
      <trkpt lat="44.06596" lon="-0.85385">
        <ele>109.2</ele>
        <time>2025-07-23T14:43:25Z</time>
      </trkpt>
      <trkpt lat="44.06615" lon="-0.8531">
        <ele>109.6</ele>
        <time>2025-07-23T14:43:32Z</time>
      </trkpt>
      <trkpt lat="44.0662" lon="-0.85292">
        <ele>109.8</ele>
        <time>2025-07-23T14:43:34Z</time>
      </trkpt>
      <trkpt lat="44.06641" lon="-0.85212">
        <ele>109.8</ele>
        <time>2025-07-23T14:43:42Z</time>
      </trkpt>
      <trkpt lat="44.06646" lon="-0.85192">
        <ele>109.8</ele>
        <time>2025-07-23T14:43:44Z</time>
      </trkpt>
      <trkpt lat="44.06666" lon="-0.85113">
        <ele>109.6</ele>
        <time>2025-07-23T14:43:52Z</time>
      </trkpt>
      <trkpt lat="44.06677" lon="-0.85074">
        <ele>109.8</ele>
        <time>2025-07-23T14:43:56Z</time>
      </trkpt>
      <trkpt lat="44.06697" lon="-0.84996">
        <ele>109.8</ele>
        <time>2025-07-23T14:44:04Z</time>
      </trkpt>
      <trkpt lat="44.06702" lon="-0.84977">
        <ele>109.8</ele>
        <time>2025-07-23T14:44:06Z</time>
      </trkpt>
      <trkpt lat="44.06722" lon="-0.84899">
        <ele>109.8</ele>
        <time>2025-07-23T14:44:14Z</time>
      </trkpt>
      <trkpt lat="44.06725" lon="-0.84889">
        <ele>109.8</ele>
        <time>2025-07-23T14:44:15Z</time>
      </trkpt>
      <trkpt lat="44.06746" lon="-0.84809">
        <ele>110</ele>
        <time>2025-07-23T14:44:23Z</time>
      </trkpt>
      <trkpt lat="44.06751" lon="-0.8479">
        <ele>110</ele>
        <time>2025-07-23T14:44:25Z</time>
      </trkpt>
      <trkpt lat="44.0677" lon="-0.84714">
        <ele>109.8</ele>
        <time>2025-07-23T14:44:33Z</time>
      </trkpt>
      <trkpt lat="44.06778" lon="-0.84684">
        <ele>109.8</ele>
        <time>2025-07-23T14:44:36Z</time>
      </trkpt>
      <trkpt lat="44.06799" lon="-0.84605">
        <ele>109.8</ele>
        <time>2025-07-23T14:44:44Z</time>
      </trkpt>
      <trkpt lat="44.06812" lon="-0.84555">
        <ele>109.8</ele>
        <time>2025-07-23T14:44:49Z</time>
      </trkpt>
      <trkpt lat="44.06832" lon="-0.84476">
        <ele>109.6</ele>
        <time>2025-07-23T14:44:57Z</time>
      </trkpt>
      <trkpt lat="44.06842" lon="-0.84436">
        <ele>109.8</ele>
        <time>2025-07-23T14:45:01Z</time>
      </trkpt>
      <trkpt lat="44.06863" lon="-0.84358">
        <ele>109.8</ele>
        <time>2025-07-23T14:45:09Z</time>
      </trkpt>
      <trkpt lat="44.06866" lon="-0.84348">
        <ele>109.8</ele>
        <time>2025-07-23T14:45:10Z</time>
      </trkpt>
      <trkpt lat="44.06886" lon="-0.8427">
        <ele>109.6</ele>
        <time>2025-07-23T14:45:18Z</time>
      </trkpt>
      <trkpt lat="44.06896" lon="-0.84231">
        <ele>109.6</ele>
        <time>2025-07-23T14:45:22Z</time>
      </trkpt>
      <trkpt lat="44.06917" lon="-0.84177">
        <ele>109.8</ele>
        <time>2025-07-23T14:45:28Z</time>
      </trkpt>
      <trkpt lat="44.06937" lon="-0.84147">
        <ele>109.8</ele>
        <time>2025-07-23T14:45:32Z</time>
      </trkpt>
      <trkpt lat="44.06948" lon="-0.84133">
        <ele>109.6</ele>
        <time>2025-07-23T14:45:34Z</time>
      </trkpt>
      <trkpt lat="44.06996" lon="-0.84083">
        <ele>109.4</ele>
        <time>2025-07-23T14:45:42Z</time>
      </trkpt>
      <trkpt lat="44.07002" lon="-0.84077">
        <ele>109.4</ele>
        <time>2025-07-23T14:45:43Z</time>
      </trkpt>
      <trkpt lat="44.0705" lon="-0.84024">
        <ele>109.4</ele>
        <time>2025-07-23T14:45:51Z</time>
      </trkpt>
      <trkpt lat="44.07062" lon="-0.8401">
        <ele>109.4</ele>
        <time>2025-07-23T14:45:53Z</time>
      </trkpt>
      <trkpt lat="44.0711" lon="-0.83959">
        <ele>109</ele>
        <time>2025-07-23T14:46:01Z</time>
      </trkpt>
      <trkpt lat="44.07157" lon="-0.83909">
        <ele>109</ele>
        <time>2025-07-23T14:46:09Z</time>
      </trkpt>
      <trkpt lat="44.07167" lon="-0.83898">
        <ele>108.8</ele>
        <time>2025-07-23T14:46:11Z</time>
      </trkpt>
      <trkpt lat="44.07211" lon="-0.8385">
        <ele>108.8</ele>
        <time>2025-07-23T14:46:19Z</time>
      </trkpt>
      <trkpt lat="44.07228" lon="-0.83832">
        <ele>109</ele>
        <time>2025-07-23T14:46:22Z</time>
      </trkpt>
      <trkpt lat="44.07272" lon="-0.83784">
        <ele>109.2</ele>
        <time>2025-07-23T14:46:30Z</time>
      </trkpt>
      <trkpt lat="44.07284" lon="-0.83771">
        <ele>109</ele>
        <time>2025-07-23T14:46:32Z</time>
      </trkpt>
      <trkpt lat="44.07328" lon="-0.83725">
        <ele>109</ele>
        <time>2025-07-23T14:46:40Z</time>
      </trkpt>
      <trkpt lat="44.07334" lon="-0.83719">
        <ele>109.2</ele>
        <time>2025-07-23T14:46:41Z</time>
      </trkpt>
      <trkpt lat="44.07376" lon="-0.83673">
        <ele>109.6</ele>
        <time>2025-07-23T14:46:49Z</time>
      </trkpt>
      <trkpt lat="44.07388" lon="-0.83659">
        <ele>109.6</ele>
        <time>2025-07-23T14:46:51Z</time>
      </trkpt>
      <trkpt lat="44.07431" lon="-0.83615">
        <ele>109.6</ele>
        <time>2025-07-23T14:46:59Z</time>
      </trkpt>
      <trkpt lat="44.07474" lon="-0.83567">
        <ele>110</ele>
        <time>2025-07-23T14:47:07Z</time>
      </trkpt>
      <trkpt lat="44.0748" lon="-0.83561">
        <ele>110</ele>
        <time>2025-07-23T14:47:08Z</time>
      </trkpt>
      <trkpt lat="44.07524" lon="-0.83513">
        <ele>110</ele>
        <time>2025-07-23T14:47:16Z</time>
      </trkpt>
      <trkpt lat="44.07535" lon="-0.83502">
        <ele>109.8</ele>
        <time>2025-07-23T14:47:18Z</time>
      </trkpt>
      <trkpt lat="44.07579" lon="-0.83454">
        <ele>109.6</ele>
        <time>2025-07-23T14:47:26Z</time>
      </trkpt>
      <trkpt lat="44.07602" lon="-0.83429">
        <ele>109.2</ele>
        <time>2025-07-23T14:47:30Z</time>
      </trkpt>
      <trkpt lat="44.07648" lon="-0.83379">
        <ele>109.2</ele>
        <time>2025-07-23T14:47:38Z</time>
      </trkpt>
      <trkpt lat="44.07659" lon="-0.83367">
        <ele>109.4</ele>
        <time>2025-07-23T14:47:40Z</time>
      </trkpt>
      <trkpt lat="44.07705" lon="-0.83318">
        <ele>109.2</ele>
        <time>2025-07-23T14:47:48Z</time>
      </trkpt>
      <trkpt lat="44.0771" lon="-0.83312">
        <ele>109.2</ele>
        <time>2025-07-23T14:47:49Z</time>
      </trkpt>
      <trkpt lat="44.07756" lon="-0.83262">
        <ele>109.2</ele>
        <time>2025-07-23T14:47:57Z</time>
      </trkpt>
      <trkpt lat="44.07766" lon="-0.83251">
        <ele>109.2</ele>
        <time>2025-07-23T14:47:59Z</time>
      </trkpt>
      <trkpt lat="44.0781" lon="-0.83203">
        <ele>108.6</ele>
        <time>2025-07-23T14:48:07Z</time>
      </trkpt>
      <trkpt lat="44.07838" lon="-0.83173">
        <ele>108.4</ele>
        <time>2025-07-23T14:48:12Z</time>
      </trkpt>
      <trkpt lat="44.07874" lon="-0.83143">
        <ele>108.4</ele>
        <time>2025-07-23T14:48:18Z</time>
      </trkpt>
      <trkpt lat="44.07925" lon="-0.83121">
        <ele>109</ele>
        <time>2025-07-23T14:48:26Z</time>
      </trkpt>
      <trkpt lat="44.07979" lon="-0.83102">
        <ele>109.2</ele>
        <time>2025-07-23T14:48:34Z</time>
      </trkpt>
      <trkpt lat="44.08035" lon="-0.83078">
        <ele>108.8</ele>
        <time>2025-07-23T14:48:43Z</time>
      </trkpt>
      <trkpt lat="44.08048" lon="-0.83073">
        <ele>108.8</ele>
        <time>2025-07-23T14:48:45Z</time>
      </trkpt>
      <trkpt lat="44.08107" lon="-0.8305">
        <ele>108.8</ele>
        <time>2025-07-23T14:48:54Z</time>
      </trkpt>
      <trkpt lat="44.0816" lon="-0.83029">
        <ele>108.6</ele>
        <time>2025-07-23T14:49:02Z</time>
      </trkpt>
      <trkpt lat="44.08179" lon="-0.83021">
        <ele>108.4</ele>
        <time>2025-07-23T14:49:05Z</time>
      </trkpt>
      <trkpt lat="44.08238" lon="-0.82998">
        <ele>108.4</ele>
        <time>2025-07-23T14:49:14Z</time>
      </trkpt>
      <trkpt lat="44.08252" lon="-0.82992">
        <ele>108.4</ele>
        <time>2025-07-23T14:49:16Z</time>
      </trkpt>
      <trkpt lat="44.08296" lon="-0.82974">
        <ele>108.2</ele>
        <time>2025-07-23T14:49:23Z</time>
      </trkpt>
      <trkpt lat="44.08315" lon="-0.82966">
        <ele>108</ele>
        <time>2025-07-23T14:49:26Z</time>
      </trkpt>
      <trkpt lat="44.08375" lon="-0.82942">
        <ele>107.6</ele>
        <time>2025-07-23T14:49:35Z</time>
      </trkpt>
      <trkpt lat="44.08393" lon="-0.82935">
        <ele>107.4</ele>
        <time>2025-07-23T14:49:38Z</time>
      </trkpt>
      <trkpt lat="44.08425" lon="-0.82921">
        <ele>107.4</ele>
        <time>2025-07-23T14:49:43Z</time>
      </trkpt>
      <trkpt lat="44.08446" lon="-0.82913">
        <ele>107.4</ele>
        <time>2025-07-23T14:49:46Z</time>
      </trkpt>
      <trkpt lat="44.08501" lon="-0.82892">
        <ele>107.4</ele>
        <time>2025-07-23T14:49:54Z</time>
      </trkpt>
      <trkpt lat="44.08507" lon="-0.8289">
        <ele>107.4</ele>
        <time>2025-07-23T14:49:55Z</time>
      </trkpt>
      <trkpt lat="44.08561" lon="-0.82868">
        <ele>108</ele>
        <time>2025-07-23T14:50:03Z</time>
      </trkpt>
      <trkpt lat="44.08581" lon="-0.8286">
        <ele>108</ele>
        <time>2025-07-23T14:50:06Z</time>
      </trkpt>
      <trkpt lat="44.08638" lon="-0.82837">
        <ele>108.4</ele>
        <time>2025-07-23T14:50:15Z</time>
      </trkpt>
      <trkpt lat="44.0869" lon="-0.82816">
        <ele>108</ele>
        <time>2025-07-23T14:50:23Z</time>
      </trkpt>
      <trkpt lat="44.08709" lon="-0.82808">
        <ele>108.2</ele>
        <time>2025-07-23T14:50:26Z</time>
      </trkpt>
      <trkpt lat="44.08767" lon="-0.82785">
        <ele>108.4</ele>
        <time>2025-07-23T14:50:35Z</time>
      </trkpt>
      <trkpt lat="44.0878" lon="-0.8278">
        <ele>108.4</ele>
        <time>2025-07-23T14:50:37Z</time>
      </trkpt>
      <trkpt lat="44.08835" lon="-0.82759">
        <ele>107.6</ele>
        <time>2025-07-23T14:50:45Z</time>
      </trkpt>
      <trkpt lat="44.08841" lon="-0.82756">
        <ele>107.6</ele>
        <time>2025-07-23T14:50:46Z</time>
      </trkpt>
      <trkpt lat="44.08862" lon="-0.82748">
        <ele>107.4</ele>
        <time>2025-07-23T14:50:49Z</time>
      </trkpt>
      <trkpt lat="44.08907" lon="-0.82729">
        <ele>106.8</ele>
        <time>2025-07-23T14:50:56Z</time>
      </trkpt>
      <trkpt lat="44.08966" lon="-0.82707">
        <ele>107.2</ele>
        <time>2025-07-23T14:51:05Z</time>
      </trkpt>
      <trkpt lat="44.08972" lon="-0.82704">
        <ele>107.2</ele>
        <time>2025-07-23T14:51:06Z</time>
      </trkpt>
      <trkpt lat="44.08992" lon="-0.82696">
        <ele>107.2</ele>
        <time>2025-07-23T14:51:09Z</time>
      </trkpt>
      <trkpt lat="44.09037" lon="-0.82677">
        <ele>107</ele>
        <time>2025-07-23T14:51:16Z</time>
      </trkpt>
      <trkpt lat="44.09089" lon="-0.82652">
        <ele>107</ele>
        <time>2025-07-23T14:51:24Z</time>
      </trkpt>
      <trkpt lat="44.09101" lon="-0.82646">
        <ele>107.2</ele>
        <time>2025-07-23T14:51:26Z</time>
      </trkpt>
      <trkpt lat="44.09154" lon="-0.82616">
        <ele>107.2</ele>
        <time>2025-07-23T14:51:34Z</time>
      </trkpt>
      <trkpt lat="44.09205" lon="-0.82587">
        <ele>107.8</ele>
        <time>2025-07-23T14:51:42Z</time>
      </trkpt>
      <trkpt lat="44.09211" lon="-0.82583">
        <ele>107.8</ele>
        <time>2025-07-23T14:51:43Z</time>
      </trkpt>
      <trkpt lat="44.09236" lon="-0.82569">
        <ele>107.8</ele>
        <time>2025-07-23T14:51:47Z</time>
      </trkpt>
      <trkpt lat="44.09266" lon="-0.82552">
        <ele>108</ele>
        <time>2025-07-23T14:51:52Z</time>
      </trkpt>
      <trkpt lat="44.09315" lon="-0.82525">
        <ele>107.4</ele>
        <time>2025-07-23T14:52:00Z</time>
      </trkpt>
      <trkpt lat="44.09371" lon="-0.82495">
        <ele>107.4</ele>
        <time>2025-07-23T14:52:09Z</time>
      </trkpt>
      <trkpt lat="44.09426" lon="-0.82463">
        <ele>107.6</ele>
        <time>2025-07-23T14:52:18Z</time>
      </trkpt>
      <trkpt lat="44.09437" lon="-0.82456">
        <ele>107.6</ele>
        <time>2025-07-23T14:52:20Z</time>
      </trkpt>
      <trkpt lat="44.09489" lon="-0.82429">
        <ele>108</ele>
        <time>2025-07-23T14:52:28Z</time>
      </trkpt>
      <trkpt lat="44.09495" lon="-0.82426">
        <ele>108</ele>
        <time>2025-07-23T14:52:29Z</time>
      </trkpt>
      <trkpt lat="44.09508" lon="-0.82419">
        <ele>108.2</ele>
        <time>2025-07-23T14:52:31Z</time>
      </trkpt>
      <trkpt lat="44.09514" lon="-0.82417">
        <ele>108.4</ele>
        <time>2025-07-23T14:52:32Z</time>
      </trkpt>
      <trkpt lat="44.0952" lon="-0.82413">
        <ele>108.4</ele>
        <time>2025-07-23T14:52:34Z</time>
      </trkpt>
      <trkpt lat="44.09571" lon="-0.82383">
        <ele>108.4</ele>
        <time>2025-07-23T14:52:41Z</time>
      </trkpt>
      <trkpt lat="44.09577" lon="-0.8238">
        <ele>108.4</ele>
        <time>2025-07-23T14:52:42Z</time>
      </trkpt>
      <trkpt lat="44.09632" lon="-0.82349">
        <ele>108.2</ele>
        <time>2025-07-23T14:52:51Z</time>
      </trkpt>
      <trkpt lat="44.09683" lon="-0.82322">
        <ele>108.4</ele>
        <time>2025-07-23T14:52:59Z</time>
      </trkpt>
      <trkpt lat="44.09696" lon="-0.82316">
        <ele>108.6</ele>
        <time>2025-07-23T14:53:01Z</time>
      </trkpt>
      <trkpt lat="44.09696" lon="-0.82316">
        <ele>108.6</ele>
        <time>2025-07-23T14:53:02Z</time>
      </trkpt>
      <trkpt lat="44.09748" lon="-0.82286">
        <ele>108.6</ele>
        <time>2025-07-23T14:53:09Z</time>
      </trkpt>
      <trkpt lat="44.09804" lon="-0.82254">
        <ele>108.6</ele>
        <time>2025-07-23T14:53:18Z</time>
      </trkpt>
      <trkpt lat="44.09838" lon="-0.82226">
        <ele>108.6</ele>
        <time>2025-07-23T14:53:24Z</time>
      </trkpt>
      <trkpt lat="44.09879" lon="-0.82189">
        <ele>108.4</ele>
        <time>2025-07-23T14:53:31Z</time>
      </trkpt>
      <trkpt lat="44.09926" lon="-0.82143">
        <ele>108.4</ele>
        <time>2025-07-23T14:53:39Z</time>
      </trkpt>
      <trkpt lat="44.09932" lon="-0.82137">
        <ele>108.6</ele>
        <time>2025-07-23T14:53:40Z</time>
      </trkpt>
      <trkpt lat="44.09979" lon="-0.82093">
        <ele>108.6</ele>
        <time>2025-07-23T14:53:48Z</time>
      </trkpt>
      <trkpt lat="44.10022" lon="-0.8205">
        <ele>108.4</ele>
        <time>2025-07-23T14:53:56Z</time>
      </trkpt>
      <trkpt lat="44.10073" lon="-0.82002">
        <ele>108.6</ele>
        <time>2025-07-23T14:54:05Z</time>
      </trkpt>
      <trkpt lat="44.10079" lon="-0.81997">
        <ele>108.6</ele>
        <time>2025-07-23T14:54:06Z</time>
      </trkpt>
      <trkpt lat="44.10125" lon="-0.81954">
        <ele>108.2</ele>
        <time>2025-07-23T14:54:14Z</time>
      </trkpt>
      <trkpt lat="44.10131" lon="-0.81948">
        <ele>108.2</ele>
        <time>2025-07-23T14:54:15Z</time>
      </trkpt>
      <trkpt lat="44.10177" lon="-0.81905">
        <ele>107.8</ele>
        <time>2025-07-23T14:54:23Z</time>
      </trkpt>
      <trkpt lat="44.10201" lon="-0.81884">
        <ele>108.2</ele>
        <time>2025-07-23T14:54:27Z</time>
      </trkpt>
      <trkpt lat="44.10247" lon="-0.81841">
        <ele>107.8</ele>
        <time>2025-07-23T14:54:35Z</time>
      </trkpt>
      <trkpt lat="44.10293" lon="-0.81797">
        <ele>108</ele>
        <time>2025-07-23T14:54:43Z</time>
      </trkpt>
      <trkpt lat="44.10315" lon="-0.81776">
        <ele>108.2</ele>
        <time>2025-07-23T14:54:48Z</time>
      </trkpt>
      <trkpt lat="44.10362" lon="-0.81731">
        <ele>108.6</ele>
        <time>2025-07-23T14:54:55Z</time>
      </trkpt>
      <trkpt lat="44.1039" lon="-0.81705">
        <ele>108.6</ele>
        <time>2025-07-23T14:55:00Z</time>
      </trkpt>
      <trkpt lat="44.10436" lon="-0.81662">
        <ele>108.8</ele>
        <time>2025-07-23T14:55:08Z</time>
      </trkpt>
      <trkpt lat="44.10448" lon="-0.8165">
        <ele>108.8</ele>
        <time>2025-07-23T14:55:10Z</time>
      </trkpt>
      <trkpt lat="44.10478" lon="-0.81622">
        <ele>108.8</ele>
        <time>2025-07-23T14:55:15Z</time>
      </trkpt>
      <trkpt lat="44.10502" lon="-0.816">
        <ele>108.6</ele>
        <time>2025-07-23T14:55:19Z</time>
      </trkpt>
      <trkpt lat="44.10548" lon="-0.81556">
        <ele>108.6</ele>
        <time>2025-07-23T14:55:27Z</time>
      </trkpt>
      <trkpt lat="44.10594" lon="-0.81513">
        <ele>108.6</ele>
        <time>2025-07-23T14:55:35Z</time>
      </trkpt>
      <trkpt lat="44.10611" lon="-0.81497">
        <ele>108.6</ele>
        <time>2025-07-23T14:55:38Z</time>
      </trkpt>
      <trkpt lat="44.10651" lon="-0.8146">
        <ele>108.2</ele>
        <time>2025-07-23T14:55:45Z</time>
      </trkpt>
      <trkpt lat="44.10697" lon="-0.81416">
        <ele>108.2</ele>
        <time>2025-07-23T14:55:53Z</time>
      </trkpt>
      <trkpt lat="44.10715" lon="-0.81399">
        <ele>108.2</ele>
        <time>2025-07-23T14:55:56Z</time>
      </trkpt>
      <trkpt lat="44.10762" lon="-0.81355">
        <ele>108</ele>
        <time>2025-07-23T14:56:04Z</time>
      </trkpt>
      <trkpt lat="44.1078" lon="-0.81338">
        <ele>108</ele>
        <time>2025-07-23T14:56:07Z</time>
      </trkpt>
      <trkpt lat="44.10826" lon="-0.81293">
        <ele>108.4</ele>
        <time>2025-07-23T14:56:15Z</time>
      </trkpt>
      <trkpt lat="44.10839" lon="-0.81283">
        <ele>108.6</ele>
        <time>2025-07-23T14:56:17Z</time>
      </trkpt>
      <trkpt lat="44.10859" lon="-0.81271">
        <ele>108.6</ele>
        <time>2025-07-23T14:56:20Z</time>
      </trkpt>
      <trkpt lat="44.10867" lon="-0.81267">
        <ele>108.6</ele>
        <time>2025-07-23T14:56:21Z</time>
      </trkpt>
      <trkpt lat="44.10895" lon="-0.81261">
        <ele>108.6</ele>
        <time>2025-07-23T14:56:25Z</time>
      </trkpt>
      <trkpt lat="44.10946" lon="-0.81253">
        <ele>108</ele>
        <time>2025-07-23T14:56:32Z</time>
      </trkpt>
      <trkpt lat="44.10968" lon="-0.81249">
        <ele>108</ele>
        <time>2025-07-23T14:56:35Z</time>
      </trkpt>
      <trkpt lat="44.1099" lon="-0.81245">
        <ele>108.2</ele>
        <time>2025-07-23T14:56:38Z</time>
      </trkpt>
      <trkpt lat="44.11047" lon="-0.81237">
        <ele>108.6</ele>
        <time>2025-07-23T14:56:46Z</time>
      </trkpt>
      <trkpt lat="44.11054" lon="-0.81236">
        <ele>108.6</ele>
        <time>2025-07-23T14:56:47Z</time>
      </trkpt>
      <trkpt lat="44.11109" lon="-0.81226">
        <ele>108.6</ele>
        <time>2025-07-23T14:56:55Z</time>
      </trkpt>
      <trkpt lat="44.11141" lon="-0.81219">
        <ele>108.4</ele>
        <time>2025-07-23T14:57:00Z</time>
      </trkpt>
      <trkpt lat="44.11147" lon="-0.81216">
        <ele>108.4</ele>
        <time>2025-07-23T14:57:01Z</time>
      </trkpt>
      <trkpt lat="44.11166" lon="-0.81201">
        <ele>108.4</ele>
        <time>2025-07-23T14:57:04Z</time>
      </trkpt>
      <trkpt lat="44.11208" lon="-0.81152">
        <ele>108.4</ele>
        <time>2025-07-23T14:57:12Z</time>
      </trkpt>
      <trkpt lat="44.11213" lon="-0.81146">
        <ele>108.4</ele>
        <time>2025-07-23T14:57:13Z</time>
      </trkpt>
      <trkpt lat="44.1125" lon="-0.81094">
        <ele>108.4</ele>
        <time>2025-07-23T14:57:21Z</time>
      </trkpt>
      <trkpt lat="44.11276" lon="-0.8105">
        <ele>108.4</ele>
        <time>2025-07-23T14:57:27Z</time>
      </trkpt>
      <trkpt lat="44.11284" lon="-0.81035">
        <ele>108.4</ele>
        <time>2025-07-23T14:57:29Z</time>
      </trkpt>
      <trkpt lat="44.1132" lon="-0.80969">
        <ele>108.4</ele>
        <time>2025-07-23T14:57:38Z</time>
      </trkpt>
      <trkpt lat="44.11353" lon="-0.8091">
        <ele>108.8</ele>
        <time>2025-07-23T14:57:46Z</time>
      </trkpt>
      <trkpt lat="44.11357" lon="-0.80902">
        <ele>108.8</ele>
        <time>2025-07-23T14:57:47Z</time>
      </trkpt>
      <trkpt lat="44.11391" lon="-0.80842">
        <ele>108.4</ele>
        <time>2025-07-23T14:57:55Z</time>
      </trkpt>
      <trkpt lat="44.114" lon="-0.80827">
        <ele>108.4</ele>
        <time>2025-07-23T14:57:57Z</time>
      </trkpt>
      <trkpt lat="44.11429" lon="-0.80775">
        <ele>108.4</ele>
        <time>2025-07-23T14:58:04Z</time>
      </trkpt>
      <trkpt lat="44.11458" lon="-0.80722">
        <ele>108.4</ele>
        <time>2025-07-23T14:58:11Z</time>
      </trkpt>
      <trkpt lat="44.11493" lon="-0.80662">
        <ele>108.4</ele>
        <time>2025-07-23T14:58:19Z</time>
      </trkpt>
      <trkpt lat="44.1151" lon="-0.80632">
        <ele>108.2</ele>
        <time>2025-07-23T14:58:23Z</time>
      </trkpt>
      <trkpt lat="44.11544" lon="-0.80569">
        <ele>107.8</ele>
        <time>2025-07-23T14:58:31Z</time>
      </trkpt>
      <trkpt lat="44.11553" lon="-0.80553">
        <ele>107.8</ele>
        <time>2025-07-23T14:58:33Z</time>
      </trkpt>
      <trkpt lat="44.11597" lon="-0.80498">
        <ele>107.6</ele>
        <time>2025-07-23T14:58:41Z</time>
      </trkpt>
      <trkpt lat="44.11638" lon="-0.80457">
        <ele>107.8</ele>
        <time>2025-07-23T14:58:48Z</time>
      </trkpt>
      <trkpt lat="44.11683" lon="-0.80412">
        <ele>108</ele>
        <time>2025-07-23T14:58:56Z</time>
      </trkpt>
      <trkpt lat="44.11727" lon="-0.80363">
        <ele>108.2</ele>
        <time>2025-07-23T14:59:04Z</time>
      </trkpt>
      <trkpt lat="44.11732" lon="-0.80356">
        <ele>108.2</ele>
        <time>2025-07-23T14:59:05Z</time>
      </trkpt>
      <trkpt lat="44.11776" lon="-0.80304">
        <ele>108.2</ele>
        <time>2025-07-23T14:59:13Z</time>
      </trkpt>
      <trkpt lat="44.11781" lon="-0.80298">
        <ele>108.2</ele>
        <time>2025-07-23T14:59:14Z</time>
      </trkpt>
      <trkpt lat="44.11824" lon="-0.80247">
        <ele>108.2</ele>
        <time>2025-07-23T14:59:22Z</time>
      </trkpt>
      <trkpt lat="44.1183" lon="-0.8024">
        <ele>108.2</ele>
        <time>2025-07-23T14:59:23Z</time>
      </trkpt>
      <trkpt lat="44.11876" lon="-0.80192">
        <ele>108.2</ele>
        <time>2025-07-23T14:59:31Z</time>
      </trkpt>
      <trkpt lat="44.11882" lon="-0.80186">
        <ele>108.2</ele>
        <time>2025-07-23T14:59:32Z</time>
      </trkpt>
      <trkpt lat="44.11931" lon="-0.8014">
        <ele>108</ele>
        <time>2025-07-23T14:59:40Z</time>
      </trkpt>
      <trkpt lat="44.11943" lon="-0.80127">
        <ele>108</ele>
        <time>2025-07-23T14:59:42Z</time>
      </trkpt>
      <trkpt lat="44.11975" lon="-0.80084">
        <ele>108.2</ele>
        <time>2025-07-23T14:59:48Z</time>
      </trkpt>
      <trkpt lat="44.12011" lon="-0.80021">
        <ele>108.6</ele>
        <time>2025-07-23T14:59:56Z</time>
      </trkpt>
      <trkpt lat="44.12024" lon="-0.79997">
        <ele>108.6</ele>
        <time>2025-07-23T14:59:59Z</time>
      </trkpt>
      <trkpt lat="44.12061" lon="-0.79932">
        <ele>108.2</ele>
        <time>2025-07-23T15:00:07Z</time>
      </trkpt>
      <trkpt lat="44.12098" lon="-0.79869">
        <ele>108.4</ele>
        <time>2025-07-23T15:00:15Z</time>
      </trkpt>
      <trkpt lat="44.12134" lon="-0.79804">
        <ele>108.6</ele>
        <time>2025-07-23T15:00:23Z</time>
      </trkpt>
      <trkpt lat="44.12143" lon="-0.79789">
        <ele>108.6</ele>
        <time>2025-07-23T15:00:25Z</time>
      </trkpt>
      <trkpt lat="44.12173" lon="-0.79735">
        <ele>108.8</ele>
        <time>2025-07-23T15:00:33Z</time>
      </trkpt>
      <trkpt lat="44.12208" lon="-0.79675">
        <ele>108.8</ele>
        <time>2025-07-23T15:00:40Z</time>
      </trkpt>
      <trkpt lat="44.1222" lon="-0.79652">
        <ele>108.8</ele>
        <time>2025-07-23T15:00:43Z</time>
      </trkpt>
      <trkpt lat="44.12255" lon="-0.7959">
        <ele>108.8</ele>
        <time>2025-07-23T15:00:51Z</time>
      </trkpt>
      <trkpt lat="44.12255" lon="-0.7959">
        <ele>108.8</ele>
        <time>2025-07-23T15:00:52Z</time>
      </trkpt>
      <trkpt lat="44.12291" lon="-0.79529">
        <ele>108.8</ele>
        <time>2025-07-23T15:00:59Z</time>
      </trkpt>
      <trkpt lat="44.12303" lon="-0.79507">
        <ele>108.8</ele>
        <time>2025-07-23T15:01:02Z</time>
      </trkpt>
      <trkpt lat="44.12339" lon="-0.79443">
        <ele>108.6</ele>
        <time>2025-07-23T15:01:10Z</time>
      </trkpt>
      <trkpt lat="44.12347" lon="-0.79429">
        <ele>108.6</ele>
        <time>2025-07-23T15:01:12Z</time>
      </trkpt>
      <trkpt lat="44.1237" lon="-0.79391">
        <ele>108.6</ele>
        <time>2025-07-23T15:01:17Z</time>
      </trkpt>
      <trkpt lat="44.12381" lon="-0.79375">
        <ele>108.6</ele>
        <time>2025-07-23T15:01:19Z</time>
      </trkpt>
      <trkpt lat="44.12398" lon="-0.7936">
        <ele>108.6</ele>
        <time>2025-07-23T15:01:22Z</time>
      </trkpt>
      <trkpt lat="44.12439" lon="-0.79342">
        <ele>108.4</ele>
        <time>2025-07-23T15:01:28Z</time>
      </trkpt>
      <trkpt lat="44.12479" lon="-0.79325">
        <ele>108.4</ele>
        <time>2025-07-23T15:01:34Z</time>
      </trkpt>
      <trkpt lat="44.12535" lon="-0.79307">
        <ele>108.4</ele>
        <time>2025-07-23T15:01:42Z</time>
      </trkpt>
      <trkpt lat="44.12542" lon="-0.79305">
        <ele>108.4</ele>
        <time>2025-07-23T15:01:43Z</time>
      </trkpt>
      <trkpt lat="44.12592" lon="-0.79285">
        <ele>108</ele>
        <time>2025-07-23T15:01:51Z</time>
      </trkpt>
      <trkpt lat="44.12611" lon="-0.79274">
        <ele>108</ele>
        <time>2025-07-23T15:01:53Z</time>
      </trkpt>
      <trkpt lat="44.12624" lon="-0.79262">
        <ele>107.8</ele>
        <time>2025-07-23T15:01:55Z</time>
      </trkpt>
      <trkpt lat="44.1263" lon="-0.79256">
        <ele>107.8</ele>
        <time>2025-07-23T15:01:56Z</time>
      </trkpt>
      <trkpt lat="44.12635" lon="-0.79249">
        <ele>108</ele>
        <time>2025-07-23T15:01:57Z</time>
      </trkpt>
      <trkpt lat="44.12657" lon="-0.79213">
        <ele>108.2</ele>
        <time>2025-07-23T15:02:02Z</time>
      </trkpt>
      <trkpt lat="44.12694" lon="-0.79149">
        <ele>108.2</ele>
        <time>2025-07-23T15:02:10Z</time>
      </trkpt>
      <trkpt lat="44.12729" lon="-0.79088">
        <ele>108.2</ele>
        <time>2025-07-23T15:02:18Z</time>
      </trkpt>
      <trkpt lat="44.12737" lon="-0.79072">
        <ele>108.2</ele>
        <time>2025-07-23T15:02:20Z</time>
      </trkpt>
      <trkpt lat="44.12772" lon="-0.79012">
        <ele>108</ele>
        <time>2025-07-23T15:02:28Z</time>
      </trkpt>
      <trkpt lat="44.12776" lon="-0.79005">
        <ele>108</ele>
        <time>2025-07-23T15:02:29Z</time>
      </trkpt>
      <trkpt lat="44.12812" lon="-0.78943">
        <ele>107.8</ele>
        <time>2025-07-23T15:02:37Z</time>
      </trkpt>
      <trkpt lat="44.12812" lon="-0.78943">
        <ele>107.8</ele>
        <time>2025-07-23T15:02:38Z</time>
      </trkpt>
      <trkpt lat="44.1284" lon="-0.7889">
        <ele>108</ele>
        <time>2025-07-23T15:02:45Z</time>
      </trkpt>
      <trkpt lat="44.12847" lon="-0.78874">
        <ele>108</ele>
        <time>2025-07-23T15:02:46Z</time>
      </trkpt>
      <trkpt lat="44.12855" lon="-0.78847">
        <ele>108</ele>
        <time>2025-07-23T15:02:50Z</time>
      </trkpt>
      <trkpt lat="44.12875" lon="-0.78769">
        <ele>107.8</ele>
        <time>2025-07-23T15:02:57Z</time>
      </trkpt>
      <trkpt lat="44.12878" lon="-0.7876">
        <ele>107.8</ele>
        <time>2025-07-23T15:02:58Z</time>
      </trkpt>
      <trkpt lat="44.12898" lon="-0.78699">
        <ele>107.8</ele>
        <time>2025-07-23T15:03:05Z</time>
      </trkpt>
      <trkpt lat="44.12921" lon="-0.78645">
        <ele>108.2</ele>
        <time>2025-07-23T15:03:12Z</time>
      </trkpt>
      <trkpt lat="44.12956" lon="-0.78581">
        <ele>108.4</ele>
        <time>2025-07-23T15:03:21Z</time>
      </trkpt>
      <trkpt lat="44.12995" lon="-0.7852">
        <ele>108</ele>
        <time>2025-07-23T15:03:30Z</time>
      </trkpt>
      <trkpt lat="44.13" lon="-0.78513">
        <ele>108</ele>
        <time>2025-07-23T15:03:31Z</time>
      </trkpt>
      <trkpt lat="44.13038" lon="-0.78455">
        <ele>108.2</ele>
        <time>2025-07-23T15:03:40Z</time>
      </trkpt>
      <trkpt lat="44.13068" lon="-0.78408">
        <ele>108.4</ele>
        <time>2025-07-23T15:03:47Z</time>
      </trkpt>
      <trkpt lat="44.13108" lon="-0.78346">
        <ele>108.4</ele>
        <time>2025-07-23T15:03:56Z</time>
      </trkpt>
      <trkpt lat="44.13135" lon="-0.78303">
        <ele>108.4</ele>
        <time>2025-07-23T15:04:02Z</time>
      </trkpt>
      <trkpt lat="44.13171" lon="-0.78244">
        <ele>108.2</ele>
        <time>2025-07-23T15:04:10Z</time>
      </trkpt>
      <trkpt lat="44.13196" lon="-0.78201">
        <ele>107.8</ele>
        <time>2025-07-23T15:04:16Z</time>
      </trkpt>
      <trkpt lat="44.13231" lon="-0.78144">
        <ele>107.6</ele>
        <time>2025-07-23T15:04:24Z</time>
      </trkpt>
      <trkpt lat="44.13235" lon="-0.78136">
        <ele>107.6</ele>
        <time>2025-07-23T15:04:25Z</time>
      </trkpt>
      <trkpt lat="44.13269" lon="-0.78078">
        <ele>107.6</ele>
        <time>2025-07-23T15:04:33Z</time>
      </trkpt>
      <trkpt lat="44.13307" lon="-0.78013">
        <ele>107.8</ele>
        <time>2025-07-23T15:04:42Z</time>
      </trkpt>
      <trkpt lat="44.13343" lon="-0.77954">
        <ele>107.8</ele>
        <time>2025-07-23T15:04:50Z</time>
      </trkpt>
      <trkpt lat="44.13377" lon="-0.77895">
        <ele>108.2</ele>
        <time>2025-07-23T15:04:58Z</time>
      </trkpt>
      <trkpt lat="44.13386" lon="-0.77881">
        <ele>108.2</ele>
        <time>2025-07-23T15:05:00Z</time>
      </trkpt>
      <trkpt lat="44.13422" lon="-0.7782">
        <ele>107.8</ele>
        <time>2025-07-23T15:05:08Z</time>
      </trkpt>
      <trkpt lat="44.13435" lon="-0.77798">
        <ele>107.8</ele>
        <time>2025-07-23T15:05:11Z</time>
      </trkpt>
      <trkpt lat="44.13472" lon="-0.77736">
        <ele>107.8</ele>
        <time>2025-07-23T15:05:19Z</time>
      </trkpt>
      <trkpt lat="44.13495" lon="-0.77697">
        <ele>108</ele>
        <time>2025-07-23T15:05:24Z</time>
      </trkpt>
      <trkpt lat="44.13531" lon="-0.77635">
        <ele>107.6</ele>
        <time>2025-07-23T15:05:32Z</time>
      </trkpt>
      <trkpt lat="44.13555" lon="-0.77595">
        <ele>107.8</ele>
        <time>2025-07-23T15:05:37Z</time>
      </trkpt>
      <trkpt lat="44.13587" lon="-0.77542">
        <ele>107.8</ele>
        <time>2025-07-23T15:05:44Z</time>
      </trkpt>
      <trkpt lat="44.13622" lon="-0.77482">
        <ele>107.8</ele>
        <time>2025-07-23T15:05:52Z</time>
      </trkpt>
      <trkpt lat="44.13627" lon="-0.77474">
        <ele>107.8</ele>
        <time>2025-07-23T15:05:53Z</time>
      </trkpt>
      <trkpt lat="44.13649" lon="-0.77436">
        <ele>107.8</ele>
        <time>2025-07-23T15:05:58Z</time>
      </trkpt>
      <trkpt lat="44.13682" lon="-0.77383">
        <ele>108</ele>
        <time>2025-07-23T15:06:05Z</time>
      </trkpt>
      <trkpt lat="44.13713" lon="-0.7733">
        <ele>108.4</ele>
        <time>2025-07-23T15:06:12Z</time>
      </trkpt>
      <trkpt lat="44.13748" lon="-0.77269">
        <ele>108.2</ele>
        <time>2025-07-23T15:06:20Z</time>
      </trkpt>
      <trkpt lat="44.13753" lon="-0.77262">
        <ele>108.2</ele>
        <time>2025-07-23T15:06:21Z</time>
      </trkpt>
      <trkpt lat="44.13779" lon="-0.77218">
        <ele>107.6</ele>
        <time>2025-07-23T15:06:27Z</time>
      </trkpt>
      <trkpt lat="44.13814" lon="-0.77158">
        <ele>107.8</ele>
        <time>2025-07-23T15:06:35Z</time>
      </trkpt>
      <trkpt lat="44.13823" lon="-0.77144">
        <ele>107.8</ele>
        <time>2025-07-23T15:06:37Z</time>
      </trkpt>
      <trkpt lat="44.13858" lon="-0.77084">
        <ele>108.4</ele>
        <time>2025-07-23T15:06:45Z</time>
      </trkpt>
      <trkpt lat="44.13863" lon="-0.77076">
        <ele>108.4</ele>
        <time>2025-07-23T15:06:46Z</time>
      </trkpt>
      <trkpt lat="44.13899" lon="-0.77016">
        <ele>108</ele>
        <time>2025-07-23T15:06:54Z</time>
      </trkpt>
      <trkpt lat="44.13934" lon="-0.76959">
        <ele>108.2</ele>
        <time>2025-07-23T15:07:02Z</time>
      </trkpt>
      <trkpt lat="44.13969" lon="-0.76902">
        <ele>108.4</ele>
        <time>2025-07-23T15:07:10Z</time>
      </trkpt>
      <trkpt lat="44.14003" lon="-0.76843">
        <ele>107.8</ele>
        <time>2025-07-23T15:07:18Z</time>
      </trkpt>
      <trkpt lat="44.14038" lon="-0.76784">
        <ele>107.6</ele>
        <time>2025-07-23T15:07:26Z</time>
      </trkpt>
      <trkpt lat="44.14047" lon="-0.76769">
        <ele>107.8</ele>
        <time>2025-07-23T15:07:28Z</time>
      </trkpt>
      <trkpt lat="44.14078" lon="-0.76717">
        <ele>108.2</ele>
        <time>2025-07-23T15:07:35Z</time>
      </trkpt>
      <trkpt lat="44.14114" lon="-0.76657">
        <ele>108.2</ele>
        <time>2025-07-23T15:07:43Z</time>
      </trkpt>
      <trkpt lat="44.14148" lon="-0.76598">
        <ele>108.6</ele>
        <time>2025-07-23T15:07:51Z</time>
      </trkpt>
      <trkpt lat="44.14153" lon="-0.76591">
        <ele>108.6</ele>
        <time>2025-07-23T15:07:52Z</time>
      </trkpt>
      <trkpt lat="44.14189" lon="-0.7653">
        <ele>108.4</ele>
        <time>2025-07-23T15:08:00Z</time>
      </trkpt>
      <trkpt lat="44.14198" lon="-0.76515">
        <ele>108.4</ele>
        <time>2025-07-23T15:08:02Z</time>
      </trkpt>
      <trkpt lat="44.14235" lon="-0.76454">
        <ele>108.8</ele>
        <time>2025-07-23T15:08:10Z</time>
      </trkpt>
      <trkpt lat="44.14249" lon="-0.76431">
        <ele>108.8</ele>
        <time>2025-07-23T15:08:13Z</time>
      </trkpt>
      <trkpt lat="44.14276" lon="-0.76384">
        <ele>108.8</ele>
        <time>2025-07-23T15:08:20Z</time>
      </trkpt>
      <trkpt lat="44.14307" lon="-0.7632">
        <ele>108.6</ele>
        <time>2025-07-23T15:08:28Z</time>
      </trkpt>
      <trkpt lat="44.14329" lon="-0.76255">
        <ele>108.4</ele>
        <time>2025-07-23T15:08:35Z</time>
      </trkpt>
      <trkpt lat="44.14351" lon="-0.76184">
        <ele>108.8</ele>
        <time>2025-07-23T15:08:43Z</time>
      </trkpt>
      <trkpt lat="44.14373" lon="-0.76111">
        <ele>109</ele>
        <time>2025-07-23T15:08:50Z</time>
      </trkpt>
      <trkpt lat="44.14382" lon="-0.76083">
        <ele>109</ele>
        <time>2025-07-23T15:08:53Z</time>
      </trkpt>
      <trkpt lat="44.14405" lon="-0.7601">
        <ele>108.4</ele>
        <time>2025-07-23T15:09:01Z</time>
      </trkpt>
      <trkpt lat="44.14411" lon="-0.75992">
        <ele>108.2</ele>
        <time>2025-07-23T15:09:03Z</time>
      </trkpt>
      <trkpt lat="44.14433" lon="-0.7592">
        <ele>108.6</ele>
        <time>2025-07-23T15:09:11Z</time>
      </trkpt>
      <trkpt lat="44.14442" lon="-0.75893">
        <ele>108.6</ele>
        <time>2025-07-23T15:09:14Z</time>
      </trkpt>
      <trkpt lat="44.14465" lon="-0.75819">
        <ele>108.8</ele>
        <time>2025-07-23T15:09:22Z</time>
      </trkpt>
      <trkpt lat="44.14489" lon="-0.75745">
        <ele>108.8</ele>
        <time>2025-07-23T15:09:30Z</time>
      </trkpt>
      <trkpt lat="44.14495" lon="-0.75726">
        <ele>108.8</ele>
        <time>2025-07-23T15:09:32Z</time>
      </trkpt>
      <trkpt lat="44.14518" lon="-0.7565">
        <ele>108.8</ele>
        <time>2025-07-23T15:09:40Z</time>
      </trkpt>
      <trkpt lat="44.14521" lon="-0.7564">
        <ele>108.8</ele>
        <time>2025-07-23T15:09:41Z</time>
      </trkpt>
      <trkpt lat="44.14546" lon="-0.75563">
        <ele>109</ele>
        <time>2025-07-23T15:09:49Z</time>
      </trkpt>
      <trkpt lat="44.14549" lon="-0.75554">
        <ele>108.8</ele>
        <time>2025-07-23T15:09:51Z</time>
      </trkpt>
      <trkpt lat="44.14573" lon="-0.75475">
        <ele>108.6</ele>
        <time>2025-07-23T15:09:58Z</time>
      </trkpt>
      <trkpt lat="44.14579" lon="-0.75455">
        <ele>108.2</ele>
        <time>2025-07-23T15:10:00Z</time>
      </trkpt>
      <trkpt lat="44.14584" lon="-0.75436">
        <ele>108</ele>
        <time>2025-07-23T15:10:02Z</time>
      </trkpt>
      <trkpt lat="44.14592" lon="-0.75407">
        <ele>107.8</ele>
        <time>2025-07-23T15:10:05Z</time>
      </trkpt>
      <trkpt lat="44.14598" lon="-0.75389">
        <ele>107.8</ele>
        <time>2025-07-23T15:10:07Z</time>
      </trkpt>
      <trkpt lat="44.14603" lon="-0.75372">
        <ele>107.6</ele>
        <time>2025-07-23T15:10:09Z</time>
      </trkpt>
      <trkpt lat="44.14612" lon="-0.75345">
        <ele>107.4</ele>
        <time>2025-07-23T15:10:12Z</time>
      </trkpt>
      <trkpt lat="44.1463" lon="-0.75282">
        <ele>107.2</ele>
        <time>2025-07-23T15:10:19Z</time>
      </trkpt>
      <trkpt lat="44.1465" lon="-0.75221">
        <ele>107.8</ele>
        <time>2025-07-23T15:10:26Z</time>
      </trkpt>
      <trkpt lat="44.14671" lon="-0.75159">
        <ele>108.6</ele>
        <time>2025-07-23T15:10:34Z</time>
      </trkpt>
      <trkpt lat="44.14681" lon="-0.75125">
        <ele>108.4</ele>
        <time>2025-07-23T15:10:40Z</time>
      </trkpt>
      <trkpt lat="44.14683" lon="-0.75121">
        <ele>108.2</ele>
        <time>2025-07-23T15:10:43Z</time>
      </trkpt>
      <trkpt lat="44.14683" lon="-0.75121">
        <ele>108</ele>
        <time>2025-07-23T15:10:45Z</time>
      </trkpt>
      <trkpt lat="44.14686" lon="-0.75109">
        <ele>106.8</ele>
        <time>2025-07-23T15:19:01Z</time>
      </trkpt>
      <trkpt lat="44.14689" lon="-0.75103">
        <ele>106.8</ele>
        <time>2025-07-23T15:19:03Z</time>
      </trkpt>
      <trkpt lat="44.14696" lon="-0.75078">
        <ele>106.8</ele>
        <time>2025-07-23T15:19:08Z</time>
      </trkpt>
      <trkpt lat="44.14708" lon="-0.75039">
        <ele>106.8</ele>
        <time>2025-07-23T15:19:14Z</time>
      </trkpt>
      <trkpt lat="44.1473" lon="-0.74969">
        <ele>106.8</ele>
        <time>2025-07-23T15:19:24Z</time>
      </trkpt>
      <trkpt lat="44.14752" lon="-0.74901">
        <ele>107.2</ele>
        <time>2025-07-23T15:19:33Z</time>
      </trkpt>
      <trkpt lat="44.14774" lon="-0.7483">
        <ele>107.6</ele>
        <time>2025-07-23T15:19:42Z</time>
      </trkpt>
      <trkpt lat="44.14793" lon="-0.74769">
        <ele>107.8</ele>
        <time>2025-07-23T15:19:50Z</time>
      </trkpt>
      <trkpt lat="44.14798" lon="-0.74756">
        <ele>107.8</ele>
        <time>2025-07-23T15:19:52Z</time>
      </trkpt>
      <trkpt lat="44.14804" lon="-0.74735">
        <ele>107.6</ele>
        <time>2025-07-23T15:19:55Z</time>
      </trkpt>
      <trkpt lat="44.14814" lon="-0.74704">
        <ele>107.4</ele>
        <time>2025-07-23T15:20:00Z</time>
      </trkpt>
      <trkpt lat="44.14816" lon="-0.74695">
        <ele>107.4</ele>
        <time>2025-07-23T15:20:02Z</time>
      </trkpt>
      <trkpt lat="44.14821" lon="-0.74684">
        <ele>107.2</ele>
        <time>2025-07-23T15:20:05Z</time>
      </trkpt>
      <trkpt lat="44.14824" lon="-0.74684">
        <ele>107</ele>
        <time>2025-07-23T15:20:06Z</time>
      </trkpt>
      <trkpt lat="44.14831" lon="-0.74688">
        <ele>106.8</ele>
        <time>2025-07-23T15:20:10Z</time>
      </trkpt>
      <trkpt lat="44.14832" lon="-0.7469">
        <ele>106.8</ele>
        <time>2025-07-23T15:20:11Z</time>
      </trkpt>
      <trkpt lat="44.14833" lon="-0.74697">
        <ele>106.8</ele>
        <time>2025-07-23T15:20:14Z</time>
      </trkpt>
      <trkpt lat="44.14832" lon="-0.74699">
        <ele>106.8</ele>
        <time>2025-07-23T15:20:16Z</time>
      </trkpt>
      <trkpt lat="44.14829" lon="-0.74699">
        <ele>106.8</ele>
        <time>2025-07-23T15:20:18Z</time>
      </trkpt>
      <trkpt lat="44.14829" lon="-0.74698">
        <ele>106.6</ele>
        <time>2025-07-23T15:20:19Z</time>
      </trkpt>
      <trkpt lat="44.14828" lon="-0.74698">
        <ele>106.6</ele>
        <time>2025-07-23T15:20:22Z</time>
      </trkpt>
      <trkpt lat="44.14825" lon="-0.74692">
        <ele>106.8</ele>
        <time>2025-07-23T15:40:36Z</time>
      </trkpt>
      <trkpt lat="44.14824" lon="-0.74689">
        <ele>106.6</ele>
        <time>2025-07-23T15:40:37Z</time>
      </trkpt>
      <trkpt lat="44.14824" lon="-0.74685">
        <ele>106.6</ele>
        <time>2025-07-23T15:40:38Z</time>
      </trkpt>
      <trkpt lat="44.14827" lon="-0.74664">
        <ele>106.6</ele>
        <time>2025-07-23T15:40:43Z</time>
      </trkpt>
      <trkpt lat="44.14839" lon="-0.74626">
        <ele>106.6</ele>
        <time>2025-07-23T15:40:52Z</time>
      </trkpt>
      <trkpt lat="44.14842" lon="-0.74618">
        <ele>106.6</ele>
        <time>2025-07-23T15:40:55Z</time>
      </trkpt>
      <trkpt lat="44.14843" lon="-0.74617">
        <ele>106.6</ele>
        <time>2025-07-23T15:40:56Z</time>
      </trkpt>
      <trkpt lat="44.14842" lon="-0.74617">
        <ele>106.4</ele>
        <time>2025-07-23T15:40:59Z</time>
      </trkpt>
      <trkpt lat="44.14844" lon="-0.74609">
        <ele>106.4</ele>
        <time>2025-07-23T15:41:02Z</time>
      </trkpt>
      <trkpt lat="44.14845" lon="-0.74606">
        <ele>106.4</ele>
        <time>2025-07-23T15:41:03Z</time>
      </trkpt>
      <trkpt lat="44.14844" lon="-0.74582">
        <ele>106.2</ele>
        <time>2025-07-23T15:41:08Z</time>
      </trkpt>
      <trkpt lat="44.14839" lon="-0.74547">
        <ele>106.2</ele>
        <time>2025-07-23T15:41:14Z</time>
      </trkpt>
      <trkpt lat="44.14837" lon="-0.74505">
        <ele>106.4</ele>
        <time>2025-07-23T15:41:20Z</time>
      </trkpt>
      <trkpt lat="44.14837" lon="-0.74483">
        <ele>106.6</ele>
        <time>2025-07-23T15:41:23Z</time>
      </trkpt>
      <trkpt lat="44.14839" lon="-0.74444">
        <ele>106.8</ele>
        <time>2025-07-23T15:41:28Z</time>
      </trkpt>
      <trkpt lat="44.14842" lon="-0.74378">
        <ele>107.2</ele>
        <time>2025-07-23T15:41:36Z</time>
      </trkpt>
      <trkpt lat="44.14844" lon="-0.74344">
        <ele>107.4</ele>
        <time>2025-07-23T15:41:40Z</time>
      </trkpt>
      <trkpt lat="44.14846" lon="-0.74304">
        <ele>107.6</ele>
        <time>2025-07-23T15:41:45Z</time>
      </trkpt>
      <trkpt lat="44.14849" lon="-0.74246">
        <ele>107.6</ele>
        <time>2025-07-23T15:41:52Z</time>
      </trkpt>
      <trkpt lat="44.14852" lon="-0.74182">
        <ele>107</ele>
        <time>2025-07-23T15:41:59Z</time>
      </trkpt>
      <trkpt lat="44.14857" lon="-0.74104">
        <ele>106.6</ele>
        <time>2025-07-23T15:42:08Z</time>
      </trkpt>
      <trkpt lat="44.14858" lon="-0.74095">
        <ele>106.4</ele>
        <time>2025-07-23T15:42:09Z</time>
      </trkpt>
      <trkpt lat="44.14858" lon="-0.74065">
        <ele>106.4</ele>
        <time>2025-07-23T15:42:13Z</time>
      </trkpt>
      <trkpt lat="44.14856" lon="-0.74058">
        <ele>106.4</ele>
        <time>2025-07-23T15:42:14Z</time>
      </trkpt>
      <trkpt lat="44.14854" lon="-0.74052">
        <ele>106.6</ele>
        <time>2025-07-23T15:42:15Z</time>
      </trkpt>
      <trkpt lat="44.14843" lon="-0.74025">
        <ele>106.8</ele>
        <time>2025-07-23T15:42:19Z</time>
      </trkpt>
      <trkpt lat="44.14815" lon="-0.7397">
        <ele>107.2</ele>
        <time>2025-07-23T15:42:27Z</time>
      </trkpt>
      <trkpt lat="44.14792" lon="-0.73918">
        <ele>107.4</ele>
        <time>2025-07-23T15:42:34Z</time>
      </trkpt>
      <trkpt lat="44.14764" lon="-0.7385">
        <ele>107</ele>
        <time>2025-07-23T15:42:43Z</time>
      </trkpt>
      <trkpt lat="44.14744" lon="-0.73796">
        <ele>107</ele>
        <time>2025-07-23T15:42:50Z</time>
      </trkpt>
      <trkpt lat="44.14728" lon="-0.73755">
        <ele>107.2</ele>
        <time>2025-07-23T15:42:56Z</time>
      </trkpt>
      <trkpt lat="44.14727" lon="-0.7375">
        <ele>107.2</ele>
        <time>2025-07-23T15:42:57Z</time>
      </trkpt>
      <trkpt lat="44.14724" lon="-0.73743">
        <ele>107.4</ele>
        <time>2025-07-23T15:43:01Z</time>
      </trkpt>
      <trkpt lat="44.14724" lon="-0.73743">
        <ele>107.4</ele>
        <time>2025-07-23T15:43:03Z</time>
      </trkpt>
      <trkpt lat="44.14728" lon="-0.73736">
        <ele>107.2</ele>
        <time>2025-07-23T15:43:09Z</time>
      </trkpt>
      <trkpt lat="44.14731" lon="-0.73733">
        <ele>107.2</ele>
        <time>2025-07-23T15:43:10Z</time>
      </trkpt>
      <trkpt lat="44.14736" lon="-0.73725">
        <ele>107.2</ele>
        <time>2025-07-23T15:43:12Z</time>
      </trkpt>
      <trkpt lat="44.14737" lon="-0.73719">
        <ele>107.2</ele>
        <time>2025-07-23T15:43:13Z</time>
      </trkpt>
      <trkpt lat="44.14737" lon="-0.73712">
        <ele>107.2</ele>
        <time>2025-07-23T15:43:14Z</time>
      </trkpt>
      <trkpt lat="44.14738" lon="-0.73683">
        <ele>107.2</ele>
        <time>2025-07-23T15:43:18Z</time>
      </trkpt>
      <trkpt lat="44.14739" lon="-0.73627">
        <ele>107.4</ele>
        <time>2025-07-23T15:43:25Z</time>
      </trkpt>
      <trkpt lat="44.14739" lon="-0.73603">
        <ele>107.6</ele>
        <time>2025-07-23T15:43:28Z</time>
      </trkpt>
      <trkpt lat="44.14739" lon="-0.73561">
        <ele>107.8</ele>
        <time>2025-07-23T15:43:33Z</time>
      </trkpt>
      <trkpt lat="44.14738" lon="-0.73501">
        <ele>108.4</ele>
        <time>2025-07-23T15:43:40Z</time>
      </trkpt>
      <trkpt lat="44.14738" lon="-0.73438">
        <ele>108.4</ele>
        <time>2025-07-23T15:43:47Z</time>
      </trkpt>
      <trkpt lat="44.14737" lon="-0.73421">
        <ele>108.4</ele>
        <time>2025-07-23T15:43:49Z</time>
      </trkpt>
      <trkpt lat="44.14739" lon="-0.73343">
        <ele>108.2</ele>
        <time>2025-07-23T15:43:58Z</time>
      </trkpt>
      <trkpt lat="44.1474" lon="-0.73335">
        <ele>108.2</ele>
        <time>2025-07-23T15:43:59Z</time>
      </trkpt>
      <trkpt lat="44.14747" lon="-0.73256">
        <ele>108.2</ele>
        <time>2025-07-23T15:44:08Z</time>
      </trkpt>
      <trkpt lat="44.14753" lon="-0.73184">
        <ele>108.4</ele>
        <time>2025-07-23T15:44:16Z</time>
      </trkpt>
      <trkpt lat="44.14754" lon="-0.73167">
        <ele>108.6</ele>
        <time>2025-07-23T15:44:18Z</time>
      </trkpt>
      <trkpt lat="44.14758" lon="-0.73116">
        <ele>108.8</ele>
        <time>2025-07-23T15:44:24Z</time>
      </trkpt>
      <trkpt lat="44.14764" lon="-0.73037">
        <ele>108.6</ele>
        <time>2025-07-23T15:44:33Z</time>
      </trkpt>
      <trkpt lat="44.14766" lon="-0.73018">
        <ele>108.6</ele>
        <time>2025-07-23T15:44:35Z</time>
      </trkpt>
      <trkpt lat="44.14773" lon="-0.72936">
        <ele>108.8</ele>
        <time>2025-07-23T15:44:44Z</time>
      </trkpt>
      <trkpt lat="44.14779" lon="-0.72856">
        <ele>109</ele>
        <time>2025-07-23T15:44:53Z</time>
      </trkpt>
      <trkpt lat="44.1478" lon="-0.72847">
        <ele>109</ele>
        <time>2025-07-23T15:44:54Z</time>
      </trkpt>
      <trkpt lat="44.14785" lon="-0.72767">
        <ele>109</ele>
        <time>2025-07-23T15:45:03Z</time>
      </trkpt>
      <trkpt lat="44.14786" lon="-0.72749">
        <ele>109</ele>
        <time>2025-07-23T15:45:05Z</time>
      </trkpt>
      <trkpt lat="44.14791" lon="-0.72705">
        <ele>109.2</ele>
        <time>2025-07-23T15:45:10Z</time>
      </trkpt>
      <trkpt lat="44.14796" lon="-0.7269">
        <ele>109.2</ele>
        <time>2025-07-23T15:45:12Z</time>
      </trkpt>
      <trkpt lat="44.14804" lon="-0.72675">
        <ele>109.2</ele>
        <time>2025-07-23T15:45:14Z</time>
      </trkpt>
      <trkpt lat="44.14818" lon="-0.72656">
        <ele>109.4</ele>
        <time>2025-07-23T15:45:17Z</time>
      </trkpt>
      <trkpt lat="44.14838" lon="-0.72634">
        <ele>109.6</ele>
        <time>2025-07-23T15:45:21Z</time>
      </trkpt>
      <trkpt lat="44.14847" lon="-0.72625">
        <ele>109.6</ele>
        <time>2025-07-23T15:45:23Z</time>
      </trkpt>
      <trkpt lat="44.14857" lon="-0.72615">
        <ele>109.8</ele>
        <time>2025-07-23T15:45:25Z</time>
      </trkpt>
      <trkpt lat="44.14871" lon="-0.72601">
        <ele>109.8</ele>
        <time>2025-07-23T15:45:28Z</time>
      </trkpt>
      <trkpt lat="44.14876" lon="-0.72596">
        <ele>109.8</ele>
        <time>2025-07-23T15:45:29Z</time>
      </trkpt>
      <trkpt lat="44.14912" lon="-0.72558">
        <ele>109.4</ele>
        <time>2025-07-23T15:45:36Z</time>
      </trkpt>
      <trkpt lat="44.14917" lon="-0.72552">
        <ele>109.6</ele>
        <time>2025-07-23T15:45:37Z</time>
      </trkpt>
      <trkpt lat="44.14927" lon="-0.72541">
        <ele>109.4</ele>
        <time>2025-07-23T15:45:39Z</time>
      </trkpt>
      <trkpt lat="44.14942" lon="-0.72519">
        <ele>109.6</ele>
        <time>2025-07-23T15:45:42Z</time>
      </trkpt>
      <trkpt lat="44.14959" lon="-0.72477">
        <ele>109.6</ele>
        <time>2025-07-23T15:45:47Z</time>
      </trkpt>
      <trkpt lat="44.14972" lon="-0.72417">
        <ele>109.6</ele>
        <time>2025-07-23T15:45:54Z</time>
      </trkpt>
      <trkpt lat="44.14987" lon="-0.72344">
        <ele>109.2</ele>
        <time>2025-07-23T15:46:02Z</time>
      </trkpt>
      <trkpt lat="44.14991" lon="-0.72329">
        <ele>109.2</ele>
        <time>2025-07-23T15:46:04Z</time>
      </trkpt>
      <trkpt lat="44.15008" lon="-0.7225">
        <ele>109.4</ele>
        <time>2025-07-23T15:46:13Z</time>
      </trkpt>
      <trkpt lat="44.1501" lon="-0.72241">
        <ele>109.4</ele>
        <time>2025-07-23T15:46:14Z</time>
      </trkpt>
      <trkpt lat="44.15027" lon="-0.72162">
        <ele>109.4</ele>
        <time>2025-07-23T15:46:23Z</time>
      </trkpt>
      <trkpt lat="44.15029" lon="-0.72153">
        <ele>109.6</ele>
        <time>2025-07-23T15:46:24Z</time>
      </trkpt>
      <trkpt lat="44.15033" lon="-0.72136">
        <ele>109.8</ele>
        <time>2025-07-23T15:46:26Z</time>
      </trkpt>
      <trkpt lat="44.15046" lon="-0.72074">
        <ele>110.2</ele>
        <time>2025-07-23T15:46:33Z</time>
      </trkpt>
      <trkpt lat="44.1505" lon="-0.72055">
        <ele>110.2</ele>
        <time>2025-07-23T15:46:35Z</time>
      </trkpt>
      <trkpt lat="44.15066" lon="-0.71978">
        <ele>110</ele>
        <time>2025-07-23T15:46:44Z</time>
      </trkpt>
      <trkpt lat="44.15069" lon="-0.71961">
        <ele>110</ele>
        <time>2025-07-23T15:46:46Z</time>
      </trkpt>
      <trkpt lat="44.15086" lon="-0.7188">
        <ele>109.8</ele>
        <time>2025-07-23T15:46:55Z</time>
      </trkpt>
      <trkpt lat="44.15088" lon="-0.71869">
        <ele>109.8</ele>
        <time>2025-07-23T15:46:56Z</time>
      </trkpt>
      <trkpt lat="44.15105" lon="-0.71791">
        <ele>109.8</ele>
        <time>2025-07-23T15:47:05Z</time>
      </trkpt>
      <trkpt lat="44.15107" lon="-0.71782">
        <ele>109.8</ele>
        <time>2025-07-23T15:47:06Z</time>
      </trkpt>
      <trkpt lat="44.15123" lon="-0.71703">
        <ele>110</ele>
        <time>2025-07-23T15:47:15Z</time>
      </trkpt>
      <trkpt lat="44.15141" lon="-0.7162">
        <ele>110.4</ele>
        <time>2025-07-23T15:47:24Z</time>
      </trkpt>
      <trkpt lat="44.15142" lon="-0.71613">
        <ele>110.4</ele>
        <time>2025-07-23T15:47:25Z</time>
      </trkpt>
      <trkpt lat="44.1516" lon="-0.71532">
        <ele>110.6</ele>
        <time>2025-07-23T15:47:34Z</time>
      </trkpt>
      <trkpt lat="44.1517" lon="-0.71488">
        <ele>110.6</ele>
        <time>2025-07-23T15:47:39Z</time>
      </trkpt>
      <trkpt lat="44.15187" lon="-0.71409">
        <ele>110.6</ele>
        <time>2025-07-23T15:47:48Z</time>
      </trkpt>
      <trkpt lat="44.152" lon="-0.71349">
        <ele>111</ele>
        <time>2025-07-23T15:47:55Z</time>
      </trkpt>
      <trkpt lat="44.15214" lon="-0.71286">
        <ele>111</ele>
        <time>2025-07-23T15:48:02Z</time>
      </trkpt>
      <trkpt lat="44.1522" lon="-0.7126">
        <ele>110.8</ele>
        <time>2025-07-23T15:48:05Z</time>
      </trkpt>
      <trkpt lat="44.15226" lon="-0.71235">
        <ele>111</ele>
        <time>2025-07-23T15:48:08Z</time>
      </trkpt>
      <trkpt lat="44.15241" lon="-0.71162">
        <ele>111.2</ele>
        <time>2025-07-23T15:48:16Z</time>
      </trkpt>
      <trkpt lat="44.15247" lon="-0.71135">
        <ele>111.2</ele>
        <time>2025-07-23T15:48:19Z</time>
      </trkpt>
      <trkpt lat="44.15264" lon="-0.71056">
        <ele>111.2</ele>
        <time>2025-07-23T15:48:28Z</time>
      </trkpt>
      <trkpt lat="44.15266" lon="-0.71047">
        <ele>111.2</ele>
        <time>2025-07-23T15:48:29Z</time>
      </trkpt>
      <trkpt lat="44.15283" lon="-0.70966">
        <ele>111.2</ele>
        <time>2025-07-23T15:48:38Z</time>
      </trkpt>
      <trkpt lat="44.15287" lon="-0.70949">
        <ele>111.2</ele>
        <time>2025-07-23T15:48:40Z</time>
      </trkpt>
      <trkpt lat="44.15303" lon="-0.70876">
        <ele>111.2</ele>
        <time>2025-07-23T15:48:48Z</time>
      </trkpt>
      <trkpt lat="44.15319" lon="-0.70797">
        <ele>111.2</ele>
        <time>2025-07-23T15:48:57Z</time>
      </trkpt>
      <trkpt lat="44.15336" lon="-0.70718">
        <ele>111.2</ele>
        <time>2025-07-23T15:49:06Z</time>
      </trkpt>
      <trkpt lat="44.15339" lon="-0.70707">
        <ele>111.2</ele>
        <time>2025-07-23T15:49:07Z</time>
      </trkpt>
      <trkpt lat="44.15355" lon="-0.70632">
        <ele>111</ele>
        <time>2025-07-23T15:49:16Z</time>
      </trkpt>
      <trkpt lat="44.15359" lon="-0.70613">
        <ele>111</ele>
        <time>2025-07-23T15:49:18Z</time>
      </trkpt>
      <trkpt lat="44.15376" lon="-0.70534">
        <ele>110.8</ele>
        <time>2025-07-23T15:49:27Z</time>
      </trkpt>
      <trkpt lat="44.15379" lon="-0.70518">
        <ele>110.8</ele>
        <time>2025-07-23T15:49:29Z</time>
      </trkpt>
      <trkpt lat="44.15394" lon="-0.70447">
        <ele>111.2</ele>
        <time>2025-07-23T15:49:37Z</time>
      </trkpt>
      <trkpt lat="44.1541" lon="-0.70369">
        <ele>110.8</ele>
        <time>2025-07-23T15:49:46Z</time>
      </trkpt>
      <trkpt lat="44.15412" lon="-0.7036">
        <ele>110.8</ele>
        <time>2025-07-23T15:49:47Z</time>
      </trkpt>
      <trkpt lat="44.15428" lon="-0.70283">
        <ele>111.2</ele>
        <time>2025-07-23T15:49:56Z</time>
      </trkpt>
      <trkpt lat="44.1543" lon="-0.70274">
        <ele>111.2</ele>
        <time>2025-07-23T15:49:57Z</time>
      </trkpt>
      <trkpt lat="44.15447" lon="-0.70196">
        <ele>111.4</ele>
        <time>2025-07-23T15:50:06Z</time>
      </trkpt>
      <trkpt lat="44.15463" lon="-0.70117">
        <ele>111.4</ele>
        <time>2025-07-23T15:50:15Z</time>
      </trkpt>
      <trkpt lat="44.15471" lon="-0.70082">
        <ele>111.6</ele>
        <time>2025-07-23T15:50:19Z</time>
      </trkpt>
      <trkpt lat="44.15488" lon="-0.70005">
        <ele>112</ele>
        <time>2025-07-23T15:50:28Z</time>
      </trkpt>
      <trkpt lat="44.15496" lon="-0.6997">
        <ele>112</ele>
        <time>2025-07-23T15:50:32Z</time>
      </trkpt>
      <trkpt lat="44.1551" lon="-0.69904">
        <ele>112.4</ele>
        <time>2025-07-23T15:50:40Z</time>
      </trkpt>
      <trkpt lat="44.15512" lon="-0.69894">
        <ele>112.4</ele>
        <time>2025-07-23T15:50:41Z</time>
      </trkpt>
      <trkpt lat="44.15528" lon="-0.69818">
        <ele>112.6</ele>
        <time>2025-07-23T15:50:50Z</time>
      </trkpt>
      <trkpt lat="44.15534" lon="-0.6979">
        <ele>112.6</ele>
        <time>2025-07-23T15:50:53Z</time>
      </trkpt>
      <trkpt lat="44.15551" lon="-0.69711">
        <ele>112.6</ele>
        <time>2025-07-23T15:51:02Z</time>
      </trkpt>
      <trkpt lat="44.15553" lon="-0.69703">
        <ele>112.6</ele>
        <time>2025-07-23T15:51:03Z</time>
      </trkpt>
      <trkpt lat="44.1557" lon="-0.69625">
        <ele>112.8</ele>
        <time>2025-07-23T15:51:12Z</time>
      </trkpt>
      <trkpt lat="44.15576" lon="-0.69598">
        <ele>113</ele>
        <time>2025-07-23T15:51:15Z</time>
      </trkpt>
      <trkpt lat="44.15583" lon="-0.69564">
        <ele>113.4</ele>
        <time>2025-07-23T15:51:19Z</time>
      </trkpt>
      <trkpt lat="44.15588" lon="-0.6954">
        <ele>113.4</ele>
        <time>2025-07-23T15:51:22Z</time>
      </trkpt>
      <trkpt lat="44.15598" lon="-0.69497">
        <ele>113.6</ele>
        <time>2025-07-23T15:51:27Z</time>
      </trkpt>
      <trkpt lat="44.15615" lon="-0.69419">
        <ele>114</ele>
        <time>2025-07-23T15:51:36Z</time>
      </trkpt>
      <trkpt lat="44.1563" lon="-0.69349">
        <ele>113.6</ele>
        <time>2025-07-23T15:51:44Z</time>
      </trkpt>
      <trkpt lat="44.15647" lon="-0.69271">
        <ele>113.6</ele>
        <time>2025-07-23T15:51:53Z</time>
      </trkpt>
      <trkpt lat="44.15648" lon="-0.69262">
        <ele>113.6</ele>
        <time>2025-07-23T15:51:54Z</time>
      </trkpt>
      <trkpt lat="44.15666" lon="-0.69183">
        <ele>114.2</ele>
        <time>2025-07-23T15:52:03Z</time>
      </trkpt>
      <trkpt lat="44.15667" lon="-0.69175">
        <ele>114.4</ele>
        <time>2025-07-23T15:52:04Z</time>
      </trkpt>
      <trkpt lat="44.15672" lon="-0.69156">
        <ele>114.4</ele>
        <time>2025-07-23T15:52:06Z</time>
      </trkpt>
      <trkpt lat="44.15681" lon="-0.69113">
        <ele>114.6</ele>
        <time>2025-07-23T15:52:11Z</time>
      </trkpt>
      <trkpt lat="44.15693" lon="-0.69053">
        <ele>114.6</ele>
        <time>2025-07-23T15:52:18Z</time>
      </trkpt>
      <trkpt lat="44.15709" lon="-0.6898">
        <ele>114.8</ele>
        <time>2025-07-23T15:52:26Z</time>
      </trkpt>
      <trkpt lat="44.15724" lon="-0.6891">
        <ele>114.6</ele>
        <time>2025-07-23T15:52:34Z</time>
      </trkpt>
      <trkpt lat="44.15737" lon="-0.68848">
        <ele>115.2</ele>
        <time>2025-07-23T15:52:41Z</time>
      </trkpt>
      <trkpt lat="44.15742" lon="-0.68824">
        <ele>115.4</ele>
        <time>2025-07-23T15:52:44Z</time>
      </trkpt>
      <trkpt lat="44.15746" lon="-0.68806">
        <ele>115.4</ele>
        <time>2025-07-23T15:52:47Z</time>
      </trkpt>
      <trkpt lat="44.15754" lon="-0.68767">
        <ele>114.8</ele>
        <time>2025-07-23T15:52:54Z</time>
      </trkpt>
      <trkpt lat="44.15755" lon="-0.68759">
        <ele>114.8</ele>
        <time>2025-07-23T15:52:58Z</time>
      </trkpt>
      <trkpt lat="44.15755" lon="-0.68759">
        <ele>114.8</ele>
        <time>2025-07-23T15:52:59Z</time>
      </trkpt>
      <trkpt lat="44.15756" lon="-0.68755">
        <ele>114.2</ele>
        <time>2025-07-23T15:53:24Z</time>
      </trkpt>
      <trkpt lat="44.15758" lon="-0.68748">
        <ele>114.4</ele>
        <time>2025-07-23T15:53:26Z</time>
      </trkpt>
      <trkpt lat="44.15765" lon="-0.68719">
        <ele>114.6</ele>
        <time>2025-07-23T15:53:32Z</time>
      </trkpt>
      <trkpt lat="44.15774" lon="-0.68678">
        <ele>114.6</ele>
        <time>2025-07-23T15:53:38Z</time>
      </trkpt>
      <trkpt lat="44.15777" lon="-0.68663">
        <ele>114.6</ele>
        <time>2025-07-23T15:53:40Z</time>
      </trkpt>
      <trkpt lat="44.15782" lon="-0.68641">
        <ele>114.6</ele>
        <time>2025-07-23T15:53:43Z</time>
      </trkpt>
      <trkpt lat="44.15795" lon="-0.68572">
        <ele>115.4</ele>
        <time>2025-07-23T15:53:52Z</time>
      </trkpt>
      <trkpt lat="44.15811" lon="-0.68498">
        <ele>115.2</ele>
        <time>2025-07-23T15:54:01Z</time>
      </trkpt>
      <trkpt lat="44.15828" lon="-0.68421">
        <ele>115.6</ele>
        <time>2025-07-23T15:54:10Z</time>
      </trkpt>
      <trkpt lat="44.1583" lon="-0.68413">
        <ele>115.6</ele>
        <time>2025-07-23T15:54:11Z</time>
      </trkpt>
      <trkpt lat="44.15846" lon="-0.68333">
        <ele>115.6</ele>
        <time>2025-07-23T15:54:20Z</time>
      </trkpt>
      <trkpt lat="44.15863" lon="-0.68254">
        <ele>115.4</ele>
        <time>2025-07-23T15:54:29Z</time>
      </trkpt>
      <trkpt lat="44.15867" lon="-0.68236">
        <ele>115.4</ele>
        <time>2025-07-23T15:54:31Z</time>
      </trkpt>
      <trkpt lat="44.15882" lon="-0.68163">
        <ele>115.4</ele>
        <time>2025-07-23T15:54:39Z</time>
      </trkpt>
      <trkpt lat="44.1589" lon="-0.68127">
        <ele>115.2</ele>
        <time>2025-07-23T15:54:43Z</time>
      </trkpt>
      <trkpt lat="44.15906" lon="-0.68051">
        <ele>115.6</ele>
        <time>2025-07-23T15:54:51Z</time>
      </trkpt>
      <trkpt lat="44.1592" lon="-0.67984">
        <ele>115.6</ele>
        <time>2025-07-23T15:54:58Z</time>
      </trkpt>
      <trkpt lat="44.15935" lon="-0.67908">
        <ele>116</ele>
        <time>2025-07-23T15:55:06Z</time>
      </trkpt>
      <trkpt lat="44.15945" lon="-0.6786">
        <ele>115.8</ele>
        <time>2025-07-23T15:55:11Z</time>
      </trkpt>
      <trkpt lat="44.1596" lon="-0.67783">
        <ele>115.6</ele>
        <time>2025-07-23T15:55:19Z</time>
      </trkpt>
      <trkpt lat="44.15965" lon="-0.67755">
        <ele>115.8</ele>
        <time>2025-07-23T15:55:22Z</time>
      </trkpt>
      <trkpt lat="44.15982" lon="-0.67678">
        <ele>115.8</ele>
        <time>2025-07-23T15:55:30Z</time>
      </trkpt>
      <trkpt lat="44.15987" lon="-0.6765">
        <ele>115.8</ele>
        <time>2025-07-23T15:55:33Z</time>
      </trkpt>
      <trkpt lat="44.16002" lon="-0.67577">
        <ele>116.2</ele>
        <time>2025-07-23T15:55:41Z</time>
      </trkpt>
      <trkpt lat="44.16018" lon="-0.67503">
        <ele>116.4</ele>
        <time>2025-07-23T15:55:49Z</time>
      </trkpt>
      <trkpt lat="44.1602" lon="-0.67494">
        <ele>116.4</ele>
        <time>2025-07-23T15:55:50Z</time>
      </trkpt>
      <trkpt lat="44.16024" lon="-0.67476">
        <ele>116.6</ele>
        <time>2025-07-23T15:55:52Z</time>
      </trkpt>
      <trkpt lat="44.16037" lon="-0.67414">
        <ele>116.6</ele>
        <time>2025-07-23T15:55:59Z</time>
      </trkpt>
      <trkpt lat="44.16053" lon="-0.67342">
        <ele>116.6</ele>
        <time>2025-07-23T15:56:07Z</time>
      </trkpt>
      <trkpt lat="44.16069" lon="-0.6727">
        <ele>116.8</ele>
        <time>2025-07-23T15:56:15Z</time>
      </trkpt>
      <trkpt lat="44.16073" lon="-0.67252">
        <ele>117</ele>
        <time>2025-07-23T15:56:17Z</time>
      </trkpt>
      <trkpt lat="44.16089" lon="-0.67177">
        <ele>117</ele>
        <time>2025-07-23T15:56:26Z</time>
      </trkpt>
      <trkpt lat="44.16093" lon="-0.6716">
        <ele>117</ele>
        <time>2025-07-23T15:56:28Z</time>
      </trkpt>
      <trkpt lat="44.16105" lon="-0.6711">
        <ele>117.6</ele>
        <time>2025-07-23T15:56:33Z</time>
      </trkpt>
      <trkpt lat="44.16116" lon="-0.6706">
        <ele>118</ele>
        <time>2025-07-23T15:56:39Z</time>
      </trkpt>
      <trkpt lat="44.16135" lon="-0.66975">
        <ele>118</ele>
        <time>2025-07-23T15:56:49Z</time>
      </trkpt>
      <trkpt lat="44.16137" lon="-0.66966">
        <ele>117.8</ele>
        <time>2025-07-23T15:56:50Z</time>
      </trkpt>
      <trkpt lat="44.16153" lon="-0.66889">
        <ele>117.8</ele>
        <time>2025-07-23T15:56:59Z</time>
      </trkpt>
      <trkpt lat="44.16155" lon="-0.6688">
        <ele>117.8</ele>
        <time>2025-07-23T15:57:00Z</time>
      </trkpt>
      <trkpt lat="44.16171" lon="-0.66802">
        <ele>117.8</ele>
        <time>2025-07-23T15:57:09Z</time>
      </trkpt>
      <trkpt lat="44.16176" lon="-0.66775">
        <ele>117.8</ele>
        <time>2025-07-23T15:57:12Z</time>
      </trkpt>
      <trkpt lat="44.16193" lon="-0.667">
        <ele>118.2</ele>
        <time>2025-07-23T15:57:20Z</time>
      </trkpt>
      <trkpt lat="44.16197" lon="-0.66681">
        <ele>118.2</ele>
        <time>2025-07-23T15:57:22Z</time>
      </trkpt>
      <trkpt lat="44.16212" lon="-0.66607">
        <ele>118.4</ele>
        <time>2025-07-23T15:57:30Z</time>
      </trkpt>
      <trkpt lat="44.16214" lon="-0.66598">
        <ele>118.4</ele>
        <time>2025-07-23T15:57:31Z</time>
      </trkpt>
      <trkpt lat="44.16228" lon="-0.66528">
        <ele>118.2</ele>
        <time>2025-07-23T15:57:39Z</time>
      </trkpt>
      <trkpt lat="44.16237" lon="-0.66451">
        <ele>118.2</ele>
        <time>2025-07-23T15:57:48Z</time>
      </trkpt>
      <trkpt lat="44.1624" lon="-0.66433">
        <ele>118.2</ele>
        <time>2025-07-23T15:57:50Z</time>
      </trkpt>
      <trkpt lat="44.16253" lon="-0.66395">
        <ele>118.2</ele>
        <time>2025-07-23T15:57:55Z</time>
      </trkpt>
      <trkpt lat="44.16268" lon="-0.66368">
        <ele>118.4</ele>
        <time>2025-07-23T15:57:59Z</time>
      </trkpt>
      <trkpt lat="44.16276" lon="-0.66357">
        <ele>118.6</ele>
        <time>2025-07-23T15:58:01Z</time>
      </trkpt>
      <trkpt lat="44.16307" lon="-0.66324">
        <ele>118.6</ele>
        <time>2025-07-23T15:58:07Z</time>
      </trkpt>
      <trkpt lat="44.1632" lon="-0.66309">
        <ele>118.6</ele>
        <time>2025-07-23T15:58:10Z</time>
      </trkpt>
      <trkpt lat="44.16329" lon="-0.66297">
        <ele>118.6</ele>
        <time>2025-07-23T15:58:12Z</time>
      </trkpt>
      <trkpt lat="44.16352" lon="-0.66264">
        <ele>118.4</ele>
        <time>2025-07-23T15:58:17Z</time>
      </trkpt>
      <trkpt lat="44.16364" lon="-0.66243">
        <ele>118.2</ele>
        <time>2025-07-23T15:58:20Z</time>
      </trkpt>
      <trkpt lat="44.16379" lon="-0.66213">
        <ele>118</ele>
        <time>2025-07-23T15:58:24Z</time>
      </trkpt>
      <trkpt lat="44.1641" lon="-0.66151">
        <ele>118</ele>
        <time>2025-07-23T15:58:32Z</time>
      </trkpt>
      <trkpt lat="44.16445" lon="-0.66083">
        <ele>118.4</ele>
        <time>2025-07-23T15:58:41Z</time>
      </trkpt>
      <trkpt lat="44.1646" lon="-0.66053">
        <ele>118.8</ele>
        <time>2025-07-23T15:58:45Z</time>
      </trkpt>
      <trkpt lat="44.16485" lon="-0.66004">
        <ele>119</ele>
        <time>2025-07-23T15:58:53Z</time>
      </trkpt>
      <trkpt lat="44.16518" lon="-0.65938">
        <ele>118.8</ele>
        <time>2025-07-23T15:59:01Z</time>
      </trkpt>
      <trkpt lat="44.16522" lon="-0.65931">
        <ele>118.8</ele>
        <time>2025-07-23T15:59:02Z</time>
      </trkpt>
      <trkpt lat="44.16554" lon="-0.65867">
        <ele>119.4</ele>
        <time>2025-07-23T15:59:11Z</time>
      </trkpt>
      <trkpt lat="44.16562" lon="-0.6585">
        <ele>119.4</ele>
        <time>2025-07-23T15:59:13Z</time>
      </trkpt>
      <trkpt lat="44.16587" lon="-0.65801">
        <ele>119.4</ele>
        <time>2025-07-23T15:59:20Z</time>
      </trkpt>
      <trkpt lat="44.16621" lon="-0.65734">
        <ele>119.2</ele>
        <time>2025-07-23T15:59:29Z</time>
      </trkpt>
      <trkpt lat="44.16629" lon="-0.65719">
        <ele>119.2</ele>
        <time>2025-07-23T15:59:31Z</time>
      </trkpt>
      <trkpt lat="44.16652" lon="-0.65672">
        <ele>119.6</ele>
        <time>2025-07-23T15:59:37Z</time>
      </trkpt>
      <trkpt lat="44.16659" lon="-0.6566">
        <ele>119.8</ele>
        <time>2025-07-23T15:59:39Z</time>
      </trkpt>
      <trkpt lat="44.16663" lon="-0.65651">
        <ele>119.6</ele>
        <time>2025-07-23T15:59:40Z</time>
      </trkpt>
      <trkpt lat="44.16669" lon="-0.65638">
        <ele>119.8</ele>
        <time>2025-07-23T15:59:43Z</time>
      </trkpt>
      <trkpt lat="44.16698" lon="-0.65578">
        <ele>120.6</ele>
        <time>2025-07-23T15:59:50Z</time>
      </trkpt>
      <trkpt lat="44.16708" lon="-0.65557">
        <ele>120.8</ele>
        <time>2025-07-23T15:59:53Z</time>
      </trkpt>
      <trkpt lat="44.16721" lon="-0.65525">
        <ele>120.6</ele>
        <time>2025-07-23T15:59:57Z</time>
      </trkpt>
      <trkpt lat="44.16721" lon="-0.65525">
        <ele>120.6</ele>
        <time>2025-07-23T15:59:58Z</time>
      </trkpt>
      <trkpt lat="44.16742" lon="-0.65457">
        <ele>120.8</ele>
        <time>2025-07-23T16:00:05Z</time>
      </trkpt>
      <trkpt lat="44.16763" lon="-0.65386">
        <ele>121.6</ele>
        <time>2025-07-23T16:00:14Z</time>
      </trkpt>
      <trkpt lat="44.16767" lon="-0.65371">
        <ele>121.6</ele>
        <time>2025-07-23T16:00:16Z</time>
      </trkpt>
      <trkpt lat="44.16784" lon="-0.65323">
        <ele>121.8</ele>
        <time>2025-07-23T16:00:22Z</time>
      </trkpt>
      <trkpt lat="44.16791" lon="-0.65308">
        <ele>121.8</ele>
        <time>2025-07-23T16:00:24Z</time>
      </trkpt>
      <trkpt lat="44.1682" lon="-0.65261">
        <ele>121.8</ele>
        <time>2025-07-23T16:00:31Z</time>
      </trkpt>
      <trkpt lat="44.16857" lon="-0.65205">
        <ele>122.2</ele>
        <time>2025-07-23T16:00:39Z</time>
      </trkpt>
      <trkpt lat="44.16865" lon="-0.65192">
        <ele>122.4</ele>
        <time>2025-07-23T16:00:41Z</time>
      </trkpt>
      <trkpt lat="44.1689" lon="-0.6515">
        <ele>122.4</ele>
        <time>2025-07-23T16:00:47Z</time>
      </trkpt>
      <trkpt lat="44.16922" lon="-0.65103">
        <ele>122.2</ele>
        <time>2025-07-23T16:00:54Z</time>
      </trkpt>
      <trkpt lat="44.16955" lon="-0.65055">
        <ele>122.6</ele>
        <time>2025-07-23T16:01:01Z</time>
      </trkpt>
      <trkpt lat="44.1698" lon="-0.65024">
        <ele>122.8</ele>
        <time>2025-07-23T16:01:06Z</time>
      </trkpt>
      <trkpt lat="44.16989" lon="-0.65014">
        <ele>122.8</ele>
        <time>2025-07-23T16:01:08Z</time>
      </trkpt>
      <trkpt lat="44.1704" lon="-0.64969">
        <ele>123</ele>
        <time>2025-07-23T16:01:17Z</time>
      </trkpt>
      <trkpt lat="44.17078" lon="-0.64935">
        <ele>123.2</ele>
        <time>2025-07-23T16:01:24Z</time>
      </trkpt>
      <trkpt lat="44.17116" lon="-0.64902">
        <ele>123.4</ele>
        <time>2025-07-23T16:01:31Z</time>
      </trkpt>
      <trkpt lat="44.17153" lon="-0.64869">
        <ele>123.6</ele>
        <time>2025-07-23T16:01:38Z</time>
      </trkpt>
      <trkpt lat="44.17171" lon="-0.64854">
        <ele>123.8</ele>
        <time>2025-07-23T16:01:41Z</time>
      </trkpt>
      <trkpt lat="44.17212" lon="-0.64818">
        <ele>123.8</ele>
        <time>2025-07-23T16:01:48Z</time>
      </trkpt>
      <trkpt lat="44.17269" lon="-0.6477">
        <ele>124.2</ele>
        <time>2025-07-23T16:01:58Z</time>
      </trkpt>
      <trkpt lat="44.1728" lon="-0.64759">
        <ele>124.2</ele>
        <time>2025-07-23T16:02:00Z</time>
      </trkpt>
      <trkpt lat="44.17319" lon="-0.64726">
        <ele>124.2</ele>
        <time>2025-07-23T16:02:07Z</time>
      </trkpt>
      <trkpt lat="44.17369" lon="-0.64683">
        <ele>124.6</ele>
        <time>2025-07-23T16:02:16Z</time>
      </trkpt>
      <trkpt lat="44.17374" lon="-0.64678">
        <ele>124.6</ele>
        <time>2025-07-23T16:02:17Z</time>
      </trkpt>
      <trkpt lat="44.1738" lon="-0.64673">
        <ele>124.6</ele>
        <time>2025-07-23T16:02:18Z</time>
      </trkpt>
      <trkpt lat="44.17413" lon="-0.64645">
        <ele>124.4</ele>
        <time>2025-07-23T16:02:24Z</time>
      </trkpt>
      <trkpt lat="44.17431" lon="-0.6463">
        <ele>124.6</ele>
        <time>2025-07-23T16:02:27Z</time>
      </trkpt>
      <trkpt lat="44.17477" lon="-0.64591">
        <ele>125.2</ele>
        <time>2025-07-23T16:02:35Z</time>
      </trkpt>
      <trkpt lat="44.17489" lon="-0.64581">
        <ele>125.6</ele>
        <time>2025-07-23T16:02:37Z</time>
      </trkpt>
      <trkpt lat="44.17511" lon="-0.64561">
        <ele>125.6</ele>
        <time>2025-07-23T16:02:41Z</time>
      </trkpt>
      <trkpt lat="44.17533" lon="-0.64543">
        <ele>125.6</ele>
        <time>2025-07-23T16:02:45Z</time>
      </trkpt>
      <trkpt lat="44.17583" lon="-0.645">
        <ele>125.6</ele>
        <time>2025-07-23T16:02:54Z</time>
      </trkpt>
      <trkpt lat="44.17588" lon="-0.64494">
        <ele>125.6</ele>
        <time>2025-07-23T16:02:55Z</time>
      </trkpt>
      <trkpt lat="44.1762" lon="-0.64451">
        <ele>126</ele>
        <time>2025-07-23T16:03:02Z</time>
      </trkpt>
      <trkpt lat="44.17655" lon="-0.64392">
        <ele>126.4</ele>
        <time>2025-07-23T16:03:11Z</time>
      </trkpt>
      <trkpt lat="44.17659" lon="-0.64385">
        <ele>126.4</ele>
        <time>2025-07-23T16:03:12Z</time>
      </trkpt>
      <trkpt lat="44.17678" lon="-0.64351">
        <ele>126.6</ele>
        <time>2025-07-23T16:03:17Z</time>
      </trkpt>
      <trkpt lat="44.17693" lon="-0.64325">
        <ele>126.8</ele>
        <time>2025-07-23T16:03:21Z</time>
      </trkpt>
      <trkpt lat="44.17714" lon="-0.64291">
        <ele>127.4</ele>
        <time>2025-07-23T16:03:27Z</time>
      </trkpt>
      <trkpt lat="44.17722" lon="-0.64277">
        <ele>127.4</ele>
        <time>2025-07-23T16:03:28Z</time>
      </trkpt>
      <trkpt lat="44.17755" lon="-0.64222">
        <ele>127.4</ele>
        <time>2025-07-23T16:03:36Z</time>
      </trkpt>
      <trkpt lat="44.17767" lon="-0.64202">
        <ele>127.4</ele>
        <time>2025-07-23T16:03:39Z</time>
      </trkpt>
      <trkpt lat="44.17796" lon="-0.64153">
        <ele>128</ele>
        <time>2025-07-23T16:03:46Z</time>
      </trkpt>
      <trkpt lat="44.1783" lon="-0.64097">
        <ele>128.4</ele>
        <time>2025-07-23T16:03:54Z</time>
      </trkpt>
      <trkpt lat="44.17855" lon="-0.64054">
        <ele>128.4</ele>
        <time>2025-07-23T16:04:00Z</time>
      </trkpt>
      <trkpt lat="44.17894" lon="-0.63989">
        <ele>127.8</ele>
        <time>2025-07-23T16:04:09Z</time>
      </trkpt>
      <trkpt lat="44.17903" lon="-0.63974">
        <ele>127.6</ele>
        <time>2025-07-23T16:04:11Z</time>
      </trkpt>
      <trkpt lat="44.17937" lon="-0.63915">
        <ele>128.2</ele>
        <time>2025-07-23T16:04:19Z</time>
      </trkpt>
      <trkpt lat="44.17976" lon="-0.63852">
        <ele>128.6</ele>
        <time>2025-07-23T16:04:28Z</time>
      </trkpt>
      <trkpt lat="44.17989" lon="-0.6383">
        <ele>128.6</ele>
        <time>2025-07-23T16:04:31Z</time>
      </trkpt>
      <trkpt lat="44.18031" lon="-0.6376">
        <ele>129</ele>
        <time>2025-07-23T16:04:41Z</time>
      </trkpt>
      <trkpt lat="44.18068" lon="-0.63699">
        <ele>129.2</ele>
        <time>2025-07-23T16:04:50Z</time>
      </trkpt>
      <trkpt lat="44.18072" lon="-0.63693">
        <ele>129</ele>
        <time>2025-07-23T16:04:51Z</time>
      </trkpt>
      <trkpt lat="44.18109" lon="-0.63632">
        <ele>128.8</ele>
        <time>2025-07-23T16:05:00Z</time>
      </trkpt>
      <trkpt lat="44.18113" lon="-0.63625">
        <ele>128.8</ele>
        <time>2025-07-23T16:05:01Z</time>
      </trkpt>
      <trkpt lat="44.1815" lon="-0.63562">
        <ele>129.2</ele>
        <time>2025-07-23T16:05:10Z</time>
      </trkpt>
      <trkpt lat="44.18155" lon="-0.63555">
        <ele>129.2</ele>
        <time>2025-07-23T16:05:11Z</time>
      </trkpt>
      <trkpt lat="44.18193" lon="-0.6349">
        <ele>129.6</ele>
        <time>2025-07-23T16:05:20Z</time>
      </trkpt>
      <trkpt lat="44.18202" lon="-0.63475">
        <ele>129.8</ele>
        <time>2025-07-23T16:05:22Z</time>
      </trkpt>
      <trkpt lat="44.18241" lon="-0.6341">
        <ele>130.2</ele>
        <time>2025-07-23T16:05:31Z</time>
      </trkpt>
      <trkpt lat="44.18254" lon="-0.63388">
        <ele>130.2</ele>
        <time>2025-07-23T16:05:34Z</time>
      </trkpt>
      <trkpt lat="44.18262" lon="-0.63375">
        <ele>130.4</ele>
        <time>2025-07-23T16:05:36Z</time>
      </trkpt>
      <trkpt lat="44.18299" lon="-0.63313">
        <ele>130.4</ele>
        <time>2025-07-23T16:05:45Z</time>
      </trkpt>
      <trkpt lat="44.18311" lon="-0.63292">
        <ele>130.4</ele>
        <time>2025-07-23T16:05:48Z</time>
      </trkpt>
      <trkpt lat="44.1834" lon="-0.63244">
        <ele>131</ele>
        <time>2025-07-23T16:05:55Z</time>
      </trkpt>
      <trkpt lat="44.18376" lon="-0.63185">
        <ele>131.6</ele>
        <time>2025-07-23T16:06:03Z</time>
      </trkpt>
      <trkpt lat="44.18385" lon="-0.6317">
        <ele>131.6</ele>
        <time>2025-07-23T16:06:05Z</time>
      </trkpt>
      <trkpt lat="44.1842" lon="-0.6311">
        <ele>132</ele>
        <time>2025-07-23T16:06:13Z</time>
      </trkpt>
      <trkpt lat="44.18424" lon="-0.63102">
        <ele>132</ele>
        <time>2025-07-23T16:06:14Z</time>
      </trkpt>
      <trkpt lat="44.18433" lon="-0.63088">
        <ele>132</ele>
        <time>2025-07-23T16:06:16Z</time>
      </trkpt>
      <trkpt lat="44.18472" lon="-0.63025">
        <ele>132.2</ele>
        <time>2025-07-23T16:06:25Z</time>
      </trkpt>
      <trkpt lat="44.18501" lon="-0.62977">
        <ele>132.4</ele>
        <time>2025-07-23T16:06:32Z</time>
      </trkpt>
      <trkpt lat="44.18513" lon="-0.62957">
        <ele>132.6</ele>
        <time>2025-07-23T16:06:35Z</time>
      </trkpt>
      <trkpt lat="44.18541" lon="-0.6291">
        <ele>133.2</ele>
        <time>2025-07-23T16:06:42Z</time>
      </trkpt>
      <trkpt lat="44.18545" lon="-0.62903">
        <ele>133.2</ele>
        <time>2025-07-23T16:06:43Z</time>
      </trkpt>
      <trkpt lat="44.18582" lon="-0.62842">
        <ele>133.6</ele>
        <time>2025-07-23T16:06:52Z</time>
      </trkpt>
      <trkpt lat="44.18594" lon="-0.62821">
        <ele>133.8</ele>
        <time>2025-07-23T16:06:55Z</time>
      </trkpt>
      <trkpt lat="44.18631" lon="-0.6276">
        <ele>133.4</ele>
        <time>2025-07-23T16:07:04Z</time>
      </trkpt>
      <trkpt lat="44.18667" lon="-0.62698">
        <ele>133.8</ele>
        <time>2025-07-23T16:07:13Z</time>
      </trkpt>
      <trkpt lat="44.18671" lon="-0.62691">
        <ele>133.8</ele>
        <time>2025-07-23T16:07:14Z</time>
      </trkpt>
      <trkpt lat="44.18708" lon="-0.62629">
        <ele>133.8</ele>
        <time>2025-07-23T16:07:23Z</time>
      </trkpt>
      <trkpt lat="44.18716" lon="-0.62615">
        <ele>133.8</ele>
        <time>2025-07-23T16:07:25Z</time>
      </trkpt>
      <trkpt lat="44.18754" lon="-0.6255">
        <ele>134</ele>
        <time>2025-07-23T16:07:34Z</time>
      </trkpt>
      <trkpt lat="44.18767" lon="-0.62528">
        <ele>134.2</ele>
        <time>2025-07-23T16:07:37Z</time>
      </trkpt>
      <trkpt lat="44.18802" lon="-0.6247">
        <ele>134.8</ele>
        <time>2025-07-23T16:07:45Z</time>
      </trkpt>
      <trkpt lat="44.18824" lon="-0.62434">
        <ele>135.2</ele>
        <time>2025-07-23T16:07:50Z</time>
      </trkpt>
      <trkpt lat="44.1885" lon="-0.62391">
        <ele>135.6</ele>
        <time>2025-07-23T16:07:56Z</time>
      </trkpt>
      <trkpt lat="44.18884" lon="-0.62334">
        <ele>136.2</ele>
        <time>2025-07-23T16:08:04Z</time>
      </trkpt>
      <trkpt lat="44.18892" lon="-0.6232">
        <ele>136.4</ele>
        <time>2025-07-23T16:08:06Z</time>
      </trkpt>
      <trkpt lat="44.18927" lon="-0.62262">
        <ele>136</ele>
        <time>2025-07-23T16:08:14Z</time>
      </trkpt>
      <trkpt lat="44.18932" lon="-0.62254">
        <ele>136</ele>
        <time>2025-07-23T16:08:15Z</time>
      </trkpt>
      <trkpt lat="44.18967" lon="-0.62195">
        <ele>135.6</ele>
        <time>2025-07-23T16:08:23Z</time>
      </trkpt>
      <trkpt lat="44.18972" lon="-0.62188">
        <ele>135.6</ele>
        <time>2025-07-23T16:08:24Z</time>
      </trkpt>
      <trkpt lat="44.19007" lon="-0.62127">
        <ele>135.6</ele>
        <time>2025-07-23T16:08:32Z</time>
      </trkpt>
      <trkpt lat="44.19042" lon="-0.62069">
        <ele>135.8</ele>
        <time>2025-07-23T16:08:40Z</time>
      </trkpt>
      <trkpt lat="44.19061" lon="-0.62044">
        <ele>136.6</ele>
        <time>2025-07-23T16:08:44Z</time>
      </trkpt>
      <trkpt lat="44.19103" lon="-0.61999">
        <ele>137</ele>
        <time>2025-07-23T16:08:52Z</time>
      </trkpt>
      <trkpt lat="44.1915" lon="-0.61948">
        <ele>136.8</ele>
        <time>2025-07-23T16:09:01Z</time>
      </trkpt>
      <trkpt lat="44.1917" lon="-0.61926">
        <ele>136.6</ele>
        <time>2025-07-23T16:09:05Z</time>
      </trkpt>
      <trkpt lat="44.1921" lon="-0.61881">
        <ele>137</ele>
        <time>2025-07-23T16:09:13Z</time>
      </trkpt>
      <trkpt lat="44.19216" lon="-0.61876">
        <ele>137.2</ele>
        <time>2025-07-23T16:09:14Z</time>
      </trkpt>
      <trkpt lat="44.19261" lon="-0.61826">
        <ele>137.8</ele>
        <time>2025-07-23T16:09:23Z</time>
      </trkpt>
      <trkpt lat="44.19271" lon="-0.61815">
        <ele>138</ele>
        <time>2025-07-23T16:09:25Z</time>
      </trkpt>
      <trkpt lat="44.19312" lon="-0.61769">
        <ele>137.6</ele>
        <time>2025-07-23T16:09:33Z</time>
      </trkpt>
      <trkpt lat="44.19359" lon="-0.61718">
        <ele>137.4</ele>
        <time>2025-07-23T16:09:42Z</time>
      </trkpt>
      <trkpt lat="44.19364" lon="-0.61713">
        <ele>137.4</ele>
        <time>2025-07-23T16:09:43Z</time>
      </trkpt>
      <trkpt lat="44.19411" lon="-0.6166">
        <ele>137.6</ele>
        <time>2025-07-23T16:09:52Z</time>
      </trkpt>
      <trkpt lat="44.19416" lon="-0.61655">
        <ele>137.6</ele>
        <time>2025-07-23T16:09:54Z</time>
      </trkpt>
      <trkpt lat="44.19459" lon="-0.61607">
        <ele>137.6</ele>
        <time>2025-07-23T16:10:01Z</time>
      </trkpt>
      <trkpt lat="44.1947" lon="-0.61595">
        <ele>137.4</ele>
        <time>2025-07-23T16:10:03Z</time>
      </trkpt>
      <trkpt lat="44.19513" lon="-0.61547">
        <ele>137.6</ele>
        <time>2025-07-23T16:10:11Z</time>
      </trkpt>
      <trkpt lat="44.19524" lon="-0.61535">
        <ele>137.6</ele>
        <time>2025-07-23T16:10:13Z</time>
      </trkpt>
      <trkpt lat="44.19568" lon="-0.61487">
        <ele>137.6</ele>
        <time>2025-07-23T16:10:21Z</time>
      </trkpt>
      <trkpt lat="44.19585" lon="-0.61469">
        <ele>137.4</ele>
        <time>2025-07-23T16:10:24Z</time>
      </trkpt>
      <trkpt lat="44.19629" lon="-0.6142">
        <ele>137.8</ele>
        <time>2025-07-23T16:10:32Z</time>
      </trkpt>
      <trkpt lat="44.19646" lon="-0.61402">
        <ele>137.8</ele>
        <time>2025-07-23T16:10:35Z</time>
      </trkpt>
      <trkpt lat="44.19692" lon="-0.61352">
        <ele>137.4</ele>
        <time>2025-07-23T16:10:43Z</time>
      </trkpt>
      <trkpt lat="44.19703" lon="-0.61339">
        <ele>137.4</ele>
        <time>2025-07-23T16:10:45Z</time>
      </trkpt>
      <trkpt lat="44.19749" lon="-0.61289">
        <ele>137</ele>
        <time>2025-07-23T16:10:53Z</time>
      </trkpt>
      <trkpt lat="44.1976" lon="-0.61277">
        <ele>137</ele>
        <time>2025-07-23T16:10:55Z</time>
      </trkpt>
      <trkpt lat="44.19805" lon="-0.61228">
        <ele>137.2</ele>
        <time>2025-07-23T16:11:03Z</time>
      </trkpt>
      <trkpt lat="44.19822" lon="-0.61209">
        <ele>137.2</ele>
        <time>2025-07-23T16:11:06Z</time>
      </trkpt>
      <trkpt lat="44.19866" lon="-0.61161">
        <ele>137.2</ele>
        <time>2025-07-23T16:11:14Z</time>
      </trkpt>
      <trkpt lat="44.19882" lon="-0.61143">
        <ele>137.2</ele>
        <time>2025-07-23T16:11:17Z</time>
      </trkpt>
      <trkpt lat="44.19926" lon="-0.61094">
        <ele>137</ele>
        <time>2025-07-23T16:11:25Z</time>
      </trkpt>
      <trkpt lat="44.19948" lon="-0.6107">
        <ele>137.2</ele>
        <time>2025-07-23T16:11:29Z</time>
      </trkpt>
      <trkpt lat="44.19993" lon="-0.61021">
        <ele>137.4</ele>
        <time>2025-07-23T16:11:37Z</time>
      </trkpt>
      <trkpt lat="44.20005" lon="-0.61008">
        <ele>137.2</ele>
        <time>2025-07-23T16:11:39Z</time>
      </trkpt>
      <trkpt lat="44.20016" lon="-0.60996">
        <ele>137</ele>
        <time>2025-07-23T16:11:41Z</time>
      </trkpt>
      <trkpt lat="44.20062" lon="-0.60946">
        <ele>136.4</ele>
        <time>2025-07-23T16:11:49Z</time>
      </trkpt>
      <trkpt lat="44.20073" lon="-0.60933">
        <ele>136.4</ele>
        <time>2025-07-23T16:11:51Z</time>
      </trkpt>
      <trkpt lat="44.2012" lon="-0.60883">
        <ele>136.2</ele>
        <time>2025-07-23T16:11:59Z</time>
      </trkpt>
      <trkpt lat="44.20131" lon="-0.60871">
        <ele>136.2</ele>
        <time>2025-07-23T16:12:01Z</time>
      </trkpt>
      <trkpt lat="44.20178" lon="-0.6082">
        <ele>136</ele>
        <time>2025-07-23T16:12:10Z</time>
      </trkpt>
      <trkpt lat="44.20183" lon="-0.60814">
        <ele>136</ele>
        <time>2025-07-23T16:12:11Z</time>
      </trkpt>
      <trkpt lat="44.20194" lon="-0.60802">
        <ele>135.8</ele>
        <time>2025-07-23T16:12:13Z</time>
      </trkpt>
      <trkpt lat="44.20233" lon="-0.6075">
        <ele>135.4</ele>
        <time>2025-07-23T16:12:21Z</time>
      </trkpt>
      <trkpt lat="44.2027" lon="-0.60687">
        <ele>136</ele>
        <time>2025-07-23T16:12:30Z</time>
      </trkpt>
      <trkpt lat="44.2031" lon="-0.60623">
        <ele>136.4</ele>
        <time>2025-07-23T16:12:39Z</time>
      </trkpt>
      <trkpt lat="44.20319" lon="-0.60609">
        <ele>136.2</ele>
        <time>2025-07-23T16:12:41Z</time>
      </trkpt>
      <trkpt lat="44.20354" lon="-0.60551">
        <ele>135.6</ele>
        <time>2025-07-23T16:12:49Z</time>
      </trkpt>
      <trkpt lat="44.20362" lon="-0.60536">
        <ele>135.8</ele>
        <time>2025-07-23T16:12:51Z</time>
      </trkpt>
      <trkpt lat="44.20401" lon="-0.60474">
        <ele>136</ele>
        <time>2025-07-23T16:13:00Z</time>
      </trkpt>
      <trkpt lat="44.20404" lon="-0.60468">
        <ele>136.2</ele>
        <time>2025-07-23T16:13:01Z</time>
      </trkpt>
      <trkpt lat="44.20441" lon="-0.60408">
        <ele>136.2</ele>
        <time>2025-07-23T16:13:10Z</time>
      </trkpt>
      <trkpt lat="44.20478" lon="-0.60347">
        <ele>136.2</ele>
        <time>2025-07-23T16:13:19Z</time>
      </trkpt>
      <trkpt lat="44.20486" lon="-0.60333">
        <ele>136.4</ele>
        <time>2025-07-23T16:13:21Z</time>
      </trkpt>
      <trkpt lat="44.2052" lon="-0.60279">
        <ele>136.6</ele>
        <time>2025-07-23T16:13:29Z</time>
      </trkpt>
      <trkpt lat="44.20555" lon="-0.6022">
        <ele>136.4</ele>
        <time>2025-07-23T16:13:37Z</time>
      </trkpt>
      <trkpt lat="44.20559" lon="-0.60213">
        <ele>136.4</ele>
        <time>2025-07-23T16:13:38Z</time>
      </trkpt>
      <trkpt lat="44.20598" lon="-0.6015">
        <ele>136.2</ele>
        <time>2025-07-23T16:13:47Z</time>
      </trkpt>
      <trkpt lat="44.20602" lon="-0.60144">
        <ele>136.2</ele>
        <time>2025-07-23T16:13:48Z</time>
      </trkpt>
      <trkpt lat="44.2064" lon="-0.60082">
        <ele>136</ele>
        <time>2025-07-23T16:13:57Z</time>
      </trkpt>
      <trkpt lat="44.20644" lon="-0.60075">
        <ele>136</ele>
        <time>2025-07-23T16:13:58Z</time>
      </trkpt>
      <trkpt lat="44.20683" lon="-0.6001">
        <ele>136.2</ele>
        <time>2025-07-23T16:14:07Z</time>
      </trkpt>
      <trkpt lat="44.20723" lon="-0.59946">
        <ele>136.4</ele>
        <time>2025-07-23T16:14:16Z</time>
      </trkpt>
      <trkpt lat="44.20727" lon="-0.59939">
        <ele>136.4</ele>
        <time>2025-07-23T16:14:17Z</time>
      </trkpt>
      <trkpt lat="44.20767" lon="-0.59875">
        <ele>136</ele>
        <time>2025-07-23T16:14:26Z</time>
      </trkpt>
      <trkpt lat="44.20801" lon="-0.59817">
        <ele>135.4</ele>
        <time>2025-07-23T16:14:34Z</time>
      </trkpt>
      <trkpt lat="44.20805" lon="-0.59809">
        <ele>135.2</ele>
        <time>2025-07-23T16:14:35Z</time>
      </trkpt>
      <trkpt lat="44.20823" lon="-0.5978">
        <ele>135</ele>
        <time>2025-07-23T16:14:39Z</time>
      </trkpt>
      <trkpt lat="44.2085" lon="-0.59736">
        <ele>135.2</ele>
        <time>2025-07-23T16:14:45Z</time>
      </trkpt>
      <trkpt lat="44.20885" lon="-0.59678">
        <ele>135.6</ele>
        <time>2025-07-23T16:14:53Z</time>
      </trkpt>
      <trkpt lat="44.20894" lon="-0.59663">
        <ele>135.8</ele>
        <time>2025-07-23T16:14:55Z</time>
      </trkpt>
      <trkpt lat="44.20907" lon="-0.59641">
        <ele>135.6</ele>
        <time>2025-07-23T16:14:58Z</time>
      </trkpt>
      <trkpt lat="44.20929" lon="-0.59605">
        <ele>135.6</ele>
        <time>2025-07-23T16:15:03Z</time>
      </trkpt>
      <trkpt lat="44.20963" lon="-0.59547">
        <ele>135.8</ele>
        <time>2025-07-23T16:15:11Z</time>
      </trkpt>
      <trkpt lat="44.20972" lon="-0.59532">
        <ele>136</ele>
        <time>2025-07-23T16:15:13Z</time>
      </trkpt>
      <trkpt lat="44.21006" lon="-0.59477">
        <ele>136.4</ele>
        <time>2025-07-23T16:15:21Z</time>
      </trkpt>
      <trkpt lat="44.21044" lon="-0.59414">
        <ele>136</ele>
        <time>2025-07-23T16:15:30Z</time>
      </trkpt>
      <trkpt lat="44.21052" lon="-0.59399">
        <ele>135.8</ele>
        <time>2025-07-23T16:15:32Z</time>
      </trkpt>
      <trkpt lat="44.21087" lon="-0.59341">
        <ele>135.8</ele>
        <time>2025-07-23T16:15:40Z</time>
      </trkpt>
      <trkpt lat="44.21105" lon="-0.59313">
        <ele>135.6</ele>
        <time>2025-07-23T16:15:44Z</time>
      </trkpt>
      <trkpt lat="44.21144" lon="-0.59261">
        <ele>135.2</ele>
        <time>2025-07-23T16:15:52Z</time>
      </trkpt>
      <trkpt lat="44.2116" lon="-0.59241">
        <ele>134.8</ele>
        <time>2025-07-23T16:15:55Z</time>
      </trkpt>
      <trkpt lat="44.21202" lon="-0.59189">
        <ele>134.8</ele>
        <time>2025-07-23T16:16:03Z</time>
      </trkpt>
      <trkpt lat="44.21207" lon="-0.59182">
        <ele>135</ele>
        <time>2025-07-23T16:16:04Z</time>
      </trkpt>
      <trkpt lat="44.21248" lon="-0.59132">
        <ele>135</ele>
        <time>2025-07-23T16:16:12Z</time>
      </trkpt>
      <trkpt lat="44.21257" lon="-0.59118">
        <ele>135</ele>
        <time>2025-07-23T16:16:14Z</time>
      </trkpt>
      <trkpt lat="44.21297" lon="-0.59068">
        <ele>134.6</ele>
        <time>2025-07-23T16:16:22Z</time>
      </trkpt>
      <trkpt lat="44.21318" lon="-0.59043">
        <ele>134.6</ele>
        <time>2025-07-23T16:16:26Z</time>
      </trkpt>
      <trkpt lat="44.21358" lon="-0.58992">
        <ele>134.6</ele>
        <time>2025-07-23T16:16:34Z</time>
      </trkpt>
      <trkpt lat="44.21399" lon="-0.58942">
        <ele>135</ele>
        <time>2025-07-23T16:16:42Z</time>
      </trkpt>
      <trkpt lat="44.21404" lon="-0.58935">
        <ele>135</ele>
        <time>2025-07-23T16:16:43Z</time>
      </trkpt>
      <trkpt lat="44.21445" lon="-0.58885">
        <ele>134.2</ele>
        <time>2025-07-23T16:16:51Z</time>
      </trkpt>
      <trkpt lat="44.21455" lon="-0.58871">
        <ele>134</ele>
        <time>2025-07-23T16:16:53Z</time>
      </trkpt>
      <trkpt lat="44.2148" lon="-0.5884">
        <ele>134</ele>
        <time>2025-07-23T16:16:58Z</time>
      </trkpt>
      <trkpt lat="44.21521" lon="-0.58789">
        <ele>133.8</ele>
        <time>2025-07-23T16:17:06Z</time>
      </trkpt>
      <trkpt lat="44.21562" lon="-0.58737">
        <ele>134</ele>
        <time>2025-07-23T16:17:14Z</time>
      </trkpt>
      <trkpt lat="44.21572" lon="-0.58724">
        <ele>133.6</ele>
        <time>2025-07-23T16:17:16Z</time>
      </trkpt>
      <trkpt lat="44.21613" lon="-0.58674">
        <ele>133</ele>
        <time>2025-07-23T16:17:24Z</time>
      </trkpt>
      <trkpt lat="44.21619" lon="-0.58666">
        <ele>133</ele>
        <time>2025-07-23T16:17:25Z</time>
      </trkpt>
      <trkpt lat="44.21663" lon="-0.5861">
        <ele>133.6</ele>
        <time>2025-07-23T16:17:34Z</time>
      </trkpt>
      <trkpt lat="44.21674" lon="-0.58597">
        <ele>133.4</ele>
        <time>2025-07-23T16:17:36Z</time>
      </trkpt>
      <trkpt lat="44.21713" lon="-0.58545">
        <ele>132.6</ele>
        <time>2025-07-23T16:17:44Z</time>
      </trkpt>
      <trkpt lat="44.21723" lon="-0.58532">
        <ele>132.6</ele>
        <time>2025-07-23T16:17:46Z</time>
      </trkpt>
      <trkpt lat="44.21762" lon="-0.58481">
        <ele>132.8</ele>
        <time>2025-07-23T16:17:54Z</time>
      </trkpt>
      <trkpt lat="44.21805" lon="-0.58425">
        <ele>133</ele>
        <time>2025-07-23T16:18:03Z</time>
      </trkpt>
      <trkpt lat="44.21811" lon="-0.58418">
        <ele>133</ele>
        <time>2025-07-23T16:18:04Z</time>
      </trkpt>
      <trkpt lat="44.21852" lon="-0.58359">
        <ele>132.6</ele>
        <time>2025-07-23T16:18:13Z</time>
      </trkpt>
      <trkpt lat="44.21875" lon="-0.58327">
        <ele>132.4</ele>
        <time>2025-07-23T16:18:18Z</time>
      </trkpt>
      <trkpt lat="44.21885" lon="-0.58313">
        <ele>132.2</ele>
        <time>2025-07-23T16:18:20Z</time>
      </trkpt>
      <trkpt lat="44.21926" lon="-0.58252">
        <ele>132</ele>
        <time>2025-07-23T16:18:29Z</time>
      </trkpt>
      <trkpt lat="44.21931" lon="-0.58245">
        <ele>132</ele>
        <time>2025-07-23T16:18:30Z</time>
      </trkpt>
      <trkpt lat="44.21973" lon="-0.58186">
        <ele>132.2</ele>
        <time>2025-07-23T16:18:39Z</time>
      </trkpt>
      <trkpt lat="44.21978" lon="-0.58179">
        <ele>132.2</ele>
        <time>2025-07-23T16:18:40Z</time>
      </trkpt>
      <trkpt lat="44.2202" lon="-0.58118">
        <ele>131.6</ele>
        <time>2025-07-23T16:18:49Z</time>
      </trkpt>
      <trkpt lat="44.22059" lon="-0.58063">
        <ele>131.6</ele>
        <time>2025-07-23T16:18:57Z</time>
      </trkpt>
      <trkpt lat="44.22079" lon="-0.58036">
        <ele>131.6</ele>
        <time>2025-07-23T16:19:01Z</time>
      </trkpt>
      <trkpt lat="44.22121" lon="-0.57976">
        <ele>132</ele>
        <time>2025-07-23T16:19:10Z</time>
      </trkpt>
      <trkpt lat="44.22126" lon="-0.57969">
        <ele>132.2</ele>
        <time>2025-07-23T16:19:11Z</time>
      </trkpt>
      <trkpt lat="44.22164" lon="-0.57917">
        <ele>131.6</ele>
        <time>2025-07-23T16:19:19Z</time>
      </trkpt>
      <trkpt lat="44.22178" lon="-0.57899">
        <ele>131.6</ele>
        <time>2025-07-23T16:19:22Z</time>
      </trkpt>
      <trkpt lat="44.22202" lon="-0.57865">
        <ele>131.6</ele>
        <time>2025-07-23T16:19:27Z</time>
      </trkpt>
      <trkpt lat="44.22243" lon="-0.57804">
        <ele>131.8</ele>
        <time>2025-07-23T16:19:36Z</time>
      </trkpt>
      <trkpt lat="44.22248" lon="-0.57798">
        <ele>131.8</ele>
        <time>2025-07-23T16:19:37Z</time>
      </trkpt>
      <trkpt lat="44.2229" lon="-0.57736">
        <ele>131</ele>
        <time>2025-07-23T16:19:46Z</time>
      </trkpt>
      <trkpt lat="44.22304" lon="-0.57716">
        <ele>130.8</ele>
        <time>2025-07-23T16:19:49Z</time>
      </trkpt>
      <trkpt lat="44.22342" lon="-0.57662">
        <ele>131.6</ele>
        <time>2025-07-23T16:19:57Z</time>
      </trkpt>
      <trkpt lat="44.22381" lon="-0.57607">
        <ele>131.6</ele>
        <time>2025-07-23T16:20:05Z</time>
      </trkpt>
      <trkpt lat="44.22401" lon="-0.57581">
        <ele>131.2</ele>
        <time>2025-07-23T16:20:09Z</time>
      </trkpt>
      <trkpt lat="44.2244" lon="-0.57526">
        <ele>130.8</ele>
        <time>2025-07-23T16:20:17Z</time>
      </trkpt>
      <trkpt lat="44.22465" lon="-0.57492">
        <ele>130.8</ele>
        <time>2025-07-23T16:20:22Z</time>
      </trkpt>
      <trkpt lat="44.22498" lon="-0.57445">
        <ele>130.8</ele>
        <time>2025-07-23T16:20:29Z</time>
      </trkpt>
      <trkpt lat="44.22522" lon="-0.57411">
        <ele>130.4</ele>
        <time>2025-07-23T16:20:34Z</time>
      </trkpt>
      <trkpt lat="44.22545" lon="-0.57378">
        <ele>130.6</ele>
        <time>2025-07-23T16:20:39Z</time>
      </trkpt>
      <trkpt lat="44.22588" lon="-0.5732">
        <ele>130.4</ele>
        <time>2025-07-23T16:20:48Z</time>
      </trkpt>
      <trkpt lat="44.22597" lon="-0.57307">
        <ele>130.4</ele>
        <time>2025-07-23T16:20:50Z</time>
      </trkpt>
      <trkpt lat="44.22638" lon="-0.57249">
        <ele>130</ele>
        <time>2025-07-23T16:20:59Z</time>
      </trkpt>
      <trkpt lat="44.22643" lon="-0.57242">
        <ele>130</ele>
        <time>2025-07-23T16:21:00Z</time>
      </trkpt>
      <trkpt lat="44.22684" lon="-0.57183">
        <ele>129.6</ele>
        <time>2025-07-23T16:21:09Z</time>
      </trkpt>
      <trkpt lat="44.22693" lon="-0.5717">
        <ele>129.6</ele>
        <time>2025-07-23T16:21:11Z</time>
      </trkpt>
      <trkpt lat="44.22703" lon="-0.57156">
        <ele>129.6</ele>
        <time>2025-07-23T16:21:13Z</time>
      </trkpt>
      <trkpt lat="44.22746" lon="-0.57097">
        <ele>129.6</ele>
        <time>2025-07-23T16:21:22Z</time>
      </trkpt>
      <trkpt lat="44.22789" lon="-0.57038">
        <ele>129.4</ele>
        <time>2025-07-23T16:21:31Z</time>
      </trkpt>
      <trkpt lat="44.22829" lon="-0.57001">
        <ele>129.4</ele>
        <time>2025-07-23T16:21:38Z</time>
      </trkpt>
      <trkpt lat="44.22882" lon="-0.56963">
        <ele>129.2</ele>
        <time>2025-07-23T16:21:47Z</time>
      </trkpt>
      <trkpt lat="44.22931" lon="-0.56928">
        <ele>129</ele>
        <time>2025-07-23T16:21:55Z</time>
      </trkpt>
      <trkpt lat="44.22961" lon="-0.56907">
        <ele>128.8</ele>
        <time>2025-07-23T16:22:00Z</time>
      </trkpt>
      <trkpt lat="44.22986" lon="-0.56889">
        <ele>128.6</ele>
        <time>2025-07-23T16:22:04Z</time>
      </trkpt>
      <trkpt lat="44.23028" lon="-0.56859">
        <ele>128.2</ele>
        <time>2025-07-23T16:22:11Z</time>
      </trkpt>
      <trkpt lat="44.23078" lon="-0.56824">
        <ele>127.8</ele>
        <time>2025-07-23T16:22:19Z</time>
      </trkpt>
      <trkpt lat="44.23084" lon="-0.56819">
        <ele>127.8</ele>
        <time>2025-07-23T16:22:20Z</time>
      </trkpt>
      <trkpt lat="44.23135" lon="-0.56783">
        <ele>128</ele>
        <time>2025-07-23T16:22:28Z</time>
      </trkpt>
      <trkpt lat="44.23186" lon="-0.56745">
        <ele>127.6</ele>
        <time>2025-07-23T16:22:36Z</time>
      </trkpt>
      <trkpt lat="44.23204" lon="-0.56732">
        <ele>127.6</ele>
        <time>2025-07-23T16:22:39Z</time>
      </trkpt>
      <trkpt lat="44.23217" lon="-0.56723">
        <ele>127.6</ele>
        <time>2025-07-23T16:22:41Z</time>
      </trkpt>
      <trkpt lat="44.23267" lon="-0.56687">
        <ele>127.6</ele>
        <time>2025-07-23T16:22:49Z</time>
      </trkpt>
      <trkpt lat="44.23279" lon="-0.56679">
        <ele>127.6</ele>
        <time>2025-07-23T16:22:51Z</time>
      </trkpt>
      <trkpt lat="44.23329" lon="-0.56643">
        <ele>127.4</ele>
        <time>2025-07-23T16:22:59Z</time>
      </trkpt>
      <trkpt lat="44.23335" lon="-0.56638">
        <ele>127.4</ele>
        <time>2025-07-23T16:23:00Z</time>
      </trkpt>
      <trkpt lat="44.23385" lon="-0.56603">
        <ele>127.4</ele>
        <time>2025-07-23T16:23:08Z</time>
      </trkpt>
      <trkpt lat="44.23398" lon="-0.56595">
        <ele>127.2</ele>
        <time>2025-07-23T16:23:10Z</time>
      </trkpt>
      <trkpt lat="44.23447" lon="-0.56558">
        <ele>127.2</ele>
        <time>2025-07-23T16:23:18Z</time>
      </trkpt>
      <trkpt lat="44.23465" lon="-0.56545">
        <ele>127.4</ele>
        <time>2025-07-23T16:23:21Z</time>
      </trkpt>
      <trkpt lat="44.23518" lon="-0.56507">
        <ele>127</ele>
        <time>2025-07-23T16:23:30Z</time>
      </trkpt>
      <trkpt lat="44.23537" lon="-0.56494">
        <ele>127</ele>
        <time>2025-07-23T16:23:33Z</time>
      </trkpt>
      <trkpt lat="44.23586" lon="-0.56459">
        <ele>126.8</ele>
        <time>2025-07-23T16:23:42Z</time>
      </trkpt>
      <trkpt lat="44.23592" lon="-0.56455">
        <ele>126.8</ele>
        <time>2025-07-23T16:23:43Z</time>
      </trkpt>
      <trkpt lat="44.23643" lon="-0.56418">
        <ele>126.4</ele>
        <time>2025-07-23T16:23:52Z</time>
      </trkpt>
      <trkpt lat="44.23654" lon="-0.5641">
        <ele>126.4</ele>
        <time>2025-07-23T16:23:54Z</time>
      </trkpt>
      <trkpt lat="44.2366" lon="-0.56406">
        <ele>126.2</ele>
        <time>2025-07-23T16:23:55Z</time>
      </trkpt>
      <trkpt lat="44.23708" lon="-0.56376">
        <ele>125.8</ele>
        <time>2025-07-23T16:24:03Z</time>
      </trkpt>
      <trkpt lat="44.23763" lon="-0.56341">
        <ele>125.6</ele>
        <time>2025-07-23T16:24:12Z</time>
      </trkpt>
      <trkpt lat="44.23775" lon="-0.56333">
        <ele>125.6</ele>
        <time>2025-07-23T16:24:14Z</time>
      </trkpt>
      <trkpt lat="44.2383" lon="-0.56298">
        <ele>125.6</ele>
        <time>2025-07-23T16:24:23Z</time>
      </trkpt>
      <trkpt lat="44.23836" lon="-0.56294">
        <ele>125.6</ele>
        <time>2025-07-23T16:24:24Z</time>
      </trkpt>
      <trkpt lat="44.23886" lon="-0.56263">
        <ele>125.6</ele>
        <time>2025-07-23T16:24:32Z</time>
      </trkpt>
      <trkpt lat="44.23898" lon="-0.56255">
        <ele>125.4</ele>
        <time>2025-07-23T16:24:34Z</time>
      </trkpt>
      <trkpt lat="44.23904" lon="-0.56251">
        <ele>125.2</ele>
        <time>2025-07-23T16:24:35Z</time>
      </trkpt>
      <trkpt lat="44.23954" lon="-0.5622">
        <ele>124.8</ele>
        <time>2025-07-23T16:24:43Z</time>
      </trkpt>
      <trkpt lat="44.2398" lon="-0.56204">
        <ele>124.8</ele>
        <time>2025-07-23T16:24:47Z</time>
      </trkpt>
      <trkpt lat="44.2403" lon="-0.56173">
        <ele>124.6</ele>
        <time>2025-07-23T16:24:55Z</time>
      </trkpt>
      <trkpt lat="44.24048" lon="-0.56161">
        <ele>124.6</ele>
        <time>2025-07-23T16:24:58Z</time>
      </trkpt>
      <trkpt lat="44.24066" lon="-0.5615">
        <ele>124.4</ele>
        <time>2025-07-23T16:25:01Z</time>
      </trkpt>
      <trkpt lat="44.24097" lon="-0.5613">
        <ele>124.2</ele>
        <time>2025-07-23T16:25:06Z</time>
      </trkpt>
      <trkpt lat="44.24152" lon="-0.56096">
        <ele>124.2</ele>
        <time>2025-07-23T16:25:15Z</time>
      </trkpt>
      <trkpt lat="44.24164" lon="-0.56088">
        <ele>124.2</ele>
        <time>2025-07-23T16:25:17Z</time>
      </trkpt>
      <trkpt lat="44.24211" lon="-0.56059">
        <ele>124.4</ele>
        <time>2025-07-23T16:25:25Z</time>
      </trkpt>
      <trkpt lat="44.24217" lon="-0.56055">
        <ele>124.4</ele>
        <time>2025-07-23T16:25:26Z</time>
      </trkpt>
      <trkpt lat="44.2427" lon="-0.56021">
        <ele>123.4</ele>
        <time>2025-07-23T16:25:35Z</time>
      </trkpt>
      <trkpt lat="44.243" lon="-0.56001">
        <ele>123.4</ele>
        <time>2025-07-23T16:25:40Z</time>
      </trkpt>
      <trkpt lat="44.24336" lon="-0.55978">
        <ele>123.2</ele>
        <time>2025-07-23T16:25:46Z</time>
      </trkpt>
      <trkpt lat="44.24391" lon="-0.55944">
        <ele>123.4</ele>
        <time>2025-07-23T16:25:55Z</time>
      </trkpt>
      <trkpt lat="44.24403" lon="-0.55937">
        <ele>123.4</ele>
        <time>2025-07-23T16:25:57Z</time>
      </trkpt>
      <trkpt lat="44.24456" lon="-0.55904">
        <ele>123</ele>
        <time>2025-07-23T16:26:06Z</time>
      </trkpt>
      <trkpt lat="44.24462" lon="-0.559">
        <ele>123</ele>
        <time>2025-07-23T16:26:07Z</time>
      </trkpt>
      <trkpt lat="44.24506" lon="-0.55872">
        <ele>122.8</ele>
        <time>2025-07-23T16:26:14Z</time>
      </trkpt>
      <trkpt lat="44.24558" lon="-0.55838">
        <ele>122.8</ele>
        <time>2025-07-23T16:26:22Z</time>
      </trkpt>
      <trkpt lat="44.24571" lon="-0.55831">
        <ele>122.8</ele>
        <time>2025-07-23T16:26:24Z</time>
      </trkpt>
      <trkpt lat="44.24622" lon="-0.55798">
        <ele>122.6</ele>
        <time>2025-07-23T16:26:32Z</time>
      </trkpt>
      <trkpt lat="44.2464" lon="-0.55787">
        <ele>122.8</ele>
        <time>2025-07-23T16:26:35Z</time>
      </trkpt>
      <trkpt lat="44.24694" lon="-0.55752">
        <ele>123.2</ele>
        <time>2025-07-23T16:26:44Z</time>
      </trkpt>
      <trkpt lat="44.24737" lon="-0.55725">
        <ele>123.2</ele>
        <time>2025-07-23T16:26:51Z</time>
      </trkpt>
      <trkpt lat="44.2478" lon="-0.55698">
        <ele>122.4</ele>
        <time>2025-07-23T16:26:58Z</time>
      </trkpt>
      <trkpt lat="44.24828" lon="-0.55665">
        <ele>122.4</ele>
        <time>2025-07-23T16:27:06Z</time>
      </trkpt>
      <trkpt lat="44.24875" lon="-0.55627">
        <ele>122</ele>
        <time>2025-07-23T16:27:14Z</time>
      </trkpt>
      <trkpt lat="44.24892" lon="-0.55614">
        <ele>122</ele>
        <time>2025-07-23T16:27:17Z</time>
      </trkpt>
      <trkpt lat="44.24938" lon="-0.55577">
        <ele>122</ele>
        <time>2025-07-23T16:27:25Z</time>
      </trkpt>
      <trkpt lat="44.24991" lon="-0.55537">
        <ele>122</ele>
        <time>2025-07-23T16:27:34Z</time>
      </trkpt>
      <trkpt lat="44.25044" lon="-0.55496">
        <ele>121.8</ele>
        <time>2025-07-23T16:27:43Z</time>
      </trkpt>
      <trkpt lat="44.2505" lon="-0.55491">
        <ele>121.8</ele>
        <time>2025-07-23T16:27:44Z</time>
      </trkpt>
      <trkpt lat="44.25104" lon="-0.55454">
        <ele>121.8</ele>
        <time>2025-07-23T16:27:53Z</time>
      </trkpt>
      <trkpt lat="44.25115" lon="-0.55445">
        <ele>121.8</ele>
        <time>2025-07-23T16:27:55Z</time>
      </trkpt>
      <trkpt lat="44.25158" lon="-0.55416">
        <ele>121.4</ele>
        <time>2025-07-23T16:28:02Z</time>
      </trkpt>
      <trkpt lat="44.2517" lon="-0.55407">
        <ele>121.4</ele>
        <time>2025-07-23T16:28:04Z</time>
      </trkpt>
      <trkpt lat="44.2522" lon="-0.55371">
        <ele>121.2</ele>
        <time>2025-07-23T16:28:12Z</time>
      </trkpt>
      <trkpt lat="44.25238" lon="-0.55359">
        <ele>121.2</ele>
        <time>2025-07-23T16:28:15Z</time>
      </trkpt>
      <trkpt lat="44.25292" lon="-0.5532">
        <ele>121.2</ele>
        <time>2025-07-23T16:28:24Z</time>
      </trkpt>
      <trkpt lat="44.25298" lon="-0.55316">
        <ele>121.2</ele>
        <time>2025-07-23T16:28:25Z</time>
      </trkpt>
      <trkpt lat="44.25344" lon="-0.55277">
        <ele>121.4</ele>
        <time>2025-07-23T16:28:33Z</time>
      </trkpt>
      <trkpt lat="44.25367" lon="-0.55244">
        <ele>121.2</ele>
        <time>2025-07-23T16:28:38Z</time>
      </trkpt>
      <trkpt lat="44.25382" lon="-0.55212">
        <ele>121</ele>
        <time>2025-07-23T16:28:42Z</time>
      </trkpt>
      <trkpt lat="44.25388" lon="-0.55195">
        <ele>121</ele>
        <time>2025-07-23T16:28:44Z</time>
      </trkpt>
      <trkpt lat="44.25396" lon="-0.55139">
        <ele>121.4</ele>
        <time>2025-07-23T16:28:50Z</time>
      </trkpt>
      <trkpt lat="44.25396" lon="-0.5512">
        <ele>121.6</ele>
        <time>2025-07-23T16:28:52Z</time>
      </trkpt>
      <trkpt lat="44.25393" lon="-0.55091">
        <ele>121.6</ele>
        <time>2025-07-23T16:28:55Z</time>
      </trkpt>
      <trkpt lat="44.25378" lon="-0.55018">
        <ele>120.8</ele>
        <time>2025-07-23T16:29:03Z</time>
      </trkpt>
      <trkpt lat="44.25375" lon="-0.55">
        <ele>120.8</ele>
        <time>2025-07-23T16:29:05Z</time>
      </trkpt>
      <trkpt lat="44.25357" lon="-0.5493">
        <ele>121</ele>
        <time>2025-07-23T16:29:13Z</time>
      </trkpt>
      <trkpt lat="44.25354" lon="-0.54921">
        <ele>121.2</ele>
        <time>2025-07-23T16:29:14Z</time>
      </trkpt>
      <trkpt lat="44.25336" lon="-0.54871">
        <ele>121.2</ele>
        <time>2025-07-23T16:29:20Z</time>
      </trkpt>
      <trkpt lat="44.25324" lon="-0.54818">
        <ele>121.4</ele>
        <time>2025-07-23T16:29:26Z</time>
      </trkpt>
      <trkpt lat="44.25324" lon="-0.54799">
        <ele>121.4</ele>
        <time>2025-07-23T16:29:28Z</time>
      </trkpt>
      <trkpt lat="44.25327" lon="-0.54781">
        <ele>121.4</ele>
        <time>2025-07-23T16:29:30Z</time>
      </trkpt>
      <trkpt lat="44.25347" lon="-0.54722">
        <ele>121.6</ele>
        <time>2025-07-23T16:29:37Z</time>
      </trkpt>
      <trkpt lat="44.25376" lon="-0.54648">
        <ele>122</ele>
        <time>2025-07-23T16:29:46Z</time>
      </trkpt>
      <trkpt lat="44.2538" lon="-0.5464">
        <ele>122</ele>
        <time>2025-07-23T16:29:47Z</time>
      </trkpt>
      <trkpt lat="44.25408" lon="-0.54566">
        <ele>120.8</ele>
        <time>2025-07-23T16:29:56Z</time>
      </trkpt>
      <trkpt lat="44.25415" lon="-0.5455">
        <ele>120.6</ele>
        <time>2025-07-23T16:29:58Z</time>
      </trkpt>
      <trkpt lat="44.25418" lon="-0.54541">
        <ele>120.6</ele>
        <time>2025-07-23T16:29:59Z</time>
      </trkpt>
      <trkpt lat="44.25444" lon="-0.54475">
        <ele>120.8</ele>
        <time>2025-07-23T16:30:07Z</time>
      </trkpt>
      <trkpt lat="44.25451" lon="-0.54459">
        <ele>121</ele>
        <time>2025-07-23T16:30:09Z</time>
      </trkpt>
      <trkpt lat="44.25481" lon="-0.54385">
        <ele>120.8</ele>
        <time>2025-07-23T16:30:18Z</time>
      </trkpt>
      <trkpt lat="44.25487" lon="-0.54368">
        <ele>120.8</ele>
        <time>2025-07-23T16:30:20Z</time>
      </trkpt>
      <trkpt lat="44.25514" lon="-0.54301">
        <ele>121</ele>
        <time>2025-07-23T16:30:28Z</time>
      </trkpt>
      <trkpt lat="44.25517" lon="-0.54292">
        <ele>121.2</ele>
        <time>2025-07-23T16:30:29Z</time>
      </trkpt>
      <trkpt lat="44.25542" lon="-0.54233">
        <ele>121</ele>
        <time>2025-07-23T16:30:36Z</time>
      </trkpt>
      <trkpt lat="44.25569" lon="-0.54163">
        <ele>120.6</ele>
        <time>2025-07-23T16:30:44Z</time>
      </trkpt>
      <trkpt lat="44.25578" lon="-0.54136">
        <ele>120.6</ele>
        <time>2025-07-23T16:30:47Z</time>
      </trkpt>
      <trkpt lat="44.25606" lon="-0.54066">
        <ele>120.2</ele>
        <time>2025-07-23T16:30:55Z</time>
      </trkpt>
      <trkpt lat="44.25617" lon="-0.5404">
        <ele>120</ele>
        <time>2025-07-23T16:30:58Z</time>
      </trkpt>
      <trkpt lat="44.25644" lon="-0.5397">
        <ele>120.2</ele>
        <time>2025-07-23T16:31:06Z</time>
      </trkpt>
      <trkpt lat="44.25648" lon="-0.53962">
        <ele>120.4</ele>
        <time>2025-07-23T16:31:07Z</time>
      </trkpt>
      <trkpt lat="44.2568" lon="-0.53899">
        <ele>121.2</ele>
        <time>2025-07-23T16:31:15Z</time>
      </trkpt>
      <trkpt lat="44.25718" lon="-0.53855">
        <ele>121.2</ele>
        <time>2025-07-23T16:31:22Z</time>
      </trkpt>
      <trkpt lat="44.25763" lon="-0.53808">
        <ele>120.6</ele>
        <time>2025-07-23T16:31:30Z</time>
      </trkpt>
      <trkpt lat="44.25807" lon="-0.53762">
        <ele>120.2</ele>
        <time>2025-07-23T16:31:38Z</time>
      </trkpt>
      <trkpt lat="44.25813" lon="-0.53757">
        <ele>120.2</ele>
        <time>2025-07-23T16:31:39Z</time>
      </trkpt>
      <trkpt lat="44.25857" lon="-0.53712">
        <ele>120</ele>
        <time>2025-07-23T16:31:47Z</time>
      </trkpt>
      <trkpt lat="44.25902" lon="-0.53656">
        <ele>120.4</ele>
        <time>2025-07-23T16:31:56Z</time>
      </trkpt>
      <trkpt lat="44.25907" lon="-0.5365">
        <ele>120.4</ele>
        <time>2025-07-23T16:31:57Z</time>
      </trkpt>
      <trkpt lat="44.25946" lon="-0.53598">
        <ele>120.2</ele>
        <time>2025-07-23T16:32:05Z</time>
      </trkpt>
      <trkpt lat="44.25952" lon="-0.53592">
        <ele>120.2</ele>
        <time>2025-07-23T16:32:06Z</time>
      </trkpt>
      <trkpt lat="44.25995" lon="-0.53534">
        <ele>120.4</ele>
        <time>2025-07-23T16:32:15Z</time>
      </trkpt>
      <trkpt lat="44.26" lon="-0.53527">
        <ele>120.4</ele>
        <time>2025-07-23T16:32:16Z</time>
      </trkpt>
      <trkpt lat="44.26034" lon="-0.53482">
        <ele>120.4</ele>
        <time>2025-07-23T16:32:23Z</time>
      </trkpt>
      <trkpt lat="44.26069" lon="-0.53436">
        <ele>120.2</ele>
        <time>2025-07-23T16:32:30Z</time>
      </trkpt>
      <trkpt lat="44.26111" lon="-0.53376">
        <ele>120.4</ele>
        <time>2025-07-23T16:32:39Z</time>
      </trkpt>
      <trkpt lat="44.2612" lon="-0.53361">
        <ele>120.4</ele>
        <time>2025-07-23T16:32:41Z</time>
      </trkpt>
      <trkpt lat="44.26137" lon="-0.5332">
        <ele>120.6</ele>
        <time>2025-07-23T16:32:46Z</time>
      </trkpt>
      <trkpt lat="44.2614" lon="-0.53311">
        <ele>120.4</ele>
        <time>2025-07-23T16:32:47Z</time>
      </trkpt>
      <trkpt lat="44.26157" lon="-0.53247">
        <ele>120.4</ele>
        <time>2025-07-23T16:32:54Z</time>
      </trkpt>
      <trkpt lat="44.26177" lon="-0.53177">
        <ele>120.4</ele>
        <time>2025-07-23T16:33:02Z</time>
      </trkpt>
      <trkpt lat="44.26179" lon="-0.53168">
        <ele>120.4</ele>
        <time>2025-07-23T16:33:03Z</time>
      </trkpt>
      <trkpt lat="44.26199" lon="-0.53097">
        <ele>119.8</ele>
        <time>2025-07-23T16:33:11Z</time>
      </trkpt>
      <trkpt lat="44.26204" lon="-0.53078">
        <ele>119.6</ele>
        <time>2025-07-23T16:33:13Z</time>
      </trkpt>
      <trkpt lat="44.26224" lon="-0.53008">
        <ele>120.2</ele>
        <time>2025-07-23T16:33:21Z</time>
      </trkpt>
      <trkpt lat="44.26229" lon="-0.52989">
        <ele>120.4</ele>
        <time>2025-07-23T16:33:23Z</time>
      </trkpt>
      <trkpt lat="44.26246" lon="-0.52915">
        <ele>120.2</ele>
        <time>2025-07-23T16:33:31Z</time>
      </trkpt>
      <trkpt lat="44.26249" lon="-0.52896">
        <ele>120.2</ele>
        <time>2025-07-23T16:33:33Z</time>
      </trkpt>
      <trkpt lat="44.26264" lon="-0.52821">
        <ele>120</ele>
        <time>2025-07-23T16:33:41Z</time>
      </trkpt>
      <trkpt lat="44.2627" lon="-0.52794">
        <ele>120</ele>
        <time>2025-07-23T16:33:44Z</time>
      </trkpt>
      <trkpt lat="44.26286" lon="-0.52715">
        <ele>120</ele>
        <time>2025-07-23T16:33:53Z</time>
      </trkpt>
      <trkpt lat="44.2629" lon="-0.52697">
        <ele>120</ele>
        <time>2025-07-23T16:33:55Z</time>
      </trkpt>
      <trkpt lat="44.26307" lon="-0.5263">
        <ele>120</ele>
        <time>2025-07-23T16:34:03Z</time>
      </trkpt>
      <trkpt lat="44.26316" lon="-0.52595">
        <ele>119.4</ele>
        <time>2025-07-23T16:34:08Z</time>
      </trkpt>
      <trkpt lat="44.26335" lon="-0.52529">
        <ele>119.4</ele>
        <time>2025-07-23T16:34:17Z</time>
      </trkpt>
      <trkpt lat="44.26348" lon="-0.52486">
        <ele>119.2</ele>
        <time>2025-07-23T16:34:24Z</time>
      </trkpt>
      <trkpt lat="44.26355" lon="-0.52469">
        <ele>119</ele>
        <time>2025-07-23T16:34:27Z</time>
      </trkpt>
      <trkpt lat="44.26357" lon="-0.52464">
        <ele>119</ele>
        <time>2025-07-23T16:34:28Z</time>
      </trkpt>
      <trkpt lat="44.2636" lon="-0.52459">
        <ele>118.8</ele>
        <time>2025-07-23T16:34:29Z</time>
      </trkpt>
      <trkpt lat="44.26362" lon="-0.52455">
        <ele>118.8</ele>
        <time>2025-07-23T16:34:30Z</time>
      </trkpt>
      <trkpt lat="44.26369" lon="-0.52443">
        <ele>118.8</ele>
        <time>2025-07-23T16:34:34Z</time>
      </trkpt>
      <trkpt lat="44.26367" lon="-0.52407">
        <ele>118.8</ele>
        <time>2025-07-23T16:34:40Z</time>
      </trkpt>
      <trkpt lat="44.26364" lon="-0.52348">
        <ele>119.2</ele>
        <time>2025-07-23T16:34:49Z</time>
      </trkpt>
      <trkpt lat="44.26363" lon="-0.52318">
        <ele>119.4</ele>
        <time>2025-07-23T16:34:55Z</time>
      </trkpt>
      <trkpt lat="44.26357" lon="-0.52275">
        <ele>119.6</ele>
        <time>2025-07-23T16:35:03Z</time>
      </trkpt>
      <trkpt lat="44.26344" lon="-0.52231">
        <ele>119.4</ele>
        <time>2025-07-23T16:35:11Z</time>
      </trkpt>
      <trkpt lat="44.26326" lon="-0.52175">
        <ele>119.2</ele>
        <time>2025-07-23T16:35:19Z</time>
      </trkpt>
      <trkpt lat="44.26309" lon="-0.5212">
        <ele>119</ele>
        <time>2025-07-23T16:35:28Z</time>
      </trkpt>
      <trkpt lat="44.26304" lon="-0.52102">
        <ele>119</ele>
        <time>2025-07-23T16:35:31Z</time>
      </trkpt>
      <trkpt lat="44.263" lon="-0.52091">
        <ele>119</ele>
        <time>2025-07-23T16:35:33Z</time>
      </trkpt>
      <trkpt lat="44.26285" lon="-0.52044">
        <ele>119</ele>
        <time>2025-07-23T16:35:41Z</time>
      </trkpt>
      <trkpt lat="44.26286" lon="-0.52026">
        <ele>119.2</ele>
        <time>2025-07-23T16:35:45Z</time>
      </trkpt>
      <trkpt lat="44.26301" lon="-0.52012">
        <ele>119</ele>
        <time>2025-07-23T16:35:50Z</time>
      </trkpt>
      <trkpt lat="44.26309" lon="-0.52005">
        <ele>119</ele>
        <time>2025-07-23T16:35:52Z</time>
      </trkpt>
      <trkpt lat="44.26325" lon="-0.51989">
        <ele>119</ele>
        <time>2025-07-23T16:35:56Z</time>
      </trkpt>
      <trkpt lat="44.26353" lon="-0.51966">
        <ele>119.2</ele>
        <time>2025-07-23T16:36:03Z</time>
      </trkpt>
      <trkpt lat="44.26369" lon="-0.51948">
        <ele>119.6</ele>
        <time>2025-07-23T16:36:09Z</time>
      </trkpt>
      <trkpt lat="44.26369" lon="-0.51927">
        <ele>119.8</ele>
        <time>2025-07-23T16:36:15Z</time>
      </trkpt>
      <trkpt lat="44.26365" lon="-0.51907">
        <ele>119.6</ele>
        <time>2025-07-23T16:36:22Z</time>
      </trkpt>
      <trkpt lat="44.26366" lon="-0.51904">
        <ele>119.6</ele>
        <time>2025-07-23T16:36:24Z</time>
      </trkpt>
      <trkpt lat="44.26367" lon="-0.51905">
        <ele>119.4</ele>
        <time>2025-07-23T16:36:25Z</time>
      </trkpt>
      <trkpt lat="44.26367" lon="-0.51906">
        <ele>119.4</ele>
        <time>2025-07-23T16:36:28Z</time>
      </trkpt>
      <trkpt lat="44.26278" lon="-0.52042">
        <ele>120.6</ele>
        <time>2025-07-23T16:43:44Z</time>
      </trkpt>
      <trkpt lat="44.26277" lon="-0.52041">
        <ele>120.6</ele>
        <time>2025-07-23T16:43:45Z</time>
      </trkpt>
      <trkpt lat="44.26273" lon="-0.52042">
        <ele>120.6</ele>
        <time>2025-07-23T16:43:49Z</time>
      </trkpt>
      <trkpt lat="44.26271" lon="-0.52045">
        <ele>120.6</ele>
        <time>2025-07-23T16:43:52Z</time>
      </trkpt>
      <trkpt lat="44.26266" lon="-0.52049">
        <ele>120.6</ele>
        <time>2025-07-23T16:43:58Z</time>
      </trkpt>
      <trkpt lat="44.26264" lon="-0.52051">
        <ele>120.6</ele>
        <time>2025-07-23T16:44:01Z</time>
      </trkpt>
      <trkpt lat="44.26263" lon="-0.52051">
        <ele>120.6</ele>
        <time>2025-07-23T16:44:02Z</time>
      </trkpt>
      <trkpt lat="44.26263" lon="-0.52052">
        <ele>120.6</ele>
        <time>2025-07-23T16:44:03Z</time>
      </trkpt>
      <trkpt lat="44.26259" lon="-0.52055">
        <ele>120.6</ele>
        <time>2025-07-23T16:44:08Z</time>
      </trkpt>
      <trkpt lat="44.26256" lon="-0.52057">
        <ele>121</ele>
        <time>2025-07-23T16:44:15Z</time>
      </trkpt>
      <trkpt lat="44.26378" lon="-0.51932">
        <ele>115.8</ele>
        <time>2025-07-23T18:06:30Z</time>
      </trkpt>
      <trkpt lat="44.26388" lon="-0.51928">
        <ele>116</ele>
        <time>2025-07-23T18:06:34Z</time>
      </trkpt>
      <trkpt lat="44.26407" lon="-0.51914">
        <ele>116</ele>
        <time>2025-07-23T18:06:40Z</time>
      </trkpt>
      <trkpt lat="44.2643" lon="-0.51893">
        <ele>116.2</ele>
        <time>2025-07-23T18:06:46Z</time>
      </trkpt>
      <trkpt lat="44.26459" lon="-0.51869">
        <ele>116.2</ele>
        <time>2025-07-23T18:06:53Z</time>
      </trkpt>
      <trkpt lat="44.26471" lon="-0.51859">
        <ele>116.2</ele>
        <time>2025-07-23T18:06:56Z</time>
      </trkpt>
      <trkpt lat="44.26479" lon="-0.51852">
        <ele>116.2</ele>
        <time>2025-07-23T18:06:58Z</time>
      </trkpt>
      <trkpt lat="44.26503" lon="-0.51835">
        <ele>116.2</ele>
        <time>2025-07-23T18:07:04Z</time>
      </trkpt>
      <trkpt lat="44.26525" lon="-0.51825">
        <ele>116.4</ele>
        <time>2025-07-23T18:07:09Z</time>
      </trkpt>
      <trkpt lat="44.2653" lon="-0.51824">
        <ele>116.4</ele>
        <time>2025-07-23T18:07:10Z</time>
      </trkpt>
      <trkpt lat="44.26568" lon="-0.51825">
        <ele>116.4</ele>
        <time>2025-07-23T18:07:18Z</time>
      </trkpt>
      <trkpt lat="44.26604" lon="-0.51831">
        <ele>116.2</ele>
        <time>2025-07-23T18:07:26Z</time>
      </trkpt>
      <trkpt lat="44.2664" lon="-0.5184">
        <ele>116.2</ele>
        <time>2025-07-23T18:07:34Z</time>
      </trkpt>
      <trkpt lat="44.26671" lon="-0.51845">
        <ele>116.4</ele>
        <time>2025-07-23T18:07:41Z</time>
      </trkpt>
      <trkpt lat="44.26706" lon="-0.5185">
        <ele>116.4</ele>
        <time>2025-07-23T18:07:48Z</time>
      </trkpt>
      <trkpt lat="44.26721" lon="-0.51852">
        <ele>116</ele>
        <time>2025-07-23T18:07:51Z</time>
      </trkpt>
      <trkpt lat="44.26737" lon="-0.51854">
        <ele>115.6</ele>
        <time>2025-07-23T18:07:54Z</time>
      </trkpt>
      <trkpt lat="44.26748" lon="-0.51855">
        <ele>115.2</ele>
        <time>2025-07-23T18:07:56Z</time>
      </trkpt>
      <trkpt lat="44.26776" lon="-0.5186">
        <ele>114.8</ele>
        <time>2025-07-23T18:08:01Z</time>
      </trkpt>
      <trkpt lat="44.26783" lon="-0.51861">
        <ele>114.6</ele>
        <time>2025-07-23T18:08:02Z</time>
      </trkpt>
      <trkpt lat="44.26816" lon="-0.51867">
        <ele>114.2</ele>
        <time>2025-07-23T18:08:07Z</time>
      </trkpt>
      <trkpt lat="44.26858" lon="-0.51869">
        <ele>113.6</ele>
        <time>2025-07-23T18:08:13Z</time>
      </trkpt>
      <trkpt lat="44.26863" lon="-0.51869">
        <ele>113.6</ele>
        <time>2025-07-23T18:08:14Z</time>
      </trkpt>
      <trkpt lat="44.26897" lon="-0.5186">
        <ele>113.4</ele>
        <time>2025-07-23T18:08:20Z</time>
      </trkpt>
      <trkpt lat="44.26931" lon="-0.51841">
        <ele>114</ele>
        <time>2025-07-23T18:08:27Z</time>
      </trkpt>
      <trkpt lat="44.2694" lon="-0.51836">
        <ele>114.8</ele>
        <time>2025-07-23T18:08:29Z</time>
      </trkpt>
      <trkpt lat="44.26963" lon="-0.51821">
        <ele>115</ele>
        <time>2025-07-23T18:08:34Z</time>
      </trkpt>
      <trkpt lat="44.26998" lon="-0.51799">
        <ele>114.8</ele>
        <time>2025-07-23T18:08:41Z</time>
      </trkpt>
      <trkpt lat="44.27033" lon="-0.51777">
        <ele>114.4</ele>
        <time>2025-07-23T18:08:48Z</time>
      </trkpt>
      <trkpt lat="44.27077" lon="-0.51744">
        <ele>114.2</ele>
        <time>2025-07-23T18:08:57Z</time>
      </trkpt>
      <trkpt lat="44.27111" lon="-0.51713">
        <ele>114</ele>
        <time>2025-07-23T18:09:04Z</time>
      </trkpt>
      <trkpt lat="44.27121" lon="-0.51703">
        <ele>113.8</ele>
        <time>2025-07-23T18:09:06Z</time>
      </trkpt>
      <trkpt lat="44.27126" lon="-0.51698">
        <ele>113.6</ele>
        <time>2025-07-23T18:09:07Z</time>
      </trkpt>
      <trkpt lat="44.27154" lon="-0.5167">
        <ele>112.8</ele>
        <time>2025-07-23T18:09:12Z</time>
      </trkpt>
      <trkpt lat="44.2716" lon="-0.51664">
        <ele>112.8</ele>
        <time>2025-07-23T18:09:13Z</time>
      </trkpt>
      <trkpt lat="44.27166" lon="-0.51657">
        <ele>112.4</ele>
        <time>2025-07-23T18:09:14Z</time>
      </trkpt>
      <trkpt lat="44.27178" lon="-0.51642">
        <ele>111.6</ele>
        <time>2025-07-23T18:09:16Z</time>
      </trkpt>
      <trkpt lat="44.27184" lon="-0.51631">
        <ele>111.4</ele>
        <time>2025-07-23T18:09:17Z</time>
      </trkpt>
      <trkpt lat="44.27191" lon="-0.51612">
        <ele>110.6</ele>
        <time>2025-07-23T18:09:19Z</time>
      </trkpt>
      <trkpt lat="44.27196" lon="-0.51589">
        <ele>110</ele>
        <time>2025-07-23T18:09:21Z</time>
      </trkpt>
      <trkpt lat="44.27199" lon="-0.51545">
        <ele>108.8</ele>
        <time>2025-07-23T18:09:25Z</time>
      </trkpt>
      <trkpt lat="44.272" lon="-0.51534">
        <ele>108.4</ele>
        <time>2025-07-23T18:09:26Z</time>
      </trkpt>
      <trkpt lat="44.27202" lon="-0.51492">
        <ele>107.8</ele>
        <time>2025-07-23T18:09:30Z</time>
      </trkpt>
      <trkpt lat="44.27204" lon="-0.51451">
        <ele>107.4</ele>
        <time>2025-07-23T18:09:34Z</time>
      </trkpt>
      <trkpt lat="44.27208" lon="-0.51391">
        <ele>106.8</ele>
        <time>2025-07-23T18:09:40Z</time>
      </trkpt>
      <trkpt lat="44.27208" lon="-0.51382">
        <ele>106.8</ele>
        <time>2025-07-23T18:09:41Z</time>
      </trkpt>
      <trkpt lat="44.27212" lon="-0.51318">
        <ele>107</ele>
        <time>2025-07-23T18:09:48Z</time>
      </trkpt>
      <trkpt lat="44.27217" lon="-0.51297">
        <ele>107.2</ele>
        <time>2025-07-23T18:09:51Z</time>
      </trkpt>
      <trkpt lat="44.27221" lon="-0.51284">
        <ele>107.6</ele>
        <time>2025-07-23T18:09:53Z</time>
      </trkpt>
      <trkpt lat="44.27224" lon="-0.51279">
        <ele>107.8</ele>
        <time>2025-07-23T18:09:54Z</time>
      </trkpt>
      <trkpt lat="44.27226" lon="-0.51274">
        <ele>108</ele>
        <time>2025-07-23T18:09:55Z</time>
      </trkpt>
      <trkpt lat="44.27235" lon="-0.5126">
        <ele>108.8</ele>
        <time>2025-07-23T18:09:58Z</time>
      </trkpt>
      <trkpt lat="44.27239" lon="-0.51256">
        <ele>109.2</ele>
        <time>2025-07-23T18:09:59Z</time>
      </trkpt>
      <trkpt lat="44.2725" lon="-0.51242">
        <ele>110.4</ele>
        <time>2025-07-23T18:10:03Z</time>
      </trkpt>
      <trkpt lat="44.27259" lon="-0.51233">
        <ele>110.8</ele>
        <time>2025-07-23T18:10:06Z</time>
      </trkpt>
      <trkpt lat="44.27265" lon="-0.51226">
        <ele>111.2</ele>
        <time>2025-07-23T18:10:08Z</time>
      </trkpt>
      <trkpt lat="44.27277" lon="-0.51213">
        <ele>112</ele>
        <time>2025-07-23T18:10:12Z</time>
      </trkpt>
      <trkpt lat="44.2728" lon="-0.51209">
        <ele>112.6</ele>
        <time>2025-07-23T18:10:13Z</time>
      </trkpt>
      <trkpt lat="44.27297" lon="-0.51195">
        <ele>113.8</ele>
        <time>2025-07-23T18:10:18Z</time>
      </trkpt>
      <trkpt lat="44.273" lon="-0.51192">
        <ele>113.8</ele>
        <time>2025-07-23T18:10:19Z</time>
      </trkpt>
      <trkpt lat="44.27321" lon="-0.51174">
        <ele>114.8</ele>
        <time>2025-07-23T18:10:25Z</time>
      </trkpt>
      <trkpt lat="44.27334" lon="-0.51163">
        <ele>115.2</ele>
        <time>2025-07-23T18:10:29Z</time>
      </trkpt>
      <trkpt lat="44.27355" lon="-0.51143">
        <ele>115.8</ele>
        <time>2025-07-23T18:10:35Z</time>
      </trkpt>
      <trkpt lat="44.27362" lon="-0.51136">
        <ele>116</ele>
        <time>2025-07-23T18:10:37Z</time>
      </trkpt>
      <trkpt lat="44.27389" lon="-0.51112">
        <ele>115.8</ele>
        <time>2025-07-23T18:10:44Z</time>
      </trkpt>
      <trkpt lat="44.27393" lon="-0.51108">
        <ele>115.8</ele>
        <time>2025-07-23T18:10:45Z</time>
      </trkpt>
      <trkpt lat="44.2742" lon="-0.5108">
        <ele>115.8</ele>
        <time>2025-07-23T18:10:52Z</time>
      </trkpt>
      <trkpt lat="44.27452" lon="-0.51037">
        <ele>115.8</ele>
        <time>2025-07-23T18:11:00Z</time>
      </trkpt>
      <trkpt lat="44.27492" lon="-0.50979">
        <ele>115.2</ele>
        <time>2025-07-23T18:11:10Z</time>
      </trkpt>
      <trkpt lat="44.27526" lon="-0.50931">
        <ele>115</ele>
        <time>2025-07-23T18:11:18Z</time>
      </trkpt>
      <trkpt lat="44.27564" lon="-0.50876">
        <ele>115</ele>
        <time>2025-07-23T18:11:27Z</time>
      </trkpt>
      <trkpt lat="44.27595" lon="-0.5083">
        <ele>114.8</ele>
        <time>2025-07-23T18:11:35Z</time>
      </trkpt>
      <trkpt lat="44.27616" lon="-0.508">
        <ele>114.8</ele>
        <time>2025-07-23T18:11:40Z</time>
      </trkpt>
      <trkpt lat="44.27632" lon="-0.50776">
        <ele>114.8</ele>
        <time>2025-07-23T18:11:44Z</time>
      </trkpt>
      <trkpt lat="44.27673" lon="-0.50716">
        <ele>114.8</ele>
        <time>2025-07-23T18:11:54Z</time>
      </trkpt>
      <trkpt lat="44.27685" lon="-0.50698">
        <ele>114.8</ele>
        <time>2025-07-23T18:11:57Z</time>
      </trkpt>
      <trkpt lat="44.27726" lon="-0.5064">
        <ele>115.2</ele>
        <time>2025-07-23T18:12:07Z</time>
      </trkpt>
      <trkpt lat="44.27763" lon="-0.50584">
        <ele>115</ele>
        <time>2025-07-23T18:12:16Z</time>
      </trkpt>
      <trkpt lat="44.27767" lon="-0.50578">
        <ele>115</ele>
        <time>2025-07-23T18:12:17Z</time>
      </trkpt>
      <trkpt lat="44.27808" lon="-0.50518">
        <ele>115.4</ele>
        <time>2025-07-23T18:12:27Z</time>
      </trkpt>
      <trkpt lat="44.27813" lon="-0.50512">
        <ele>115.4</ele>
        <time>2025-07-23T18:12:28Z</time>
      </trkpt>
      <trkpt lat="44.27853" lon="-0.50453">
        <ele>115.2</ele>
        <time>2025-07-23T18:12:38Z</time>
      </trkpt>
      <trkpt lat="44.27856" lon="-0.50448">
        <ele>115.2</ele>
        <time>2025-07-23T18:12:39Z</time>
      </trkpt>
      <trkpt lat="44.27895" lon="-0.50394">
        <ele>114.8</ele>
        <time>2025-07-23T18:12:48Z</time>
      </trkpt>
      <trkpt lat="44.27902" lon="-0.50383">
        <ele>114.8</ele>
        <time>2025-07-23T18:12:50Z</time>
      </trkpt>
      <trkpt lat="44.27939" lon="-0.50329">
        <ele>115.2</ele>
        <time>2025-07-23T18:12:59Z</time>
      </trkpt>
      <trkpt lat="44.27972" lon="-0.50283">
        <ele>115.4</ele>
        <time>2025-07-23T18:13:07Z</time>
      </trkpt>
      <trkpt lat="44.28009" lon="-0.50228">
        <ele>115.6</ele>
        <time>2025-07-23T18:13:16Z</time>
      </trkpt>
      <trkpt lat="44.28049" lon="-0.50171">
        <ele>115.6</ele>
        <time>2025-07-23T18:13:25Z</time>
      </trkpt>
      <trkpt lat="44.28057" lon="-0.50158">
        <ele>115.6</ele>
        <time>2025-07-23T18:13:27Z</time>
      </trkpt>
      <trkpt lat="44.28067" lon="-0.50144">
        <ele>115.8</ele>
        <time>2025-07-23T18:13:29Z</time>
      </trkpt>
      <trkpt lat="44.28092" lon="-0.50107">
        <ele>115.8</ele>
        <time>2025-07-23T18:13:35Z</time>
      </trkpt>
      <trkpt lat="44.2813" lon="-0.50051">
        <ele>115.8</ele>
        <time>2025-07-23T18:13:44Z</time>
      </trkpt>
      <trkpt lat="44.28169" lon="-0.49994">
        <ele>115.8</ele>
        <time>2025-07-23T18:13:53Z</time>
      </trkpt>
      <trkpt lat="44.28173" lon="-0.49988">
        <ele>115.8</ele>
        <time>2025-07-23T18:13:54Z</time>
      </trkpt>
      <trkpt lat="44.28211" lon="-0.49932">
        <ele>116.2</ele>
        <time>2025-07-23T18:14:03Z</time>
      </trkpt>
      <trkpt lat="44.28215" lon="-0.49926">
        <ele>116.2</ele>
        <time>2025-07-23T18:14:04Z</time>
      </trkpt>
      <trkpt lat="44.28248" lon="-0.49878">
        <ele>115.8</ele>
        <time>2025-07-23T18:14:12Z</time>
      </trkpt>
      <trkpt lat="44.28286" lon="-0.49823">
        <ele>115.6</ele>
        <time>2025-07-23T18:14:21Z</time>
      </trkpt>
      <trkpt lat="44.28291" lon="-0.49816">
        <ele>115.6</ele>
        <time>2025-07-23T18:14:22Z</time>
      </trkpt>
      <trkpt lat="44.28329" lon="-0.4976">
        <ele>116</ele>
        <time>2025-07-23T18:14:31Z</time>
      </trkpt>
      <trkpt lat="44.28343" lon="-0.4974">
        <ele>116</ele>
        <time>2025-07-23T18:14:34Z</time>
      </trkpt>
      <trkpt lat="44.28383" lon="-0.49681">
        <ele>116</ele>
        <time>2025-07-23T18:14:44Z</time>
      </trkpt>
      <trkpt lat="44.28391" lon="-0.49669">
        <ele>116</ele>
        <time>2025-07-23T18:14:46Z</time>
      </trkpt>
      <trkpt lat="44.28428" lon="-0.49616">
        <ele>116.2</ele>
        <time>2025-07-23T18:14:55Z</time>
      </trkpt>
      <trkpt lat="44.2847" lon="-0.49553">
        <ele>116</ele>
        <time>2025-07-23T18:15:05Z</time>
      </trkpt>
      <trkpt lat="44.28478" lon="-0.49542">
        <ele>115.8</ele>
        <time>2025-07-23T18:15:07Z</time>
      </trkpt>
      <trkpt lat="44.28518" lon="-0.49485">
        <ele>116</ele>
        <time>2025-07-23T18:15:16Z</time>
      </trkpt>
      <trkpt lat="44.28522" lon="-0.49479">
        <ele>116</ele>
        <time>2025-07-23T18:15:17Z</time>
      </trkpt>
      <trkpt lat="44.2856" lon="-0.49424">
        <ele>116.2</ele>
        <time>2025-07-23T18:15:26Z</time>
      </trkpt>
      <trkpt lat="44.28568" lon="-0.49412">
        <ele>116.2</ele>
        <time>2025-07-23T18:15:28Z</time>
      </trkpt>
      <trkpt lat="44.28609" lon="-0.49353">
        <ele>115.4</ele>
        <time>2025-07-23T18:15:38Z</time>
      </trkpt>
      <trkpt lat="44.28648" lon="-0.49297">
        <ele>115.4</ele>
        <time>2025-07-23T18:15:47Z</time>
      </trkpt>
      <trkpt lat="44.2866" lon="-0.49279">
        <ele>115.4</ele>
        <time>2025-07-23T18:15:50Z</time>
      </trkpt>
      <trkpt lat="44.28697" lon="-0.49224">
        <ele>116</ele>
        <time>2025-07-23T18:15:59Z</time>
      </trkpt>
      <trkpt lat="44.28705" lon="-0.49212">
        <ele>116</ele>
        <time>2025-07-23T18:16:01Z</time>
      </trkpt>
      <trkpt lat="44.28747" lon="-0.49152">
        <ele>115.4</ele>
        <time>2025-07-23T18:16:11Z</time>
      </trkpt>
      <trkpt lat="44.28751" lon="-0.49146">
        <ele>115.4</ele>
        <time>2025-07-23T18:16:12Z</time>
      </trkpt>
      <trkpt lat="44.28789" lon="-0.49091">
        <ele>116.2</ele>
        <time>2025-07-23T18:16:21Z</time>
      </trkpt>
      <trkpt lat="44.28793" lon="-0.49085">
        <ele>116.4</ele>
        <time>2025-07-23T18:16:22Z</time>
      </trkpt>
      <trkpt lat="44.28834" lon="-0.49029">
        <ele>116.4</ele>
        <time>2025-07-23T18:16:31Z</time>
      </trkpt>
      <trkpt lat="44.28847" lon="-0.49011">
        <ele>116</ele>
        <time>2025-07-23T18:16:34Z</time>
      </trkpt>
      <trkpt lat="44.28883" lon="-0.48967">
        <ele>115.8</ele>
        <time>2025-07-23T18:16:42Z</time>
      </trkpt>
      <trkpt lat="44.28919" lon="-0.48921">
        <ele>115.6</ele>
        <time>2025-07-23T18:16:50Z</time>
      </trkpt>
      <trkpt lat="44.28961" lon="-0.4887">
        <ele>115.6</ele>
        <time>2025-07-23T18:16:59Z</time>
      </trkpt>
      <trkpt lat="44.2897" lon="-0.48858">
        <ele>115.6</ele>
        <time>2025-07-23T18:17:01Z</time>
      </trkpt>
      <trkpt lat="44.29014" lon="-0.48804">
        <ele>116.4</ele>
        <time>2025-07-23T18:17:10Z</time>
      </trkpt>
      <trkpt lat="44.29057" lon="-0.48752">
        <ele>116.6</ele>
        <time>2025-07-23T18:17:19Z</time>
      </trkpt>
      <trkpt lat="44.29099" lon="-0.48699">
        <ele>116.6</ele>
        <time>2025-07-23T18:17:28Z</time>
      </trkpt>
      <trkpt lat="44.29103" lon="-0.48693">
        <ele>116.6</ele>
        <time>2025-07-23T18:17:29Z</time>
      </trkpt>
      <trkpt lat="44.29146" lon="-0.48638">
        <ele>116.2</ele>
        <time>2025-07-23T18:17:38Z</time>
      </trkpt>
      <trkpt lat="44.2915" lon="-0.48633">
        <ele>116.2</ele>
        <time>2025-07-23T18:17:39Z</time>
      </trkpt>
      <trkpt lat="44.29182" lon="-0.4859">
        <ele>116</ele>
        <time>2025-07-23T18:17:46Z</time>
      </trkpt>
      <trkpt lat="44.29221" lon="-0.48537">
        <ele>116</ele>
        <time>2025-07-23T18:17:54Z</time>
      </trkpt>
      <trkpt lat="44.29229" lon="-0.48525">
        <ele>116</ele>
        <time>2025-07-23T18:17:56Z</time>
      </trkpt>
      <trkpt lat="44.2927" lon="-0.48468">
        <ele>116.2</ele>
        <time>2025-07-23T18:18:05Z</time>
      </trkpt>
      <trkpt lat="44.29275" lon="-0.48461">
        <ele>116.2</ele>
        <time>2025-07-23T18:18:06Z</time>
      </trkpt>
      <trkpt lat="44.29309" lon="-0.48415">
        <ele>116.6</ele>
        <time>2025-07-23T18:18:13Z</time>
      </trkpt>
      <trkpt lat="44.2935" lon="-0.4836">
        <ele>116.4</ele>
        <time>2025-07-23T18:18:22Z</time>
      </trkpt>
      <trkpt lat="44.29355" lon="-0.48353">
        <ele>116.4</ele>
        <time>2025-07-23T18:18:23Z</time>
      </trkpt>
      <trkpt lat="44.29397" lon="-0.48297">
        <ele>116.2</ele>
        <time>2025-07-23T18:18:32Z</time>
      </trkpt>
      <trkpt lat="44.29409" lon="-0.4828">
        <ele>116.2</ele>
        <time>2025-07-23T18:18:35Z</time>
      </trkpt>
      <trkpt lat="44.29451" lon="-0.48224">
        <ele>116.4</ele>
        <time>2025-07-23T18:18:44Z</time>
      </trkpt>
      <trkpt lat="44.29488" lon="-0.48175">
        <ele>116.6</ele>
        <time>2025-07-23T18:18:52Z</time>
      </trkpt>
      <trkpt lat="44.29529" lon="-0.48123">
        <ele>116.6</ele>
        <time>2025-07-23T18:19:01Z</time>
      </trkpt>
      <trkpt lat="44.29543" lon="-0.48104">
        <ele>116.8</ele>
        <time>2025-07-23T18:19:04Z</time>
      </trkpt>
      <trkpt lat="44.29585" lon="-0.48048">
        <ele>117</ele>
        <time>2025-07-23T18:19:13Z</time>
      </trkpt>
      <trkpt lat="44.29593" lon="-0.48037">
        <ele>117.2</ele>
        <time>2025-07-23T18:19:15Z</time>
      </trkpt>
      <trkpt lat="44.2963" lon="-0.47988">
        <ele>118</ele>
        <time>2025-07-23T18:19:23Z</time>
      </trkpt>
      <trkpt lat="44.29634" lon="-0.47982">
        <ele>118.2</ele>
        <time>2025-07-23T18:19:24Z</time>
      </trkpt>
      <trkpt lat="44.29663" lon="-0.47944">
        <ele>118.8</ele>
        <time>2025-07-23T18:19:31Z</time>
      </trkpt>
      <trkpt lat="44.29703" lon="-0.47892">
        <ele>117.8</ele>
        <time>2025-07-23T18:19:40Z</time>
      </trkpt>
      <trkpt lat="44.29707" lon="-0.47887">
        <ele>117.8</ele>
        <time>2025-07-23T18:19:41Z</time>
      </trkpt>
      <trkpt lat="44.29744" lon="-0.47838">
        <ele>117.6</ele>
        <time>2025-07-23T18:19:50Z</time>
      </trkpt>
      <trkpt lat="44.29761" lon="-0.47816">
        <ele>117.4</ele>
        <time>2025-07-23T18:19:55Z</time>
      </trkpt>
      <trkpt lat="44.29772" lon="-0.47802">
        <ele>117.2</ele>
        <time>2025-07-23T18:19:58Z</time>
      </trkpt>
      <trkpt lat="44.29798" lon="-0.47769">
        <ele>117.4</ele>
        <time>2025-07-23T18:20:05Z</time>
      </trkpt>
      <trkpt lat="44.29813" lon="-0.47748">
        <ele>117.2</ele>
        <time>2025-07-23T18:20:09Z</time>
      </trkpt>
      <trkpt lat="44.29828" lon="-0.47727">
        <ele>117.2</ele>
        <time>2025-07-23T18:20:13Z</time>
      </trkpt>
      <trkpt lat="44.29856" lon="-0.47688">
        <ele>116.8</ele>
        <time>2025-07-23T18:20:21Z</time>
      </trkpt>
      <trkpt lat="44.29877" lon="-0.4766">
        <ele>116.8</ele>
        <time>2025-07-23T18:20:28Z</time>
      </trkpt>
      <trkpt lat="44.29886" lon="-0.47649">
        <ele>116.8</ele>
        <time>2025-07-23T18:20:34Z</time>
      </trkpt>
      <trkpt lat="44.29889" lon="-0.47655">
        <ele>116.8</ele>
        <time>2025-07-23T18:20:38Z</time>
      </trkpt>
      <trkpt lat="44.2989" lon="-0.47656">
        <ele>116.8</ele>
        <time>2025-07-23T18:20:39Z</time>
      </trkpt>
      <trkpt lat="44.29891" lon="-0.47656">
        <ele>116.8</ele>
        <time>2025-07-23T18:20:42Z</time>
      </trkpt>
      <trkpt lat="44.29898" lon="-0.47656">
        <ele>116.8</ele>
        <time>2025-07-23T18:20:47Z</time>
      </trkpt>
      <trkpt lat="44.29901" lon="-0.47655">
        <ele>116.6</ele>
        <time>2025-07-23T18:20:49Z</time>
      </trkpt>
      <trkpt lat="44.29913" lon="-0.47654">
        <ele>116.6</ele>
        <time>2025-07-23T18:20:55Z</time>
      </trkpt>
      <trkpt lat="44.29925" lon="-0.47651">
        <ele>116.4</ele>
        <time>2025-07-23T18:21:01Z</time>
      </trkpt>
      <trkpt lat="44.29927" lon="-0.47652">
        <ele>116.4</ele>
        <time>2025-07-23T18:21:02Z</time>
      </trkpt>
      <trkpt lat="44.29938" lon="-0.47668">
        <ele>116.2</ele>
        <time>2025-07-23T18:21:07Z</time>
      </trkpt>
      <trkpt lat="44.29944" lon="-0.47686">
        <ele>116.4</ele>
        <time>2025-07-23T18:21:12Z</time>
      </trkpt>
      <trkpt lat="44.29944" lon="-0.47687">
        <ele>116.2</ele>
        <time>2025-07-23T18:21:13Z</time>
      </trkpt>
      <trkpt lat="44.29944" lon="-0.47687">
        <ele>116.2</ele>
        <time>2025-07-23T18:21:15Z</time>
      </trkpt>
      <trkpt lat="44.29946" lon="-0.47693">
        <ele>116</ele>
        <time>2025-07-23T18:21:22Z</time>
      </trkpt>
      <trkpt lat="44.29946" lon="-0.47698">
        <ele>116</ele>
        <time>2025-07-23T18:21:24Z</time>
      </trkpt>
      <trkpt lat="44.29944" lon="-0.47702">
        <ele>116.2</ele>
        <time>2025-07-23T18:21:26Z</time>
      </trkpt>
      <trkpt lat="44.29939" lon="-0.47705">
        <ele>116</ele>
        <time>2025-07-23T18:21:28Z</time>
      </trkpt>
      <trkpt lat="44.29925" lon="-0.47703">
        <ele>116</ele>
        <time>2025-07-23T18:21:34Z</time>
      </trkpt>
      <trkpt lat="44.29908" lon="-0.47683">
        <ele>116.2</ele>
        <time>2025-07-23T18:21:41Z</time>
      </trkpt>
      <trkpt lat="44.29888" lon="-0.47658">
        <ele>116.4</ele>
        <time>2025-07-23T18:21:50Z</time>
      </trkpt>
      <trkpt lat="44.29884" lon="-0.47651">
        <ele>116.4</ele>
        <time>2025-07-23T18:21:53Z</time>
      </trkpt>
      <trkpt lat="44.29886" lon="-0.47645">
        <ele>116.4</ele>
        <time>2025-07-23T18:21:55Z</time>
      </trkpt>
      <trkpt lat="44.29902" lon="-0.47624">
        <ele>116.4</ele>
        <time>2025-07-23T18:22:01Z</time>
      </trkpt>
      <trkpt lat="44.29921" lon="-0.47596">
        <ele>116.4</ele>
        <time>2025-07-23T18:22:07Z</time>
      </trkpt>
      <trkpt lat="44.29951" lon="-0.47553">
        <ele>116.6</ele>
        <time>2025-07-23T18:22:15Z</time>
      </trkpt>
      <trkpt lat="44.2998" lon="-0.47511">
        <ele>116.8</ele>
        <time>2025-07-23T18:22:23Z</time>
      </trkpt>
      <trkpt lat="44.30007" lon="-0.47472">
        <ele>116.8</ele>
        <time>2025-07-23T18:22:30Z</time>
      </trkpt>
      <trkpt lat="44.30047" lon="-0.47415">
        <ele>117</ele>
        <time>2025-07-23T18:22:40Z</time>
      </trkpt>
      <trkpt lat="44.30083" lon="-0.47363">
        <ele>117</ele>
        <time>2025-07-23T18:22:49Z</time>
      </trkpt>
      <trkpt lat="44.3012" lon="-0.4731">
        <ele>117.2</ele>
        <time>2025-07-23T18:22:58Z</time>
      </trkpt>
      <trkpt lat="44.30152" lon="-0.47264">
        <ele>117.6</ele>
        <time>2025-07-23T18:23:06Z</time>
      </trkpt>
      <trkpt lat="44.30191" lon="-0.47209">
        <ele>117.6</ele>
        <time>2025-07-23T18:23:15Z</time>
      </trkpt>
      <trkpt lat="44.30219" lon="-0.47168">
        <ele>117.4</ele>
        <time>2025-07-23T18:23:22Z</time>
      </trkpt>
      <trkpt lat="44.30257" lon="-0.47113">
        <ele>117.6</ele>
        <time>2025-07-23T18:23:31Z</time>
      </trkpt>
      <trkpt lat="44.30265" lon="-0.47101">
        <ele>117.6</ele>
        <time>2025-07-23T18:23:33Z</time>
      </trkpt>
      <trkpt lat="44.30303" lon="-0.47046">
        <ele>118</ele>
        <time>2025-07-23T18:23:42Z</time>
      </trkpt>
      <trkpt lat="44.30344" lon="-0.46987">
        <ele>118</ele>
        <time>2025-07-23T18:23:52Z</time>
      </trkpt>
      <trkpt lat="44.30348" lon="-0.46981">
        <ele>118</ele>
        <time>2025-07-23T18:23:53Z</time>
      </trkpt>
      <trkpt lat="44.30387" lon="-0.46925">
        <ele>118</ele>
        <time>2025-07-23T18:24:02Z</time>
      </trkpt>
      <trkpt lat="44.30395" lon="-0.46913">
        <ele>118</ele>
        <time>2025-07-23T18:24:04Z</time>
      </trkpt>
      <trkpt lat="44.30425" lon="-0.4687">
        <ele>118</ele>
        <time>2025-07-23T18:24:11Z</time>
      </trkpt>
      <trkpt lat="44.30464" lon="-0.46813">
        <ele>117.8</ele>
        <time>2025-07-23T18:24:20Z</time>
      </trkpt>
      <trkpt lat="44.30468" lon="-0.46807">
        <ele>117.8</ele>
        <time>2025-07-23T18:24:21Z</time>
      </trkpt>
      <trkpt lat="44.30506" lon="-0.46753">
        <ele>118</ele>
        <time>2025-07-23T18:24:30Z</time>
      </trkpt>
      <trkpt lat="44.30519" lon="-0.46735">
        <ele>118.2</ele>
        <time>2025-07-23T18:24:33Z</time>
      </trkpt>
      <trkpt lat="44.30523" lon="-0.46729">
        <ele>118.2</ele>
        <time>2025-07-23T18:24:34Z</time>
      </trkpt>
      <trkpt lat="44.30549" lon="-0.46692">
        <ele>118.2</ele>
        <time>2025-07-23T18:24:41Z</time>
      </trkpt>
      <trkpt lat="44.30558" lon="-0.46679">
        <ele>118.2</ele>
        <time>2025-07-23T18:24:45Z</time>
      </trkpt>
      <trkpt lat="44.30562" lon="-0.46672">
        <ele>118.2</ele>
        <time>2025-07-23T18:24:49Z</time>
      </trkpt>
      <trkpt lat="44.30562" lon="-0.46671">
        <ele>118.2</ele>
        <time>2025-07-23T18:24:50Z</time>
      </trkpt>
      <trkpt lat="44.30562" lon="-0.46671">
        <ele>118.2</ele>
        <time>2025-07-23T18:24:52Z</time>
      </trkpt>
    </trkseg>
  </trk>
</gpx>